﻿<?xml version="1.0" encoding="utf-8"?><gpx creator="Garmin Desktop App" version="1.1" xsi:schemaLocation="http://www.topografix.com/GPX/1/1 http://www.topografix.com/GPX/1/1/gpx.xsd http://www.garmin.com/xmlschemas/WaypointExtension/v1 http://www8.garmin.com/xmlschemas/WaypointExtensionv1.xsd http://www.garmin.com/xmlschemas/TrackPointExtension/v1 http://www.garmin.com/xmlschemas/TrackPointExtensionv1.xsd http://www.garmin.com/xmlschemas/GpxExtensions/v3 http://www8.garmin.com/xmlschemas/GpxExtensionsv3.xsd http://www.garmin.com/xmlschemas/ActivityExtension/v1 http://www8.garmin.com/xmlschemas/ActivityExtensionv1.xsd http://www.garmin.com/xmlschemas/AdventuresExtensions/v1 http://www8.garmin.com/xmlschemas/AdventuresExtensionv1.xsd http://www.garmin.com/xmlschemas/PressureExtension/v1 http://www.garmin.com/xmlschemas/PressureExtensionv1.xsd http://www.garmin.com/xmlschemas/TripExtensions/v1 http://www.garmin.com/xmlschemas/TripExtensionsv1.xsd http://www.garmin.com/xmlschemas/TripMetaDataExtensions/v1 http://www.garmin.com/xmlschemas/TripMetaDataExtensionsv1.xsd http://www.garmin.com/xmlschemas/ViaPointTransportationModeExtensions/v1 http://www.garmin.com/xmlschemas/ViaPointTransportationModeExtensionsv1.xsd http://www.garmin.com/xmlschemas/CreationTimeExtension/v1 http://www.garmin.com/xmlschemas/CreationTimeExtensionsv1.xsd http://www.garmin.com/xmlschemas/AccelerationExtension/v1 http://www.garmin.com/xmlschemas/AccelerationExtensionv1.xsd http://www.garmin.com/xmlschemas/PowerExtension/v1 http://www.garmin.com/xmlschemas/PowerExtensionv1.xsd http://www.garmin.com/xmlschemas/VideoExtension/v1 http://www.garmin.com/xmlschemas/VideoExtensionv1.xsd" xmlns="http://www.topografix.com/GPX/1/1" xmlns:xsi="http://www.w3.org/2001/XMLSchema-instance" xmlns:wptx1="http://www.garmin.com/xmlschemas/WaypointExtension/v1" xmlns:gpxtrx="http://www.garmin.com/xmlschemas/GpxExtensions/v3" xmlns:gpxtpx="http://www.garmin.com/xmlschemas/TrackPointExtension/v1" xmlns:gpxx="http://www.garmin.com/xmlschemas/GpxExtensions/v3" xmlns:trp="http://www.garmin.com/xmlschemas/TripExtensions/v1" xmlns:adv="http://www.garmin.com/xmlschemas/AdventuresExtensions/v1" xmlns:prs="http://www.garmin.com/xmlschemas/PressureExtension/v1" xmlns:tmd="http://www.garmin.com/xmlschemas/TripMetaDataExtensions/v1" xmlns:vptm="http://www.garmin.com/xmlschemas/ViaPointTransportationModeExtensions/v1" xmlns:ctx="http://www.garmin.com/xmlschemas/CreationTimeExtension/v1" xmlns:gpxacc="http://www.garmin.com/xmlschemas/AccelerationExtension/v1" xmlns:gpxpx="http://www.garmin.com/xmlschemas/PowerExtension/v1" xmlns:vidx1="http://www.garmin.com/xmlschemas/VideoExtension/v1">

  <metadata>
    <link href="http://www.garmin.com">
      <text>Garmin International</text>
    </link>
    <time>2025-05-14T15:03:30Z</time>
    <bounds maxlat="42.583875004202127" maxlon="1.733799017965794" minlat="41.464041005820036" minlon="-0.893666027113795" />
  </metadata>

  <trk>
    <name>250514_G_Track</name>
    <extensions>
      <gpxx:TrackExtension>
        <gpxx:DisplayColor>DarkGray</gpxx:DisplayColor>
      </gpxx:TrackExtension>
    </extensions>
    <trkseg>
      <trkpt lat="41.654410036280751" lon="-0.887927021831274">
        <ele>188.56</ele>
        <time>2025-05-14T06:04:27Z</time>
      </trkpt>
      <trkpt lat="41.654485976323485" lon="-0.887830965220928">
        <ele>184.71000000000001</ele>
        <time>2025-05-14T06:04:59Z</time>
      </trkpt>
      <trkpt lat="41.654526963829994" lon="-0.887892991304398">
        <ele>197.21000000000001</ele>
        <time>2025-05-14T06:05:30Z</time>
      </trkpt>
      <trkpt lat="41.654500979930162" lon="-0.887944037094712">
        <ele>198.65000000000001</ele>
        <time>2025-05-14T06:06:02Z</time>
      </trkpt>
      <trkpt lat="41.654503997415304" lon="-0.887941019609571">
        <ele>199.13</ele>
        <time>2025-05-14T06:06:47Z</time>
      </trkpt>
      <trkpt lat="41.654510032385588" lon="-0.887930961325765">
        <ele>199.61000000000001</ele>
        <time>2025-05-14T06:07:31Z</time>
      </trkpt>
      <trkpt lat="41.654512966051698" lon="-0.887926016002893">
        <ele>200.56999999999999</ele>
        <time>2025-05-14T06:08:09Z</time>
      </trkpt>
      <trkpt lat="41.654512966051698" lon="-0.887925010174513">
        <ele>201.05000000000001</ele>
        <time>2025-05-14T06:08:57Z</time>
      </trkpt>
      <trkpt lat="41.654519001021981" lon="-0.887924004346132">
        <ele>202.00999999999999</ele>
        <time>2025-05-14T06:09:44Z</time>
      </trkpt>
      <trkpt lat="41.654523024335504" lon="-0.887921992689371">
        <ele>202.97999999999999</ele>
        <time>2025-05-14T06:10:22Z</time>
      </trkpt>
      <trkpt lat="41.654525035992265" lon="-0.887922998517752">
        <ele>202.97999999999999</ele>
        <time>2025-05-14T06:11:03Z</time>
      </trkpt>
      <trkpt lat="41.654540961608291" lon="-0.887931967154145">
        <ele>202.97999999999999</ele>
        <time>2025-05-14T06:11:40Z</time>
      </trkpt>
      <trkpt lat="41.654526963829994" lon="-0.887973960489035">
        <ele>214.50999999999999</ele>
        <time>2025-05-14T06:12:15Z</time>
      </trkpt>
      <trkpt lat="41.654567029327154" lon="-0.887934984639287">
        <ele>213.55000000000001</ele>
        <time>2025-05-14T06:12:39Z</time>
      </trkpt>
      <trkpt lat="41.654558982700109" lon="-0.887953005731106">
        <ele>213.55000000000001</ele>
        <time>2025-05-14T06:13:16Z</time>
      </trkpt>
      <trkpt lat="41.654626959934831" lon="-0.88796298019588">
        <ele>217.40000000000001</ele>
        <time>2025-05-14T06:13:40Z</time>
      </trkpt>
      <trkpt lat="41.654641041532159" lon="-0.887964991852641">
        <ele>218.84</ele>
        <time>2025-05-14T06:13:54Z</time>
      </trkpt>
      <trkpt lat="41.654702983796597" lon="-0.888189040124416">
        <ele>218.84</ele>
        <time>2025-05-14T06:14:03Z</time>
      </trkpt>
      <trkpt lat="41.654702983796597" lon="-0.888189040124416">
        <ele>218.84</ele>
        <time>2025-05-14T06:14:29Z</time>
      </trkpt>
      <trkpt lat="41.654733996838331" lon="-0.888205971568823">
        <ele>225.09</ele>
        <time>2025-05-14T06:14:38Z</time>
      </trkpt>
      <trkpt lat="41.654743971303105" lon="-0.888163978233933">
        <ele>226.53</ele>
        <time>2025-05-14T06:14:40Z</time>
      </trkpt>
      <trkpt lat="41.654762998223305" lon="-0.888150986284018">
        <ele>227.00999999999999</ele>
        <time>2025-05-14T06:14:41Z</time>
      </trkpt>
      <trkpt lat="41.655008001253009" lon="-0.887984018772841">
        <ele>228.93000000000001</ele>
        <time>2025-05-14T06:14:48Z</time>
      </trkpt>
      <trkpt lat="41.655027028173208" lon="-0.887970020994544">
        <ele>229.41</ele>
        <time>2025-05-14T06:14:49Z</time>
      </trkpt>
      <trkpt lat="41.655048988759518" lon="-0.887956023216248">
        <ele>229.41</ele>
        <time>2025-05-14T06:14:50Z</time>
      </trkpt>
      <trkpt lat="41.655071033164859" lon="-0.88794001378119">
        <ele>229.41</ele>
        <time>2025-05-14T06:14:51Z</time>
      </trkpt>
      <trkpt lat="41.655071033164859" lon="-0.88794001378119">
        <ele>229.41</ele>
        <time>2025-05-14T06:14:52Z</time>
      </trkpt>
      <trkpt lat="41.655037002637982" lon="-0.887676989659667">
        <ele>229.88999999999999</ele>
        <time>2025-05-14T06:14:55Z</time>
      </trkpt>
      <trkpt lat="41.654966007918119" lon="-0.887297037988901">
        <ele>230.37</ele>
        <time>2025-05-14T06:14:59Z</time>
      </trkpt>
      <trkpt lat="41.654930971562862" lon="-0.886813988909125">
        <ele>228.93000000000001</ele>
        <time>2025-05-14T06:15:05Z</time>
      </trkpt>
      <trkpt lat="41.654889984056354" lon="-0.886634029448032">
        <ele>228.44999999999999</ele>
        <time>2025-05-14T06:15:07Z</time>
      </trkpt>
      <trkpt lat="41.6546889860183" lon="-0.886037992313504">
        <ele>224.61000000000001</ele>
        <time>2025-05-14T06:15:15Z</time>
      </trkpt>
      <trkpt lat="41.654749000445008" lon="-0.885816039517522">
        <ele>224.12</ele>
        <time>2025-05-14T06:15:17Z</time>
      </trkpt>
      <trkpt lat="41.654749000445008" lon="-0.885816039517522">
        <ele>224.12</ele>
        <time>2025-05-14T06:15:18Z</time>
      </trkpt>
      <trkpt lat="41.654749000445008" lon="-0.885816039517522">
        <ele>223.63999999999999</ele>
        <time>2025-05-14T06:15:19Z</time>
      </trkpt>
      <trkpt lat="41.654749000445008" lon="-0.885816039517522">
        <ele>223.63999999999999</ele>
        <time>2025-05-14T06:15:20Z</time>
      </trkpt>
      <trkpt lat="41.654842961579561" lon="-0.884744999930263">
        <ele>220.75999999999999</ele>
        <time>2025-05-14T06:15:29Z</time>
      </trkpt>
      <trkpt lat="41.6545370221138" lon="-0.884277960285544">
        <ele>216.91</ele>
        <time>2025-05-14T06:15:34Z</time>
      </trkpt>
      <trkpt lat="41.6545370221138" lon="-0.884277960285544">
        <ele>215.47</ele>
        <time>2025-05-14T06:15:48Z</time>
      </trkpt>
      <trkpt lat="41.6545370221138" lon="-0.884277960285544">
        <ele>215.47</ele>
        <time>2025-05-14T06:16:00Z</time>
      </trkpt>
      <trkpt lat="41.65406302548945" lon="-0.884248958900571">
        <ele>214.50999999999999</ele>
        <time>2025-05-14T06:16:05Z</time>
      </trkpt>
      <trkpt lat="41.65406302548945" lon="-0.884248958900571">
        <ele>214.03</ele>
        <time>2025-05-14T06:16:06Z</time>
      </trkpt>
      <trkpt lat="41.65406302548945" lon="-0.884248958900571">
        <ele>214.03</ele>
        <time>2025-05-14T06:16:07Z</time>
      </trkpt>
      <trkpt lat="41.65406302548945" lon="-0.884248958900571">
        <ele>214.03</ele>
        <time>2025-05-14T06:16:08Z</time>
      </trkpt>
      <trkpt lat="41.65402002632618" lon="-0.884205959737301">
        <ele>214.50999999999999</ele>
        <time>2025-05-14T06:16:09Z</time>
      </trkpt>
      <trkpt lat="41.653985995799303" lon="-0.88420202024281">
        <ele>215.47</ele>
        <time>2025-05-14T06:16:10Z</time>
      </trkpt>
      <trkpt lat="41.65393503382802" lon="-0.884193973615766">
        <ele>216.43000000000001</ele>
        <time>2025-05-14T06:16:11Z</time>
      </trkpt>
      <trkpt lat="41.653862027451396" lon="-0.884187016636133">
        <ele>216.91</ele>
        <time>2025-05-14T06:16:12Z</time>
      </trkpt>
      <trkpt lat="41.653800001367927" lon="-0.884207971394062">
        <ele>216.91</ele>
        <time>2025-05-14T06:16:13Z</time>
      </trkpt>
      <trkpt lat="41.653736969456077" lon="-0.884229009971023">
        <ele>216.91</ele>
        <time>2025-05-14T06:16:14Z</time>
      </trkpt>
      <trkpt lat="41.653675027191639" lon="-0.884249964728951">
        <ele>216.43000000000001</ele>
        <time>2025-05-14T06:16:15Z</time>
      </trkpt>
      <trkpt lat="41.653604032471776" lon="-0.884274020791054">
        <ele>216.43000000000001</ele>
        <time>2025-05-14T06:16:16Z</time>
      </trkpt>
      <trkpt lat="41.653542006388307" lon="-0.884306039661169">
        <ele>216.43000000000001</ele>
        <time>2025-05-14T06:16:17Z</time>
      </trkpt>
      <trkpt lat="41.653474029153585" lon="-0.884339986369014">
        <ele>216.43000000000001</ele>
        <time>2025-05-14T06:16:18Z</time>
      </trkpt>
      <trkpt lat="41.653329022228718" lon="-0.88439698331058">
        <ele>215.94999999999999</ele>
        <time>2025-05-14T06:16:21Z</time>
      </trkpt>
      <trkpt lat="41.653289962559938" lon="-0.884410981088877">
        <ele>215.47</ele>
        <time>2025-05-14T06:16:22Z</time>
      </trkpt>
      <trkpt lat="41.653203964233398" lon="-0.884441994130611">
        <ele>215.47</ele>
        <time>2025-05-14T06:16:23Z</time>
      </trkpt>
      <trkpt lat="41.653075972571969" lon="-0.884507037699223">
        <ele>215.47</ele>
        <time>2025-05-14T06:16:24Z</time>
      </trkpt>
      <trkpt lat="41.653153002262115" lon="-0.884467978030443">
        <ele>214.99000000000001</ele>
        <time>2025-05-14T06:16:25Z</time>
      </trkpt>
      <trkpt lat="41.653128024190664" lon="-0.884479964151978">
        <ele>214.99000000000001</ele>
        <time>2025-05-14T06:16:26Z</time>
      </trkpt>
      <trkpt lat="41.653116038069129" lon="-0.884691020473838">
        <ele>214.03</ele>
        <time>2025-05-14T06:16:29Z</time>
      </trkpt>
      <trkpt lat="41.653133975341916" lon="-0.884774001315236">
        <ele>214.03</ele>
        <time>2025-05-14T06:16:30Z</time>
      </trkpt>
      <trkpt lat="41.65322600863874" lon="-0.885193012654781">
        <ele>214.03</ele>
        <time>2025-05-14T06:16:34Z</time>
      </trkpt>
      <trkpt lat="41.653245035558939" lon="-0.885314969345927">
        <ele>213.55000000000001</ele>
        <time>2025-05-14T06:16:39Z</time>
      </trkpt>
      <trkpt lat="41.653247969225049" lon="-0.88534003123641">
        <ele>213.55000000000001</ele>
        <time>2025-05-14T06:16:40Z</time>
      </trkpt>
      <trkpt lat="41.65326900780201" lon="-0.88547196239233">
        <ele>210.66999999999999</ele>
        <time>2025-05-14T06:16:48Z</time>
      </trkpt>
      <trkpt lat="41.65326900780201" lon="-0.88547196239233">
        <ele>210.19</ele>
        <time>2025-05-14T06:16:49Z</time>
      </trkpt>
      <trkpt lat="41.65326900780201" lon="-0.88547196239233">
        <ele>210.19</ele>
        <time>2025-05-14T06:16:50Z</time>
      </trkpt>
      <trkpt lat="41.65326900780201" lon="-0.88547196239233">
        <ele>210.19</ele>
        <time>2025-05-14T06:16:51Z</time>
      </trkpt>
      <trkpt lat="41.65326900780201" lon="-0.88547196239233">
        <ele>209.69999999999999</ele>
        <time>2025-05-14T06:16:52Z</time>
      </trkpt>
      <trkpt lat="41.65326900780201" lon="-0.88547196239233">
        <ele>209.69999999999999</ele>
        <time>2025-05-14T06:16:53Z</time>
      </trkpt>
      <trkpt lat="41.65301101282239" lon="-0.885836994275451">
        <ele>209.22</ele>
        <time>2025-05-14T06:16:54Z</time>
      </trkpt>
      <trkpt lat="41.65303498506546" lon="-0.885916035622358">
        <ele>209.22</ele>
        <time>2025-05-14T06:16:55Z</time>
      </trkpt>
      <trkpt lat="41.653047977015376" lon="-0.885960040614009">
        <ele>208.74000000000001</ele>
        <time>2025-05-14T06:16:56Z</time>
      </trkpt>
      <trkpt lat="41.653059963136911" lon="-0.885999016463757">
        <ele>208.74000000000001</ele>
        <time>2025-05-14T06:16:57Z</time>
      </trkpt>
      <trkpt lat="41.653071027249098" lon="-0.886035980656743">
        <ele>208.25999999999999</ele>
        <time>2025-05-14T06:16:58Z</time>
      </trkpt>
      <trkpt lat="41.653081001713872" lon="-0.886067999526858">
        <ele>208.25999999999999</ele>
        <time>2025-05-14T06:16:59Z</time>
      </trkpt>
      <trkpt lat="41.653089970350266" lon="-0.886101024225354">
        <ele>208.25999999999999</ele>
        <time>2025-05-14T06:17:00Z</time>
      </trkpt>
      <trkpt lat="41.653101034462452" lon="-0.886134970933199">
        <ele>207.78</ele>
        <time>2025-05-14T06:17:01Z</time>
      </trkpt>
      <trkpt lat="41.653110003098845" lon="-0.886167995631695">
        <ele>207.78</ele>
        <time>2025-05-14T06:17:02Z</time>
      </trkpt>
      <trkpt lat="41.653128024190664" lon="-0.886225998401642">
        <ele>206.81999999999999</ele>
        <time>2025-05-14T06:17:08Z</time>
      </trkpt>
      <trkpt lat="41.65322600863874" lon="-0.886245025321841">
        <ele>206.34</ele>
        <time>2025-05-14T06:17:09Z</time>
      </trkpt>
      <trkpt lat="41.653332961723208" lon="-0.886202026158571">
        <ele>205.86000000000001</ele>
        <time>2025-05-14T06:17:10Z</time>
      </trkpt>
      <trkpt lat="41.653357017785311" lon="-0.886196997016668">
        <ele>205.86000000000001</ele>
        <time>2025-05-14T06:17:11Z</time>
      </trkpt>
      <trkpt lat="41.653409991413355" lon="-0.886184005066752">
        <ele>205.38</ele>
        <time>2025-05-14T06:17:12Z</time>
      </trkpt>
      <trkpt lat="41.653460031375289" lon="-0.886173024773598">
        <ele>205.38</ele>
        <time>2025-05-14T06:17:13Z</time>
      </trkpt>
      <trkpt lat="41.653519961982965" lon="-0.886159026995301">
        <ele>204.90000000000001</ele>
        <time>2025-05-14T06:17:14Z</time>
      </trkpt>
      <trkpt lat="41.65359003469348" lon="-0.886143017560244">
        <ele>204.90000000000001</ele>
        <time>2025-05-14T06:17:15Z</time>
      </trkpt>
      <trkpt lat="41.653662035241723" lon="-0.886126002296805">
        <ele>204.41999999999999</ele>
        <time>2025-05-14T06:17:16Z</time>
      </trkpt>
      <trkpt lat="41.65389102883637" lon="-0.886073028668761">
        <ele>206.34</ele>
        <time>2025-05-14T06:17:20Z</time>
      </trkpt>
      <trkpt lat="41.653926987200975" lon="-0.886065987870097">
        <ele>206.34</ele>
        <time>2025-05-14T06:17:21Z</time>
      </trkpt>
      <trkpt lat="41.653966968879104" lon="-0.886059030890465">
        <ele>206.34</ele>
        <time>2025-05-14T06:17:22Z</time>
      </trkpt>
      <trkpt lat="41.653996976092458" lon="-0.886052995920181">
        <ele>206.34</ele>
        <time>2025-05-14T06:17:23Z</time>
      </trkpt>
      <trkpt lat="41.654018014669418" lon="-0.886048972606659">
        <ele>206.81999999999999</ele>
        <time>2025-05-14T06:17:24Z</time>
      </trkpt>
      <trkpt lat="41.654033018276095" lon="-0.886046960949898">
        <ele>206.81999999999999</ele>
        <time>2025-05-14T06:17:25Z</time>
      </trkpt>
      <trkpt lat="41.654046010226011" lon="-0.886044027283788">
        <ele>206.81999999999999</ele>
        <time>2025-05-14T06:17:26Z</time>
      </trkpt>
      <trkpt lat="41.654068976640701" lon="-0.886040003970265">
        <ele>206.81999999999999</ele>
        <time>2025-05-14T06:17:27Z</time>
      </trkpt>
      <trkpt lat="41.654095966368914" lon="-0.886034974828362">
        <ele>206.81999999999999</ele>
        <time>2025-05-14T06:17:28Z</time>
      </trkpt>
      <trkpt lat="41.654123961925507" lon="-0.886030029505491">
        <ele>206.81999999999999</ele>
        <time>2025-05-14T06:17:29Z</time>
      </trkpt>
      <trkpt lat="41.654157992452383" lon="-0.886022988706827">
        <ele>206.34</ele>
        <time>2025-05-14T06:17:30Z</time>
      </trkpt>
      <trkpt lat="41.654194034636021" lon="-0.886017037555575">
        <ele>206.81999999999999</ele>
        <time>2025-05-14T06:17:31Z</time>
      </trkpt>
      <trkpt lat="41.654234016314149" lon="-0.886008990928531">
        <ele>206.81999999999999</ele>
        <time>2025-05-14T06:17:32Z</time>
      </trkpt>
      <trkpt lat="41.6542589943856" lon="-0.886003961786628">
        <ele>207.30000000000001</ele>
        <time>2025-05-14T06:17:33Z</time>
      </trkpt>
      <trkpt lat="41.654306016862392" lon="-0.885992981493473">
        <ele>207.78</ele>
        <time>2025-05-14T06:17:35Z</time>
      </trkpt>
      <trkpt lat="41.654356978833675" lon="-0.885982001200318">
        <ele>207.78</ele>
        <time>2025-05-14T06:17:36Z</time>
      </trkpt>
      <trkpt lat="41.654404001310468" lon="-0.885971020907164">
        <ele>208.25999999999999</ele>
        <time>2025-05-14T06:17:37Z</time>
      </trkpt>
      <trkpt lat="41.654448006302118" lon="-0.885960962623358">
        <ele>208.25999999999999</ele>
        <time>2025-05-14T06:17:38Z</time>
      </trkpt>
      <trkpt lat="41.654492011293769" lon="-0.885951993986964">
        <ele>208.74000000000001</ele>
        <time>2025-05-14T06:17:39Z</time>
      </trkpt>
      <trkpt lat="41.654628971591592" lon="-0.885960040614009">
        <ele>209.69999999999999</ele>
        <time>2025-05-14T06:17:40Z</time>
      </trkpt>
      <trkpt lat="41.654642969369888" lon="-0.886020977050066">
        <ele>210.19</ele>
        <time>2025-05-14T06:17:41Z</time>
      </trkpt>
      <trkpt lat="41.654658978804946" lon="-0.886089038103819">
        <ele>210.19</ele>
        <time>2025-05-14T06:17:42Z</time>
      </trkpt>
      <trkpt lat="41.654674988240004" lon="-0.886159026995301">
        <ele>210.19</ele>
        <time>2025-05-14T06:17:43Z</time>
      </trkpt>
      <trkpt lat="41.654693009331822" lon="-0.886239996179938">
        <ele>210.19</ele>
        <time>2025-05-14T06:17:44Z</time>
      </trkpt>
      <trkpt lat="41.654712958261371" lon="-0.886325994506478">
        <ele>210.19</ele>
        <time>2025-05-14T06:17:45Z</time>
      </trkpt>
      <trkpt lat="41.654730979353189" lon="-0.886409981176257">
        <ele>210.19</ele>
        <time>2025-05-14T06:17:46Z</time>
      </trkpt>
      <trkpt lat="41.654768027365208" lon="-0.886576026678085">
        <ele>209.69999999999999</ele>
        <time>2025-05-14T06:17:48Z</time>
      </trkpt>
      <trkpt lat="41.654784958809614" lon="-0.88665003888309">
        <ele>209.69999999999999</ele>
        <time>2025-05-14T06:17:49Z</time>
      </trkpt>
      <trkpt lat="41.654799962416291" lon="-0.886718016117811">
        <ele>209.69999999999999</ele>
        <time>2025-05-14T06:17:50Z</time>
      </trkpt>
      <trkpt lat="41.654813960194588" lon="-0.88678197003901">
        <ele>209.22</ele>
        <time>2025-05-14T06:17:51Z</time>
      </trkpt>
      <trkpt lat="41.654827035963535" lon="-0.886840978637338">
        <ele>209.22</ele>
        <time>2025-05-14T06:17:52Z</time>
      </trkpt>
      <trkpt lat="41.654885960742831" lon="-0.887105008587241">
        <ele>208.74000000000001</ele>
        <time>2025-05-14T06:17:58Z</time>
      </trkpt>
      <trkpt lat="41.654893001541495" lon="-0.887138033285737">
        <ele>208.25999999999999</ele>
        <time>2025-05-14T06:17:59Z</time>
      </trkpt>
      <trkpt lat="41.654899958521128" lon="-0.887170974165201">
        <ele>208.25999999999999</ele>
        <time>2025-05-14T06:18:00Z</time>
      </trkpt>
      <trkpt lat="41.654943041503429" lon="-0.8873609919101">
        <ele>208.25999999999999</ele>
        <time>2025-05-14T06:18:01Z</time>
      </trkpt>
      <trkpt lat="41.654943041503429" lon="-0.8873609919101">
        <ele>207.78</ele>
        <time>2025-05-14T06:18:02Z</time>
      </trkpt>
      <trkpt lat="41.654943041503429" lon="-0.8873609919101">
        <ele>207.78</ele>
        <time>2025-05-14T06:18:03Z</time>
      </trkpt>
      <trkpt lat="41.654943041503429" lon="-0.8873609919101">
        <ele>207.78</ele>
        <time>2025-05-14T06:18:04Z</time>
      </trkpt>
      <trkpt lat="41.654943041503429" lon="-0.8873609919101">
        <ele>207.30000000000001</ele>
        <time>2025-05-14T06:18:05Z</time>
      </trkpt>
      <trkpt lat="41.654943041503429" lon="-0.887364009395242">
        <ele>206.81999999999999</ele>
        <time>2025-05-14T06:18:09Z</time>
      </trkpt>
      <trkpt lat="41.654948992654681" lon="-0.887390999123454">
        <ele>206.81999999999999</ele>
        <time>2025-05-14T06:18:10Z</time>
      </trkpt>
      <trkpt lat="41.654959972947836" lon="-0.887438021600246">
        <ele>206.34</ele>
        <time>2025-05-14T06:18:11Z</time>
      </trkpt>
      <trkpt lat="41.655045971274376" lon="-0.887826019898057">
        <ele>205.38</ele>
        <time>2025-05-14T06:18:16Z</time>
      </trkpt>
      <trkpt lat="41.655064998194575" lon="-0.887911012396216">
        <ele>205.38</ele>
        <time>2025-05-14T06:18:17Z</time>
      </trkpt>
      <trkpt lat="41.655084025114775" lon="-0.887998016551137">
        <ele>204.90000000000001</ele>
        <time>2025-05-14T06:18:18Z</time>
      </trkpt>
      <trkpt lat="41.655101962387562" lon="-0.888082003220916">
        <ele>204.90000000000001</ele>
        <time>2025-05-14T06:18:19Z</time>
      </trkpt>
      <trkpt lat="41.655119983479381" lon="-0.888166995719075">
        <ele>204.41999999999999</ele>
        <time>2025-05-14T06:18:20Z</time>
      </trkpt>
      <trkpt lat="41.655201036483049" lon="-0.888546025380492">
        <ele>203.46000000000001</ele>
        <time>2025-05-14T06:18:24Z</time>
      </trkpt>
      <trkpt lat="41.655224002897739" lon="-0.88865197263658">
        <ele>203.46000000000001</ele>
        <time>2025-05-14T06:18:25Z</time>
      </trkpt>
      <trkpt lat="41.65528804063797" lon="-0.888965958729386">
        <ele>203.46000000000001</ele>
        <time>2025-05-14T06:18:28Z</time>
      </trkpt>
      <trkpt lat="41.655308995395899" lon="-0.889074001461267">
        <ele>203.94</ele>
        <time>2025-05-14T06:18:29Z</time>
      </trkpt>
      <trkpt lat="41.655372027307749" lon="-0.889398967847228">
        <ele>204.41999999999999</ele>
        <time>2025-05-14T06:18:31Z</time>
      </trkpt>
      <trkpt lat="41.655373033136129" lon="-0.889407014474273">
        <ele>204.41999999999999</ele>
        <time>2025-05-14T06:18:32Z</time>
      </trkpt>
      <trkpt lat="41.655395999550819" lon="-0.889517990872264">
        <ele>204.90000000000001</ele>
        <time>2025-05-14T06:18:33Z</time>
      </trkpt>
      <trkpt lat="41.655417960137129" lon="-0.889622010290623">
        <ele>204.90000000000001</ele>
        <time>2025-05-14T06:18:34Z</time>
      </trkpt>
      <trkpt lat="41.655437992885709" lon="-0.889717983081937">
        <ele>204.90000000000001</ele>
        <time>2025-05-14T06:18:35Z</time>
      </trkpt>
      <trkpt lat="41.655459031462669" lon="-0.889817979186773">
        <ele>204.90000000000001</ele>
        <time>2025-05-14T06:18:36Z</time>
      </trkpt>
      <trkpt lat="41.655477974563837" lon="-0.889913029968739">
        <ele>204.90000000000001</ele>
        <time>2025-05-14T06:18:37Z</time>
      </trkpt>
      <trkpt lat="41.655494989827275" lon="-0.889992993324995">
        <ele>204.41999999999999</ele>
        <time>2025-05-14T06:18:38Z</time>
      </trkpt>
      <trkpt lat="41.655507981777191" lon="-0.890055019408464">
        <ele>204.41999999999999</ele>
        <time>2025-05-14T06:18:39Z</time>
      </trkpt>
      <trkpt lat="41.655518962070346" lon="-0.89011101052165">
        <ele>204.41999999999999</ele>
        <time>2025-05-14T06:18:40Z</time>
      </trkpt>
      <trkpt lat="41.655531032010913" lon="-0.890167001634836">
        <ele>203.94</ele>
        <time>2025-05-14T06:18:41Z</time>
      </trkpt>
      <trkpt lat="41.655543018132448" lon="-0.890222992748022">
        <ele>203.94</ele>
        <time>2025-05-14T06:18:42Z</time>
      </trkpt>
      <trkpt lat="41.655607977882028" lon="-0.890535973012447">
        <ele>203.46000000000001</ele>
        <time>2025-05-14T06:18:45Z</time>
      </trkpt>
      <trkpt lat="41.655607977882028" lon="-0.890535973012447">
        <ele>202.97999999999999</ele>
        <time>2025-05-14T06:18:46Z</time>
      </trkpt>
      <trkpt lat="41.655607977882028" lon="-0.890535973012447">
        <ele>202.97999999999999</ele>
        <time>2025-05-14T06:18:47Z</time>
      </trkpt>
      <trkpt lat="41.655607977882028" lon="-0.890535973012447">
        <ele>202.49000000000001</ele>
        <time>2025-05-14T06:18:48Z</time>
      </trkpt>
      <trkpt lat="41.655609989538789" lon="-0.890548964962363">
        <ele>202.49000000000001</ele>
        <time>2025-05-14T06:18:49Z</time>
      </trkpt>
      <trkpt lat="41.655615018680692" lon="-0.890575032681227">
        <ele>202.49000000000001</ele>
        <time>2025-05-14T06:18:50Z</time>
      </trkpt>
      <trkpt lat="41.655615018680692" lon="-0.890575032681227">
        <ele>202.00999999999999</ele>
        <time>2025-05-14T06:18:51Z</time>
      </trkpt>
      <trkpt lat="41.655623987317085" lon="-0.890622977167368">
        <ele>201.53</ele>
        <time>2025-05-14T06:19:02Z</time>
      </trkpt>
      <trkpt lat="41.65571803227067" lon="-0.891112983226776">
        <ele>201.53</ele>
        <time>2025-05-14T06:19:09Z</time>
      </trkpt>
      <trkpt lat="41.655738987028599" lon="-0.891226977109909">
        <ele>201.53</ele>
        <time>2025-05-14T06:19:11Z</time>
      </trkpt>
      <trkpt lat="41.65576396510005" lon="-0.891362009570003">
        <ele>201.53</ele>
        <time>2025-05-14T06:19:13Z</time>
      </trkpt>
      <trkpt lat="41.655809981748462" lon="-0.8916159812361">
        <ele>201.53</ele>
        <time>2025-05-14T06:19:16Z</time>
      </trkpt>
      <trkpt lat="41.656032018363476" lon="-0.892659025266767">
        <ele>202.97999999999999</ele>
        <time>2025-05-14T06:19:25Z</time>
      </trkpt>
      <trkpt lat="41.656136037781835" lon="-0.89341901242733">
        <ele>204.41999999999999</ele>
        <time>2025-05-14T06:19:34Z</time>
      </trkpt>
      <trkpt lat="41.656136037781835" lon="-0.89341901242733">
        <ele>204.41999999999999</ele>
        <time>2025-05-14T06:19:44Z</time>
      </trkpt>
      <trkpt lat="41.656136037781835" lon="-0.89341901242733">
        <ele>205.86000000000001</ele>
        <time>2025-05-14T06:20:28Z</time>
      </trkpt>
      <trkpt lat="41.656309040263295" lon="-0.893666027113795">
        <ele>209.22</ele>
        <time>2025-05-14T06:20:42Z</time>
      </trkpt>
      <trkpt lat="41.656444994732738" lon="-0.893648006021976">
        <ele>209.22</ele>
        <time>2025-05-14T06:20:43Z</time>
      </trkpt>
      <trkpt lat="41.656395038589835" lon="-0.89365404099226">
        <ele>209.69999999999999</ele>
        <time>2025-05-14T06:20:44Z</time>
      </trkpt>
      <trkpt lat="41.656444994732738" lon="-0.893648006021976">
        <ele>209.69999999999999</ele>
        <time>2025-05-14T06:20:45Z</time>
      </trkpt>
      <trkpt lat="41.656444994732738" lon="-0.893648006021976">
        <ele>209.69999999999999</ele>
        <time>2025-05-14T06:20:46Z</time>
      </trkpt>
      <trkpt lat="41.656615985557437" lon="-0.893605006858706">
        <ele>210.19</ele>
        <time>2025-05-14T06:21:02Z</time>
      </trkpt>
      <trkpt lat="41.656822012737393" lon="-0.893564019352198">
        <ele>208.74000000000001</ele>
        <time>2025-05-14T06:21:12Z</time>
      </trkpt>
      <trkpt lat="41.656830981373787" lon="-0.893562007695436">
        <ele>208.74000000000001</ele>
        <time>2025-05-14T06:21:13Z</time>
      </trkpt>
      <trkpt lat="41.656875992193818" lon="-0.893543986603618">
        <ele>208.74000000000001</ele>
        <time>2025-05-14T06:21:14Z</time>
      </trkpt>
      <trkpt lat="41.656913962215185" lon="-0.893528982996941">
        <ele>209.22</ele>
        <time>2025-05-14T06:21:15Z</time>
      </trkpt>
      <trkpt lat="41.656958973035216" lon="-0.893510961905122">
        <ele>209.22</ele>
        <time>2025-05-14T06:21:16Z</time>
      </trkpt>
      <trkpt lat="41.657005995512009" lon="-0.893492018803954">
        <ele>209.69999999999999</ele>
        <time>2025-05-14T06:21:17Z</time>
      </trkpt>
      <trkpt lat="41.657058969140053" lon="-0.893470980226994">
        <ele>210.19</ele>
        <time>2025-05-14T06:21:18Z</time>
      </trkpt>
      <trkpt lat="41.65737203322351" lon="-0.893323039636016">
        <ele>210.66999999999999</ele>
        <time>2025-05-14T06:21:22Z</time>
      </trkpt>
      <trkpt lat="41.65745803155005" lon="-0.893275011330843">
        <ele>210.19</ele>
        <time>2025-05-14T06:21:23Z</time>
      </trkpt>
      <trkpt lat="41.657532965764403" lon="-0.893234023824334">
        <ele>210.19</ele>
        <time>2025-05-14T06:21:24Z</time>
      </trkpt>
      <trkpt lat="41.657603038474917" lon="-0.893194964155555">
        <ele>210.66999999999999</ele>
        <time>2025-05-14T06:21:25Z</time>
      </trkpt>
      <trkpt lat="41.657662969082594" lon="-0.893162023276091">
        <ele>211.15000000000001</ele>
        <time>2025-05-14T06:21:26Z</time>
      </trkpt>
      <trkpt lat="41.657715020701289" lon="-0.893133021891117">
        <ele>211.15000000000001</ele>
        <time>2025-05-14T06:21:27Z</time>
      </trkpt>
      <trkpt lat="41.657947031781077" lon="-0.893004024401307">
        <ele>212.59</ele>
        <time>2025-05-14T06:21:31Z</time>
      </trkpt>
      <trkpt lat="41.657968992367387" lon="-0.892992038279772">
        <ele>213.06999999999999</ele>
        <time>2025-05-14T06:21:32Z</time>
      </trkpt>
      <trkpt lat="41.658020038157701" lon="-0.892963036894798">
        <ele>213.55000000000001</ele>
        <time>2025-05-14T06:21:33Z</time>
      </trkpt>
      <trkpt lat="41.658567963168025" lon="-0.892575960606337">
        <ele>215.47</ele>
        <time>2025-05-14T06:21:40Z</time>
      </trkpt>
      <trkpt lat="41.658643987029791" lon="-0.892500020563602">
        <ele>216.43000000000001</ele>
        <time>2025-05-14T06:21:41Z</time>
      </trkpt>
      <trkpt lat="41.658714981749654" lon="-0.892428020015359">
        <ele>217.40000000000001</ele>
        <time>2025-05-14T06:21:42Z</time>
      </trkpt>
      <trkpt lat="41.658772984519601" lon="-0.892371023073792">
        <ele>218.36000000000001</ele>
        <time>2025-05-14T06:21:43Z</time>
      </trkpt>
      <trkpt lat="41.658805003389716" lon="-0.892296005040407">
        <ele>219.31999999999999</ele>
        <time>2025-05-14T06:21:44Z</time>
      </trkpt>
      <trkpt lat="41.658824030309916" lon="-0.89223800227046">
        <ele>218.36000000000001</ele>
        <time>2025-05-14T06:21:45Z</time>
      </trkpt>
      <trkpt lat="41.658841967582703" lon="-0.892186034470797">
        <ele>217.88</ele>
        <time>2025-05-14T06:21:46Z</time>
      </trkpt>
      <trkpt lat="41.658859988674521" lon="-0.892129959538579">
        <ele>217.88</ele>
        <time>2025-05-14T06:21:47Z</time>
      </trkpt>
      <trkpt lat="41.658882033079863" lon="-0.892064999789">
        <ele>217.88</ele>
        <time>2025-05-14T06:21:48Z</time>
      </trkpt>
      <trkpt lat="41.658908016979694" lon="-0.891987970098853">
        <ele>218.36000000000001</ele>
        <time>2025-05-14T06:21:49Z</time>
      </trkpt>
      <trkpt lat="41.658912040293217" lon="-0.891973972320557">
        <ele>217.88</ele>
        <time>2025-05-14T06:21:50Z</time>
      </trkpt>
      <trkpt lat="41.658977000042796" lon="-0.891927033662796">
        <ele>217.88</ele>
        <time>2025-05-14T06:21:51Z</time>
      </trkpt>
      <trkpt lat="41.65902896784246" lon="-0.891888979822397">
        <ele>217.88</ele>
        <time>2025-05-14T06:21:52Z</time>
      </trkpt>
      <trkpt lat="41.659083031117916" lon="-0.89185000397265">
        <ele>217.88</ele>
        <time>2025-05-14T06:21:53Z</time>
      </trkpt>
      <trkpt lat="41.659133993089199" lon="-0.891812033951283">
        <ele>217.88</ele>
        <time>2025-05-14T06:21:54Z</time>
      </trkpt>
      <trkpt lat="41.659147990867496" lon="-0.891801975667477">
        <ele>217.40000000000001</ele>
        <time>2025-05-14T06:21:55Z</time>
      </trkpt>
      <trkpt lat="41.659193001687527" lon="-0.891801975667477">
        <ele>217.40000000000001</ele>
        <time>2025-05-14T06:21:56Z</time>
      </trkpt>
      <trkpt lat="41.659225020557642" lon="-0.891805998980999">
        <ele>217.40000000000001</ele>
        <time>2025-05-14T06:21:57Z</time>
      </trkpt>
      <trkpt lat="41.659333985298872" lon="-0.891813961789012">
        <ele>217.40000000000001</ele>
        <time>2025-05-14T06:21:58Z</time>
      </trkpt>
      <trkpt lat="41.659314958378673" lon="-0.891854027286172">
        <ele>216.91</ele>
        <time>2025-05-14T06:21:59Z</time>
      </trkpt>
      <trkpt lat="41.659445967525244" lon="-0.891796024516225">
        <ele>216.91</ele>
        <time>2025-05-14T06:22:00Z</time>
      </trkpt>
      <trkpt lat="41.659514028578997" lon="-0.89178403839469">
        <ele>216.91</ele>
        <time>2025-05-14T06:22:01Z</time>
      </trkpt>
      <trkpt lat="41.659584017470479" lon="-0.891772974282503">
        <ele>216.91</ele>
        <time>2025-05-14T06:22:02Z</time>
      </trkpt>
      <trkpt lat="41.659663980826735" lon="-0.891758976504207">
        <ele>216.43000000000001</ele>
        <time>2025-05-14T06:22:03Z</time>
      </trkpt>
      <trkpt lat="41.659741010516882" lon="-0.891716983169317">
        <ele>215.94999999999999</ele>
        <time>2025-05-14T06:22:04Z</time>
      </trkpt>
      <trkpt lat="41.659905966371298" lon="-0.891626039519906">
        <ele>214.03</ele>
        <time>2025-05-14T06:22:06Z</time>
      </trkpt>
      <trkpt lat="41.660580961033702" lon="-0.890992032364011">
        <ele>211.15000000000001</ele>
        <time>2025-05-14T06:22:13Z</time>
      </trkpt>
      <trkpt lat="41.661621993407607" lon="-0.889950999990106">
        <ele>209.22</ele>
        <time>2025-05-14T06:22:24Z</time>
      </trkpt>
      <trkpt lat="41.661900021135807" lon="-0.889672972261906">
        <ele>207.78</ele>
        <time>2025-05-14T06:22:31Z</time>
      </trkpt>
      <trkpt lat="41.661900021135807" lon="-0.889672972261906">
        <ele>207.30000000000001</ele>
        <time>2025-05-14T06:22:43Z</time>
      </trkpt>
      <trkpt lat="41.661933967843652" lon="-0.889639025554061">
        <ele>206.81999999999999</ele>
        <time>2025-05-14T06:22:53Z</time>
      </trkpt>
      <trkpt lat="41.661951988935471" lon="-0.889613041654229">
        <ele>206.81999999999999</ele>
        <time>2025-05-14T06:22:54Z</time>
      </trkpt>
      <trkpt lat="41.661984007805586" lon="-0.889568030834198">
        <ele>206.81999999999999</ele>
        <time>2025-05-14T06:22:55Z</time>
      </trkpt>
      <trkpt lat="41.662496980279684" lon="-0.889096967875957">
        <ele>205.38</ele>
        <time>2025-05-14T06:23:03Z</time>
      </trkpt>
      <trkpt lat="41.663572965189815" lon="-0.888064987957478">
        <ele>203.46000000000001</ele>
        <time>2025-05-14T06:23:15Z</time>
      </trkpt>
      <trkpt lat="41.664116028696299" lon="-0.88748998939991">
        <ele>200.56999999999999</ele>
        <time>2025-05-14T06:23:24Z</time>
      </trkpt>
      <trkpt lat="41.664230022579432" lon="-0.887369960546494">
        <ele>198.65000000000001</ele>
        <time>2025-05-14T06:23:33Z</time>
      </trkpt>
      <trkpt lat="41.664340998977423" lon="-0.887253032997251">
        <ele>198.16999999999999</ele>
        <time>2025-05-14T06:23:36Z</time>
      </trkpt>
      <trkpt lat="41.664396990090609" lon="-0.887182038277388">
        <ele>197.69</ele>
        <time>2025-05-14T06:23:37Z</time>
      </trkpt>
      <trkpt lat="41.665109032765031" lon="-0.886164978146553">
        <ele>196.25</ele>
        <time>2025-05-14T06:23:46Z</time>
      </trkpt>
      <trkpt lat="41.665859967470169" lon="-0.884607033804059">
        <ele>196.72999999999999</ele>
        <time>2025-05-14T06:23:57Z</time>
      </trkpt>
      <trkpt lat="41.666174037382007" lon="-0.883701033890247">
        <ele>196.72999999999999</ele>
        <time>2025-05-14T06:24:05Z</time>
      </trkpt>
      <trkpt lat="41.666189040988684" lon="-0.88364495895803">
        <ele>196.72999999999999</ele>
        <time>2025-05-14T06:24:06Z</time>
      </trkpt>
      <trkpt lat="41.6662020329386" lon="-0.883595002815127">
        <ele>196.72999999999999</ele>
        <time>2025-05-14T06:24:07Z</time>
      </trkpt>
      <trkpt lat="41.666213013231754" lon="-0.883555021136999">
        <ele>196.72999999999999</ele>
        <time>2025-05-14T06:24:08Z</time>
      </trkpt>
      <trkpt lat="41.666220976039767" lon="-0.883523002266884">
        <ele>196.72999999999999</ele>
        <time>2025-05-14T06:24:09Z</time>
      </trkpt>
      <trkpt lat="41.666231034323573" lon="-0.883486960083246">
        <ele>196.72999999999999</ele>
        <time>2025-05-14T06:24:10Z</time>
      </trkpt>
      <trkpt lat="41.666244026273489" lon="-0.883439015597105">
        <ele>196.72999999999999</ele>
        <time>2025-05-14T06:24:11Z</time>
      </trkpt>
      <trkpt lat="41.666259029880166" lon="-0.883367015048862">
        <ele>196.72999999999999</ele>
        <time>2025-05-14T06:24:12Z</time>
      </trkpt>
      <trkpt lat="41.666277972981334" lon="-0.883260983973742">
        <ele>196.72999999999999</ele>
        <time>2025-05-14T06:24:13Z</time>
      </trkpt>
      <trkpt lat="41.666306974366307" lon="-0.883112959563732">
        <ele>196.72999999999999</ele>
        <time>2025-05-14T06:24:14Z</time>
      </trkpt>
      <trkpt lat="41.666339999064803" lon="-0.88295797817409">
        <ele>197.21000000000001</ele>
        <time>2025-05-14T06:24:15Z</time>
      </trkpt>
      <trkpt lat="41.666517024859786" lon="-0.88188199326396">
        <ele>196.72999999999999</ele>
        <time>2025-05-14T06:24:23Z</time>
      </trkpt>
      <trkpt lat="41.66658902540803" lon="-0.880971970036626">
        <ele>197.21000000000001</ele>
        <time>2025-05-14T06:24:31Z</time>
      </trkpt>
      <trkpt lat="41.666593970730901" lon="-0.879330961033702">
        <ele>197.21000000000001</ele>
        <time>2025-05-14T06:24:43Z</time>
      </trkpt>
      <trkpt lat="41.666573015972972" lon="-0.878221029415727">
        <ele>195.77000000000001</ele>
        <time>2025-05-14T06:24:52Z</time>
      </trkpt>
      <trkpt lat="41.666550971567631" lon="-0.877105984836817">
        <ele>194.80000000000001</ele>
        <time>2025-05-14T06:25:01Z</time>
      </trkpt>
      <trkpt lat="41.666538985446095" lon="-0.875386018306017">
        <ele>194.31999999999999</ele>
        <time>2025-05-14T06:25:12Z</time>
      </trkpt>
      <trkpt lat="41.666513001546264" lon="-0.874543972313404">
        <ele>194.80000000000001</ele>
        <time>2025-05-14T06:25:18Z</time>
      </trkpt>
      <trkpt lat="41.666507972404361" lon="-0.874485969543457">
        <ele>194.80000000000001</ele>
        <time>2025-05-14T06:25:19Z</time>
      </trkpt>
      <trkpt lat="41.666507972404361" lon="-0.874313972890377">
        <ele>195.28</ele>
        <time>2025-05-14T06:25:20Z</time>
      </trkpt>
      <trkpt lat="41.666507972404361" lon="-0.873751966282725">
        <ele>196.25</ele>
        <time>2025-05-14T06:25:26Z</time>
      </trkpt>
      <trkpt lat="41.666507972404361" lon="-0.873669991269708">
        <ele>196.25</ele>
        <time>2025-05-14T06:25:34Z</time>
      </trkpt>
      <trkpt lat="41.666507972404361" lon="-0.873436974361539">
        <ele>197.21000000000001</ele>
        <time>2025-05-14T06:25:49Z</time>
      </trkpt>
      <trkpt lat="41.666507972404361" lon="-0.872629964724183">
        <ele>198.16999999999999</ele>
        <time>2025-05-14T06:25:58Z</time>
      </trkpt>
      <trkpt lat="41.666507972404361" lon="-0.872629964724183">
        <ele>198.16999999999999</ele>
        <time>2025-05-14T06:26:06Z</time>
      </trkpt>
      <trkpt lat="41.666507972404361" lon="-0.872573973610997">
        <ele>198.16999999999999</ele>
        <time>2025-05-14T06:26:12Z</time>
      </trkpt>
      <trkpt lat="41.666507972404361" lon="-0.872498033568263">
        <ele>198.16999999999999</ele>
        <time>2025-05-14T06:26:13Z</time>
      </trkpt>
      <trkpt lat="41.666492968797684" lon="-0.87208497337997">
        <ele>198.65000000000001</ele>
        <time>2025-05-14T06:26:18Z</time>
      </trkpt>
      <trkpt lat="41.666488023474813" lon="-0.872011967003345">
        <ele>198.65000000000001</ele>
        <time>2025-05-14T06:26:19Z</time>
      </trkpt>
      <trkpt lat="41.666487017646432" lon="-0.871996963396668">
        <ele>198.16999999999999</ele>
        <time>2025-05-14T06:26:20Z</time>
      </trkpt>
      <trkpt lat="41.666392972692847" lon="-0.87180401198566">
        <ele>198.16999999999999</ele>
        <time>2025-05-14T06:26:21Z</time>
      </trkpt>
      <trkpt lat="41.666344022378325" lon="-0.87180401198566">
        <ele>197.69</ele>
        <time>2025-05-14T06:26:22Z</time>
      </trkpt>
      <trkpt lat="41.666286019608378" lon="-0.87180401198566">
        <ele>197.21000000000001</ele>
        <time>2025-05-14T06:26:23Z</time>
      </trkpt>
      <trkpt lat="41.666218964383006" lon="-0.87180401198566">
        <ele>196.25</ele>
        <time>2025-05-14T06:26:24Z</time>
      </trkpt>
      <trkpt lat="41.666152998805046" lon="-0.87180401198566">
        <ele>195.77000000000001</ele>
        <time>2025-05-14T06:26:25Z</time>
      </trkpt>
      <trkpt lat="41.666028024628758" lon="-0.871727988123894">
        <ele>195.28</ele>
        <time>2025-05-14T06:26:28Z</time>
      </trkpt>
      <trkpt lat="41.66601000353694" lon="-0.871700998395681">
        <ele>194.80000000000001</ele>
        <time>2025-05-14T06:26:29Z</time>
      </trkpt>
      <trkpt lat="41.666007991880178" lon="-0.871630003675818">
        <ele>194.31999999999999</ele>
        <time>2025-05-14T06:26:31Z</time>
      </trkpt>
      <trkpt lat="41.666016960516572" lon="-0.871603013947606">
        <ele>193.84</ele>
        <time>2025-05-14T06:26:32Z</time>
      </trkpt>
      <trkpt lat="41.666035987436771" lon="-0.87154601700604">
        <ele>193.36000000000001</ele>
        <time>2025-05-14T06:26:33Z</time>
      </trkpt>
      <trkpt lat="41.66607697494328" lon="-0.871533025056124">
        <ele>192.88</ele>
        <time>2025-05-14T06:26:34Z</time>
      </trkpt>
      <trkpt lat="41.666123997420073" lon="-0.871517015621066">
        <ele>192.40000000000001</ele>
        <time>2025-05-14T06:26:35Z</time>
      </trkpt>
      <trkpt lat="41.666157022118568" lon="-0.871506035327911">
        <ele>192.40000000000001</ele>
        <time>2025-05-14T06:26:36Z</time>
      </trkpt>
      <trkpt lat="41.666176971048117" lon="-0.871498994529247">
        <ele>191.91999999999999</ele>
        <time>2025-05-14T06:26:37Z</time>
      </trkpt>
      <trkpt lat="41.666309991851449" lon="-0.871458007022738">
        <ele>190.96000000000001</ele>
        <time>2025-05-14T06:26:43Z</time>
      </trkpt>
      <trkpt lat="41.666443012654781" lon="-0.871435962617397">
        <ele>190.96000000000001</ele>
        <time>2025-05-14T06:26:45Z</time>
      </trkpt>
      <trkpt lat="41.666559018194675" lon="-0.871489020064473">
        <ele>190.96000000000001</ele>
        <time>2025-05-14T06:26:46Z</time>
      </trkpt>
      <trkpt lat="41.666564969345927" lon="-0.871545011177659">
        <ele>190.96000000000001</ele>
        <time>2025-05-14T06:26:47Z</time>
      </trkpt>
      <trkpt lat="41.666571004316211" lon="-0.871595973148942">
        <ele>190.96000000000001</ele>
        <time>2025-05-14T06:26:48Z</time>
      </trkpt>
      <trkpt lat="41.666575027629733" lon="-0.871631009504199">
        <ele>190.96000000000001</ele>
        <time>2025-05-14T06:26:49Z</time>
      </trkpt>
      <trkpt lat="41.666575027629733" lon="-0.871631009504199">
        <ele>190.47999999999999</ele>
        <time>2025-05-14T06:26:58Z</time>
      </trkpt>
      <trkpt lat="41.666593970730901" lon="-0.871915994212031">
        <ele>188.08000000000001</ele>
        <time>2025-05-14T06:27:20Z</time>
      </trkpt>
      <trkpt lat="41.666573015972972" lon="-0.872618984431028">
        <ele>187.59</ele>
        <time>2025-05-14T06:27:25Z</time>
      </trkpt>
      <trkpt lat="41.666579972952604" lon="-0.872785029932857">
        <ele>187.11000000000001</ele>
        <time>2025-05-14T06:27:26Z</time>
      </trkpt>
      <trkpt lat="41.666601011529565" lon="-0.873918011784554">
        <ele>187.11000000000001</ele>
        <time>2025-05-14T06:27:35Z</time>
      </trkpt>
      <trkpt lat="41.666615009307861" lon="-0.874133007600904">
        <ele>188.08000000000001</ele>
        <time>2025-05-14T06:27:43Z</time>
      </trkpt>
      <trkpt lat="41.666615009307861" lon="-0.874145999550819">
        <ele>188.08000000000001</ele>
        <time>2025-05-14T06:27:57Z</time>
      </trkpt>
      <trkpt lat="41.666615009307861" lon="-0.874636005610228">
        <ele>189.52000000000001</ele>
        <time>2025-05-14T06:28:02Z</time>
      </trkpt>
      <trkpt lat="41.666636969894171" lon="-0.875459024682641">
        <ele>191.44</ele>
        <time>2025-05-14T06:28:10Z</time>
      </trkpt>
      <trkpt lat="41.666679969057441" lon="-0.876310039311647">
        <ele>196.25</ele>
        <time>2025-05-14T06:28:20Z</time>
      </trkpt>
      <trkpt lat="41.666701007634401" lon="-0.877524996176362">
        <ele>198.65000000000001</ele>
        <time>2025-05-14T06:28:28Z</time>
      </trkpt>
      <trkpt lat="41.666701007634401" lon="-0.87765097618103">
        <ele>198.65000000000001</ele>
        <time>2025-05-14T06:28:29Z</time>
      </trkpt>
      <trkpt lat="41.666701007634401" lon="-0.877746026962996">
        <ele>198.65000000000001</ele>
        <time>2025-05-14T06:28:30Z</time>
      </trkpt>
      <trkpt lat="41.666701007634401" lon="-0.877811992540956">
        <ele>198.16999999999999</ele>
        <time>2025-05-14T06:28:31Z</time>
      </trkpt>
      <trkpt lat="41.666701007634401" lon="-0.877838982269168">
        <ele>198.16999999999999</ele>
        <time>2025-05-14T06:28:32Z</time>
      </trkpt>
      <trkpt lat="41.666701007634401" lon="-0.877864966169">
        <ele>197.69</ele>
        <time>2025-05-14T06:28:33Z</time>
      </trkpt>
      <trkpt lat="41.666701007634401" lon="-0.877925986424088">
        <ele>197.69</ele>
        <time>2025-05-14T06:28:41Z</time>
      </trkpt>
      <trkpt lat="41.666701007634401" lon="-0.877998992800713">
        <ele>197.69</ele>
        <time>2025-05-14T06:28:42Z</time>
      </trkpt>
      <trkpt lat="41.666701007634401" lon="-0.878092031925917">
        <ele>197.69</ele>
        <time>2025-05-14T06:28:43Z</time>
      </trkpt>
      <trkpt lat="41.666701007634401" lon="-0.878204014152288">
        <ele>197.69</ele>
        <time>2025-05-14T06:28:44Z</time>
      </trkpt>
      <trkpt lat="41.666701007634401" lon="-0.878325970843434">
        <ele>197.21000000000001</ele>
        <time>2025-05-14T06:28:45Z</time>
      </trkpt>
      <trkpt lat="41.666701007634401" lon="-0.878445999696851">
        <ele>197.69</ele>
        <time>2025-05-14T06:28:46Z</time>
      </trkpt>
      <trkpt lat="41.666744006797671" lon="-0.878540966659784">
        <ele>197.69</ele>
        <time>2025-05-14T06:28:47Z</time>
      </trkpt>
      <trkpt lat="41.666773008182645" lon="-0.87859402410686">
        <ele>197.69</ele>
        <time>2025-05-14T06:28:48Z</time>
      </trkpt>
      <trkpt lat="41.666790023446083" lon="-0.878625037148595">
        <ele>198.16999999999999</ele>
        <time>2025-05-14T06:28:49Z</time>
      </trkpt>
      <trkpt lat="41.666799997910857" lon="-0.878644986078143">
        <ele>198.16999999999999</ele>
        <time>2025-05-14T06:28:50Z</time>
      </trkpt>
      <trkpt lat="41.666799997910857" lon="-0.878644986078143">
        <ele>198.65000000000001</ele>
        <time>2025-05-14T06:29:05Z</time>
      </trkpt>
      <trkpt lat="41.666926983743906" lon="-0.878880014643073">
        <ele>200.09</ele>
        <time>2025-05-14T06:29:26Z</time>
      </trkpt>
      <trkpt lat="41.667181039229035" lon="-0.879316963255405">
        <ele>202.00999999999999</ele>
        <time>2025-05-14T06:29:35Z</time>
      </trkpt>
      <trkpt lat="41.667284974828362" lon="-0.879471022635698">
        <ele>202.00999999999999</ele>
        <time>2025-05-14T06:29:40Z</time>
      </trkpt>
      <trkpt lat="41.667767018079758" lon="-0.879921969026327">
        <ele>201.05000000000001</ele>
        <time>2025-05-14T06:29:48Z</time>
      </trkpt>
      <trkpt lat="41.667856033891439" lon="-0.879966979846358">
        <ele>200.56999999999999</ele>
        <time>2025-05-14T06:29:49Z</time>
      </trkpt>
      <trkpt lat="41.667959969490767" lon="-0.880001010373235">
        <ele>200.09</ele>
        <time>2025-05-14T06:29:50Z</time>
      </trkpt>
      <trkpt lat="41.669170986860991" lon="-0.88005599565804">
        <ele>200.09</ele>
        <time>2025-05-14T06:29:59Z</time>
      </trkpt>
      <trkpt lat="41.670916015282273" lon="-0.880228998139501">
        <ele>199.61000000000001</ele>
        <time>2025-05-14T06:30:11Z</time>
      </trkpt>
      <trkpt lat="41.672806972637773" lon="-0.880342992022634">
        <ele>199.13</ele>
        <time>2025-05-14T06:30:23Z</time>
      </trkpt>
      <trkpt lat="41.674224017187953" lon="-0.88016496039927">
        <ele>198.65000000000001</ele>
        <time>2025-05-14T06:30:31Z</time>
      </trkpt>
      <trkpt lat="41.675863014534116" lon="-0.879474962130189">
        <ele>198.16999999999999</ele>
        <time>2025-05-14T06:30:40Z</time>
      </trkpt>
      <trkpt lat="41.677454989403486" lon="-0.878182975575328">
        <ele>198.65000000000001</ele>
        <time>2025-05-14T06:30:50Z</time>
      </trkpt>
      <trkpt lat="41.67864496819675" lon="-0.876511037349701">
        <ele>200.09</ele>
        <time>2025-05-14T06:30:59Z</time>
      </trkpt>
      <trkpt lat="41.679291967302561" lon="-0.874684033915401">
        <ele>202.49000000000001</ele>
        <time>2025-05-14T06:31:07Z</time>
      </trkpt>
      <trkpt lat="41.679512998089194" lon="-0.872570034116507">
        <ele>206.81999999999999</ele>
        <time>2025-05-14T06:31:15Z</time>
      </trkpt>
      <trkpt lat="41.679563038051128" lon="-0.869882963597775">
        <ele>208.74000000000001</ele>
        <time>2025-05-14T06:31:24Z</time>
      </trkpt>
      <trkpt lat="41.679553985595703" lon="-0.86684200912714">
        <ele>208.74000000000001</ele>
        <time>2025-05-14T06:31:35Z</time>
      </trkpt>
      <trkpt lat="41.679576030001044" lon="-0.864025019109249">
        <ele>210.66999999999999</ele>
        <time>2025-05-14T06:31:45Z</time>
      </trkpt>
      <trkpt lat="41.679622968658805" lon="-0.861305007711053">
        <ele>213.55000000000001</ele>
        <time>2025-05-14T06:31:55Z</time>
      </trkpt>
      <trkpt lat="41.679446026682854" lon="-0.858624977990985">
        <ele>214.99000000000001</ele>
        <time>2025-05-14T06:32:04Z</time>
      </trkpt>
      <trkpt lat="41.679091975092888" lon="-0.855904966592789">
        <ele>215.47</ele>
        <time>2025-05-14T06:32:13Z</time>
      </trkpt>
      <trkpt lat="41.678457967936993" lon="-0.852179965004325">
        <ele>210.19</ele>
        <time>2025-05-14T06:32:23Z</time>
      </trkpt>
      <trkpt lat="41.677824966609478" lon="-0.848344992846251">
        <ele>205.86000000000001</ele>
        <time>2025-05-14T06:32:33Z</time>
      </trkpt>
      <trkpt lat="41.676744036376476" lon="-0.841792020946741">
        <ele>205.86000000000001</ele>
        <time>2025-05-14T06:32:50Z</time>
      </trkpt>
      <trkpt lat="41.675727982074022" lon="-0.8356240298599">
        <ele>209.22</ele>
        <time>2025-05-14T06:33:06Z</time>
      </trkpt>
      <trkpt lat="41.674692984670401" lon="-0.829441035166383">
        <ele>212.11000000000001</ele>
        <time>2025-05-14T06:33:22Z</time>
      </trkpt>
      <trkpt lat="41.673812968656421" lon="-0.825669011101127">
        <ele>213.55000000000001</ele>
        <time>2025-05-14T06:33:32Z</time>
      </trkpt>
      <trkpt lat="41.672617038711905" lon="-0.822553038597107">
        <ele>215.94999999999999</ele>
        <time>2025-05-14T06:33:41Z</time>
      </trkpt>
      <trkpt lat="41.671338966116309" lon="-0.820177020505071">
        <ele>218.36000000000001</ele>
        <time>2025-05-14T06:33:49Z</time>
      </trkpt>
      <trkpt lat="41.669760989025235" lon="-0.817839978262782">
        <ele>216.43000000000001</ele>
        <time>2025-05-14T06:33:57Z</time>
      </trkpt>
      <trkpt lat="41.66816096752882" lon="-0.815016031265259">
        <ele>216.43000000000001</ele>
        <time>2025-05-14T06:34:06Z</time>
      </trkpt>
      <trkpt lat="41.667161006480455" lon="-0.812165010720491">
        <ele>215.94999999999999</ele>
        <time>2025-05-14T06:34:14Z</time>
      </trkpt>
      <trkpt lat="41.665371973067522" lon="-0.806303964927793">
        <ele>216.91</ele>
        <time>2025-05-14T06:34:30Z</time>
      </trkpt>
      <trkpt lat="41.664579967036843" lon="-0.802486008033156">
        <ele>216.91</ele>
        <time>2025-05-14T06:34:40Z</time>
      </trkpt>
      <trkpt lat="41.664107982069254" lon="-0.79978896304965">
        <ele>215.47</ele>
        <time>2025-05-14T06:34:47Z</time>
      </trkpt>
      <trkpt lat="41.663255961611867" lon="-0.796025991439819">
        <ele>216.91</ele>
        <time>2025-05-14T06:34:57Z</time>
      </trkpt>
      <trkpt lat="41.661973027512431" lon="-0.792032014578581">
        <ele>217.40000000000001</ele>
        <time>2025-05-14T06:35:08Z</time>
      </trkpt>
      <trkpt lat="41.660464033484459" lon="-0.787741988897324">
        <ele>217.88</ele>
        <time>2025-05-14T06:35:20Z</time>
      </trkpt>
      <trkpt lat="41.659678984433413" lon="-0.78549899160862">
        <ele>218.36000000000001</ele>
        <time>2025-05-14T06:35:27Z</time>
      </trkpt>
      <trkpt lat="41.658433014526963" lon="-0.782029973343015">
        <ele>216.43000000000001</ele>
        <time>2025-05-14T06:35:38Z</time>
      </trkpt>
      <trkpt lat="41.657034996896982" lon="-0.778118977323174">
        <ele>217.88</ele>
        <time>2025-05-14T06:35:49Z</time>
      </trkpt>
      <trkpt lat="41.655510999262333" lon="-0.773857031017542">
        <ele>220.75999999999999</ele>
        <time>2025-05-14T06:36:01Z</time>
      </trkpt>
      <trkpt lat="41.65436502546072" lon="-0.771008022129536">
        <ele>222.19999999999999</ele>
        <time>2025-05-14T06:36:10Z</time>
      </trkpt>
      <trkpt lat="41.653047977015376" lon="-0.769023019820452">
        <ele>222.19999999999999</ele>
        <time>2025-05-14T06:36:18Z</time>
      </trkpt>
      <trkpt lat="41.651520961895585" lon="-0.767525006085634">
        <ele>220.75999999999999</ele>
        <time>2025-05-14T06:36:25Z</time>
      </trkpt>
      <trkpt lat="41.648913016542792" lon="-0.765663972124457">
        <ele>216.91</ele>
        <time>2025-05-14T06:36:35Z</time>
      </trkpt>
      <trkpt lat="41.646634982898831" lon="-0.763807967305183">
        <ele>214.03</ele>
        <time>2025-05-14T06:36:44Z</time>
      </trkpt>
      <trkpt lat="41.644345968961716" lon="-0.761624984443188">
        <ele>208.74000000000001</ele>
        <time>2025-05-14T06:36:54Z</time>
      </trkpt>
      <trkpt lat="41.642589038237929" lon="-0.759123992174864">
        <ele>207.30000000000001</ele>
        <time>2025-05-14T06:37:04Z</time>
      </trkpt>
      <trkpt lat="41.640763962641358" lon="-0.756052024662495">
        <ele>210.66999999999999</ele>
        <time>2025-05-14T06:37:15Z</time>
      </trkpt>
      <trkpt lat="41.639578007161617" lon="-0.7535719871521">
        <ele>215.94999999999999</ele>
        <time>2025-05-14T06:37:24Z</time>
      </trkpt>
      <trkpt lat="41.638463968411088" lon="-0.751126985996962">
        <ele>218.84</ele>
        <time>2025-05-14T06:37:32Z</time>
      </trkpt>
      <trkpt lat="41.636702008545399" lon="-0.747587978839874">
        <ele>219.80000000000001</ele>
        <time>2025-05-14T06:37:43Z</time>
      </trkpt>
      <trkpt lat="41.636351980268955" lon="-0.746947014704347">
        <ele>220.28</ele>
        <time>2025-05-14T06:37:45Z</time>
      </trkpt>
      <trkpt lat="41.633957019075751" lon="-0.742439981549978">
        <ele>221.24000000000001</ele>
        <time>2025-05-14T06:37:59Z</time>
      </trkpt>
      <trkpt lat="41.632733009755611" lon="-0.739300036802888">
        <ele>216.91</ele>
        <time>2025-05-14T06:38:08Z</time>
      </trkpt>
      <trkpt lat="41.631361981853843" lon="-0.735359033569694">
        <ele>210.66999999999999</ele>
        <time>2025-05-14T06:38:19Z</time>
      </trkpt>
      <trkpt lat="41.630003023892641" lon="-0.732768019661307">
        <ele>206.81999999999999</ele>
        <time>2025-05-14T06:38:27Z</time>
      </trkpt>
      <trkpt lat="41.62800301797688" lon="-0.729878023266792">
        <ele>207.30000000000001</ele>
        <time>2025-05-14T06:38:37Z</time>
      </trkpt>
      <trkpt lat="41.626425040885806" lon="-0.727092968299985">
        <ele>209.69999999999999</ele>
        <time>2025-05-14T06:38:46Z</time>
      </trkpt>
      <trkpt lat="41.625261968001723" lon="-0.723925027996302">
        <ele>207.30000000000001</ele>
        <time>2025-05-14T06:38:55Z</time>
      </trkpt>
      <trkpt lat="41.62439402192831" lon="-0.720667988061905">
        <ele>204.41999999999999</ele>
        <time>2025-05-14T06:39:04Z</time>
      </trkpt>
      <trkpt lat="41.623477963730693" lon="-0.717797018587589">
        <ele>203.94</ele>
        <time>2025-05-14T06:39:12Z</time>
      </trkpt>
      <trkpt lat="41.622110959142447" lon="-0.714827980846167">
        <ele>204.90000000000001</ele>
        <time>2025-05-14T06:39:21Z</time>
      </trkpt>
      <trkpt lat="41.620115982368588" lon="-0.711506986990571">
        <ele>201.05000000000001</ele>
        <time>2025-05-14T06:39:32Z</time>
      </trkpt>
      <trkpt lat="41.618723999708891" lon="-0.709042036905885">
        <ele>196.25</ele>
        <time>2025-05-14T06:39:40Z</time>
      </trkpt>
      <trkpt lat="41.617644997313619" lon="-0.706309033557773">
        <ele>194.31999999999999</ele>
        <time>2025-05-14T06:39:48Z</time>
      </trkpt>
      <trkpt lat="41.616789037361741" lon="-0.703014023602009">
        <ele>197.69</ele>
        <time>2025-05-14T06:39:57Z</time>
      </trkpt>
      <trkpt lat="41.615921007469296" lon="-0.700553013011813">
        <ele>201.53</ele>
        <time>2025-05-14T06:40:04Z</time>
      </trkpt>
      <trkpt lat="41.615740964189172" lon="-0.700241038575768">
        <ele>201.05000000000001</ele>
        <time>2025-05-14T06:40:05Z</time>
      </trkpt>
      <trkpt lat="41.615540971979499" lon="-0.699969967827201">
        <ele>201.05000000000001</ele>
        <time>2025-05-14T06:40:06Z</time>
      </trkpt>
      <trkpt lat="41.615329999476671" lon="-0.699706021696329">
        <ele>201.53</ele>
        <time>2025-05-14T06:40:07Z</time>
      </trkpt>
      <trkpt lat="41.615117015317082" lon="-0.699477028101683">
        <ele>201.53</ele>
        <time>2025-05-14T06:40:08Z</time>
      </trkpt>
      <trkpt lat="41.614864971488714" lon="-0.69923797622323">
        <ele>202.00999999999999</ele>
        <time>2025-05-14T06:40:09Z</time>
      </trkpt>
      <trkpt lat="41.614620974287391" lon="-0.699020968750119">
        <ele>202.00999999999999</ele>
        <time>2025-05-14T06:40:10Z</time>
      </trkpt>
      <trkpt lat="41.611962988972664" lon="-0.697373002767563">
        <ele>199.61000000000001</ele>
        <time>2025-05-14T06:40:20Z</time>
      </trkpt>
      <trkpt lat="41.608189037069678" lon="-0.695169987156987">
        <ele>192.40000000000001</ele>
        <time>2025-05-14T06:40:34Z</time>
      </trkpt>
      <trkpt lat="41.606020973995328" lon="-0.693954024463892">
        <ele>189.03999999999999</ele>
        <time>2025-05-14T06:40:42Z</time>
      </trkpt>
      <trkpt lat="41.602129004895687" lon="-0.692193992435932">
        <ele>185.19</ele>
        <time>2025-05-14T06:40:56Z</time>
      </trkpt>
      <trkpt lat="41.598960980772972" lon="-0.691262008622289">
        <ele>184.71000000000001</ele>
        <time>2025-05-14T06:41:07Z</time>
      </trkpt>
      <trkpt lat="41.595240002498031" lon="-0.690096002072096">
        <ele>187.59</ele>
        <time>2025-05-14T06:41:20Z</time>
      </trkpt>
      <trkpt lat="41.593107981607318" lon="-0.688781971111894">
        <ele>188.08000000000001</ele>
        <time>2025-05-14T06:41:28Z</time>
      </trkpt>
      <trkpt lat="41.590732969343662" lon="-0.68647401407361">
        <ele>186.63</ele>
        <time>2025-05-14T06:41:38Z</time>
      </trkpt>
      <trkpt lat="41.588948965072632" lon="-0.68385299295187">
        <ele>184.71000000000001</ele>
        <time>2025-05-14T06:41:47Z</time>
      </trkpt>
      <trkpt lat="41.587558994069695" lon="-0.680825030431151">
        <ele>181.83000000000001</ele>
        <time>2025-05-14T06:41:56Z</time>
      </trkpt>
      <trkpt lat="41.58653698861599" lon="-0.677119977772236">
        <ele>180.87</ele>
        <time>2025-05-14T06:42:06Z</time>
      </trkpt>
      <trkpt lat="41.585536021739244" lon="-0.673003038391471">
        <ele>178.94</ele>
        <time>2025-05-14T06:42:17Z</time>
      </trkpt>
      <trkpt lat="41.58421603962779" lon="-0.669452967122197">
        <ele>179.90000000000001</ele>
        <time>2025-05-14T06:42:27Z</time>
      </trkpt>
      <trkpt lat="41.582504035905004" lon="-0.666228029876947">
        <ele>181.34999999999999</ele>
        <time>2025-05-14T06:42:37Z</time>
      </trkpt>
      <trkpt lat="41.580391963943839" lon="-0.663452027365565">
        <ele>181.83000000000001</ele>
        <time>2025-05-14T06:42:47Z</time>
      </trkpt>
      <trkpt lat="41.577974958345294" lon="-0.661165025085211">
        <ele>182.78999999999999</ele>
        <time>2025-05-14T06:42:57Z</time>
      </trkpt>
      <trkpt lat="41.574471993371844" lon="-0.658166985958815">
        <ele>181.34999999999999</ele>
        <time>2025-05-14T06:43:11Z</time>
      </trkpt>
      <trkpt lat="41.57257198356092" lon="-0.655674962326884">
        <ele>179.41999999999999</ele>
        <time>2025-05-14T06:43:20Z</time>
      </trkpt>
      <trkpt lat="41.571072963997722" lon="-0.65276401117444">
        <ele>177.5</ele>
        <time>2025-05-14T06:43:29Z</time>
      </trkpt>
      <trkpt lat="41.570024974644184" lon="-0.64949800260365">
        <ele>176.06</ele>
        <time>2025-05-14T06:43:38Z</time>
      </trkpt>
      <trkpt lat="41.569627001881599" lon="-0.647467989474535">
        <ele>174.62</ele>
        <time>2025-05-14T06:43:44Z</time>
      </trkpt>
      <trkpt lat="41.569369006901979" lon="-0.644470034167171">
        <ele>176.06</ele>
        <time>2025-05-14T06:43:54Z</time>
      </trkpt>
      <trkpt lat="41.569516025483608" lon="-0.641178041696548">
        <ele>178.46000000000001</ele>
        <time>2025-05-14T06:44:05Z</time>
      </trkpt>
      <trkpt lat="41.569747030735016" lon="-0.637248018756509">
        <ele>181.83000000000001</ele>
        <time>2025-05-14T06:44:18Z</time>
      </trkpt>
      <trkpt lat="41.569513007998466" lon="-0.634338995441794">
        <ele>184.71000000000001</ele>
        <time>2025-05-14T06:44:27Z</time>
      </trkpt>
      <trkpt lat="41.568816974759102" lon="-0.631541032344103">
        <ele>187.59</ele>
        <time>2025-05-14T06:44:35Z</time>
      </trkpt>
      <trkpt lat="41.567593971267343" lon="-0.628819009289145">
        <ele>189.03999999999999</ele>
        <time>2025-05-14T06:44:43Z</time>
      </trkpt>
      <trkpt lat="41.565590025857091" lon="-0.625922977924347">
        <ele>186.63</ele>
        <time>2025-05-14T06:44:53Z</time>
      </trkpt>
      <trkpt lat="41.563301011919975" lon="-0.622856039553881">
        <ele>183.75</ele>
        <time>2025-05-14T06:45:04Z</time>
      </trkpt>
      <trkpt lat="41.560988025739789" lon="-0.619230028241873">
        <ele>180.87</ele>
        <time>2025-05-14T06:45:16Z</time>
      </trkpt>
      <trkpt lat="41.559124980121851" lon="-0.615675011649728">
        <ele>181.83000000000001</ele>
        <time>2025-05-14T06:45:27Z</time>
      </trkpt>
      <trkpt lat="41.55723100528121" lon="-0.611199997365475">
        <ele>185.66999999999999</ele>
        <time>2025-05-14T06:45:40Z</time>
      </trkpt>
      <trkpt lat="41.555716982111335" lon="-0.606472017243505">
        <ele>189.03999999999999</ele>
        <time>2025-05-14T06:45:53Z</time>
      </trkpt>
      <trkpt lat="41.554260961711407" lon="-0.6012830324471">
        <ele>192.88</ele>
        <time>2025-05-14T06:46:07Z</time>
      </trkpt>
      <trkpt lat="41.553627960383892" lon="-0.599425015971065">
        <ele>193.84</ele>
        <time>2025-05-14T06:46:13Z</time>
      </trkpt>
      <trkpt lat="41.552227009087801" lon="-0.596205024048686">
        <ele>192.40000000000001</ele>
        <time>2025-05-14T06:46:25Z</time>
      </trkpt>
      <trkpt lat="41.550804013386369" lon="-0.593633037060499">
        <ele>190.47999999999999</ele>
        <time>2025-05-14T06:46:36Z</time>
      </trkpt>
      <trkpt lat="41.549295019358397" lon="-0.591244027018547">
        <ele>190.47999999999999</ele>
        <time>2025-05-14T06:46:47Z</time>
      </trkpt>
      <trkpt lat="41.547909993678331" lon="-0.588809000328183">
        <ele>189.52000000000001</ele>
        <time>2025-05-14T06:46:56Z</time>
      </trkpt>
      <trkpt lat="41.546734012663364" lon="-0.585797969251871">
        <ele>189.52000000000001</ele>
        <time>2025-05-14T06:47:05Z</time>
      </trkpt>
      <trkpt lat="41.545590972527862" lon="-0.582170030102134">
        <ele>184.71000000000001</ele>
        <time>2025-05-14T06:47:15Z</time>
      </trkpt>
      <trkpt lat="41.544234026223421" lon="-0.579124968498945">
        <ele>183.27000000000001</ele>
        <time>2025-05-14T06:47:24Z</time>
      </trkpt>
      <trkpt lat="41.542314989492297" lon="-0.575220007449389">
        <ele>186.63</ele>
        <time>2025-05-14T06:47:36Z</time>
      </trkpt>
      <trkpt lat="41.541284015402198" lon="-0.571999009698629">
        <ele>189.52000000000001</ele>
        <time>2025-05-14T06:47:45Z</time>
      </trkpt>
      <trkpt lat="41.540760984644294" lon="-0.568599980324507">
        <ele>192.40000000000001</ele>
        <time>2025-05-14T06:47:54Z</time>
      </trkpt>
      <trkpt lat="41.540684960782528" lon="-0.565101038664579">
        <ele>195.28</ele>
        <time>2025-05-14T06:48:03Z</time>
      </trkpt>
      <trkpt lat="41.541170021519065" lon="-0.561669990420341">
        <ele>197.21000000000001</ele>
        <time>2025-05-14T06:48:12Z</time>
      </trkpt>
      <trkpt lat="41.541968984529376" lon="-0.558759961277246">
        <ele>198.65000000000001</ele>
        <time>2025-05-14T06:48:20Z</time>
      </trkpt>
      <trkpt lat="41.543432967737317" lon="-0.5549839977175">
        <ele>201.05000000000001</ele>
        <time>2025-05-14T06:48:31Z</time>
      </trkpt>
      <trkpt lat="41.544424965977669" lon="-0.551320016384125">
        <ele>208.25999999999999</ele>
        <time>2025-05-14T06:48:41Z</time>
      </trkpt>
      <trkpt lat="41.544795027002692" lon="-0.548236984759569">
        <ele>216.91</ele>
        <time>2025-05-14T06:48:49Z</time>
      </trkpt>
      <trkpt lat="41.544644990935922" lon="-0.544332023710012">
        <ele>227.97</ele>
        <time>2025-05-14T06:48:59Z</time>
      </trkpt>
      <trkpt lat="41.544093964621425" lon="-0.541285034269094">
        <ele>235.66</ele>
        <time>2025-05-14T06:49:07Z</time>
      </trkpt>
      <trkpt lat="41.543256025761366" lon="-0.538743976503611">
        <ele>239.99000000000001</ele>
        <time>2025-05-14T06:49:14Z</time>
      </trkpt>
      <trkpt lat="41.541981976479292" lon="-0.53612002171576">
        <ele>241.43000000000001</ele>
        <time>2025-05-14T06:49:22Z</time>
      </trkpt>
      <trkpt lat="41.539694974198937" lon="-0.532042980194092">
        <ele>237.58000000000001</ele>
        <time>2025-05-14T06:49:35Z</time>
      </trkpt>
      <trkpt lat="41.538597028702497" lon="-0.529468981549144">
        <ele>235.18000000000001</ele>
        <time>2025-05-14T06:49:43Z</time>
      </trkpt>
      <trkpt lat="41.537712989374995" lon="-0.526534980162978">
        <ele>231.33000000000001</ele>
        <time>2025-05-14T06:49:53Z</time>
      </trkpt>
      <trkpt lat="41.536946967244148" lon="-0.52344398573041">
        <ele>232.30000000000001</ele>
        <time>2025-05-14T06:50:04Z</time>
      </trkpt>
      <trkpt lat="41.53602596372366" lon="-0.520010003820062">
        <ele>234.22</ele>
        <time>2025-05-14T06:50:16Z</time>
      </trkpt>
      <trkpt lat="41.534642027691007" lon="-0.51618299447">
        <ele>235.18000000000001</ele>
        <time>2025-05-14T06:50:30Z</time>
      </trkpt>
      <trkpt lat="41.533221965655684" lon="-0.513175986707211">
        <ele>234.69999999999999</ele>
        <time>2025-05-14T06:50:42Z</time>
      </trkpt>
      <trkpt lat="41.532025029882789" lon="-0.511031979694963">
        <ele>232.78</ele>
        <time>2025-05-14T06:50:51Z</time>
      </trkpt>
      <trkpt lat="41.530585018917918" lon="-0.508841034024954">
        <ele>228.93000000000001</ele>
        <time>2025-05-14T06:51:01Z</time>
      </trkpt>
      <trkpt lat="41.52867503464222" lon="-0.506285978481174">
        <ele>229.41</ele>
        <time>2025-05-14T06:51:13Z</time>
      </trkpt>
      <trkpt lat="41.526618031784892" lon="-0.503352982923388">
        <ele>233.25999999999999</ele>
        <time>2025-05-14T06:51:26Z</time>
      </trkpt>
      <trkpt lat="41.525064026936889" lon="-0.500365002080798">
        <ele>236.62</ele>
        <time>2025-05-14T06:51:38Z</time>
      </trkpt>
      <trkpt lat="41.52399399317801" lon="-0.497523033991456">
        <ele>238.53999999999999</ele>
        <time>2025-05-14T06:51:49Z</time>
      </trkpt>
      <trkpt lat="41.523197963833809" lon="-0.494380993768573">
        <ele>238.06</ele>
        <time>2025-05-14T06:52:00Z</time>
      </trkpt>
      <trkpt lat="41.522752968594432" lon="-0.491426037624478">
        <ele>239.02000000000001</ele>
        <time>2025-05-14T06:52:10Z</time>
      </trkpt>
      <trkpt lat="41.522592036053538" lon="-0.487545970827341">
        <ele>240.47</ele>
        <time>2025-05-14T06:52:23Z</time>
      </trkpt>
      <trkpt lat="41.522880960255861" lon="-0.483968993648887">
        <ele>239.02000000000001</ele>
        <time>2025-05-14T06:52:35Z</time>
      </trkpt>
      <trkpt lat="41.52362996712327" lon="-0.480231000110507">
        <ele>236.62</ele>
        <time>2025-05-14T06:52:47Z</time>
      </trkpt>
      <trkpt lat="41.524291969835758" lon="-0.47791600227356">
        <ele>236.13999999999999</ele>
        <time>2025-05-14T06:52:54Z</time>
      </trkpt>
      <trkpt lat="41.525544980540872" lon="-0.473700994625688">
        <ele>234.22</ele>
        <time>2025-05-14T06:53:06Z</time>
      </trkpt>
      <trkpt lat="41.525982012972236" lon="-0.470637995749712">
        <ele>231.81</ele>
        <time>2025-05-14T06:53:14Z</time>
      </trkpt>
      <trkpt lat="41.525903977453709" lon="-0.467126984149218">
        <ele>230.37</ele>
        <time>2025-05-14T06:53:23Z</time>
      </trkpt>
      <trkpt lat="41.525683030486107" lon="-0.464049987494946">
        <ele>231.81</ele>
        <time>2025-05-14T06:53:31Z</time>
      </trkpt>
      <trkpt lat="41.524768983945251" lon="-0.460334038361907">
        <ele>237.58000000000001</ele>
        <time>2025-05-14T06:53:41Z</time>
      </trkpt>
      <trkpt lat="41.524117039516568" lon="-0.457331975921988">
        <ele>243.83000000000001</ele>
        <time>2025-05-14T06:53:49Z</time>
      </trkpt>
      <trkpt lat="41.523705990985036" lon="-0.454237964004278">
        <ele>245.75</ele>
        <time>2025-05-14T06:53:57Z</time>
      </trkpt>
      <trkpt lat="41.523622004315257" lon="-0.449938969686627">
        <ele>245.75</ele>
        <time>2025-05-14T06:54:08Z</time>
      </trkpt>
      <trkpt lat="41.523449001833797" lon="-0.444875964894891">
        <ele>244.31</ele>
        <time>2025-05-14T06:54:21Z</time>
      </trkpt>
      <trkpt lat="41.522782975807786" lon="-0.440692976117134">
        <ele>251.52000000000001</ele>
        <time>2025-05-14T06:54:32Z</time>
      </trkpt>
      <trkpt lat="41.522220969200134" lon="-0.436851968988776">
        <ele>259.20999999999998</ele>
        <time>2025-05-14T06:54:42Z</time>
      </trkpt>
      <trkpt lat="41.522189034149051" lon="-0.436073960736394">
        <ele>261.13999999999999</ele>
        <time>2025-05-14T06:54:44Z</time>
      </trkpt>
      <trkpt lat="41.522258017212152" lon="-0.432956982403994">
        <ele>268.35000000000002</ele>
        <time>2025-05-14T06:54:52Z</time>
      </trkpt>
      <trkpt lat="41.522814994677901" lon="-0.42953297495842">
        <ele>275.56</ele>
        <time>2025-05-14T06:55:01Z</time>
      </trkpt>
      <trkpt lat="41.523879999294877" lon="-0.426323963329196">
        <ele>282.27999999999997</ele>
        <time>2025-05-14T06:55:10Z</time>
      </trkpt>
      <trkpt lat="41.525487983599305" lon="-0.423052003607154">
        <ele>289.49000000000001</ele>
        <time>2025-05-14T06:55:20Z</time>
      </trkpt>
      <trkpt lat="41.527135027572513" lon="-0.419365977868438">
        <ele>296.69999999999999</ele>
        <time>2025-05-14T06:55:31Z</time>
      </trkpt>
      <trkpt lat="41.527956034988165" lon="-0.416438011452556">
        <ele>301.50999999999999</ele>
        <time>2025-05-14T06:55:39Z</time>
      </trkpt>
      <trkpt lat="41.528347972780466" lon="-0.413340982049704">
        <ele>305.36000000000001</ele>
        <time>2025-05-14T06:55:47Z</time>
      </trkpt>
      <trkpt lat="41.528285024687648" lon="-0.409826030954719">
        <ele>308.72000000000003</ele>
        <time>2025-05-14T06:55:56Z</time>
      </trkpt>
      <trkpt lat="41.527762999758124" lon="-0.406387019902468">
        <ele>312.08999999999997</ele>
        <time>2025-05-14T06:56:05Z</time>
      </trkpt>
      <trkpt lat="41.52764699421823" lon="-0.406011007726192">
        <ele>313.05000000000001</ele>
        <time>2025-05-14T06:56:06Z</time>
      </trkpt>
      <trkpt lat="41.526331035420299" lon="-0.402076039463282">
        <ele>316.41000000000003</ele>
        <time>2025-05-14T06:56:17Z</time>
      </trkpt>
      <trkpt lat="41.525194030255079" lon="-0.398053983226419">
        <ele>317.85000000000002</ele>
        <time>2025-05-14T06:56:28Z</time>
      </trkpt>
      <trkpt lat="41.524588018655777" lon="-0.394223034381866">
        <ele>315.93000000000001</ele>
        <time>2025-05-14T06:56:38Z</time>
      </trkpt>
      <trkpt lat="41.523866001516581" lon="-0.390834985300899">
        <ele>314.00999999999999</ele>
        <time>2025-05-14T06:56:47Z</time>
      </trkpt>
      <trkpt lat="41.522880038246512" lon="-0.387983964756131">
        <ele>315.44999999999999</ele>
        <time>2025-05-14T06:56:55Z</time>
      </trkpt>
      <trkpt lat="41.521577993407845" lon="-0.384051008149982">
        <ele>319.30000000000001</ele>
        <time>2025-05-14T06:57:06Z</time>
      </trkpt>
      <trkpt lat="41.521012969315052" lon="-0.380619037896395">
        <ele>319.30000000000001</ele>
        <time>2025-05-14T06:57:15Z</time>
      </trkpt>
      <trkpt lat="41.52094398625195" lon="-0.377104002982378">
        <ele>317.85000000000002</ele>
        <time>2025-05-14T06:57:24Z</time>
      </trkpt>
      <trkpt lat="41.521384958177805" lon="-0.373634984716773">
        <ele>314.49000000000001</ele>
        <time>2025-05-14T06:57:33Z</time>
      </trkpt>
      <trkpt lat="41.522196996957064" lon="-0.370713975280523">
        <ele>311.60000000000002</ele>
        <time>2025-05-14T06:57:41Z</time>
      </trkpt>
      <trkpt lat="41.523591997101903" lon="-0.366831980645657">
        <ele>304.38999999999999</ele>
        <time>2025-05-14T06:57:52Z</time>
      </trkpt>
      <trkpt lat="41.524935029447079" lon="-0.362901035696268">
        <ele>299.58999999999997</ele>
        <time>2025-05-14T06:58:03Z</time>
      </trkpt>
      <trkpt lat="41.525963991880417" lon="-0.359207969158888">
        <ele>297.18000000000001</ele>
        <time>2025-05-14T06:58:13Z</time>
      </trkpt>
      <trkpt lat="41.526735965162516" lon="-0.355419013649225">
        <ele>294.77999999999997</ele>
        <time>2025-05-14T06:58:23Z</time>
      </trkpt>
      <trkpt lat="41.527241980656981" lon="-0.35192996263504">
        <ele>295.74000000000001</ele>
        <time>2025-05-14T06:58:32Z</time>
      </trkpt>
      <trkpt lat="41.527627967298031" lon="-0.346830999478698">
        <ele>300.06999999999999</ele>
        <time>2025-05-14T06:58:45Z</time>
      </trkpt>
      <trkpt lat="41.527664009481668" lon="-0.344062959775329">
        <ele>303.43000000000001</ele>
        <time>2025-05-14T06:58:52Z</time>
      </trkpt>
      <trkpt lat="41.52740802615881" lon="-0.338959973305464">
        <ele>308.24000000000001</ele>
        <time>2025-05-14T06:59:05Z</time>
      </trkpt>
      <trkpt lat="41.526987003162503" lon="-0.33544996753335">
        <ele>311.60000000000002</ele>
        <time>2025-05-14T06:59:14Z</time>
      </trkpt>
      <trkpt lat="41.526532033458352" lon="-0.332757029682398">
        <ele>312.56999999999999</ele>
        <time>2025-05-14T06:59:21Z</time>
      </trkpt>
      <trkpt lat="41.52588302269578" lon="-0.329857980832458">
        <ele>314.97000000000003</ele>
        <time>2025-05-14T06:59:29Z</time>
      </trkpt>
      <trkpt lat="41.525268964469433" lon="-0.327514987438917">
        <ele>318.32999999999998</ele>
        <time>2025-05-14T06:59:35Z</time>
      </trkpt>
      <trkpt lat="41.524333963170648" lon="-0.324580986052752">
        <ele>321.22000000000003</ele>
        <time>2025-05-14T06:59:43Z</time>
      </trkpt>
      <trkpt lat="41.523118000477552" lon="-0.321404999122024">
        <ele>320.25999999999999</ele>
        <time>2025-05-14T06:59:52Z</time>
      </trkpt>
      <trkpt lat="41.521571958437562" lon="-0.317949978634715">
        <ele>317.85000000000002</ele>
        <time>2025-05-14T07:00:02Z</time>
      </trkpt>
      <trkpt lat="41.52006103657186" lon="-0.314668966457248">
        <ele>315.93000000000001</ele>
        <time>2025-05-14T07:00:12Z</time>
      </trkpt>
      <trkpt lat="41.51879696175456" lon="-0.311111016198993">
        <ele>317.85000000000002</ele>
        <time>2025-05-14T07:00:22Z</time>
      </trkpt>
      <trkpt lat="41.518052984029055" lon="-0.307695977389812">
        <ele>322.18000000000001</ele>
        <time>2025-05-14T07:00:31Z</time>
      </trkpt>
      <trkpt lat="41.517668003216386" lon="-0.303794033825397">
        <ele>327.94999999999999</ele>
        <time>2025-05-14T07:00:41Z</time>
      </trkpt>
      <trkpt lat="41.517723994329572" lon="-0.300243040546775">
        <ele>334.19999999999999</ele>
        <time>2025-05-14T07:00:50Z</time>
      </trkpt>
      <trkpt lat="41.517945025116205" lon="-0.295133013278246">
        <ele>341.41000000000003</ele>
        <time>2025-05-14T07:01:03Z</time>
      </trkpt>
      <trkpt lat="41.517686024308205" lon="-0.290814992040396">
        <ele>344.76999999999998</ele>
        <time>2025-05-14T07:01:14Z</time>
      </trkpt>
      <trkpt lat="41.517442027106881" lon="-0.286089023575187">
        <ele>347.64999999999998</ele>
        <time>2025-05-14T07:01:26Z</time>
      </trkpt>
      <trkpt lat="41.517793983221054" lon="-0.281755998730659">
        <ele>348.62</ele>
        <time>2025-05-14T07:01:37Z</time>
      </trkpt>
      <trkpt lat="41.518618008121848" lon="-0.2771379891783">
        <ele>345.73000000000002</ele>
        <time>2025-05-14T07:01:49Z</time>
      </trkpt>
      <trkpt lat="41.5190090239048" lon="-0.273654973134398">
        <ele>342.85000000000002</ele>
        <time>2025-05-14T07:01:58Z</time>
      </trkpt>
      <trkpt lat="41.518957978114486" lon="-0.269333012402058">
        <ele>342.37</ele>
        <time>2025-05-14T07:02:09Z</time>
      </trkpt>
      <trkpt lat="41.518546007573605" lon="-0.26510601863265">
        <ele>346.20999999999998</ele>
        <time>2025-05-14T07:02:20Z</time>
      </trkpt>
      <trkpt lat="41.518346015363932" lon="-0.260843988507986">
        <ele>352.94</ele>
        <time>2025-05-14T07:02:31Z</time>
      </trkpt>
      <trkpt lat="41.518593030050397" lon="-0.256990995258093">
        <ele>360.14999999999998</ele>
        <time>2025-05-14T07:02:41Z</time>
      </trkpt>
      <trkpt lat="41.519082030281425" lon="-0.25120597332716">
        <ele>373.13</ele>
        <time>2025-05-14T07:02:56Z</time>
      </trkpt>
      <trkpt lat="41.51920398697257" lon="-0.246557034552097">
        <ele>381.30000000000001</ele>
        <time>2025-05-14T07:03:08Z</time>
      </trkpt>
      <trkpt lat="41.518939035013318" lon="-0.241529988124967">
        <ele>385.63</ele>
        <time>2025-05-14T07:03:21Z</time>
      </trkpt>
      <trkpt lat="41.518424972891808" lon="-0.237317997962236">
        <ele>384.18000000000001</ele>
        <time>2025-05-14T07:03:32Z</time>
      </trkpt>
      <trkpt lat="41.517674960196018" lon="-0.23236496374011">
        <ele>382.74000000000001</ele>
        <time>2025-05-14T07:03:45Z</time>
      </trkpt>
      <trkpt lat="41.517226025462151" lon="-0.227751983329654">
        <ele>379.86000000000001</ele>
        <time>2025-05-14T07:03:57Z</time>
      </trkpt>
      <trkpt lat="41.517277993261814" lon="-0.223827995359898">
        <ele>379.86000000000001</ele>
        <time>2025-05-14T07:04:07Z</time>
      </trkpt>
      <trkpt lat="41.51780697517097" lon="-0.219581974670291">
        <ele>381.30000000000001</ele>
        <time>2025-05-14T07:04:18Z</time>
      </trkpt>
      <trkpt lat="41.518015014007688" lon="-0.218428960070014">
        <ele>382.74000000000001</ele>
        <time>2025-05-14T07:04:21Z</time>
      </trkpt>
      <trkpt lat="41.51810503564775" lon="-0.218042973428965">
        <ele>383.69999999999999</ele>
        <time>2025-05-14T07:04:22Z</time>
      </trkpt>
      <trkpt lat="41.519200969487429" lon="-0.213997028768063">
        <ele>388.50999999999999</ele>
        <time>2025-05-14T07:04:33Z</time>
      </trkpt>
      <trkpt lat="41.520575014874339" lon="-0.210541002452374">
        <ele>389.94999999999999</ele>
        <time>2025-05-14T07:04:43Z</time>
      </trkpt>
      <trkpt lat="41.523053040727973" lon="-0.205620992928743">
        <ele>388.99000000000001</ele>
        <time>2025-05-14T07:04:58Z</time>
      </trkpt>
      <trkpt lat="41.524195997044444" lon="-0.202868040651083">
        <ele>388.99000000000001</ele>
        <time>2025-05-14T07:05:06Z</time>
      </trkpt>
      <trkpt lat="41.525341970846057" lon="-0.198796028271317">
        <ele>388.99000000000001</ele>
        <time>2025-05-14T07:05:17Z</time>
      </trkpt>
      <trkpt lat="41.525831976905465" lon="-0.19532298669219">
        <ele>386.11000000000001</ele>
        <time>2025-05-14T07:05:26Z</time>
      </trkpt>
      <trkpt lat="41.525915041565895" lon="-0.19136899150908">
        <ele>381.77999999999997</ele>
        <time>2025-05-14T07:05:36Z</time>
      </trkpt>
      <trkpt lat="41.525595020502806" lon="-0.187851022928953">
        <ele>376.49000000000001</ele>
        <time>2025-05-14T07:05:45Z</time>
      </trkpt>
      <trkpt lat="41.525543974712491" lon="-0.187462018802762">
        <ele>376.00999999999999</ele>
        <time>2025-05-14T07:05:46Z</time>
      </trkpt>
      <trkpt lat="41.525085987523198" lon="-0.183980008587241">
        <ele>370.24000000000001</ele>
        <time>2025-05-14T07:05:55Z</time>
      </trkpt>
      <trkpt lat="41.524665970355272" lon="-0.179262002930045">
        <ele>365.44</ele>
        <time>2025-05-14T07:06:07Z</time>
      </trkpt>
      <trkpt lat="41.524590030312538" lon="-0.175719978287816">
        <ele>364.95999999999998</ele>
        <time>2025-05-14T07:06:16Z</time>
      </trkpt>
      <trkpt lat="41.524434965103865" lon="-0.171756008639932">
        <ele>366.88</ele>
        <time>2025-05-14T07:06:26Z</time>
      </trkpt>
      <trkpt lat="41.523990975692868" lon="-0.167832020670176">
        <ele>366.39999999999998</ele>
        <time>2025-05-14T07:06:36Z</time>
      </trkpt>
      <trkpt lat="41.52322000823915" lon="-0.164010962471366">
        <ele>364.95999999999998</ele>
        <time>2025-05-14T07:06:46Z</time>
      </trkpt>
      <trkpt lat="41.522161960601807" lon="-0.160329965874553">
        <ele>361.11000000000001</ele>
        <time>2025-05-14T07:06:56Z</time>
      </trkpt>
      <trkpt lat="41.520374016836286" lon="-0.155821004882455">
        <ele>355.33999999999997</ele>
        <time>2025-05-14T07:07:09Z</time>
      </trkpt>
      <trkpt lat="41.518596969544888" lon="-0.15132000669837">
        <ele>351.98000000000002</ele>
        <time>2025-05-14T07:07:22Z</time>
      </trkpt>
      <trkpt lat="41.517345970496535" lon="-0.146939037367702">
        <ele>347.17000000000002</ele>
        <time>2025-05-14T07:07:34Z</time>
      </trkpt>
      <trkpt lat="41.516624037176371" lon="-0.143152009695768">
        <ele>343.32999999999998</ele>
        <time>2025-05-14T07:07:44Z</time>
      </trkpt>
      <trkpt lat="41.516199996694922" lon="-0.138886962085962">
        <ele>341.41000000000003</ele>
        <time>2025-05-14T07:07:55Z</time>
      </trkpt>
      <trkpt lat="41.516125984489918" lon="-0.135794961825013">
        <ele>340.44</ele>
        <time>2025-05-14T07:08:03Z</time>
      </trkpt>
      <trkpt lat="41.516241990029812" lon="-0.132719976827502">
        <ele>339.95999999999998</ele>
        <time>2025-05-14T07:08:11Z</time>
      </trkpt>
      <trkpt lat="41.51675496250391" lon="-0.128488959744573">
        <ele>340.44</ele>
        <time>2025-05-14T07:08:22Z</time>
      </trkpt>
      <trkpt lat="41.517820972949266" lon="-0.123586971312761">
        <ele>341.88999999999999</ele>
        <time>2025-05-14T07:08:35Z</time>
      </trkpt>
      <trkpt lat="41.51918102055788" lon="-0.118002025410533">
        <ele>338.51999999999998</ele>
        <time>2025-05-14T07:08:50Z</time>
      </trkpt>
      <trkpt lat="41.519645964726806" lon="-0.114156994968653">
        <ele>337.07999999999998</ele>
        <time>2025-05-14T07:09:00Z</time>
      </trkpt>
      <trkpt lat="41.519621992483735" lon="-0.110239963978529">
        <ele>338.51999999999998</ele>
        <time>2025-05-14T07:09:10Z</time>
      </trkpt>
      <trkpt lat="41.51911798864603" lon="-0.106402980163693">
        <ele>341.41000000000003</ele>
        <time>2025-05-14T07:09:20Z</time>
      </trkpt>
      <trkpt lat="41.517995987087488" lon="-0.101129002869129">
        <ele>346.20999999999998</ele>
        <time>2025-05-14T07:09:34Z</time>
      </trkpt>
      <trkpt lat="41.517622992396355" lon="-0.097649004310369">
        <ele>348.13</ele>
        <time>2025-05-14T07:09:43Z</time>
      </trkpt>
      <trkpt lat="41.517749978229403" lon="-0.094144027680159">
        <ele>348.13</ele>
        <time>2025-05-14T07:09:52Z</time>
      </trkpt>
      <trkpt lat="41.518177036195993" lon="-0.089084040373564">
        <ele>343.32999999999998</ele>
        <time>2025-05-14T07:10:05Z</time>
      </trkpt>
      <trkpt lat="41.517946030944586" lon="-0.085992040112615">
        <ele>340.92000000000002</ele>
        <time>2025-05-14T07:10:13Z</time>
      </trkpt>
      <trkpt lat="41.517243962734938" lon="-0.083011016249657">
        <ele>339</ele>
        <time>2025-05-14T07:10:21Z</time>
      </trkpt>
      <trkpt lat="41.516220029443502" lon="-0.080669028684497">
        <ele>338.04000000000002</ele>
        <time>2025-05-14T07:10:28Z</time>
      </trkpt>
      <trkpt lat="41.514363018795848" lon="-0.077224988490343">
        <ele>337.56</ele>
        <time>2025-05-14T07:10:39Z</time>
      </trkpt>
      <trkpt lat="41.51320799253881" lon="-0.074117984622717">
        <ele>335.16000000000003</ele>
        <time>2025-05-14T07:10:48Z</time>
      </trkpt>
      <trkpt lat="41.512581026181579" lon="-0.071147019043565">
        <ele>331.31</ele>
        <time>2025-05-14T07:10:56Z</time>
      </trkpt>
      <trkpt lat="41.512429984286427" lon="-0.067627960816026">
        <ele>325.06</ele>
        <time>2025-05-14T07:11:05Z</time>
      </trkpt>
      <trkpt lat="41.51284203864634" lon="-0.064165983349085">
        <ele>319.30000000000001</ele>
        <time>2025-05-14T07:11:14Z</time>
      </trkpt>
      <trkpt lat="41.513726999983191" lon="-0.060436958447099">
        <ele>313.05000000000001</ele>
        <time>2025-05-14T07:11:24Z</time>
      </trkpt>
      <trkpt lat="41.514467038214207" lon="-0.056246006861329">
        <ele>306.31999999999999</ele>
        <time>2025-05-14T07:11:35Z</time>
      </trkpt>
      <trkpt lat="41.514510037377477" lon="-0.052727032452822">
        <ele>299.58999999999997</ele>
        <time>2025-05-14T07:11:44Z</time>
      </trkpt>
      <trkpt lat="41.514055989682674" lon="-0.049253990873694">
        <ele>291.89999999999998</ele>
        <time>2025-05-14T07:11:53Z</time>
      </trkpt>
      <trkpt lat="41.513112019747496" lon="-0.044307997450233">
        <ele>280.83999999999997</ele>
        <time>2025-05-14T07:12:06Z</time>
      </trkpt>
      <trkpt lat="41.512813037261367" lon="-0.040812995284796">
        <ele>271.70999999999998</ele>
        <time>2025-05-14T07:12:15Z</time>
      </trkpt>
      <trkpt lat="41.512975981459022" lon="-0.036523975431919">
        <ele>267.86000000000001</ele>
        <time>2025-05-14T07:12:26Z</time>
      </trkpt>
      <trkpt lat="41.513485014438629" lon="-0.030280966311693">
        <ele>284.20999999999998</ele>
        <time>2025-05-14T07:12:42Z</time>
      </trkpt>
      <trkpt lat="41.513407984748483" lon="-0.026355972513556">
        <ele>297.67000000000002</ele>
        <time>2025-05-14T07:12:52Z</time>
      </trkpt>
      <trkpt lat="41.512803984805942" lon="-0.022502979263663">
        <ele>311.12</ele>
        <time>2025-05-14T07:13:02Z</time>
      </trkpt>
      <trkpt lat="41.511888010427356" lon="-0.019150972366333">
        <ele>315.44999999999999</ele>
        <time>2025-05-14T07:13:11Z</time>
      </trkpt>
      <trkpt lat="41.510456968098879" lon="-0.014378987252712">
        <ele>315.44999999999999</ele>
        <time>2025-05-14T07:13:24Z</time>
      </trkpt>
      <trkpt lat="41.509961010888219" lon="-0.010905023664236">
        <ele>311.12</ele>
        <time>2025-05-14T07:13:33Z</time>
      </trkpt>
      <trkpt lat="41.509967967867851" lon="-0.007744962349534">
        <ele>308.72000000000003</ele>
        <time>2025-05-14T07:13:41Z</time>
      </trkpt>
      <trkpt lat="41.510531986132264" lon="-0.003899009898305">
        <ele>306.80000000000001</ele>
        <time>2025-05-14T07:13:51Z</time>
      </trkpt>
      <trkpt lat="41.511563966050744" lon="-0.000206027179956">
        <ele>310.16000000000003</ele>
        <time>2025-05-14T07:14:01Z</time>
      </trkpt>
      <trkpt lat="41.512429984286427" lon="0.003540012985468">
        <ele>316.88999999999999</ele>
        <time>2025-05-14T07:14:11Z</time>
      </trkpt>
      <trkpt lat="41.51267196983099" lon="0.007062004879117">
        <ele>324.10000000000002</ele>
        <time>2025-05-14T07:14:20Z</time>
      </trkpt>
      <trkpt lat="41.512388996779919" lon="0.010588020086288">
        <ele>329.87</ele>
        <time>2025-05-14T07:14:29Z</time>
      </trkpt>
      <trkpt lat="41.511591961607337" lon="0.014000041410327">
        <ele>330.35000000000002</ele>
        <time>2025-05-14T07:14:38Z</time>
      </trkpt>
      <trkpt lat="41.510422015562654" lon="0.018488969653845">
        <ele>321.22000000000003</ele>
        <time>2025-05-14T07:14:50Z</time>
      </trkpt>
      <trkpt lat="41.510004010051489" lon="0.02197802066803">
        <ele>313.05000000000001</ele>
        <time>2025-05-14T07:14:59Z</time>
      </trkpt>
      <trkpt lat="41.510070981457829" lon="0.025111008435488">
        <ele>308.24000000000001</ele>
        <time>2025-05-14T07:15:07Z</time>
      </trkpt>
      <trkpt lat="41.510624019429088" lon="0.028559993952513">
        <ele>307.75999999999999</ele>
        <time>2025-05-14T07:15:16Z</time>
      </trkpt>
      <trkpt lat="41.511538987979293" lon="0.031458036974072">
        <ele>309.19999999999999</ele>
        <time>2025-05-14T07:15:24Z</time>
      </trkpt>
      <trkpt lat="41.513001965358853" lon="0.034432020038366">
        <ele>310.63999999999999</ele>
        <time>2025-05-14T07:15:33Z</time>
      </trkpt>
      <trkpt lat="41.51443300768733" lon="0.03645901568234">
        <ele>313.52999999999997</ele>
        <time>2025-05-14T07:15:40Z</time>
      </trkpt>
      <trkpt lat="41.517286961898208" lon="0.039877993986011">
        <ele>314.00999999999999</ele>
        <time>2025-05-14T07:15:53Z</time>
      </trkpt>
      <trkpt lat="41.519357040524483" lon="0.04268903285265">
        <ele>312.56999999999999</ele>
        <time>2025-05-14T07:16:03Z</time>
      </trkpt>
      <trkpt lat="41.520998971536756" lon="0.045495964586735">
        <ele>311.12</ele>
        <time>2025-05-14T07:16:12Z</time>
      </trkpt>
      <trkpt lat="41.522851036861539" lon="0.049536963924766">
        <ele>305.36000000000001</ele>
        <time>2025-05-14T07:16:24Z</time>
      </trkpt>
      <trkpt lat="41.524146040901542" lon="0.053505040705204">
        <ele>301.50999999999999</ele>
        <time>2025-05-14T07:16:35Z</time>
      </trkpt>
      <trkpt lat="41.524827992543578" lon="0.056923013180494">
        <ele>299.11000000000001</ele>
        <time>2025-05-14T07:16:44Z</time>
      </trkpt>
      <trkpt lat="41.525128986686468" lon="0.060837026685476">
        <ele>296.22000000000003</ele>
        <time>2025-05-14T07:16:54Z</time>
      </trkpt>
      <trkpt lat="41.524977022781968" lon="0.064364969730377">
        <ele>293.81999999999999</ele>
        <time>2025-05-14T07:17:03Z</time>
      </trkpt>
      <trkpt lat="41.524350978434086" lon="0.06821402348578">
        <ele>291.89999999999998</ele>
        <time>2025-05-14T07:17:13Z</time>
      </trkpt>
      <trkpt lat="41.523341964930296" lon="0.071513978764415">
        <ele>291.42000000000002</ele>
        <time>2025-05-14T07:17:22Z</time>
      </trkpt>
      <trkpt lat="41.521868007257581" lon="0.074943015351892">
        <ele>291.42000000000002</ele>
        <time>2025-05-14T07:17:32Z</time>
      </trkpt>
      <trkpt lat="41.519950982183218" lon="0.077942982316017">
        <ele>291.42000000000002</ele>
        <time>2025-05-14T07:17:42Z</time>
      </trkpt>
      <trkpt lat="41.517709996551275" lon="0.080516980960965">
        <ele>290.94</ele>
        <time>2025-05-14T07:17:52Z</time>
      </trkpt>
      <trkpt lat="41.515187965705991" lon="0.082603991031647">
        <ele>288.05000000000001</ele>
        <time>2025-05-14T07:18:02Z</time>
      </trkpt>
      <trkpt lat="41.512493016198277" lon="0.085041029378772">
        <ele>285.64999999999998</ele>
        <time>2025-05-14T07:18:13Z</time>
      </trkpt>
      <trkpt lat="41.511059040203691" lon="0.087030977010727">
        <ele>283.25</ele>
        <time>2025-05-14T07:18:20Z</time>
      </trkpt>
      <trkpt lat="41.509841987863183" lon="0.089714024215937">
        <ele>285.64999999999998</ele>
        <time>2025-05-14T07:18:28Z</time>
      </trkpt>
      <trkpt lat="41.5083749871701" lon="0.093993991613388">
        <ele>288.05000000000001</ele>
        <time>2025-05-14T07:18:40Z</time>
      </trkpt>
      <trkpt lat="41.507205963134766" lon="0.096237994730473">
        <ele>289.49000000000001</ele>
        <time>2025-05-14T07:18:47Z</time>
      </trkpt>
      <trkpt lat="41.505695963278413" lon="0.099108964204788">
        <ele>291.42000000000002</ele>
        <time>2025-05-14T07:18:56Z</time>
      </trkpt>
      <trkpt lat="41.504901023581624" lon="0.101620014756918">
        <ele>295.25999999999999</ele>
        <time>2025-05-14T07:19:03Z</time>
      </trkpt>
      <trkpt lat="41.504421997815371" lon="0.105079980567098">
        <ele>299.58999999999997</ele>
        <time>2025-05-14T07:19:12Z</time>
      </trkpt>
      <trkpt lat="41.503842975944281" lon="0.108097968623042">
        <ele>303.43000000000001</ele>
        <time>2025-05-14T07:19:20Z</time>
      </trkpt>
      <trkpt lat="41.503042001277208" lon="0.110146002843976">
        <ele>303.43000000000001</ele>
        <time>2025-05-14T07:19:26Z</time>
      </trkpt>
      <trkpt lat="41.501720007508993" lon="0.112266959622502">
        <ele>301.50999999999999</ele>
        <time>2025-05-14T07:19:33Z</time>
      </trkpt>
      <trkpt lat="41.499674990773201" lon="0.114510040730238">
        <ele>298.63</ele>
        <time>2025-05-14T07:19:42Z</time>
      </trkpt>
      <trkpt lat="41.497811023145914" lon="0.116995023563504">
        <ele>295.74000000000001</ele>
        <time>2025-05-14T07:19:51Z</time>
      </trkpt>
      <trkpt lat="41.49657896719873" lon="0.119663989171386">
        <ele>292.38</ele>
        <time>2025-05-14T07:19:59Z</time>
      </trkpt>
      <trkpt lat="41.495803976431489" lon="0.122621962800622">
        <ele>286.13</ele>
        <time>2025-05-14T07:20:07Z</time>
      </trkpt>
      <trkpt lat="41.495494013652205" lon="0.125714968889952">
        <ele>279.88</ele>
        <time>2025-05-14T07:20:15Z</time>
      </trkpt>
      <trkpt lat="41.495612030848861" lon="0.128068020567298">
        <ele>275.56</ele>
        <time>2025-05-14T07:20:21Z</time>
      </trkpt>
      <trkpt lat="41.496064988896251" lon="0.130755007266998">
        <ele>271.23000000000002</ele>
        <time>2025-05-14T07:20:28Z</time>
      </trkpt>
      <trkpt lat="41.496585002169013" lon="0.134859038516879">
        <ele>261.62</ele>
        <time>2025-05-14T07:20:39Z</time>
      </trkpt>
      <trkpt lat="41.496454998850822" lon="0.137998983263969">
        <ele>252.96000000000001</ele>
        <time>2025-05-14T07:20:48Z</time>
      </trkpt>
      <trkpt lat="41.495835995301604" lon="0.140903983265162">
        <ele>246.72</ele>
        <time>2025-05-14T07:20:57Z</time>
      </trkpt>
      <trkpt lat="41.494862018153071" lon="0.143402041867375">
        <ele>242.87</ele>
        <time>2025-05-14T07:21:05Z</time>
      </trkpt>
      <trkpt lat="41.493586041033268" lon="0.145530961453915">
        <ele>242.87</ele>
        <time>2025-05-14T07:21:12Z</time>
      </trkpt>
      <trkpt lat="41.491414960473776" lon="0.148723041638732">
        <ele>245.27000000000001</ele>
        <time>2025-05-14T07:21:23Z</time>
      </trkpt>
      <trkpt lat="41.490137977525592" lon="0.151345990598202">
        <ele>247.19999999999999</ele>
        <time>2025-05-14T07:21:31Z</time>
      </trkpt>
      <trkpt lat="41.489115972071886" lon="0.154589032754302">
        <ele>251.03999999999999</ele>
        <time>2025-05-14T07:21:40Z</time>
      </trkpt>
      <trkpt lat="41.488593025133014" lon="0.158021003007889">
        <ele>254.41</ele>
        <time>2025-05-14T07:21:49Z</time>
      </trkpt>
      <trkpt lat="41.488418010994792" lon="0.161941973492503">
        <ele>258.25</ele>
        <time>2025-05-14T07:21:59Z</time>
      </trkpt>
      <trkpt lat="41.487973015755415" lon="0.167379984632134">
        <ele>263.54000000000002</ele>
        <time>2025-05-14T07:22:13Z</time>
      </trkpt>
      <trkpt lat="41.48712401278317" lon="0.171919036656618">
        <ele>267.38</ele>
        <time>2025-05-14T07:22:25Z</time>
      </trkpt>
      <trkpt lat="41.485824985429645" lon="0.176292965188622">
        <ele>270.26999999999998</ele>
        <time>2025-05-14T07:22:37Z</time>
      </trkpt>
      <trkpt lat="41.484103007242084" lon="0.180393978953362">
        <ele>270.75</ele>
        <time>2025-05-14T07:22:49Z</time>
      </trkpt>
      <trkpt lat="41.482553025707603" lon="0.183240976184607">
        <ele>270.75</ele>
        <time>2025-05-14T07:22:58Z</time>
      </trkpt>
      <trkpt lat="41.480816965922713" lon="0.186385028064251">
        <ele>266.89999999999998</ele>
        <time>2025-05-14T07:23:08Z</time>
      </trkpt>
      <trkpt lat="41.479259021580219" lon="0.190099971368909">
        <ele>264.01999999999998</ele>
        <time>2025-05-14T07:23:19Z</time>
      </trkpt>
      <trkpt lat="41.478256965056062" lon="0.193736962974072">
        <ele>261.13999999999999</ele>
        <time>2025-05-14T07:23:29Z</time>
      </trkpt>
      <trkpt lat="41.47758599370718" lon="0.19830702804029">
        <ele>258.73000000000002</ele>
        <time>2025-05-14T07:23:41Z</time>
      </trkpt>
      <trkpt lat="41.476687034592032" lon="0.203595003113151">
        <ele>257.76999999999998</ele>
        <time>2025-05-14T07:23:55Z</time>
      </trkpt>
      <trkpt lat="41.475452966988087" lon="0.207946971058846">
        <ele>261.13999999999999</ele>
        <time>2025-05-14T07:24:07Z</time>
      </trkpt>
      <trkpt lat="41.474486030638218" lon="0.210505966097116">
        <ele>264.5</ele>
        <time>2025-05-14T07:24:15Z</time>
      </trkpt>
      <trkpt lat="41.473244000226259" lon="0.213442984968424">
        <ele>267.86000000000001</ele>
        <time>2025-05-14T07:24:24Z</time>
      </trkpt>
      <trkpt lat="41.471509030088782" lon="0.217496976256371">
        <ele>271.70999999999998</ele>
        <time>2025-05-14T07:24:36Z</time>
      </trkpt>
      <trkpt lat="41.470283009111881" lon="0.220984015613794">
        <ele>276.04000000000002</ele>
        <time>2025-05-14T07:24:46Z</time>
      </trkpt>
      <trkpt lat="41.469166958704591" lon="0.224935999140143">
        <ele>281.31999999999999</ele>
        <time>2025-05-14T07:24:57Z</time>
      </trkpt>
      <trkpt lat="41.46832600235939" lon="0.228968029841781">
        <ele>286.13</ele>
        <time>2025-05-14T07:25:08Z</time>
      </trkpt>
      <trkpt lat="41.467685038223863" lon="0.233925003558397">
        <ele>294.30000000000001</ele>
        <time>2025-05-14T07:25:21Z</time>
      </trkpt>
      <trkpt lat="41.467384966090322" lon="0.239328984171152">
        <ele>303.43000000000001</ele>
        <time>2025-05-14T07:25:35Z</time>
      </trkpt>
      <trkpt lat="41.467532990500331" lon="0.244363993406296">
        <ele>312.08999999999997</ele>
        <time>2025-05-14T07:25:48Z</time>
      </trkpt>
      <trkpt lat="41.468129027634859" lon="0.249725980684161">
        <ele>322.18000000000001</ele>
        <time>2025-05-14T07:26:02Z</time>
      </trkpt>
      <trkpt lat="41.468778038397431" lon="0.255075981840491">
        <ele>331.31</ele>
        <time>2025-05-14T07:26:16Z</time>
      </trkpt>
      <trkpt lat="41.468822965398431" lon="0.258952025324106">
        <ele>338.04000000000002</ele>
        <time>2025-05-14T07:26:26Z</time>
      </trkpt>
      <trkpt lat="41.468451982364058" lon="0.262392964214087">
        <ele>341.88999999999999</ele>
        <time>2025-05-14T07:26:35Z</time>
      </trkpt>
      <trkpt lat="41.467605996876955" lon="0.266108997166157">
        <ele>343.81</ele>
        <time>2025-05-14T07:26:45Z</time>
      </trkpt>
      <trkpt lat="41.466305963695049" lon="0.269571980461478">
        <ele>343.81</ele>
        <time>2025-05-14T07:26:55Z</time>
      </trkpt>
      <trkpt lat="41.464983969926834" lon="0.272578988224268">
        <ele>342.37</ele>
        <time>2025-05-14T07:27:04Z</time>
      </trkpt>
      <trkpt lat="41.464316016063094" lon="0.275128008797765">
        <ele>340.44</ele>
        <time>2025-05-14T07:27:11Z</time>
      </trkpt>
      <trkpt lat="41.464041005820036" lon="0.278214979916811">
        <ele>337.07999999999998</ele>
        <time>2025-05-14T07:27:19Z</time>
      </trkpt>
      <trkpt lat="41.464374018833041" lon="0.281293988227844">
        <ele>331.79000000000002</ele>
        <time>2025-05-14T07:27:27Z</time>
      </trkpt>
      <trkpt lat="41.465056976303458" lon="0.284707015380263">
        <ele>326.01999999999998</ele>
        <time>2025-05-14T07:27:36Z</time>
      </trkpt>
      <trkpt lat="41.465235007926822" lon="0.287438007071614">
        <ele>318.81</ele>
        <time>2025-05-14T07:27:43Z</time>
      </trkpt>
      <trkpt lat="41.465354030951858" lon="0.291343973949552">
        <ele>306.80000000000001</ele>
        <time>2025-05-14T07:27:53Z</time>
      </trkpt>
      <trkpt lat="41.465949984267354" lon="0.294371014460921">
        <ele>296.22000000000003</ele>
        <time>2025-05-14T07:28:01Z</time>
      </trkpt>
      <trkpt lat="41.466733021661639" lon="0.298135997727513">
        <ele>281.80000000000001</ele>
        <time>2025-05-14T07:28:11Z</time>
      </trkpt>
      <trkpt lat="41.467556962743402" lon="0.301882037892938">
        <ele>269.79000000000002</ele>
        <time>2025-05-14T07:28:21Z</time>
      </trkpt>
      <trkpt lat="41.468622973188758" lon="0.304213967174292">
        <ele>260.17000000000002</ele>
        <time>2025-05-14T07:28:28Z</time>
      </trkpt>
      <trkpt lat="41.470231963321567" lon="0.306496024131775">
        <ele>248.16</ele>
        <time>2025-05-14T07:28:36Z</time>
      </trkpt>
      <trkpt lat="41.472190981730819" lon="0.309393983334303">
        <ele>233.74000000000001</ele>
        <time>2025-05-14T07:28:46Z</time>
      </trkpt>
      <trkpt lat="41.474017985165119" lon="0.311936968937516">
        <ele>223.63999999999999</ele>
        <time>2025-05-14T07:28:55Z</time>
      </trkpt>
      <trkpt lat="41.476026037707925" lon="0.313559034839273">
        <ele>213.55000000000001</ele>
        <time>2025-05-14T07:29:03Z</time>
      </trkpt>
      <trkpt lat="41.478436002507806" lon="0.315029975026846">
        <ele>201.05000000000001</ele>
        <time>2025-05-14T07:29:12Z</time>
      </trkpt>
      <trkpt lat="41.480311034247279" lon="0.316895032301545">
        <ele>190.47999999999999</ele>
        <time>2025-05-14T07:29:20Z</time>
      </trkpt>
      <trkpt lat="41.481626993045211" lon="0.319001991301775">
        <ele>181.34999999999999</ele>
        <time>2025-05-14T07:29:27Z</time>
      </trkpt>
      <trkpt lat="41.48252503015101" lon="0.321452021598816">
        <ele>171.72999999999999</ele>
        <time>2025-05-14T07:29:34Z</time>
      </trkpt>
      <trkpt lat="41.483692964538932" lon="0.325032016262412">
        <ele>158.75</ele>
        <time>2025-05-14T07:29:44Z</time>
      </trkpt>
      <trkpt lat="41.484931977465749" lon="0.327207958325744">
        <ele>149.62</ele>
        <time>2025-05-14T07:29:51Z</time>
      </trkpt>
      <trkpt lat="41.486919997259974" lon="0.330088986083865">
        <ele>136.16</ele>
        <time>2025-05-14T07:30:01Z</time>
      </trkpt>
      <trkpt lat="41.488132020458579" lon="0.332773961126804">
        <ele>125.59</ele>
        <time>2025-05-14T07:30:09Z</time>
      </trkpt>
      <trkpt lat="41.489643026143312" lon="0.337438993155956">
        <ele>109.25</ele>
        <time>2025-05-14T07:30:22Z</time>
      </trkpt>
      <trkpt lat="41.490574004128575" lon="0.341979973018169">
        <ele>100.11</ele>
        <time>2025-05-14T07:30:34Z</time>
      </trkpt>
      <trkpt lat="41.490898970514536" lon="0.345884012058377">
        <ele>98.670000000000002</ele>
        <time>2025-05-14T07:30:44Z</time>
      </trkpt>
      <trkpt lat="41.490894025191665" lon="0.349810011684895">
        <ele>102.04000000000001</ele>
        <time>2025-05-14T07:30:54Z</time>
      </trkpt>
      <trkpt lat="41.490722028538585" lon="0.354917021468282">
        <ele>107.81</ele>
        <time>2025-05-14T07:31:07Z</time>
      </trkpt>
      <trkpt lat="41.491072978824377" lon="0.358010027557611">
        <ele>113.09</ele>
        <time>2025-05-14T07:31:15Z</time>
      </trkpt>
      <trkpt lat="41.491956012323499" lon="0.361360022798181">
        <ele>119.81999999999999</ele>
        <time>2025-05-14T07:31:24Z</time>
      </trkpt>
      <trkpt lat="41.492835022509098" lon="0.365118971094489">
        <ele>127.51000000000001</ele>
        <time>2025-05-14T07:31:34Z</time>
      </trkpt>
      <trkpt lat="41.493023028597236" lon="0.367854991927743">
        <ele>130.88</ele>
        <time>2025-05-14T07:31:41Z</time>
      </trkpt>
      <trkpt lat="41.493189996108413" lon="0.372183993458748">
        <ele>132.31999999999999</ele>
        <time>2025-05-14T07:31:52Z</time>
      </trkpt>
      <trkpt lat="41.493776980787516" lon="0.375640019774437">
        <ele>133.75999999999999</ele>
        <time>2025-05-14T07:32:01Z</time>
      </trkpt>
      <trkpt lat="41.495106015354395" lon="0.380452992394567">
        <ele>136.16</ele>
        <time>2025-05-14T07:32:14Z</time>
      </trkpt>
      <trkpt lat="41.495643965899944" lon="0.383915975689888">
        <ele>137.61000000000001</ele>
        <time>2025-05-14T07:32:23Z</time>
      </trkpt>
      <trkpt lat="41.495801964774728" lon="0.388236008584499">
        <ele>140.49000000000001</ele>
        <time>2025-05-14T07:32:34Z</time>
      </trkpt>
      <trkpt lat="41.496122991666198" lon="0.39214700460434">
        <ele>141.93000000000001</ele>
        <time>2025-05-14T07:32:44Z</time>
      </trkpt>
      <trkpt lat="41.496928995475173" lon="0.395551985129714">
        <ele>143.37</ele>
        <time>2025-05-14T07:32:53Z</time>
      </trkpt>
      <trkpt lat="41.498225005343556" lon="0.398656977340579">
        <ele>145.30000000000001</ele>
        <time>2025-05-14T07:33:02Z</time>
      </trkpt>
      <trkpt lat="41.499941032379866" lon="0.401352010667324">
        <ele>147.22</ele>
        <time>2025-05-14T07:33:11Z</time>
      </trkpt>
      <trkpt lat="41.502127032727003" lon="0.404043020680547">
        <ele>151.53999999999999</ele>
        <time>2025-05-14T07:33:21Z</time>
      </trkpt>
      <trkpt lat="41.503620017319918" lon="0.406097006052732">
        <ele>153.94999999999999</ele>
        <time>2025-05-14T07:33:29Z</time>
      </trkpt>
      <trkpt lat="41.505283992737532" lon="0.409119017422199">
        <ele>155.87</ele>
        <time>2025-05-14T07:33:40Z</time>
      </trkpt>
      <trkpt lat="41.50643901899457" lon="0.412111021578312">
        <ele>157.78999999999999</ele>
        <time>2025-05-14T07:33:50Z</time>
      </trkpt>
      <trkpt lat="41.507314005866647" lon="0.415422962978482">
        <ele>158.75</ele>
        <time>2025-05-14T07:33:59Z</time>
      </trkpt>
      <trkpt lat="41.507867965847254" lon="0.419277967885137">
        <ele>157.31</ele>
        <time>2025-05-14T07:34:09Z</time>
      </trkpt>
      <trkpt lat="41.508358977735043" lon="0.423553995788097">
        <ele>154.43000000000001</ele>
        <time>2025-05-14T07:34:20Z</time>
      </trkpt>
      <trkpt lat="41.509072026237845" lon="0.426572989672422">
        <ele>153.47</ele>
        <time>2025-05-14T07:34:28Z</time>
      </trkpt>
      <trkpt lat="41.510228980332613" lon="0.429765991866589">
        <ele>152.99000000000001</ele>
        <time>2025-05-14T07:34:37Z</time>
      </trkpt>
      <trkpt lat="41.511415019631386" lon="0.433373982086778">
        <ele>152.99000000000001</ele>
        <time>2025-05-14T07:34:47Z</time>
      </trkpt>
      <trkpt lat="41.512098982930183" lon="0.437209038063884">
        <ele>154.91</ele>
        <time>2025-05-14T07:34:57Z</time>
      </trkpt>
      <trkpt lat="41.512913033366203" lon="0.440997993573546">
        <ele>155.87</ele>
        <time>2025-05-14T07:35:07Z</time>
      </trkpt>
      <trkpt lat="41.514136958867311" lon="0.444157971069217">
        <ele>152.50999999999999</ele>
        <time>2025-05-14T07:35:16Z</time>
      </trkpt>
      <trkpt lat="41.515720970928669" lon="0.447012009099126">
        <ele>144.81999999999999</ele>
        <time>2025-05-14T07:35:25Z</time>
      </trkpt>
      <trkpt lat="41.517749978229403" lon="0.45086701400578">
        <ele>137.61000000000001</ele>
        <time>2025-05-14T07:35:37Z</time>
      </trkpt>
      <trkpt lat="41.518770977854729" lon="0.454115001484752">
        <ele>139.53</ele>
        <time>2025-05-14T07:35:46Z</time>
      </trkpt>
      <trkpt lat="41.519832964986563" lon="0.458615999668837">
        <ele>147.22</ele>
        <time>2025-05-14T07:35:58Z</time>
      </trkpt>
      <trkpt lat="41.520988997071981" lon="0.461807996034622">
        <ele>149.62</ele>
        <time>2025-05-14T07:36:07Z</time>
      </trkpt>
      <trkpt lat="41.522377962246537" lon="0.464379983022809">
        <ele>152.03</ele>
        <time>2025-05-14T07:36:15Z</time>
      </trkpt>
      <trkpt lat="41.524285012856126" lon="0.466743009164929">
        <ele>153.47</ele>
        <time>2025-05-14T07:36:24Z</time>
      </trkpt>
      <trkpt lat="41.52553902938962" lon="0.467892000451684">
        <ele>153.47</ele>
        <time>2025-05-14T07:36:31Z</time>
      </trkpt>
      <trkpt lat="41.527557978406549" lon="0.469433013349772">
        <ele>150.58000000000001</ele>
        <time>2025-05-14T07:36:41Z</time>
      </trkpt>
      <trkpt lat="41.530397012829781" lon="0.471293041482568">
        <ele>147.22</ele>
        <time>2025-05-14T07:36:53Z</time>
      </trkpt>
      <trkpt lat="41.532070962712169" lon="0.472394004464149">
        <ele>145.30000000000001</ele>
        <time>2025-05-14T07:37:01Z</time>
      </trkpt>
      <trkpt lat="41.53428596444428" lon="0.474102990701795">
        <ele>140.97</ele>
        <time>2025-05-14T07:37:12Z</time>
      </trkpt>
      <trkpt lat="41.535307969897985" lon="0.475098006427288">
        <ele>140.49000000000001</ele>
        <time>2025-05-14T07:37:18Z</time>
      </trkpt>
      <trkpt lat="41.535797975957394" lon="0.475826980546117">
        <ele>140.49000000000001</ele>
        <time>2025-05-14T07:37:22Z</time>
      </trkpt>
      <trkpt lat="41.535886991769075" lon="0.475996965542436">
        <ele>140.00999999999999</ele>
        <time>2025-05-14T07:37:23Z</time>
      </trkpt>
      <trkpt lat="41.535941977053881" lon="0.476172985509038">
        <ele>140.49000000000001</ele>
        <time>2025-05-14T07:37:24Z</time>
      </trkpt>
      <trkpt lat="41.535938959568739" lon="0.47632603906095">
        <ele>140.49000000000001</ele>
        <time>2025-05-14T07:37:25Z</time>
      </trkpt>
      <trkpt lat="41.535904007032514" lon="0.476484037935734">
        <ele>140.97</ele>
        <time>2025-05-14T07:37:26Z</time>
      </trkpt>
      <trkpt lat="41.535865031182766" lon="0.476634996011853">
        <ele>141.44999999999999</ele>
        <time>2025-05-14T07:37:27Z</time>
      </trkpt>
      <trkpt lat="41.535793030634522" lon="0.47675896435976">
        <ele>141.93000000000001</ele>
        <time>2025-05-14T07:37:28Z</time>
      </trkpt>
      <trkpt lat="41.53568297624588" lon="0.4768449626863">
        <ele>142.41</ele>
        <time>2025-05-14T07:37:29Z</time>
      </trkpt>
      <trkpt lat="41.535562025383115" lon="0.476902965456247">
        <ele>142.41</ele>
        <time>2025-05-14T07:37:30Z</time>
      </trkpt>
      <trkpt lat="41.535415006801486" lon="0.476915035396814">
        <ele>142.88999999999999</ele>
        <time>2025-05-14T07:37:31Z</time>
      </trkpt>
      <trkpt lat="41.53527301736176" lon="0.476850997656584">
        <ele>143.37</ele>
        <time>2025-05-14T07:37:32Z</time>
      </trkpt>
      <trkpt lat="41.535145025700331" lon="0.476741027086973">
        <ele>143.37</ele>
        <time>2025-05-14T07:37:33Z</time>
      </trkpt>
      <trkpt lat="41.535017034038901" lon="0.476603982970119">
        <ele>143.84999999999999</ele>
        <time>2025-05-14T07:37:34Z</time>
      </trkpt>
      <trkpt lat="41.534894993528724" lon="0.476446989923716">
        <ele>143.84999999999999</ele>
        <time>2025-05-14T07:37:35Z</time>
      </trkpt>
      <trkpt lat="41.534793991595507" lon="0.476264012977481">
        <ele>144.34</ele>
        <time>2025-05-14T07:37:36Z</time>
      </trkpt>
      <trkpt lat="41.534687038511038" lon="0.476055974140763">
        <ele>144.81999999999999</ele>
        <time>2025-05-14T07:37:37Z</time>
      </trkpt>
      <trkpt lat="41.534621994942427" lon="0.475824968889356">
        <ele>145.30000000000001</ele>
        <time>2025-05-14T07:37:38Z</time>
      </trkpt>
      <trkpt lat="41.534556029364467" lon="0.475590024143457">
        <ele>146.25999999999999</ele>
        <time>2025-05-14T07:37:39Z</time>
      </trkpt>
      <trkpt lat="41.534532979130745" lon="0.475328005850315">
        <ele>146.74000000000001</ele>
        <time>2025-05-14T07:37:40Z</time>
      </trkpt>
      <trkpt lat="41.534529039636254" lon="0.475070010870695">
        <ele>147.22</ele>
        <time>2025-05-14T07:37:41Z</time>
      </trkpt>
      <trkpt lat="41.534566003829241" lon="0.474828025326133">
        <ele>148.18000000000001</ele>
        <time>2025-05-14T07:37:42Z</time>
      </trkpt>
      <trkpt lat="41.534602968022227" lon="0.474582016468048">
        <ele>148.66</ele>
        <time>2025-05-14T07:37:43Z</time>
      </trkpt>
      <trkpt lat="41.534644039347768" lon="0.474336007609963">
        <ele>149.13999999999999</ele>
        <time>2025-05-14T07:37:44Z</time>
      </trkpt>
      <trkpt lat="41.534699024632573" lon="0.474074995145202">
        <ele>149.13999999999999</ele>
        <time>2025-05-14T07:37:45Z</time>
      </trkpt>
      <trkpt lat="41.53479902073741" lon="0.473857987672091">
        <ele>149.62</ele>
        <time>2025-05-14T07:37:46Z</time>
      </trkpt>
      <trkpt lat="41.535869976505637" lon="0.4719009809196">
        <ele>147.22</ele>
        <time>2025-05-14T07:37:55Z</time>
      </trkpt>
      <trkpt lat="41.537272017449141" lon="0.470490977168083">
        <ele>149.62</ele>
        <time>2025-05-14T07:38:03Z</time>
      </trkpt>
      <trkpt lat="41.538685038685799" lon="0.469428990036249">
        <ele>151.53999999999999</ele>
        <time>2025-05-14T07:38:11Z</time>
      </trkpt>
      <trkpt lat="41.538941022008657" lon="0.46917300671339">
        <ele>151.53999999999999</ele>
        <time>2025-05-14T07:38:13Z</time>
      </trkpt>
      <trkpt lat="41.539059961214662" lon="0.469053983688354">
        <ele>151.06</ele>
        <time>2025-05-14T07:38:14Z</time>
      </trkpt>
      <trkpt lat="41.539177978411317" lon="0.468935966491699">
        <ele>151.06</ele>
        <time>2025-05-14T07:38:15Z</time>
      </trkpt>
      <trkpt lat="41.539237992838025" lon="0.468798000365496">
        <ele>151.53999999999999</ele>
        <time>2025-05-14T07:38:16Z</time>
      </trkpt>
      <trkpt lat="41.539303958415985" lon="0.468646958470345">
        <ele>152.03</ele>
        <time>2025-05-14T07:38:17Z</time>
      </trkpt>
      <trkpt lat="41.539415018633008" lon="0.468389969319105">
        <ele>152.99000000000001</ele>
        <time>2025-05-14T07:38:19Z</time>
      </trkpt>
      <trkpt lat="41.539457011967897" lon="0.46829198487103">
        <ele>153.47</ele>
        <time>2025-05-14T07:38:20Z</time>
      </trkpt>
      <trkpt lat="41.539478972554207" lon="0.468204980716109">
        <ele>153.94999999999999</ele>
        <time>2025-05-14T07:38:21Z</time>
      </trkpt>
      <trkpt lat="41.53959103859961" lon="0.467727966606617">
        <ele>156.34999999999999</ele>
        <time>2025-05-14T07:38:30Z</time>
      </trkpt>
      <trkpt lat="41.539634959772229" lon="0.467656971886754">
        <ele>156.83000000000001</ele>
        <time>2025-05-14T07:38:31Z</time>
      </trkpt>
      <trkpt lat="41.539692962542176" lon="0.467563010752201">
        <ele>156.83000000000001</ele>
        <time>2025-05-14T07:38:32Z</time>
      </trkpt>
      <trkpt lat="41.539750965312123" lon="0.467551024630666">
        <ele>157.31</ele>
        <time>2025-05-14T07:38:33Z</time>
      </trkpt>
      <trkpt lat="41.539837969467044" lon="0.467534009367228">
        <ele>157.31</ele>
        <time>2025-05-14T07:38:34Z</time>
      </trkpt>
      <trkpt lat="41.539953975006938" lon="0.467542978003621">
        <ele>157.31</ele>
        <time>2025-05-14T07:38:35Z</time>
      </trkpt>
      <trkpt lat="41.540080960839987" lon="0.467627970501781">
        <ele>157.31</ele>
        <time>2025-05-14T07:38:36Z</time>
      </trkpt>
      <trkpt lat="41.540185986086726" lon="0.467774989083409">
        <ele>157.31</ele>
        <time>2025-05-14T07:38:37Z</time>
      </trkpt>
      <trkpt lat="41.540267039090395" lon="0.467938017100096">
        <ele>156.83000000000001</ele>
        <time>2025-05-14T07:38:38Z</time>
      </trkpt>
      <trkpt lat="41.541000958532095" lon="0.469418009743094">
        <ele>150.58000000000001</ele>
        <time>2025-05-14T07:38:45Z</time>
      </trkpt>
      <trkpt lat="41.542548006400466" lon="0.472490983083844">
        <ele>143.84999999999999</ele>
        <time>2025-05-14T07:38:57Z</time>
      </trkpt>
      <trkpt lat="41.543922973796725" lon="0.475386008620262">
        <ele>139.53</ele>
        <time>2025-05-14T07:39:07Z</time>
      </trkpt>
      <trkpt lat="41.54507297091186" lon="0.478082969784737">
        <ele>137.13</ele>
        <time>2025-05-14T07:39:15Z</time>
      </trkpt>
      <trkpt lat="41.546761002391577" lon="0.483109010383487">
        <ele>136.63999999999999</ele>
        <time>2025-05-14T07:39:29Z</time>
      </trkpt>
      <trkpt lat="41.548367980867624" lon="0.487316977232695">
        <ele>140.97</ele>
        <time>2025-05-14T07:39:41Z</time>
      </trkpt>
      <trkpt lat="41.549610011279583" lon="0.48898103646934">
        <ele>143.37</ele>
        <time>2025-05-14T07:39:47Z</time>
      </trkpt>
      <trkpt lat="41.551134008914232" lon="0.490205967798829">
        <ele>142.88999999999999</ele>
        <time>2025-05-14T07:39:53Z</time>
      </trkpt>
      <trkpt lat="41.553136026486754" lon="0.490963021293283">
        <ele>140.00999999999999</ele>
        <time>2025-05-14T07:40:00Z</time>
      </trkpt>
      <trkpt lat="41.556236995384097" lon="0.49216004088521">
        <ele>133.28</ele>
        <time>2025-05-14T07:40:11Z</time>
      </trkpt>
      <trkpt lat="41.558913001790643" lon="0.493840025737882">
        <ele>131.84</ele>
        <time>2025-05-14T07:40:21Z</time>
      </trkpt>
      <trkpt lat="41.561128003522754" lon="0.495821004733443">
        <ele>131.36000000000001</ele>
        <time>2025-05-14T07:40:30Z</time>
      </trkpt>
      <trkpt lat="41.563348034396768" lon="0.498417969793081">
        <ele>131.84</ele>
        <time>2025-05-14T07:40:40Z</time>
      </trkpt>
      <trkpt lat="41.565667977556586" lon="0.50090798176825">
        <ele>135.19999999999999</ele>
        <time>2025-05-14T07:40:50Z</time>
      </trkpt>
      <trkpt lat="41.567978030070662" lon="0.502714030444622">
        <ele>137.13</ele>
        <time>2025-05-14T07:40:59Z</time>
      </trkpt>
      <trkpt lat="41.57098101451993" lon="0.504398038610816">
        <ele>137.61000000000001</ele>
        <time>2025-05-14T07:41:10Z</time>
      </trkpt>
      <trkpt lat="41.57338703982532" lon="0.505885994061828">
        <ele>139.53</ele>
        <time>2025-05-14T07:41:19Z</time>
      </trkpt>
      <trkpt lat="41.576137980446219" lon="0.508213983848691">
        <ele>147.69999999999999</ele>
        <time>2025-05-14T07:41:30Z</time>
      </trkpt>
      <trkpt lat="41.579236015677452" lon="0.510557983070612">
        <ele>156.34999999999999</ele>
        <time>2025-05-14T07:41:42Z</time>
      </trkpt>
      <trkpt lat="41.582213016226888" lon="0.512354979291558">
        <ele>164.52000000000001</ele>
        <time>2025-05-14T07:41:53Z</time>
      </trkpt>
      <trkpt lat="41.585064036771655" lon="0.514473002403975">
        <ele>169.33000000000001</ele>
        <time>2025-05-14T07:42:04Z</time>
      </trkpt>
      <trkpt lat="41.587004028260708" lon="0.5163349583745">
        <ele>167.88999999999999</ele>
        <time>2025-05-14T07:42:13Z</time>
      </trkpt>
      <trkpt lat="41.590607995167375" lon="0.519804982468486">
        <ele>161.63999999999999</ele>
        <time>2025-05-14T07:42:27Z</time>
      </trkpt>
      <trkpt lat="41.593403024598956" lon="0.522021995857358">
        <ele>162.59999999999999</ele>
        <time>2025-05-14T07:42:38Z</time>
      </trkpt>
      <trkpt lat="41.595785999670625" lon="0.523602990433574">
        <ele>166.44999999999999</ele>
        <time>2025-05-14T07:42:47Z</time>
      </trkpt>
      <trkpt lat="41.599043039605021" lon="0.525524038821459">
        <ele>169.33000000000001</ele>
        <time>2025-05-14T07:42:59Z</time>
      </trkpt>
      <trkpt lat="41.601045979186893" lon="0.527169993147254">
        <ele>171.25</ele>
        <time>2025-05-14T07:43:07Z</time>
      </trkpt>
      <trkpt lat="41.602762006223202" lon="0.529348030686378">
        <ele>172.21000000000001</ele>
        <time>2025-05-14T07:43:15Z</time>
      </trkpt>
      <trkpt lat="41.604081988334656" lon="0.531980032101274">
        <ele>170.77000000000001</ele>
        <time>2025-05-14T07:43:23Z</time>
      </trkpt>
      <trkpt lat="41.605791980400681" lon="0.536115998402238">
        <ele>168.37</ele>
        <time>2025-05-14T07:43:35Z</time>
      </trkpt>
      <trkpt lat="41.607500966638327" lon="0.539330039173365">
        <ele>171.25</ele>
        <time>2025-05-14T07:43:45Z</time>
      </trkpt>
      <trkpt lat="41.609589988365769" lon="0.542116016149521">
        <ele>172.69</ele>
        <time>2025-05-14T07:43:55Z</time>
      </trkpt>
      <trkpt lat="41.611582031473517" lon="0.543793989345431">
        <ele>175.09999999999999</ele>
        <time>2025-05-14T07:44:03Z</time>
      </trkpt>
      <trkpt lat="41.614419976249337" lon="0.545755019411445">
        <ele>178.94</ele>
        <time>2025-05-14T07:44:14Z</time>
      </trkpt>
      <trkpt lat="41.616513021290302" lon="0.547863990068436">
        <ele>181.83000000000001</ele>
        <time>2025-05-14T07:44:23Z</time>
      </trkpt>
      <trkpt lat="41.618706984445453" lon="0.549756959080696">
        <ele>184.71000000000001</ele>
        <time>2025-05-14T07:44:32Z</time>
      </trkpt>
      <trkpt lat="41.620586961507797" lon="0.550776030868292">
        <ele>190</ele>
        <time>2025-05-14T07:44:39Z</time>
      </trkpt>
      <trkpt lat="41.622883016243577" lon="0.551322028040886">
        <ele>196.72999999999999</ele>
        <time>2025-05-14T07:44:47Z</time>
      </trkpt>
      <trkpt lat="41.625504959374666" lon="0.55146099999547">
        <ele>202.49000000000001</ele>
        <time>2025-05-14T07:44:56Z</time>
      </trkpt>
      <trkpt lat="41.628096979111433" lon="0.551992999389768">
        <ele>204.41999999999999</ele>
        <time>2025-05-14T07:45:05Z</time>
      </trkpt>
      <trkpt lat="41.631261985749006" lon="0.552708981558681">
        <ele>204.41999999999999</ele>
        <time>2025-05-14T07:45:16Z</time>
      </trkpt>
      <trkpt lat="41.634689010679722" lon="0.55341700091958">
        <ele>205.86000000000001</ele>
        <time>2025-05-14T07:45:28Z</time>
      </trkpt>
      <trkpt lat="41.637172987684608" lon="0.554544031620026">
        <ele>210.19</ele>
        <time>2025-05-14T07:45:37Z</time>
      </trkpt>
      <trkpt lat="41.639208029955626" lon="0.556065011769533">
        <ele>216.91</ele>
        <time>2025-05-14T07:45:45Z</time>
      </trkpt>
      <trkpt lat="41.640798998996615" lon="0.557744996622205">
        <ele>221.24000000000001</ele>
        <time>2025-05-14T07:45:52Z</time>
      </trkpt>
      <trkpt lat="41.642414024099708" lon="0.559995034709573">
        <ele>227.49000000000001</ele>
        <time>2025-05-14T07:46:00Z</time>
      </trkpt>
      <trkpt lat="41.644689962267876" lon="0.563522977754474">
        <ele>235.66</ele>
        <time>2025-05-14T07:46:12Z</time>
      </trkpt>
      <trkpt lat="41.646496010944247" lon="0.565480990335345">
        <ele>234.69999999999999</ele>
        <time>2025-05-14T07:46:20Z</time>
      </trkpt>
      <trkpt lat="41.648457963019609" lon="0.56781199760735">
        <ele>234.22</ele>
        <time>2025-05-14T07:46:29Z</time>
      </trkpt>
      <trkpt lat="41.650179019197822" lon="0.57097096927464">
        <ele>228.93000000000001</ele>
        <time>2025-05-14T07:46:39Z</time>
      </trkpt>
      <trkpt lat="41.652031000703573" lon="0.573945036157966">
        <ele>222.19999999999999</ele>
        <time>2025-05-14T07:46:49Z</time>
      </trkpt>
      <trkpt lat="41.654554959386587" lon="0.577171985059977">
        <ele>219.31999999999999</ele>
        <time>2025-05-14T07:47:01Z</time>
      </trkpt>
      <trkpt lat="41.656245002523065" lon="0.579867018386722">
        <ele>217.88</ele>
        <time>2025-05-14T07:47:10Z</time>
      </trkpt>
      <trkpt lat="41.65763103403151" lon="0.582823986187577">
        <ele>215.47</ele>
        <time>2025-05-14T07:47:19Z</time>
      </trkpt>
      <trkpt lat="41.658944981172681" lon="0.586284035816789">
        <ele>213.06999999999999</ele>
        <time>2025-05-14T07:47:29Z</time>
      </trkpt>
      <trkpt lat="41.659901021048427" lon="0.589550966396928">
        <ele>211.63</ele>
        <time>2025-05-14T07:47:38Z</time>
      </trkpt>
      <trkpt lat="41.660791011527181" lon="0.59372398070991">
        <ele>209.22</ele>
        <time>2025-05-14T07:47:49Z</time>
      </trkpt>
      <trkpt lat="41.661373972892761" lon="0.598025992512703">
        <ele>206.81999999999999</ele>
        <time>2025-05-14T07:48:00Z</time>
      </trkpt>
      <trkpt lat="41.662004040554166" lon="0.603501973673701">
        <ele>206.34</ele>
        <time>2025-05-14T07:48:14Z</time>
      </trkpt>
      <trkpt lat="41.662774002179503" lon="0.608535977080464">
        <ele>209.22</ele>
        <time>2025-05-14T07:48:27Z</time>
      </trkpt>
      <trkpt lat="41.66353901848197" lon="0.614394005388021">
        <ele>205.38</ele>
        <time>2025-05-14T07:48:42Z</time>
      </trkpt>
      <trkpt lat="41.663988959044218" lon="0.619898987933993">
        <ele>196.72999999999999</ele>
        <time>2025-05-14T07:48:56Z</time>
      </trkpt>
      <trkpt lat="41.664178976789117" lon="0.625823987647891">
        <ele>197.69</ele>
        <time>2025-05-14T07:49:11Z</time>
      </trkpt>
      <trkpt lat="41.6640779748559" lon="0.631374986842275">
        <ele>193.36000000000001</ele>
        <time>2025-05-14T07:49:25Z</time>
      </trkpt>
      <trkpt lat="41.663717972114682" lon="0.637299986556172">
        <ele>185.19</ele>
        <time>2025-05-14T07:49:40Z</time>
      </trkpt>
      <trkpt lat="41.663070973008871" lon="0.643177041783929">
        <ele>176.53999999999999</ele>
        <time>2025-05-14T07:49:55Z</time>
      </trkpt>
      <trkpt lat="41.66233797557652" lon="0.647421972826123">
        <ele>172.21000000000001</ele>
        <time>2025-05-14T07:50:06Z</time>
      </trkpt>
      <trkpt lat="41.661524008959532" lon="0.649882983416319">
        <ele>171.25</ele>
        <time>2025-05-14T07:50:13Z</time>
      </trkpt>
      <trkpt lat="41.660243002697825" lon="0.652397973462939">
        <ele>169.81</ele>
        <time>2025-05-14T07:50:22Z</time>
      </trkpt>
      <trkpt lat="41.658670976758003" lon="0.654582967981696">
        <ele>169.33000000000001</ele>
        <time>2025-05-14T07:50:31Z</time>
      </trkpt>
      <trkpt lat="41.657627010717988" lon="0.656062960624695">
        <ele>169.33000000000001</ele>
        <time>2025-05-14T07:50:38Z</time>
      </trkpt>
      <trkpt lat="41.657359963282943" lon="0.656406031921506">
        <ele>169.81</ele>
        <time>2025-05-14T07:50:40Z</time>
      </trkpt>
      <trkpt lat="41.657213028520346" lon="0.656517008319497">
        <ele>169.81</ele>
        <time>2025-05-14T07:50:41Z</time>
      </trkpt>
      <trkpt lat="41.657067015767097" lon="0.656625973060727">
        <ele>169.81</ele>
        <time>2025-05-14T07:50:42Z</time>
      </trkpt>
      <trkpt lat="41.65690298192203" lon="0.656660003587604">
        <ele>169.81</ele>
        <time>2025-05-14T07:50:43Z</time>
      </trkpt>
      <trkpt lat="41.656737020239234" lon="0.65669403411448">
        <ele>169.81</ele>
        <time>2025-05-14T07:50:44Z</time>
      </trkpt>
      <trkpt lat="41.65657801553607" lon="0.656726974993944">
        <ele>170.28999999999999</ele>
        <time>2025-05-14T07:50:45Z</time>
      </trkpt>
      <trkpt lat="41.656444994732738" lon="0.656754970550537">
        <ele>171.25</ele>
        <time>2025-05-14T07:50:46Z</time>
      </trkpt>
      <trkpt lat="41.65630099363625" lon="0.656821019947529">
        <ele>171.72999999999999</ele>
        <time>2025-05-14T07:50:47Z</time>
      </trkpt>
      <trkpt lat="41.656165961176157" lon="0.656883968040347">
        <ele>172.69</ele>
        <time>2025-05-14T07:50:48Z</time>
      </trkpt>
      <trkpt lat="41.656095972284675" lon="0.656968038529158">
        <ele>173.16999999999999</ele>
        <time>2025-05-14T07:50:49Z</time>
      </trkpt>
      <trkpt lat="41.656017014756799" lon="0.657063005492091">
        <ele>173.66</ele>
        <time>2025-05-14T07:50:50Z</time>
      </trkpt>
      <trkpt lat="41.655941996723413" lon="0.657152021303773">
        <ele>174.13999999999999</ele>
        <time>2025-05-14T07:50:51Z</time>
      </trkpt>
      <trkpt lat="41.655837977305055" lon="0.657317982986569">
        <ele>175.09999999999999</ele>
        <time>2025-05-14T07:50:53Z</time>
      </trkpt>
      <trkpt lat="41.655832026153803" lon="0.657377997413278">
        <ele>175.58000000000001</ele>
        <time>2025-05-14T07:50:54Z</time>
      </trkpt>
      <trkpt lat="41.6558269970119" lon="0.657420996576548">
        <ele>176.06</ele>
        <time>2025-05-14T07:50:55Z</time>
      </trkpt>
      <trkpt lat="41.655823979526758" lon="0.657452009618282">
        <ele>176.53999999999999</ele>
        <time>2025-05-14T07:51:04Z</time>
      </trkpt>
      <trkpt lat="41.655812999233603" lon="0.657543959096074">
        <ele>177.02000000000001</ele>
        <time>2025-05-14T07:51:12Z</time>
      </trkpt>
      <trkpt lat="41.655805958434939" lon="0.657613025978208">
        <ele>177.5</ele>
        <time>2025-05-14T07:51:13Z</time>
      </trkpt>
      <trkpt lat="41.655857004225254" lon="0.657788040116429">
        <ele>177.97999999999999</ele>
        <time>2025-05-14T07:51:14Z</time>
      </trkpt>
      <trkpt lat="41.655924981459975" lon="0.657828021794558">
        <ele>177.97999999999999</ele>
        <time>2025-05-14T07:51:15Z</time>
      </trkpt>
      <trkpt lat="41.656003016978502" lon="0.657874038442969">
        <ele>177.97999999999999</ele>
        <time>2025-05-14T07:51:16Z</time>
      </trkpt>
      <trkpt lat="41.656089015305042" lon="0.657925000414252">
        <ele>178.46000000000001</ele>
        <time>2025-05-14T07:51:17Z</time>
      </trkpt>
      <trkpt lat="41.656893007457256" lon="0.65845800563693">
        <ele>179.41999999999999</ele>
        <time>2025-05-14T07:51:24Z</time>
      </trkpt>
      <trkpt lat="41.658077035099268" lon="0.659557040780783">
        <ele>177.02000000000001</ele>
        <time>2025-05-14T07:51:32Z</time>
      </trkpt>
      <trkpt lat="41.659194007515907" lon="0.661007026210427">
        <ele>173.66</ele>
        <time>2025-05-14T07:51:41Z</time>
      </trkpt>
      <trkpt lat="41.660448024049401" lon="0.662246961146593">
        <ele>176.06</ele>
        <time>2025-05-14T07:51:50Z</time>
      </trkpt>
      <trkpt lat="41.662123985588551" lon="0.663284976035357">
        <ele>181.34999999999999</ele>
        <time>2025-05-14T07:51:59Z</time>
      </trkpt>
      <trkpt lat="41.663666004315019" lon="0.663988972082734">
        <ele>181.83000000000001</ele>
        <time>2025-05-14T07:52:08Z</time>
      </trkpt>
      <trkpt lat="41.665051029995084" lon="0.665063029155135">
        <ele>180.87</ele>
        <time>2025-05-14T07:52:16Z</time>
      </trkpt>
      <trkpt lat="41.66764497756958" lon="0.667377021163702">
        <ele>184.71000000000001</ele>
        <time>2025-05-14T07:52:30Z</time>
      </trkpt>
      <trkpt lat="41.669372990727425" lon="0.668347980827093">
        <ele>190</ele>
        <time>2025-05-14T07:52:38Z</time>
      </trkpt>
      <trkpt lat="41.671345001086593" lon="0.669462019577622">
        <ele>196.72999999999999</ele>
        <time>2025-05-14T07:52:47Z</time>
      </trkpt>
      <trkpt lat="41.672999002039433" lon="0.671189026907086">
        <ele>204.41999999999999</ele>
        <time>2025-05-14T07:52:56Z</time>
      </trkpt>
      <trkpt lat="41.676293006166816" lon="0.674745971336961">
        <ele>207.78</ele>
        <time>2025-05-14T07:53:15Z</time>
      </trkpt>
      <trkpt lat="41.678572967648506" lon="0.677623981609941">
        <ele>212.11000000000001</ele>
        <time>2025-05-14T07:53:29Z</time>
      </trkpt>
      <trkpt lat="41.681069014593959" lon="0.681386031210423">
        <ele>211.63</ele>
        <time>2025-05-14T07:53:46Z</time>
      </trkpt>
      <trkpt lat="41.681688018143177" lon="0.683032991364598">
        <ele>208.74000000000001</ele>
        <time>2025-05-14T07:53:52Z</time>
      </trkpt>
      <trkpt lat="41.681965962052345" lon="0.685137016698718">
        <ele>205.86000000000001</ele>
        <time>2025-05-14T07:53:59Z</time>
      </trkpt>
      <trkpt lat="41.682339962571859" lon="0.690185017883778">
        <ele>191.44</ele>
        <time>2025-05-14T07:54:16Z</time>
      </trkpt>
      <trkpt lat="41.682882020249963" lon="0.693346001207829">
        <ele>186.63</ele>
        <time>2025-05-14T07:54:27Z</time>
      </trkpt>
      <trkpt lat="41.683807969093323" lon="0.696257036179304">
        <ele>182.31</ele>
        <time>2025-05-14T07:54:38Z</time>
      </trkpt>
      <trkpt lat="41.685044970363379" lon="0.698774959892035">
        <ele>179.41999999999999</ele>
        <time>2025-05-14T07:54:48Z</time>
      </trkpt>
      <trkpt lat="41.686656977981329" lon="0.701129017397761">
        <ele>181.83000000000001</ele>
        <time>2025-05-14T07:54:59Z</time>
      </trkpt>
      <trkpt lat="41.688732001930475" lon="0.703738974407315">
        <ele>185.19</ele>
        <time>2025-05-14T07:55:12Z</time>
      </trkpt>
      <trkpt lat="41.690691020339727" lon="0.705936038866639">
        <ele>185.66999999999999</ele>
        <time>2025-05-14T07:55:23Z</time>
      </trkpt>
      <trkpt lat="41.692703012377024" lon="0.707260966300964">
        <ele>185.66999999999999</ele>
        <time>2025-05-14T07:55:33Z</time>
      </trkpt>
      <trkpt lat="41.694663958624005" lon="0.707854991778731">
        <ele>190.96000000000001</ele>
        <time>2025-05-14T07:55:42Z</time>
      </trkpt>
      <trkpt lat="41.696544019505382" lon="0.707952976226807">
        <ele>197.21000000000001</ele>
        <time>2025-05-14T07:55:50Z</time>
      </trkpt>
      <trkpt lat="41.699024979025126" lon="0.708212982863188">
        <ele>200.09</ele>
        <time>2025-05-14T07:56:01Z</time>
      </trkpt>
      <trkpt lat="41.70163300819695" lon="0.709124011918902">
        <ele>203.46000000000001</ele>
        <time>2025-05-14T07:56:13Z</time>
      </trkpt>
      <trkpt lat="41.703822026029229" lon="0.710544995963573">
        <ele>206.81999999999999</ele>
        <time>2025-05-14T07:56:24Z</time>
      </trkpt>
      <trkpt lat="41.706197038292885" lon="0.712716998532414">
        <ele>216.91</ele>
        <time>2025-05-14T07:56:37Z</time>
      </trkpt>
      <trkpt lat="41.709107989445329" lon="0.715975966304541">
        <ele>214.03</ele>
        <time>2025-05-14T07:56:54Z</time>
      </trkpt>
      <trkpt lat="41.712151039391756" lon="0.719448002055287">
        <ele>216.91</ele>
        <time>2025-05-14T07:57:12Z</time>
      </trkpt>
      <trkpt lat="41.715200962498784" lon="0.722898999229074">
        <ele>214.99000000000001</ele>
        <time>2025-05-14T07:57:30Z</time>
      </trkpt>
      <trkpt lat="41.718267984688282" lon="0.726337004452944">
        <ele>217.40000000000001</ele>
        <time>2025-05-14T07:57:48Z</time>
      </trkpt>
      <trkpt lat="41.719960039481521" lon="0.727719012647867">
        <ele>222.19999999999999</ele>
        <time>2025-05-14T07:57:57Z</time>
      </trkpt>
      <trkpt lat="41.722049983218312" lon="0.728728026151657">
        <ele>226.05000000000001</ele>
        <time>2025-05-14T07:58:07Z</time>
      </trkpt>
      <trkpt lat="41.723759975284338" lon="0.729640983045101">
        <ele>229.88999999999999</ele>
        <time>2025-05-14T07:58:16Z</time>
      </trkpt>
      <trkpt lat="41.725223958492279" lon="0.730956019833684">
        <ele>230.37</ele>
        <time>2025-05-14T07:58:26Z</time>
      </trkpt>
      <trkpt lat="41.726592974737287" lon="0.732438024133444">
        <ele>226.53</ele>
        <time>2025-05-14T07:58:37Z</time>
      </trkpt>
      <trkpt lat="41.727323960512877" lon="0.733086029067636">
        <ele>224.12</ele>
        <time>2025-05-14T07:58:44Z</time>
      </trkpt>
      <trkpt lat="41.728205988183618" lon="0.733766974881291">
        <ele>222.68000000000001</ele>
        <time>2025-05-14T07:58:54Z</time>
      </trkpt>
      <trkpt lat="41.729323966428638" lon="0.734357982873917">
        <ele>220.75999999999999</ele>
        <time>2025-05-14T07:59:02Z</time>
      </trkpt>
      <trkpt lat="41.730642020702362" lon="0.734832985326648">
        <ele>222.68000000000001</ele>
        <time>2025-05-14T07:59:08Z</time>
      </trkpt>
      <trkpt lat="41.732203988358378" lon="0.735390968620777">
        <ele>227.00999999999999</ele>
        <time>2025-05-14T07:59:17Z</time>
      </trkpt>
      <trkpt lat="41.733470996841788" lon="0.736082978546619">
        <ele>231.33000000000001</ele>
        <time>2025-05-14T07:59:25Z</time>
      </trkpt>
      <trkpt lat="41.734508005902171" lon="0.7373290322721">
        <ele>233.74000000000001</ele>
        <time>2025-05-14T07:59:33Z</time>
      </trkpt>
      <trkpt lat="41.735239997506142" lon="0.739199034869671">
        <ele>236.13999999999999</ele>
        <time>2025-05-14T07:59:41Z</time>
      </trkpt>
      <trkpt lat="41.735756993293762" lon="0.741115976125002">
        <ele>237.09999999999999</ele>
        <time>2025-05-14T07:59:47Z</time>
      </trkpt>
      <trkpt lat="41.736277006566525" lon="0.742953037843108">
        <ele>237.58000000000001</ele>
        <time>2025-05-14T07:59:53Z</time>
      </trkpt>
      <trkpt lat="41.736900033429265" lon="0.74540700763464">
        <ele>235.18000000000001</ele>
        <time>2025-05-14T08:00:03Z</time>
      </trkpt>
      <trkpt lat="41.737102037295699" lon="0.747472979128361">
        <ele>228.44999999999999</ele>
        <time>2025-05-14T08:00:11Z</time>
      </trkpt>
      <trkpt lat="41.73740403726697" lon="0.749687980860472">
        <ele>218.36000000000001</ele>
        <time>2025-05-14T08:00:19Z</time>
      </trkpt>
      <trkpt lat="41.738245999440551" lon="0.751689998432994">
        <ele>212.59</ele>
        <time>2025-05-14T08:00:27Z</time>
      </trkpt>
      <trkpt lat="41.739738984033465" lon="0.754502965137362">
        <ele>214.03</ele>
        <time>2025-05-14T08:00:39Z</time>
      </trkpt>
      <trkpt lat="41.741629019379616" lon="0.757091967388988">
        <ele>216.43000000000001</ele>
        <time>2025-05-14T08:00:51Z</time>
      </trkpt>
      <trkpt lat="41.743845026940107" lon="0.760071985423565">
        <ele>218.36000000000001</ele>
        <time>2025-05-14T08:01:05Z</time>
      </trkpt>
      <trkpt lat="41.745563987642527" lon="0.761916004121304">
        <ele>219.31999999999999</ele>
        <time>2025-05-14T08:01:15Z</time>
      </trkpt>
      <trkpt lat="41.748147960752249" lon="0.763742001727223">
        <ele>218.84</ele>
        <time>2025-05-14T08:01:28Z</time>
      </trkpt>
      <trkpt lat="41.749998014420271" lon="0.764858974143863">
        <ele>220.75999999999999</ele>
        <time>2025-05-14T08:01:38Z</time>
      </trkpt>
      <trkpt lat="41.750729000195861" lon="0.765244038775563">
        <ele>221.24000000000001</ele>
        <time>2025-05-14T08:01:42Z</time>
      </trkpt>
      <trkpt lat="41.750892028212547" lon="0.765406982973218">
        <ele>221.24000000000001</ele>
        <time>2025-05-14T08:01:43Z</time>
      </trkpt>
      <trkpt lat="41.751051032915711" lon="0.765584008768201">
        <ele>221.24000000000001</ele>
        <time>2025-05-14T08:01:44Z</time>
      </trkpt>
      <trkpt lat="41.751194028183818" lon="0.765786012634635">
        <ele>221.24000000000001</ele>
        <time>2025-05-14T08:01:45Z</time>
      </trkpt>
      <trkpt lat="41.751331994310021" lon="0.765996985137463">
        <ele>221.24000000000001</ele>
        <time>2025-05-14T08:01:46Z</time>
      </trkpt>
      <trkpt lat="41.751464009284973" lon="0.766212986782193">
        <ele>221.24000000000001</ele>
        <time>2025-05-14T08:01:47Z</time>
      </trkpt>
      <trkpt lat="41.752548040822148" lon="0.767789036035538">
        <ele>221.72</ele>
        <time>2025-05-14T08:01:55Z</time>
      </trkpt>
      <trkpt lat="41.754182009026408" lon="0.769294006749988">
        <ele>221.24000000000001</ele>
        <time>2025-05-14T08:02:04Z</time>
      </trkpt>
      <trkpt lat="41.755855958908796" lon="0.770349958911538">
        <ele>221.72</ele>
        <time>2025-05-14T08:02:12Z</time>
      </trkpt>
      <trkpt lat="41.757252970710397" lon="0.771771026775241">
        <ele>220.75999999999999</ele>
        <time>2025-05-14T08:02:20Z</time>
      </trkpt>
      <trkpt lat="41.758960029110312" lon="0.773930037394166">
        <ele>221.24000000000001</ele>
        <time>2025-05-14T08:02:31Z</time>
      </trkpt>
      <trkpt lat="41.75914803519845" lon="0.774065991863608">
        <ele>221.24000000000001</ele>
        <time>2025-05-14T08:02:32Z</time>
      </trkpt>
      <trkpt lat="41.759338974952698" lon="0.774199012666941">
        <ele>220.75999999999999</ele>
        <time>2025-05-14T08:02:33Z</time>
      </trkpt>
      <trkpt lat="41.760603971779346" lon="0.775282960385084">
        <ele>220.28</ele>
        <time>2025-05-14T08:02:40Z</time>
      </trkpt>
      <trkpt lat="41.762700034305453" lon="0.77759301289916">
        <ele>220.28</ele>
        <time>2025-05-14T08:02:52Z</time>
      </trkpt>
      <trkpt lat="41.76310496404767" lon="0.778267001733184">
        <ele>219.80000000000001</ele>
        <time>2025-05-14T08:02:55Z</time>
      </trkpt>
      <trkpt lat="41.764469034969807" lon="0.781049961224198">
        <ele>219.80000000000001</ele>
        <time>2025-05-14T08:03:07Z</time>
      </trkpt>
      <trkpt lat="41.766015999019146" lon="0.784207005053759">
        <ele>219.80000000000001</ele>
        <time>2025-05-14T08:03:19Z</time>
      </trkpt>
      <trkpt lat="41.767049990594387" lon="0.785955972969532">
        <ele>220.28</ele>
        <time>2025-05-14T08:03:27Z</time>
      </trkpt>
      <trkpt lat="41.768833994865417" lon="0.787803009152412">
        <ele>220.28</ele>
        <time>2025-05-14T08:03:37Z</time>
      </trkpt>
      <trkpt lat="41.7707309871912" lon="0.789514007046819">
        <ele>224.12</ele>
        <time>2025-05-14T08:03:47Z</time>
      </trkpt>
      <trkpt lat="41.772828977555037" lon="0.791459027677774">
        <ele>232.30000000000001</ele>
        <time>2025-05-14T08:03:59Z</time>
      </trkpt>
      <trkpt lat="41.774460012093186" lon="0.792624028399587">
        <ele>237.58000000000001</ele>
        <time>2025-05-14T08:04:07Z</time>
      </trkpt>
      <trkpt lat="41.776104960590601" lon="0.792882023379207">
        <ele>242.87</ele>
        <time>2025-05-14T08:04:14Z</time>
      </trkpt>
      <trkpt lat="41.777606997638941" lon="0.792471980676055">
        <ele>247.19999999999999</ele>
        <time>2025-05-14T08:04:21Z</time>
      </trkpt>
      <trkpt lat="41.779950996860862" lon="0.791309997439384">
        <ele>253.93000000000001</ele>
        <time>2025-05-14T08:04:32Z</time>
      </trkpt>
      <trkpt lat="41.781201995909214" lon="0.790679007768631">
        <ele>257.29000000000002</ele>
        <time>2025-05-14T08:04:38Z</time>
      </trkpt>
      <trkpt lat="41.781397964805365" lon="0.790575994178653">
        <ele>257.76999999999998</ele>
        <time>2025-05-14T08:04:39Z</time>
      </trkpt>
      <trkpt lat="41.782880974933505" lon="0.790056986734271">
        <ele>260.64999999999998</ele>
        <time>2025-05-14T08:04:46Z</time>
      </trkpt>
      <trkpt lat="41.783087002113461" lon="0.790037959814072">
        <ele>261.13999999999999</ele>
        <time>2025-05-14T08:04:47Z</time>
      </trkpt>
      <trkpt lat="41.783281965181231" lon="0.790053969249129">
        <ele>261.13999999999999</ele>
        <time>2025-05-14T08:04:48Z</time>
      </trkpt>
      <trkpt lat="41.783839026466012" lon="0.790222026407719">
        <ele>262.57999999999998</ele>
        <time>2025-05-14T08:04:51Z</time>
      </trkpt>
      <trkpt lat="41.78398797288537" lon="0.790324034169316">
        <ele>263.06</ele>
        <time>2025-05-14T08:04:52Z</time>
      </trkpt>
      <trkpt lat="41.784143960103393" lon="0.790428975597024">
        <ele>263.06</ele>
        <time>2025-05-14T08:04:53Z</time>
      </trkpt>
      <trkpt lat="41.784292990341783" lon="0.790531989187002">
        <ele>263.54000000000002</ele>
        <time>2025-05-14T08:04:54Z</time>
      </trkpt>
      <trkpt lat="41.784428022801876" lon="0.790669033303857">
        <ele>264.01999999999998</ele>
        <time>2025-05-14T08:04:55Z</time>
      </trkpt>
      <trkpt lat="41.784560037776828" lon="0.790810016915202">
        <ele>264.5</ele>
        <time>2025-05-14T08:04:56Z</time>
      </trkpt>
      <trkpt lat="41.784687023609877" lon="0.790945971384645">
        <ele>264.5</ele>
        <time>2025-05-14T08:04:57Z</time>
      </trkpt>
      <trkpt lat="41.785174012184143" lon="0.791477970778942">
        <ele>266.89999999999998</ele>
        <time>2025-05-14T08:05:02Z</time>
      </trkpt>
      <trkpt lat="41.785225979983807" lon="0.79153697937727">
        <ele>267.38</ele>
        <time>2025-05-14T08:05:03Z</time>
      </trkpt>
      <trkpt lat="41.785262022167444" lon="0.791716016829014">
        <ele>267.86000000000001</ele>
        <time>2025-05-14T08:05:04Z</time>
      </trkpt>
      <trkpt lat="41.785227991640568" lon="0.791811989620328">
        <ele>268.35000000000002</ele>
        <time>2025-05-14T08:05:05Z</time>
      </trkpt>
      <trkpt lat="41.785193961113691" lon="0.791936041787267">
        <ele>268.82999999999998</ele>
        <time>2025-05-14T08:05:06Z</time>
      </trkpt>
      <trkpt lat="41.785221034660935" lon="0.792070990428329">
        <ele>269.31</ele>
        <time>2025-05-14T08:05:07Z</time>
      </trkpt>
      <trkpt lat="41.785271996632218" lon="0.792193030938506">
        <ele>269.31</ele>
        <time>2025-05-14T08:05:08Z</time>
      </trkpt>
      <trkpt lat="41.785336034372449" lon="0.792295038700104">
        <ele>269.79000000000002</ele>
        <time>2025-05-14T08:05:09Z</time>
      </trkpt>
      <trkpt lat="41.785423960536718" lon="0.792315993458033">
        <ele>270.26999999999998</ele>
        <time>2025-05-14T08:05:10Z</time>
      </trkpt>
      <trkpt lat="41.785513982176781" lon="0.792329991236329">
        <ele>270.75</ele>
        <time>2025-05-14T08:05:11Z</time>
      </trkpt>
      <trkpt lat="41.785643985494971" lon="0.792454965412617">
        <ele>271.23000000000002</ele>
        <time>2025-05-14T08:05:12Z</time>
      </trkpt>
      <trkpt lat="41.785665024071932" lon="0.792551022022963">
        <ele>271.70999999999998</ele>
        <time>2025-05-14T08:05:13Z</time>
      </trkpt>
      <trkpt lat="41.785686984658241" lon="0.792649006471038">
        <ele>272.19</ele>
        <time>2025-05-14T08:05:14Z</time>
      </trkpt>
      <trkpt lat="41.785712968558073" lon="0.792765012010932">
        <ele>272.67000000000002</ele>
        <time>2025-05-14T08:05:15Z</time>
      </trkpt>
      <trkpt lat="41.785740964114666" lon="0.792896021157503">
        <ele>273.63</ele>
        <time>2025-05-14T08:05:16Z</time>
      </trkpt>
      <trkpt lat="41.78576803766191" lon="0.793023006990552">
        <ele>274.11000000000001</ele>
        <time>2025-05-14T08:05:17Z</time>
      </trkpt>
      <trkpt lat="41.785917989909649" lon="0.793666988611221">
        <ele>276.51999999999998</ele>
        <time>2025-05-14T08:05:23Z</time>
      </trkpt>
      <trkpt lat="41.78587700240314" lon="0.793805038556457">
        <ele>277</ele>
        <time>2025-05-14T08:05:24Z</time>
      </trkpt>
      <trkpt lat="41.78587700240314" lon="0.79392003826797">
        <ele>277.48000000000002</ele>
        <time>2025-05-14T08:05:26Z</time>
      </trkpt>
      <trkpt lat="41.78587700240314" lon="0.793977035209537">
        <ele>277.48000000000002</ele>
        <time>2025-05-14T08:05:27Z</time>
      </trkpt>
      <trkpt lat="41.78600599989295" lon="0.794040989130735">
        <ele>277.48000000000002</ele>
        <time>2025-05-14T08:05:28Z</time>
      </trkpt>
      <trkpt lat="41.786013040691614" lon="0.794082982465625">
        <ele>277.95999999999998</ele>
        <time>2025-05-14T08:05:29Z</time>
      </trkpt>
      <trkpt lat="41.786019997671247" lon="0.794126987457275">
        <ele>277.48000000000002</ele>
        <time>2025-05-14T08:05:30Z</time>
      </trkpt>
      <trkpt lat="41.78602603264153" lon="0.794163029640913">
        <ele>277.95999999999998</ele>
        <time>2025-05-14T08:05:31Z</time>
      </trkpt>
      <trkpt lat="41.78602603264153" lon="0.794163029640913">
        <ele>277.95999999999998</ele>
        <time>2025-05-14T08:05:40Z</time>
      </trkpt>
      <trkpt lat="41.78602603264153" lon="0.794163029640913">
        <ele>277.95999999999998</ele>
        <time>2025-05-14T08:06:12Z</time>
      </trkpt>
      <trkpt lat="41.78602603264153" lon="0.794163029640913">
        <ele>277.95999999999998</ele>
        <time>2025-05-14T08:06:28Z</time>
      </trkpt>
      <trkpt lat="41.78611203096807" lon="0.794495958834887">
        <ele>278.44</ele>
        <time>2025-05-14T08:06:40Z</time>
      </trkpt>
      <trkpt lat="41.786352004855871" lon="0.795546965673566">
        <ele>277.95999999999998</ele>
        <time>2025-05-14T08:06:49Z</time>
      </trkpt>
      <trkpt lat="41.786657022312284" lon="0.797012038528919">
        <ele>275.06999999999999</ele>
        <time>2025-05-14T08:07:01Z</time>
      </trkpt>
      <trkpt lat="41.786658028140664" lon="0.797150004655123">
        <ele>275.06999999999999</ele>
        <time>2025-05-14T08:07:02Z</time>
      </trkpt>
      <trkpt lat="41.786616034805775" lon="0.797275984659791">
        <ele>275.06999999999999</ele>
        <time>2025-05-14T08:07:03Z</time>
      </trkpt>
      <trkpt lat="41.786574041470885" lon="0.797401964664459">
        <ele>274.58999999999997</ele>
        <time>2025-05-14T08:07:04Z</time>
      </trkpt>
      <trkpt lat="41.786507992073894" lon="0.797533979639411">
        <ele>274.58999999999997</ele>
        <time>2025-05-14T08:07:05Z</time>
      </trkpt>
      <trkpt lat="41.786418976262212" lon="0.797632969915867">
        <ele>274.11000000000001</ele>
        <time>2025-05-14T08:07:06Z</time>
      </trkpt>
      <trkpt lat="41.78632702678442" lon="0.797735983505845">
        <ele>273.63</ele>
        <time>2025-05-14T08:07:07Z</time>
      </trkpt>
      <trkpt lat="41.786235999315977" lon="0.797835979610682">
        <ele>272.67000000000002</ele>
        <time>2025-05-14T08:07:08Z</time>
      </trkpt>
      <trkpt lat="41.785291023552418" lon="0.798771986737847">
        <ele>266.89999999999998</ele>
        <time>2025-05-14T08:07:19Z</time>
      </trkpt>
      <trkpt lat="41.785058006644249" lon="0.798823032528162">
        <ele>265.94</ele>
        <time>2025-05-14T08:07:21Z</time>
      </trkpt>
      <trkpt lat="41.784939989447594" lon="0.798843987286091">
        <ele>265.94</ele>
        <time>2025-05-14T08:07:22Z</time>
      </trkpt>
      <trkpt lat="41.784584010019898" lon="0.798909030854702">
        <ele>264.5</ele>
        <time>2025-05-14T08:07:25Z</time>
      </trkpt>
      <trkpt lat="41.784488959237933" lon="0.79897197894752">
        <ele>263.54000000000002</ele>
        <time>2025-05-14T08:07:26Z</time>
      </trkpt>
      <trkpt lat="41.784382006153464" lon="0.79905403777957">
        <ele>263.06</ele>
        <time>2025-05-14T08:07:27Z</time>
      </trkpt>
      <trkpt lat="41.783770965412259" lon="0.799519987776876">
        <ele>259.20999999999998</ele>
        <time>2025-05-14T08:07:33Z</time>
      </trkpt>
      <trkpt lat="41.783682033419609" lon="0.799586959183216">
        <ele>258.25</ele>
        <time>2025-05-14T08:07:34Z</time>
      </trkpt>
      <trkpt lat="41.783637022599578" lon="0.799692990258336">
        <ele>257.29000000000002</ele>
        <time>2025-05-14T08:07:35Z</time>
      </trkpt>
      <trkpt lat="41.78359704092145" lon="0.799819976091385">
        <ele>255.84999999999999</ele>
        <time>2025-05-14T08:07:36Z</time>
      </trkpt>
      <trkpt lat="41.783555969595909" lon="0.799951991066337">
        <ele>254.88999999999999</ele>
        <time>2025-05-14T08:07:37Z</time>
      </trkpt>
      <trkpt lat="41.783545995131135" lon="0.800093980506063">
        <ele>253.93000000000001</ele>
        <time>2025-05-14T08:07:38Z</time>
      </trkpt>
      <trkpt lat="41.783559992909431" lon="0.800242004916072">
        <ele>253.44</ele>
        <time>2025-05-14T08:07:39Z</time>
      </trkpt>
      <trkpt lat="41.78359997458756" lon="0.800391035154462">
        <ele>252.47999999999999</ele>
        <time>2025-05-14T08:07:40Z</time>
      </trkpt>
      <trkpt lat="41.78364004008472" lon="0.80053998157382">
        <ele>251.52000000000001</ele>
        <time>2025-05-14T08:07:41Z</time>
      </trkpt>
      <trkpt lat="41.78370600566268" lon="0.800843993201852">
        <ele>249.59999999999999</ele>
        <time>2025-05-14T08:07:43Z</time>
      </trkpt>
      <trkpt lat="41.783693013712764" lon="0.800987994298339">
        <ele>249.12</ele>
        <time>2025-05-14T08:07:44Z</time>
      </trkpt>
      <trkpt lat="41.783649008721113" lon="0.801115985959768">
        <ele>248.16</ele>
        <time>2025-05-14T08:07:45Z</time>
      </trkpt>
      <trkpt lat="41.783602992072701" lon="0.801208019256592">
        <ele>247.19999999999999</ele>
        <time>2025-05-14T08:07:46Z</time>
      </trkpt>
      <trkpt lat="41.783484974876046" lon="0.80131103284657">
        <ele>245.75</ele>
        <time>2025-05-14T08:07:47Z</time>
      </trkpt>
      <trkpt lat="41.783381039276719" lon="0.801400970667601">
        <ele>244.78999999999999</ele>
        <time>2025-05-14T08:07:48Z</time>
      </trkpt>
      <trkpt lat="41.783272996544838" lon="0.801495015621185">
        <ele>244.31</ele>
        <time>2025-05-14T08:07:49Z</time>
      </trkpt>
      <trkpt lat="41.783167971298099" lon="0.801585959270597">
        <ele>242.87</ele>
        <time>2025-05-14T08:07:50Z</time>
      </trkpt>
      <trkpt lat="41.78308398462832" lon="0.801696013659239">
        <ele>241.43000000000001</ele>
        <time>2025-05-14T08:07:51Z</time>
      </trkpt>
      <trkpt lat="41.783025981858373" lon="0.801830962300301">
        <ele>239.99000000000001</ele>
        <time>2025-05-14T08:07:52Z</time>
      </trkpt>
      <trkpt lat="41.782982982695103" lon="0.801974041387439">
        <ele>238.53999999999999</ele>
        <time>2025-05-14T08:07:53Z</time>
      </trkpt>
      <trkpt lat="41.782995974645019" lon="0.802124999463558">
        <ele>237.09999999999999</ele>
        <time>2025-05-14T08:07:54Z</time>
      </trkpt>
      <trkpt lat="41.783039979636669" lon="0.8022799808532">
        <ele>235.66</ele>
        <time>2025-05-14T08:07:55Z</time>
      </trkpt>
      <trkpt lat="41.783106029033661" lon="0.802423981949687">
        <ele>234.69999999999999</ele>
        <time>2025-05-14T08:07:56Z</time>
      </trkpt>
      <trkpt lat="41.783198984339833" lon="0.802554991096258">
        <ele>233.74000000000001</ele>
        <time>2025-05-14T08:07:57Z</time>
      </trkpt>
      <trkpt lat="41.783280959352851" lon="0.80266697332263">
        <ele>233.25999999999999</ele>
        <time>2025-05-14T08:07:58Z</time>
      </trkpt>
      <trkpt lat="41.783408029004931" lon="0.802779961377382">
        <ele>232.30000000000001</ele>
        <time>2025-05-14T08:07:59Z</time>
      </trkpt>
      <trkpt lat="41.783521017059684" lon="0.802869983017445">
        <ele>231.33000000000001</ele>
        <time>2025-05-14T08:08:00Z</time>
      </trkpt>
      <trkpt lat="41.783635010942817" lon="0.80294600687921">
        <ele>230.37</ele>
        <time>2025-05-14T08:08:01Z</time>
      </trkpt>
      <trkpt lat="41.784212021157146" lon="0.803252030164003">
        <ele>227.97</ele>
        <time>2025-05-14T08:08:07Z</time>
      </trkpt>
      <trkpt lat="41.784301958978176" lon="0.803272984921932">
        <ele>227.97</ele>
        <time>2025-05-14T08:08:08Z</time>
      </trkpt>
      <trkpt lat="41.784969996660948" lon="0.803413968533278">
        <ele>224.61000000000001</ele>
        <time>2025-05-14T08:08:15Z</time>
      </trkpt>
      <trkpt lat="41.785840038210154" lon="0.803647991269827">
        <ele>218.36000000000001</ele>
        <time>2025-05-14T08:08:26Z</time>
      </trkpt>
      <trkpt lat="41.785894017666578" lon="0.803660983219743">
        <ele>217.88</ele>
        <time>2025-05-14T08:08:27Z</time>
      </trkpt>
      <trkpt lat="41.785949002951384" lon="0.803673975169659">
        <ele>217.40000000000001</ele>
        <time>2025-05-14T08:08:28Z</time>
      </trkpt>
      <trkpt lat="41.786003988236189" lon="0.803686967119575">
        <ele>217.40000000000001</ele>
        <time>2025-05-14T08:08:29Z</time>
      </trkpt>
      <trkpt lat="41.786058973520994" lon="0.80369995906949">
        <ele>216.91</ele>
        <time>2025-05-14T08:08:30Z</time>
      </trkpt>
      <trkpt lat="41.786123011261225" lon="0.803832979872823">
        <ele>216.43000000000001</ele>
        <time>2025-05-14T08:08:31Z</time>
      </trkpt>
      <trkpt lat="41.786115970462561" lon="0.803910009562969">
        <ele>215.94999999999999</ele>
        <time>2025-05-14T08:08:32Z</time>
      </trkpt>
      <trkpt lat="41.786102978512645" lon="0.804001959040761">
        <ele>215.47</ele>
        <time>2025-05-14T08:08:33Z</time>
      </trkpt>
      <trkpt lat="41.786010023206472" lon="0.804618028923869">
        <ele>214.03</ele>
        <time>2025-05-14T08:08:42Z</time>
      </trkpt>
      <trkpt lat="41.785989990457892" lon="0.80470503307879">
        <ele>216.43000000000001</ele>
        <time>2025-05-14T08:08:51Z</time>
      </trkpt>
      <trkpt lat="41.78598596714437" lon="0.804633032530546">
        <ele>216.43000000000001</ele>
        <time>2025-05-14T08:08:52Z</time>
      </trkpt>
      <trkpt lat="41.785889994353056" lon="0.804592967033386">
        <ele>216.91</ele>
        <time>2025-05-14T08:08:57Z</time>
      </trkpt>
      <trkpt lat="41.785889994353056" lon="0.804592967033386">
        <ele>217.40000000000001</ele>
        <time>2025-05-14T08:08:58Z</time>
      </trkpt>
      <trkpt lat="41.785889994353056" lon="0.804592967033386">
        <ele>217.40000000000001</ele>
        <time>2025-05-14T08:09:14Z</time>
      </trkpt>
      <trkpt lat="41.785889994353056" lon="0.804592967033386">
        <ele>217.40000000000001</ele>
        <time>2025-05-14T08:09:58Z</time>
      </trkpt>
      <trkpt lat="41.785889994353056" lon="0.804592967033386">
        <ele>217.40000000000001</ele>
        <time>2025-05-14T08:10:56Z</time>
      </trkpt>
      <trkpt lat="41.785889994353056" lon="0.804592967033386">
        <ele>217.40000000000001</ele>
        <time>2025-05-14T08:11:44Z</time>
      </trkpt>
      <trkpt lat="41.785889994353056" lon="0.804592967033386">
        <ele>216.91</ele>
        <time>2025-05-14T08:12:31Z</time>
      </trkpt>
      <trkpt lat="41.785889994353056" lon="0.804592967033386">
        <ele>217.40000000000001</ele>
        <time>2025-05-14T08:13:21Z</time>
      </trkpt>
      <trkpt lat="41.785815982148051" lon="0.804853979498148">
        <ele>223.16</ele>
        <time>2025-05-14T08:51:12Z</time>
      </trkpt>
      <trkpt lat="41.785787986591458" lon="0.804827995598316">
        <ele>228.93000000000001</ele>
        <time>2025-05-14T08:51:54Z</time>
      </trkpt>
      <trkpt lat="41.785792009904981" lon="0.804823972284794">
        <ele>226.05000000000001</ele>
        <time>2025-05-14T08:52:36Z</time>
      </trkpt>
      <trkpt lat="41.78581397049129" lon="0.804806035012007">
        <ele>226.05000000000001</ele>
        <time>2025-05-14T08:52:52Z</time>
      </trkpt>
      <trkpt lat="41.785901980474591" lon="0.80479203723371">
        <ele>224.12</ele>
        <time>2025-05-14T08:53:09Z</time>
      </trkpt>
      <trkpt lat="41.785901980474591" lon="0.80479203723371">
        <ele>224.12</ele>
        <time>2025-05-14T08:53:12Z</time>
      </trkpt>
      <trkpt lat="41.7859429679811" lon="0.804866971448064">
        <ele>222.68000000000001</ele>
        <time>2025-05-14T08:53:17Z</time>
      </trkpt>
      <trkpt lat="41.78589896298945" lon="0.805314984172583">
        <ele>219.31999999999999</ele>
        <time>2025-05-14T08:53:27Z</time>
      </trkpt>
      <trkpt lat="41.785886976867914" lon="0.80541699193418">
        <ele>217.40000000000001</ele>
        <time>2025-05-14T08:53:38Z</time>
      </trkpt>
      <trkpt lat="41.785868033766747" lon="0.805581025779247">
        <ele>215.94999999999999</ele>
        <time>2025-05-14T08:53:48Z</time>
      </trkpt>
      <trkpt lat="41.785865016281605" lon="0.80560801550746">
        <ele>215.94999999999999</ele>
        <time>2025-05-14T08:53:49Z</time>
      </trkpt>
      <trkpt lat="41.785861998796463" lon="0.805638022720814">
        <ele>215.94999999999999</ele>
        <time>2025-05-14T08:53:52Z</time>
      </trkpt>
      <trkpt lat="41.785881025716662" lon="0.805698037147522">
        <ele>215.47</ele>
        <time>2025-05-14T08:53:53Z</time>
      </trkpt>
      <trkpt lat="41.785927964374423" lon="0.805705999955535">
        <ele>214.99000000000001</ele>
        <time>2025-05-14T08:53:54Z</time>
      </trkpt>
      <trkpt lat="41.785981021821499" lon="0.80571698024869">
        <ele>214.50999999999999</ele>
        <time>2025-05-14T08:53:55Z</time>
      </trkpt>
      <trkpt lat="41.786046987399459" lon="0.805728966370225">
        <ele>214.50999999999999</ele>
        <time>2025-05-14T08:53:56Z</time>
      </trkpt>
      <trkpt lat="41.786125022917986" lon="0.805744975805283">
        <ele>214.03</ele>
        <time>2025-05-14T08:53:57Z</time>
      </trkpt>
      <trkpt lat="41.78620096296072" lon="0.805758973583579">
        <ele>214.03</ele>
        <time>2025-05-14T08:53:58Z</time>
      </trkpt>
      <trkpt lat="41.787146022543311" lon="0.805939016863704">
        <ele>214.50999999999999</ele>
        <time>2025-05-14T08:54:10Z</time>
      </trkpt>
      <trkpt lat="41.788104996085167" lon="0.806144960224628">
        <ele>217.40000000000001</ele>
        <time>2025-05-14T08:54:22Z</time>
      </trkpt>
      <trkpt lat="41.788941007107496" lon="0.806330032646656">
        <ele>217.88</ele>
        <time>2025-05-14T08:54:32Z</time>
      </trkpt>
      <trkpt lat="41.789044020697474" lon="0.806354004889727">
        <ele>218.36000000000001</ele>
        <time>2025-05-14T08:54:39Z</time>
      </trkpt>
      <trkpt lat="41.789044020697474" lon="0.806354004889727">
        <ele>218.36000000000001</ele>
        <time>2025-05-14T08:55:30Z</time>
      </trkpt>
      <trkpt lat="41.78912197239697" lon="0.806371020153165">
        <ele>218.84</ele>
        <time>2025-05-14T08:55:49Z</time>
      </trkpt>
      <trkpt lat="41.789349038153887" lon="0.806406978517771">
        <ele>217.40000000000001</ele>
        <time>2025-05-14T08:55:53Z</time>
      </trkpt>
      <trkpt lat="41.789454985409975" lon="0.806422987952828">
        <ele>215.94999999999999</ele>
        <time>2025-05-14T08:56:01Z</time>
      </trkpt>
      <trkpt lat="41.789454985409975" lon="0.806422987952828">
        <ele>215.47</ele>
        <time>2025-05-14T08:56:46Z</time>
      </trkpt>
      <trkpt lat="41.789561016485095" lon="0.806438997387886">
        <ele>214.99000000000001</ele>
        <time>2025-05-14T08:57:30Z</time>
      </trkpt>
      <trkpt lat="41.789675010368228" lon="0.806508986279368">
        <ele>214.99000000000001</ele>
        <time>2025-05-14T08:57:33Z</time>
      </trkpt>
      <trkpt lat="41.789675010368228" lon="0.806530024856329">
        <ele>214.50999999999999</ele>
        <time>2025-05-14T08:57:34Z</time>
      </trkpt>
      <trkpt lat="41.789663024246693" lon="0.806650975719094">
        <ele>214.50999999999999</ele>
        <time>2025-05-14T08:57:35Z</time>
      </trkpt>
      <trkpt lat="41.789567973464727" lon="0.807563010603189">
        <ele>211.63</ele>
        <time>2025-05-14T08:57:46Z</time>
      </trkpt>
      <trkpt lat="41.789536960422993" lon="0.807854030281305">
        <ele>209.69999999999999</ele>
        <time>2025-05-14T08:57:51Z</time>
      </trkpt>
      <trkpt lat="41.789517011493444" lon="0.80790800973773">
        <ele>209.22</ele>
        <time>2025-05-14T08:57:52Z</time>
      </trkpt>
      <trkpt lat="41.789448028430343" lon="0.807939022779465">
        <ele>208.74000000000001</ele>
        <time>2025-05-14T08:57:53Z</time>
      </trkpt>
      <trkpt lat="41.789405029267073" lon="0.807915972545743">
        <ele>208.25999999999999</ele>
        <time>2025-05-14T08:57:54Z</time>
      </trkpt>
      <trkpt lat="41.789359012618661" lon="0.807890994474292">
        <ele>208.25999999999999</ele>
        <time>2025-05-14T08:57:55Z</time>
      </trkpt>
      <trkpt lat="41.789307966828346" lon="0.807864004746079">
        <ele>207.78</ele>
        <time>2025-05-14T08:57:56Z</time>
      </trkpt>
      <trkpt lat="41.78869198076427" lon="0.807695025578141">
        <ele>205.86000000000001</ele>
        <time>2025-05-14T08:58:07Z</time>
      </trkpt>
      <trkpt lat="41.788567006587982" lon="0.807669041678309">
        <ele>205.86000000000001</ele>
        <time>2025-05-14T08:58:09Z</time>
      </trkpt>
      <trkpt lat="41.788524007424712" lon="0.807659989222884">
        <ele>205.86000000000001</ele>
        <time>2025-05-14T08:58:10Z</time>
      </trkpt>
      <trkpt lat="41.788452006876469" lon="0.807644985616207">
        <ele>205.86000000000001</ele>
        <time>2025-05-14T08:58:11Z</time>
      </trkpt>
      <trkpt lat="41.788383023813367" lon="0.8076729811728">
        <ele>205.86000000000001</ele>
        <time>2025-05-14T08:58:12Z</time>
      </trkpt>
      <trkpt lat="41.788302976638079" lon="0.807729978114367">
        <ele>206.34</ele>
        <time>2025-05-14T08:58:13Z</time>
      </trkpt>
      <trkpt lat="41.788238016888499" lon="0.807793010026217">
        <ele>206.81999999999999</ele>
        <time>2025-05-14T08:58:14Z</time>
      </trkpt>
      <trkpt lat="41.788178002461791" lon="0.807845983654261">
        <ele>207.30000000000001</ele>
        <time>2025-05-14T08:58:15Z</time>
      </trkpt>
      <trkpt lat="41.788066020235419" lon="0.807945979759097">
        <ele>207.30000000000001</ele>
        <time>2025-05-14T08:58:17Z</time>
      </trkpt>
      <trkpt lat="41.787937022745609" lon="0.808010017499328">
        <ele>207.30000000000001</ele>
        <time>2025-05-14T08:58:20Z</time>
      </trkpt>
      <trkpt lat="41.787753961980343" lon="0.807971963658929">
        <ele>207.78</ele>
        <time>2025-05-14T08:58:23Z</time>
      </trkpt>
      <trkpt lat="41.787686990574002" lon="0.807957965880632">
        <ele>208.25999999999999</ele>
        <time>2025-05-14T08:58:24Z</time>
      </trkpt>
      <trkpt lat="41.787619013339281" lon="0.807942962273955">
        <ele>208.25999999999999</ele>
        <time>2025-05-14T08:58:25Z</time>
      </trkpt>
      <trkpt lat="41.787346014752984" lon="0.807879008352757">
        <ele>209.69999999999999</ele>
        <time>2025-05-14T08:58:29Z</time>
      </trkpt>
      <trkpt lat="41.786711001768708" lon="0.807744981721044">
        <ele>209.69999999999999</ele>
        <time>2025-05-14T08:58:38Z</time>
      </trkpt>
      <trkpt lat="41.786636989563704" lon="0.807728972285986">
        <ele>209.69999999999999</ele>
        <time>2025-05-14T08:58:39Z</time>
      </trkpt>
      <trkpt lat="41.786415036767721" lon="0.807682033628225">
        <ele>209.22</ele>
        <time>2025-05-14T08:58:42Z</time>
      </trkpt>
      <trkpt lat="41.785633005201817" lon="0.807526968419552">
        <ele>208.25999999999999</ele>
        <time>2025-05-14T08:58:52Z</time>
      </trkpt>
      <trkpt lat="41.78557600826025" lon="0.807516993954778">
        <ele>208.25999999999999</ele>
        <time>2025-05-14T08:58:53Z</time>
      </trkpt>
      <trkpt lat="41.785518005490303" lon="0.807498972862959">
        <ele>208.25999999999999</ele>
        <time>2025-05-14T08:58:54Z</time>
      </trkpt>
      <trkpt lat="41.784782996401191" lon="0.807288000360131">
        <ele>208.25999999999999</ele>
        <time>2025-05-14T08:59:03Z</time>
      </trkpt>
      <trkpt lat="41.78424303419888" lon="0.807130001485348">
        <ele>207.78</ele>
        <time>2025-05-14T08:59:08Z</time>
      </trkpt>
      <trkpt lat="41.784022003412247" lon="0.807130001485348">
        <ele>207.78</ele>
        <time>2025-05-14T08:59:10Z</time>
      </trkpt>
      <trkpt lat="41.78389904089272" lon="0.807130001485348">
        <ele>207.30000000000001</ele>
        <time>2025-05-14T08:59:11Z</time>
      </trkpt>
      <trkpt lat="41.783781023696065" lon="0.807180963456631">
        <ele>207.30000000000001</ele>
        <time>2025-05-14T08:59:12Z</time>
      </trkpt>
      <trkpt lat="41.783669963479042" lon="0.807251036167145">
        <ele>207.78</ele>
        <time>2025-05-14T08:59:13Z</time>
      </trkpt>
      <trkpt lat="41.783583965152502" lon="0.807351032271981">
        <ele>208.25999999999999</ele>
        <time>2025-05-14T08:59:14Z</time>
      </trkpt>
      <trkpt lat="41.783533003181219" lon="0.807486986741424">
        <ele>208.74000000000001</ele>
        <time>2025-05-14T08:59:15Z</time>
      </trkpt>
      <trkpt lat="41.783516993746161" lon="0.807639034464955">
        <ele>209.22</ele>
        <time>2025-05-14T08:59:16Z</time>
      </trkpt>
      <trkpt lat="41.783564016222954" lon="0.807768031954765">
        <ele>210.19</ele>
        <time>2025-05-14T08:59:17Z</time>
      </trkpt>
      <trkpt lat="41.783608021214604" lon="0.807883031666279">
        <ele>210.66999999999999</ele>
        <time>2025-05-14T08:59:18Z</time>
      </trkpt>
      <trkpt lat="41.783654037863016" lon="0.807959977537394">
        <ele>211.63</ele>
        <time>2025-05-14T08:59:19Z</time>
      </trkpt>
      <trkpt lat="41.783713968470693" lon="0.808031978085637">
        <ele>212.59</ele>
        <time>2025-05-14T08:59:20Z</time>
      </trkpt>
      <trkpt lat="41.783782029524446" lon="0.808110013604164">
        <ele>213.06999999999999</ele>
        <time>2025-05-14T08:59:21Z</time>
      </trkpt>
      <trkpt lat="41.784012028947473" lon="0.808398015797138">
        <ele>214.03</ele>
        <time>2025-05-14T08:59:24Z</time>
      </trkpt>
      <trkpt lat="41.78409299813211" lon="0.808506980538368">
        <ele>214.50999999999999</ele>
        <time>2025-05-14T08:59:25Z</time>
      </trkpt>
      <trkpt lat="41.784149995073676" lon="0.808629021048546">
        <ele>214.99000000000001</ele>
        <time>2025-05-14T08:59:26Z</time>
      </trkpt>
      <trkpt lat="41.784181008115411" lon="0.808793976902962">
        <ele>215.47</ele>
        <time>2025-05-14T08:59:27Z</time>
      </trkpt>
      <trkpt lat="41.784214032813907" lon="0.808969996869564">
        <ele>215.94999999999999</ele>
        <time>2025-05-14T08:59:28Z</time>
      </trkpt>
      <trkpt lat="41.78424596786499" lon="0.809174012392759">
        <ele>215.94999999999999</ele>
        <time>2025-05-14T08:59:29Z</time>
      </trkpt>
      <trkpt lat="41.78409400396049" lon="0.811107968911529">
        <ele>215.47</ele>
        <time>2025-05-14T08:59:37Z</time>
      </trkpt>
      <trkpt lat="41.783788986504078" lon="0.814710007980466">
        <ele>220.28</ele>
        <time>2025-05-14T08:59:50Z</time>
      </trkpt>
      <trkpt lat="41.783390007913113" lon="0.817529009655118">
        <ele>228.93000000000001</ele>
        <time>2025-05-14T09:00:01Z</time>
      </trkpt>
      <trkpt lat="41.78321298211813" lon="0.820682030171156">
        <ele>236.13999999999999</ele>
        <time>2025-05-14T09:00:13Z</time>
      </trkpt>
      <trkpt lat="41.783065041527152" lon="0.823375973850489">
        <ele>243.83000000000001</ele>
        <time>2025-05-14T09:00:23Z</time>
      </trkpt>
      <trkpt lat="41.782966973260045" lon="0.826346017420292">
        <ele>246.22999999999999</ele>
        <time>2025-05-14T09:00:34Z</time>
      </trkpt>
      <trkpt lat="41.782918022945523" lon="0.827371040359139">
        <ele>247.19999999999999</ele>
        <time>2025-05-14T09:00:40Z</time>
      </trkpt>
      <trkpt lat="41.78291299380362" lon="0.827451003715396">
        <ele>247.19999999999999</ele>
        <time>2025-05-14T09:00:41Z</time>
      </trkpt>
      <trkpt lat="41.783017013221979" lon="0.827426025643945">
        <ele>246.72</ele>
        <time>2025-05-14T09:00:42Z</time>
      </trkpt>
      <trkpt lat="41.783099994063377" lon="0.827441029250622">
        <ele>246.22999999999999</ele>
        <time>2025-05-14T09:00:43Z</time>
      </trkpt>
      <trkpt lat="41.783200995996594" lon="0.827459972351789">
        <ele>245.75</ele>
        <time>2025-05-14T09:00:44Z</time>
      </trkpt>
      <trkpt lat="41.78331901319325" lon="0.827484028413892">
        <ele>245.27000000000001</ele>
        <time>2025-05-14T09:00:45Z</time>
      </trkpt>
      <trkpt lat="41.783451028168201" lon="0.827510012313724">
        <ele>244.78999999999999</ele>
        <time>2025-05-14T09:00:46Z</time>
      </trkpt>
      <trkpt lat="41.783583965152502" lon="0.827534990385175">
        <ele>243.83000000000001</ele>
        <time>2025-05-14T09:00:47Z</time>
      </trkpt>
      <trkpt lat="41.783714974299073" lon="0.827476987615228">
        <ele>243.34999999999999</ele>
        <time>2025-05-14T09:00:48Z</time>
      </trkpt>
      <trkpt lat="41.783817987889051" lon="0.827401969581842">
        <ele>242.87</ele>
        <time>2025-05-14T09:00:49Z</time>
      </trkpt>
      <trkpt lat="41.783897029235959" lon="0.827314965426922">
        <ele>241.91</ele>
        <time>2025-05-14T09:00:50Z</time>
      </trkpt>
      <trkpt lat="41.783968023955822" lon="0.827236007899046">
        <ele>240.94999999999999</ele>
        <time>2025-05-14T09:00:51Z</time>
      </trkpt>
      <trkpt lat="41.784023009240627" lon="0.827172975987196">
        <ele>240.47</ele>
        <time>2025-05-14T09:00:52Z</time>
      </trkpt>
      <trkpt lat="41.78407296538353" lon="0.827114973217249">
        <ele>239.99000000000001</ele>
        <time>2025-05-14T09:00:53Z</time>
      </trkpt>
      <trkpt lat="41.784130968153477" lon="0.827056970447302">
        <ele>239.50999999999999</ele>
        <time>2025-05-14T09:00:54Z</time>
      </trkpt>
      <trkpt lat="41.784194000065327" lon="0.827021012082696">
        <ele>239.50999999999999</ele>
        <time>2025-05-14T09:00:55Z</time>
      </trkpt>
      <trkpt lat="41.784271029755473" lon="0.826970972120762">
        <ele>239.50999999999999</ele>
        <time>2025-05-14T09:00:56Z</time>
      </trkpt>
      <trkpt lat="41.784306988120079" lon="0.826881034299731">
        <ele>239.50999999999999</ele>
        <time>2025-05-14T09:00:57Z</time>
      </trkpt>
      <trkpt lat="41.784389968961477" lon="0.826853038743138">
        <ele>239.02000000000001</ele>
        <time>2025-05-14T09:00:58Z</time>
      </trkpt>
      <trkpt lat="41.784489965066314" lon="0.826828982681036">
        <ele>239.02000000000001</ele>
        <time>2025-05-14T09:00:59Z</time>
      </trkpt>
      <trkpt lat="41.784594990313053" lon="0.826804004609585">
        <ele>238.53999999999999</ele>
        <time>2025-05-14T09:01:00Z</time>
      </trkpt>
      <trkpt lat="41.784725999459624" lon="0.826821019873023">
        <ele>238.53999999999999</ele>
        <time>2025-05-14T09:01:01Z</time>
      </trkpt>
      <trkpt lat="41.784843010827899" lon="0.82690198905766">
        <ele>238.53999999999999</ele>
        <time>2025-05-14T09:01:02Z</time>
      </trkpt>
      <trkpt lat="41.786039024591446" lon="0.827683014795184">
        <ele>239.99000000000001</ele>
        <time>2025-05-14T09:01:12Z</time>
      </trkpt>
      <trkpt lat="41.786116976290941" lon="0.827784016728401">
        <ele>239.99000000000001</ele>
        <time>2025-05-14T09:01:13Z</time>
      </trkpt>
      <trkpt lat="41.786187971010804" lon="0.827874960377812">
        <ele>239.99000000000001</ele>
        <time>2025-05-14T09:01:14Z</time>
      </trkpt>
      <trkpt lat="41.786292996257544" lon="0.828075036406517">
        <ele>240.47</ele>
        <time>2025-05-14T09:01:16Z</time>
      </trkpt>
      <trkpt lat="41.786359967663884" lon="0.828129015862942">
        <ele>240.47</ele>
        <time>2025-05-14T09:01:17Z</time>
      </trkpt>
      <trkpt lat="41.786432974040508" lon="0.828158017247915">
        <ele>240.47</ele>
        <time>2025-05-14T09:01:18Z</time>
      </trkpt>
      <trkpt lat="41.786520984023809" lon="0.828159023076296">
        <ele>240.94999999999999</ele>
        <time>2025-05-14T09:01:19Z</time>
      </trkpt>
      <trkpt lat="41.786599019542336" lon="0.828185006976128">
        <ele>240.94999999999999</ele>
        <time>2025-05-14T09:01:20Z</time>
      </trkpt>
      <trkpt lat="41.78669398650527" lon="0.828217025846243">
        <ele>240.94999999999999</ele>
        <time>2025-05-14T09:01:21Z</time>
      </trkpt>
      <trkpt lat="41.786792976781726" lon="0.828276034444571">
        <ele>240.94999999999999</ele>
        <time>2025-05-14T09:01:22Z</time>
      </trkpt>
      <trkpt lat="41.786906970664859" lon="0.828351974487305">
        <ele>240.94999999999999</ele>
        <time>2025-05-14T09:01:23Z</time>
      </trkpt>
      <trkpt lat="41.786993974819779" lon="0.828437972813845">
        <ele>241.43000000000001</ele>
        <time>2025-05-14T09:01:24Z</time>
      </trkpt>
      <trkpt lat="41.78779000416398" lon="0.829298961907625">
        <ele>242.38999999999999</ele>
        <time>2025-05-14T09:01:34Z</time>
      </trkpt>
      <trkpt lat="41.788290990516543" lon="0.829769019037485">
        <ele>243.34999999999999</ele>
        <time>2025-05-14T09:01:46Z</time>
      </trkpt>
      <trkpt lat="41.788494000211358" lon="0.829959958791733">
        <ele>243.83000000000001</ele>
        <time>2025-05-14T09:01:55Z</time>
      </trkpt>
      <trkpt lat="41.788494000211358" lon="0.829959958791733">
        <ele>243.83000000000001</ele>
        <time>2025-05-14T09:02:37Z</time>
      </trkpt>
      <trkpt lat="41.788593996316195" lon="0.83006096072495">
        <ele>243.83000000000001</ele>
        <time>2025-05-14T09:02:40Z</time>
      </trkpt>
      <trkpt lat="41.789081990718842" lon="0.830540992319584">
        <ele>243.34999999999999</ele>
        <time>2025-05-14T09:02:45Z</time>
      </trkpt>
      <trkpt lat="41.790241962298751" lon="0.831682020798326">
        <ele>241.91</ele>
        <time>2025-05-14T09:02:52Z</time>
      </trkpt>
      <trkpt lat="41.792586967349052" lon="0.83405502140522">
        <ele>243.34999999999999</ele>
        <time>2025-05-14T09:03:05Z</time>
      </trkpt>
      <trkpt lat="41.794064026325941" lon="0.835883030667901">
        <ele>247.68000000000001</ele>
        <time>2025-05-14T09:03:14Z</time>
      </trkpt>
      <trkpt lat="41.79646803997457" lon="0.839021969586611">
        <ele>265.94</ele>
        <time>2025-05-14T09:03:29Z</time>
      </trkpt>
      <trkpt lat="41.797802019864321" lon="0.840669013559818">
        <ele>267.38</ele>
        <time>2025-05-14T09:03:37Z</time>
      </trkpt>
      <trkpt lat="41.79799203760922" lon="0.840832041576505">
        <ele>266.89999999999998</ele>
        <time>2025-05-14T09:03:38Z</time>
      </trkpt>
      <trkpt lat="41.800025990232825" lon="0.842008022591472">
        <ele>256.32999999999998</ele>
        <time>2025-05-14T09:03:48Z</time>
      </trkpt>
      <trkpt lat="41.800774997100234" lon="0.84236903116107">
        <ele>249.59999999999999</ele>
        <time>2025-05-14T09:03:54Z</time>
      </trkpt>
      <trkpt lat="41.800965014845133" lon="0.842546978965402">
        <ele>247.19999999999999</ele>
        <time>2025-05-14T09:03:56Z</time>
      </trkpt>
      <trkpt lat="41.801056964322925" lon="0.842633983120322">
        <ele>246.22999999999999</ele>
        <time>2025-05-14T09:03:57Z</time>
      </trkpt>
      <trkpt lat="41.801141034811735" lon="0.842732973396778">
        <ele>245.75</ele>
        <time>2025-05-14T09:03:58Z</time>
      </trkpt>
      <trkpt lat="41.801212029531598" lon="0.842847973108292">
        <ele>244.78999999999999</ele>
        <time>2025-05-14T09:03:59Z</time>
      </trkpt>
      <trkpt lat="41.801288975402713" lon="0.842977976426482">
        <ele>244.31</ele>
        <time>2025-05-14T09:04:00Z</time>
      </trkpt>
      <trkpt lat="41.801351001486182" lon="0.843139998614788">
        <ele>243.34999999999999</ele>
        <time>2025-05-14T09:04:01Z</time>
      </trkpt>
      <trkpt lat="41.801851987838745" lon="0.844608005136251">
        <ele>239.02000000000001</ele>
        <time>2025-05-14T09:04:08Z</time>
      </trkpt>
      <trkpt lat="41.802021972835064" lon="0.845016958191991">
        <ele>238.53999999999999</ele>
        <time>2025-05-14T09:04:10Z</time>
      </trkpt>
      <trkpt lat="41.802134960889816" lon="0.845189038664103">
        <ele>238.06</ele>
        <time>2025-05-14T09:04:11Z</time>
      </trkpt>
      <trkpt lat="41.80227099917829" lon="0.845322981476784">
        <ele>238.06</ele>
        <time>2025-05-14T09:04:12Z</time>
      </trkpt>
      <trkpt lat="41.802418017759919" lon="0.845430018380284">
        <ele>238.53999999999999</ele>
        <time>2025-05-14T09:04:13Z</time>
      </trkpt>
      <trkpt lat="41.802578028291464" lon="0.845490032806993">
        <ele>238.53999999999999</ele>
        <time>2025-05-14T09:04:14Z</time>
      </trkpt>
      <trkpt lat="41.802738960832357" lon="0.84554904140532">
        <ele>238.53999999999999</ele>
        <time>2025-05-14T09:04:15Z</time>
      </trkpt>
      <trkpt lat="41.802905006334186" lon="0.845592962577939">
        <ele>238.53999999999999</ele>
        <time>2025-05-14T09:04:16Z</time>
      </trkpt>
      <trkpt lat="41.803080020472407" lon="0.8455949742347">
        <ele>238.53999999999999</ele>
        <time>2025-05-14T09:04:17Z</time>
      </trkpt>
      <trkpt lat="41.803256962448359" lon="0.845579970628023">
        <ele>238.53999999999999</ele>
        <time>2025-05-14T09:04:18Z</time>
      </trkpt>
      <trkpt lat="41.804162040352821" lon="0.845521967858076">
        <ele>238.06</ele>
        <time>2025-05-14T09:04:23Z</time>
      </trkpt>
      <trkpt lat="41.804338982328773" lon="0.845547029748559">
        <ele>237.58000000000001</ele>
        <time>2025-05-14T09:04:24Z</time>
      </trkpt>
      <trkpt lat="41.804510978981853" lon="0.845621963962913">
        <ele>237.58000000000001</ele>
        <time>2025-05-14T09:04:25Z</time>
      </trkpt>
      <trkpt lat="41.804652968421578" lon="0.845754984766245">
        <ele>238.06</ele>
        <time>2025-05-14T09:04:26Z</time>
      </trkpt>
      <trkpt lat="41.804780038073659" lon="0.845902003347874">
        <ele>238.06</ele>
        <time>2025-05-14T09:04:27Z</time>
      </trkpt>
      <trkpt lat="41.804868970066309" lon="0.846080034971237">
        <ele>238.06</ele>
        <time>2025-05-14T09:04:28Z</time>
      </trkpt>
      <trkpt lat="41.804954968392849" lon="0.846251025795937">
        <ele>238.53999999999999</ele>
        <time>2025-05-14T09:04:29Z</time>
      </trkpt>
      <trkpt lat="41.805035015568137" lon="0.846411036327481">
        <ele>238.53999999999999</ele>
        <time>2025-05-14T09:04:30Z</time>
      </trkpt>
      <trkpt lat="41.805754015222192" lon="0.847917012870312">
        <ele>240.47</ele>
        <time>2025-05-14T09:04:39Z</time>
      </trkpt>
      <trkpt lat="41.806980958208442" lon="0.850668037310243">
        <ele>243.83000000000001</ele>
        <time>2025-05-14T09:04:52Z</time>
      </trkpt>
      <trkpt lat="41.808223994448781" lon="0.854193968698382">
        <ele>244.78999999999999</ele>
        <time>2025-05-14T09:05:05Z</time>
      </trkpt>
      <trkpt lat="41.808467991650105" lon="0.855030985549092">
        <ele>245.27000000000001</ele>
        <time>2025-05-14T09:05:08Z</time>
      </trkpt>
      <trkpt lat="41.808511996641755" lon="0.855323011055589">
        <ele>245.75</ele>
        <time>2025-05-14T09:05:09Z</time>
      </trkpt>
      <trkpt lat="41.808829000219703" lon="0.858624977990985">
        <ele>242.38999999999999</ele>
        <time>2025-05-14T09:05:20Z</time>
      </trkpt>
      <trkpt lat="41.809491002932191" lon="0.861123958602548">
        <ele>240.94999999999999</ele>
        <time>2025-05-14T09:05:29Z</time>
      </trkpt>
      <trkpt lat="41.80985301733017" lon="0.862345034256577">
        <ele>241.91</ele>
        <time>2025-05-14T09:05:35Z</time>
      </trkpt>
      <trkpt lat="41.810657009482384" lon="0.8651880081743">
        <ele>243.83000000000001</ele>
        <time>2025-05-14T09:05:48Z</time>
      </trkpt>
      <trkpt lat="41.811610031872988" lon="0.868782000616193">
        <ele>249.59999999999999</ele>
        <time>2025-05-14T09:06:04Z</time>
      </trkpt>
      <trkpt lat="41.811767024919391" lon="0.870727021247149">
        <ele>256.81</ele>
        <time>2025-05-14T09:06:12Z</time>
      </trkpt>
      <trkpt lat="41.811856962740421" lon="0.873113013803959">
        <ele>260.17000000000002</ele>
        <time>2025-05-14T09:06:24Z</time>
      </trkpt>
      <trkpt lat="41.81187397800386" lon="0.873500006273389">
        <ele>261.62</ele>
        <time>2025-05-14T09:06:31Z</time>
      </trkpt>
      <trkpt lat="41.81187397800386" lon="0.873500006273389">
        <ele>261.62</ele>
        <time>2025-05-14T09:07:15Z</time>
      </trkpt>
      <trkpt lat="41.811875989660621" lon="0.873558009043336">
        <ele>261.62</ele>
        <time>2025-05-14T09:08:08Z</time>
      </trkpt>
      <trkpt lat="41.811914965510368" lon="0.874210959300399">
        <ele>261.13999999999999</ele>
        <time>2025-05-14T09:08:14Z</time>
      </trkpt>
      <trkpt lat="41.812082016840577" lon="0.875353999435902">
        <ele>262.10000000000002</ele>
        <time>2025-05-14T09:08:20Z</time>
      </trkpt>
      <trkpt lat="41.812147982418537" lon="0.875562960281968">
        <ele>262.10000000000002</ele>
        <time>2025-05-14T09:08:21Z</time>
      </trkpt>
      <trkpt lat="41.81299296207726" lon="0.877460036426783">
        <ele>261.13999999999999</ele>
        <time>2025-05-14T09:08:30Z</time>
      </trkpt>
      <trkpt lat="41.814276985824108" lon="0.880106035619974">
        <ele>260.64999999999998</ele>
        <time>2025-05-14T09:08:42Z</time>
      </trkpt>
      <trkpt lat="41.815691012889147" lon="0.883180014789104">
        <ele>260.64999999999998</ele>
        <time>2025-05-14T09:08:55Z</time>
      </trkpt>
      <trkpt lat="41.816267017275095" lon="0.885497024282813">
        <ele>262.57999999999998</ele>
        <time>2025-05-14T09:09:04Z</time>
      </trkpt>
      <trkpt lat="41.8170300219208" lon="0.888454997912049">
        <ele>267.38</ele>
        <time>2025-05-14T09:09:15Z</time>
      </trkpt>
      <trkpt lat="41.818064013496041" lon="0.889924010261893">
        <ele>270.26999999999998</ele>
        <time>2025-05-14T09:09:22Z</time>
      </trkpt>
      <trkpt lat="41.820759968832135" lon="0.893241986632347">
        <ele>277.48000000000002</ele>
        <time>2025-05-14T09:09:39Z</time>
      </trkpt>
      <trkpt lat="41.821926981210709" lon="0.895294966176152">
        <ele>281.31999999999999</ele>
        <time>2025-05-14T09:09:48Z</time>
      </trkpt>
      <trkpt lat="41.823461959138513" lon="0.897317016497254">
        <ele>286.13</ele>
        <time>2025-05-14T09:09:58Z</time>
      </trkpt>
      <trkpt lat="41.824995009228587" lon="0.899312999099493">
        <ele>291.42000000000002</ele>
        <time>2025-05-14T09:10:08Z</time>
      </trkpt>
      <trkpt lat="41.826150035485625" lon="0.901738973334432">
        <ele>301.50999999999999</ele>
        <time>2025-05-14T09:10:18Z</time>
      </trkpt>
      <trkpt lat="41.828172001987696" lon="0.906161013990641">
        <ele>321.69999999999999</ele>
        <time>2025-05-14T09:10:36Z</time>
      </trkpt>
      <trkpt lat="41.829590974375606" lon="0.909085040912032">
        <ele>328.91000000000003</ele>
        <time>2025-05-14T09:10:48Z</time>
      </trkpt>
      <trkpt lat="41.830856977030635" lon="0.910667963325977">
        <ele>323.62</ele>
        <time>2025-05-14T09:10:56Z</time>
      </trkpt>
      <trkpt lat="41.832306962460279" lon="0.912379967048764">
        <ele>314.49000000000001</ele>
        <time>2025-05-14T09:11:05Z</time>
      </trkpt>
      <trkpt lat="41.834728997200727" lon="0.915200980380178">
        <ele>314.49000000000001</ele>
        <time>2025-05-14T09:11:20Z</time>
      </trkpt>
      <trkpt lat="41.835643965750933" lon="0.916781974956393">
        <ele>319.77999999999997</ele>
        <time>2025-05-14T09:11:27Z</time>
      </trkpt>
      <trkpt lat="41.836419040337205" lon="0.919479019939899">
        <ele>326.5</ele>
        <time>2025-05-14T09:11:37Z</time>
      </trkpt>
      <trkpt lat="41.837238958105445" lon="0.921816984191537">
        <ele>330.82999999999998</ele>
        <time>2025-05-14T09:11:46Z</time>
      </trkpt>
      <trkpt lat="41.838931012898684" lon="0.924789039418101">
        <ele>339.95999999999998</ele>
        <time>2025-05-14T09:11:59Z</time>
      </trkpt>
      <trkpt lat="41.840616026893258" lon="0.927781965583563">
        <ele>350.54000000000002</ele>
        <time>2025-05-14T09:12:12Z</time>
      </trkpt>
      <trkpt lat="41.843205029144883" lon="0.932379020377994">
        <ele>364.48000000000002</ele>
        <time>2025-05-14T09:12:32Z</time>
      </trkpt>
      <trkpt lat="41.845105038955808" lon="0.935866981744766">
        <ele>377.44999999999999</ele>
        <time>2025-05-14T09:12:47Z</time>
      </trkpt>
      <trkpt lat="41.845508040860295" lon="0.937489969655871">
        <ele>382.74000000000001</ele>
        <time>2025-05-14T09:12:53Z</time>
      </trkpt>
      <trkpt lat="41.845496976748109" lon="0.940105961635709">
        <ele>386.11000000000001</ele>
        <time>2025-05-14T09:13:02Z</time>
      </trkpt>
      <trkpt lat="41.845677020028234" lon="0.942659005522728">
        <ele>387.55000000000001</ele>
        <time>2025-05-14T09:13:11Z</time>
      </trkpt>
      <trkpt lat="41.846757028251886" lon="0.946414014324546">
        <ele>393.31999999999999</ele>
        <time>2025-05-14T09:13:25Z</time>
      </trkpt>
      <trkpt lat="41.847354993224144" lon="0.948234982788563">
        <ele>398.60000000000002</ele>
        <time>2025-05-14T09:13:32Z</time>
      </trkpt>
      <trkpt lat="41.847457000985742" lon="0.948478979989886">
        <ele>399.56999999999999</ele>
        <time>2025-05-14T09:13:33Z</time>
      </trkpt>
      <trkpt lat="41.847576024010777" lon="0.948719959706068">
        <ele>401.00999999999999</ele>
        <time>2025-05-14T09:13:34Z</time>
      </trkpt>
      <trkpt lat="41.847746009007096" lon="0.948900002986193">
        <ele>402.44999999999999</ele>
        <time>2025-05-14T09:13:35Z</time>
      </trkpt>
      <trkpt lat="41.847920017316937" lon="0.94906403683126">
        <ele>403.88999999999999</ele>
        <time>2025-05-14T09:13:36Z</time>
      </trkpt>
      <trkpt lat="41.848104000091553" lon="0.949206026270986">
        <ele>405.32999999999998</ele>
        <time>2025-05-14T09:13:37Z</time>
      </trkpt>
      <trkpt lat="41.848294017836452" lon="0.949327982962132">
        <ele>406.76999999999998</ele>
        <time>2025-05-14T09:13:38Z</time>
      </trkpt>
      <trkpt lat="41.848499039188027" lon="0.949427979066968">
        <ele>408.69999999999999</ele>
        <time>2025-05-14T09:13:39Z</time>
      </trkpt>
      <trkpt lat="41.848705988377333" lon="0.949464021250606">
        <ele>410.13999999999999</ele>
        <time>2025-05-14T09:13:40Z</time>
      </trkpt>
      <trkpt lat="41.848918972536922" lon="0.949499979615211">
        <ele>412.06</ele>
        <time>2025-05-14T09:13:41Z</time>
      </trkpt>
      <trkpt lat="41.850840020924807" lon="0.949760992079973">
        <ele>427.92000000000002</ele>
        <time>2025-05-14T09:13:50Z</time>
      </trkpt>
      <trkpt lat="41.851818021386862" lon="0.95033397898078">
        <ele>436.57999999999998</ele>
        <time>2025-05-14T09:13:55Z</time>
      </trkpt>
      <trkpt lat="41.851988006383181" lon="0.950504969805479">
        <ele>438.5</ele>
        <time>2025-05-14T09:13:56Z</time>
      </trkpt>
      <trkpt lat="41.852149022743106" lon="0.950690964236856">
        <ele>439.94</ele>
        <time>2025-05-14T09:13:57Z</time>
      </trkpt>
      <trkpt lat="41.852279026061296" lon="0.95091300085187">
        <ele>441.86000000000001</ele>
        <time>2025-05-14T09:13:58Z</time>
      </trkpt>
      <trkpt lat="41.852407017722726" lon="0.951138976961374">
        <ele>443.31</ele>
        <time>2025-05-14T09:13:59Z</time>
      </trkpt>
      <trkpt lat="41.852536015212536" lon="0.951365036889911">
        <ele>444.75</ele>
        <time>2025-05-14T09:14:00Z</time>
      </trkpt>
      <trkpt lat="41.852646991610527" lon="0.951606016606092">
        <ele>445.70999999999998</ele>
        <time>2025-05-14T09:14:01Z</time>
      </trkpt>
      <trkpt lat="41.852733995765448" lon="0.951867029070854">
        <ele>447.14999999999998</ele>
        <time>2025-05-14T09:14:02Z</time>
      </trkpt>
      <trkpt lat="41.852800967171788" lon="0.952129969373345">
        <ele>448.11000000000001</ele>
        <time>2025-05-14T09:14:03Z</time>
      </trkpt>
      <trkpt lat="41.853138003498316" lon="0.953641980886459">
        <ele>456.27999999999997</ele>
        <time>2025-05-14T09:14:10Z</time>
      </trkpt>
      <trkpt lat="41.853192988783121" lon="0.953998966142535">
        <ele>458.20999999999998</ele>
        <time>2025-05-14T09:14:12Z</time>
      </trkpt>
      <trkpt lat="41.85321100987494" lon="0.954174986109138">
        <ele>459.17000000000002</ele>
        <time>2025-05-14T09:14:13Z</time>
      </trkpt>
      <trkpt lat="41.85321100987494" lon="0.955111999064684">
        <ele>463.97000000000003</ele>
        <time>2025-05-14T09:14:19Z</time>
      </trkpt>
      <trkpt lat="41.85321100987494" lon="0.955249965190887">
        <ele>464.93000000000001</ele>
        <time>2025-05-14T09:14:20Z</time>
      </trkpt>
      <trkpt lat="41.85321100987494" lon="0.95538298599422">
        <ele>465.42000000000002</ele>
        <time>2025-05-14T09:14:21Z</time>
      </trkpt>
      <trkpt lat="41.853173039853573" lon="0.95671302638948">
        <ele>470.69999999999999</ele>
        <time>2025-05-14T09:14:32Z</time>
      </trkpt>
      <trkpt lat="41.853159964084625" lon="0.957306968048215">
        <ele>472.63</ele>
        <time>2025-05-14T09:14:37Z</time>
      </trkpt>
      <trkpt lat="41.853155018761754" lon="0.957418028265238">
        <ele>472.63</ele>
        <time>2025-05-14T09:14:38Z</time>
      </trkpt>
      <trkpt lat="41.853009006008506" lon="0.958725018426776">
        <ele>472.63</ele>
        <time>2025-05-14T09:14:47Z</time>
      </trkpt>
      <trkpt lat="41.852939017117023" lon="0.960546992719173">
        <ele>463.49000000000001</ele>
        <time>2025-05-14T09:14:56Z</time>
      </trkpt>
      <trkpt lat="41.853318968787789" lon="0.961990021169186">
        <ele>454.36000000000001</ele>
        <time>2025-05-14T09:15:02Z</time>
      </trkpt>
      <trkpt lat="41.854352038353682" lon="0.964785972610116">
        <ele>447.63</ele>
        <time>2025-05-14T09:15:13Z</time>
      </trkpt>
      <trkpt lat="41.856063036248088" lon="0.969425020739436">
        <ele>448.58999999999997</ele>
        <time>2025-05-14T09:15:31Z</time>
      </trkpt>
      <trkpt lat="41.857827007770538" lon="0.974373025819659">
        <ele>452.92000000000002</ele>
        <time>2025-05-14T09:15:50Z</time>
      </trkpt>
      <trkpt lat="41.858667964115739" lon="0.977643979713321">
        <ele>454.83999999999997</ele>
        <time>2025-05-14T09:16:02Z</time>
      </trkpt>
      <trkpt lat="41.859989035874605" lon="0.98311903886497">
        <ele>458.69</ele>
        <time>2025-05-14T09:16:22Z</time>
      </trkpt>
      <trkpt lat="41.860996959730983" lon="0.987577959895134">
        <ele>451.95999999999998</ele>
        <time>2025-05-14T09:16:38Z</time>
      </trkpt>
      <trkpt lat="41.861709002405405" lon="0.990614974871278">
        <ele>439.94</ele>
        <time>2025-05-14T09:16:49Z</time>
      </trkpt>
      <trkpt lat="41.863327967002988" lon="0.994972977787256">
        <ele>428.39999999999998</ele>
        <time>2025-05-14T09:17:06Z</time>
      </trkpt>
      <trkpt lat="41.864983979612589" lon="0.999343972653151">
        <ele>424.56</ele>
        <time>2025-05-14T09:17:23Z</time>
      </trkpt>
      <trkpt lat="41.866800002753735" lon="1.003656964749098">
        <ele>407.74000000000001</ele>
        <time>2025-05-14T09:17:40Z</time>
      </trkpt>
      <trkpt lat="41.868902016431093" lon="1.008683005347848">
        <ele>388.99000000000001</ele>
        <time>2025-05-14T09:18:00Z</time>
      </trkpt>
      <trkpt lat="41.869644988328218" lon="1.011062040925026">
        <ele>385.63</ele>
        <time>2025-05-14T09:18:09Z</time>
      </trkpt>
      <trkpt lat="41.87087100930512" lon="1.016021026298404">
        <ele>375.52999999999997</ele>
        <time>2025-05-14T09:18:27Z</time>
      </trkpt>
      <trkpt lat="41.872004996985197" lon="1.019435981288552">
        <ele>370.24000000000001</ele>
        <time>2025-05-14T09:18:40Z</time>
      </trkpt>
      <trkpt lat="41.872084960341454" lon="1.0202900134027">
        <ele>368.80000000000001</ele>
        <time>2025-05-14T09:18:43Z</time>
      </trkpt>
      <trkpt lat="41.872074985876679" lon="1.020576003938913">
        <ele>368.31999999999999</ele>
        <time>2025-05-14T09:18:44Z</time>
      </trkpt>
      <trkpt lat="41.872049001976848" lon="1.020859982818365">
        <ele>367.36000000000001</ele>
        <time>2025-05-14T09:18:45Z</time>
      </trkpt>
      <trkpt lat="41.871751025319099" lon="1.02374603971839">
        <ele>364.95999999999998</ele>
        <time>2025-05-14T09:18:55Z</time>
      </trkpt>
      <trkpt lat="41.872015977278352" lon="1.026281984522939">
        <ele>368.80000000000001</ele>
        <time>2025-05-14T09:19:04Z</time>
      </trkpt>
      <trkpt lat="41.872726008296013" lon="1.031120019033551">
        <ele>365.44</ele>
        <time>2025-05-14T09:19:21Z</time>
      </trkpt>
      <trkpt lat="41.873061032965779" lon="1.032769996672869">
        <ele>361.58999999999997</ele>
        <time>2025-05-14T09:19:27Z</time>
      </trkpt>
      <trkpt lat="41.873154994100332" lon="1.033025979995728">
        <ele>361.11000000000001</ele>
        <time>2025-05-14T09:19:28Z</time>
      </trkpt>
      <trkpt lat="41.873248033225536" lon="1.033280035480857">
        <ele>360.63</ele>
        <time>2025-05-14T09:19:29Z</time>
      </trkpt>
      <trkpt lat="41.873383987694979" lon="1.033497964963317">
        <ele>360.14999999999998</ele>
        <time>2025-05-14T09:19:30Z</time>
      </trkpt>
      <trkpt lat="41.873522959649563" lon="1.033712038770318">
        <ele>359.67000000000002</ele>
        <time>2025-05-14T09:19:31Z</time>
      </trkpt>
      <trkpt lat="41.873666038736701" lon="1.033931979909539">
        <ele>359.67000000000002</ele>
        <time>2025-05-14T09:19:32Z</time>
      </trkpt>
      <trkpt lat="41.873818002641201" lon="1.034129038453102">
        <ele>359.67000000000002</ele>
        <time>2025-05-14T09:19:33Z</time>
      </trkpt>
      <trkpt lat="41.875476026907563" lon="1.035945983603597">
        <ele>364</ele>
        <time>2025-05-14T09:19:43Z</time>
      </trkpt>
      <trkpt lat="41.877865958958864" lon="1.038487041369081">
        <ele>369.75999999999999</ele>
        <time>2025-05-14T09:19:57Z</time>
      </trkpt>
      <trkpt lat="41.88000401481986" lon="1.040376992896199">
        <ele>373.13</ele>
        <time>2025-05-14T09:20:09Z</time>
      </trkpt>
      <trkpt lat="41.881122998893261" lon="1.041476028040052">
        <ele>376.97000000000003</ele>
        <time>2025-05-14T09:20:17Z</time>
      </trkpt>
      <trkpt lat="41.882032016292214" lon="1.042896006256342">
        <ele>377.94</ele>
        <time>2025-05-14T09:20:25Z</time>
      </trkpt>
      <trkpt lat="41.882137041538954" lon="1.043066997081041">
        <ele>377.94</ele>
        <time>2025-05-14T09:20:26Z</time>
      </trkpt>
      <trkpt lat="41.882278025150299" lon="1.043188031762838">
        <ele>377.94</ele>
        <time>2025-05-14T09:20:27Z</time>
      </trkpt>
      <trkpt lat="41.882422026246786" lon="1.043293979018927">
        <ele>377.94</ele>
        <time>2025-05-14T09:20:28Z</time>
      </trkpt>
      <trkpt lat="41.882582036778331" lon="1.043387018144131">
        <ele>377.44999999999999</ele>
        <time>2025-05-14T09:20:29Z</time>
      </trkpt>
      <trkpt lat="41.88275202177465" lon="1.04347201064229">
        <ele>377.44999999999999</ele>
        <time>2025-05-14T09:20:30Z</time>
      </trkpt>
      <trkpt lat="41.882898034527898" lon="1.043582987040281">
        <ele>376.97000000000003</ele>
        <time>2025-05-14T09:20:31Z</time>
      </trkpt>
      <trkpt lat="41.883038012310863" lon="1.043722964823246">
        <ele>376.97000000000003</ele>
        <time>2025-05-14T09:20:32Z</time>
      </trkpt>
      <trkpt lat="41.88316198065877" lon="1.043890016153455">
        <ele>376.49000000000001</ele>
        <time>2025-05-14T09:20:33Z</time>
      </trkpt>
      <trkpt lat="41.883283015340567" lon="1.04407399892807">
        <ele>376.00999999999999</ele>
        <time>2025-05-14T09:20:34Z</time>
      </trkpt>
      <trkpt lat="41.885007005184889" lon="1.046706000342965">
        <ele>366.88</ele>
        <time>2025-05-14T09:20:48Z</time>
      </trkpt>
      <trkpt lat="41.885855002328753" lon="1.048140982165933">
        <ele>359.67000000000002</ele>
        <time>2025-05-14T09:20:56Z</time>
      </trkpt>
      <trkpt lat="41.88634199090302" lon="1.048980010673404">
        <ele>354.86000000000001</ele>
        <time>2025-05-14T09:21:02Z</time>
      </trkpt>
      <trkpt lat="41.88638499006629" lon="1.049094004556537">
        <ele>353.89999999999998</ele>
        <time>2025-05-14T09:21:03Z</time>
      </trkpt>
      <trkpt lat="41.886364035308361" lon="1.049279998987913">
        <ele>353.42000000000002</ele>
        <time>2025-05-14T09:21:04Z</time>
      </trkpt>
      <trkpt lat="41.88649202696979" lon="1.049344958737493">
        <ele>352.45999999999998</ele>
        <time>2025-05-14T09:21:05Z</time>
      </trkpt>
      <trkpt lat="41.886508036404848" lon="1.049364991486073">
        <ele>351.5</ele>
        <time>2025-05-14T09:21:06Z</time>
      </trkpt>
      <trkpt lat="41.886574001982808" lon="1.049453001469374">
        <ele>351.01999999999998</ele>
        <time>2025-05-14T09:21:07Z</time>
      </trkpt>
      <trkpt lat="41.886648014187813" lon="1.049561966210604">
        <ele>350.54000000000002</ele>
        <time>2025-05-14T09:21:08Z</time>
      </trkpt>
      <trkpt lat="41.886724038049579" lon="1.049690963700414">
        <ele>349.57999999999998</ele>
        <time>2025-05-14T09:21:09Z</time>
      </trkpt>
      <trkpt lat="41.886807018890977" lon="1.049833036959171">
        <ele>349.10000000000002</ele>
        <time>2025-05-14T09:21:10Z</time>
      </trkpt>
      <trkpt lat="41.887376988306642" lon="1.050764014944434">
        <ele>344.76999999999998</ele>
        <time>2025-05-14T09:21:16Z</time>
      </trkpt>
      <trkpt lat="41.887486958876252" lon="1.050886977463961">
        <ele>343.81</ele>
        <time>2025-05-14T09:21:17Z</time>
      </trkpt>
      <trkpt lat="41.887616040185094" lon="1.050973981618881">
        <ele>342.85000000000002</ele>
        <time>2025-05-14T09:21:18Z</time>
      </trkpt>
      <trkpt lat="41.887750988826156" lon="1.051041036844254">
        <ele>341.88999999999999</ele>
        <time>2025-05-14T09:21:19Z</time>
      </trkpt>
      <trkpt lat="41.88789096660912" lon="1.051080012694001">
        <ele>340.92000000000002</ele>
        <time>2025-05-14T09:21:20Z</time>
      </trkpt>
      <trkpt lat="41.888034967705607" lon="1.051070038229227">
        <ele>340.44</ele>
        <time>2025-05-14T09:21:21Z</time>
      </trkpt>
      <trkpt lat="41.888170000165701" lon="1.051058974117041">
        <ele>339.48000000000002</ele>
        <time>2025-05-14T09:21:22Z</time>
      </trkpt>
      <trkpt lat="41.888300003483891" lon="1.050998959690332">
        <ele>338.51999999999998</ele>
        <time>2025-05-14T09:21:23Z</time>
      </trkpt>
      <trkpt lat="41.888422966003418" lon="1.050941962748766">
        <ele>337.56</ele>
        <time>2025-05-14T09:21:24Z</time>
      </trkpt>
      <trkpt lat="41.888631004840136" lon="1.050770971924067">
        <ele>335.63999999999999</ele>
        <time>2025-05-14T09:21:26Z</time>
      </trkpt>
      <trkpt lat="41.889562988653779" lon="1.049929009750485">
        <ele>327.47000000000003</ele>
        <time>2025-05-14T09:21:36Z</time>
      </trkpt>
      <trkpt lat="41.889661978930235" lon="1.049909982830286">
        <ele>326.5</ele>
        <time>2025-05-14T09:21:37Z</time>
      </trkpt>
      <trkpt lat="41.889760969206691" lon="1.049929009750485">
        <ele>325.54000000000002</ele>
        <time>2025-05-14T09:21:38Z</time>
      </trkpt>
      <trkpt lat="41.889861971139908" lon="1.04995901696384">
        <ele>325.06</ele>
        <time>2025-05-14T09:21:39Z</time>
      </trkpt>
      <trkpt lat="41.889962973073125" lon="1.050019031390548">
        <ele>324.57999999999998</ele>
        <time>2025-05-14T09:21:40Z</time>
      </trkpt>
      <trkpt lat="41.890065986663103" lon="1.050080973654985">
        <ele>324.10000000000002</ele>
        <time>2025-05-14T09:21:41Z</time>
      </trkpt>
      <trkpt lat="41.89066001214087" lon="1.05041298083961">
        <ele>323.62</ele>
        <time>2025-05-14T09:21:47Z</time>
      </trkpt>
      <trkpt lat="41.89074601046741" lon="1.050435025244951">
        <ele>323.13999999999999</ele>
        <time>2025-05-14T09:21:48Z</time>
      </trkpt>
      <trkpt lat="41.890826979652047" lon="1.050409963354468">
        <ele>323.13999999999999</ele>
        <time>2025-05-14T09:21:49Z</time>
      </trkpt>
      <trkpt lat="41.890908032655716" lon="1.050374004989862">
        <ele>323.13999999999999</ele>
        <time>2025-05-14T09:21:50Z</time>
      </trkpt>
      <trkpt lat="41.890972992405295" lon="1.050328994169831">
        <ele>322.66000000000003</ele>
        <time>2025-05-14T09:21:51Z</time>
      </trkpt>
      <trkpt lat="41.891029989346862" lon="1.050251964479685">
        <ele>322.66000000000003</ele>
        <time>2025-05-14T09:21:52Z</time>
      </trkpt>
      <trkpt lat="41.89109000377357" lon="1.050170995295048">
        <ele>322.66000000000003</ele>
        <time>2025-05-14T09:21:53Z</time>
      </trkpt>
      <trkpt lat="41.891148006543517" lon="1.050092037767172">
        <ele>322.66000000000003</ele>
        <time>2025-05-14T09:21:54Z</time>
      </trkpt>
      <trkpt lat="41.891205003485084" lon="1.050014002248645">
        <ele>322.66000000000003</ele>
        <time>2025-05-14T09:21:55Z</time>
      </trkpt>
      <trkpt lat="41.891526030376554" lon="1.04946699924767">
        <ele>324.10000000000002</ele>
        <time>2025-05-14T09:22:01Z</time>
      </trkpt>
      <trkpt lat="41.891582021489739" lon="1.049376977607608">
        <ele>324.10000000000002</ele>
        <time>2025-05-14T09:22:02Z</time>
      </trkpt>
      <trkpt lat="41.891640024259686" lon="1.049285028129816">
        <ele>324.57999999999998</ele>
        <time>2025-05-14T09:22:03Z</time>
      </trkpt>
      <trkpt lat="41.891878992319107" lon="1.048909015953541">
        <ele>325.54000000000002</ele>
        <time>2025-05-14T09:22:07Z</time>
      </trkpt>
      <trkpt lat="41.891943030059338" lon="1.048808014020324">
        <ele>325.54000000000002</ele>
        <time>2025-05-14T09:22:08Z</time>
      </trkpt>
      <trkpt lat="41.89201301895082" lon="1.048723021522164">
        <ele>325.54000000000002</ele>
        <time>2025-05-14T09:22:09Z</time>
      </trkpt>
      <trkpt lat="41.892156014218926" lon="1.048552030697465">
        <ele>324.57999999999998</ele>
        <time>2025-05-14T09:22:11Z</time>
      </trkpt>
      <trkpt lat="41.892849029973149" lon="1.047817021608353">
        <ele>320.25999999999999</ele>
        <time>2025-05-14T09:22:21Z</time>
      </trkpt>
      <trkpt lat="41.892920024693012" lon="1.047743009403348">
        <ele>319.77999999999997</ele>
        <time>2025-05-14T09:22:22Z</time>
      </trkpt>
      <trkpt lat="41.893124962225556" lon="1.047527007758617">
        <ele>319.30000000000001</ele>
        <time>2025-05-14T09:22:25Z</time>
      </trkpt>
      <trkpt lat="41.893308022990823" lon="1.047331960871816">
        <ele>318.81</ele>
        <time>2025-05-14T09:22:28Z</time>
      </trkpt>
      <trkpt lat="41.89336996525526" lon="1.047258032485843">
        <ele>318.32999999999998</ele>
        <time>2025-05-14T09:22:29Z</time>
      </trkpt>
      <trkpt lat="41.89356098882854" lon="1.047062985599041">
        <ele>317.85000000000002</ele>
        <time>2025-05-14T09:22:32Z</time>
      </trkpt>
      <trkpt lat="41.893623014912009" lon="1.047008000314236">
        <ele>317.85000000000002</ele>
        <time>2025-05-14T09:22:33Z</time>
      </trkpt>
      <trkpt lat="41.893685963004827" lon="1.046949997544289">
        <ele>317.85000000000002</ele>
        <time>2025-05-14T09:22:34Z</time>
      </trkpt>
      <trkpt lat="41.893746983259916" lon="1.046895012259483">
        <ele>317.37</ele>
        <time>2025-05-14T09:22:35Z</time>
      </trkpt>
      <trkpt lat="41.893811021000147" lon="1.046851007267833">
        <ele>317.37</ele>
        <time>2025-05-14T09:22:36Z</time>
      </trkpt>
      <trkpt lat="41.893881009891629" lon="1.046811025589705">
        <ele>317.37</ele>
        <time>2025-05-14T09:22:37Z</time>
      </trkpt>
      <trkpt lat="41.893956027925014" lon="1.046786969527602">
        <ele>317.37</ele>
        <time>2025-05-14T09:22:38Z</time>
      </trkpt>
      <trkpt lat="41.894036997109652" lon="1.046779006719589">
        <ele>317.37</ele>
        <time>2025-05-14T09:22:39Z</time>
      </trkpt>
      <trkpt lat="41.894130958244205" lon="1.046770038083196">
        <ele>317.37</ele>
        <time>2025-05-14T09:22:40Z</time>
      </trkpt>
      <trkpt lat="41.894188961014152" lon="1.046785963699222">
        <ele>316.88999999999999</ele>
        <time>2025-05-14T09:22:41Z</time>
      </trkpt>
      <trkpt lat="41.894260039553046" lon="1.046805996447802">
        <ele>316.88999999999999</ele>
        <time>2025-05-14T09:22:42Z</time>
      </trkpt>
      <trkpt lat="41.894338997080922" lon="1.046860981732607">
        <ele>316.88999999999999</ele>
        <time>2025-05-14T09:22:43Z</time>
      </trkpt>
      <trkpt lat="41.894403034821153" lon="1.046914039179683">
        <ele>316.88999999999999</ele>
        <time>2025-05-14T09:22:44Z</time>
      </trkpt>
      <trkpt lat="41.894462965428829" lon="1.046963995322585">
        <ele>316.88999999999999</ele>
        <time>2025-05-14T09:22:45Z</time>
      </trkpt>
      <trkpt lat="41.894523985683918" lon="1.047014035284519">
        <ele>316.41000000000003</ele>
        <time>2025-05-14T09:22:46Z</time>
      </trkpt>
      <trkpt lat="41.894860016182065" lon="1.047330033034086">
        <ele>316.41000000000003</ele>
        <time>2025-05-14T09:22:52Z</time>
      </trkpt>
      <trkpt lat="41.895380029454827" lon="1.047893967479467">
        <ele>317.85000000000002</ele>
        <time>2025-05-14T09:23:02Z</time>
      </trkpt>
      <trkpt lat="41.895670965313911" lon="1.048700977116823">
        <ele>316.41000000000003</ele>
        <time>2025-05-14T09:23:12Z</time>
      </trkpt>
      <trkpt lat="41.895900964736938" lon="1.049650982022286">
        <ele>316.88999999999999</ele>
        <time>2025-05-14T09:23:23Z</time>
      </trkpt>
      <trkpt lat="41.896003978326917" lon="1.050041997805238">
        <ele>316.88999999999999</ele>
        <time>2025-05-14T09:23:27Z</time>
      </trkpt>
      <trkpt lat="41.89609500579536" lon="1.051128963008523">
        <ele>315.44999999999999</ele>
        <time>2025-05-14T09:23:37Z</time>
      </trkpt>
      <trkpt lat="41.896100034937263" lon="1.05122703127563">
        <ele>314.97000000000003</ele>
        <time>2025-05-14T09:23:38Z</time>
      </trkpt>
      <trkpt lat="41.896152002736926" lon="1.052355989813805">
        <ele>312.56999999999999</ele>
        <time>2025-05-14T09:23:50Z</time>
      </trkpt>
      <trkpt lat="41.89620103687048" lon="1.053600031882525">
        <ele>314.00999999999999</ele>
        <time>2025-05-14T09:24:01Z</time>
      </trkpt>
      <trkpt lat="41.896243030205369" lon="1.05472999624908">
        <ele>313.52999999999997</ele>
        <time>2025-05-14T09:24:11Z</time>
      </trkpt>
      <trkpt lat="41.896248981356621" lon="1.054866034537554">
        <ele>313.52999999999997</ele>
        <time>2025-05-14T09:24:12Z</time>
      </trkpt>
      <trkpt lat="41.896263984963298" lon="1.055151019245386">
        <ele>313.52999999999997</ele>
        <time>2025-05-14T09:24:14Z</time>
      </trkpt>
      <trkpt lat="41.896271025761962" lon="1.055299965664744">
        <ele>313.52999999999997</ele>
        <time>2025-05-14T09:24:15Z</time>
      </trkpt>
      <trkpt lat="41.896359035745263" lon="1.056884983554483">
        <ele>315.44999999999999</ele>
        <time>2025-05-14T09:24:23Z</time>
      </trkpt>
      <trkpt lat="41.896507982164621" lon="1.057539023458958">
        <ele>315.93000000000001</ele>
        <time>2025-05-14T09:24:26Z</time>
      </trkpt>
      <trkpt lat="41.896579982712865" lon="1.057735998183489">
        <ele>315.93000000000001</ele>
        <time>2025-05-14T09:24:27Z</time>
      </trkpt>
      <trkpt lat="41.896651983261108" lon="1.057925010100007">
        <ele>316.41000000000003</ele>
        <time>2025-05-14T09:24:28Z</time>
      </trkpt>
      <trkpt lat="41.896747034043074" lon="1.058092983439565">
        <ele>316.41000000000003</ele>
        <time>2025-05-14T09:24:29Z</time>
      </trkpt>
      <trkpt lat="41.896843006834388" lon="1.058261040598154">
        <ele>316.41000000000003</ele>
        <time>2025-05-14T09:24:30Z</time>
      </trkpt>
      <trkpt lat="41.897706007584929" lon="1.05941497720778">
        <ele>316.88999999999999</ele>
        <time>2025-05-14T09:24:39Z</time>
      </trkpt>
      <trkpt lat="41.897736014798284" lon="1.059537017717958">
        <ele>316.88999999999999</ele>
        <time>2025-05-14T09:24:40Z</time>
      </trkpt>
      <trkpt lat="41.897757975384593" lon="1.05965101160109">
        <ele>316.88999999999999</ele>
        <time>2025-05-14T09:24:41Z</time>
      </trkpt>
      <trkpt lat="41.897757975384593" lon="1.059729969128966">
        <ele>317.37</ele>
        <time>2025-05-14T09:24:42Z</time>
      </trkpt>
      <trkpt lat="41.897806003689766" lon="1.059815967455506">
        <ele>317.85000000000002</ele>
        <time>2025-05-14T09:24:43Z</time>
      </trkpt>
      <trkpt lat="41.897838022559881" lon="1.059871958568692">
        <ele>317.85000000000002</ele>
        <time>2025-05-14T09:24:44Z</time>
      </trkpt>
      <trkpt lat="41.897876998409629" lon="1.059940019622445">
        <ele>318.32999999999998</ele>
        <time>2025-05-14T09:24:45Z</time>
      </trkpt>
      <trkpt lat="41.897941036149859" lon="1.060029035434127">
        <ele>318.32999999999998</ele>
        <time>2025-05-14T09:24:46Z</time>
      </trkpt>
      <trkpt lat="41.898026028648019" lon="1.060019982978702">
        <ele>318.81</ele>
        <time>2025-05-14T09:24:47Z</time>
      </trkpt>
      <trkpt lat="41.898129964247346" lon="1.060007996857166">
        <ele>318.32999999999998</ele>
        <time>2025-05-14T09:24:48Z</time>
      </trkpt>
      <trkpt lat="41.899043004959822" lon="1.06007999740541">
        <ele>317.85000000000002</ele>
        <time>2025-05-14T09:24:54Z</time>
      </trkpt>
      <trkpt lat="41.899773990735412" lon="1.06044796295464">
        <ele>315.93000000000001</ele>
        <time>2025-05-14T09:24:58Z</time>
      </trkpt>
      <trkpt lat="41.900397017598152" lon="1.061038970947266">
        <ele>313.05000000000001</ele>
        <time>2025-05-14T09:25:02Z</time>
      </trkpt>
      <trkpt lat="41.901174020022154" lon="1.062632035464048">
        <ele>312.56999999999999</ele>
        <time>2025-05-14T09:25:10Z</time>
      </trkpt>
      <trkpt lat="41.902341032400727" lon="1.064784005284309">
        <ele>316.88999999999999</ele>
        <time>2025-05-14T09:25:21Z</time>
      </trkpt>
      <trkpt lat="41.902470029890537" lon="1.064958013594151">
        <ele>317.37</ele>
        <time>2025-05-14T09:25:22Z</time>
      </trkpt>
      <trkpt lat="41.90333697013557" lon="1.065854961052537">
        <ele>320.25999999999999</ele>
        <time>2025-05-14T09:25:28Z</time>
      </trkpt>
      <trkpt lat="41.903483988717198" lon="1.066008014604449">
        <ele>320.74000000000001</ele>
        <time>2025-05-14T09:25:29Z</time>
      </trkpt>
      <trkpt lat="41.905425991863012" lon="1.067978013306856">
        <ele>325.06</ele>
        <time>2025-05-14T09:25:42Z</time>
      </trkpt>
      <trkpt lat="41.906726025044918" lon="1.069277040660381">
        <ele>326.5</ele>
        <time>2025-05-14T09:25:52Z</time>
      </trkpt>
      <trkpt lat="41.907391967251897" lon="1.069843992590904">
        <ele>326.5</ele>
        <time>2025-05-14T09:25:59Z</time>
      </trkpt>
      <trkpt lat="41.907558012753725" lon="1.069889003410935">
        <ele>326.01999999999998</ele>
        <time>2025-05-14T09:26:01Z</time>
      </trkpt>
      <trkpt lat="41.907649962231517" lon="1.069909036159515">
        <ele>326.01999999999998</ele>
        <time>2025-05-14T09:26:02Z</time>
      </trkpt>
      <trkpt lat="41.907736966386437" lon="1.06991901062429">
        <ele>326.01999999999998</ele>
        <time>2025-05-14T09:26:03Z</time>
      </trkpt>
      <trkpt lat="41.907835034653544" lon="1.069901995360851">
        <ele>326.01999999999998</ele>
        <time>2025-05-14T09:26:04Z</time>
      </trkpt>
      <trkpt lat="41.90793402493" lon="1.069885985925794">
        <ele>326.5</ele>
        <time>2025-05-14T09:26:05Z</time>
      </trkpt>
      <trkpt lat="41.908031003549695" lon="1.069869976490736">
        <ele>326.99000000000001</ele>
        <time>2025-05-14T09:26:06Z</time>
      </trkpt>
      <trkpt lat="41.908930968493223" lon="1.069320039823651">
        <ele>327.94999999999999</ele>
        <time>2025-05-14T09:26:15Z</time>
      </trkpt>
      <trkpt lat="41.909989016130567" lon="1.068584024906158">
        <ele>328.43000000000001</ele>
        <time>2025-05-14T09:26:22Z</time>
      </trkpt>
      <trkpt lat="41.911166002973914" lon="1.067813979461789">
        <ele>328.43000000000001</ele>
        <time>2025-05-14T09:26:29Z</time>
      </trkpt>
      <trkpt lat="41.911361971870065" lon="1.067711971700192">
        <ele>327.94999999999999</ele>
        <time>2025-05-14T09:26:30Z</time>
      </trkpt>
      <trkpt lat="41.911548972129822" lon="1.067700991407037">
        <ele>327.47000000000003</ele>
        <time>2025-05-14T09:26:31Z</time>
      </trkpt>
      <trkpt lat="41.911753993481398" lon="1.067698979750276">
        <ele>326.5</ele>
        <time>2025-05-14T09:26:32Z</time>
      </trkpt>
      <trkpt lat="41.911954991519451" lon="1.067733010277152">
        <ele>326.01999999999998</ele>
        <time>2025-05-14T09:26:33Z</time>
      </trkpt>
      <trkpt lat="41.912149032577872" lon="1.067866031080484">
        <ele>325.06</ele>
        <time>2025-05-14T09:26:34Z</time>
      </trkpt>
      <trkpt lat="41.912329997867346" lon="1.067994022741914">
        <ele>325.06</ele>
        <time>2025-05-14T09:26:35Z</time>
      </trkpt>
      <trkpt lat="41.912514986470342" lon="1.068141963332892">
        <ele>324.57999999999998</ele>
        <time>2025-05-14T09:26:36Z</time>
      </trkpt>
      <trkpt lat="41.912676002830267" lon="1.06833097524941">
        <ele>324.10000000000002</ele>
        <time>2025-05-14T09:26:37Z</time>
      </trkpt>
      <trkpt lat="41.912839030846953" lon="1.068520992994309">
        <ele>323.62</ele>
        <time>2025-05-14T09:26:38Z</time>
      </trkpt>
      <trkpt lat="41.915528029203415" lon="1.071681976318359">
        <ele>323.62</ele>
        <time>2025-05-14T09:26:54Z</time>
      </trkpt>
      <trkpt lat="41.917697014287114" lon="1.074176011607051">
        <ele>328.91000000000003</ele>
        <time>2025-05-14T09:27:07Z</time>
      </trkpt>
      <trkpt lat="41.919393008574843" lon="1.075552990660071">
        <ele>333.70999999999998</ele>
        <time>2025-05-14T09:27:16Z</time>
      </trkpt>
      <trkpt lat="41.921168966218829" lon="1.076867021620274">
        <ele>337.07999999999998</ele>
        <time>2025-05-14T09:27:25Z</time>
      </trkpt>
      <trkpt lat="41.922864960506558" lon="1.07817099429667">
        <ele>336.12</ele>
        <time>2025-05-14T09:27:34Z</time>
      </trkpt>
      <trkpt lat="41.923731984570622" lon="1.079445965588093">
        <ele>333.23000000000002</ele>
        <time>2025-05-14T09:27:40Z</time>
      </trkpt>
      <trkpt lat="41.924387030303478" lon="1.081570023670793">
        <ele>328.43000000000001</ele>
        <time>2025-05-14T09:27:48Z</time>
      </trkpt>
      <trkpt lat="41.924664974212646" lon="1.083816960453987">
        <ele>326.99000000000001</ele>
        <time>2025-05-14T09:27:56Z</time>
      </trkpt>
      <trkpt lat="41.924658017233014" lon="1.084880959242582">
        <ele>327.94999999999999</ele>
        <time>2025-05-14T09:28:00Z</time>
      </trkpt>
      <trkpt lat="41.924688024446368" lon="1.085102995857596">
        <ele>327.94999999999999</ele>
        <time>2025-05-14T09:28:01Z</time>
      </trkpt>
      <trkpt lat="41.924758013337851" lon="1.085320003330708">
        <ele>327.94999999999999</ele>
        <time>2025-05-14T09:28:02Z</time>
      </trkpt>
      <trkpt lat="41.924873013049364" lon="1.085493005812168">
        <ele>328.43000000000001</ele>
        <time>2025-05-14T09:28:03Z</time>
      </trkpt>
      <trkpt lat="41.925013996660709" lon="1.085618985816836">
        <ele>329.38999999999999</ele>
        <time>2025-05-14T09:28:04Z</time>
      </trkpt>
      <trkpt lat="41.925179036334157" lon="1.085697021335363">
        <ele>330.35000000000002</ele>
        <time>2025-05-14T09:28:05Z</time>
      </trkpt>
      <trkpt lat="41.925355978310108" lon="1.085737003013492">
        <ele>331.31</ele>
        <time>2025-05-14T09:28:06Z</time>
      </trkpt>
      <trkpt lat="41.925542978569865" lon="1.085732979699969">
        <ele>331.79000000000002</ele>
        <time>2025-05-14T09:28:07Z</time>
      </trkpt>
      <trkpt lat="41.925742970779538" lon="1.085716970264912">
        <ele>332.75</ele>
        <time>2025-05-14T09:28:08Z</time>
      </trkpt>
      <trkpt lat="41.927478024736047" lon="1.085507003590465">
        <ele>336.12</ele>
        <time>2025-05-14T09:28:16Z</time>
      </trkpt>
      <trkpt lat="41.928933039307594" lon="1.084972992539406">
        <ele>338.51999999999998</ele>
        <time>2025-05-14T09:28:23Z</time>
      </trkpt>
      <trkpt lat="41.929744994267821" lon="1.084628999233246">
        <ele>341.88999999999999</ele>
        <time>2025-05-14T09:28:27Z</time>
      </trkpt>
      <trkpt lat="41.92995697259903" lon="1.084599997848272">
        <ele>342.85000000000002</ele>
        <time>2025-05-14T09:28:28Z</time>
      </trkpt>
      <trkpt lat="41.930167023092508" lon="1.084578959271312">
        <ele>343.81</ele>
        <time>2025-05-14T09:28:29Z</time>
      </trkpt>
      <trkpt lat="41.930381013080478" lon="1.084586000069976">
        <ele>344.76999999999998</ele>
        <time>2025-05-14T09:28:30Z</time>
      </trkpt>
      <trkpt lat="41.930593997240067" lon="1.084592035040259">
        <ele>345.73000000000002</ele>
        <time>2025-05-14T09:28:31Z</time>
      </trkpt>
      <trkpt lat="41.932302983477712" lon="1.084426995366812">
        <ele>353.42000000000002</ele>
        <time>2025-05-14T09:28:39Z</time>
      </trkpt>
      <trkpt lat="41.933935023844242" lon="1.083590984344482">
        <ele>356.31</ele>
        <time>2025-05-14T09:28:47Z</time>
      </trkpt>
      <trkpt lat="41.934140967205167" lon="1.083566006273031">
        <ele>356.31</ele>
        <time>2025-05-14T09:28:48Z</time>
      </trkpt>
      <trkpt lat="41.934355963021517" lon="1.083553014323115">
        <ele>355.82999999999998</ele>
        <time>2025-05-14T09:28:49Z</time>
      </trkpt>
      <trkpt lat="41.935663959011436" lon="1.083591990172863">
        <ele>351.01999999999998</ele>
        <time>2025-05-14T09:28:56Z</time>
      </trkpt>
      <trkpt lat="41.936898026615381" lon="1.083851996809244">
        <ele>355.82999999999998</ele>
        <time>2025-05-14T09:29:04Z</time>
      </trkpt>
      <trkpt lat="41.937895976006985" lon="1.08472497202456">
        <ele>364.48000000000002</ele>
        <time>2025-05-14T09:29:13Z</time>
      </trkpt>
      <trkpt lat="41.938885040581226" lon="1.085694003850222">
        <ele>371.20999999999998</ele>
        <time>2025-05-14T09:29:22Z</time>
      </trkpt>
      <trkpt lat="41.940243998542428" lon="1.086371010169387">
        <ele>380.33999999999997</ele>
        <time>2025-05-14T09:29:30Z</time>
      </trkpt>
      <trkpt lat="41.941894982010126" lon="1.086540995165706">
        <ele>389.47000000000003</ele>
        <time>2025-05-14T09:29:38Z</time>
      </trkpt>
      <trkpt lat="41.942520020529628" lon="1.086712991818786">
        <ele>391.87</ele>
        <time>2025-05-14T09:29:41Z</time>
      </trkpt>
      <trkpt lat="41.942720012739301" lon="1.086784992367029">
        <ele>392.36000000000001</ele>
        <time>2025-05-14T09:29:42Z</time>
      </trkpt>
      <trkpt lat="41.942911958321929" lon="1.086902003735304">
        <ele>393.31999999999999</ele>
        <time>2025-05-14T09:29:43Z</time>
      </trkpt>
      <trkpt lat="41.944292038679123" lon="1.087596025317907">
        <ele>399.56999999999999</ele>
        <time>2025-05-14T09:29:51Z</time>
      </trkpt>
      <trkpt lat="41.947257975116372" lon="1.088249981403351">
        <ele>413.98000000000002</ele>
        <time>2025-05-14T09:30:04Z</time>
      </trkpt>
      <trkpt lat="41.950029032304883" lon="1.088795978575945">
        <ele>422.63999999999999</ele>
        <time>2025-05-14T09:30:17Z</time>
      </trkpt>
      <trkpt lat="41.951308026909828" lon="1.08878499828279">
        <ele>426.48000000000002</ele>
        <time>2025-05-14T09:30:23Z</time>
      </trkpt>
      <trkpt lat="41.951510030776262" lon="1.088705034926534">
        <ele>427.44</ele>
        <time>2025-05-14T09:30:24Z</time>
      </trkpt>
      <trkpt lat="41.951712034642696" lon="1.088615013286471">
        <ele>428.39999999999998</ele>
        <time>2025-05-14T09:30:25Z</time>
      </trkpt>
      <trkpt lat="41.951900962740183" lon="1.0884840041399">
        <ele>429.37</ele>
        <time>2025-05-14T09:30:26Z</time>
      </trkpt>
      <trkpt lat="41.952084023505449" lon="1.088338997215033">
        <ele>429.85000000000002</ele>
        <time>2025-05-14T09:30:27Z</time>
      </trkpt>
      <trkpt lat="41.954678976908326" lon="1.086300015449524">
        <ele>447.14999999999998</ele>
        <time>2025-05-14T09:30:41Z</time>
      </trkpt>
      <trkpt lat="41.956284027546644" lon="1.08549602329731">
        <ele>458.20999999999998</ele>
        <time>2025-05-14T09:30:49Z</time>
      </trkpt>
      <trkpt lat="41.958002988249063" lon="1.085320003330708">
        <ele>465.89999999999998</ele>
        <time>2025-05-14T09:30:57Z</time>
      </trkpt>
      <trkpt lat="41.959666963666677" lon="1.085898019373417">
        <ele>473.11000000000001</ele>
        <time>2025-05-14T09:31:05Z</time>
      </trkpt>
      <trkpt lat="41.961157014593482" lon="1.087046004831791">
        <ele>480.80000000000001</ele>
        <time>2025-05-14T09:31:13Z</time>
      </trkpt>
      <trkpt lat="41.962215984240174" lon="1.088461959734559">
        <ele>486.56</ele>
        <time>2025-05-14T09:31:20Z</time>
      </trkpt>
      <trkpt lat="41.96239703334868" lon="1.08859296888113">
        <ele>487.52999999999997</ele>
        <time>2025-05-14T09:31:21Z</time>
      </trkpt>
      <trkpt lat="41.962595013901591" lon="1.088685002177954">
        <ele>488.00999999999999</ele>
        <time>2025-05-14T09:31:22Z</time>
      </trkpt>
      <trkpt lat="41.962801041081548" lon="1.088759014382958">
        <ele>488.97000000000003</ele>
        <time>2025-05-14T09:31:23Z</time>
      </trkpt>
      <trkpt lat="41.963010001927614" lon="1.08882799744606">
        <ele>489.93000000000001</ele>
        <time>2025-05-14T09:31:24Z</time>
      </trkpt>
      <trkpt lat="41.963223991915584" lon="1.08884702436626">
        <ele>490.41000000000003</ele>
        <time>2025-05-14T09:31:25Z</time>
      </trkpt>
      <trkpt lat="41.963437981903553" lon="1.088865967467427">
        <ele>490.88999999999999</ele>
        <time>2025-05-14T09:31:26Z</time>
      </trkpt>
      <trkpt lat="41.965137999504805" lon="1.089240973815322">
        <ele>496.66000000000003</ele>
        <time>2025-05-14T09:31:34Z</time>
      </trkpt>
      <trkpt lat="41.966516990214586" lon="1.090013030916452">
        <ele>500.5</ele>
        <time>2025-05-14T09:31:41Z</time>
      </trkpt>
      <trkpt lat="41.966686975210905" lon="1.090168012306094">
        <ele>500.98000000000002</ele>
        <time>2025-05-14T09:31:42Z</time>
      </trkpt>
      <trkpt lat="41.967099029570818" lon="1.090619964525104">
        <ele>503.87</ele>
        <time>2025-05-14T09:31:45Z</time>
      </trkpt>
      <trkpt lat="41.967455008998513" lon="1.090937973931432">
        <ele>505.31</ele>
        <time>2025-05-14T09:31:48Z</time>
      </trkpt>
      <trkpt lat="41.967561962082982" lon="1.091011986136437">
        <ele>505.31</ele>
        <time>2025-05-14T09:31:49Z</time>
      </trkpt>
      <trkpt lat="41.967889023944736" lon="1.091194963082671">
        <ele>504.82999999999998</ele>
        <time>2025-05-14T09:31:53Z</time>
      </trkpt>
      <trkpt lat="41.968133021146059" lon="1.091265035793185">
        <ele>504.82999999999998</ele>
        <time>2025-05-14T09:31:54Z</time>
      </trkpt>
      <trkpt lat="41.968253972008824" lon="1.091299988329411">
        <ele>504.82999999999998</ele>
        <time>2025-05-14T09:31:55Z</time>
      </trkpt>
      <trkpt lat="41.968377018347383" lon="1.091310968622565">
        <ele>504.82999999999998</ele>
        <time>2025-05-14T09:31:56Z</time>
      </trkpt>
      <trkpt lat="41.968504004180431" lon="1.091303005814552">
        <ele>504.35000000000002</ele>
        <time>2025-05-14T09:31:57Z</time>
      </trkpt>
      <trkpt lat="41.968631995841861" lon="1.091294037178159">
        <ele>504.35000000000002</ele>
        <time>2025-05-14T09:31:58Z</time>
      </trkpt>
      <trkpt lat="41.968754036352038" lon="1.091237040236592">
        <ele>504.35000000000002</ele>
        <time>2025-05-14T09:31:59Z</time>
      </trkpt>
      <trkpt lat="41.968875993043184" lon="1.091179959475994">
        <ele>504.35000000000002</ele>
        <time>2025-05-14T09:32:00Z</time>
      </trkpt>
      <trkpt lat="41.968998033553362" lon="1.091122040525079">
        <ele>504.35000000000002</ele>
        <time>2025-05-14T09:32:01Z</time>
      </trkpt>
      <trkpt lat="41.969106998294592" lon="1.091036964207888">
        <ele>504.35000000000002</ele>
        <time>2025-05-14T09:32:02Z</time>
      </trkpt>
      <trkpt lat="41.969512011855841" lon="1.090715015307069">
        <ele>504.35000000000002</ele>
        <time>2025-05-14T09:32:06Z</time>
      </trkpt>
      <trkpt lat="41.96963899768889" lon="1.090679978951812">
        <ele>504.35000000000002</ele>
        <time>2025-05-14T09:32:07Z</time>
      </trkpt>
      <trkpt lat="41.96974796243012" lon="1.090650977566838">
        <ele>504.35000000000002</ele>
        <time>2025-05-14T09:32:08Z</time>
      </trkpt>
      <trkpt lat="41.969876037910581" lon="1.090687019750476">
        <ele>504.35000000000002</ele>
        <time>2025-05-14T09:32:09Z</time>
      </trkpt>
      <trkpt lat="41.969994977116585" lon="1.090720966458321">
        <ele>504.82999999999998</ele>
        <time>2025-05-14T09:32:10Z</time>
      </trkpt>
      <trkpt lat="41.970092039555311" lon="1.090785004198551">
        <ele>504.82999999999998</ele>
        <time>2025-05-14T09:32:11Z</time>
      </trkpt>
      <trkpt lat="41.970187006518245" lon="1.090890029445291">
        <ele>505.31</ele>
        <time>2025-05-14T09:32:12Z</time>
      </trkpt>
      <trkpt lat="41.970256995409727" lon="1.090993965044618">
        <ele>505.31</ele>
        <time>2025-05-14T09:32:13Z</time>
      </trkpt>
      <trkpt lat="41.970309969037771" lon="1.091145006939769">
        <ele>505.79000000000002</ele>
        <time>2025-05-14T09:32:14Z</time>
      </trkpt>
      <trkpt lat="41.970365960150957" lon="1.091306023299694">
        <ele>505.79000000000002</ele>
        <time>2025-05-14T09:32:15Z</time>
      </trkpt>
      <trkpt lat="41.970399990677834" lon="1.091465028002858">
        <ele>505.79000000000002</ele>
        <time>2025-05-14T09:32:16Z</time>
      </trkpt>
      <trkpt lat="41.970417005941272" lon="1.091649010777473">
        <ele>505.79000000000002</ele>
        <time>2025-05-14T09:32:17Z</time>
      </trkpt>
      <trkpt lat="41.970435027033091" lon="1.091829976066947">
        <ele>505.79000000000002</ele>
        <time>2025-05-14T09:32:18Z</time>
      </trkpt>
      <trkpt lat="41.970497975125909" lon="1.092692976817489">
        <ele>506.75</ele>
        <time>2025-05-14T09:32:23Z</time>
      </trkpt>
      <trkpt lat="41.970523037016392" lon="1.092850975692272">
        <ele>507.23000000000002</ele>
        <time>2025-05-14T09:32:24Z</time>
      </trkpt>
      <trkpt lat="41.970570981502533" lon="1.093020038679242">
        <ele>507.70999999999998</ele>
        <time>2025-05-14T09:32:25Z</time>
      </trkpt>
      <trkpt lat="41.970644993707538" lon="1.093156998977065">
        <ele>508.19</ele>
        <time>2025-05-14T09:32:26Z</time>
      </trkpt>
      <trkpt lat="41.970754964277148" lon="1.093279961496592">
        <ele>509.16000000000003</ele>
        <time>2025-05-14T09:32:27Z</time>
      </trkpt>
      <trkpt lat="41.970862001180649" lon="1.093376018106937">
        <ele>510.12</ele>
        <time>2025-05-14T09:32:28Z</time>
      </trkpt>
      <trkpt lat="41.971006002277136" lon="1.093421028926969">
        <ele>510.60000000000002</ele>
        <time>2025-05-14T09:32:29Z</time>
      </trkpt>
      <trkpt lat="41.971143968403339" lon="1.093439972028136">
        <ele>511.56</ele>
        <time>2025-05-14T09:32:30Z</time>
      </trkpt>
      <trkpt lat="41.971281012520194" lon="1.093440977856517">
        <ele>512.51999999999998</ele>
        <time>2025-05-14T09:32:31Z</time>
      </trkpt>
      <trkpt lat="41.971992971375585" lon="1.093612974509597">
        <ele>519.73000000000002</ele>
        <time>2025-05-14T09:32:36Z</time>
      </trkpt>
      <trkpt lat="41.97213102132082" lon="1.093711964786053">
        <ele>521.16999999999996</ele>
        <time>2025-05-14T09:32:37Z</time>
      </trkpt>
      <trkpt lat="41.972273010760546" lon="1.093840962275863">
        <ele>522.61000000000001</ele>
        <time>2025-05-14T09:32:38Z</time>
      </trkpt>
      <trkpt lat="41.973586035892367" lon="1.095151975750923">
        <ele>532.71000000000004</ele>
        <time>2025-05-14T09:32:46Z</time>
      </trkpt>
      <trkpt lat="41.973976967856288" lon="1.095411982387304">
        <ele>535.59000000000003</ele>
        <time>2025-05-14T09:32:48Z</time>
      </trkpt>
      <trkpt lat="41.974182995036244" lon="1.095468979328871">
        <ele>537.02999999999997</ele>
        <time>2025-05-14T09:32:49Z</time>
      </trkpt>
      <trkpt lat="41.974392039701343" lon="1.09550996683538">
        <ele>538.48000000000002</ele>
        <time>2025-05-14T09:32:50Z</time>
      </trkpt>
      <trkpt lat="41.974597983062267" lon="1.095516001805663">
        <ele>539.44000000000005</ele>
        <time>2025-05-14T09:32:51Z</time>
      </trkpt>
      <trkpt lat="41.974806021898985" lon="1.095508961006999">
        <ele>540.39999999999998</ele>
        <time>2025-05-14T09:32:52Z</time>
      </trkpt>
      <trkpt lat="41.975214974954724" lon="1.095533017069101">
        <ele>542.32000000000005</ele>
        <time>2025-05-14T09:32:54Z</time>
      </trkpt>
      <trkpt lat="41.975403986871243" lon="1.095592025667429">
        <ele>543.27999999999997</ele>
        <time>2025-05-14T09:32:55Z</time>
      </trkpt>
      <trkpt lat="41.975585035979748" lon="1.09568296931684">
        <ele>543.75999999999999</ele>
        <time>2025-05-14T09:32:56Z</time>
      </trkpt>
      <trkpt lat="41.975752003490925" lon="1.095818001776934">
        <ele>544.72000000000003</ele>
        <time>2025-05-14T09:32:57Z</time>
      </trkpt>
      <trkpt lat="41.975897010415792" lon="1.095998967066407">
        <ele>545.69000000000005</ele>
        <time>2025-05-14T09:32:58Z</time>
      </trkpt>
      <trkpt lat="41.976038999855518" lon="1.096209017559886">
        <ele>546.64999999999998</ele>
        <time>2025-05-14T09:32:59Z</time>
      </trkpt>
      <trkpt lat="41.976185012608767" lon="1.096426025032997">
        <ele>548.09000000000003</ele>
        <time>2025-05-14T09:33:00Z</time>
      </trkpt>
      <trkpt lat="41.976931001991034" lon="1.097573004662991">
        <ele>553.86000000000001</ele>
        <time>2025-05-14T09:33:05Z</time>
      </trkpt>
      <trkpt lat="41.977114984765649" lon="1.097741983830929">
        <ele>555.29999999999995</ele>
        <time>2025-05-14T09:33:06Z</time>
      </trkpt>
      <trkpt lat="41.977303996682167" lon="1.097881039604545">
        <ele>556.74000000000001</ele>
        <time>2025-05-14T09:33:07Z</time>
      </trkpt>
      <trkpt lat="41.977502983063459" lon="1.097999978810549">
        <ele>558.17999999999995</ele>
        <time>2025-05-14T09:33:08Z</time>
      </trkpt>
      <trkpt lat="41.977715967223048" lon="1.098096035420895">
        <ele>559.13999999999999</ele>
        <time>2025-05-14T09:33:09Z</time>
      </trkpt>
      <trkpt lat="41.979206018149853" lon="1.098992982879281">
        <ele>567.79999999999995</ele>
        <time>2025-05-14T09:33:16Z</time>
      </trkpt>
      <trkpt lat="41.98053396306932" lon="1.100518992170692">
        <ele>573.08000000000004</ele>
        <time>2025-05-14T09:33:23Z</time>
      </trkpt>
      <trkpt lat="41.981098987162113" lon="1.101505039259791">
        <ele>577.40999999999997</ele>
        <time>2025-05-14T09:33:27Z</time>
      </trkpt>
      <trkpt lat="41.981566026806831" lon="1.102397963404656">
        <ele>581.73000000000002</ele>
        <time>2025-05-14T09:33:31Z</time>
      </trkpt>
      <trkpt lat="41.981701981276274" lon="1.102571971714497">
        <ele>582.70000000000005</ele>
        <time>2025-05-14T09:33:32Z</time>
      </trkpt>
      <trkpt lat="41.98186500929296" lon="1.102673979476094">
        <ele>584.13999999999999</ele>
        <time>2025-05-14T09:33:33Z</time>
      </trkpt>
      <trkpt lat="41.982043040916324" lon="1.102747991681099">
        <ele>585.58000000000004</ele>
        <time>2025-05-14T09:33:34Z</time>
      </trkpt>
      <trkpt lat="41.982214031741023" lon="1.102762995287776">
        <ele>586.53999999999996</ele>
        <time>2025-05-14T09:33:35Z</time>
      </trkpt>
      <trkpt lat="41.982378987595439" lon="1.102745980024338">
        <ele>587.5</ele>
        <time>2025-05-14T09:33:36Z</time>
      </trkpt>
      <trkpt lat="41.982532041147351" lon="1.102721001952887">
        <ele>588.95000000000005</ele>
        <time>2025-05-14T09:33:37Z</time>
      </trkpt>
      <trkpt lat="41.982670007273555" lon="1.102635003626347">
        <ele>589.90999999999997</ele>
        <time>2025-05-14T09:33:38Z</time>
      </trkpt>
      <trkpt lat="41.982816020026803" lon="1.102558979764581">
        <ele>590.38999999999999</ele>
        <time>2025-05-14T09:33:39Z</time>
      </trkpt>
      <trkpt lat="41.982959015294909" lon="1.102457977831364">
        <ele>591.35000000000002</ele>
        <time>2025-05-14T09:33:40Z</time>
      </trkpt>
      <trkpt lat="41.983265960589051" lon="1.102287992835045">
        <ele>592.78999999999996</ele>
        <time>2025-05-14T09:33:42Z</time>
      </trkpt>
      <trkpt lat="41.983437035232782" lon="1.102259997278452">
        <ele>593.26999999999998</ele>
        <time>2025-05-14T09:33:43Z</time>
      </trkpt>
      <trkpt lat="41.983618000522256" lon="1.10225304029882">
        <ele>593.75</ele>
        <time>2025-05-14T09:33:44Z</time>
      </trkpt>
      <trkpt lat="41.983801983296871" lon="1.102310037240386">
        <ele>594.71000000000004</ele>
        <time>2025-05-14T09:33:45Z</time>
      </trkpt>
      <trkpt lat="41.98397196829319" lon="1.102432999759913">
        <ele>595.19000000000005</ele>
        <time>2025-05-14T09:33:46Z</time>
      </trkpt>
      <trkpt lat="41.984124016016722" lon="1.102565014734864">
        <ele>595.66999999999996</ele>
        <time>2025-05-14T09:33:47Z</time>
      </trkpt>
      <trkpt lat="41.984245972707868" lon="1.10275000333786">
        <ele>596.63999999999999</ele>
        <time>2025-05-14T09:33:48Z</time>
      </trkpt>
      <trkpt lat="41.984341023489833" lon="1.102928034961224">
        <ele>597.60000000000002</ele>
        <time>2025-05-14T09:33:49Z</time>
      </trkpt>
      <trkpt lat="41.9849160220474" lon="1.103886002674699">
        <ele>601.91999999999996</ele>
        <time>2025-05-14T09:33:55Z</time>
      </trkpt>
      <trkpt lat="41.985048037022352" lon="1.103993961587548">
        <ele>602.88</ele>
        <time>2025-05-14T09:33:56Z</time>
      </trkpt>
      <trkpt lat="41.98519597761333" lon="1.104095969349146">
        <ele>603.36000000000001</ele>
        <time>2025-05-14T09:33:57Z</time>
      </trkpt>
      <trkpt lat="41.98536898009479" lon="1.104190014302731">
        <ele>604.33000000000004</ele>
        <time>2025-05-14T09:33:58Z</time>
      </trkpt>
      <trkpt lat="41.985542988404632" lon="1.104233013466001">
        <ele>604.80999999999995</ele>
        <time>2025-05-14T09:33:59Z</time>
      </trkpt>
      <trkpt lat="41.98697897605598" lon="1.104511041194201">
        <ele>609.13</ele>
        <time>2025-05-14T09:34:06Z</time>
      </trkpt>
      <trkpt lat="41.98719103820622" lon="1.104494025930762">
        <ele>610.09000000000003</ele>
        <time>2025-05-14T09:34:07Z</time>
      </trkpt>
      <trkpt lat="41.987404022365808" lon="1.104478016495705">
        <ele>610.57000000000005</ele>
        <time>2025-05-14T09:34:08Z</time>
      </trkpt>
      <trkpt lat="41.98929799720645" lon="1.103946017101407">
        <ele>617.77999999999997</ele>
        <time>2025-05-14T09:34:17Z</time>
      </trkpt>
      <trkpt lat="41.989938961341977" lon="1.103872004896402">
        <ele>620.19000000000005</ele>
        <time>2025-05-14T09:34:20Z</time>
      </trkpt>
      <trkpt lat="41.990149011835456" lon="1.103907041251659">
        <ele>621.14999999999998</ele>
        <time>2025-05-14T09:34:21Z</time>
      </trkpt>
      <trkpt lat="41.990332994610071" lon="1.104026986286044">
        <ele>622.11000000000001</ele>
        <time>2025-05-14T09:34:22Z</time>
      </trkpt>
      <trkpt lat="41.990510020405054" lon="1.104157995432615">
        <ele>622.59000000000003</ele>
        <time>2025-05-14T09:34:23Z</time>
      </trkpt>
      <trkpt lat="41.990669025108218" lon="1.104276012629271">
        <ele>623.54999999999995</ele>
        <time>2025-05-14T09:34:24Z</time>
      </trkpt>
      <trkpt lat="41.990791987627745" lon="1.104466030374169">
        <ele>624.02999999999997</ele>
        <time>2025-05-14T09:34:25Z</time>
      </trkpt>
      <trkpt lat="41.990916039794683" lon="1.104664010927081">
        <ele>625.47000000000003</ele>
        <time>2025-05-14T09:34:26Z</time>
      </trkpt>
      <trkpt lat="41.991026010364294" lon="1.104902978986502">
        <ele>626.91999999999996</ele>
        <time>2025-05-14T09:34:27Z</time>
      </trkpt>
      <trkpt lat="41.992142982780933" lon="1.107750982046127">
        <ele>638.92999999999995</ele>
        <time>2025-05-14T09:34:38Z</time>
      </trkpt>
      <trkpt lat="41.99235001578927" lon="1.108253980055451">
        <ele>641.34000000000003</ele>
        <time>2025-05-14T09:34:40Z</time>
      </trkpt>
      <trkpt lat="41.992473984137177" lon="1.108484985306859">
        <ele>642.77999999999997</ele>
        <time>2025-05-14T09:34:41Z</time>
      </trkpt>
      <trkpt lat="41.992598036304116" lon="1.108716996386647">
        <ele>644.22000000000003</ele>
        <time>2025-05-14T09:34:42Z</time>
      </trkpt>
      <trkpt lat="41.992767015472054" lon="1.108892010524869">
        <ele>645.65999999999997</ele>
        <time>2025-05-14T09:34:43Z</time>
      </trkpt>
      <trkpt lat="41.992947980761528" lon="1.109041040763259">
        <ele>647.10000000000002</ele>
        <time>2025-05-14T09:34:44Z</time>
      </trkpt>
      <trkpt lat="41.993137998506427" lon="1.109158974140883">
        <ele>648.07000000000005</ele>
        <time>2025-05-14T09:34:45Z</time>
      </trkpt>
      <trkpt lat="41.993342014029622" lon="1.109236003831029">
        <ele>649.50999999999999</ele>
        <time>2025-05-14T09:34:46Z</time>
      </trkpt>
      <trkpt lat="41.993550974875689" lon="1.109297024086118">
        <ele>650.47000000000003</ele>
        <time>2025-05-14T09:34:47Z</time>
      </trkpt>
      <trkpt lat="41.993762031197548" lon="1.109297024086118">
        <ele>651.90999999999997</ele>
        <time>2025-05-14T09:34:48Z</time>
      </trkpt>
      <trkpt lat="41.993966968730092" lon="1.109242038801312">
        <ele>652.87</ele>
        <time>2025-05-14T09:34:49Z</time>
      </trkpt>
      <trkpt lat="41.994174001738429" lon="1.109172971919179">
        <ele>653.83000000000004</ele>
        <time>2025-05-14T09:34:50Z</time>
      </trkpt>
      <trkpt lat="41.994380028918386" lon="1.109086973592639">
        <ele>654.79999999999995</ele>
        <time>2025-05-14T09:34:51Z</time>
      </trkpt>
      <trkpt lat="41.994575997814536" lon="1.108964011073113">
        <ele>655.27999999999997</ele>
        <time>2025-05-14T09:34:52Z</time>
      </trkpt>
      <trkpt lat="41.994770960882306" lon="1.108841970562935">
        <ele>656.24000000000001</ele>
        <time>2025-05-14T09:34:53Z</time>
      </trkpt>
      <trkpt lat="41.994965001940727" lon="1.10872101970017">
        <ele>656.72000000000003</ele>
        <time>2025-05-14T09:34:54Z</time>
      </trkpt>
      <trkpt lat="41.99516398832202" lon="1.10863502137363">
        <ele>657.67999999999995</ele>
        <time>2025-05-14T09:34:55Z</time>
      </trkpt>
      <trkpt lat="41.995368003845215" lon="1.108582969754934">
        <ele>658.15999999999997</ele>
        <time>2025-05-14T09:34:56Z</time>
      </trkpt>
      <trkpt lat="41.995561961084604" lon="1.108567966148257">
        <ele>658.63999999999999</ele>
        <time>2025-05-14T09:34:57Z</time>
      </trkpt>
      <trkpt lat="41.995783997699618" lon="1.108630998060107">
        <ele>659.12</ele>
        <time>2025-05-14T09:34:58Z</time>
      </trkpt>
      <trkpt lat="41.995991030707955" lon="1.108690006658435">
        <ele>659.60000000000002</ele>
        <time>2025-05-14T09:34:59Z</time>
      </trkpt>
      <trkpt lat="41.996175013482571" lon="1.108820009976625">
        <ele>660.08000000000004</ele>
        <time>2025-05-14T09:35:00Z</time>
      </trkpt>
      <trkpt lat="41.996358996257186" lon="1.10895998775959">
        <ele>660.55999999999995</ele>
        <time>2025-05-14T09:35:01Z</time>
      </trkpt>
      <trkpt lat="41.996545996516943" lon="1.109100971370935">
        <ele>661.03999999999996</ele>
        <time>2025-05-14T09:35:02Z</time>
      </trkpt>
      <trkpt lat="41.998135959729552" lon="1.109957015141845">
        <ele>665.85000000000002</ele>
        <time>2025-05-14T09:35:10Z</time>
      </trkpt>
      <trkpt lat="41.999208005145192" lon="1.110288016498089">
        <ele>671.13999999999999</ele>
        <time>2025-05-14T09:35:15Z</time>
      </trkpt>
      <trkpt lat="42.000699983909726" lon="1.110291033983231">
        <ele>681.23000000000002</ele>
        <time>2025-05-14T09:35:22Z</time>
      </trkpt>
      <trkpt lat="42.000912968069315" lon="1.110310982912779">
        <ele>682.66999999999996</ele>
        <time>2025-05-14T09:35:23Z</time>
      </trkpt>
      <trkpt lat="42.001122012734413" lon="1.110345013439655">
        <ele>684.12</ele>
        <time>2025-05-14T09:35:24Z</time>
      </trkpt>
      <trkpt lat="42.001320999115705" lon="1.110445009544492">
        <ele>685.55999999999995</ele>
        <time>2025-05-14T09:35:25Z</time>
      </trkpt>
      <trkpt lat="42.001510011032224" lon="1.110556991770864">
        <ele>686.51999999999998</ele>
        <time>2025-05-14T09:35:26Z</time>
      </trkpt>
      <trkpt lat="42.001692987978458" lon="1.110698981210589">
        <ele>687.96000000000004</ele>
        <time>2025-05-14T09:35:27Z</time>
      </trkpt>
      <trkpt lat="42.002263963222504" lon="1.111109023913741">
        <ele>691.33000000000004</ele>
        <time>2025-05-14T09:35:30Z</time>
      </trkpt>
      <trkpt lat="42.002472002059221" lon="1.111179012805224">
        <ele>692.28999999999996</ele>
        <time>2025-05-14T09:35:31Z</time>
      </trkpt>
      <trkpt lat="42.002680962905288" lon="1.111247995868325">
        <ele>693.25</ele>
        <time>2025-05-14T09:35:32Z</time>
      </trkpt>
      <trkpt lat="42.004350973293185" lon="1.111805979162455">
        <ele>699.5</ele>
        <time>2025-05-14T09:35:40Z</time>
      </trkpt>
      <trkpt lat="42.00592802837491" lon="1.112750032916665">
        <ele>703.82000000000005</ele>
        <time>2025-05-14T09:35:48Z</time>
      </trkpt>
      <trkpt lat="42.007810017094016" lon="1.1132110375911">
        <ele>711.99000000000001</ele>
        <time>2025-05-14T09:35:57Z</time>
      </trkpt>
      <trkpt lat="42.009931979700923" lon="1.11336400732398">
        <ele>721.13</ele>
        <time>2025-05-14T09:36:07Z</time>
      </trkpt>
      <trkpt lat="42.011645995080471" lon="1.113335005939007">
        <ele>728.34000000000003</ele>
        <time>2025-05-14T09:36:15Z</time>
      </trkpt>
      <trkpt lat="42.013138979673386" lon="1.113726021721959">
        <ele>735.54999999999995</ele>
        <time>2025-05-14T09:36:23Z</time>
      </trkpt>
      <trkpt lat="42.013567965477705" lon="1.113852001726627">
        <ele>738.42999999999995</ele>
        <time>2025-05-14T09:36:26Z</time>
      </trkpt>
      <trkpt lat="42.013678019866347" lon="1.113885026425123">
        <ele>738.90999999999997</ele>
        <time>2025-05-14T09:36:27Z</time>
      </trkpt>
      <trkpt lat="42.013754965737462" lon="1.114027015864849">
        <ele>739.38999999999999</ele>
        <time>2025-05-14T09:36:28Z</time>
      </trkpt>
      <trkpt lat="42.013806011527777" lon="1.114143021404743">
        <ele>739.87</ele>
        <time>2025-05-14T09:36:29Z</time>
      </trkpt>
      <trkpt lat="42.013864014297724" lon="1.114289034157991">
        <ele>740.35000000000002</ele>
        <time>2025-05-14T09:36:30Z</time>
      </trkpt>
      <trkpt lat="42.013853034004569" lon="1.114433035254479">
        <ele>740.83000000000004</ele>
        <time>2025-05-14T09:36:31Z</time>
      </trkpt>
      <trkpt lat="42.013836018741131" lon="1.114598996937275">
        <ele>740.83000000000004</ele>
        <time>2025-05-14T09:36:32Z</time>
      </trkpt>
      <trkpt lat="42.013807017356157" lon="1.114773005247116">
        <ele>740.83000000000004</ele>
        <time>2025-05-14T09:36:33Z</time>
      </trkpt>
      <trkpt lat="42.013779021799564" lon="1.114940978586674">
        <ele>740.83000000000004</ele>
        <time>2025-05-14T09:36:34Z</time>
      </trkpt>
      <trkpt lat="42.013803999871016" lon="1.115139964967966">
        <ele>740.83000000000004</ele>
        <time>2025-05-14T09:36:35Z</time>
      </trkpt>
      <trkpt lat="42.013837024569511" lon="1.115321014076471">
        <ele>740.35000000000002</ele>
        <time>2025-05-14T09:36:36Z</time>
      </trkpt>
      <trkpt lat="42.013912964612246" lon="1.115506002679467">
        <ele>739.38999999999999</ele>
        <time>2025-05-14T09:36:37Z</time>
      </trkpt>
      <trkpt lat="42.013992005959153" lon="1.115698032081127">
        <ele>738.42999999999995</ele>
        <time>2025-05-14T09:36:38Z</time>
      </trkpt>
      <trkpt lat="42.01407196931541" lon="1.115892995148897">
        <ele>736.99000000000001</ele>
        <time>2025-05-14T09:36:39Z</time>
      </trkpt>
      <trkpt lat="42.014381010085344" lon="1.116686007007957">
        <ele>730.25999999999999</ele>
        <time>2025-05-14T09:36:43Z</time>
      </trkpt>
      <trkpt lat="42.014423003420234" lon="1.116893040016294">
        <ele>728.34000000000003</ele>
        <time>2025-05-14T09:36:44Z</time>
      </trkpt>
      <trkpt lat="42.014423003420234" lon="1.117147011682391">
        <ele>726.88999999999999</ele>
        <time>2025-05-14T09:36:45Z</time>
      </trkpt>
      <trkpt lat="42.014423003420234" lon="1.117394026368856">
        <ele>725.45000000000005</ele>
        <time>2025-05-14T09:36:46Z</time>
      </trkpt>
      <trkpt lat="42.014397019520402" lon="1.117643974721432">
        <ele>723.04999999999995</ele>
        <time>2025-05-14T09:36:47Z</time>
      </trkpt>
      <trkpt lat="42.014357959851623" lon="1.117899036034942">
        <ele>721.13</ele>
        <time>2025-05-14T09:36:48Z</time>
      </trkpt>
      <trkpt lat="42.013951018452644" lon="1.120566995814443">
        <ele>701.41999999999996</ele>
        <time>2025-05-14T09:36:58Z</time>
      </trkpt>
      <trkpt lat="42.013523038476706" lon="1.123362025246024">
        <ele>686.51999999999998</ele>
        <time>2025-05-14T09:37:08Z</time>
      </trkpt>
      <trkpt lat="42.013136968016624" lon="1.126741021871567">
        <ele>672.58000000000004</ele>
        <time>2025-05-14T09:37:20Z</time>
      </trkpt>
      <trkpt lat="42.01323595829308" lon="1.129676029086113">
        <ele>665.85000000000002</ele>
        <time>2025-05-14T09:37:30Z</time>
      </trkpt>
      <trkpt lat="42.013354981318116" lon="1.131117967888713">
        <ele>660.08000000000004</ele>
        <time>2025-05-14T09:37:35Z</time>
      </trkpt>
      <trkpt lat="42.013322962448001" lon="1.131371017545462">
        <ele>658.63999999999999</ele>
        <time>2025-05-14T09:37:36Z</time>
      </trkpt>
      <trkpt lat="42.013293039053679" lon="1.131597999483347">
        <ele>657.20000000000005</ele>
        <time>2025-05-14T09:37:37Z</time>
      </trkpt>
      <trkpt lat="42.013238975778222" lon="1.131788017228246">
        <ele>656.24000000000001</ele>
        <time>2025-05-14T09:37:38Z</time>
      </trkpt>
      <trkpt lat="42.013170998543501" lon="1.131981974467635">
        <ele>654.79999999999995</ele>
        <time>2025-05-14T09:37:39Z</time>
      </trkpt>
      <trkpt lat="42.013068990781903" lon="1.132131004706025">
        <ele>653.83000000000004</ele>
        <time>2025-05-14T09:37:40Z</time>
      </trkpt>
      <trkpt lat="42.012951979413629" lon="1.132277017459273">
        <ele>652.38999999999999</ele>
        <time>2025-05-14T09:37:41Z</time>
      </trkpt>
      <trkpt lat="42.012833040207624" lon="1.132384976372123">
        <ele>650.95000000000005</ele>
        <time>2025-05-14T09:37:42Z</time>
      </trkpt>
      <trkpt lat="42.01269599609077" lon="1.132470974698663">
        <ele>649.50999999999999</ele>
        <time>2025-05-14T09:37:43Z</time>
      </trkpt>
      <trkpt lat="42.012563981115818" lon="1.132554961368442">
        <ele>648.54999999999995</ele>
        <time>2025-05-14T09:37:44Z</time>
      </trkpt>
      <trkpt lat="42.012432971969247" lon="1.132616987451911">
        <ele>647.10000000000002</ele>
        <time>2025-05-14T09:37:45Z</time>
      </trkpt>
      <trkpt lat="42.012290982529521" lon="1.13265797495842">
        <ele>645.65999999999997</ele>
        <time>2025-05-14T09:37:46Z</time>
      </trkpt>
      <trkpt lat="42.011165041476488" lon="1.133059971034527">
        <ele>637.49000000000001</ele>
        <time>2025-05-14T09:37:53Z</time>
      </trkpt>
      <trkpt lat="42.010629018768668" lon="1.133459033444524">
        <ele>632.67999999999995</ele>
        <time>2025-05-14T09:37:56Z</time>
      </trkpt>
      <trkpt lat="42.010470014065504" lon="1.133652990683913">
        <ele>630.75999999999999</ele>
        <time>2025-05-14T09:37:57Z</time>
      </trkpt>
      <trkpt lat="42.010314026847482" lon="1.133856000378728">
        <ele>628.84000000000003</ele>
        <time>2025-05-14T09:37:58Z</time>
      </trkpt>
      <trkpt lat="42.010173965245485" lon="1.134037971496582">
        <ele>626.91999999999996</ele>
        <time>2025-05-14T09:37:59Z</time>
      </trkpt>
      <trkpt lat="42.010057037696242" lon="1.13429001532495">
        <ele>625.47000000000003</ele>
        <time>2025-05-14T09:38:00Z</time>
      </trkpt>
      <trkpt lat="42.009951006621122" lon="1.134516997262836">
        <ele>624.02999999999997</ele>
        <time>2025-05-14T09:38:01Z</time>
      </trkpt>
      <trkpt lat="42.009852016344666" lon="1.134749008342624">
        <ele>622.59000000000003</ele>
        <time>2025-05-14T09:38:02Z</time>
      </trkpt>
      <trkpt lat="42.009772974997759" lon="1.134995017200708">
        <ele>621.63</ele>
        <time>2025-05-14T09:38:03Z</time>
      </trkpt>
      <trkpt lat="42.009204011410475" lon="1.136472998186946">
        <ele>619.23000000000002</ele>
        <time>2025-05-14T09:38:09Z</time>
      </trkpt>
      <trkpt lat="42.009068978950381" lon="1.136690005660057">
        <ele>619.23000000000002</ele>
        <time>2025-05-14T09:38:10Z</time>
      </trkpt>
      <trkpt lat="42.008929001167417" lon="1.136895027011633">
        <ele>618.75</ele>
        <time>2025-05-14T09:38:11Z</time>
      </trkpt>
      <trkpt lat="42.008769996464252" lon="1.137072974815965">
        <ele>618.25999999999999</ele>
        <time>2025-05-14T09:38:12Z</time>
      </trkpt>
      <trkpt lat="42.008603028953075" lon="1.137240026146174">
        <ele>618.25999999999999</ele>
        <time>2025-05-14T09:38:13Z</time>
      </trkpt>
      <trkpt lat="42.008436983451247" lon="1.13740598782897">
        <ele>617.77999999999997</ele>
        <time>2025-05-14T09:38:14Z</time>
      </trkpt>
      <trkpt lat="42.00764698907733" lon="1.138320034369826">
        <ele>618.25999999999999</ele>
        <time>2025-05-14T09:38:19Z</time>
      </trkpt>
      <trkpt lat="42.007523020729423" lon="1.138538969680667">
        <ele>619.23000000000002</ele>
        <time>2025-05-14T09:38:20Z</time>
      </trkpt>
      <trkpt lat="42.007406009361148" lon="1.138764023780823">
        <ele>620.19000000000005</ele>
        <time>2025-05-14T09:38:21Z</time>
      </trkpt>
      <trkpt lat="42.007297966629267" lon="1.138999974355102">
        <ele>620.66999999999996</ele>
        <time>2025-05-14T09:38:22Z</time>
      </trkpt>
      <trkpt lat="42.007215991616249" lon="1.139260986819863">
        <ele>621.14999999999998</ele>
        <time>2025-05-14T09:38:23Z</time>
      </trkpt>
      <trkpt lat="42.007161006331444" lon="1.139535997062922">
        <ele>622.11000000000001</ele>
        <time>2025-05-14T09:38:24Z</time>
      </trkpt>
      <trkpt lat="42.007126975804567" lon="1.139814024791122">
        <ele>623.07000000000005</ele>
        <time>2025-05-14T09:38:25Z</time>
      </trkpt>
      <trkpt lat="42.007126975804567" lon="1.14009004086256">
        <ele>624.02999999999997</ele>
        <time>2025-05-14T09:38:26Z</time>
      </trkpt>
      <trkpt lat="42.007126975804567" lon="1.140372008085251">
        <ele>624.99000000000001</ele>
        <time>2025-05-14T09:38:27Z</time>
      </trkpt>
      <trkpt lat="42.007167041301727" lon="1.140659004449844">
        <ele>625.96000000000004</ele>
        <time>2025-05-14T09:38:28Z</time>
      </trkpt>
      <trkpt lat="42.007219009101391" lon="1.140943989157677">
        <ele>626.91999999999996</ele>
        <time>2025-05-14T09:38:29Z</time>
      </trkpt>
      <trkpt lat="42.007282041013241" lon="1.141232997179031">
        <ele>627.39999999999998</ele>
        <time>2025-05-14T09:38:30Z</time>
      </trkpt>
      <trkpt lat="42.008004980161786" lon="1.144314017146826">
        <ele>627.88</ele>
        <time>2025-05-14T09:38:40Z</time>
      </trkpt>
      <trkpt lat="42.008838979527354" lon="1.147237960249186">
        <ele>626.91999999999996</ele>
        <time>2025-05-14T09:38:50Z</time>
      </trkpt>
      <trkpt lat="42.00891399756074" lon="1.14752403460443">
        <ele>626.91999999999996</ele>
        <time>2025-05-14T09:38:51Z</time>
      </trkpt>
      <trkpt lat="42.008979041129351" lon="1.14780399017036">
        <ele>626.44000000000005</ele>
        <time>2025-05-14T09:38:52Z</time>
      </trkpt>
      <trkpt lat="42.009014999493957" lon="1.148088974878192">
        <ele>626.44000000000005</ele>
        <time>2025-05-14T09:38:53Z</time>
      </trkpt>
      <trkpt lat="42.009121030569077" lon="1.148937977850437">
        <ele>626.44000000000005</ele>
        <time>2025-05-14T09:38:56Z</time>
      </trkpt>
      <trkpt lat="42.009183978661895" lon="1.149194967001677">
        <ele>626.91999999999996</ele>
        <time>2025-05-14T09:38:57Z</time>
      </trkpt>
      <trkpt lat="42.009274000301957" lon="1.149425972253084">
        <ele>627.39999999999998</ele>
        <time>2025-05-14T09:38:58Z</time>
      </trkpt>
      <trkpt lat="42.009380031377077" lon="1.149638034403324">
        <ele>627.39999999999998</ele>
        <time>2025-05-14T09:38:59Z</time>
      </trkpt>
      <trkpt lat="42.009539036080241" lon="1.149806007742882">
        <ele>628.36000000000001</ele>
        <time>2025-05-14T09:39:00Z</time>
      </trkpt>
      <trkpt lat="42.009697034955025" lon="1.149971969425678">
        <ele>628.84000000000003</ele>
        <time>2025-05-14T09:39:01Z</time>
      </trkpt>
      <trkpt lat="42.009871965274215" lon="1.150090992450714">
        <ele>629.79999999999995</ele>
        <time>2025-05-14T09:39:02Z</time>
      </trkpt>
      <trkpt lat="42.010062988847494" lon="1.150191994383931">
        <ele>630.27999999999997</ele>
        <time>2025-05-14T09:39:03Z</time>
      </trkpt>
      <trkpt lat="42.010260969400406" lon="1.150239016860724">
        <ele>631.24000000000001</ele>
        <time>2025-05-14T09:39:04Z</time>
      </trkpt>
      <trkpt lat="42.010469008237123" lon="1.150269024074078">
        <ele>631.72000000000003</ele>
        <time>2025-05-14T09:39:05Z</time>
      </trkpt>
      <trkpt lat="42.01067796908319" lon="1.150299031287432">
        <ele>632.67999999999995</ele>
        <time>2025-05-14T09:39:06Z</time>
      </trkpt>
      <trkpt lat="42.01188001781702" lon="1.150545962154865">
        <ele>635.57000000000005</ele>
        <time>2025-05-14T09:39:12Z</time>
      </trkpt>
      <trkpt lat="42.01205100864172" lon="1.150649981573224">
        <ele>635.57000000000005</ele>
        <time>2025-05-14T09:39:13Z</time>
      </trkpt>
      <trkpt lat="42.012221999466419" lon="1.150754000991583">
        <ele>635.57000000000005</ele>
        <time>2025-05-14T09:39:14Z</time>
      </trkpt>
      <trkpt lat="42.012381004169583" lon="1.150900013744831">
        <ele>635.57000000000005</ele>
        <time>2025-05-14T09:39:15Z</time>
      </trkpt>
      <trkpt lat="42.012520981952548" lon="1.151087014004588">
        <ele>635.09000000000003</ele>
        <time>2025-05-14T09:39:16Z</time>
      </trkpt>
      <trkpt lat="42.012604968622327" lon="1.151302009820938">
        <ele>634.13</ele>
        <time>2025-05-14T09:39:17Z</time>
      </trkpt>
      <trkpt lat="42.012664983049035" lon="1.151517005637288">
        <ele>633.16999999999996</ele>
        <time>2025-05-14T09:39:18Z</time>
      </trkpt>
      <trkpt lat="42.012708988040686" lon="1.151752034202218">
        <ele>631.72000000000003</ele>
        <time>2025-05-14T09:39:19Z</time>
      </trkpt>
      <trkpt lat="42.012722985818982" lon="1.151997959241271">
        <ele>630.27999999999997</ele>
        <time>2025-05-14T09:39:20Z</time>
      </trkpt>
      <trkpt lat="42.012714017182589" lon="1.152264000847936">
        <ele>628.36000000000001</ele>
        <time>2025-05-14T09:39:21Z</time>
      </trkpt>
      <trkpt lat="42.012702031061053" lon="1.152544040232897">
        <ele>626.91999999999996</ele>
        <time>2025-05-14T09:39:22Z</time>
      </trkpt>
      <trkpt lat="42.012600023299456" lon="1.153974998742342">
        <ele>616.34000000000003</ele>
        <time>2025-05-14T09:39:27Z</time>
      </trkpt>
      <trkpt lat="42.012643022462726" lon="1.154241040349007">
        <ele>614.41999999999996</ele>
        <time>2025-05-14T09:39:28Z</time>
      </trkpt>
      <trkpt lat="42.012689961120486" lon="1.15450800396502">
        <ele>612.5</ele>
        <time>2025-05-14T09:39:29Z</time>
      </trkpt>
      <trkpt lat="42.012751987203956" lon="1.154772033914924">
        <ele>610.57000000000005</ele>
        <time>2025-05-14T09:39:30Z</time>
      </trkpt>
      <trkpt lat="42.012871010228992" lon="1.155008990317583">
        <ele>608.64999999999998</ele>
        <time>2025-05-14T09:39:31Z</time>
      </trkpt>
      <trkpt lat="42.012992966920137" lon="1.155253993347287">
        <ele>606.73000000000002</ele>
        <time>2025-05-14T09:39:32Z</time>
      </trkpt>
      <trkpt lat="42.013153983280063" lon="1.155464965850115">
        <ele>604.33000000000004</ele>
        <time>2025-05-14T09:39:33Z</time>
      </trkpt>
      <trkpt lat="42.013324974104762" lon="1.155658001080155">
        <ele>602.88</ele>
        <time>2025-05-14T09:39:34Z</time>
      </trkpt>
      <trkpt lat="42.013509040698409" lon="1.155829997733235">
        <ele>601.44000000000005</ele>
        <time>2025-05-14T09:39:35Z</time>
      </trkpt>
      <trkpt lat="42.013693023473024" lon="1.1559890024364">
        <ele>600.48000000000002</ele>
        <time>2025-05-14T09:39:36Z</time>
      </trkpt>
      <trkpt lat="42.016334999352694" lon="1.157951960340142">
        <ele>607.21000000000004</ele>
        <time>2025-05-14T09:39:49Z</time>
      </trkpt>
      <trkpt lat="42.017722958698869" lon="1.158305006101728">
        <ele>615.86000000000001</ele>
        <time>2025-05-14T09:39:55Z</time>
      </trkpt>
      <trkpt lat="42.018309021368623" lon="1.158410031348467">
        <ele>620.19000000000005</ele>
        <time>2025-05-14T09:39:58Z</time>
      </trkpt>
      <trkpt lat="42.01862895861268" lon="1.158564006909728">
        <ele>622.11000000000001</ele>
        <time>2025-05-14T09:40:00Z</time>
      </trkpt>
      <trkpt lat="42.018766002729535" lon="1.158733991906047">
        <ele>623.54999999999995</ele>
        <time>2025-05-14T09:40:01Z</time>
      </trkpt>
      <trkpt lat="42.018892988562584" lon="1.158889979124069">
        <ele>624.99000000000001</ele>
        <time>2025-05-14T09:40:02Z</time>
      </trkpt>
      <trkpt lat="42.018973035737872" lon="1.15906298160553">
        <ele>625.47000000000003</ele>
        <time>2025-05-14T09:40:03Z</time>
      </trkpt>
      <trkpt lat="42.019015029072762" lon="1.159164989367127">
        <ele>626.91999999999996</ele>
        <time>2025-05-14T09:40:04Z</time>
      </trkpt>
      <trkpt lat="42.01905501075089" lon="1.159448968246579">
        <ele>627.88</ele>
        <time>2025-05-14T09:40:05Z</time>
      </trkpt>
      <trkpt lat="42.01907898299396" lon="1.159616019576788">
        <ele>628.36000000000001</ele>
        <time>2025-05-14T09:40:06Z</time>
      </trkpt>
      <trkpt lat="42.019060961902142" lon="1.159830009564757">
        <ele>629.79999999999995</ele>
        <time>2025-05-14T09:40:07Z</time>
      </trkpt>
      <trkpt lat="42.019058028236032" lon="1.159873008728027">
        <ele>630.27999999999997</ele>
        <time>2025-05-14T09:40:08Z</time>
      </trkpt>
      <trkpt lat="42.018980998545885" lon="1.160104013979435">
        <ele>630.75999999999999</ele>
        <time>2025-05-14T09:40:09Z</time>
      </trkpt>
      <trkpt lat="42.018929030746222" lon="1.160258995369077">
        <ele>631.72000000000003</ele>
        <time>2025-05-14T09:40:10Z</time>
      </trkpt>
      <trkpt lat="42.018853006884456" lon="1.160363014787436">
        <ele>632.20000000000005</ele>
        <time>2025-05-14T09:40:11Z</time>
      </trkpt>
      <trkpt lat="42.018692996352911" lon="1.160581028088927">
        <ele>633.16999999999996</ele>
        <time>2025-05-14T09:40:12Z</time>
      </trkpt>
      <trkpt lat="42.01851898804307" lon="1.160742966458201">
        <ele>633.64999999999998</ele>
        <time>2025-05-14T09:40:13Z</time>
      </trkpt>
      <trkpt lat="42.018177006393671" lon="1.16106198169291">
        <ele>635.09000000000003</ele>
        <time>2025-05-14T09:40:15Z</time>
      </trkpt>
      <trkpt lat="42.018005009740591" lon="1.161222998052836">
        <ele>635.09000000000003</ele>
        <time>2025-05-14T09:40:16Z</time>
      </trkpt>
      <trkpt lat="42.01783200725913" lon="1.161385020241141">
        <ele>636.52999999999997</ele>
        <time>2025-05-14T09:40:17Z</time>
      </trkpt>
      <trkpt lat="42.017678031697869" lon="1.161575959995389">
        <ele>637.00999999999999</ele>
        <time>2025-05-14T09:40:18Z</time>
      </trkpt>
      <trkpt lat="42.017589015886188" lon="1.161742005497217">
        <ele>637.49000000000001</ele>
        <time>2025-05-14T09:40:19Z</time>
      </trkpt>
      <trkpt lat="42.017523972317576" lon="1.161939986050129">
        <ele>638.45000000000005</ele>
        <time>2025-05-14T09:40:20Z</time>
      </trkpt>
      <trkpt lat="42.017488013952971" lon="1.162104019895196">
        <ele>638.92999999999995</ele>
        <time>2025-05-14T09:40:21Z</time>
      </trkpt>
      <trkpt lat="42.017474016174674" lon="1.162294037640095">
        <ele>638.45000000000005</ele>
        <time>2025-05-14T09:40:22Z</time>
      </trkpt>
      <trkpt lat="42.017484996467829" lon="1.162449019029737">
        <ele>637.49000000000001</ele>
        <time>2025-05-14T09:40:23Z</time>
      </trkpt>
      <trkpt lat="42.017495976760983" lon="1.162616992369294">
        <ele>636.52999999999997</ele>
        <time>2025-05-14T09:40:24Z</time>
      </trkpt>
      <trkpt lat="42.017512992024422" lon="1.162855960428715">
        <ele>636.52999999999997</ele>
        <time>2025-05-14T09:40:25Z</time>
      </trkpt>
      <trkpt lat="42.017663028091192" lon="1.163673028349876">
        <ele>636.04999999999995</ele>
        <time>2025-05-14T09:40:29Z</time>
      </trkpt>
      <trkpt lat="42.017663028091192" lon="1.163916019722819">
        <ele>636.04999999999995</ele>
        <time>2025-05-14T09:40:30Z</time>
      </trkpt>
      <trkpt lat="42.017581975087523" lon="1.164710959419608">
        <ele>637.97000000000003</ele>
        <time>2025-05-14T09:40:33Z</time>
      </trkpt>
      <trkpt lat="42.017286010086536" lon="1.16602499037981">
        <ele>642.77999999999997</ele>
        <time>2025-05-14T09:40:38Z</time>
      </trkpt>
      <trkpt lat="42.017201017588377" lon="1.166270999237895">
        <ele>644.22000000000003</ele>
        <time>2025-05-14T09:40:39Z</time>
      </trkpt>
      <trkpt lat="42.017118958756328" lon="1.166511978954077">
        <ele>645.65999999999997</ele>
        <time>2025-05-14T09:40:40Z</time>
      </trkpt>
      <trkpt lat="42.017022985965014" lon="1.166768968105316">
        <ele>647.10000000000002</ele>
        <time>2025-05-14T09:40:41Z</time>
      </trkpt>
      <trkpt lat="42.016892982646823" lon="1.166981030255556">
        <ele>648.54999999999995</ele>
        <time>2025-05-14T09:40:42Z</time>
      </trkpt>
      <trkpt lat="42.016738001257181" lon="1.167197031900287">
        <ele>649.99000000000001</ele>
        <time>2025-05-14T09:40:43Z</time>
      </trkpt>
      <trkpt lat="42.016572961583734" lon="1.167371962219477">
        <ele>651.42999999999995</ele>
        <time>2025-05-14T09:40:44Z</time>
      </trkpt>
      <trkpt lat="42.016388978809118" lon="1.167544964700937">
        <ele>652.87</ele>
        <time>2025-05-14T09:40:45Z</time>
      </trkpt>
      <trkpt lat="42.016203990206122" lon="1.167684020474553">
        <ele>653.83000000000004</ele>
        <time>2025-05-14T09:40:46Z</time>
      </trkpt>
      <trkpt lat="42.015991006046534" lon="1.167771024629474">
        <ele>655.27999999999997</ele>
        <time>2025-05-14T09:40:47Z</time>
      </trkpt>
      <trkpt lat="42.015792019665241" lon="1.167843025177717">
        <ele>656.72000000000003</ele>
        <time>2025-05-14T09:40:48Z</time>
      </trkpt>
      <trkpt lat="42.015599990263581" lon="1.167872026562691">
        <ele>658.15999999999997</ele>
        <time>2025-05-14T09:40:49Z</time>
      </trkpt>
      <trkpt lat="42.015415001660585" lon="1.167895998805761">
        <ele>659.60000000000002</ele>
        <time>2025-05-14T09:40:50Z</time>
      </trkpt>
      <trkpt lat="42.015236970037222" lon="1.167918965220451">
        <ele>661.03999999999996</ele>
        <time>2025-05-14T09:40:51Z</time>
      </trkpt>
      <trkpt lat="42.015075031667948" lon="1.167940003797412">
        <ele>662.49000000000001</ele>
        <time>2025-05-14T09:40:52Z</time>
      </trkpt>
      <trkpt lat="42.01495299115777" lon="1.168013010174036">
        <ele>663.92999999999995</ele>
        <time>2025-05-14T09:40:53Z</time>
      </trkpt>
      <trkpt lat="42.014835979789495" lon="1.168088028207421">
        <ele>664.88999999999999</ele>
        <time>2025-05-14T09:40:54Z</time>
      </trkpt>
      <trkpt lat="42.014747969806194" lon="1.168174026533961">
        <ele>666.33000000000004</ele>
        <time>2025-05-14T09:40:55Z</time>
      </trkpt>
      <trkpt lat="42.014645040035248" lon="1.168276034295559">
        <ele>667.28999999999996</ele>
        <time>2025-05-14T09:40:56Z</time>
      </trkpt>
      <trkpt lat="42.014573039487004" lon="1.168394973501563">
        <ele>668.25</ele>
        <time>2025-05-14T09:40:57Z</time>
      </trkpt>
      <trkpt lat="42.014496009796858" lon="1.168556995689869">
        <ele>668.73000000000002</ele>
        <time>2025-05-14T09:40:58Z</time>
      </trkpt>
      <trkpt lat="42.014415040612221" lon="1.168726980686188">
        <ele>669.22000000000003</ele>
        <time>2025-05-14T09:40:59Z</time>
      </trkpt>
      <trkpt lat="42.014361983165145" lon="1.168895037844777">
        <ele>669.70000000000005</ele>
        <time>2025-05-14T09:41:00Z</time>
      </trkpt>
      <trkpt lat="42.014324013143778" lon="1.169093018397689">
        <ele>669.70000000000005</ele>
        <time>2025-05-14T09:41:01Z</time>
      </trkpt>
      <trkpt lat="42.014294005930424" lon="1.169283958151937">
        <ele>670.65999999999997</ele>
        <time>2025-05-14T09:41:02Z</time>
      </trkpt>
      <trkpt lat="42.014294005930424" lon="1.169514041393995">
        <ele>671.13999999999999</ele>
        <time>2025-05-14T09:41:03Z</time>
      </trkpt>
      <trkpt lat="42.01432703062892" lon="1.169770024716854">
        <ele>672.10000000000002</ele>
        <time>2025-05-14T09:41:04Z</time>
      </trkpt>
      <trkpt lat="42.014709999784827" lon="1.171998018398881">
        <ele>683.63</ele>
        <time>2025-05-14T09:41:11Z</time>
      </trkpt>
      <trkpt lat="42.014729026705027" lon="1.17231803946197">
        <ele>685.55999999999995</ele>
        <time>2025-05-14T09:41:12Z</time>
      </trkpt>
      <trkpt lat="42.014744030311704" lon="1.172622973099351">
        <ele>687</ele>
        <time>2025-05-14T09:41:13Z</time>
      </trkpt>
      <trkpt lat="42.014730032533407" lon="1.172916004434228">
        <ele>688.91999999999996</ele>
        <time>2025-05-14T09:41:14Z</time>
      </trkpt>
      <trkpt lat="42.014699019491673" lon="1.173208029940724">
        <ele>690.36000000000001</ele>
        <time>2025-05-14T09:41:15Z</time>
      </trkpt>
      <trkpt lat="42.014649985358119" lon="1.173481028527021">
        <ele>692.28999999999996</ele>
        <time>2025-05-14T09:41:16Z</time>
      </trkpt>
      <trkpt lat="42.014593994244933" lon="1.173754027113318">
        <ele>693.73000000000002</ele>
        <time>2025-05-14T09:41:17Z</time>
      </trkpt>
      <trkpt lat="42.013987982645631" lon="1.175296967849135">
        <ele>700.46000000000004</ele>
        <time>2025-05-14T09:41:23Z</time>
      </trkpt>
      <trkpt lat="42.01381397433579" lon="1.175481034442782">
        <ele>700.94000000000005</ele>
        <time>2025-05-14T09:41:24Z</time>
      </trkpt>
      <trkpt lat="42.013648012652993" lon="1.175646996125579">
        <ele>701.41999999999996</ele>
        <time>2025-05-14T09:41:25Z</time>
      </trkpt>
      <trkpt lat="42.013454977422953" lon="1.175794014707208">
        <ele>701.41999999999996</ele>
        <time>2025-05-14T09:41:26Z</time>
      </trkpt>
      <trkpt lat="42.013250039890409" lon="1.175893004983664">
        <ele>700.94000000000005</ele>
        <time>2025-05-14T09:41:27Z</time>
      </trkpt>
      <trkpt lat="42.013045018538833" lon="1.1759930010885">
        <ele>700.46000000000004</ele>
        <time>2025-05-14T09:41:28Z</time>
      </trkpt>
      <trkpt lat="42.011260008439422" lon="1.176455011591315">
        <ele>697.09000000000003</ele>
        <time>2025-05-14T09:41:36Z</time>
      </trkpt>
      <trkpt lat="42.01018201187253" lon="1.176746031269431">
        <ele>696.61000000000001</ele>
        <time>2025-05-14T09:41:41Z</time>
      </trkpt>
      <trkpt lat="42.009997023269534" lon="1.176865976303816">
        <ele>696.13</ele>
        <time>2025-05-14T09:41:42Z</time>
      </trkpt>
      <trkpt lat="42.008670000359416" lon="1.177793014794588">
        <ele>689.88</ele>
        <time>2025-05-14T09:41:49Z</time>
      </trkpt>
      <trkpt lat="42.008544020354748" lon="1.177918994799256">
        <ele>688.91999999999996</ele>
        <time>2025-05-14T09:41:50Z</time>
      </trkpt>
      <trkpt lat="42.008436983451247" lon="1.178085040301085">
        <ele>687.96000000000004</ele>
        <time>2025-05-14T09:41:51Z</time>
      </trkpt>
      <trkpt lat="42.008346961811185" lon="1.17822996340692">
        <ele>687</ele>
        <time>2025-05-14T09:41:52Z</time>
      </trkpt>
      <trkpt lat="42.008276972919703" lon="1.178418975323439">
        <ele>686.03999999999996</ele>
        <time>2025-05-14T09:41:53Z</time>
      </trkpt>
      <trkpt lat="42.008202960714698" lon="1.178619973361492">
        <ele>685.08000000000004</ele>
        <time>2025-05-14T09:41:54Z</time>
      </trkpt>
      <trkpt lat="42.008124003186822" lon="1.178833963349462">
        <ele>684.12</ele>
        <time>2025-05-14T09:41:55Z</time>
      </trkpt>
      <trkpt lat="42.008044039830565" lon="1.179052982479334">
        <ele>683.14999999999998</ele>
        <time>2025-05-14T09:41:56Z</time>
      </trkpt>
      <trkpt lat="42.007967010140419" lon="1.179262027144432">
        <ele>682.19000000000005</ele>
        <time>2025-05-14T09:41:57Z</time>
      </trkpt>
      <trkpt lat="42.00784002430737" lon="1.179420026019216">
        <ele>681.23000000000002</ele>
        <time>2025-05-14T09:41:58Z</time>
      </trkpt>
      <trkpt lat="42.00771102681756" lon="1.179542988538742">
        <ele>679.78999999999996</ele>
        <time>2025-05-14T09:41:59Z</time>
      </trkpt>
      <trkpt lat="42.007558979094028" lon="1.179600991308689">
        <ele>678.83000000000004</ele>
        <time>2025-05-14T09:42:00Z</time>
      </trkpt>
      <trkpt lat="42.007397040724754" lon="1.17964600212872">
        <ele>677.87</ele>
        <time>2025-05-14T09:42:01Z</time>
      </trkpt>
      <trkpt lat="42.007222026586533" lon="1.179669974371791">
        <ele>676.90999999999997</ele>
        <time>2025-05-14T09:42:02Z</time>
      </trkpt>
      <trkpt lat="42.00704600661993" lon="1.179694030433893">
        <ele>675.94000000000005</ele>
        <time>2025-05-14T09:42:03Z</time>
      </trkpt>
      <trkpt lat="42.006869986653328" lon="1.179718002676964">
        <ele>674.98000000000002</ele>
        <time>2025-05-14T09:42:04Z</time>
      </trkpt>
      <trkpt lat="42.006703019142151" lon="1.179841971024871">
        <ele>673.05999999999995</ele>
        <time>2025-05-14T09:42:05Z</time>
      </trkpt>
      <trkpt lat="42.006536973640323" lon="1.179980020970106">
        <ele>671.62</ele>
        <time>2025-05-14T09:42:06Z</time>
      </trkpt>
      <trkpt lat="42.006366988644004" lon="1.180122010409832">
        <ele>670.65999999999997</ele>
        <time>2025-05-14T09:42:07Z</time>
      </trkpt>
      <trkpt lat="42.006015032529831" lon="1.180343963205814">
        <ele>667.76999999999998</ele>
        <time>2025-05-14T09:42:09Z</time>
      </trkpt>
      <trkpt lat="42.00584496371448" lon="1.180365001782775">
        <ele>666.33000000000004</ele>
        <time>2025-05-14T09:42:10Z</time>
      </trkpt>
      <trkpt lat="42.005666010081768" lon="1.180365001782775">
        <ele>665.37</ele>
        <time>2025-05-14T09:42:11Z</time>
      </trkpt>
      <trkpt lat="42.005498958751559" lon="1.180313033983111">
        <ele>663.92999999999995</ele>
        <time>2025-05-14T09:42:12Z</time>
      </trkpt>
      <trkpt lat="42.005312964320183" lon="1.180237010121346">
        <ele>662.97000000000003</ele>
        <time>2025-05-14T09:42:13Z</time>
      </trkpt>
      <trkpt lat="42.005125964060426" lon="1.180133996531367">
        <ele>662.00999999999999</ele>
        <time>2025-05-14T09:42:14Z</time>
      </trkpt>
      <trkpt lat="42.004913985729218" lon="1.180049004033208">
        <ele>660.55999999999995</ele>
        <time>2025-05-14T09:42:15Z</time>
      </trkpt>
      <trkpt lat="42.004690021276474" lon="1.179984966292977">
        <ele>659.12</ele>
        <time>2025-05-14T09:42:16Z</time>
      </trkpt>
      <trkpt lat="42.004461027681828" lon="1.179939033463597">
        <ele>657.67999999999995</ele>
        <time>2025-05-14T09:42:17Z</time>
      </trkpt>
      <trkpt lat="42.002968965098262" lon="1.179590011015534">
        <ele>645.65999999999997</ele>
        <time>2025-05-14T09:42:24Z</time>
      </trkpt>
      <trkpt lat="42.002556994557381" lon="1.179572995752096">
        <ele>642.29999999999995</ele>
        <time>2025-05-14T09:42:26Z</time>
      </trkpt>
      <trkpt lat="42.00233998708427" lon="1.179587999358773">
        <ele>640.86000000000001</ele>
        <time>2025-05-14T09:42:27Z</time>
      </trkpt>
      <trkpt lat="42.002120967954397" lon="1.17964600212872">
        <ele>639.88999999999999</ele>
        <time>2025-05-14T09:42:28Z</time>
      </trkpt>
      <trkpt lat="42.001907983794808" lon="1.179710039868951">
        <ele>638.45000000000005</ele>
        <time>2025-05-14T09:42:29Z</time>
      </trkpt>
      <trkpt lat="42.001705979928374" lon="1.179812969639897">
        <ele>637.49000000000001</ele>
        <time>2025-05-14T09:42:30Z</time>
      </trkpt>
      <trkpt lat="42.001516968011856" lon="1.179919000715017">
        <ele>636.52999999999997</ele>
        <time>2025-05-14T09:42:31Z</time>
      </trkpt>
      <trkpt lat="42.000121967867017" lon="1.180739002302289">
        <ele>633.16999999999996</ele>
        <time>2025-05-14T09:42:39Z</time>
      </trkpt>
      <trkpt lat="41.999103985726833" lon="1.181723037734628">
        <ele>629.32000000000005</ele>
        <time>2025-05-14T09:42:46Z</time>
      </trkpt>
      <trkpt lat="41.997743016108871" lon="1.182931959629059">
        <ele>620.66999999999996</ele>
        <time>2025-05-14T09:42:54Z</time>
      </trkpt>
      <trkpt lat="41.996985040605068" lon="1.183251980692148">
        <ele>615.86000000000001</ele>
        <time>2025-05-14T09:42:58Z</time>
      </trkpt>
      <trkpt lat="41.996798040345311" lon="1.183273019269109">
        <ele>614.89999999999998</ele>
        <time>2025-05-14T09:42:59Z</time>
      </trkpt>
      <trkpt lat="41.996617997065187" lon="1.183236977085471">
        <ele>613.94000000000005</ele>
        <time>2025-05-14T09:43:00Z</time>
      </trkpt>
      <trkpt lat="41.996444994583726" lon="1.183161037042737">
        <ele>612.98000000000002</ele>
        <time>2025-05-14T09:43:01Z</time>
      </trkpt>
      <trkpt lat="41.996279032900929" lon="1.183044025674462">
        <ele>612.5</ele>
        <time>2025-05-14T09:43:02Z</time>
      </trkpt>
      <trkpt lat="41.996122961863875" lon="1.182903964072466">
        <ele>612.01999999999998</ele>
        <time>2025-05-14T09:43:03Z</time>
      </trkpt>
      <trkpt lat="41.995995976030827" lon="1.182721992954612">
        <ele>611.53999999999996</ele>
        <time>2025-05-14T09:43:04Z</time>
      </trkpt>
      <trkpt lat="41.995889022946358" lon="1.182541027665138">
        <ele>611.05999999999995</ele>
        <time>2025-05-14T09:43:05Z</time>
      </trkpt>
      <trkpt lat="41.995790032669902" lon="1.182367019355297">
        <ele>610.57000000000005</ele>
        <time>2025-05-14T09:43:06Z</time>
      </trkpt>
      <trkpt lat="41.995388958603144" lon="1.181692024692893">
        <ele>607.69000000000005</ele>
        <time>2025-05-14T09:43:10Z</time>
      </trkpt>
      <trkpt lat="41.995267001911998" lon="1.181565038859844">
        <ele>606.73000000000002</ele>
        <time>2025-05-14T09:43:11Z</time>
      </trkpt>
      <trkpt lat="41.994569962844253" lon="1.180919967591763">
        <ele>601.91999999999996</ele>
        <time>2025-05-14T09:43:18Z</time>
      </trkpt>
      <trkpt lat="41.994067970663309" lon="1.180577985942364">
        <ele>599.03999999999996</ele>
        <time>2025-05-14T09:43:27Z</time>
      </trkpt>
      <trkpt lat="41.994031006470323" lon="1.180555019527674">
        <ele>598.55999999999995</ele>
        <time>2025-05-14T09:43:28Z</time>
      </trkpt>
      <trkpt lat="41.993996975943446" lon="1.180532975122333">
        <ele>598.55999999999995</ele>
        <time>2025-05-14T09:43:29Z</time>
      </trkpt>
      <trkpt lat="41.993865966796875" lon="1.180451000109315">
        <ele>598.08000000000004</ele>
        <time>2025-05-14T09:43:33Z</time>
      </trkpt>
      <trkpt lat="41.993865966796875" lon="1.180451000109315">
        <ele>598.08000000000004</ele>
        <time>2025-05-14T09:43:41Z</time>
      </trkpt>
      <trkpt lat="41.993860015645623" lon="1.180331977084279">
        <ele>611.05999999999995</ele>
        <time>2025-05-14T09:53:32Z</time>
      </trkpt>
      <trkpt lat="41.993835037574172" lon="1.180299958214164">
        <ele>618.75</ele>
        <time>2025-05-14T09:53:41Z</time>
      </trkpt>
      <trkpt lat="41.993865966796875" lon="1.180451000109315">
        <ele>618.25999999999999</ele>
        <time>2025-05-14T09:53:43Z</time>
      </trkpt>
      <trkpt lat="41.993522979319096" lon="1.180451000109315">
        <ele>617.77999999999997</ele>
        <time>2025-05-14T09:53:44Z</time>
      </trkpt>
      <trkpt lat="41.993630016222596" lon="1.180343963205814">
        <ele>616.82000000000005</ele>
        <time>2025-05-14T09:53:45Z</time>
      </trkpt>
      <trkpt lat="41.993630016222596" lon="1.180343963205814">
        <ele>616.34000000000003</ele>
        <time>2025-05-14T09:53:46Z</time>
      </trkpt>
      <trkpt lat="41.993572013452649" lon="1.180324014276266">
        <ele>615.38</ele>
        <time>2025-05-14T09:53:47Z</time>
      </trkpt>
      <trkpt lat="41.993522979319096" lon="1.180451000109315">
        <ele>614.89999999999998</ele>
        <time>2025-05-14T09:53:48Z</time>
      </trkpt>
      <trkpt lat="41.993508981540799" lon="1.180535992607474">
        <ele>613.94000000000005</ele>
        <time>2025-05-14T09:53:49Z</time>
      </trkpt>
      <trkpt lat="41.993513004854321" lon="1.180616039782763">
        <ele>612.98000000000002</ele>
        <time>2025-05-14T09:53:50Z</time>
      </trkpt>
      <trkpt lat="41.993549969047308" lon="1.180742019787431">
        <ele>612.5</ele>
        <time>2025-05-14T09:53:51Z</time>
      </trkpt>
      <trkpt lat="41.993580982089043" lon="1.18089197203517">
        <ele>612.01999999999998</ele>
        <time>2025-05-14T09:53:52Z</time>
      </trkpt>
      <trkpt lat="41.993604032322764" lon="1.181043013930321">
        <ele>611.53999999999996</ele>
        <time>2025-05-14T09:53:53Z</time>
      </trkpt>
      <trkpt lat="41.993743004277349" lon="1.182241961359978">
        <ele>610.57000000000005</ele>
        <time>2025-05-14T09:54:00Z</time>
      </trkpt>
      <trkpt lat="41.99378902092576" lon="1.182432984933257">
        <ele>610.57000000000005</ele>
        <time>2025-05-14T09:54:01Z</time>
      </trkpt>
      <trkpt lat="41.993863033130765" lon="1.182614034041762">
        <ele>610.09000000000003</ele>
        <time>2025-05-14T09:54:02Z</time>
      </trkpt>
      <trkpt lat="41.993950959295034" lon="1.182794999331236">
        <ele>610.09000000000003</ele>
        <time>2025-05-14T09:54:03Z</time>
      </trkpt>
      <trkpt lat="41.994035029783845" lon="1.182966995984316">
        <ele>609.61000000000001</ele>
        <time>2025-05-14T09:54:04Z</time>
      </trkpt>
      <trkpt lat="41.994191017001867" lon="1.183287017047405">
        <ele>609.13</ele>
        <time>2025-05-14T09:54:06Z</time>
      </trkpt>
      <trkpt lat="41.994253965094686" lon="1.183445015922189">
        <ele>608.64999999999998</ele>
        <time>2025-05-14T09:54:07Z</time>
      </trkpt>
      <trkpt lat="41.994314985349774" lon="1.183607038110495">
        <ele>608.64999999999998</ele>
        <time>2025-05-14T09:54:08Z</time>
      </trkpt>
      <trkpt lat="41.994355972856283" lon="1.183784985914826">
        <ele>608.16999999999996</ele>
        <time>2025-05-14T09:54:09Z</time>
      </trkpt>
      <trkpt lat="41.994383968412876" lon="1.183978021144867">
        <ele>607.69000000000005</ele>
        <time>2025-05-14T09:54:10Z</time>
      </trkpt>
      <trkpt lat="41.99441296979785" lon="1.184174995869398">
        <ele>607.21000000000004</ele>
        <time>2025-05-14T09:54:11Z</time>
      </trkpt>
      <trkpt lat="41.994411963969469" lon="1.184376999735832">
        <ele>606.73000000000002</ele>
        <time>2025-05-14T09:54:12Z</time>
      </trkpt>
      <trkpt lat="41.99439100921154" lon="1.184584032744169">
        <ele>605.76999999999998</ele>
        <time>2025-05-14T09:54:13Z</time>
      </trkpt>
      <trkpt lat="41.994344992563128" lon="1.184787964448333">
        <ele>604.80999999999995</ele>
        <time>2025-05-14T09:54:14Z</time>
      </trkpt>
      <trkpt lat="41.994276009500027" lon="1.18499499745667">
        <ele>603.85000000000002</ele>
        <time>2025-05-14T09:54:15Z</time>
      </trkpt>
      <trkpt lat="41.994193028658628" lon="1.185199012979865">
        <ele>602.88</ele>
        <time>2025-05-14T09:54:16Z</time>
      </trkpt>
      <trkpt lat="41.994084985926747" lon="1.185386013239622">
        <ele>601.91999999999996</ele>
        <time>2025-05-14T09:54:17Z</time>
      </trkpt>
      <trkpt lat="41.993952970951796" lon="1.185546023771167">
        <ele>600.48000000000002</ele>
        <time>2025-05-14T09:54:18Z</time>
      </trkpt>
      <trkpt lat="41.993818022310734" lon="1.185708967968822">
        <ele>599.03999999999996</ele>
        <time>2025-05-14T09:54:19Z</time>
      </trkpt>
      <trkpt lat="41.993676032871008" lon="1.18587601929903">
        <ele>597.60000000000002</ele>
        <time>2025-05-14T09:54:20Z</time>
      </trkpt>
      <trkpt lat="41.991969980299473" lon="1.18755298666656">
        <ele>577.40999999999997</ele>
        <time>2025-05-14T09:54:32Z</time>
      </trkpt>
      <trkpt lat="41.991644008085132" lon="1.188051039353013">
        <ele>572.60000000000002</ele>
        <time>2025-05-14T09:54:35Z</time>
      </trkpt>
      <trkpt lat="41.991546023637056" lon="1.188266035169363">
        <ele>570.67999999999995</ele>
        <time>2025-05-14T09:54:36Z</time>
      </trkpt>
      <trkpt lat="41.990741025656462" lon="1.189858010038734">
        <ele>557.22000000000003</ele>
        <time>2025-05-14T09:54:43Z</time>
      </trkpt>
      <trkpt lat="41.990234004333615" lon="1.190368970856071">
        <ele>550.49000000000001</ele>
        <time>2025-05-14T09:54:46Z</time>
      </trkpt>
      <trkpt lat="41.990050021559" lon="1.190504003316164">
        <ele>548.57000000000005</ele>
        <time>2025-05-14T09:54:47Z</time>
      </trkpt>
      <trkpt lat="41.989311994984746" lon="1.190982023254037">
        <ele>540.39999999999998</ele>
        <time>2025-05-14T09:54:51Z</time>
      </trkpt>
      <trkpt lat="41.989158019423485" lon="1.191132981330156">
        <ele>538.48000000000002</ele>
        <time>2025-05-14T09:54:52Z</time>
      </trkpt>
      <trkpt lat="41.989026004448533" lon="1.19131101295352">
        <ele>536.54999999999995</ele>
        <time>2025-05-14T09:54:53Z</time>
      </trkpt>
      <trkpt lat="41.988926008343697" lon="1.191512010991573">
        <ele>534.63</ele>
        <time>2025-05-14T09:54:54Z</time>
      </trkpt>
      <trkpt lat="41.988830035552382" lon="1.191704040393233">
        <ele>532.71000000000004</ele>
        <time>2025-05-14T09:54:55Z</time>
      </trkpt>
      <trkpt lat="41.988738002255559" lon="1.191891962662339">
        <ele>530.78999999999996</ele>
        <time>2025-05-14T09:54:56Z</time>
      </trkpt>
      <trkpt lat="41.988544967025518" lon="1.192260012030602">
        <ele>526.94000000000005</ele>
        <time>2025-05-14T09:54:58Z</time>
      </trkpt>
      <trkpt lat="41.987813981249928" lon="1.193308001384139">
        <ele>514.91999999999996</ele>
        <time>2025-05-14T09:55:05Z</time>
      </trkpt>
      <trkpt lat="41.98760099709034" lon="1.193658029660583">
        <ele>509.16000000000003</ele>
        <time>2025-05-14T09:55:11Z</time>
      </trkpt>
      <trkpt lat="41.987579958513379" lon="1.193699017167091">
        <ele>506.75</ele>
        <time>2025-05-14T09:55:23Z</time>
      </trkpt>
      <trkpt lat="41.987579958513379" lon="1.193699017167091">
        <ele>507.23000000000002</ele>
        <time>2025-05-14T09:55:55Z</time>
      </trkpt>
      <trkpt lat="41.987565038725734" lon="1.193729024380446">
        <ele>506.75</ele>
        <time>2025-05-14T09:56:06Z</time>
      </trkpt>
      <trkpt lat="41.987390024587512" lon="1.194270998239517">
        <ele>505.31</ele>
        <time>2025-05-14T09:56:11Z</time>
      </trkpt>
      <trkpt lat="41.987377032637596" lon="1.194468978792429">
        <ele>504.35000000000002</ele>
        <time>2025-05-14T09:56:12Z</time>
      </trkpt>
      <trkpt lat="41.98736697435379" lon="1.194672994315624">
        <ele>503.38999999999999</ele>
        <time>2025-05-14T09:56:13Z</time>
      </trkpt>
      <trkpt lat="41.987391030415893" lon="1.194902993738651">
        <ele>502.43000000000001</ele>
        <time>2025-05-14T09:56:14Z</time>
      </trkpt>
      <trkpt lat="41.987554980441928" lon="1.196133960038424">
        <ele>497.62</ele>
        <time>2025-05-14T09:56:19Z</time>
      </trkpt>
      <trkpt lat="41.987546011805534" lon="1.196408970281482">
        <ele>496.18000000000001</ele>
        <time>2025-05-14T09:56:20Z</time>
      </trkpt>
      <trkpt lat="41.987536959350109" lon="1.196686998009682">
        <ele>495.22000000000003</ele>
        <time>2025-05-14T09:56:21Z</time>
      </trkpt>
      <trkpt lat="41.987478034570813" lon="1.196939963847399">
        <ele>493.29000000000002</ele>
        <time>2025-05-14T09:56:22Z</time>
      </trkpt>
      <trkpt lat="41.987410979345441" lon="1.197191001847386">
        <ele>491.85000000000002</ele>
        <time>2025-05-14T09:56:23Z</time>
      </trkpt>
      <trkpt lat="41.987346019595861" lon="1.197440028190613">
        <ele>489.93000000000001</ele>
        <time>2025-05-14T09:56:24Z</time>
      </trkpt>
      <trkpt lat="41.987235965207219" lon="1.197661980986595">
        <ele>488.49000000000001</ele>
        <time>2025-05-14T09:56:25Z</time>
      </trkpt>
      <trkpt lat="41.987102022394538" lon="1.197867002338171">
        <ele>487.05000000000001</ele>
        <time>2025-05-14T09:56:26Z</time>
      </trkpt>
      <trkpt lat="41.986965984106064" lon="1.198074035346508">
        <ele>485.12</ele>
        <time>2025-05-14T09:56:27Z</time>
      </trkpt>
      <trkpt lat="41.98680798523128" lon="1.198260029777885">
        <ele>483.19999999999999</ele>
        <time>2025-05-14T09:56:28Z</time>
      </trkpt>
      <trkpt lat="41.986627019941807" lon="1.198411993682385">
        <ele>481.75999999999999</ele>
        <time>2025-05-14T09:56:29Z</time>
      </trkpt>
      <trkpt lat="41.986431973055005" lon="1.19853101670742">
        <ele>479.83999999999997</ele>
        <time>2025-05-14T09:56:30Z</time>
      </trkpt>
      <trkpt lat="41.986223012208939" lon="1.198630006983876">
        <ele>477.91000000000003</ele>
        <time>2025-05-14T09:56:31Z</time>
      </trkpt>
      <trkpt lat="41.986007010564208" lon="1.198691027238965">
        <ele>475.99000000000001</ele>
        <time>2025-05-14T09:56:32Z</time>
      </trkpt>
      <trkpt lat="41.985790003091097" lon="1.198752969503403">
        <ele>473.58999999999997</ele>
        <time>2025-05-14T09:56:33Z</time>
      </trkpt>
      <trkpt lat="41.985163958743215" lon="1.198976011946797">
        <ele>468.30000000000001</ele>
        <time>2025-05-14T09:56:36Z</time>
      </trkpt>
      <trkpt lat="41.98498198762536" lon="1.199108026921749">
        <ele>466.38</ele>
        <time>2025-05-14T09:56:37Z</time>
      </trkpt>
      <trkpt lat="41.984789958223701" lon="1.199248004704714">
        <ele>464.93000000000001</ele>
        <time>2025-05-14T09:56:38Z</time>
      </trkpt>
      <trkpt lat="41.984668001532555" lon="1.19941002689302">
        <ele>463.49000000000001</ele>
        <time>2025-05-14T09:56:39Z</time>
      </trkpt>
      <trkpt lat="41.984549984335899" lon="1.199607001617551">
        <ele>462.05000000000001</ele>
        <time>2025-05-14T09:56:40Z</time>
      </trkpt>
      <trkpt lat="41.984453005716205" lon="1.199821997433901">
        <ele>460.61000000000001</ele>
        <time>2025-05-14T09:56:41Z</time>
      </trkpt>
      <trkpt lat="41.984372036531568" lon="1.200039004907012">
        <ele>459.17000000000002</ele>
        <time>2025-05-14T09:56:42Z</time>
      </trkpt>
      <trkpt lat="41.984328031539917" lon="1.200289037078619">
        <ele>457.72000000000003</ele>
        <time>2025-05-14T09:56:43Z</time>
      </trkpt>
      <trkpt lat="41.98429299518466" lon="1.200534962117672">
        <ele>456.27999999999997</ele>
        <time>2025-05-14T09:56:44Z</time>
      </trkpt>
      <trkpt lat="41.984280003234744" lon="1.200793040916324">
        <ele>454.83999999999997</ele>
        <time>2025-05-14T09:56:45Z</time>
      </trkpt>
      <trkpt lat="41.984297018498182" lon="1.201054975390434">
        <ele>453.88</ele>
        <time>2025-05-14T09:56:46Z</time>
      </trkpt>
      <trkpt lat="41.984334988519549" lon="1.20132202282548">
        <ele>452.44</ele>
        <time>2025-05-14T09:56:47Z</time>
      </trkpt>
      <trkpt lat="41.984406989067793" lon="1.201584041118622">
        <ele>451.48000000000002</ele>
        <time>2025-05-14T09:56:48Z</time>
      </trkpt>
      <trkpt lat="41.984481001272798" lon="1.201840024441481">
        <ele>450.02999999999997</ele>
        <time>2025-05-14T09:56:49Z</time>
      </trkpt>
      <trkpt lat="41.984583009034395" lon="1.202331958338618">
        <ele>447.14999999999998</ele>
        <time>2025-05-14T09:56:51Z</time>
      </trkpt>
      <trkpt lat="41.984617039561272" lon="1.202564975246787">
        <ele>445.70999999999998</ele>
        <time>2025-05-14T09:56:52Z</time>
      </trkpt>
      <trkpt lat="41.984590971842408" lon="1.202781982719898">
        <ele>444.26999999999998</ele>
        <time>2025-05-14T09:56:53Z</time>
      </trkpt>
      <trkpt lat="41.984553001821041" lon="1.202988009899855">
        <ele>442.81999999999999</ele>
        <time>2025-05-14T09:56:54Z</time>
      </trkpt>
      <trkpt lat="41.984491981565952" lon="1.203183978796005">
        <ele>441.38</ele>
        <time>2025-05-14T09:56:55Z</time>
      </trkpt>
      <trkpt lat="41.984416963532567" lon="1.203363016247749">
        <ele>439.94</ele>
        <time>2025-05-14T09:56:56Z</time>
      </trkpt>
      <trkpt lat="41.984331971034408" lon="1.203530989587307">
        <ele>438.5</ele>
        <time>2025-05-14T09:56:57Z</time>
      </trkpt>
      <trkpt lat="41.984242033213377" lon="1.203692005947232">
        <ele>437.54000000000002</ele>
        <time>2025-05-14T09:56:58Z</time>
      </trkpt>
      <trkpt lat="41.983770970255136" lon="1.204554000869393">
        <ele>434.17000000000002</ele>
        <time>2025-05-14T09:57:05Z</time>
      </trkpt>
      <trkpt lat="41.983749009668827" lon="1.204594988375902">
        <ele>433.69</ele>
        <time>2025-05-14T09:57:11Z</time>
      </trkpt>
      <trkpt lat="41.983749009668827" lon="1.204594988375902">
        <ele>433.20999999999998</ele>
        <time>2025-05-14T09:57:49Z</time>
      </trkpt>
      <trkpt lat="41.983714979141951" lon="1.204658020287752">
        <ele>433.20999999999998</ele>
        <time>2025-05-14T09:58:03Z</time>
      </trkpt>
      <trkpt lat="41.983383977785707" lon="1.205266965553165">
        <ele>435.13</ele>
        <time>2025-05-14T09:58:09Z</time>
      </trkpt>
      <trkpt lat="41.98274795897305" lon="1.206401037052274">
        <ele>437.06</ele>
        <time>2025-05-14T09:58:15Z</time>
      </trkpt>
      <trkpt lat="41.982532041147351" lon="1.206742012873292">
        <ele>438.98000000000002</ele>
        <time>2025-05-14T09:58:17Z</time>
      </trkpt>
      <trkpt lat="41.982408994808793" lon="1.206853995099664">
        <ele>439.94</ele>
        <time>2025-05-14T09:58:18Z</time>
      </trkpt>
      <trkpt lat="41.982267005369067" lon="1.206924989819527">
        <ele>441.38</ele>
        <time>2025-05-14T09:58:19Z</time>
      </trkpt>
      <trkpt lat="41.982115963473916" lon="1.20693001896143">
        <ele>442.81999999999999</ele>
        <time>2025-05-14T09:58:20Z</time>
      </trkpt>
      <trkpt lat="41.98195000179112" lon="1.206913003697991">
        <ele>444.75</ele>
        <time>2025-05-14T09:58:21Z</time>
      </trkpt>
      <trkpt lat="41.981769958510995" lon="1.206852989271283">
        <ele>446.19</ele>
        <time>2025-05-14T09:58:22Z</time>
      </trkpt>
      <trkpt lat="41.981582958251238" lon="1.206790963187814">
        <ele>448.11000000000001</ele>
        <time>2025-05-14T09:58:23Z</time>
      </trkpt>
      <trkpt lat="41.980841998010874" lon="1.206543026492">
        <ele>454.83999999999997</ele>
        <time>2025-05-14T09:58:27Z</time>
      </trkpt>
      <trkpt lat="41.980678969994187" lon="1.20656699873507">
        <ele>456.75999999999999</ele>
        <time>2025-05-14T09:58:28Z</time>
      </trkpt>
      <trkpt lat="41.980508984997869" lon="1.206603962928057">
        <ele>458.69</ele>
        <time>2025-05-14T09:58:29Z</time>
      </trkpt>
      <trkpt lat="41.980355009436607" lon="1.206691972911358">
        <ele>460.13</ele>
        <time>2025-05-14T09:58:30Z</time>
      </trkpt>
      <trkpt lat="41.980206985026598" lon="1.206804038956761">
        <ele>462.05000000000001</ele>
        <time>2025-05-14T09:58:31Z</time>
      </trkpt>
      <trkpt lat="41.980089973658323" lon="1.206962037831545">
        <ele>463.49000000000001</ele>
        <time>2025-05-14T09:58:32Z</time>
      </trkpt>
      <trkpt lat="41.97997497394681" lon="1.207119030877948">
        <ele>465.42000000000002</ele>
        <time>2025-05-14T09:58:33Z</time>
      </trkpt>
      <trkpt lat="41.979899033904076" lon="1.207311982288957">
        <ele>466.86000000000001</ele>
        <time>2025-05-14T09:58:34Z</time>
      </trkpt>
      <trkpt lat="41.979838013648987" lon="1.207524966448546">
        <ele>468.77999999999997</ele>
        <time>2025-05-14T09:58:35Z</time>
      </trkpt>
      <trkpt lat="41.979775987565517" lon="1.207740968093276">
        <ele>470.22000000000003</ele>
        <time>2025-05-14T09:58:36Z</time>
      </trkpt>
      <trkpt lat="41.979713039472699" lon="1.207956969738007">
        <ele>471.66000000000003</ele>
        <time>2025-05-14T09:58:37Z</time>
      </trkpt>
      <trkpt lat="41.979650007560849" lon="1.208159979432821">
        <ele>473.58999999999997</ele>
        <time>2025-05-14T09:58:38Z</time>
      </trkpt>
      <trkpt lat="41.979564009234309" lon="1.208338011056185">
        <ele>475.02999999999997</ele>
        <time>2025-05-14T09:58:39Z</time>
      </trkpt>
      <trkpt lat="41.979456972330809" lon="1.208483017981052">
        <ele>475.99000000000001</ele>
        <time>2025-05-14T09:58:40Z</time>
      </trkpt>
      <trkpt lat="41.979325041174889" lon="1.208586031571031">
        <ele>476.94999999999999</ele>
        <time>2025-05-14T09:58:41Z</time>
      </trkpt>
      <trkpt lat="41.979168970137835" lon="1.208641016855836">
        <ele>478.38999999999999</ele>
        <time>2025-05-14T09:58:42Z</time>
      </trkpt>
      <trkpt lat="41.978996973484755" lon="1.208665994927287">
        <ele>479.83999999999997</ele>
        <time>2025-05-14T09:58:43Z</time>
      </trkpt>
      <trkpt lat="41.978816008195281" lon="1.208688961341977">
        <ele>481.27999999999997</ele>
        <time>2025-05-14T09:58:44Z</time>
      </trkpt>
      <trkpt lat="41.978624984622002" lon="1.208688961341977">
        <ele>483.19999999999999</ele>
        <time>2025-05-14T09:58:45Z</time>
      </trkpt>
      <trkpt lat="41.978432033210993" lon="1.208709999918938">
        <ele>485.12</ele>
        <time>2025-05-14T09:58:46Z</time>
      </trkpt>
      <trkpt lat="41.978241009637713" lon="1.208765991032124">
        <ele>487.05000000000001</ele>
        <time>2025-05-14T09:58:47Z</time>
      </trkpt>
      <trkpt lat="41.978057026863098" lon="1.208846038207412">
        <ele>488.49000000000001</ele>
        <time>2025-05-14T09:58:48Z</time>
      </trkpt>
      <trkpt lat="41.977877989411354" lon="1.208957014605403">
        <ele>490.41000000000003</ele>
        <time>2025-05-14T09:58:49Z</time>
      </trkpt>
      <trkpt lat="41.9776960182935" lon="1.209074025973678">
        <ele>492.32999999999998</ele>
        <time>2025-05-14T09:58:50Z</time>
      </trkpt>
      <trkpt lat="41.977319000288844" lon="1.209319029003382">
        <ele>496.18000000000001</ele>
        <time>2025-05-14T09:58:52Z</time>
      </trkpt>
      <trkpt lat="41.976689016446471" lon="1.209576018154621">
        <ele>501.94999999999999</ele>
        <time>2025-05-14T09:58:55Z</time>
      </trkpt>
      <trkpt lat="41.974376030266285" lon="1.210154034197331">
        <ele>525.01999999999998</ele>
        <time>2025-05-14T09:59:05Z</time>
      </trkpt>
      <trkpt lat="41.972279967740178" lon="1.21114301495254">
        <ele>544.72000000000003</ele>
        <time>2025-05-14T09:59:15Z</time>
      </trkpt>
      <trkpt lat="41.971082026138902" lon="1.211948012933135">
        <ele>555.29999999999995</ele>
        <time>2025-05-14T09:59:21Z</time>
      </trkpt>
      <trkpt lat="41.970977000892162" lon="1.21213098987937">
        <ele>556.74000000000001</ele>
        <time>2025-05-14T09:59:22Z</time>
      </trkpt>
      <trkpt lat="41.970883039757609" lon="1.21230298653245">
        <ele>558.17999999999995</ele>
        <time>2025-05-14T09:59:23Z</time>
      </trkpt>
      <trkpt lat="41.970838028937578" lon="1.212509013712406">
        <ele>560.11000000000001</ele>
        <time>2025-05-14T09:59:24Z</time>
      </trkpt>
      <trkpt lat="41.97080098092556" lon="1.21271101757884">
        <ele>561.54999999999995</ele>
        <time>2025-05-14T09:59:25Z</time>
      </trkpt>
      <trkpt lat="41.970811961218715" lon="1.21292500756681">
        <ele>563.47000000000003</ele>
        <time>2025-05-14T09:59:26Z</time>
      </trkpt>
      <trkpt lat="41.970839034765959" lon="1.213128017261624">
        <ele>565.38999999999999</ele>
        <time>2025-05-14T09:59:27Z</time>
      </trkpt>
      <trkpt lat="41.970922015607357" lon="1.21331200003624">
        <ele>567.32000000000005</ele>
        <time>2025-05-14T09:59:28Z</time>
      </trkpt>
      <trkpt lat="41.971013965085149" lon="1.213517021387816">
        <ele>568.75999999999999</ele>
        <time>2025-05-14T09:59:29Z</time>
      </trkpt>
      <trkpt lat="41.971127036958933" lon="1.213648030534387">
        <ele>570.67999999999995</ele>
        <time>2025-05-14T09:59:30Z</time>
      </trkpt>
      <trkpt lat="41.971277995035052" lon="1.213744003325701">
        <ele>572.60000000000002</ele>
        <time>2025-05-14T09:59:31Z</time>
      </trkpt>
      <trkpt lat="41.971439011394978" lon="1.213836036622524">
        <ele>574.03999999999996</ele>
        <time>2025-05-14T09:59:32Z</time>
      </trkpt>
      <trkpt lat="41.97161796502769" lon="1.213851040229201">
        <ele>575.49000000000001</ele>
        <time>2025-05-14T09:59:33Z</time>
      </trkpt>
      <trkpt lat="41.971792979165912" lon="1.213836036622524">
        <ele>576.92999999999995</ele>
        <time>2025-05-14T09:59:34Z</time>
      </trkpt>
      <trkpt lat="41.97195902466774" lon="1.213752971962094">
        <ele>577.88999999999999</ele>
        <time>2025-05-14T09:59:35Z</time>
      </trkpt>
      <trkpt lat="41.972095984965563" lon="1.213622968643904">
        <ele>579.33000000000004</ele>
        <time>2025-05-14T09:59:36Z</time>
      </trkpt>
      <trkpt lat="41.972231017425656" lon="1.213466981425881">
        <ele>580.28999999999996</ele>
        <time>2025-05-14T09:59:37Z</time>
      </trkpt>
      <trkpt lat="41.97234702296555" lon="1.213282998651266">
        <ele>581.25</ele>
        <time>2025-05-14T09:59:38Z</time>
      </trkpt>
      <trkpt lat="41.972456993535161" lon="1.213074959814549">
        <ele>582.22000000000003</ele>
        <time>2025-05-14T09:59:39Z</time>
      </trkpt>
      <trkpt lat="41.972856977954507" lon="1.212472971528769">
        <ele>584.13999999999999</ele>
        <time>2025-05-14T09:59:42Z</time>
      </trkpt>
      <trkpt lat="41.973019000142813" lon="1.212322013452649">
        <ele>585.10000000000002</ele>
        <time>2025-05-14T09:59:43Z</time>
      </trkpt>
      <trkpt lat="41.973181022331119" lon="1.212191004306078">
        <ele>585.58000000000004</ele>
        <time>2025-05-14T09:59:44Z</time>
      </trkpt>
      <trkpt lat="41.973350001499057" lon="1.212085979059339">
        <ele>587.01999999999998</ele>
        <time>2025-05-14T09:59:45Z</time>
      </trkpt>
      <trkpt lat="41.973526021465659" lon="1.212021019309759">
        <ele>587.5</ele>
        <time>2025-05-14T09:59:46Z</time>
      </trkpt>
      <trkpt lat="41.973706986755133" lon="1.211968967691064">
        <ele>588.46000000000004</ele>
        <time>2025-05-14T09:59:47Z</time>
      </trkpt>
      <trkpt lat="41.973889041692019" lon="1.211909959092736">
        <ele>589.42999999999995</ele>
        <time>2025-05-14T09:59:48Z</time>
      </trkpt>
      <trkpt lat="41.97406598366797" lon="1.211852040141821">
        <ele>589.90999999999997</ele>
        <time>2025-05-14T09:59:49Z</time>
      </trkpt>
      <trkpt lat="41.974274022504687" lon="1.212010961025953">
        <ele>590.38999999999999</ele>
        <time>2025-05-14T09:59:50Z</time>
      </trkpt>
      <trkpt lat="41.974467979744077" lon="1.212052032351494">
        <ele>590.87</ele>
        <time>2025-05-14T09:59:51Z</time>
      </trkpt>
      <trkpt lat="41.976095996797085" lon="1.212266022339463">
        <ele>597.60000000000002</ele>
        <time>2025-05-14T09:59:59Z</time>
      </trkpt>
      <trkpt lat="41.976284002885222" lon="1.212326036766172">
        <ele>598.55999999999995</ele>
        <time>2025-05-14T10:00:00Z</time>
      </trkpt>
      <trkpt lat="41.976443007588387" lon="1.212438018992543">
        <ele>599.51999999999998</ele>
        <time>2025-05-14T10:00:01Z</time>
      </trkpt>
      <trkpt lat="41.976596983149648" lon="1.212574979290366">
        <ele>600.48000000000002</ele>
        <time>2025-05-14T10:00:02Z</time>
      </trkpt>
      <trkpt lat="41.976750958710909" lon="1.212713029235601">
        <ele>601.44000000000005</ele>
        <time>2025-05-14T10:00:03Z</time>
      </trkpt>
      <trkpt lat="41.976894037798047" lon="1.212864993140101">
        <ele>602.39999999999998</ele>
        <time>2025-05-14T10:00:04Z</time>
      </trkpt>
      <trkpt lat="41.977038038894534" lon="1.213023997843266">
        <ele>603.36000000000001</ele>
        <time>2025-05-14T10:00:05Z</time>
      </trkpt>
      <trkpt lat="41.978289959952235" lon="1.214812025427818">
        <ele>614.41999999999996</ele>
        <time>2025-05-14T10:00:14Z</time>
      </trkpt>
      <trkpt lat="41.978394985198975" lon="1.215041019022465">
        <ele>615.38</ele>
        <time>2025-05-14T10:00:15Z</time>
      </trkpt>
      <trkpt lat="41.978487018495798" lon="1.215314017608762">
        <ele>616.82000000000005</ele>
        <time>2025-05-14T10:00:16Z</time>
      </trkpt>
      <trkpt lat="41.978860013186932" lon="1.216259999200702">
        <ele>622.59000000000003</ele>
        <time>2025-05-14T10:00:20Z</time>
      </trkpt>
      <trkpt lat="41.978975012898445" lon="1.216462003067136">
        <ele>624.02999999999997</ele>
        <time>2025-05-14T10:00:21Z</time>
      </trkpt>
      <trkpt lat="41.979103004559875" lon="1.216647997498512">
        <ele>625.47000000000003</ele>
        <time>2025-05-14T10:00:22Z</time>
      </trkpt>
      <trkpt lat="41.979255974292755" lon="1.216787975281477">
        <ele>626.91999999999996</ele>
        <time>2025-05-14T10:00:23Z</time>
      </trkpt>
      <trkpt lat="41.979407016187906" lon="1.216905992478132">
        <ele>627.88</ele>
        <time>2025-05-14T10:00:24Z</time>
      </trkpt>
      <trkpt lat="41.979569038376212" lon="1.217004982754588">
        <ele>629.32000000000005</ele>
        <time>2025-05-14T10:00:25Z</time>
      </trkpt>
      <trkpt lat="41.979731982573867" lon="1.217101961374283">
        <ele>630.27999999999997</ele>
        <time>2025-05-14T10:00:26Z</time>
      </trkpt>
      <trkpt lat="41.979912025853992" lon="1.217138003557921">
        <ele>631.72000000000003</ele>
        <time>2025-05-14T10:00:27Z</time>
      </trkpt>
      <trkpt lat="41.980091985315084" lon="1.217173961922526">
        <ele>632.67999999999995</ele>
        <time>2025-05-14T10:00:28Z</time>
      </trkpt>
      <trkpt lat="41.98027404025197" lon="1.217206986621022">
        <ele>634.13</ele>
        <time>2025-05-14T10:00:29Z</time>
      </trkpt>
      <trkpt lat="41.980461962521076" lon="1.217198017984629">
        <ele>635.57000000000005</ele>
        <time>2025-05-14T10:00:30Z</time>
      </trkpt>
      <trkpt lat="41.981356982141733" lon="1.217242022976279">
        <ele>640.86000000000001</ele>
        <time>2025-05-14T10:00:35Z</time>
      </trkpt>
      <trkpt lat="41.9815210159868" lon="1.217314023524523">
        <ele>641.82000000000005</ele>
        <time>2025-05-14T10:00:36Z</time>
      </trkpt>
      <trkpt lat="41.982951974496245" lon="1.218023970723152">
        <ele>644.22000000000003</ele>
        <time>2025-05-14T10:00:45Z</time>
      </trkpt>
      <trkpt lat="41.983078038319945" lon="1.218041991814971">
        <ele>644.22000000000003</ele>
        <time>2025-05-14T10:00:46Z</time>
      </trkpt>
      <trkpt lat="41.983181973919272" lon="1.218033023178577">
        <ele>644.22000000000003</ele>
        <time>2025-05-14T10:00:47Z</time>
      </trkpt>
      <trkpt lat="41.983270989730954" lon="1.218021037057042">
        <ele>644.22000000000003</ele>
        <time>2025-05-14T10:00:48Z</time>
      </trkpt>
      <trkpt lat="41.983353970572352" lon="1.218009972944856">
        <ele>644.22000000000003</ele>
        <time>2025-05-14T10:00:49Z</time>
      </trkpt>
      <trkpt lat="41.983436029404402" lon="1.217992035672069">
        <ele>644.70000000000005</ele>
        <time>2025-05-14T10:00:50Z</time>
      </trkpt>
      <trkpt lat="41.983525967225432" lon="1.217944007366896">
        <ele>645.17999999999995</ele>
        <time>2025-05-14T10:00:51Z</time>
      </trkpt>
      <trkpt lat="41.983625963330269" lon="1.217890027910471">
        <ele>645.65999999999997</ele>
        <time>2025-05-14T10:00:52Z</time>
      </trkpt>
      <trkpt lat="41.983738029375672" lon="1.217830013483763">
        <ele>646.13999999999999</ele>
        <time>2025-05-14T10:00:53Z</time>
      </trkpt>
      <trkpt lat="41.983835007995367" lon="1.217711996287108">
        <ele>646.62</ele>
        <time>2025-05-14T10:00:54Z</time>
      </trkpt>
      <trkpt lat="41.983931986615062" lon="1.217593979090452">
        <ele>647.10000000000002</ele>
        <time>2025-05-14T10:00:55Z</time>
      </trkpt>
      <trkpt lat="41.984029971063137" lon="1.217414019629359">
        <ele>647.59000000000003</ele>
        <time>2025-05-14T10:00:56Z</time>
      </trkpt>
      <trkpt lat="41.984125021845102" lon="1.217237999662757">
        <ele>648.54999999999995</ele>
        <time>2025-05-14T10:00:57Z</time>
      </trkpt>
      <trkpt lat="41.9842270296067" lon="1.217050999403">
        <ele>649.02999999999997</ele>
        <time>2025-05-14T10:00:58Z</time>
      </trkpt>
      <trkpt lat="41.984662972390652" lon="1.216282965615392">
        <ele>651.42999999999995</ele>
        <time>2025-05-14T10:01:02Z</time>
      </trkpt>
      <trkpt lat="41.984775038436055" lon="1.216134019196034">
        <ele>651.42999999999995</ele>
        <time>2025-05-14T10:01:03Z</time>
      </trkpt>
      <trkpt lat="41.9849160220474" lon="1.216057995334268">
        <ele>651.90999999999997</ele>
        <time>2025-05-14T10:01:04Z</time>
      </trkpt>
      <trkpt lat="41.985049964860082" lon="1.216037962585688">
        <ele>651.90999999999997</ele>
        <time>2025-05-14T10:01:05Z</time>
      </trkpt>
      <trkpt lat="41.985188014805317" lon="1.216059001162648">
        <ele>652.38999999999999</ele>
        <time>2025-05-14T10:01:06Z</time>
      </trkpt>
      <trkpt lat="41.985330004245043" lon="1.216080039739609">
        <ele>652.38999999999999</ele>
        <time>2025-05-14T10:01:07Z</time>
      </trkpt>
      <trkpt lat="41.986093008890748" lon="1.216153968125582">
        <ele>653.35000000000002</ele>
        <time>2025-05-14T10:01:12Z</time>
      </trkpt>
      <trkpt lat="41.986246984452009" lon="1.216113986447454">
        <ele>653.35000000000002</ele>
        <time>2025-05-14T10:01:13Z</time>
      </trkpt>
      <trkpt lat="41.986405989155173" lon="1.216051038354635">
        <ele>653.35000000000002</ele>
        <time>2025-05-14T10:01:14Z</time>
      </trkpt>
      <trkpt lat="41.986571028828621" lon="1.215984988957644">
        <ele>653.35000000000002</ele>
        <time>2025-05-14T10:01:15Z</time>
      </trkpt>
      <trkpt lat="41.986715029925108" lon="1.215908965095878">
        <ele>652.87</ele>
        <time>2025-05-14T10:01:16Z</time>
      </trkpt>
      <trkpt lat="41.98697897605598" lon="1.215769993141294">
        <ele>653.35000000000002</ele>
        <time>2025-05-14T10:01:18Z</time>
      </trkpt>
      <trkpt lat="41.987161030992866" lon="1.215769993141294">
        <ele>653.35000000000002</ele>
        <time>2025-05-14T10:01:19Z</time>
      </trkpt>
      <trkpt lat="41.987296985462308" lon="1.215807041153312">
        <ele>652.87</ele>
        <time>2025-05-14T10:01:20Z</time>
      </trkpt>
      <trkpt lat="41.987437969073653" lon="1.215891027823091">
        <ele>652.87</ele>
        <time>2025-05-14T10:01:21Z</time>
      </trkpt>
      <trkpt lat="41.987584987655282" lon="1.215979959815741">
        <ele>652.87</ele>
        <time>2025-05-14T10:01:22Z</time>
      </trkpt>
      <trkpt lat="41.988410018384457" lon="1.216427972540259">
        <ele>649.99000000000001</ele>
        <time>2025-05-14T10:01:27Z</time>
      </trkpt>
      <trkpt lat="41.988588972017169" lon="1.216477006673813">
        <ele>649.02999999999997</ele>
        <time>2025-05-14T10:01:28Z</time>
      </trkpt>
      <trkpt lat="41.988773038610816" lon="1.216468960046768">
        <ele>647.59000000000003</ele>
        <time>2025-05-14T10:01:29Z</time>
      </trkpt>
      <trkpt lat="41.990154040977359" lon="1.216416992247105">
        <ele>638.92999999999995</ele>
        <time>2025-05-14T10:01:36Z</time>
      </trkpt>
      <trkpt lat="41.991003965958953" lon="1.216580020263791">
        <ele>635.09000000000003</ele>
        <time>2025-05-14T10:01:40Z</time>
      </trkpt>
      <trkpt lat="41.991212004795671" lon="1.216546995565295">
        <ele>635.09000000000003</ele>
        <time>2025-05-14T10:01:41Z</time>
      </trkpt>
      <trkpt lat="41.991421971470118" lon="1.216500978916884">
        <ele>635.09000000000003</ele>
        <time>2025-05-14T10:01:42Z</time>
      </trkpt>
      <trkpt lat="41.992228981107473" lon="1.216328982263804">
        <ele>636.04999999999995</ele>
        <time>2025-05-14T10:01:46Z</time>
      </trkpt>
      <trkpt lat="41.992411036044359" lon="1.216345997527242">
        <ele>636.52999999999997</ele>
        <time>2025-05-14T10:01:47Z</time>
      </trkpt>
      <trkpt lat="41.992582026869059" lon="1.216396959498525">
        <ele>637.00999999999999</ele>
        <time>2025-05-14T10:01:48Z</time>
      </trkpt>
      <trkpt lat="41.99275997467339" lon="1.216462003067136">
        <ele>637.49000000000001</ele>
        <time>2025-05-14T10:01:49Z</time>
      </trkpt>
      <trkpt lat="41.992939012125134" lon="1.216526962816715">
        <ele>637.97000000000003</ele>
        <time>2025-05-14T10:01:50Z</time>
      </trkpt>
      <trkpt lat="41.993114026263356" lon="1.216591000556946">
        <ele>638.45000000000005</ele>
        <time>2025-05-14T10:01:51Z</time>
      </trkpt>
      <trkpt lat="41.993281999602914" lon="1.216592006385326">
        <ele>638.92999999999995</ele>
        <time>2025-05-14T10:01:52Z</time>
      </trkpt>
      <trkpt lat="41.99344796128571" lon="1.216570967808366">
        <ele>638.92999999999995</ele>
        <time>2025-05-14T10:01:53Z</time>
      </trkpt>
      <trkpt lat="41.99361702427268" lon="1.216500978916884">
        <ele>638.92999999999995</ele>
        <time>2025-05-14T10:01:54Z</time>
      </trkpt>
      <trkpt lat="41.993792038410902" lon="1.21640601195395">
        <ele>638.92999999999995</ele>
        <time>2025-05-14T10:01:55Z</time>
      </trkpt>
      <trkpt lat="41.995234983041883" lon="1.21589002199471">
        <ele>640.38</ele>
        <time>2025-05-14T10:02:02Z</time>
      </trkpt>
      <trkpt lat="41.997899003326893" lon="1.215660022571683">
        <ele>650.95000000000005</ele>
        <time>2025-05-14T10:02:14Z</time>
      </trkpt>
      <trkpt lat="41.999619975686073" lon="1.215362967923284">
        <ele>650.95000000000005</ele>
        <time>2025-05-14T10:02:22Z</time>
      </trkpt>
      <trkpt lat="42.000381974503398" lon="1.215463969856501">
        <ele>649.02999999999997</ele>
        <time>2025-05-14T10:02:26Z</time>
      </trkpt>
      <trkpt lat="42.000561011955142" lon="1.21552599593997">
        <ele>648.54999999999995</ele>
        <time>2025-05-14T10:02:27Z</time>
      </trkpt>
      <trkpt lat="42.000733008608222" lon="1.215633032843471">
        <ele>648.07000000000005</ele>
        <time>2025-05-14T10:02:28Z</time>
      </trkpt>
      <trkpt lat="42.002280978485942" lon="1.216549007222056">
        <ele>645.17999999999995</ele>
        <time>2025-05-14T10:02:37Z</time>
      </trkpt>
      <trkpt lat="42.002456998452544" lon="1.216592006385326">
        <ele>645.17999999999995</ele>
        <time>2025-05-14T10:02:38Z</time>
      </trkpt>
      <trkpt lat="42.002664031460881" lon="1.216607009992003">
        <ele>644.70000000000005</ele>
        <time>2025-05-14T10:02:39Z</time>
      </trkpt>
      <trkpt lat="42.002823958173394" lon="1.21655797585845">
        <ele>644.22000000000003</ele>
        <time>2025-05-14T10:02:40Z</time>
      </trkpt>
      <trkpt lat="42.00300601311028" lon="1.216506008058786">
        <ele>644.22000000000003</ele>
        <time>2025-05-14T10:02:41Z</time>
      </trkpt>
      <trkpt lat="42.003371967002749" lon="1.216413974761963">
        <ele>643.25999999999999</ele>
        <time>2025-05-14T10:02:43Z</time>
      </trkpt>
      <trkpt lat="42.003528960049152" lon="1.216453034430742">
        <ele>642.77999999999997</ele>
        <time>2025-05-14T10:02:44Z</time>
      </trkpt>
      <trkpt lat="42.003676984459162" lon="1.216577002778649">
        <ele>642.77999999999997</ele>
        <time>2025-05-14T10:02:45Z</time>
      </trkpt>
      <trkpt lat="42.003827020525932" lon="1.216713041067123">
        <ele>642.29999999999995</ele>
        <time>2025-05-14T10:02:46Z</time>
      </trkpt>
      <trkpt lat="42.003993988037109" lon="1.216865004971623">
        <ele>642.29999999999995</ele>
        <time>2025-05-14T10:02:47Z</time>
      </trkpt>
      <trkpt lat="42.004440994933248" lon="1.217298014089465">
        <ele>641.82000000000005</ele>
        <time>2025-05-14T10:02:50Z</time>
      </trkpt>
      <trkpt lat="42.00459798797965" lon="1.217411002144218">
        <ele>641.34000000000003</ele>
        <time>2025-05-14T10:02:51Z</time>
      </trkpt>
      <trkpt lat="42.004752969369292" lon="1.217487026005983">
        <ele>640.86000000000001</ele>
        <time>2025-05-14T10:02:52Z</time>
      </trkpt>
      <trkpt lat="42.004913985729218" lon="1.217487026005983">
        <ele>640.86000000000001</ele>
        <time>2025-05-14T10:02:53Z</time>
      </trkpt>
      <trkpt lat="42.00506997294724" lon="1.217455007135868">
        <ele>640.86000000000001</ele>
        <time>2025-05-14T10:02:54Z</time>
      </trkpt>
      <trkpt lat="42.005223026499152" lon="1.21739599853754">
        <ele>640.86000000000001</ele>
        <time>2025-05-14T10:02:55Z</time>
      </trkpt>
      <trkpt lat="42.005353029817343" lon="1.217274041846395">
        <ele>641.34000000000003</ele>
        <time>2025-05-14T10:02:56Z</time>
      </trkpt>
      <trkpt lat="42.005488984286785" lon="1.217145966365933">
        <ele>641.82000000000005</ele>
        <time>2025-05-14T10:02:57Z</time>
      </trkpt>
      <trkpt lat="42.005642037838697" lon="1.217037001624703">
        <ele>642.29999999999995</ele>
        <time>2025-05-14T10:02:58Z</time>
      </trkpt>
      <trkpt lat="42.005807999521494" lon="1.216948991641402">
        <ele>643.74000000000001</ele>
        <time>2025-05-14T10:02:59Z</time>
      </trkpt>
      <trkpt lat="42.005973039194942" lon="1.216863999143243">
        <ele>644.70000000000005</ele>
        <time>2025-05-14T10:03:00Z</time>
      </trkpt>
      <trkpt lat="42.007069978863001" lon="1.216631988063455">
        <ele>653.83000000000004</ele>
        <time>2025-05-14T10:03:06Z</time>
      </trkpt>
      <trkpt lat="42.007266031578183" lon="1.216651014983654">
        <ele>654.79999999999995</ele>
        <time>2025-05-14T10:03:07Z</time>
      </trkpt>
      <trkpt lat="42.00745596550405" lon="1.216689990833402">
        <ele>656.24000000000001</ele>
        <time>2025-05-14T10:03:08Z</time>
      </trkpt>
      <trkpt lat="42.007638020440936" lon="1.216757968068123">
        <ele>657.67999999999995</ele>
        <time>2025-05-14T10:03:09Z</time>
      </trkpt>
      <trkpt lat="42.007817979902029" lon="1.216826029121876">
        <ele>659.12</ele>
        <time>2025-05-14T10:03:10Z</time>
      </trkpt>
      <trkpt lat="42.007995005697012" lon="1.216874979436398">
        <ele>660.55999999999995</ele>
        <time>2025-05-14T10:03:11Z</time>
      </trkpt>
      <trkpt lat="42.008164990693331" lon="1.2168990354985">
        <ele>661.51999999999998</ele>
        <time>2025-05-14T10:03:12Z</time>
      </trkpt>
      <trkpt lat="42.008331958204508" lon="1.216856958344579">
        <ele>662.49000000000001</ele>
        <time>2025-05-14T10:03:13Z</time>
      </trkpt>
      <trkpt lat="42.008499009534717" lon="1.216780012473464">
        <ele>663.92999999999995</ele>
        <time>2025-05-14T10:03:14Z</time>
      </trkpt>
      <trkpt lat="42.008677963167429" lon="1.216698037460446">
        <ele>664.88999999999999</ele>
        <time>2025-05-14T10:03:15Z</time>
      </trkpt>
      <trkpt lat="42.00906696729362" lon="1.216530986130238">
        <ele>667.76999999999998</ele>
        <time>2025-05-14T10:03:17Z</time>
      </trkpt>
      <trkpt lat="42.009277017787099" lon="1.216482035815716">
        <ele>668.73000000000002</ele>
        <time>2025-05-14T10:03:18Z</time>
      </trkpt>
      <trkpt lat="42.009496036916971" lon="1.216483041644096">
        <ele>670.17999999999995</ele>
        <time>2025-05-14T10:03:19Z</time>
      </trkpt>
      <trkpt lat="42.011350030079484" lon="1.216589994728565">
        <ele>682.66999999999996</ele>
        <time>2025-05-14T10:03:27Z</time>
      </trkpt>
      <trkpt lat="42.0122230052948" lon="1.216971036046743">
        <ele>689.39999999999998</ele>
        <time>2025-05-14T10:03:31Z</time>
      </trkpt>
      <trkpt lat="42.013117019087076" lon="1.217370014637709">
        <ele>694.69000000000005</ele>
        <time>2025-05-14T10:03:35Z</time>
      </trkpt>
      <trkpt lat="42.014928013086319" lon="1.217939984053373">
        <ele>706.71000000000004</ele>
        <time>2025-05-14T10:03:44Z</time>
      </trkpt>
      <trkpt lat="42.0151880197227" lon="1.218198984861374">
        <ele>709.11000000000001</ele>
        <time>2025-05-14T10:03:46Z</time>
      </trkpt>
      <trkpt lat="42.015412990003824" lon="1.218557981774211">
        <ele>711.99000000000001</ele>
        <time>2025-05-14T10:03:48Z</time>
      </trkpt>
      <trkpt lat="42.016463996842504" lon="1.220264034345746">
        <ele>722.57000000000005</ele>
        <time>2025-05-14T10:03:57Z</time>
      </trkpt>
      <trkpt lat="42.016772031784058" lon="1.220304016023874">
        <ele>723.52999999999997</ele>
        <time>2025-05-14T10:03:59Z</time>
      </trkpt>
      <trkpt lat="42.017094986513257" lon="1.220192033797503">
        <ele>725.45000000000005</ele>
        <time>2025-05-14T10:04:01Z</time>
      </trkpt>
      <trkpt lat="42.018320001661777" lon="1.219646036624908">
        <ele>732.17999999999995</ele>
        <time>2025-05-14T10:04:07Z</time>
      </trkpt>
      <trkpt lat="42.019290961325169" lon="1.219288967549801">
        <ele>733.62</ele>
        <time>2025-05-14T10:04:12Z</time>
      </trkpt>
      <trkpt lat="42.019903007894754" lon="1.219706973060966">
        <ele>733.13999999999999</ele>
        <time>2025-05-14T10:04:16Z</time>
      </trkpt>
      <trkpt lat="42.020634999498725" lon="1.220278032124043">
        <ele>731.22000000000003</ele>
        <time>2025-05-14T10:04:20Z</time>
      </trkpt>
      <trkpt lat="42.021067002788186" lon="1.220480035990477">
        <ele>730.74000000000001</ele>
        <time>2025-05-14T10:04:22Z</time>
      </trkpt>
      <trkpt lat="42.02195699326694" lon="1.220795027911663">
        <ele>726.88999999999999</ele>
        <time>2025-05-14T10:04:26Z</time>
      </trkpt>
      <trkpt lat="42.022411962971091" lon="1.220834003761411">
        <ele>725.45000000000005</ele>
        <time>2025-05-14T10:04:28Z</time>
      </trkpt>
      <trkpt lat="42.023275969550014" lon="1.220908015966415">
        <ele>725.45000000000005</ele>
        <time>2025-05-14T10:04:36Z</time>
      </trkpt>
      <trkpt lat="42.023917017504573" lon="1.22126298956573">
        <ele>726.88999999999999</ele>
        <time>2025-05-14T10:04:41Z</time>
      </trkpt>
      <trkpt lat="42.024940028786659" lon="1.221706978976727">
        <ele>727.37</ele>
        <time>2025-05-14T10:04:43Z</time>
      </trkpt>
      <trkpt lat="42.025813004001975" lon="1.221415037289262">
        <ele>732.17999999999995</ele>
        <time>2025-05-14T10:04:51Z</time>
      </trkpt>
      <trkpt lat="42.026316002011299" lon="1.221370026469231">
        <ele>732.65999999999997</ele>
        <time>2025-05-14T10:04:54Z</time>
      </trkpt>
      <trkpt lat="42.02702502720058" lon="1.221968997269869">
        <ele>732.65999999999997</ele>
        <time>2025-05-14T10:04:56Z</time>
      </trkpt>
      <trkpt lat="42.027749978005886" lon="1.222389014437795">
        <ele>732.17999999999995</ele>
        <time>2025-05-14T10:05:00Z</time>
      </trkpt>
      <trkpt lat="42.028643991798162" lon="1.222652038559318">
        <ele>729.29999999999995</ele>
        <time>2025-05-14T10:05:05Z</time>
      </trkpt>
      <trkpt lat="42.028931993991137" lon="1.222771983593702">
        <ele>727.37</ele>
        <time>2025-05-14T10:05:07Z</time>
      </trkpt>
      <trkpt lat="42.029129974544048" lon="1.222939034923911">
        <ele>726.40999999999997</ele>
        <time>2025-05-14T10:05:09Z</time>
      </trkpt>
      <trkpt lat="42.029217984527349" lon="1.223200969398022">
        <ele>725.45000000000005</ele>
        <time>2025-05-14T10:05:11Z</time>
      </trkpt>
      <trkpt lat="42.029359973967075" lon="1.224091965705156">
        <ele>725.92999999999995</ele>
        <time>2025-05-14T10:05:16Z</time>
      </trkpt>
      <trkpt lat="42.029422000050545" lon="1.224246025085449">
        <ele>726.40999999999997</ele>
        <time>2025-05-14T10:05:17Z</time>
      </trkpt>
      <trkpt lat="42.029507998377085" lon="1.224389020353556">
        <ele>726.88999999999999</ele>
        <time>2025-05-14T10:05:18Z</time>
      </trkpt>
      <trkpt lat="42.029622998088598" lon="1.224496979266405">
        <ele>727.37</ele>
        <time>2025-05-14T10:05:19Z</time>
      </trkpt>
      <trkpt lat="42.029753001406789" lon="1.224546013399959">
        <ele>727.86000000000001</ele>
        <time>2025-05-14T10:05:20Z</time>
      </trkpt>
      <trkpt lat="42.029888033866882" lon="1.224546013399959">
        <ele>727.86000000000001</ele>
        <time>2025-05-14T10:05:21Z</time>
      </trkpt>
      <trkpt lat="42.030021976679564" lon="1.22448499314487">
        <ele>727.86000000000001</ele>
        <time>2025-05-14T10:05:22Z</time>
      </trkpt>
      <trkpt lat="42.030166983604431" lon="1.224416010081768">
        <ele>728.34000000000003</ele>
        <time>2025-05-14T10:05:23Z</time>
      </trkpt>
      <trkpt lat="42.030345015227795" lon="1.224332023411989">
        <ele>728.34000000000003</ele>
        <time>2025-05-14T10:05:24Z</time>
      </trkpt>
      <trkpt lat="42.031643958762288" lon="1.223961040377617">
        <ele>729.77999999999997</ele>
        <time>2025-05-14T10:05:31Z</time>
      </trkpt>
      <trkpt lat="42.032104041427374" lon="1.223923992365599">
        <ele>730.74000000000001</ele>
        <time>2025-05-14T10:05:34Z</time>
      </trkpt>
      <trkpt lat="42.0322460308671" lon="1.22399004176259">
        <ele>731.22000000000003</ele>
        <time>2025-05-14T10:05:35Z</time>
      </trkpt>
      <trkpt lat="42.032369999215007" lon="1.224047038704157">
        <ele>731.22000000000003</ele>
        <time>2025-05-14T10:05:36Z</time>
      </trkpt>
      <trkpt lat="42.032475024461746" lon="1.224137982353568">
        <ele>731.70000000000005</ele>
        <time>2025-05-14T10:05:37Z</time>
      </trkpt>
      <trkpt lat="42.032597986981273" lon="1.224251976236701">
        <ele>731.22000000000003</ele>
        <time>2025-05-14T10:05:38Z</time>
      </trkpt>
      <trkpt lat="42.03271902166307" lon="1.224378040060401">
        <ele>731.22000000000003</ele>
        <time>2025-05-14T10:05:39Z</time>
      </trkpt>
      <trkpt lat="42.032838966697454" lon="1.224522963166237">
        <ele>731.22000000000003</ele>
        <time>2025-05-14T10:05:40Z</time>
      </trkpt>
      <trkpt lat="42.032920019701123" lon="1.224669981747866">
        <ele>730.74000000000001</ele>
        <time>2025-05-14T10:05:41Z</time>
      </trkpt>
      <trkpt lat="42.032987996935844" lon="1.22482898645103">
        <ele>730.25999999999999</ele>
        <time>2025-05-14T10:05:42Z</time>
      </trkpt>
      <trkpt lat="42.033005012199283" lon="1.224995031952858">
        <ele>729.77999999999997</ele>
        <time>2025-05-14T10:05:43Z</time>
      </trkpt>
      <trkpt lat="42.032995037734509" lon="1.225174991413951">
        <ele>729.29999999999995</ele>
        <time>2025-05-14T10:05:44Z</time>
      </trkpt>
      <trkpt lat="42.032925970852375" lon="1.225354028865695">
        <ele>728.34000000000003</ele>
        <time>2025-05-14T10:05:45Z</time>
      </trkpt>
      <trkpt lat="42.032817006111145" lon="1.22553700581193">
        <ele>727.86000000000001</ele>
        <time>2025-05-14T10:05:46Z</time>
      </trkpt>
      <trkpt lat="42.032684991136193" lon="1.225715037435293">
        <ele>726.88999999999999</ele>
        <time>2025-05-14T10:05:47Z</time>
      </trkpt>
      <trkpt lat="42.032260028645396" lon="1.226328006014228">
        <ele>723.52999999999997</ele>
        <time>2025-05-14T10:05:50Z</time>
      </trkpt>
      <trkpt lat="42.032132958993316" lon="1.226564962416887">
        <ele>722.57000000000005</ele>
        <time>2025-05-14T10:05:51Z</time>
      </trkpt>
      <trkpt lat="42.032046038657427" lon="1.22684701345861">
        <ele>722.09000000000003</ele>
        <time>2025-05-14T10:05:52Z</time>
      </trkpt>
      <trkpt lat="42.031739009544253" lon="1.22811402194202">
        <ele>722.57000000000005</ele>
        <time>2025-05-14T10:05:57Z</time>
      </trkpt>
      <trkpt lat="42.031750995665789" lon="1.228284006938338">
        <ele>723.52999999999997</ele>
        <time>2025-05-14T10:05:58Z</time>
      </trkpt>
      <trkpt lat="42.031824002042413" lon="1.228439994156361">
        <ele>724.49000000000001</ele>
        <time>2025-05-14T10:05:59Z</time>
      </trkpt>
      <trkpt lat="42.031911006197333" lon="1.228622971102595">
        <ele>725.45000000000005</ele>
        <time>2025-05-14T10:06:00Z</time>
      </trkpt>
      <trkpt lat="42.032050983980298" lon="1.228746017441154">
        <ele>726.40999999999997</ele>
        <time>2025-05-14T10:06:01Z</time>
      </trkpt>
      <trkpt lat="42.032210994511843" lon="1.228888006880879">
        <ele>727.86000000000001</ele>
        <time>2025-05-14T10:06:02Z</time>
      </trkpt>
      <trkpt lat="42.032857993617654" lon="1.229506004601717">
        <ele>732.65999999999997</ele>
        <time>2025-05-14T10:06:06Z</time>
      </trkpt>
      <trkpt lat="42.032961007207632" lon="1.229675989598036">
        <ele>734.10000000000002</ele>
        <time>2025-05-14T10:06:07Z</time>
      </trkpt>
      <trkpt lat="42.033010963350534" lon="1.229885034263134">
        <ele>735.07000000000005</ele>
        <time>2025-05-14T10:06:08Z</time>
      </trkpt>
      <trkpt lat="42.033036025241017" lon="1.230121990665793">
        <ele>736.99000000000001</ele>
        <time>2025-05-14T10:06:09Z</time>
      </trkpt>
      <trkpt lat="42.033062009140849" lon="1.23037101700902">
        <ele>738.42999999999995</ele>
        <time>2025-05-14T10:06:10Z</time>
      </trkpt>
      <trkpt lat="42.033087993040681" lon="1.230610990896821">
        <ele>739.38999999999999</ele>
        <time>2025-05-14T10:06:11Z</time>
      </trkpt>
      <trkpt lat="42.033114982768893" lon="1.230837972834706">
        <ele>740.83000000000004</ele>
        <time>2025-05-14T10:06:12Z</time>
      </trkpt>
      <trkpt lat="42.033197963610291" lon="1.231005024164915">
        <ele>742.27999999999997</ele>
        <time>2025-05-14T10:06:13Z</time>
      </trkpt>
      <trkpt lat="42.033310029655695" lon="1.231137961149216">
        <ele>743.24000000000001</ele>
        <time>2025-05-14T10:06:14Z</time>
      </trkpt>
      <trkpt lat="42.03345000743866" lon="1.231240974739194">
        <ele>744.67999999999995</ele>
        <time>2025-05-14T10:06:15Z</time>
      </trkpt>
      <trkpt lat="42.033614963293076" lon="1.231329990550876">
        <ele>746.12</ele>
        <time>2025-05-14T10:06:16Z</time>
      </trkpt>
      <trkpt lat="42.033776985481381" lon="1.231439961120486">
        <ele>747.08000000000004</ele>
        <time>2025-05-14T10:06:17Z</time>
      </trkpt>
      <trkpt lat="42.033948982134461" lon="1.231563007459045">
        <ele>748.51999999999998</ele>
        <time>2025-05-14T10:06:18Z</time>
      </trkpt>
      <trkpt lat="42.034074040129781" lon="1.231733998283744">
        <ele>749.97000000000003</ele>
        <time>2025-05-14T10:06:19Z</time>
      </trkpt>
      <trkpt lat="42.034169007092714" lon="1.231942037120462">
        <ele>751.40999999999997</ele>
        <time>2025-05-14T10:06:20Z</time>
      </trkpt>
      <trkpt lat="42.034232039004564" lon="1.232171030715108">
        <ele>752.85000000000002</ele>
        <time>2025-05-14T10:06:21Z</time>
      </trkpt>
      <trkpt lat="42.034249976277351" lon="1.232420979067683">
        <ele>754.76999999999998</ele>
        <time>2025-05-14T10:06:22Z</time>
      </trkpt>
      <trkpt lat="42.034212006255984" lon="1.232674028724432">
        <ele>756.21000000000004</ele>
        <time>2025-05-14T10:06:23Z</time>
      </trkpt>
      <trkpt lat="42.03416096046567" lon="1.232943003997207">
        <ele>757.65999999999997</ele>
        <time>2025-05-14T10:06:24Z</time>
      </trkpt>
      <trkpt lat="42.034088959917426" lon="1.233218014240265">
        <ele>759.58000000000004</ele>
        <time>2025-05-14T10:06:25Z</time>
      </trkpt>
      <trkpt lat="42.034018971025944" lon="1.233485983684659">
        <ele>761.01999999999998</ele>
        <time>2025-05-14T10:06:26Z</time>
      </trkpt>
      <trkpt lat="42.033781008794904" lon="1.234680991619825">
        <ele>768.71000000000004</ele>
        <time>2025-05-14T10:06:31Z</time>
      </trkpt>
      <trkpt lat="42.033756030723453" lon="1.234913002699614">
        <ele>770.14999999999998</ele>
        <time>2025-05-14T10:06:32Z</time>
      </trkpt>
      <trkpt lat="42.033756030723453" lon="1.236453009769321">
        <ele>780.25</ele>
        <time>2025-05-14T10:06:38Z</time>
      </trkpt>
      <trkpt lat="42.033796012401581" lon="1.236696001142263">
        <ele>782.64999999999998</ele>
        <time>2025-05-14T10:06:39Z</time>
      </trkpt>
      <trkpt lat="42.033861977979541" lon="1.236938992515206">
        <ele>784.09000000000003</ele>
        <time>2025-05-14T10:06:40Z</time>
      </trkpt>
      <trkpt lat="42.034164983779192" lon="1.237538969144225">
        <ele>789.86000000000001</ele>
        <time>2025-05-14T10:06:43Z</time>
      </trkpt>
      <trkpt lat="42.034286018460989" lon="1.237617004662752">
        <ele>791.29999999999995</ele>
        <time>2025-05-14T10:06:44Z</time>
      </trkpt>
      <trkpt lat="42.034422978758812" lon="1.237658997997642">
        <ele>792.74000000000001</ele>
        <time>2025-05-14T10:06:45Z</time>
      </trkpt>
      <trkpt lat="42.03454895876348" lon="1.237652041018009">
        <ele>794.19000000000005</ele>
        <time>2025-05-14T10:06:46Z</time>
      </trkpt>
      <trkpt lat="42.034695977345109" lon="1.23759102076292">
        <ele>795.63</ele>
        <time>2025-05-14T10:06:47Z</time>
      </trkpt>
      <trkpt lat="42.034849030897021" lon="1.237541986629367">
        <ele>797.07000000000005</ele>
        <time>2025-05-14T10:06:48Z</time>
      </trkpt>
      <trkpt lat="42.034994037821889" lon="1.237502004951239">
        <ele>798.50999999999999</ele>
        <time>2025-05-14T10:06:49Z</time>
      </trkpt>
      <trkpt lat="42.035129992291331" lon="1.237464034929872">
        <ele>799.95000000000005</ele>
        <time>2025-05-14T10:06:50Z</time>
      </trkpt>
      <trkpt lat="42.035262007266283" lon="1.237542992457748">
        <ele>801.39999999999998</ele>
        <time>2025-05-14T10:06:51Z</time>
      </trkpt>
      <trkpt lat="42.035368960350752" lon="1.237642988562584">
        <ele>802.36000000000001</ele>
        <time>2025-05-14T10:06:52Z</time>
      </trkpt>
      <trkpt lat="42.03544900752604" lon="1.237801993265748">
        <ele>803.32000000000005</ele>
        <time>2025-05-14T10:06:53Z</time>
      </trkpt>
      <trkpt lat="42.035494018346071" lon="1.23797700740397">
        <ele>804.27999999999997</ele>
        <time>2025-05-14T10:06:54Z</time>
      </trkpt>
      <trkpt lat="42.035517990589142" lon="1.23817297630012">
        <ele>804.75999999999999</ele>
        <time>2025-05-14T10:06:55Z</time>
      </trkpt>
      <trkpt lat="42.035522013902664" lon="1.238398030400276">
        <ele>806.20000000000005</ele>
        <time>2025-05-14T10:06:56Z</time>
      </trkpt>
      <trkpt lat="42.035580016672611" lon="1.240750998258591">
        <ele>816.77999999999997</ele>
        <time>2025-05-14T10:07:06Z</time>
      </trkpt>
      <trkpt lat="42.035580016672611" lon="1.240956019610167">
        <ele>816.77999999999997</ele>
        <time>2025-05-14T10:07:07Z</time>
      </trkpt>
      <trkpt lat="42.035568030551076" lon="1.241140002384782">
        <ele>816.29999999999995</ele>
        <time>2025-05-14T10:07:08Z</time>
      </trkpt>
      <trkpt lat="42.03553500585258" lon="1.241276962682605">
        <ele>816.29999999999995</ele>
        <time>2025-05-14T10:07:09Z</time>
      </trkpt>
      <trkpt lat="42.035510027781129" lon="1.241381987929344">
        <ele>815.82000000000005</ele>
        <time>2025-05-14T10:07:10Z</time>
      </trkpt>
      <trkpt lat="42.035488989204168" lon="1.241464968770742">
        <ele>815.34000000000003</ele>
        <time>2025-05-14T10:07:11Z</time>
      </trkpt>
      <trkpt lat="42.035430986434221" lon="1.241705026477575">
        <ele>812.45000000000005</ele>
        <time>2025-05-14T10:07:19Z</time>
      </trkpt>
      <trkpt lat="42.035424029454589" lon="1.241735033690929">
        <ele>811.49000000000001</ele>
        <time>2025-05-14T10:08:07Z</time>
      </trkpt>
      <trkpt lat="42.035413971170783" lon="1.241841986775398">
        <ele>810.52999999999997</ele>
        <time>2025-05-14T10:08:09Z</time>
      </trkpt>
      <trkpt lat="42.03542604111135" lon="1.241940977051854">
        <ele>810.52999999999997</ele>
        <time>2025-05-14T10:08:10Z</time>
      </trkpt>
      <trkpt lat="42.035440038889647" lon="1.242052037268877">
        <ele>810.04999999999995</ele>
        <time>2025-05-14T10:08:11Z</time>
      </trkpt>
      <trkpt lat="42.035459987819195" lon="1.242155972868204">
        <ele>809.57000000000005</ele>
        <time>2025-05-14T10:08:12Z</time>
      </trkpt>
      <trkpt lat="42.035520002245903" lon="1.242260998114944">
        <ele>809.09000000000003</ele>
        <time>2025-05-14T10:08:13Z</time>
      </trkpt>
      <trkpt lat="42.035585967823863" lon="1.242375997826457">
        <ele>808.61000000000001</ele>
        <time>2025-05-14T10:08:14Z</time>
      </trkpt>
      <trkpt lat="42.035658974200487" lon="1.242500972002745">
        <ele>808.13</ele>
        <time>2025-05-14T10:08:15Z</time>
      </trkpt>
      <trkpt lat="42.036363976076245" lon="1.243615010753274">
        <ele>801.39999999999998</ele>
        <time>2025-05-14T10:08:22Z</time>
      </trkpt>
      <trkpt lat="42.037006029859185" lon="1.244540037587285">
        <ele>795.63</ele>
        <time>2025-05-14T10:08:27Z</time>
      </trkpt>
      <trkpt lat="42.037128992378712" lon="1.244639027863741">
        <ele>794.66999999999996</ele>
        <time>2025-05-14T10:08:28Z</time>
      </trkpt>
      <trkpt lat="42.037253966554999" lon="1.244695018976927">
        <ele>793.71000000000004</ele>
        <time>2025-05-14T10:08:29Z</time>
      </trkpt>
      <trkpt lat="42.037382964044809" lon="1.244679009541869">
        <ele>792.74000000000001</ele>
        <time>2025-05-14T10:08:30Z</time>
      </trkpt>
      <trkpt lat="42.037480026483536" lon="1.244627041742206">
        <ele>791.77999999999997</ele>
        <time>2025-05-14T10:08:31Z</time>
      </trkpt>
      <trkpt lat="42.03757599927485" lon="1.244544982910156">
        <ele>790.82000000000005</ele>
        <time>2025-05-14T10:08:32Z</time>
      </trkpt>
      <trkpt lat="42.03766300342977" lon="1.24440299347043">
        <ele>789.86000000000001</ele>
        <time>2025-05-14T10:08:33Z</time>
      </trkpt>
      <trkpt lat="42.03774900175631" lon="1.244262009859085">
        <ele>788.41999999999996</ele>
        <time>2025-05-14T10:08:34Z</time>
      </trkpt>
      <trkpt lat="42.037805998697877" lon="1.244052965193987">
        <ele>787.46000000000004</ele>
        <time>2025-05-14T10:08:35Z</time>
      </trkpt>
      <trkpt lat="42.037866013124585" lon="1.243826989084482">
        <ele>786.01999999999998</ele>
        <time>2025-05-14T10:08:36Z</time>
      </trkpt>
      <trkpt lat="42.038193996995687" lon="1.242628963664174">
        <ele>779.28999999999996</ele>
        <time>2025-05-14T10:08:41Z</time>
      </trkpt>
      <trkpt lat="42.038291981443763" lon="1.242444980889559">
        <ele>778.32000000000005</ele>
        <time>2025-05-14T10:08:42Z</time>
      </trkpt>
      <trkpt lat="42.038418967276812" lon="1.242335010319948">
        <ele>777.36000000000001</ele>
        <time>2025-05-14T10:08:43Z</time>
      </trkpt>
      <trkpt lat="42.038534972816706" lon="1.242248006165028">
        <ele>776.39999999999998</ele>
        <time>2025-05-14T10:08:44Z</time>
      </trkpt>
      <trkpt lat="42.038674028590322" lon="1.242227973416448">
        <ele>775.91999999999996</ele>
        <time>2025-05-14T10:08:45Z</time>
      </trkpt>
      <trkpt lat="42.038817023858428" lon="1.242227973416448">
        <ele>775.44000000000005</ele>
        <time>2025-05-14T10:08:46Z</time>
      </trkpt>
      <trkpt lat="42.038948033004999" lon="1.242323024198413">
        <ele>774.48000000000002</ele>
        <time>2025-05-14T10:08:47Z</time>
      </trkpt>
      <trkpt lat="42.039061021059752" lon="1.242455039173365">
        <ele>774</ele>
        <time>2025-05-14T10:08:48Z</time>
      </trkpt>
      <trkpt lat="42.039175014942884" lon="1.242615971714258">
        <ele>773.03999999999996</ele>
        <time>2025-05-14T10:08:49Z</time>
      </trkpt>
      <trkpt lat="42.03929596580565" lon="1.242788974195719">
        <ele>772.08000000000004</ele>
        <time>2025-05-14T10:08:50Z</time>
      </trkpt>
      <trkpt lat="42.039775997400284" lon="1.24354200437665">
        <ele>767.75</ele>
        <time>2025-05-14T10:08:54Z</time>
      </trkpt>
      <trkpt lat="42.039826959371567" lon="1.243761023506522">
        <ele>766.30999999999995</ele>
        <time>2025-05-14T10:08:55Z</time>
      </trkpt>
      <trkpt lat="42.039850009605289" lon="1.243970990180969">
        <ele>765.35000000000002</ele>
        <time>2025-05-14T10:08:56Z</time>
      </trkpt>
      <trkpt lat="42.039813967421651" lon="1.244177017360926">
        <ele>763.89999999999998</ele>
        <time>2025-05-14T10:08:57Z</time>
      </trkpt>
      <trkpt lat="42.039739033207297" lon="1.244387989863753">
        <ele>762.46000000000004</ele>
        <time>2025-05-14T10:08:58Z</time>
      </trkpt>
      <trkpt lat="42.039654040709138" lon="1.244609020650387">
        <ele>761.5</ele>
        <time>2025-05-14T10:08:59Z</time>
      </trkpt>
      <trkpt lat="42.039561001583934" lon="1.244842037558556">
        <ele>759.58000000000004</ele>
        <time>2025-05-14T10:09:00Z</time>
      </trkpt>
      <trkpt lat="42.039008969441056" lon="1.246458990499377">
        <ele>749.97000000000003</ele>
        <time>2025-05-14T10:09:06Z</time>
      </trkpt>
      <trkpt lat="42.038946021348238" lon="1.246745986863971">
        <ele>748.51999999999998</ele>
        <time>2025-05-14T10:09:07Z</time>
      </trkpt>
      <trkpt lat="42.038920959457755" lon="1.2470449693501">
        <ele>747.08000000000004</ele>
        <time>2025-05-14T10:09:08Z</time>
      </trkpt>
      <trkpt lat="42.038910984992981" lon="1.247341018170118">
        <ele>745.63999999999999</ele>
        <time>2025-05-14T10:09:09Z</time>
      </trkpt>
      <trkpt lat="42.038922971114516" lon="1.24764502979815">
        <ele>744.67999999999995</ele>
        <time>2025-05-14T10:09:10Z</time>
      </trkpt>
      <trkpt lat="42.038962030783296" lon="1.247933031991124">
        <ele>743.72000000000003</ele>
        <time>2025-05-14T10:09:11Z</time>
      </trkpt>
      <trkpt lat="42.039021961390972" lon="1.248221034184098">
        <ele>742.75999999999999</ele>
        <time>2025-05-14T10:09:12Z</time>
      </trkpt>
      <trkpt lat="42.039078958332539" lon="1.248497972264886">
        <ele>742.27999999999997</ele>
        <time>2025-05-14T10:09:13Z</time>
      </trkpt>
      <trkpt lat="42.039133021607995" lon="1.248759990558028">
        <ele>741.78999999999996</ele>
        <time>2025-05-14T10:09:14Z</time>
      </trkpt>
      <trkpt lat="42.039182977750897" lon="1.249002981930971">
        <ele>741.30999999999995</ele>
        <time>2025-05-14T10:09:15Z</time>
      </trkpt>
      <trkpt lat="42.039196975529194" lon="1.249231975525618">
        <ele>741.30999999999995</ele>
        <time>2025-05-14T10:09:16Z</time>
      </trkpt>
      <trkpt lat="42.039160011336207" lon="1.249442026019096">
        <ele>741.30999999999995</ele>
        <time>2025-05-14T10:09:17Z</time>
      </trkpt>
      <trkpt lat="42.039088010787964" lon="1.249639000743628">
        <ele>741.78999999999996</ele>
        <time>2025-05-14T10:09:18Z</time>
      </trkpt>
      <trkpt lat="42.039019027724862" lon="1.249830024316907">
        <ele>741.78999999999996</ele>
        <time>2025-05-14T10:09:19Z</time>
      </trkpt>
      <trkpt lat="42.038996983319521" lon="1.250021969899535">
        <ele>742.27999999999997</ele>
        <time>2025-05-14T10:09:20Z</time>
      </trkpt>
      <trkpt lat="42.039024978876114" lon="1.25020301900804">
        <ele>742.75999999999999</ele>
        <time>2025-05-14T10:09:21Z</time>
      </trkpt>
      <trkpt lat="42.039087004959583" lon="1.250363029539585">
        <ele>743.72000000000003</ele>
        <time>2025-05-14T10:09:22Z</time>
      </trkpt>
      <trkpt lat="42.039179960265756" lon="1.25050300732255">
        <ele>744.20000000000005</ele>
        <time>2025-05-14T10:09:23Z</time>
      </trkpt>
      <trkpt lat="42.039304012432694" lon="1.250565033406019">
        <ele>744.67999999999995</ele>
        <time>2025-05-14T10:09:24Z</time>
      </trkpt>
      <trkpt lat="42.039438961073756" lon="1.250626975670457">
        <ele>745.15999999999997</ele>
        <time>2025-05-14T10:09:25Z</time>
      </trkpt>
      <trkpt lat="42.039576005190611" lon="1.250691013410687">
        <ele>745.63999999999999</ele>
        <time>2025-05-14T10:09:26Z</time>
      </trkpt>
      <trkpt lat="42.039716988801956" lon="1.250755973160267">
        <ele>746.12</ele>
        <time>2025-05-14T10:09:27Z</time>
      </trkpt>
      <trkpt lat="42.039841040968895" lon="1.250851023942232">
        <ele>746.12</ele>
        <time>2025-05-14T10:09:28Z</time>
      </trkpt>
      <trkpt lat="42.039929972961545" lon="1.250989995896816">
        <ele>746.12</ele>
        <time>2025-05-14T10:09:29Z</time>
      </trkpt>
      <trkpt lat="42.039979007095098" lon="1.251160986721516">
        <ele>746.60000000000002</ele>
        <time>2025-05-14T10:09:30Z</time>
      </trkpt>
      <trkpt lat="42.039979007095098" lon="1.251359973102808">
        <ele>746.60000000000002</ele>
        <time>2025-05-14T10:09:31Z</time>
      </trkpt>
      <trkpt lat="42.039950005710125" lon="1.251560971140862">
        <ele>746.60000000000002</ele>
        <time>2025-05-14T10:09:32Z</time>
      </trkpt>
      <trkpt lat="42.039880016818643" lon="1.251773033291102">
        <ele>746.60000000000002</ele>
        <time>2025-05-14T10:09:33Z</time>
      </trkpt>
      <trkpt lat="42.039803992956877" lon="1.252000015228987">
        <ele>746.60000000000002</ele>
        <time>2025-05-14T10:09:34Z</time>
      </trkpt>
      <trkpt lat="42.039438961073756" lon="1.253155041486025">
        <ele>745.63999999999999</ele>
        <time>2025-05-14T10:09:39Z</time>
      </trkpt>
      <trkpt lat="42.039429992437363" lon="1.253355033695698">
        <ele>745.15999999999997</ele>
        <time>2025-05-14T10:09:40Z</time>
      </trkpt>
      <trkpt lat="42.039421023800969" lon="1.253557037562132">
        <ele>745.15999999999997</ele>
        <time>2025-05-14T10:09:41Z</time>
      </trkpt>
      <trkpt lat="42.03946896828711" lon="1.253740014508367">
        <ele>745.15999999999997</ele>
        <time>2025-05-14T10:09:42Z</time>
      </trkpt>
      <trkpt lat="42.039521019905806" lon="1.253944030031562">
        <ele>745.15999999999997</ele>
        <time>2025-05-14T10:09:43Z</time>
      </trkpt>
      <trkpt lat="42.039794018492103" lon="1.254743998870254">
        <ele>744.20000000000005</ele>
        <time>2025-05-14T10:09:47Z</time>
      </trkpt>
      <trkpt lat="42.039884040132165" lon="1.254899986088276">
        <ele>743.72000000000003</ele>
        <time>2025-05-14T10:09:48Z</time>
      </trkpt>
      <trkpt lat="42.039978001266718" lon="1.255045998841524">
        <ele>743.24000000000001</ele>
        <time>2025-05-14T10:09:49Z</time>
      </trkpt>
      <trkpt lat="42.040103981271386" lon="1.255142977461219">
        <ele>743.24000000000001</ele>
        <time>2025-05-14T10:09:50Z</time>
      </trkpt>
      <trkpt lat="42.040233984589577" lon="1.255223024636507">
        <ele>743.24000000000001</ele>
        <time>2025-05-14T10:09:51Z</time>
      </trkpt>
      <trkpt lat="42.040362982079387" lon="1.255300976336002">
        <ele>743.24000000000001</ele>
        <time>2025-05-14T10:09:52Z</time>
      </trkpt>
      <trkpt lat="42.04075500369072" lon="1.255451012402773">
        <ele>742.27999999999997</ele>
        <time>2025-05-14T10:09:55Z</time>
      </trkpt>
      <trkpt lat="42.04086204059422" lon="1.255455035716295">
        <ele>741.30999999999995</ele>
        <time>2025-05-14T10:09:56Z</time>
      </trkpt>
      <trkpt lat="42.040963964536786" lon="1.255429973825812">
        <ele>740.83000000000004</ele>
        <time>2025-05-14T10:09:57Z</time>
      </trkpt>
      <trkpt lat="42.041048035025597" lon="1.255389992147684">
        <ele>740.35000000000002</ele>
        <time>2025-05-14T10:09:58Z</time>
      </trkpt>
      <trkpt lat="42.041123975068331" lon="1.255347998812795">
        <ele>739.38999999999999</ele>
        <time>2025-05-14T10:09:59Z</time>
      </trkpt>
      <trkpt lat="42.041180972009897" lon="1.25531698577106">
        <ele>738.90999999999997</ele>
        <time>2025-05-14T10:10:00Z</time>
      </trkpt>
      <trkpt lat="42.041226988658309" lon="1.25527398660779">
        <ele>737.95000000000005</ele>
        <time>2025-05-14T10:10:01Z</time>
      </trkpt>
      <trkpt lat="42.041268981993198" lon="1.255236016586423">
        <ele>736.99000000000001</ele>
        <time>2025-05-14T10:10:02Z</time>
      </trkpt>
      <trkpt lat="42.041460005566478" lon="1.25505899079144">
        <ele>730.74000000000001</ele>
        <time>2025-05-14T10:10:12Z</time>
      </trkpt>
      <trkpt lat="42.041577016934752" lon="1.254934016615152">
        <ele>725.92999999999995</ele>
        <time>2025-05-14T10:10:23Z</time>
      </trkpt>
      <trkpt lat="42.041577016934752" lon="1.254934016615152">
        <ele>725.45000000000005</ele>
        <time>2025-05-14T10:11:09Z</time>
      </trkpt>
      <trkpt lat="42.041798969730735" lon="1.254698988050222">
        <ele>722.57000000000005</ele>
        <time>2025-05-14T10:11:20Z</time>
      </trkpt>
      <trkpt lat="42.042575972154737" lon="1.253959033638239">
        <ele>718.72000000000003</ele>
        <time>2025-05-14T10:11:26Z</time>
      </trkpt>
      <trkpt lat="42.042757021263242" lon="1.253819977864623">
        <ele>718.24000000000001</ele>
        <time>2025-05-14T10:11:27Z</time>
      </trkpt>
      <trkpt lat="42.042963970452547" lon="1.253715036436915">
        <ele>717.75999999999999</ele>
        <time>2025-05-14T10:11:28Z</time>
      </trkpt>
      <trkpt lat="42.044444968923926" lon="1.253007017076016">
        <ele>713.91999999999996</ele>
        <time>2025-05-14T10:11:35Z</time>
      </trkpt>
      <trkpt lat="42.044654013589025" lon="1.252964017912746">
        <ele>713.44000000000005</ele>
        <time>2025-05-14T10:11:36Z</time>
      </trkpt>
      <trkpt lat="42.044868003576994" lon="1.25293199904263">
        <ele>712.47000000000003</ele>
        <time>2025-05-14T10:11:37Z</time>
      </trkpt>
      <trkpt lat="42.046110033988953" lon="1.252948008477688">
        <ele>710.07000000000005</ele>
        <time>2025-05-14T10:11:43Z</time>
      </trkpt>
      <trkpt lat="42.046287981793284" lon="1.252978015691042">
        <ele>709.59000000000003</ele>
        <time>2025-05-14T10:11:44Z</time>
      </trkpt>
      <trkpt lat="42.046415973454714" lon="1.253084968775511">
        <ele>709.59000000000003</ele>
        <time>2025-05-14T10:11:45Z</time>
      </trkpt>
      <trkpt lat="42.046539019793272" lon="1.25327498652041">
        <ele>709.59000000000003</ele>
        <time>2025-05-14T10:11:46Z</time>
      </trkpt>
      <trkpt lat="42.046658964827657" lon="1.253462992608547">
        <ele>709.59000000000003</ele>
        <time>2025-05-14T10:11:47Z</time>
      </trkpt>
      <trkpt lat="42.046772036701441" lon="1.253677988424897">
        <ele>709.59000000000003</ele>
        <time>2025-05-14T10:11:48Z</time>
      </trkpt>
      <trkpt lat="42.047615004703403" lon="1.255225958302617">
        <ele>708.63</ele>
        <time>2025-05-14T10:11:55Z</time>
      </trkpt>
      <trkpt lat="42.047751965001225" lon="1.255365014076233">
        <ele>708.14999999999998</ele>
        <time>2025-05-14T10:11:56Z</time>
      </trkpt>
      <trkpt lat="42.047899989411235" lon="1.255489988252521">
        <ele>708.14999999999998</ele>
        <time>2025-05-14T10:11:57Z</time>
      </trkpt>
      <trkpt lat="42.048076009377837" lon="1.255577998235822">
        <ele>708.14999999999998</ele>
        <time>2025-05-14T10:11:58Z</time>
      </trkpt>
      <trkpt lat="42.048259992152452" lon="1.255670031532645">
        <ele>708.14999999999998</ele>
        <time>2025-05-14T10:11:59Z</time>
      </trkpt>
      <trkpt lat="42.049241010099649" lon="1.25621996819973">
        <ele>705.25999999999999</ele>
        <time>2025-05-14T10:12:04Z</time>
      </trkpt>
      <trkpt lat="42.049408983439207" lon="1.256359023973346">
        <ele>704.29999999999995</ele>
        <time>2025-05-14T10:12:05Z</time>
      </trkpt>
      <trkpt lat="42.049503028392792" lon="1.256571002304554">
        <ele>703.34000000000003</ele>
        <time>2025-05-14T10:12:06Z</time>
      </trkpt>
      <trkpt lat="42.049587015062571" lon="1.25677602365613">
        <ele>702.38</ele>
        <time>2025-05-14T10:12:07Z</time>
      </trkpt>
      <trkpt lat="42.04962900839746" lon="1.256988001987338">
        <ele>700.94000000000005</ele>
        <time>2025-05-14T10:12:08Z</time>
      </trkpt>
      <trkpt lat="42.049653986468911" lon="1.257231999188662">
        <ele>699.5</ele>
        <time>2025-05-14T10:12:09Z</time>
      </trkpt>
      <trkpt lat="42.049679970368743" lon="1.257485970854759">
        <ele>698.52999999999997</ele>
        <time>2025-05-14T10:12:10Z</time>
      </trkpt>
      <trkpt lat="42.049711989238858" lon="1.257733991369605">
        <ele>697.09000000000003</ele>
        <time>2025-05-14T10:12:11Z</time>
      </trkpt>
      <trkpt lat="42.049764040857553" lon="1.257968014106154">
        <ele>695.64999999999998</ele>
        <time>2025-05-14T10:12:12Z</time>
      </trkpt>
      <trkpt lat="42.049847021698952" lon="1.258178986608982">
        <ele>694.21000000000004</ele>
        <time>2025-05-14T10:12:13Z</time>
      </trkpt>
      <trkpt lat="42.049960009753704" lon="1.25839096494019">
        <ele>692.76999999999998</ele>
        <time>2025-05-14T10:12:14Z</time>
      </trkpt>
      <trkpt lat="42.050088001415133" lon="1.258611995726824">
        <ele>691.33000000000004</ele>
        <time>2025-05-14T10:12:15Z</time>
      </trkpt>
      <trkpt lat="42.050963994115591" lon="1.260273959487677">
        <ele>680.75</ele>
        <time>2025-05-14T10:12:22Z</time>
      </trkpt>
      <trkpt lat="42.051007999107242" lon="1.260468000546098">
        <ele>678.83000000000004</ele>
        <time>2025-05-14T10:12:23Z</time>
      </trkpt>
      <trkpt lat="42.051007999107242" lon="1.260660029947758">
        <ele>677.38999999999999</ele>
        <time>2025-05-14T10:12:24Z</time>
      </trkpt>
      <trkpt lat="42.050932981073856" lon="1.260849041864276">
        <ele>675.94000000000005</ele>
        <time>2025-05-14T10:12:25Z</time>
      </trkpt>
      <trkpt lat="42.050836002454162" lon="1.261004023253918">
        <ele>674.5</ele>
        <time>2025-05-14T10:12:26Z</time>
      </trkpt>
      <trkpt lat="42.050713039934635" lon="1.261109970510006">
        <ele>673.05999999999995</ele>
        <time>2025-05-14T10:12:27Z</time>
      </trkpt>
      <trkpt lat="42.050554035231471" lon="1.261193035170436">
        <ele>671.13999999999999</ele>
        <time>2025-05-14T10:12:28Z</time>
      </trkpt>
      <trkpt lat="42.050382038578391" lon="1.261282972991467">
        <ele>669.22000000000003</ele>
        <time>2025-05-14T10:12:29Z</time>
      </trkpt>
      <trkpt lat="42.050195038318634" lon="1.261363020166755">
        <ele>667.76999999999998</ele>
        <time>2025-05-14T10:12:30Z</time>
      </trkpt>
      <trkpt lat="42.049072030931711" lon="1.261855037882924">
        <ele>655.75999999999999</ele>
        <time>2025-05-14T10:12:36Z</time>
      </trkpt>
      <trkpt lat="42.048961976543069" lon="1.261979006230831">
        <ele>653.83000000000004</ele>
        <time>2025-05-14T10:12:37Z</time>
      </trkpt>
      <trkpt lat="42.048884024843574" lon="1.262118984013796">
        <ele>652.38999999999999</ele>
        <time>2025-05-14T10:12:38Z</time>
      </trkpt>
      <trkpt lat="42.048872960731387" lon="1.262282012030482">
        <ele>650.95000000000005</ele>
        <time>2025-05-14T10:12:39Z</time>
      </trkpt>
      <trkpt lat="42.048861980438232" lon="1.262441016733646">
        <ele>649.50999999999999</ele>
        <time>2025-05-14T10:12:40Z</time>
      </trkpt>
      <trkpt lat="42.048925012350082" lon="1.262597003951669">
        <ele>648.07000000000005</ele>
        <time>2025-05-14T10:12:41Z</time>
      </trkpt>
      <trkpt lat="42.048990977928042" lon="1.262762965634465">
        <ele>647.10000000000002</ele>
        <time>2025-05-14T10:12:42Z</time>
      </trkpt>
      <trkpt lat="42.049090974032879" lon="1.262876959517598">
        <ele>645.65999999999997</ele>
        <time>2025-05-14T10:12:43Z</time>
      </trkpt>
      <trkpt lat="42.04922198317945" lon="1.262981984764338">
        <ele>644.22000000000003</ele>
        <time>2025-05-14T10:12:44Z</time>
      </trkpt>
      <trkpt lat="42.049380987882614" lon="1.263076029717922">
        <ele>642.77999999999997</ele>
        <time>2025-05-14T10:12:45Z</time>
      </trkpt>
      <trkpt lat="42.049867976456881" lon="1.26343603245914">
        <ele>637.97000000000003</ele>
        <time>2025-05-14T10:12:48Z</time>
      </trkpt>
      <trkpt lat="42.050004014745355" lon="1.263586990535259">
        <ele>636.04999999999995</ele>
        <time>2025-05-14T10:12:49Z</time>
      </trkpt>
      <trkpt lat="42.050096970051527" lon="1.263771979138255">
        <ele>634.13</ele>
        <time>2025-05-14T10:12:50Z</time>
      </trkpt>
      <trkpt lat="42.050137035548687" lon="1.263972977176309">
        <ele>632.20000000000005</ele>
        <time>2025-05-14T10:12:51Z</time>
      </trkpt>
      <trkpt lat="42.050129994750023" lon="1.26416802406311">
        <ele>630.27999999999997</ele>
        <time>2025-05-14T10:12:52Z</time>
      </trkpt>
      <trkpt lat="42.050085989758372" lon="1.264360975474119">
        <ele>628.84000000000003</ele>
        <time>2025-05-14T10:12:53Z</time>
      </trkpt>
      <trkpt lat="42.050006026402116" lon="1.264541018754244">
        <ele>626.91999999999996</ele>
        <time>2025-05-14T10:12:54Z</time>
      </trkpt>
      <trkpt lat="42.049882980063558" lon="1.264691976830363">
        <ele>625.47000000000003</ele>
        <time>2025-05-14T10:12:55Z</time>
      </trkpt>
      <trkpt lat="42.049741996452212" lon="1.264864979311824">
        <ele>623.54999999999995</ele>
        <time>2025-05-14T10:12:56Z</time>
      </trkpt>
      <trkpt lat="42.049605958163738" lon="1.264991965144873">
        <ele>621.14999999999998</ele>
        <time>2025-05-14T10:12:57Z</time>
      </trkpt>
      <trkpt lat="42.049465980380774" lon="1.265122974291444">
        <ele>619.23000000000002</ele>
        <time>2025-05-14T10:12:58Z</time>
      </trkpt>
      <trkpt lat="42.049360033124685" lon="1.26526596955955">
        <ele>616.34000000000003</ele>
        <time>2025-05-14T10:12:59Z</time>
      </trkpt>
      <trkpt lat="42.049287026748061" lon="1.265422040596604">
        <ele>614.41999999999996</ele>
        <time>2025-05-14T10:13:00Z</time>
      </trkpt>
      <trkpt lat="42.049266993999481" lon="1.265613986179233">
        <ele>612.5</ele>
        <time>2025-05-14T10:13:01Z</time>
      </trkpt>
      <trkpt lat="42.049255007877946" lon="1.265809033066034">
        <ele>610.57000000000005</ele>
        <time>2025-05-14T10:13:02Z</time>
      </trkpt>
      <trkpt lat="42.049314016476274" lon="1.265997039154172">
        <ele>609.13</ele>
        <time>2025-05-14T10:13:03Z</time>
      </trkpt>
      <trkpt lat="42.049389034509659" lon="1.266167024150491">
        <ele>607.21000000000004</ele>
        <time>2025-05-14T10:13:04Z</time>
      </trkpt>
      <trkpt lat="42.049511997029185" lon="1.266300966963172">
        <ele>606.25</ele>
        <time>2025-05-14T10:13:05Z</time>
      </trkpt>
      <trkpt lat="42.049646023660898" lon="1.266427030786872">
        <ele>605.28999999999996</ele>
        <time>2025-05-14T10:13:06Z</time>
      </trkpt>
      <trkpt lat="42.049805028364062" lon="1.26650900579989">
        <ele>603.85000000000002</ele>
        <time>2025-05-14T10:13:07Z</time>
      </trkpt>
      <trkpt lat="42.051489958539605" lon="1.26736999489367">
        <ele>588.95000000000005</ele>
        <time>2025-05-14T10:13:17Z</time>
      </trkpt>
      <trkpt lat="42.053371025249362" lon="1.268537007272244">
        <ele>572.12</ele>
        <time>2025-05-14T10:13:29Z</time>
      </trkpt>
      <trkpt lat="42.054110979661345" lon="1.269727991893888">
        <ele>562.50999999999999</ele>
        <time>2025-05-14T10:13:36Z</time>
      </trkpt>
      <trkpt lat="42.055289978161454" lon="1.272133011370897">
        <ele>544.72000000000003</ele>
        <time>2025-05-14T10:13:48Z</time>
      </trkpt>
      <trkpt lat="42.056468976661563" lon="1.273637982085347">
        <ele>533.66999999999996</ele>
        <time>2025-05-14T10:13:56Z</time>
      </trkpt>
      <trkpt lat="42.057936983183026" lon="1.275158040225506">
        <ele>529.82000000000005</ele>
        <time>2025-05-14T10:14:05Z</time>
      </trkpt>
      <trkpt lat="42.059117993339896" lon="1.2754260096699">
        <ele>533.66999999999996</ele>
        <time>2025-05-14T10:14:11Z</time>
      </trkpt>
      <trkpt lat="42.059322008863091" lon="1.275398014113307">
        <ele>534.63</ele>
        <time>2025-05-14T10:14:12Z</time>
      </trkpt>
      <trkpt lat="42.061110958456993" lon="1.27510498277843">
        <ele>545.20000000000005</ele>
        <time>2025-05-14T10:14:21Z</time>
      </trkpt>
      <trkpt lat="42.061302987858653" lon="1.275134989991784">
        <ele>546.16999999999996</ele>
        <time>2025-05-14T10:14:22Z</time>
      </trkpt>
      <trkpt lat="42.061480013653636" lon="1.275210008025169">
        <ele>547.61000000000001</ele>
        <time>2025-05-14T10:14:23Z</time>
      </trkpt>
      <trkpt lat="42.061646981164813" lon="1.275281002745032">
        <ele>548.57000000000005</ele>
        <time>2025-05-14T10:14:24Z</time>
      </trkpt>
      <trkpt lat="42.061806991696358" lon="1.275348979979754">
        <ele>550.00999999999999</ele>
        <time>2025-05-14T10:14:25Z</time>
      </trkpt>
      <trkpt lat="42.061964990571141" lon="1.275432966649532">
        <ele>550.97000000000003</ele>
        <time>2025-05-14T10:14:26Z</time>
      </trkpt>
      <trkpt lat="42.062108991667628" lon="1.275564981624484">
        <ele>551.92999999999995</ele>
        <time>2025-05-14T10:14:27Z</time>
      </trkpt>
      <trkpt lat="42.062830002978444" lon="1.276520015671849">
        <ele>551.45000000000005</ele>
        <time>2025-05-14T10:14:33Z</time>
      </trkpt>
      <trkpt lat="42.063368959352374" lon="1.27830401994288">
        <ele>545.69000000000005</ele>
        <time>2025-05-14T10:14:41Z</time>
      </trkpt>
      <trkpt lat="42.064012018963695" lon="1.280680038034916">
        <ele>537.99000000000001</ele>
        <time>2025-05-14T10:14:50Z</time>
      </trkpt>
      <trkpt lat="42.064581988379359" lon="1.283371970057488">
        <ele>532.71000000000004</ele>
        <time>2025-05-14T10:15:00Z</time>
      </trkpt>
      <trkpt lat="42.065252037718892" lon="1.287963995710015">
        <ele>519.25</ele>
        <time>2025-05-14T10:15:16Z</time>
      </trkpt>
      <trkpt lat="42.065802980214357" lon="1.291551031172276">
        <ele>506.26999999999998</ele>
        <time>2025-05-14T10:15:29Z</time>
      </trkpt>
      <trkpt lat="42.065871963277459" lon="1.291760997846723">
        <ele>505.79000000000002</ele>
        <time>2025-05-14T10:15:30Z</time>
      </trkpt>
      <trkpt lat="42.065967014059424" lon="1.291951015591621">
        <ele>504.82999999999998</ele>
        <time>2025-05-14T10:15:31Z</time>
      </trkpt>
      <trkpt lat="42.06608796492219" lon="1.292117983102799">
        <ele>504.35000000000002</ele>
        <time>2025-05-14T10:15:32Z</time>
      </trkpt>
      <trkpt lat="42.066230960190296" lon="1.292273970320821">
        <ele>503.87</ele>
        <time>2025-05-14T10:15:33Z</time>
      </trkpt>
      <trkpt lat="42.066380996257067" lon="1.292434986680746">
        <ele>503.38999999999999</ele>
        <time>2025-05-14T10:15:34Z</time>
      </trkpt>
      <trkpt lat="42.067553959786892" lon="1.293650027364492">
        <ele>498.10000000000002</ele>
        <time>2025-05-14T10:15:42Z</time>
      </trkpt>
      <trkpt lat="42.067657979205251" lon="1.293767038732767">
        <ele>496.66000000000003</ele>
        <time>2025-05-14T10:15:43Z</time>
      </trkpt>
      <trkpt lat="42.067678011953831" lon="1.293920008465648">
        <ele>495.69999999999999</ele>
        <time>2025-05-14T10:15:44Z</time>
      </trkpt>
      <trkpt lat="42.06769703887403" lon="1.294069038704038">
        <ele>494.74000000000001</ele>
        <time>2025-05-14T10:15:45Z</time>
      </trkpt>
      <trkpt lat="42.067687986418605" lon="1.294208010658622">
        <ele>493.29000000000002</ele>
        <time>2025-05-14T10:15:46Z</time>
      </trkpt>
      <trkpt lat="42.067663008347154" lon="1.29437698982656">
        <ele>492.32999999999998</ele>
        <time>2025-05-14T10:15:47Z</time>
      </trkpt>
      <trkpt lat="42.0676330011338" lon="1.294578993692994">
        <ele>491.37</ele>
        <time>2025-05-14T10:15:48Z</time>
      </trkpt>
      <trkpt lat="42.067607017233968" lon="1.294787032529712">
        <ele>490.41000000000003</ele>
        <time>2025-05-14T10:15:49Z</time>
      </trkpt>
      <trkpt lat="42.067581033334136" lon="1.294998005032539">
        <ele>489.44999999999999</ele>
        <time>2025-05-14T10:15:50Z</time>
      </trkpt>
      <trkpt lat="42.067521018907428" lon="1.295206965878606">
        <ele>488.00999999999999</ele>
        <time>2025-05-14T10:15:51Z</time>
      </trkpt>
      <trkpt lat="42.067452035844326" lon="1.295407963916659">
        <ele>487.05000000000001</ele>
        <time>2025-05-14T10:15:52Z</time>
      </trkpt>
      <trkpt lat="42.067390009760857" lon="1.295585995540023">
        <ele>485.60000000000002</ele>
        <time>2025-05-14T10:15:53Z</time>
      </trkpt>
      <trkpt lat="42.067368971183896" lon="1.295738965272903">
        <ele>484.16000000000003</ele>
        <time>2025-05-14T10:15:54Z</time>
      </trkpt>
      <trkpt lat="42.067366037517786" lon="1.295859999954701">
        <ele>482.72000000000003</ele>
        <time>2025-05-14T10:15:55Z</time>
      </trkpt>
      <trkpt lat="42.067426973953843" lon="1.295943986624479">
        <ele>481.75999999999999</ele>
        <time>2025-05-14T10:15:56Z</time>
      </trkpt>
      <trkpt lat="42.067530993372202" lon="1.296085976064205">
        <ele>480.31999999999999</ele>
        <time>2025-05-14T10:15:57Z</time>
      </trkpt>
      <trkpt lat="42.067609028890729" lon="1.296132998540998">
        <ele>479.35000000000002</ele>
        <time>2025-05-14T10:15:58Z</time>
      </trkpt>
      <trkpt lat="42.067875992506742" lon="1.2962899915874">
        <ele>476.94999999999999</ele>
        <time>2025-05-14T10:16:00Z</time>
      </trkpt>
      <trkpt lat="42.068017981946468" lon="1.296378001570702">
        <ele>475.99000000000001</ele>
        <time>2025-05-14T10:16:01Z</time>
      </trkpt>
      <trkpt lat="42.068152008578181" lon="1.296496018767357">
        <ele>474.55000000000001</ele>
        <time>2025-05-14T10:16:02Z</time>
      </trkpt>
      <trkpt lat="42.068261979147792" lon="1.296625016257167">
        <ele>473.11000000000001</ele>
        <time>2025-05-14T10:16:03Z</time>
      </trkpt>
      <trkpt lat="42.068356024101377" lon="1.296733980998397">
        <ele>471.66000000000003</ele>
        <time>2025-05-14T10:16:04Z</time>
      </trkpt>
      <trkpt lat="42.068449985235929" lon="1.296792989596725">
        <ele>470.22000000000003</ele>
        <time>2025-05-14T10:16:05Z</time>
      </trkpt>
      <trkpt lat="42.068517962470651" lon="1.296816039830446">
        <ele>469.25999999999999</ele>
        <time>2025-05-14T10:16:06Z</time>
      </trkpt>
      <trkpt lat="42.068606978282332" lon="1.296764994040132">
        <ele>468.30000000000001</ele>
        <time>2025-05-14T10:16:07Z</time>
      </trkpt>
      <trkpt lat="42.068667998537421" lon="1.296730041503906">
        <ele>466.86000000000001</ele>
        <time>2025-05-14T10:16:08Z</time>
      </trkpt>
      <trkpt lat="42.068704040721059" lon="1.296615963801742">
        <ele>465.42000000000002</ele>
        <time>2025-05-14T10:16:09Z</time>
      </trkpt>
      <trkpt lat="42.068749973550439" lon="1.296471040695906">
        <ele>463.97000000000003</ele>
        <time>2025-05-14T10:16:10Z</time>
      </trkpt>
      <trkpt lat="42.068947032094002" lon="1.295699989423156">
        <ele>456.27999999999997</ele>
        <time>2025-05-14T10:16:15Z</time>
      </trkpt>
      <trkpt lat="42.069020960479975" lon="1.295655984431505">
        <ele>454.83999999999997</ele>
        <time>2025-05-14T10:16:16Z</time>
      </trkpt>
      <trkpt lat="42.069068988785148" lon="1.295640980824828">
        <ele>453.88</ele>
        <time>2025-05-14T10:16:17Z</time>
      </trkpt>
      <trkpt lat="42.069150041788816" lon="1.29566696472466">
        <ele>452.44</ele>
        <time>2025-05-14T10:16:18Z</time>
      </trkpt>
      <trkpt lat="42.069210978224874" lon="1.295735025778413">
        <ele>451.48000000000002</ele>
        <time>2025-05-14T10:16:19Z</time>
      </trkpt>
      <trkpt lat="42.069268980994821" lon="1.295852037146688">
        <ele>450.02999999999997</ele>
        <time>2025-05-14T10:16:20Z</time>
      </trkpt>
      <trkpt lat="42.069279961287975" lon="1.296001989394426">
        <ele>449.06999999999999</ele>
        <time>2025-05-14T10:16:21Z</time>
      </trkpt>
      <trkpt lat="42.069292031228542" lon="1.296170968562365">
        <ele>447.63</ele>
        <time>2025-05-14T10:16:22Z</time>
      </trkpt>
      <trkpt lat="42.069406025111675" lon="1.297184005379677">
        <ele>441.38</ele>
        <time>2025-05-14T10:16:27Z</time>
      </trkpt>
      <trkpt lat="42.069476014003158" lon="1.297723967581987">
        <ele>439.45999999999998</ele>
        <time>2025-05-14T10:16:30Z</time>
      </trkpt>
      <trkpt lat="42.069536028429866" lon="1.297839973121882">
        <ele>438.98000000000002</ele>
        <time>2025-05-14T10:16:31Z</time>
      </trkpt>
      <trkpt lat="42.069612974300981" lon="1.297925971448422">
        <ele>438.98000000000002</ele>
        <time>2025-05-14T10:16:32Z</time>
      </trkpt>
      <trkpt lat="42.069721017032862" lon="1.298003001138568">
        <ele>438.5</ele>
        <time>2025-05-14T10:16:33Z</time>
      </trkpt>
      <trkpt lat="42.069849008694291" lon="1.298024961724877">
        <ele>438.5</ele>
        <time>2025-05-14T10:16:34Z</time>
      </trkpt>
      <trkpt lat="42.069989992305636" lon="1.298048011958599">
        <ele>438.5</ele>
        <time>2025-05-14T10:16:35Z</time>
      </trkpt>
      <trkpt lat="42.070156037807465" lon="1.298030996695161">
        <ele>438.5</ele>
        <time>2025-05-14T10:16:36Z</time>
      </trkpt>
      <trkpt lat="42.0703199878335" lon="1.297979028895497">
        <ele>438.5</ele>
        <time>2025-05-14T10:16:37Z</time>
      </trkpt>
      <trkpt lat="42.07049198448658" lon="1.297924965620041">
        <ele>438.5</ele>
        <time>2025-05-14T10:16:38Z</time>
      </trkpt>
      <trkpt lat="42.07204096019268" lon="1.297354996204376">
        <ele>441.38</ele>
        <time>2025-05-14T10:16:46Z</time>
      </trkpt>
      <trkpt lat="42.073208978399634" lon="1.296748984605074">
        <ele>441.86000000000001</ele>
        <time>2025-05-14T10:16:52Z</time>
      </trkpt>
      <trkpt lat="42.074842024594545" lon="1.295868968591094">
        <ele>444.75</ele>
        <time>2025-05-14T10:17:00Z</time>
      </trkpt>
      <trkpt lat="42.075410988181829" lon="1.295439982786775">
        <ele>444.75</ele>
        <time>2025-05-14T10:17:03Z</time>
      </trkpt>
      <trkpt lat="42.07739096134901" lon="1.294485032558441">
        <ele>449.55000000000001</ele>
        <time>2025-05-14T10:17:13Z</time>
      </trkpt>
      <trkpt lat="42.077587014064193" lon="1.294411020353437">
        <ele>450.02999999999997</ele>
        <time>2025-05-14T10:17:14Z</time>
      </trkpt>
      <trkpt lat="42.077788012102246" lon="1.294382018968463">
        <ele>450.51999999999998</ele>
        <time>2025-05-14T10:17:15Z</time>
      </trkpt>
      <trkpt lat="42.079039011150599" lon="1.294255033135414">
        <ele>452.44</ele>
        <time>2025-05-14T10:17:22Z</time>
      </trkpt>
      <trkpt lat="42.079168008640409" lon="1.294289985671639">
        <ele>452.92000000000002</ele>
        <time>2025-05-14T10:17:23Z</time>
      </trkpt>
      <trkpt lat="42.079292982816696" lon="1.294336002320051">
        <ele>453.39999999999998</ele>
        <time>2025-05-14T10:17:24Z</time>
      </trkpt>
      <trkpt lat="42.080640038475394" lon="1.294970009475946">
        <ele>456.75999999999999</ele>
        <time>2025-05-14T10:17:34Z</time>
      </trkpt>
      <trkpt lat="42.081678975373507" lon="1.295288018882275">
        <ele>456.27999999999997</ele>
        <time>2025-05-14T10:17:42Z</time>
      </trkpt>
      <trkpt lat="42.081795986741781" lon="1.29527703858912">
        <ele>455.80000000000001</ele>
        <time>2025-05-14T10:17:43Z</time>
      </trkpt>
      <trkpt lat="42.081903023645282" lon="1.295245019719005">
        <ele>455.31999999999999</ele>
        <time>2025-05-14T10:17:44Z</time>
      </trkpt>
      <trkpt lat="42.082007965072989" lon="1.295175030827522">
        <ele>454.36000000000001</ele>
        <time>2025-05-14T10:17:45Z</time>
      </trkpt>
      <trkpt lat="42.082123970612884" lon="1.295098001137376">
        <ele>453.88</ele>
        <time>2025-05-14T10:17:46Z</time>
      </trkpt>
      <trkpt lat="42.082245005294681" lon="1.294998005032539">
        <ele>453.39999999999998</ele>
        <time>2025-05-14T10:17:47Z</time>
      </trkpt>
      <trkpt lat="42.083024019375443" lon="1.294308006763458">
        <ele>451</ele>
        <time>2025-05-14T10:17:53Z</time>
      </trkpt>
      <trkpt lat="42.083154022693634" lon="1.294223014265299">
        <ele>451</ele>
        <time>2025-05-14T10:17:54Z</time>
      </trkpt>
      <trkpt lat="42.083298023790121" lon="1.294164005666971">
        <ele>451.48000000000002</ele>
        <time>2025-05-14T10:17:55Z</time>
      </trkpt>
      <trkpt lat="42.084052981808782" lon="1.293854964897037">
        <ele>454.83999999999997</ele>
        <time>2025-05-14T10:18:01Z</time>
      </trkpt>
      <trkpt lat="42.084144009277225" lon="1.293771984055638">
        <ele>455.31999999999999</ele>
        <time>2025-05-14T10:18:02Z</time>
      </trkpt>
      <trkpt lat="42.08443796262145" lon="1.293505020439625">
        <ele>457.24000000000001</ele>
        <time>2025-05-14T10:18:05Z</time>
      </trkpt>
      <trkpt lat="42.084653964266181" lon="1.29334500990808">
        <ele>458.20999999999998</ele>
        <time>2025-05-14T10:18:07Z</time>
      </trkpt>
      <trkpt lat="42.084883963689208" lon="1.293255994096398">
        <ele>459.64999999999998</ele>
        <time>2025-05-14T10:18:09Z</time>
      </trkpt>
      <trkpt lat="42.085382016375661" lon="1.293076034635305">
        <ele>463.00999999999999</ele>
        <time>2025-05-14T10:18:14Z</time>
      </trkpt>
      <trkpt lat="42.085457034409046" lon="1.293040998280048">
        <ele>463.97000000000003</ele>
        <time>2025-05-14T10:18:15Z</time>
      </trkpt>
      <trkpt lat="42.085517970845103" lon="1.293011996895075">
        <ele>463.97000000000003</ele>
        <time>2025-05-14T10:18:16Z</time>
      </trkpt>
      <trkpt lat="42.085605980828404" lon="1.292910994961858">
        <ele>464.44999999999999</ele>
        <time>2025-05-14T10:18:17Z</time>
      </trkpt>
      <trkpt lat="42.085619978606701" lon="1.292810998857021">
        <ele>464.93000000000001</ele>
        <time>2025-05-14T10:18:18Z</time>
      </trkpt>
      <trkpt lat="42.085634982213378" lon="1.292698010802269">
        <ele>464.93000000000001</ele>
        <time>2025-05-14T10:18:19Z</time>
      </trkpt>
      <trkpt lat="42.085677981376648" lon="1.29259298555553">
        <ele>465.42000000000002</ele>
        <time>2025-05-14T10:18:20Z</time>
      </trkpt>
      <trkpt lat="42.085731038823724" lon="1.292510004714131">
        <ele>464.93000000000001</ele>
        <time>2025-05-14T10:18:21Z</time>
      </trkpt>
      <trkpt lat="42.085782000795007" lon="1.292452001944184">
        <ele>464.93000000000001</ele>
        <time>2025-05-14T10:18:22Z</time>
      </trkpt>
      <trkpt lat="42.085823994129896" lon="1.292414031922817">
        <ele>464.93000000000001</ele>
        <time>2025-05-14T10:18:23Z</time>
      </trkpt>
      <trkpt lat="42.085848972201347" lon="1.292391987517476">
        <ele>464.93000000000001</ele>
        <time>2025-05-14T10:18:24Z</time>
      </trkpt>
      <trkpt lat="42.085856013000011" lon="1.292386036366224">
        <ele>464.93000000000001</ele>
        <time>2025-05-14T10:18:35Z</time>
      </trkpt>
      <trkpt lat="42.085996996611357" lon="1.292290985584259">
        <ele>466.86000000000001</ele>
        <time>2025-05-14T10:18:38Z</time>
      </trkpt>
      <trkpt lat="42.086079977452755" lon="1.292263995856047">
        <ele>467.33999999999997</ele>
        <time>2025-05-14T10:18:39Z</time>
      </trkpt>
      <trkpt lat="42.086165975779295" lon="1.292234994471073">
        <ele>467.81999999999999</ele>
        <time>2025-05-14T10:18:40Z</time>
      </trkpt>
      <trkpt lat="42.086235964670777" lon="1.292210016399622">
        <ele>468.30000000000001</ele>
        <time>2025-05-14T10:18:41Z</time>
      </trkpt>
      <trkpt lat="42.086289022117853" lon="1.292189983651042">
        <ele>468.30000000000001</ele>
        <time>2025-05-14T10:18:42Z</time>
      </trkpt>
      <trkpt lat="42.086334032937884" lon="1.292172968387604">
        <ele>468.77999999999997</ele>
        <time>2025-05-14T10:18:43Z</time>
      </trkpt>
      <trkpt lat="42.086619017645717" lon="1.292066015303135">
        <ele>468.30000000000001</ele>
        <time>2025-05-14T10:18:48Z</time>
      </trkpt>
      <trkpt lat="42.087442958727479" lon="1.291558993980289">
        <ele>471.18000000000001</ele>
        <time>2025-05-14T10:18:56Z</time>
      </trkpt>
      <trkpt lat="42.087882002815604" lon="1.291339974850416">
        <ele>473.58999999999997</ele>
        <time>2025-05-14T10:18:59Z</time>
      </trkpt>
      <trkpt lat="42.08802298642695" lon="1.291300999000669">
        <ele>474.55000000000001</ele>
        <time>2025-05-14T10:19:00Z</time>
      </trkpt>
      <trkpt lat="42.088211998343468" lon="1.291256994009018">
        <ele>475.50999999999999</ele>
        <time>2025-05-14T10:19:01Z</time>
      </trkpt>
      <trkpt lat="42.088387012481689" lon="1.291247019544244">
        <ele>476.47000000000003</ele>
        <time>2025-05-14T10:19:02Z</time>
      </trkpt>
      <trkpt lat="42.088566971942782" lon="1.291238972917199">
        <ele>477.91000000000003</ele>
        <time>2025-05-14T10:19:03Z</time>
      </trkpt>
      <trkpt lat="42.088742991909385" lon="1.291284989565611">
        <ele>479.35000000000002</ele>
        <time>2025-05-14T10:19:04Z</time>
      </trkpt>
      <trkpt lat="42.08892404101789" lon="1.291332012042403">
        <ele>480.80000000000001</ele>
        <time>2025-05-14T10:19:05Z</time>
      </trkpt>
      <trkpt lat="42.089106012135744" lon="1.291397977620363">
        <ele>482.72000000000003</ele>
        <time>2025-05-14T10:19:06Z</time>
      </trkpt>
      <trkpt lat="42.089271973818541" lon="1.291499985381961">
        <ele>484.63999999999999</ele>
        <time>2025-05-14T10:19:07Z</time>
      </trkpt>
      <trkpt lat="42.089432990178466" lon="1.291598975658417">
        <ele>486.56</ele>
        <time>2025-05-14T10:19:08Z</time>
      </trkpt>
      <trkpt lat="42.090681977570057" lon="1.292139021679759">
        <ele>502.43000000000001</ele>
        <time>2025-05-14T10:19:16Z</time>
      </trkpt>
      <trkpt lat="42.092016963288188" lon="1.29207699559629">
        <ele>517.33000000000004</ele>
        <time>2025-05-14T10:19:24Z</time>
      </trkpt>
      <trkpt lat="42.093477007001638" lon="1.292246980592609">
        <ele>529.34000000000003</ele>
        <time>2025-05-14T10:19:33Z</time>
      </trkpt>
      <trkpt lat="42.095243996009231" lon="1.293083997443318">
        <ele>539.91999999999996</ele>
        <time>2025-05-14T10:19:45Z</time>
      </trkpt>
      <trkpt lat="42.09633800201118" lon="1.293518012389541">
        <ele>543.75999999999999</ele>
        <time>2025-05-14T10:19:51Z</time>
      </trkpt>
      <trkpt lat="42.099567968398333" lon="1.293512983247638">
        <ele>550.49000000000001</ele>
        <time>2025-05-14T10:20:10Z</time>
      </trkpt>
      <trkpt lat="42.099942974746227" lon="1.293594958260655">
        <ele>551.92999999999995</ele>
        <time>2025-05-14T10:20:12Z</time>
      </trkpt>
      <trkpt lat="42.100133998319507" lon="1.293641980737448">
        <ele>552.89999999999998</ele>
        <time>2025-05-14T10:20:13Z</time>
      </trkpt>
      <trkpt lat="42.100326027721167" lon="1.293733008205891">
        <ele>553.86000000000001</ele>
        <time>2025-05-14T10:20:14Z</time>
      </trkpt>
      <trkpt lat="42.10050598718226" lon="1.293844990432262">
        <ele>554.82000000000005</ele>
        <time>2025-05-14T10:20:15Z</time>
      </trkpt>
      <trkpt lat="42.100691981613636" lon="1.293972982093692">
        <ele>555.29999999999995</ele>
        <time>2025-05-14T10:20:16Z</time>
      </trkpt>
      <trkpt lat="42.100852997973561" lon="1.294141039252281">
        <ele>556.25999999999999</ele>
        <time>2025-05-14T10:20:17Z</time>
      </trkpt>
      <trkpt lat="42.101015020161867" lon="1.2943110242486">
        <ele>556.74000000000001</ele>
        <time>2025-05-14T10:20:18Z</time>
      </trkpt>
      <trkpt lat="42.101163966581225" lon="1.294504981487989">
        <ele>557.22000000000003</ele>
        <time>2025-05-14T10:20:19Z</time>
      </trkpt>
      <trkpt lat="42.10130101069808" lon="1.294715031981468">
        <ele>557.70000000000005</ele>
        <time>2025-05-14T10:20:20Z</time>
      </trkpt>
      <trkpt lat="42.101420033723116" lon="1.294946037232876">
        <ele>558.65999999999997</ele>
        <time>2025-05-14T10:20:21Z</time>
      </trkpt>
      <trkpt lat="42.10151600651443" lon="1.295187016949058">
        <ele>558.65999999999997</ele>
        <time>2025-05-14T10:20:22Z</time>
      </trkpt>
      <trkpt lat="42.101616002619267" lon="1.295435959473252">
        <ele>559.13999999999999</ele>
        <time>2025-05-14T10:20:23Z</time>
      </trkpt>
      <trkpt lat="42.101704012602568" lon="1.295684985816479">
        <ele>559.13999999999999</ele>
        <time>2025-05-14T10:20:24Z</time>
      </trkpt>
      <trkpt lat="42.102126041427255" lon="1.296878987923265">
        <ele>561.07000000000005</ele>
        <time>2025-05-14T10:20:29Z</time>
      </trkpt>
      <trkpt lat="42.102228971198201" lon="1.297114016488195">
        <ele>561.54999999999995</ele>
        <time>2025-05-14T10:20:30Z</time>
      </trkpt>
      <trkpt lat="42.102356962859631" lon="1.297329012304544">
        <ele>562.02999999999997</ele>
        <time>2025-05-14T10:20:31Z</time>
      </trkpt>
      <trkpt lat="42.103319959715009" lon="1.2982879858464">
        <ele>562.50999999999999</ele>
        <time>2025-05-14T10:20:37Z</time>
      </trkpt>
      <trkpt lat="42.104515973478556" lon="1.298692999407649">
        <ele>559.62</ele>
        <time>2025-05-14T10:20:43Z</time>
      </trkpt>
      <trkpt lat="42.1066739782691" lon="1.29923103377223">
        <ele>550.97000000000003</ele>
        <time>2025-05-14T10:20:54Z</time>
      </trkpt>
      <trkpt lat="42.109388960525393" lon="1.300101997330785">
        <ele>543.75999999999999</ele>
        <time>2025-05-14T10:21:07Z</time>
      </trkpt>
      <trkpt lat="42.111584013327956" lon="1.301003973931074">
        <ele>544.72000000000003</ele>
        <time>2025-05-14T10:21:17Z</time>
      </trkpt>
      <trkpt lat="42.113647973164916" lon="1.302023967728019">
        <ele>545.20000000000005</ele>
        <time>2025-05-14T10:21:27Z</time>
      </trkpt>
      <trkpt lat="42.115744035691023" lon="1.303532961755991">
        <ele>548.57000000000005</ele>
        <time>2025-05-14T10:21:38Z</time>
      </trkpt>
      <trkpt lat="42.11715797893703" lon="1.303804032504559">
        <ele>550.00999999999999</ele>
        <time>2025-05-14T10:21:45Z</time>
      </trkpt>
      <trkpt lat="42.122359033674002" lon="1.303965970873833">
        <ele>554.34000000000003</ele>
        <time>2025-05-14T10:22:12Z</time>
      </trkpt>
      <trkpt lat="42.124427016824484" lon="1.304266965016723">
        <ele>554.34000000000003</ele>
        <time>2025-05-14T10:22:22Z</time>
      </trkpt>
      <trkpt lat="42.126016980037093" lon="1.304827965795994">
        <ele>555.29999999999995</ele>
        <time>2025-05-14T10:22:31Z</time>
      </trkpt>
      <trkpt lat="42.12660999968648" lon="1.305057965219021">
        <ele>556.25999999999999</ele>
        <time>2025-05-14T10:22:35Z</time>
      </trkpt>
      <trkpt lat="42.126773027703166" lon="1.305123008787632">
        <ele>556.74000000000001</ele>
        <time>2025-05-14T10:22:36Z</time>
      </trkpt>
      <trkpt lat="42.127115009352565" lon="1.305259969085455">
        <ele>557.22000000000003</ele>
        <time>2025-05-14T10:22:38Z</time>
      </trkpt>
      <trkpt lat="42.132063014432788" lon="1.309368023648858">
        <ele>557.22000000000003</ele>
        <time>2025-05-14T10:23:09Z</time>
      </trkpt>
      <trkpt lat="42.132977982982993" lon="1.309687960892916">
        <ele>557.22000000000003</ele>
        <time>2025-05-14T10:23:14Z</time>
      </trkpt>
      <trkpt lat="42.133746016770601" lon="1.309771025553346">
        <ele>520.69000000000005</ele>
        <time>2025-05-14T10:23:24Z</time>
      </trkpt>
      <trkpt lat="42.135503031313419" lon="1.309554018080235">
        <ele>533.66999999999996</ele>
        <time>2025-05-14T10:23:35Z</time>
      </trkpt>
      <trkpt lat="42.135682990774512" lon="1.309512024745345">
        <ele>534.63</ele>
        <time>2025-05-14T10:23:36Z</time>
      </trkpt>
      <trkpt lat="42.136009968817234" lon="1.309427032247186">
        <ele>535.59000000000003</ele>
        <time>2025-05-14T10:23:38Z</time>
      </trkpt>
      <trkpt lat="42.141498019918799" lon="1.308000013232231">
        <ele>535.59000000000003</ele>
        <time>2025-05-14T10:24:09Z</time>
      </trkpt>
      <trkpt lat="42.145069967955351" lon="1.307175988331437">
        <ele>550.49000000000001</ele>
        <time>2025-05-14T10:24:30Z</time>
      </trkpt>
      <trkpt lat="42.14869799092412" lon="1.30700902082026">
        <ele>562.50999999999999</ele>
        <time>2025-05-14T10:24:52Z</time>
      </trkpt>
      <trkpt lat="42.150467997416854" lon="1.307279001921415">
        <ele>575.00999999999999</ele>
        <time>2025-05-14T10:25:03Z</time>
      </trkpt>
      <trkpt lat="42.152258958667517" lon="1.308111995458603">
        <ele>582.70000000000005</ele>
        <time>2025-05-14T10:25:13Z</time>
      </trkpt>
      <trkpt lat="42.153852023184299" lon="1.309486962854862">
        <ele>587.5</ele>
        <time>2025-05-14T10:25:22Z</time>
      </trkpt>
      <trkpt lat="42.155926041305065" lon="1.311339028179646">
        <ele>585.10000000000002</ele>
        <time>2025-05-14T10:25:34Z</time>
      </trkpt>
      <trkpt lat="42.158326031640172" lon="1.312758000567555">
        <ele>575.49000000000001</ele>
        <time>2025-05-14T10:25:46Z</time>
      </trkpt>
      <trkpt lat="42.161494977772236" lon="1.314462963491678">
        <ele>552.89999999999998</ele>
        <time>2025-05-14T10:26:02Z</time>
      </trkpt>
      <trkpt lat="42.165045971050858" lon="1.316370014101267">
        <ele>547.13</ele>
        <time>2025-05-14T10:26:20Z</time>
      </trkpt>
      <trkpt lat="42.166731990873814" lon="1.316910982131958">
        <ele>545.20000000000005</ele>
        <time>2025-05-14T10:26:29Z</time>
      </trkpt>
      <trkpt lat="42.168540973216295" lon="1.31741096265614">
        <ele>547.61000000000001</ele>
        <time>2025-05-14T10:26:39Z</time>
      </trkpt>
      <trkpt lat="42.169864978641272" lon="1.31846004165709">
        <ele>549.52999999999997</ele>
        <time>2025-05-14T10:26:48Z</time>
      </trkpt>
      <trkpt lat="42.17151596210897" lon="1.319774994626641">
        <ele>549.04999999999995</ele>
        <time>2025-05-14T10:27:01Z</time>
      </trkpt>
      <trkpt lat="42.172233033925295" lon="1.320337001234293">
        <ele>548.09000000000003</ele>
        <time>2025-05-14T10:27:10Z</time>
      </trkpt>
      <trkpt lat="42.172455992549658" lon="1.320512015372515">
        <ele>545.20000000000005</ele>
        <time>2025-05-14T10:27:18Z</time>
      </trkpt>
      <trkpt lat="42.17250200919807" lon="1.320547973737121">
        <ele>544.72000000000003</ele>
        <time>2025-05-14T10:27:36Z</time>
      </trkpt>
      <trkpt lat="42.172536039724946" lon="1.320558032020927">
        <ele>544.24000000000001</ele>
        <time>2025-05-14T10:27:39Z</time>
      </trkpt>
      <trkpt lat="42.17256504110992" lon="1.32056700065732">
        <ele>544.24000000000001</ele>
        <time>2025-05-14T10:27:40Z</time>
      </trkpt>
      <trkpt lat="42.172593958675861" lon="1.320575969293714">
        <ele>544.24000000000001</ele>
        <time>2025-05-14T10:27:41Z</time>
      </trkpt>
      <trkpt lat="42.172621032223105" lon="1.320584015920758">
        <ele>544.24000000000001</ele>
        <time>2025-05-14T10:27:42Z</time>
      </trkpt>
      <trkpt lat="42.172642992809415" lon="1.320590972900391">
        <ele>544.72000000000003</ele>
        <time>2025-05-14T10:27:43Z</time>
      </trkpt>
      <trkpt lat="42.172664031386375" lon="1.320597007870674">
        <ele>545.20000000000005</ele>
        <time>2025-05-14T10:27:44Z</time>
      </trkpt>
      <trkpt lat="42.172698983922601" lon="1.320606982335448">
        <ele>545.69000000000005</ele>
        <time>2025-05-14T10:27:57Z</time>
      </trkpt>
      <trkpt lat="42.1728890016675" lon="1.320663979277015">
        <ele>547.13</ele>
        <time>2025-05-14T10:28:04Z</time>
      </trkpt>
      <trkpt lat="42.173064015805721" lon="1.320676971226931">
        <ele>546.16999999999996</ele>
        <time>2025-05-14T10:28:16Z</time>
      </trkpt>
      <trkpt lat="42.173153031617403" lon="1.320674037560821">
        <ele>546.16999999999996</ele>
        <time>2025-05-14T10:28:17Z</time>
      </trkpt>
      <trkpt lat="42.173251016065478" lon="1.320668002590537">
        <ele>545.69000000000005</ele>
        <time>2025-05-14T10:28:18Z</time>
      </trkpt>
      <trkpt lat="42.174202026799321" lon="1.320498017594218">
        <ele>542.79999999999995</ele>
        <time>2025-05-14T10:28:25Z</time>
      </trkpt>
      <trkpt lat="42.174894958734512" lon="1.32026500068605">
        <ele>539.44000000000005</ele>
        <time>2025-05-14T10:28:30Z</time>
      </trkpt>
      <trkpt lat="42.175011970102787" lon="1.320183025673032">
        <ele>538.96000000000004</ele>
        <time>2025-05-14T10:28:31Z</time>
      </trkpt>
      <trkpt lat="42.175113977864385" lon="1.320059979334474">
        <ele>538.48000000000002</ele>
        <time>2025-05-14T10:28:32Z</time>
      </trkpt>
      <trkpt lat="42.175207016989589" lon="1.319935005158186">
        <ele>537.99000000000001</ele>
        <time>2025-05-14T10:28:33Z</time>
      </trkpt>
      <trkpt lat="42.17529603280127" lon="1.319783041253686">
        <ele>537.50999999999999</ele>
        <time>2025-05-14T10:28:34Z</time>
      </trkpt>
      <trkpt lat="42.175369961187243" lon="1.319619007408619">
        <ele>537.02999999999997</ele>
        <time>2025-05-14T10:28:35Z</time>
      </trkpt>
      <trkpt lat="42.1754049975425" lon="1.319434018805623">
        <ele>536.07000000000005</ele>
        <time>2025-05-14T10:28:36Z</time>
      </trkpt>
      <trkpt lat="42.175439028069377" lon="1.319231009110808">
        <ele>535.59000000000003</ele>
        <time>2025-05-14T10:28:37Z</time>
      </trkpt>
      <trkpt lat="42.175472974777222" lon="1.319025987759233">
        <ele>535.59000000000003</ele>
        <time>2025-05-14T10:28:38Z</time>
      </trkpt>
      <trkpt lat="42.175508011132479" lon="1.318817026913166">
        <ele>535.11000000000001</ele>
        <time>2025-05-14T10:28:39Z</time>
      </trkpt>
      <trkpt lat="42.175642037764192" lon="1.318188970908523">
        <ele>535.11000000000001</ele>
        <time>2025-05-14T10:28:42Z</time>
      </trkpt>
      <trkpt lat="42.175703980028629" lon="1.31798998452723">
        <ele>535.11000000000001</ele>
        <time>2025-05-14T10:28:43Z</time>
      </trkpt>
      <trkpt lat="42.175800958648324" lon="1.317818993702531">
        <ele>535.11000000000001</ele>
        <time>2025-05-14T10:28:44Z</time>
      </trkpt>
      <trkpt lat="42.175907995551825" lon="1.317659988999367">
        <ele>535.11000000000001</ele>
        <time>2025-05-14T10:28:45Z</time>
      </trkpt>
      <trkpt lat="42.176043028011918" lon="1.317538032308221">
        <ele>535.11000000000001</ele>
        <time>2025-05-14T10:28:46Z</time>
      </trkpt>
      <trkpt lat="42.176187029108405" lon="1.317425966262817">
        <ele>535.11000000000001</ele>
        <time>2025-05-14T10:28:47Z</time>
      </trkpt>
      <trkpt lat="42.176342010498047" lon="1.317323036491871">
        <ele>535.11000000000001</ele>
        <time>2025-05-14T10:28:48Z</time>
      </trkpt>
      <trkpt lat="42.177672972902656" lon="1.316690035164356">
        <ele>533.66999999999996</ele>
        <time>2025-05-14T10:28:57Z</time>
      </trkpt>
      <trkpt lat="42.177815968170762" lon="1.316644018515945">
        <ele>533.19000000000005</ele>
        <time>2025-05-14T10:28:58Z</time>
      </trkpt>
      <trkpt lat="42.177959969267249" lon="1.31663303822279">
        <ele>533.19000000000005</ele>
        <time>2025-05-14T10:28:59Z</time>
      </trkpt>
      <trkpt lat="42.17811000533402" lon="1.316658016294241">
        <ele>533.19000000000005</ele>
        <time>2025-05-14T10:29:00Z</time>
      </trkpt>
      <trkpt lat="42.178274039179087" lon="1.316686011850834">
        <ele>533.19000000000005</ele>
        <time>2025-05-14T10:29:01Z</time>
      </trkpt>
      <trkpt lat="42.178405970335007" lon="1.316747032105923">
        <ele>533.19000000000005</ele>
        <time>2025-05-14T10:29:02Z</time>
      </trkpt>
      <trkpt lat="42.178555000573397" lon="1.316817020997405">
        <ele>533.19000000000005</ele>
        <time>2025-05-14T10:29:03Z</time>
      </trkpt>
      <trkpt lat="42.178696990013123" lon="1.316930009052157">
        <ele>533.66999999999996</ele>
        <time>2025-05-14T10:29:04Z</time>
      </trkpt>
      <trkpt lat="42.178835039958358" lon="1.317059006541967">
        <ele>533.66999999999996</ele>
        <time>2025-05-14T10:29:05Z</time>
      </trkpt>
      <trkpt lat="42.178954984992743" lon="1.317220022901893">
        <ele>534.14999999999998</ele>
        <time>2025-05-14T10:29:06Z</time>
      </trkpt>
      <trkpt lat="42.179044000804424" lon="1.317418003454804">
        <ele>534.14999999999998</ele>
        <time>2025-05-14T10:29:07Z</time>
      </trkpt>
      <trkpt lat="42.179134022444487" lon="1.31762302480638">
        <ele>534.14999999999998</ele>
        <time>2025-05-14T10:29:08Z</time>
      </trkpt>
      <trkpt lat="42.179215997457504" lon="1.317826034501195">
        <ele>534.14999999999998</ele>
        <time>2025-05-14T10:29:09Z</time>
      </trkpt>
      <trkpt lat="42.179824020713568" lon="1.319308960810304">
        <ele>535.11000000000001</ele>
        <time>2025-05-14T10:29:17Z</time>
      </trkpt>
      <trkpt lat="42.180549977347255" lon="1.321422038599849">
        <ele>535.11000000000001</ele>
        <time>2025-05-14T10:29:27Z</time>
      </trkpt>
      <trkpt lat="42.181009976193309" lon="1.323589012026787">
        <ele>533.19000000000005</ele>
        <time>2025-05-14T10:29:36Z</time>
      </trkpt>
      <trkpt lat="42.181307030841708" lon="1.324678994715214">
        <ele>533.66999999999996</ele>
        <time>2025-05-14T10:29:41Z</time>
      </trkpt>
      <trkpt lat="42.181367967277765" lon="1.324892984703183">
        <ele>533.66999999999996</ele>
        <time>2025-05-14T10:29:42Z</time>
      </trkpt>
      <trkpt lat="42.182411011308432" lon="1.326583027839661">
        <ele>534.63</ele>
        <time>2025-05-14T10:29:52Z</time>
      </trkpt>
      <trkpt lat="42.183616999536753" lon="1.327669993042946">
        <ele>535.11000000000001</ele>
        <time>2025-05-14T10:30:01Z</time>
      </trkpt>
      <trkpt lat="42.184731960296631" lon="1.328799035400152">
        <ele>534.63</ele>
        <time>2025-05-14T10:30:10Z</time>
      </trkpt>
      <trkpt lat="42.186173982918262" lon="1.330306017771363">
        <ele>536.54999999999995</ele>
        <time>2025-05-14T10:30:21Z</time>
      </trkpt>
      <trkpt lat="42.187278969213367" lon="1.330996016040444">
        <ele>537.99000000000001</ele>
        <time>2025-05-14T10:30:28Z</time>
      </trkpt>
      <trkpt lat="42.188393007963896" lon="1.331319976598024">
        <ele>539.91999999999996</ele>
        <time>2025-05-14T10:30:35Z</time>
      </trkpt>
      <trkpt lat="42.188529968261719" lon="1.331319976598024">
        <ele>539.91999999999996</ele>
        <time>2025-05-14T10:30:36Z</time>
      </trkpt>
      <trkpt lat="42.188697019591928" lon="1.331275971606374">
        <ele>540.39999999999998</ele>
        <time>2025-05-14T10:30:37Z</time>
      </trkpt>
      <trkpt lat="42.188848983496428" lon="1.331235989928246">
        <ele>540.39999999999998</ele>
        <time>2025-05-14T10:30:38Z</time>
      </trkpt>
      <trkpt lat="42.188986027613282" lon="1.331168012693524">
        <ele>540.88</ele>
        <time>2025-05-14T10:30:39Z</time>
      </trkpt>
      <trkpt lat="42.189116030931473" lon="1.331045972183347">
        <ele>540.88</ele>
        <time>2025-05-14T10:30:40Z</time>
      </trkpt>
      <trkpt lat="42.189244022592902" lon="1.330926027148962">
        <ele>541.36000000000001</ele>
        <time>2025-05-14T10:30:41Z</time>
      </trkpt>
      <trkpt lat="42.189374025911093" lon="1.330813961103559">
        <ele>541.36000000000001</ele>
        <time>2025-05-14T10:30:42Z</time>
      </trkpt>
      <trkpt lat="42.190237026661634" lon="1.329975016415119">
        <ele>545.20000000000005</ele>
        <time>2025-05-14T10:30:49Z</time>
      </trkpt>
      <trkpt lat="42.190382033586502" lon="1.329911984503269">
        <ele>545.69000000000005</ele>
        <time>2025-05-14T10:30:50Z</time>
      </trkpt>
      <trkpt lat="42.190537014976144" lon="1.329881977289915">
        <ele>546.16999999999996</ele>
        <time>2025-05-14T10:30:51Z</time>
      </trkpt>
      <trkpt lat="42.190696019679308" lon="1.329851970076561">
        <ele>547.13</ele>
        <time>2025-05-14T10:30:52Z</time>
      </trkpt>
      <trkpt lat="42.190856030210853" lon="1.329878037795425">
        <ele>547.61000000000001</ele>
        <time>2025-05-14T10:30:53Z</time>
      </trkpt>
      <trkpt lat="42.191011011600494" lon="1.329941991716623">
        <ele>549.04999999999995</ele>
        <time>2025-05-14T10:30:54Z</time>
      </trkpt>
      <trkpt lat="42.191164987161756" lon="1.330013992264867">
        <ele>549.52999999999997</ele>
        <time>2025-05-14T10:30:55Z</time>
      </trkpt>
      <trkpt lat="42.191319968551397" lon="1.330113988369703">
        <ele>550.00999999999999</ele>
        <time>2025-05-14T10:30:56Z</time>
      </trkpt>
      <trkpt lat="42.191480984911323" lon="1.330219013616443">
        <ele>550.49000000000001</ele>
        <time>2025-05-14T10:30:57Z</time>
      </trkpt>
      <trkpt lat="42.191979037597775" lon="1.330529982224107">
        <ele>550.49000000000001</ele>
        <time>2025-05-14T10:31:00Z</time>
      </trkpt>
      <trkpt lat="42.192146005108953" lon="1.330568036064506">
        <ele>550.00999999999999</ele>
        <time>2025-05-14T10:31:01Z</time>
      </trkpt>
      <trkpt lat="42.192314984276891" lon="1.330593014135957">
        <ele>549.52999999999997</ele>
        <time>2025-05-14T10:31:02Z</time>
      </trkpt>
      <trkpt lat="42.19248496927321" lon="1.330617992207408">
        <ele>549.04999999999995</ele>
        <time>2025-05-14T10:31:03Z</time>
      </trkpt>
      <trkpt lat="42.19265696592629" lon="1.330611035227776">
        <ele>548.57000000000005</ele>
        <time>2025-05-14T10:31:04Z</time>
      </trkpt>
      <trkpt lat="42.192836003378034" lon="1.330554038286209">
        <ele>548.57000000000005</ele>
        <time>2025-05-14T10:31:05Z</time>
      </trkpt>
      <trkpt lat="42.193012023344636" lon="1.330497963353992">
        <ele>548.09000000000003</ele>
        <time>2025-05-14T10:31:06Z</time>
      </trkpt>
      <trkpt lat="42.193179996684194" lon="1.330413976684213">
        <ele>548.09000000000003</ele>
        <time>2025-05-14T10:31:07Z</time>
      </trkpt>
      <trkpt lat="42.1946129668504" lon="1.32946103811264">
        <ele>545.20000000000005</ele>
        <time>2025-05-14T10:31:15Z</time>
      </trkpt>
      <trkpt lat="42.196049960330129" lon="1.328449007123709">
        <ele>540.39999999999998</ele>
        <time>2025-05-14T10:31:22Z</time>
      </trkpt>
      <trkpt lat="42.197406990453601" lon="1.327745011076331">
        <ele>537.50999999999999</ele>
        <time>2025-05-14T10:31:28Z</time>
      </trkpt>
      <trkpt lat="42.198681961745024" lon="1.327380985021591">
        <ele>537.99000000000001</ele>
        <time>2025-05-14T10:31:34Z</time>
      </trkpt>
      <trkpt lat="42.200700994580984" lon="1.327318958938122">
        <ele>541.84000000000003</ele>
        <time>2025-05-14T10:31:44Z</time>
      </trkpt>
      <trkpt lat="42.202901998534799" lon="1.327509982511401">
        <ele>547.61000000000001</ele>
        <time>2025-05-14T10:31:55Z</time>
      </trkpt>
      <trkpt lat="42.204889012500644" lon="1.327782981097698">
        <ele>552.40999999999997</ele>
        <time>2025-05-14T10:32:06Z</time>
      </trkpt>
      <trkpt lat="42.205856032669544" lon="1.327826986089349">
        <ele>554.34000000000003</ele>
        <time>2025-05-14T10:32:12Z</time>
      </trkpt>
      <trkpt lat="42.205993998795748" lon="1.327773006632924">
        <ele>554.82000000000005</ele>
        <time>2025-05-14T10:32:13Z</time>
      </trkpt>
      <trkpt lat="42.206125007942319" lon="1.327709974721074">
        <ele>554.82000000000005</ele>
        <time>2025-05-14T10:32:14Z</time>
      </trkpt>
      <trkpt lat="42.206249982118607" lon="1.327650966122747">
        <ele>554.82000000000005</ele>
        <time>2025-05-14T10:32:15Z</time>
      </trkpt>
      <trkpt lat="42.206367999315262" lon="1.327582988888025">
        <ele>555.29999999999995</ele>
        <time>2025-05-14T10:32:16Z</time>
      </trkpt>
      <trkpt lat="42.206476964056492" lon="1.327486010268331">
        <ele>555.77999999999997</ele>
        <time>2025-05-14T10:32:17Z</time>
      </trkpt>
      <trkpt lat="42.206899998709559" lon="1.327109998092055">
        <ele>556.74000000000001</ele>
        <time>2025-05-14T10:32:21Z</time>
      </trkpt>
      <trkpt lat="42.207019021734595" lon="1.327046966180205">
        <ele>556.74000000000001</ele>
        <time>2025-05-14T10:32:22Z</time>
      </trkpt>
      <trkpt lat="42.207137038931251" lon="1.3269919808954">
        <ele>557.22000000000003</ele>
        <time>2025-05-14T10:32:23Z</time>
      </trkpt>
      <trkpt lat="42.207258995622396" lon="1.326959962025285">
        <ele>558.17999999999995</ele>
        <time>2025-05-14T10:32:24Z</time>
      </trkpt>
      <trkpt lat="42.207381036132574" lon="1.326953005045652">
        <ele>558.65999999999997</ele>
        <time>2025-05-14T10:32:25Z</time>
      </trkpt>
      <trkpt lat="42.207497041672468" lon="1.326944958418608">
        <ele>559.62</ele>
        <time>2025-05-14T10:32:26Z</time>
      </trkpt>
      <trkpt lat="42.207607012242079" lon="1.326939007267356">
        <ele>560.11000000000001</ele>
        <time>2025-05-14T10:32:27Z</time>
      </trkpt>
      <trkpt lat="42.207922004163265" lon="1.326924003660679">
        <ele>562.50999999999999</ele>
        <time>2025-05-14T10:32:30Z</time>
      </trkpt>
      <trkpt lat="42.208014959469438" lon="1.326907994225621">
        <ele>562.99000000000001</ele>
        <time>2025-05-14T10:32:31Z</time>
      </trkpt>
      <trkpt lat="42.208100035786629" lon="1.326860971748829">
        <ele>563.47000000000003</ele>
        <time>2025-05-14T10:32:32Z</time>
      </trkpt>
      <trkpt lat="42.208181004971266" lon="1.326815960928798">
        <ele>563.95000000000005</ele>
        <time>2025-05-14T10:32:33Z</time>
      </trkpt>
      <trkpt lat="42.208261974155903" lon="1.326771033927798">
        <ele>563.95000000000005</ele>
        <time>2025-05-14T10:32:34Z</time>
      </trkpt>
      <trkpt lat="42.209260007366538" lon="1.326180025935173">
        <ele>565.87</ele>
        <time>2025-05-14T10:32:45Z</time>
      </trkpt>
      <trkpt lat="42.209456982091069" lon="1.32613199763">
        <ele>565.87</ele>
        <time>2025-05-14T10:32:47Z</time>
      </trkpt>
      <trkpt lat="42.209553038701415" lon="1.32611196488142">
        <ele>565.87</ele>
        <time>2025-05-14T10:32:48Z</time>
      </trkpt>
      <trkpt lat="42.209654962643981" lon="1.326126968488097">
        <ele>566.35000000000002</ele>
        <time>2025-05-14T10:32:49Z</time>
      </trkpt>
      <trkpt lat="42.209750013425946" lon="1.326155969873071">
        <ele>566.35000000000002</ele>
        <time>2025-05-14T10:32:50Z</time>
      </trkpt>
      <trkpt lat="42.209841040894389" lon="1.326193017885089">
        <ele>566.83000000000004</ele>
        <time>2025-05-14T10:32:51Z</time>
      </trkpt>
      <trkpt lat="42.209927961230278" lon="1.326248003169894">
        <ele>567.32000000000005</ele>
        <time>2025-05-14T10:32:52Z</time>
      </trkpt>
      <trkpt lat="42.210012031719089" lon="1.326301982626319">
        <ele>567.32000000000005</ele>
        <time>2025-05-14T10:32:53Z</time>
      </trkpt>
      <trkpt lat="42.210087971761823" lon="1.326359985396266">
        <ele>567.79999999999995</ele>
        <time>2025-05-14T10:32:54Z</time>
      </trkpt>
      <trkpt lat="42.210149997845292" lon="1.326443972066045">
        <ele>567.79999999999995</ele>
        <time>2025-05-14T10:32:55Z</time>
      </trkpt>
      <trkpt lat="42.210212023928761" lon="1.326527958735824">
        <ele>568.27999999999997</ele>
        <time>2025-05-14T10:32:56Z</time>
      </trkpt>
      <trkpt lat="42.210958013311028" lon="1.327467989176512">
        <ele>570.20000000000005</ele>
        <time>2025-05-14T10:33:08Z</time>
      </trkpt>
      <trkpt lat="42.211522031575441" lon="1.328137032687664">
        <ele>572.12</ele>
        <time>2025-05-14T10:33:18Z</time>
      </trkpt>
      <trkpt lat="42.211543992161751" lon="1.32821599021554">
        <ele>571.63999999999999</ele>
        <time>2025-05-14T10:33:19Z</time>
      </trkpt>
      <trkpt lat="42.211554972454906" lon="1.328251026570797">
        <ele>571.63999999999999</ele>
        <time>2025-05-14T10:33:20Z</time>
      </trkpt>
      <trkpt lat="42.211544997990131" lon="1.328354962170124">
        <ele>571.63999999999999</ele>
        <time>2025-05-14T10:33:21Z</time>
      </trkpt>
      <trkpt lat="42.211537035182118" lon="1.328440960496664">
        <ele>571.63999999999999</ele>
        <time>2025-05-14T10:33:22Z</time>
      </trkpt>
      <trkpt lat="42.211523037403822" lon="1.328530982136726">
        <ele>571.63999999999999</ele>
        <time>2025-05-14T10:33:23Z</time>
      </trkpt>
      <trkpt lat="42.211425974965096" lon="1.329044038429856">
        <ele>570.67999999999995</ele>
        <time>2025-05-14T10:33:28Z</time>
      </trkpt>
      <trkpt lat="42.211425974965096" lon="1.329254005104303">
        <ele>571.15999999999997</ele>
        <time>2025-05-14T10:33:30Z</time>
      </trkpt>
      <trkpt lat="42.211466962471604" lon="1.329363975673914">
        <ele>571.63999999999999</ele>
        <time>2025-05-14T10:33:31Z</time>
      </trkpt>
      <trkpt lat="42.211513984948397" lon="1.329457014799118">
        <ele>571.63999999999999</ele>
        <time>2025-05-14T10:33:32Z</time>
      </trkpt>
      <trkpt lat="42.211570981889963" lon="1.329538989812136">
        <ele>571.15999999999997</ele>
        <time>2025-05-14T10:33:33Z</time>
      </trkpt>
      <trkpt lat="42.211629990488291" lon="1.329605039209127">
        <ele>571.15999999999997</ele>
        <time>2025-05-14T10:33:34Z</time>
      </trkpt>
      <trkpt lat="42.211688999086618" lon="1.329672010615468">
        <ele>571.15999999999997</ele>
        <time>2025-05-14T10:33:35Z</time>
      </trkpt>
      <trkpt lat="42.211743984371424" lon="1.329734958708286">
        <ele>570.67999999999995</ele>
        <time>2025-05-14T10:33:36Z</time>
      </trkpt>
      <trkpt lat="42.211831994354725" lon="1.329835038632155">
        <ele>570.20000000000005</ele>
        <time>2025-05-14T10:33:38Z</time>
      </trkpt>
      <trkpt lat="42.211868036538363" lon="1.329875020310283">
        <ele>569.72000000000003</ele>
        <time>2025-05-14T10:33:39Z</time>
      </trkpt>
      <trkpt lat="42.211989993229508" lon="1.330014998093247">
        <ele>568.75999999999999</ele>
        <time>2025-05-14T10:33:42Z</time>
      </trkpt>
      <trkpt lat="42.212009020149708" lon="1.330056991428137">
        <ele>568.27999999999997</ele>
        <time>2025-05-14T10:33:43Z</time>
      </trkpt>
      <trkpt lat="42.21201597712934" lon="1.33010602556169">
        <ele>567.79999999999995</ele>
        <time>2025-05-14T10:33:44Z</time>
      </trkpt>
      <trkpt lat="42.212021006271243" lon="1.330146007239819">
        <ele>566.83000000000004</ele>
        <time>2025-05-14T10:33:45Z</time>
      </trkpt>
      <trkpt lat="42.212025029584765" lon="1.330174002796412">
        <ele>566.83000000000004</ele>
        <time>2025-05-14T10:33:46Z</time>
      </trkpt>
      <trkpt lat="42.21203600987792" lon="1.330195041373372">
        <ele>565.38999999999999</ele>
        <time>2025-05-14T10:33:59Z</time>
      </trkpt>
      <trkpt lat="42.21203600987792" lon="1.330195041373372">
        <ele>565.38999999999999</ele>
        <time>2025-05-14T10:34:43Z</time>
      </trkpt>
      <trkpt lat="42.212217980995774" lon="1.330340970307589">
        <ele>555.29999999999995</ele>
        <time>2025-05-14T10:38:05Z</time>
      </trkpt>
      <trkpt lat="42.212076997384429" lon="1.330198980867863">
        <ele>536.54999999999995</ele>
        <time>2025-05-14T10:38:49Z</time>
      </trkpt>
      <trkpt lat="42.212068028748035" lon="1.330184983089566">
        <ele>540.39999999999998</ele>
        <time>2025-05-14T10:39:24Z</time>
      </trkpt>
      <trkpt lat="42.212073979899287" lon="1.330246003344655">
        <ele>540.88</ele>
        <time>2025-05-14T10:39:26Z</time>
      </trkpt>
      <trkpt lat="42.212112033739686" lon="1.330270981416106">
        <ele>542.79999999999995</ele>
        <time>2025-05-14T10:39:27Z</time>
      </trkpt>
      <trkpt lat="42.21214103512466" lon="1.330275004729629">
        <ele>544.24000000000001</ele>
        <time>2025-05-14T10:39:28Z</time>
      </trkpt>
      <trkpt lat="42.21216500736773" lon="1.330279028043151">
        <ele>546.16999999999996</ele>
        <time>2025-05-14T10:39:29Z</time>
      </trkpt>
      <trkpt lat="42.21223097294569" lon="1.330287996679544">
        <ele>550.97000000000003</ele>
        <time>2025-05-14T10:39:33Z</time>
      </trkpt>
      <trkpt lat="42.212281012907624" lon="1.330338036641479">
        <ele>551.45000000000005</ele>
        <time>2025-05-14T10:39:34Z</time>
      </trkpt>
      <trkpt lat="42.212343038991094" lon="1.330413976684213">
        <ele>551.45000000000005</ele>
        <time>2025-05-14T10:39:35Z</time>
      </trkpt>
      <trkpt lat="42.212403975427151" lon="1.330487988889217">
        <ele>551.45000000000005</ele>
        <time>2025-05-14T10:39:36Z</time>
      </trkpt>
      <trkpt lat="42.212403975427151" lon="1.330487988889217">
        <ele>551.45000000000005</ele>
        <time>2025-05-14T10:39:37Z</time>
      </trkpt>
      <trkpt lat="42.212510006502271" lon="1.330615980550647">
        <ele>551.45000000000005</ele>
        <time>2025-05-14T10:39:38Z</time>
      </trkpt>
      <trkpt lat="42.21272399649024" lon="1.330925021320581">
        <ele>550.00999999999999</ele>
        <time>2025-05-14T10:39:45Z</time>
      </trkpt>
      <trkpt lat="42.212801026180387" lon="1.331039015203714">
        <ele>550.00999999999999</ele>
        <time>2025-05-14T10:39:47Z</time>
      </trkpt>
      <trkpt lat="42.212834972888231" lon="1.331088971346617">
        <ele>550.00999999999999</ele>
        <time>2025-05-14T10:39:48Z</time>
      </trkpt>
      <trkpt lat="42.212872020900249" lon="1.331144040450454">
        <ele>549.52999999999997</ele>
        <time>2025-05-14T10:39:49Z</time>
      </trkpt>
      <trkpt lat="42.212977968156338" lon="1.331302039325237">
        <ele>548.57000000000005</ele>
        <time>2025-05-14T10:39:51Z</time>
      </trkpt>
      <trkpt lat="42.213041000068188" lon="1.331393988803029">
        <ele>548.09000000000003</ele>
        <time>2025-05-14T10:39:52Z</time>
      </trkpt>
      <trkpt lat="42.213773997500539" lon="1.332452036440373">
        <ele>543.75999999999999</ele>
        <time>2025-05-14T10:40:01Z</time>
      </trkpt>
      <trkpt lat="42.213910035789013" lon="1.332567036151886">
        <ele>543.75999999999999</ele>
        <time>2025-05-14T10:40:02Z</time>
      </trkpt>
      <trkpt lat="42.214052025228739" lon="1.332657979801297">
        <ele>543.75999999999999</ele>
        <time>2025-05-14T10:40:03Z</time>
      </trkpt>
      <trkpt lat="42.214200971648097" lon="1.332754036411643">
        <ele>543.75999999999999</ele>
        <time>2025-05-14T10:40:04Z</time>
      </trkpt>
      <trkpt lat="42.21435503102839" lon="1.332852020859718">
        <ele>543.75999999999999</ele>
        <time>2025-05-14T10:40:05Z</time>
      </trkpt>
      <trkpt lat="42.214523004367948" lon="1.332922009751201">
        <ele>543.75999999999999</ele>
        <time>2025-05-14T10:40:06Z</time>
      </trkpt>
      <trkpt lat="42.21470003016293" lon="1.332976995036006">
        <ele>544.24000000000001</ele>
        <time>2025-05-14T10:40:07Z</time>
      </trkpt>
      <trkpt lat="42.214888036251068" lon="1.332994010299444">
        <ele>544.24000000000001</ele>
        <time>2025-05-14T10:40:08Z</time>
      </trkpt>
      <trkpt lat="42.215079981833696" lon="1.332985041663051">
        <ele>544.24000000000001</ele>
        <time>2025-05-14T10:40:09Z</time>
      </trkpt>
      <trkpt lat="42.215277962386608" lon="1.33294397033751">
        <ele>544.24000000000001</ele>
        <time>2025-05-14T10:40:10Z</time>
      </trkpt>
      <trkpt lat="42.215476026758552" lon="1.332884961739183">
        <ele>544.72000000000003</ele>
        <time>2025-05-14T10:40:11Z</time>
      </trkpt>
      <trkpt lat="42.217563036829233" lon="1.332413982599974">
        <ele>540.88</ele>
        <time>2025-05-14T10:40:21Z</time>
      </trkpt>
      <trkpt lat="42.219445025548339" lon="1.33268597535789">
        <ele>540.88</ele>
        <time>2025-05-14T10:40:30Z</time>
      </trkpt>
      <trkpt lat="42.221290972083807" lon="1.333358958363533">
        <ele>540.88</ele>
        <time>2025-05-14T10:40:39Z</time>
      </trkpt>
      <trkpt lat="42.221889020875096" lon="1.33354302495718">
        <ele>540.39999999999998</ele>
        <time>2025-05-14T10:40:42Z</time>
      </trkpt>
      <trkpt lat="42.222076021134853" lon="1.333578983321786">
        <ele>540.39999999999998</ele>
        <time>2025-05-14T10:40:43Z</time>
      </trkpt>
      <trkpt lat="42.222897028550506" lon="1.333642015233636">
        <ele>539.44000000000005</ele>
        <time>2025-05-14T10:40:48Z</time>
      </trkpt>
      <trkpt lat="42.223045974969864" lon="1.333698006346822">
        <ele>539.44000000000005</ele>
        <time>2025-05-14T10:40:49Z</time>
      </trkpt>
      <trkpt lat="42.223190981894732" lon="1.333751985803247">
        <ele>538.96000000000004</ele>
        <time>2025-05-14T10:40:50Z</time>
      </trkpt>
      <trkpt lat="42.224363023415208" lon="1.334635019302368">
        <ele>539.44000000000005</ele>
        <time>2025-05-14T10:40:59Z</time>
      </trkpt>
      <trkpt lat="42.225387962535024" lon="1.335946032777429">
        <ele>543.75999999999999</ele>
        <time>2025-05-14T10:41:10Z</time>
      </trkpt>
      <trkpt lat="42.225790964439511" lon="1.336331013590097">
        <ele>547.61000000000001</ele>
        <time>2025-05-14T10:41:17Z</time>
      </trkpt>
      <trkpt lat="42.225849973037839" lon="1.336392033845186">
        <ele>549.52999999999997</ele>
        <time>2025-05-14T10:41:20Z</time>
      </trkpt>
      <trkpt lat="42.225892972201109" lon="1.336436038836837">
        <ele>550.00999999999999</ele>
        <time>2025-05-14T10:41:21Z</time>
      </trkpt>
      <trkpt lat="42.225932031869888" lon="1.336477026343346">
        <ele>550.49000000000001</ele>
        <time>2025-05-14T10:41:22Z</time>
      </trkpt>
      <trkpt lat="42.225988022983074" lon="1.336535029113293">
        <ele>550.97000000000003</ele>
        <time>2025-05-14T10:41:23Z</time>
      </trkpt>
      <trkpt lat="42.226057006046176" lon="1.336606023833156">
        <ele>550.97000000000003</ele>
        <time>2025-05-14T10:41:24Z</time>
      </trkpt>
      <trkpt lat="42.226163037121296" lon="1.336715994402766">
        <ele>550.97000000000003</ele>
        <time>2025-05-14T10:41:25Z</time>
      </trkpt>
      <trkpt lat="42.226494960486889" lon="1.337099969387054">
        <ele>552.40999999999997</ele>
        <time>2025-05-14T10:41:30Z</time>
      </trkpt>
      <trkpt lat="42.227089991793036" lon="1.3382079731673">
        <ele>553.86000000000001</ele>
        <time>2025-05-14T10:41:41Z</time>
      </trkpt>
      <trkpt lat="42.227193005383015" lon="1.338430009782314">
        <ele>553.86000000000001</ele>
        <time>2025-05-14T10:41:43Z</time>
      </trkpt>
      <trkpt lat="42.227238016203046" lon="1.338525982573628">
        <ele>553.86000000000001</ele>
        <time>2025-05-14T10:41:44Z</time>
      </trkpt>
      <trkpt lat="42.227273974567652" lon="1.338604018092156">
        <ele>553.38</ele>
        <time>2025-05-14T10:41:45Z</time>
      </trkpt>
      <trkpt lat="42.227300964295864" lon="1.338663026690483">
        <ele>553.38</ele>
        <time>2025-05-14T10:41:46Z</time>
      </trkpt>
      <trkpt lat="42.227322002872825" lon="1.338707031682134">
        <ele>553.38</ele>
        <time>2025-05-14T10:41:47Z</time>
      </trkpt>
      <trkpt lat="42.227337006479502" lon="1.338739972561598">
        <ele>552.89999999999998</ele>
        <time>2025-05-14T10:41:48Z</time>
      </trkpt>
      <trkpt lat="42.227346980944276" lon="1.338762016966939">
        <ele>552.89999999999998</ele>
        <time>2025-05-14T10:41:49Z</time>
      </trkpt>
      <trkpt lat="42.227346980944276" lon="1.338762016966939">
        <ele>552.40999999999997</ele>
        <time>2025-05-14T10:42:00Z</time>
      </trkpt>
      <trkpt lat="42.227400960400701" lon="1.338861007243395">
        <ele>551.92999999999995</ele>
        <time>2025-05-14T10:42:05Z</time>
      </trkpt>
      <trkpt lat="42.227389980107546" lon="1.3389159925282">
        <ele>552.40999999999997</ele>
        <time>2025-05-14T10:42:06Z</time>
      </trkpt>
      <trkpt lat="42.227491987869143" lon="1.340152993798256">
        <ele>553.86000000000001</ele>
        <time>2025-05-14T10:42:14Z</time>
      </trkpt>
      <trkpt lat="42.227832041680813" lon="1.341167958453298">
        <ele>553.38</ele>
        <time>2025-05-14T10:42:20Z</time>
      </trkpt>
      <trkpt lat="42.227927008643746" lon="1.341340960934758">
        <ele>553.38</ele>
        <time>2025-05-14T10:42:21Z</time>
      </trkpt>
      <trkpt lat="42.228017030283809" lon="1.341456966474652">
        <ele>553.38</ele>
        <time>2025-05-14T10:42:22Z</time>
      </trkpt>
      <trkpt lat="42.22905102185905" lon="1.342789018526673">
        <ele>552.40999999999997</ele>
        <time>2025-05-14T10:42:32Z</time>
      </trkpt>
      <trkpt lat="42.230107979848981" lon="1.343627041205764">
        <ele>551.92999999999995</ele>
        <time>2025-05-14T10:42:41Z</time>
      </trkpt>
      <trkpt lat="42.230229014530778" lon="1.343727959319949">
        <ele>551.92999999999995</ele>
        <time>2025-05-14T10:42:42Z</time>
      </trkpt>
      <trkpt lat="42.230484997853637" lon="1.343912025913596">
        <ele>551.92999999999995</ele>
        <time>2025-05-14T10:42:44Z</time>
      </trkpt>
      <trkpt lat="42.230618018656969" lon="1.343994000926614">
        <ele>551.92999999999995</ele>
        <time>2025-05-14T10:42:45Z</time>
      </trkpt>
      <trkpt lat="42.230752967298031" lon="1.344077987596393">
        <ele>551.92999999999995</ele>
        <time>2025-05-14T10:42:46Z</time>
      </trkpt>
      <trkpt lat="42.230895962566137" lon="1.344165997579694">
        <ele>551.92999999999995</ele>
        <time>2025-05-14T10:42:47Z</time>
      </trkpt>
      <trkpt lat="42.231043986976147" lon="1.344257025048137">
        <ele>551.92999999999995</ele>
        <time>2025-05-14T10:42:48Z</time>
      </trkpt>
      <trkpt lat="42.231192011386156" lon="1.344347968697548">
        <ele>551.45000000000005</ele>
        <time>2025-05-14T10:42:49Z</time>
      </trkpt>
      <trkpt lat="42.231335006654263" lon="1.344435978680849">
        <ele>551.45000000000005</ele>
        <time>2025-05-14T10:42:50Z</time>
      </trkpt>
      <trkpt lat="42.231452018022537" lon="1.34456598199904">
        <ele>551.45000000000005</ele>
        <time>2025-05-14T10:42:51Z</time>
      </trkpt>
      <trkpt lat="42.23156500607729" lon="1.344705959782004">
        <ele>550.97000000000003</ele>
        <time>2025-05-14T10:42:52Z</time>
      </trkpt>
      <trkpt lat="42.231920985504985" lon="1.345096975564957">
        <ele>550.97000000000003</ele>
        <time>2025-05-14T10:42:55Z</time>
      </trkpt>
      <trkpt lat="42.232049982994795" lon="1.345198983326554">
        <ele>550.97000000000003</ele>
        <time>2025-05-14T10:42:56Z</time>
      </trkpt>
      <trkpt lat="42.23272698931396" lon="1.345693012699485">
        <ele>550.49000000000001</ele>
        <time>2025-05-14T10:43:02Z</time>
      </trkpt>
      <trkpt lat="42.232972998172045" lon="1.345787979662418">
        <ele>550.00999999999999</ele>
        <time>2025-05-14T10:43:04Z</time>
      </trkpt>
      <trkpt lat="42.233095960691571" lon="1.345795020461083">
        <ele>550.00999999999999</ele>
        <time>2025-05-14T10:43:05Z</time>
      </trkpt>
      <trkpt lat="42.233205009251833" lon="1.345782028511167">
        <ele>550.00999999999999</ele>
        <time>2025-05-14T10:43:06Z</time>
      </trkpt>
      <trkpt lat="42.23334901034832" lon="1.345714973285794">
        <ele>550.00999999999999</ele>
        <time>2025-05-14T10:43:07Z</time>
      </trkpt>
      <trkpt lat="42.233471972867846" lon="1.345657976344228">
        <ele>550.00999999999999</ele>
        <time>2025-05-14T10:43:08Z</time>
      </trkpt>
      <trkpt lat="42.233582027256489" lon="1.345572983846068">
        <ele>550.00999999999999</ele>
        <time>2025-05-14T10:43:09Z</time>
      </trkpt>
      <trkpt lat="42.233682023361325" lon="1.345465024933219">
        <ele>550.49000000000001</ele>
        <time>2025-05-14T10:43:10Z</time>
      </trkpt>
      <trkpt lat="42.234009001404047" lon="1.345183979719877">
        <ele>550.97000000000003</ele>
        <time>2025-05-14T10:43:13Z</time>
      </trkpt>
      <trkpt lat="42.234134981408715" lon="1.345138968899846">
        <ele>550.97000000000003</ele>
        <time>2025-05-14T10:43:14Z</time>
      </trkpt>
      <trkpt lat="42.234279988333583" lon="1.345106028020382">
        <ele>550.97000000000003</ele>
        <time>2025-05-14T10:43:15Z</time>
      </trkpt>
      <trkpt lat="42.234433041885495" lon="1.345070991665125">
        <ele>550.97000000000003</ele>
        <time>2025-05-14T10:43:16Z</time>
      </trkpt>
      <trkpt lat="42.234585005789995" lon="1.345055988058448">
        <ele>550.97000000000003</ele>
        <time>2025-05-14T10:43:17Z</time>
      </trkpt>
      <trkpt lat="42.234757002443075" lon="1.345064034685493">
        <ele>550.97000000000003</ele>
        <time>2025-05-14T10:43:18Z</time>
      </trkpt>
      <trkpt lat="42.236318970099092" lon="1.344873011112213">
        <ele>553.38</ele>
        <time>2025-05-14T10:43:27Z</time>
      </trkpt>
      <trkpt lat="42.236627005040646" lon="1.344792963936925">
        <ele>554.82000000000005</ele>
        <time>2025-05-14T10:43:29Z</time>
      </trkpt>
      <trkpt lat="42.236782992258668" lon="1.34475901722908">
        <ele>555.29999999999995</ele>
        <time>2025-05-14T10:43:30Z</time>
      </trkpt>
      <trkpt lat="42.237457986921072" lon="1.344757005572319">
        <ele>557.22000000000003</ele>
        <time>2025-05-14T10:43:34Z</time>
      </trkpt>
      <trkpt lat="42.237625038251281" lon="1.344775026664138">
        <ele>558.17999999999995</ele>
        <time>2025-05-14T10:43:35Z</time>
      </trkpt>
      <trkpt lat="42.237785970792174" lon="1.344791958108544">
        <ele>558.65999999999997</ele>
        <time>2025-05-14T10:43:36Z</time>
      </trkpt>
      <trkpt lat="42.237923014909029" lon="1.34478198364377">
        <ele>559.13999999999999</ele>
        <time>2025-05-14T10:43:37Z</time>
      </trkpt>
      <trkpt lat="42.238062992691994" lon="1.344764968380332">
        <ele>559.13999999999999</ele>
        <time>2025-05-14T10:43:38Z</time>
      </trkpt>
      <trkpt lat="42.238192996010184" lon="1.344748036935926">
        <ele>559.13999999999999</ele>
        <time>2025-05-14T10:43:39Z</time>
      </trkpt>
      <trkpt lat="42.238552998751402" lon="1.344711994752288">
        <ele>560.59000000000003</ele>
        <time>2025-05-14T10:43:42Z</time>
      </trkpt>
      <trkpt lat="42.238670010119677" lon="1.344745019450784">
        <ele>561.07000000000005</ele>
        <time>2025-05-14T10:43:43Z</time>
      </trkpt>
      <trkpt lat="42.238781992346048" lon="1.344795981422067">
        <ele>561.54999999999995</ele>
        <time>2025-05-14T10:43:44Z</time>
      </trkpt>
      <trkpt lat="42.238899003714323" lon="1.344849038869143">
        <ele>561.54999999999995</ele>
        <time>2025-05-14T10:43:45Z</time>
      </trkpt>
      <trkpt lat="42.23902003839612" lon="1.344903018325567">
        <ele>562.02999999999997</ele>
        <time>2025-05-14T10:43:46Z</time>
      </trkpt>
      <trkpt lat="42.24031001329422" lon="1.345358993858099">
        <ele>563.95000000000005</ele>
        <time>2025-05-14T10:43:55Z</time>
      </trkpt>
      <trkpt lat="42.241991003975272" lon="1.345501989126205">
        <ele>564.90999999999997</ele>
        <time>2025-05-14T10:44:04Z</time>
      </trkpt>
      <trkpt lat="42.243600999936461" lon="1.345109967514873">
        <ele>563.47000000000003</ele>
        <time>2025-05-14T10:44:12Z</time>
      </trkpt>
      <trkpt lat="42.244853004813194" lon="1.34428502060473">
        <ele>563.47000000000003</ele>
        <time>2025-05-14T10:44:19Z</time>
      </trkpt>
      <trkpt lat="42.245034975931048" lon="1.344208996742964">
        <ele>562.99000000000001</ele>
        <time>2025-05-14T10:44:20Z</time>
      </trkpt>
      <trkpt lat="42.245224993675947" lon="1.344160968437791">
        <ele>562.99000000000001</ele>
        <time>2025-05-14T10:44:21Z</time>
      </trkpt>
      <trkpt lat="42.245415011420846" lon="1.34415996260941">
        <ele>562.99000000000001</ele>
        <time>2025-05-14T10:44:22Z</time>
      </trkpt>
      <trkpt lat="42.245605029165745" lon="1.344170020893216">
        <ele>562.99000000000001</ele>
        <time>2025-05-14T10:44:23Z</time>
      </trkpt>
      <trkpt lat="42.24578901194036" lon="1.344231963157654">
        <ele>562.99000000000001</ele>
        <time>2025-05-14T10:44:24Z</time>
      </trkpt>
      <trkpt lat="42.245976012200117" lon="1.344312010332942">
        <ele>562.99000000000001</ele>
        <time>2025-05-14T10:44:25Z</time>
      </trkpt>
      <trkpt lat="42.246156977489591" lon="1.344405971467495">
        <ele>562.99000000000001</ele>
        <time>2025-05-14T10:44:26Z</time>
      </trkpt>
      <trkpt lat="42.246328974142671" lon="1.344531029462814">
        <ele>562.50999999999999</ele>
        <time>2025-05-14T10:44:27Z</time>
      </trkpt>
      <trkpt lat="42.246484039351344" lon="1.34467301890254">
        <ele>562.99000000000001</ele>
        <time>2025-05-14T10:44:28Z</time>
      </trkpt>
      <trkpt lat="42.246624017134309" lon="1.344836968928576">
        <ele>562.99000000000001</ele>
        <time>2025-05-14T10:44:29Z</time>
      </trkpt>
      <trkpt lat="42.246759971603751" lon="1.344997985288501">
        <ele>562.99000000000001</ele>
        <time>2025-05-14T10:44:30Z</time>
      </trkpt>
      <trkpt lat="42.247553989291191" lon="1.346319979056716">
        <ele>566.83000000000004</ele>
        <time>2025-05-14T10:44:38Z</time>
      </trkpt>
      <trkpt lat="42.247662032023072" lon="1.346441013738513">
        <ele>567.32000000000005</ele>
        <time>2025-05-14T10:44:39Z</time>
      </trkpt>
      <trkpt lat="42.247778037562966" lon="1.346557019278407">
        <ele>567.79999999999995</ele>
        <time>2025-05-14T10:44:40Z</time>
      </trkpt>
      <trkpt lat="42.247902005910873" lon="1.346669001504779">
        <ele>568.27999999999997</ele>
        <time>2025-05-14T10:44:41Z</time>
      </trkpt>
      <trkpt lat="42.247902005910873" lon="1.346669001504779">
        <ele>568.27999999999997</ele>
        <time>2025-05-14T10:44:42Z</time>
      </trkpt>
      <trkpt lat="42.248185984790325" lon="1.346846027299762">
        <ele>568.75999999999999</ele>
        <time>2025-05-14T10:44:43Z</time>
      </trkpt>
      <trkpt lat="42.248336020857096" lon="1.346895983442664">
        <ele>569.24000000000001</ele>
        <time>2025-05-14T10:44:44Z</time>
      </trkpt>
      <trkpt lat="42.248493013903499" lon="1.346924984827638">
        <ele>569.72000000000003</ele>
        <time>2025-05-14T10:44:45Z</time>
      </trkpt>
      <trkpt lat="42.248655958101153" lon="1.346943005919457">
        <ele>569.72000000000003</ele>
        <time>2025-05-14T10:44:46Z</time>
      </trkpt>
      <trkpt lat="42.248827032744884" lon="1.346962032839656">
        <ele>569.72000000000003</ele>
        <time>2025-05-14T10:44:47Z</time>
      </trkpt>
      <trkpt lat="42.248971033841372" lon="1.346959015354514">
        <ele>569.72000000000003</ele>
        <time>2025-05-14T10:44:48Z</time>
      </trkpt>
      <trkpt lat="42.25004400126636" lon="1.347039984539151">
        <ele>568.75999999999999</ele>
        <time>2025-05-14T10:44:55Z</time>
      </trkpt>
      <trkpt lat="42.250194037333131" lon="1.347092036157847">
        <ele>568.75999999999999</ele>
        <time>2025-05-14T10:44:56Z</time>
      </trkpt>
      <trkpt lat="42.251404970884323" lon="1.347939027473331">
        <ele>567.32000000000005</ele>
        <time>2025-05-14T10:45:05Z</time>
      </trkpt>
      <trkpt lat="42.251536985859275" lon="1.34804698638618">
        <ele>567.79999999999995</ele>
        <time>2025-05-14T10:45:06Z</time>
      </trkpt>
      <trkpt lat="42.256217021495104" lon="1.352103995159268">
        <ele>569.24000000000001</ele>
        <time>2025-05-14T10:45:41Z</time>
      </trkpt>
      <trkpt lat="42.25700500421226" lon="1.352973030880094">
        <ele>573.08000000000004</ele>
        <time>2025-05-14T10:45:44Z</time>
      </trkpt>
      <trkpt lat="42.257911004126072" lon="1.354166027158499">
        <ele>575.97000000000003</ele>
        <time>2025-05-14T10:45:50Z</time>
      </trkpt>
      <trkpt lat="42.258943989872932" lon="1.355577958747745">
        <ele>575.97000000000003</ele>
        <time>2025-05-14T10:45:57Z</time>
      </trkpt>
      <trkpt lat="42.259125038981438" lon="1.355758002027869">
        <ele>575.97000000000003</ele>
        <time>2025-05-14T10:45:58Z</time>
      </trkpt>
      <trkpt lat="42.259323019534349" lon="1.355905020609498">
        <ele>576.45000000000005</ele>
        <time>2025-05-14T10:45:59Z</time>
      </trkpt>
      <trkpt lat="42.259529968723655" lon="1.356046004220843">
        <ele>576.45000000000005</ele>
        <time>2025-05-14T10:46:00Z</time>
      </trkpt>
      <trkpt lat="42.259756028652191" lon="1.356133008375764">
        <ele>576.92999999999995</ele>
        <time>2025-05-14T10:46:01Z</time>
      </trkpt>
      <trkpt lat="42.259984016418457" lon="1.356208026409149">
        <ele>576.92999999999995</ele>
        <time>2025-05-14T10:46:02Z</time>
      </trkpt>
      <trkpt lat="42.26194798015058" lon="1.356902970001102">
        <ele>577.88999999999999</ele>
        <time>2025-05-14T10:46:11Z</time>
      </trkpt>
      <trkpt lat="42.263526963070035" lon="1.357720959931612">
        <ele>579.80999999999995</ele>
        <time>2025-05-14T10:46:19Z</time>
      </trkpt>
      <trkpt lat="42.265079962089658" lon="1.358642969280481">
        <ele>584.13999999999999</ele>
        <time>2025-05-14T10:46:27Z</time>
      </trkpt>
      <trkpt lat="42.266223002225161" lon="1.359392981976271">
        <ele>584.62</ele>
        <time>2025-05-14T10:46:33Z</time>
      </trkpt>
      <trkpt lat="42.26798303425312" lon="1.36035799048841">
        <ele>588.46000000000004</ele>
        <time>2025-05-14T10:46:42Z</time>
      </trkpt>
      <trkpt lat="42.269432013854384" lon="1.360768033191562">
        <ele>589.90999999999997</ele>
        <time>2025-05-14T10:46:50Z</time>
      </trkpt>
      <trkpt lat="42.270687036216259" lon="1.360898958519101">
        <ele>588.95000000000005</ele>
        <time>2025-05-14T10:46:58Z</time>
      </trkpt>
      <trkpt lat="42.272562989965081" lon="1.360638029873371">
        <ele>588.46000000000004</ele>
        <time>2025-05-14T10:47:09Z</time>
      </trkpt>
      <trkpt lat="42.274596020579338" lon="1.360347010195255">
        <ele>590.87</ele>
        <time>2025-05-14T10:47:20Z</time>
      </trkpt>
      <trkpt lat="42.275534039363265" lon="1.360309040173888">
        <ele>591.35000000000002</ele>
        <time>2025-05-14T10:47:25Z</time>
      </trkpt>
      <trkpt lat="42.275716010481119" lon="1.360343992710114">
        <ele>591.83000000000004</ele>
        <time>2025-05-14T10:47:26Z</time>
      </trkpt>
      <trkpt lat="42.275888007134199" lon="1.360436026006937">
        <ele>591.83000000000004</ele>
        <time>2025-05-14T10:47:27Z</time>
      </trkpt>
      <trkpt lat="42.276051035150886" lon="1.360554965212941">
        <ele>592.30999999999995</ele>
        <time>2025-05-14T10:47:28Z</time>
      </trkpt>
      <trkpt lat="42.276207022368908" lon="1.360699972137809">
        <ele>592.78999999999996</ele>
        <time>2025-05-14T10:47:29Z</time>
      </trkpt>
      <trkpt lat="42.276518996804953" lon="1.360989985987544">
        <ele>592.78999999999996</ele>
        <time>2025-05-14T10:47:31Z</time>
      </trkpt>
      <trkpt lat="42.276687975972891" lon="1.361114038154483">
        <ele>592.30999999999995</ele>
        <time>2025-05-14T10:47:32Z</time>
      </trkpt>
      <trkpt lat="42.278663003817201" lon="1.362285995855928">
        <ele>592.78999999999996</ele>
        <time>2025-05-14T10:47:43Z</time>
      </trkpt>
      <trkpt lat="42.280859984457493" lon="1.363683007657528">
        <ele>592.78999999999996</ele>
        <time>2025-05-14T10:47:55Z</time>
      </trkpt>
      <trkpt lat="42.281023012474179" lon="1.363843018189073">
        <ele>592.78999999999996</ele>
        <time>2025-05-14T10:47:56Z</time>
      </trkpt>
      <trkpt lat="42.281174976378679" lon="1.364023983478546">
        <ele>592.78999999999996</ele>
        <time>2025-05-14T10:47:57Z</time>
      </trkpt>
      <trkpt lat="42.281628018245101" lon="1.364559000357986">
        <ele>592.78999999999996</ele>
        <time>2025-05-14T10:48:00Z</time>
      </trkpt>
      <trkpt lat="42.281791968271136" lon="1.36471800506115">
        <ele>592.78999999999996</ele>
        <time>2025-05-14T10:48:01Z</time>
      </trkpt>
      <trkpt lat="42.281963964924216" lon="1.364858988672495">
        <ele>592.30999999999995</ele>
        <time>2025-05-14T10:48:02Z</time>
      </trkpt>
      <trkpt lat="42.282144008204341" lon="1.364981029182673">
        <ele>592.30999999999995</ele>
        <time>2025-05-14T10:48:03Z</time>
      </trkpt>
      <trkpt lat="42.282331008464098" lon="1.365088988095522">
        <ele>592.30999999999995</ele>
        <time>2025-05-14T10:48:04Z</time>
      </trkpt>
      <trkpt lat="42.285204995423555" lon="1.366465967148542">
        <ele>594.23000000000002</ele>
        <time>2025-05-14T10:48:19Z</time>
      </trkpt>
      <trkpt lat="42.286602007225156" lon="1.366764027625322">
        <ele>595.19000000000005</ele>
        <time>2025-05-14T10:48:26Z</time>
      </trkpt>
      <trkpt lat="42.28798896074295" lon="1.366618014872074">
        <ele>596.63999999999999</ele>
        <time>2025-05-14T10:48:33Z</time>
      </trkpt>
      <trkpt lat="42.288184007629752" lon="1.366641987115145">
        <ele>596.63999999999999</ele>
        <time>2025-05-14T10:48:34Z</time>
      </trkpt>
      <trkpt lat="42.28837301954627" lon="1.366698984056711">
        <ele>596.63999999999999</ele>
        <time>2025-05-14T10:48:35Z</time>
      </trkpt>
      <trkpt lat="42.288560019806027" lon="1.366781964898109">
        <ele>597.12</ele>
        <time>2025-05-14T10:48:36Z</time>
      </trkpt>
      <trkpt lat="42.288745008409023" lon="1.366879027336836">
        <ele>597.12</ele>
        <time>2025-05-14T10:48:37Z</time>
      </trkpt>
      <trkpt lat="42.288923040032387" lon="1.36699503287673">
        <ele>597.12</ele>
        <time>2025-05-14T10:48:38Z</time>
      </trkpt>
      <trkpt lat="42.290528006851673" lon="1.368058025836945">
        <ele>599.03999999999996</ele>
        <time>2025-05-14T10:48:47Z</time>
      </trkpt>
      <trkpt lat="42.291943961754441" lon="1.368232034146786">
        <ele>600.48000000000002</ele>
        <time>2025-05-14T10:48:54Z</time>
      </trkpt>
      <trkpt lat="42.292538993060589" lon="1.368084009736776">
        <ele>600.96000000000004</ele>
        <time>2025-05-14T10:48:57Z</time>
      </trkpt>
      <trkpt lat="42.292720964178443" lon="1.367976972833276">
        <ele>601.44000000000005</ele>
        <time>2025-05-14T10:48:58Z</time>
      </trkpt>
      <trkpt lat="42.292900001630187" lon="1.367868008092046">
        <ele>601.44000000000005</ele>
        <time>2025-05-14T10:48:59Z</time>
      </trkpt>
      <trkpt lat="42.294062990695238" lon="1.366949016228318">
        <ele>605.28999999999996</ele>
        <time>2025-05-14T10:49:07Z</time>
      </trkpt>
      <trkpt lat="42.295268978923559" lon="1.365874037146568">
        <ele>609.61000000000001</ele>
        <time>2025-05-14T10:49:17Z</time>
      </trkpt>
      <trkpt lat="42.296318979933858" lon="1.364785982295871">
        <ele>610.57000000000005</ele>
        <time>2025-05-14T10:49:26Z</time>
      </trkpt>
      <trkpt lat="42.296463986858726" lon="1.364657990634441">
        <ele>610.57000000000005</ele>
        <time>2025-05-14T10:49:27Z</time>
      </trkpt>
      <trkpt lat="42.296613017097116" lon="1.36452597565949">
        <ele>610.57000000000005</ele>
        <time>2025-05-14T10:49:28Z</time>
      </trkpt>
      <trkpt lat="42.296776967123151" lon="1.36441701091826">
        <ele>610.57000000000005</ele>
        <time>2025-05-14T10:49:29Z</time>
      </trkpt>
      <trkpt lat="42.296958016231656" lon="1.364337969571352">
        <ele>610.57000000000005</ele>
        <time>2025-05-14T10:49:30Z</time>
      </trkpt>
      <trkpt lat="42.297144010663033" lon="1.364257000386715">
        <ele>610.09000000000003</ele>
        <time>2025-05-14T10:49:31Z</time>
      </trkpt>
      <trkpt lat="42.297340985387564" lon="1.364207966253161">
        <ele>610.09000000000003</ele>
        <time>2025-05-14T10:49:32Z</time>
      </trkpt>
      <trkpt lat="42.297535026445985" lon="1.364172007888556">
        <ele>609.61000000000001</ele>
        <time>2025-05-14T10:49:33Z</time>
      </trkpt>
      <trkpt lat="42.297755973413587" lon="1.364201009273529">
        <ele>609.61000000000001</ele>
        <time>2025-05-14T10:49:34Z</time>
      </trkpt>
      <trkpt lat="42.297969041392207" lon="1.364231016486883">
        <ele>609.13</ele>
        <time>2025-05-14T10:49:35Z</time>
      </trkpt>
      <trkpt lat="42.298173978924751" lon="1.364304022863507">
        <ele>609.13</ele>
        <time>2025-05-14T10:49:36Z</time>
      </trkpt>
      <trkpt lat="42.298380006104708" lon="1.364388009533286">
        <ele>609.13</ele>
        <time>2025-05-14T10:49:37Z</time>
      </trkpt>
      <trkpt lat="42.298581004142761" lon="1.364491023123264">
        <ele>609.13</ele>
        <time>2025-05-14T10:49:38Z</time>
      </trkpt>
      <trkpt lat="42.298777978867292" lon="1.364621026441455">
        <ele>609.13</ele>
        <time>2025-05-14T10:49:39Z</time>
      </trkpt>
      <trkpt lat="42.298951987177134" lon="1.36480400338769">
        <ele>609.61000000000001</ele>
        <time>2025-05-14T10:49:40Z</time>
      </trkpt>
      <trkpt lat="42.299129012972116" lon="1.364989997819066">
        <ele>609.61000000000001</ele>
        <time>2025-05-14T10:49:41Z</time>
      </trkpt>
      <trkpt lat="42.299303021281958" lon="1.365182027220726">
        <ele>609.61000000000001</ele>
        <time>2025-05-14T10:49:42Z</time>
      </trkpt>
      <trkpt lat="42.300589978694916" lon="1.366704013198614">
        <ele>609.61000000000001</ele>
        <time>2025-05-14T10:49:50Z</time>
      </trkpt>
      <trkpt lat="42.300765998661518" lon="1.366838961839676">
        <ele>610.09000000000003</ele>
        <time>2025-05-14T10:49:51Z</time>
      </trkpt>
      <trkpt lat="42.300950987264514" lon="1.36695203371346">
        <ele>610.09000000000003</ele>
        <time>2025-05-14T10:49:52Z</time>
      </trkpt>
      <trkpt lat="42.301141005009413" lon="1.367047000676394">
        <ele>610.57000000000005</ele>
        <time>2025-05-14T10:49:53Z</time>
      </trkpt>
      <trkpt lat="42.301335968077183" lon="1.367131993174553">
        <ele>610.57000000000005</ele>
        <time>2025-05-14T10:49:54Z</time>
      </trkpt>
      <trkpt lat="42.301535038277507" lon="1.36721002869308">
        <ele>610.57000000000005</ele>
        <time>2025-05-14T10:49:55Z</time>
      </trkpt>
      <trkpt lat="42.302538016811013" lon="1.367625016719103">
        <ele>612.01999999999998</ele>
        <time>2025-05-14T10:50:00Z</time>
      </trkpt>
      <trkpt lat="42.304194029420614" lon="1.368795968592167">
        <ele>614.89999999999998</ele>
        <time>2025-05-14T10:50:09Z</time>
      </trkpt>
      <trkpt lat="42.305236989632249" lon="1.369938002899289">
        <ele>619.23000000000002</ele>
        <time>2025-05-14T10:50:16Z</time>
      </trkpt>
      <trkpt lat="42.306667026132345" lon="1.371793001890183">
        <ele>627.88</ele>
        <time>2025-05-14T10:50:27Z</time>
      </trkpt>
      <trkpt lat="42.3073860257864" lon="1.373282968997955">
        <ele>635.57000000000005</ele>
        <time>2025-05-14T10:50:34Z</time>
      </trkpt>
      <trkpt lat="42.308141989633441" lon="1.374535979703069">
        <ele>641.82000000000005</ele>
        <time>2025-05-14T10:50:41Z</time>
      </trkpt>
      <trkpt lat="42.310078041628003" lon="1.376759028062224">
        <ele>647.10000000000002</ele>
        <time>2025-05-14T10:50:54Z</time>
      </trkpt>
      <trkpt lat="42.311990037560463" lon="1.378481006249785">
        <ele>651.42999999999995</ele>
        <time>2025-05-14T10:51:05Z</time>
      </trkpt>
      <trkpt lat="42.313258973881602" lon="1.379568977281451">
        <ele>655.27999999999997</ele>
        <time>2025-05-14T10:51:14Z</time>
      </trkpt>
      <trkpt lat="42.314451970160007" lon="1.380610009655356">
        <ele>662.49000000000001</ele>
        <time>2025-05-14T10:51:25Z</time>
      </trkpt>
      <trkpt lat="42.314853966236115" lon="1.380989961326122">
        <ele>664.88999999999999</ele>
        <time>2025-05-14T10:51:30Z</time>
      </trkpt>
      <trkpt lat="42.314926972612739" lon="1.381079982966185">
        <ele>665.37</ele>
        <time>2025-05-14T10:51:31Z</time>
      </trkpt>
      <trkpt lat="42.314983969554305" lon="1.381196994334459">
        <ele>665.85000000000002</ele>
        <time>2025-05-14T10:51:32Z</time>
      </trkpt>
      <trkpt lat="42.315025962889194" lon="1.381322974339128">
        <ele>666.33000000000004</ele>
        <time>2025-05-14T10:51:33Z</time>
      </trkpt>
      <trkpt lat="42.315067034214735" lon="1.381448032334447">
        <ele>666.33000000000004</ele>
        <time>2025-05-14T10:51:34Z</time>
      </trkpt>
      <trkpt lat="42.315110033378005" lon="1.381575018167496">
        <ele>665.85000000000002</ele>
        <time>2025-05-14T10:51:35Z</time>
      </trkpt>
      <trkpt lat="42.315630968660116" lon="1.38341199606657">
        <ele>671.62</ele>
        <time>2025-05-14T10:51:48Z</time>
      </trkpt>
      <trkpt lat="42.315955013036728" lon="1.384610021486878">
        <ele>673.53999999999996</ele>
        <time>2025-05-14T10:51:56Z</time>
      </trkpt>
      <trkpt lat="42.315996000543237" lon="1.384757962077856">
        <ele>673.05999999999995</ele>
        <time>2025-05-14T10:51:57Z</time>
      </trkpt>
      <trkpt lat="42.316544009372592" lon="1.386736007407308">
        <ele>672.58000000000004</ele>
        <time>2025-05-14T10:52:09Z</time>
      </trkpt>
      <trkpt lat="42.317063016816974" lon="1.387843005359173">
        <ele>674.5</ele>
        <time>2025-05-14T10:52:15Z</time>
      </trkpt>
      <trkpt lat="42.318419963121414" lon="1.389281004667282">
        <ele>671.62</ele>
        <time>2025-05-14T10:52:24Z</time>
      </trkpt>
      <trkpt lat="42.320207990705967" lon="1.390407029539347">
        <ele>663.45000000000005</ele>
        <time>2025-05-14T10:52:33Z</time>
      </trkpt>
      <trkpt lat="42.320953980088234" lon="1.391001977026463">
        <ele>658.63999999999999</ele>
        <time>2025-05-14T10:52:37Z</time>
      </trkpt>
      <trkpt lat="42.321107033640146" lon="1.391186965629458">
        <ele>657.20000000000005</ele>
        <time>2025-05-14T10:52:38Z</time>
      </trkpt>
      <trkpt lat="42.32124499976635" lon="1.39140397310257">
        <ele>656.24000000000001</ele>
        <time>2025-05-14T10:52:39Z</time>
      </trkpt>
      <trkpt lat="42.32124499976635" lon="1.39140397310257">
        <ele>655.27999999999997</ele>
        <time>2025-05-14T10:52:40Z</time>
      </trkpt>
      <trkpt lat="42.321448009461164" lon="1.391886016353965">
        <ele>653.83000000000004</ele>
        <time>2025-05-14T10:52:41Z</time>
      </trkpt>
      <trkpt lat="42.321515986695886" lon="1.392144011333585">
        <ele>652.38999999999999</ele>
        <time>2025-05-14T10:52:42Z</time>
      </trkpt>
      <trkpt lat="42.321571977809072" lon="1.39241298660636">
        <ele>650.95000000000005</ele>
        <time>2025-05-14T10:52:43Z</time>
      </trkpt>
      <trkpt lat="42.32186702080071" lon="1.393712013959885">
        <ele>645.65999999999997</ele>
        <time>2025-05-14T10:52:48Z</time>
      </trkpt>
      <trkpt lat="42.321945978328586" lon="1.393940001726151">
        <ele>644.70000000000005</ele>
        <time>2025-05-14T10:52:49Z</time>
      </trkpt>
      <trkpt lat="42.322023008018732" lon="1.394162960350514">
        <ele>643.74000000000001</ele>
        <time>2025-05-14T10:52:50Z</time>
      </trkpt>
      <trkpt lat="42.32212501578033" lon="1.394355995580554">
        <ele>642.29999999999995</ele>
        <time>2025-05-14T10:52:51Z</time>
      </trkpt>
      <trkpt lat="42.322232974693179" lon="1.394536960870028">
        <ele>641.34000000000003</ele>
        <time>2025-05-14T10:52:52Z</time>
      </trkpt>
      <trkpt lat="42.323038978502154" lon="1.395867001265287">
        <ele>636.52999999999997</ele>
        <time>2025-05-14T10:53:00Z</time>
      </trkpt>
      <trkpt lat="42.323124976828694" lon="1.396038997918367">
        <ele>636.04999999999995</ele>
        <time>2025-05-14T10:53:01Z</time>
      </trkpt>
      <trkpt lat="42.323404010385275" lon="1.396829998120666">
        <ele>634.61000000000001</ele>
        <time>2025-05-14T10:53:05Z</time>
      </trkpt>
      <trkpt lat="42.323510041460395" lon="1.397010963410139">
        <ele>634.13</ele>
        <time>2025-05-14T10:53:06Z</time>
      </trkpt>
      <trkpt lat="42.323615988716483" lon="1.397193018347025">
        <ele>634.13</ele>
        <time>2025-05-14T10:53:07Z</time>
      </trkpt>
      <trkpt lat="42.3237360175699" lon="1.397358980029821">
        <ele>633.64999999999998</ele>
        <time>2025-05-14T10:53:08Z</time>
      </trkpt>
      <trkpt lat="42.323885969817638" lon="1.397484038025141">
        <ele>633.16999999999996</ele>
        <time>2025-05-14T10:53:09Z</time>
      </trkpt>
      <trkpt lat="42.324036005884409" lon="1.397608006373048">
        <ele>633.16999999999996</ele>
        <time>2025-05-14T10:53:10Z</time>
      </trkpt>
      <trkpt lat="42.324187969788909" lon="1.397731974720955">
        <ele>632.67999999999995</ele>
        <time>2025-05-14T10:53:11Z</time>
      </trkpt>
      <trkpt lat="42.324350997805595" lon="1.397814033553004">
        <ele>632.67999999999995</ele>
        <time>2025-05-14T10:53:12Z</time>
      </trkpt>
      <trkpt lat="42.325097993016243" lon="1.398165989667177">
        <ele>632.67999999999995</ele>
        <time>2025-05-14T10:53:18Z</time>
      </trkpt>
      <trkpt lat="42.325341990217566" lon="1.39834301546216">
        <ele>633.16999999999996</ele>
        <time>2025-05-14T10:53:19Z</time>
      </trkpt>
      <trkpt lat="42.325437963008881" lon="1.398454997688532">
        <ele>633.64999999999998</ele>
        <time>2025-05-14T10:53:20Z</time>
      </trkpt>
      <trkpt lat="42.325524967163801" lon="1.398563040420413">
        <ele>634.13</ele>
        <time>2025-05-14T10:53:21Z</time>
      </trkpt>
      <trkpt lat="42.325584981590509" lon="1.398670999333262">
        <ele>634.61000000000001</ele>
        <time>2025-05-14T10:53:22Z</time>
      </trkpt>
      <trkpt lat="42.325624041259289" lon="1.398739982396364">
        <ele>634.61000000000001</ele>
        <time>2025-05-14T10:53:23Z</time>
      </trkpt>
      <trkpt lat="42.325681038200855" lon="1.398808965459466">
        <ele>635.09000000000003</ele>
        <time>2025-05-14T10:53:24Z</time>
      </trkpt>
      <trkpt lat="42.325698975473642" lon="1.398994959890842">
        <ele>635.09000000000003</ele>
        <time>2025-05-14T10:53:25Z</time>
      </trkpt>
      <trkpt lat="42.325666034594178" lon="1.399125969037414">
        <ele>635.57000000000005</ele>
        <time>2025-05-14T10:53:26Z</time>
      </trkpt>
      <trkpt lat="42.325681960210204" lon="1.399152036756277">
        <ele>635.57000000000005</ele>
        <time>2025-05-14T10:53:27Z</time>
      </trkpt>
      <trkpt lat="42.325723031535745" lon="1.399221019819379">
        <ele>636.04999999999995</ele>
        <time>2025-05-14T10:53:28Z</time>
      </trkpt>
      <trkpt lat="42.325764019042253" lon="1.3992889970541">
        <ele>636.04999999999995</ele>
        <time>2025-05-14T10:53:29Z</time>
      </trkpt>
      <trkpt lat="42.325795032083988" lon="1.399340964853764">
        <ele>636.52999999999997</ele>
        <time>2025-05-14T10:53:30Z</time>
      </trkpt>
      <trkpt lat="42.325795032083988" lon="1.399340964853764">
        <ele>636.52999999999997</ele>
        <time>2025-05-14T10:53:31Z</time>
      </trkpt>
      <trkpt lat="42.326000975444913" lon="1.39939502812922">
        <ele>637.00999999999999</ele>
        <time>2025-05-14T10:53:32Z</time>
      </trkpt>
      <trkpt lat="42.326041040942073" lon="1.399482032284141">
        <ele>637.49000000000001</ele>
        <time>2025-05-14T10:53:33Z</time>
      </trkpt>
      <trkpt lat="42.326082028448582" lon="1.399572975933552">
        <ele>637.49000000000001</ele>
        <time>2025-05-14T10:53:34Z</time>
      </trkpt>
      <trkpt lat="42.326126033440232" lon="1.399669032543898">
        <ele>637.97000000000003</ele>
        <time>2025-05-14T10:53:35Z</time>
      </trkpt>
      <trkpt lat="42.326216977089643" lon="1.399862989783287">
        <ele>638.92999999999995</ele>
        <time>2025-05-14T10:53:37Z</time>
      </trkpt>
      <trkpt lat="42.326314961537719" lon="1.400058036670089">
        <ele>639.40999999999997</ele>
        <time>2025-05-14T10:53:39Z</time>
      </trkpt>
      <trkpt lat="42.326365001499653" lon="1.400159038603306">
        <ele>639.88999999999999</ele>
        <time>2025-05-14T10:53:40Z</time>
      </trkpt>
      <trkpt lat="42.326625008136034" lon="1.400653989985585">
        <ele>641.34000000000003</ele>
        <time>2025-05-14T10:53:45Z</time>
      </trkpt>
      <trkpt lat="42.327107973396778" lon="1.401498969644308">
        <ele>644.22000000000003</ele>
        <time>2025-05-14T10:53:56Z</time>
      </trkpt>
      <trkpt lat="42.327543999999762" lon="1.402045972645283">
        <ele>645.65999999999997</ele>
        <time>2025-05-14T10:54:04Z</time>
      </trkpt>
      <trkpt lat="42.328591989353299" lon="1.403187001124024">
        <ele>649.50999999999999</ele>
        <time>2025-05-14T10:54:15Z</time>
      </trkpt>
      <trkpt lat="42.32990300282836" lon="1.404654001817107">
        <ele>654.79999999999995</ele>
        <time>2025-05-14T10:54:26Z</time>
      </trkpt>
      <trkpt lat="42.331514004617929" lon="1.406455021351576">
        <ele>659.60000000000002</ele>
        <time>2025-05-14T10:54:39Z</time>
      </trkpt>
      <trkpt lat="42.333015035837889" lon="1.408384032547474">
        <ele>661.51999999999998</ele>
        <time>2025-05-14T10:54:50Z</time>
      </trkpt>
      <trkpt lat="42.335077989846468" lon="1.411464968696237">
        <ele>662.97000000000003</ele>
        <time>2025-05-14T10:55:06Z</time>
      </trkpt>
      <trkpt lat="42.337397010996938" lon="1.414906997233629">
        <ele>664.88999999999999</ele>
        <time>2025-05-14T10:55:25Z</time>
      </trkpt>
      <trkpt lat="42.339749978855252" lon="1.418376015499234">
        <ele>671.13999999999999</ele>
        <time>2025-05-14T10:55:43Z</time>
      </trkpt>
      <trkpt lat="42.34163599088788" lon="1.421172972768545">
        <ele>679.78999999999996</ele>
        <time>2025-05-14T10:55:58Z</time>
      </trkpt>
      <trkpt lat="42.343464000150561" lon="1.423917040228844">
        <ele>687.96000000000004</ele>
        <time>2025-05-14T10:56:12Z</time>
      </trkpt>
      <trkpt lat="42.344185011461377" lon="1.42500501126051">
        <ele>687.96000000000004</ele>
        <time>2025-05-14T10:56:19Z</time>
      </trkpt>
      <trkpt lat="42.345326039940119" lon="1.426684996113181">
        <ele>688.91999999999996</ele>
        <time>2025-05-14T10:56:30Z</time>
      </trkpt>
      <trkpt lat="42.346547031775117" lon="1.428518034517765">
        <ele>689.39999999999998</ele>
        <time>2025-05-14T10:56:42Z</time>
      </trkpt>
      <trkpt lat="42.347569959238172" lon="1.430072961375117">
        <ele>688.91999999999996</ele>
        <time>2025-05-14T10:56:53Z</time>
      </trkpt>
      <trkpt lat="42.349031008780003" lon="1.432227026671171">
        <ele>690.84000000000003</ele>
        <time>2025-05-14T10:57:07Z</time>
      </trkpt>
      <trkpt lat="42.350820964202285" lon="1.434849975630641">
        <ele>696.13</ele>
        <time>2025-05-14T10:57:20Z</time>
      </trkpt>
      <trkpt lat="42.352419979870319" lon="1.437265975400806">
        <ele>699.98000000000002</ele>
        <time>2025-05-14T10:57:33Z</time>
      </trkpt>
      <trkpt lat="42.353123975917697" lon="1.438272977247834">
        <ele>701.89999999999998</ele>
        <time>2025-05-14T10:57:41Z</time>
      </trkpt>
      <trkpt lat="42.354115974158049" lon="1.439766967669129">
        <ele>703.34000000000003</ele>
        <time>2025-05-14T10:57:51Z</time>
      </trkpt>
      <trkpt lat="42.355067990720272" lon="1.441166996955872">
        <ele>704.29999999999995</ele>
        <time>2025-05-14T10:58:02Z</time>
      </trkpt>
      <trkpt lat="42.356070969253778" lon="1.442661993205547">
        <ele>707.19000000000005</ele>
        <time>2025-05-14T10:58:14Z</time>
      </trkpt>
      <trkpt lat="42.356372969225049" lon="1.443072035908699">
        <ele>708.63</ele>
        <time>2025-05-14T10:58:18Z</time>
      </trkpt>
      <trkpt lat="42.35646097920835" lon="1.443159962072969">
        <ele>709.11000000000001</ele>
        <time>2025-05-14T10:58:19Z</time>
      </trkpt>
      <trkpt lat="42.356543960049748" lon="1.443243026733398">
        <ele>710.07000000000005</ele>
        <time>2025-05-14T10:58:20Z</time>
      </trkpt>
      <trkpt lat="42.356669018045068" lon="1.443289965391159">
        <ele>711.02999999999997</ele>
        <time>2025-05-14T10:58:21Z</time>
      </trkpt>
      <trkpt lat="42.356796003878117" lon="1.443338999524713">
        <ele>712.95000000000005</ele>
        <time>2025-05-14T10:58:22Z</time>
      </trkpt>
      <trkpt lat="42.356919972226024" lon="1.443386022001505">
        <ele>714.39999999999998</ele>
        <time>2025-05-14T10:58:23Z</time>
      </trkpt>
      <trkpt lat="42.357049975544214" lon="1.443436983972788">
        <ele>715.36000000000001</ele>
        <time>2025-05-14T10:58:24Z</time>
      </trkpt>
      <trkpt lat="42.357181990519166" lon="1.44350596703589">
        <ele>716.32000000000005</ele>
        <time>2025-05-14T10:58:25Z</time>
      </trkpt>
      <trkpt lat="42.357317022979259" lon="1.44358903169632">
        <ele>717.75999999999999</ele>
        <time>2025-05-14T10:58:26Z</time>
      </trkpt>
      <trkpt lat="42.357453983277082" lon="1.443673018366098">
        <ele>718.72000000000003</ele>
        <time>2025-05-14T10:58:27Z</time>
      </trkpt>
      <trkpt lat="42.357579963281751" lon="1.44378500059247">
        <ele>719.67999999999995</ele>
        <time>2025-05-14T10:58:28Z</time>
      </trkpt>
      <trkpt lat="42.35770502127707" lon="1.443910980597138">
        <ele>721.13</ele>
        <time>2025-05-14T10:58:29Z</time>
      </trkpt>
      <trkpt lat="42.357820020988584" lon="1.444055987522006">
        <ele>722.09000000000003</ele>
        <time>2025-05-14T10:58:30Z</time>
      </trkpt>
      <trkpt lat="42.357919011265039" lon="1.44421398639679">
        <ele>723.52999999999997</ele>
        <time>2025-05-14T10:58:31Z</time>
      </trkpt>
      <trkpt lat="42.358018001541495" lon="1.444369973614812">
        <ele>724.49000000000001</ele>
        <time>2025-05-14T10:58:32Z</time>
      </trkpt>
      <trkpt lat="42.358303992077708" lon="1.445002974942327">
        <ele>727.86000000000001</ele>
        <time>2025-05-14T10:58:36Z</time>
      </trkpt>
      <trkpt lat="42.358344979584217" lon="1.445131972432137">
        <ele>728.82000000000005</ele>
        <time>2025-05-14T10:58:37Z</time>
      </trkpt>
      <trkpt lat="42.358394013717771" lon="1.44528896547854">
        <ele>729.29999999999995</ele>
        <time>2025-05-14T10:58:38Z</time>
      </trkpt>
      <trkpt lat="42.358787041157484" lon="1.446419013664126">
        <ele>732.65999999999997</ele>
        <time>2025-05-14T10:58:47Z</time>
      </trkpt>
      <trkpt lat="42.358804978430271" lon="1.446697041392326">
        <ele>732.17999999999995</ele>
        <time>2025-05-14T10:58:49Z</time>
      </trkpt>
      <trkpt lat="42.358840014785528" lon="1.446783961728215">
        <ele>731.70000000000005</ele>
        <time>2025-05-14T10:58:50Z</time>
      </trkpt>
      <trkpt lat="42.359071020036936" lon="1.447142036631703">
        <ele>730.74000000000001</ele>
        <time>2025-05-14T10:58:53Z</time>
      </trkpt>
      <trkpt lat="42.359147965908051" lon="1.447257036343217">
        <ele>730.25999999999999</ele>
        <time>2025-05-14T10:58:54Z</time>
      </trkpt>
      <trkpt lat="42.359861014410853" lon="1.448496971279383">
        <ele>723.52999999999997</ele>
        <time>2025-05-14T10:59:04Z</time>
      </trkpt>
      <trkpt lat="42.359902001917362" lon="1.448637032881379">
        <ele>722.57000000000005</ele>
        <time>2025-05-14T10:59:05Z</time>
      </trkpt>
      <trkpt lat="42.360342973843217" lon="1.450355993583798">
        <ele>714.88</ele>
        <time>2025-05-14T10:59:17Z</time>
      </trkpt>
      <trkpt lat="42.360449004918337" lon="1.45076796412468">
        <ele>712.95000000000005</ele>
        <time>2025-05-14T10:59:20Z</time>
      </trkpt>
      <trkpt lat="42.360472977161407" lon="1.450899979099631">
        <ele>711.99000000000001</ele>
        <time>2025-05-14T10:59:21Z</time>
      </trkpt>
      <trkpt lat="42.360490998253226" lon="1.451029982417822">
        <ele>711.02999999999997</ele>
        <time>2025-05-14T10:59:22Z</time>
      </trkpt>
      <trkpt lat="42.360484963282943" lon="1.451150011271238">
        <ele>710.07000000000005</ele>
        <time>2025-05-14T10:59:23Z</time>
      </trkpt>
      <trkpt lat="42.360479012131691" lon="1.451264005154371">
        <ele>709.11000000000001</ele>
        <time>2025-05-14T10:59:24Z</time>
      </trkpt>
      <trkpt lat="42.360472977161407" lon="1.451371964067221">
        <ele>708.14999999999998</ele>
        <time>2025-05-14T10:59:25Z</time>
      </trkpt>
      <trkpt lat="42.360465014353395" lon="1.451460979878902">
        <ele>707.19000000000005</ele>
        <time>2025-05-14T10:59:26Z</time>
      </trkpt>
      <trkpt lat="42.36043500714004" lon="1.451759962365031">
        <ele>702.86000000000001</ele>
        <time>2025-05-14T10:59:32Z</time>
      </trkpt>
      <trkpt lat="42.360517987981439" lon="1.45199197344482">
        <ele>700.46000000000004</ele>
        <time>2025-05-14T10:59:36Z</time>
      </trkpt>
      <trkpt lat="42.360535003244877" lon="1.452041007578373">
        <ele>699.98000000000002</ele>
        <time>2025-05-14T10:59:37Z</time>
      </trkpt>
      <trkpt lat="42.360535003244877" lon="1.452041007578373">
        <ele>699.5</ele>
        <time>2025-05-14T10:59:38Z</time>
      </trkpt>
      <trkpt lat="42.360546989366412" lon="1.452288022264838">
        <ele>699.01999999999998</ele>
        <time>2025-05-14T10:59:39Z</time>
      </trkpt>
      <trkpt lat="42.360599962994456" lon="1.452320041134954">
        <ele>698.52999999999997</ele>
        <time>2025-05-14T10:59:40Z</time>
      </trkpt>
      <trkpt lat="42.360662994906306" lon="1.45237997174263">
        <ele>698.04999999999995</ele>
        <time>2025-05-14T10:59:41Z</time>
      </trkpt>
      <trkpt lat="42.360662994906306" lon="1.452380977571011">
        <ele>697.57000000000005</ele>
        <time>2025-05-14T10:59:42Z</time>
      </trkpt>
      <trkpt lat="42.360687972977757" lon="1.452478962019086">
        <ele>697.09000000000003</ele>
        <time>2025-05-14T10:59:43Z</time>
      </trkpt>
      <trkpt lat="42.360719991847873" lon="1.452694041654468">
        <ele>696.61000000000001</ele>
        <time>2025-05-14T10:59:44Z</time>
      </trkpt>
      <trkpt lat="42.360703982412815" lon="1.452797977253795">
        <ele>696.13</ele>
        <time>2025-05-14T10:59:45Z</time>
      </trkpt>
      <trkpt lat="42.360596023499966" lon="1.453772038221359">
        <ele>693.73000000000002</ele>
        <time>2025-05-14T10:59:55Z</time>
      </trkpt>
      <trkpt lat="42.360523017123342" lon="1.454302025958896">
        <ele>694.69000000000005</ele>
        <time>2025-05-14T11:00:00Z</time>
      </trkpt>
      <trkpt lat="42.360495021566749" lon="1.454529007896781">
        <ele>695.64999999999998</ele>
        <time>2025-05-14T11:00:02Z</time>
      </trkpt>
      <trkpt lat="42.360527040436864" lon="1.454672003164887">
        <ele>696.61000000000001</ele>
        <time>2025-05-14T11:00:03Z</time>
      </trkpt>
      <trkpt lat="42.360557969659567" lon="1.454781973734498">
        <ele>697.09000000000003</ele>
        <time>2025-05-14T11:00:04Z</time>
      </trkpt>
      <trkpt lat="42.36062603071332" lon="1.454899990931153">
        <ele>698.04999999999995</ele>
        <time>2025-05-14T11:00:05Z</time>
      </trkpt>
      <trkpt lat="42.360701970756054" lon="1.454976014792919">
        <ele>699.01999999999998</ele>
        <time>2025-05-14T11:00:06Z</time>
      </trkpt>
      <trkpt lat="42.360795009881258" lon="1.455040974542499">
        <ele>699.98000000000002</ele>
        <time>2025-05-14T11:00:07Z</time>
      </trkpt>
      <trkpt lat="42.360888971015811" lon="1.455095037817955">
        <ele>700.94000000000005</ele>
        <time>2025-05-14T11:00:08Z</time>
      </trkpt>
      <trkpt lat="42.36099399626255" lon="1.455153962597251">
        <ele>701.89999999999998</ele>
        <time>2025-05-14T11:00:09Z</time>
      </trkpt>
      <trkpt lat="42.361835036426783" lon="1.455373987555504">
        <ele>707.66999999999996</ele>
        <time>2025-05-14T11:00:17Z</time>
      </trkpt>
      <trkpt lat="42.361947018653154" lon="1.455412963405252">
        <ele>708.14999999999998</ele>
        <time>2025-05-14T11:00:18Z</time>
      </trkpt>
      <trkpt lat="42.362138964235783" lon="1.45549301058054">
        <ele>708.63</ele>
        <time>2025-05-14T11:00:19Z</time>
      </trkpt>
      <trkpt lat="42.362169977277517" lon="1.455571968108416">
        <ele>708.63</ele>
        <time>2025-05-14T11:00:20Z</time>
      </trkpt>
      <trkpt lat="42.362189004197717" lon="1.455629970878363">
        <ele>709.11000000000001</ele>
        <time>2025-05-14T11:00:21Z</time>
      </trkpt>
      <trkpt lat="42.362205013632774" lon="1.455675987526774">
        <ele>709.59000000000003</ele>
        <time>2025-05-14T11:00:22Z</time>
      </trkpt>
      <trkpt lat="42.362220017239451" lon="1.455720998346806">
        <ele>709.59000000000003</ele>
        <time>2025-05-14T11:00:23Z</time>
      </trkpt>
      <trkpt lat="42.36223703250289" lon="1.455772966146469">
        <ele>710.07000000000005</ele>
        <time>2025-05-14T11:00:24Z</time>
      </trkpt>
      <trkpt lat="42.362258993089199" lon="1.45583800971508">
        <ele>710.54999999999995</ele>
        <time>2025-05-14T11:00:25Z</time>
      </trkpt>
      <trkpt lat="42.362295035272837" lon="1.45594596862793">
        <ele>710.54999999999995</ele>
        <time>2025-05-14T11:00:26Z</time>
      </trkpt>
      <trkpt lat="42.362284976989031" lon="1.456005983054638">
        <ele>711.02999999999997</ele>
        <time>2025-05-14T11:00:27Z</time>
      </trkpt>
      <trkpt lat="42.362272990867496" lon="1.45611897110939">
        <ele>711.50999999999999</ele>
        <time>2025-05-14T11:00:28Z</time>
      </trkpt>
      <trkpt lat="42.362286988645792" lon="1.456251991912723">
        <ele>711.50999999999999</ele>
        <time>2025-05-14T11:00:29Z</time>
      </trkpt>
      <trkpt lat="42.362336022779346" lon="1.456349976360798">
        <ele>711.99000000000001</ele>
        <time>2025-05-14T11:00:30Z</time>
      </trkpt>
      <trkpt lat="42.362420009449124" lon="1.456431029364467">
        <ele>712.47000000000003</ele>
        <time>2025-05-14T11:00:31Z</time>
      </trkpt>
      <trkpt lat="42.36251899972558" lon="1.456479979678989">
        <ele>712.47000000000003</ele>
        <time>2025-05-14T11:00:32Z</time>
      </trkpt>
      <trkpt lat="42.362600974738598" lon="1.456463970243931">
        <ele>712.47000000000003</ele>
        <time>2025-05-14T11:00:33Z</time>
      </trkpt>
      <trkpt lat="42.362683033570647" lon="1.456385012716055">
        <ele>712.95000000000005</ele>
        <time>2025-05-14T11:00:34Z</time>
      </trkpt>
      <trkpt lat="42.362752016633749" lon="1.456305971369147">
        <ele>712.95000000000005</ele>
        <time>2025-05-14T11:00:35Z</time>
      </trkpt>
      <trkpt lat="42.362828962504864" lon="1.456230031326413">
        <ele>713.44000000000005</ele>
        <time>2025-05-14T11:00:36Z</time>
      </trkpt>
      <trkpt lat="42.362914960831404" lon="1.456149984151125">
        <ele>713.91999999999996</ele>
        <time>2025-05-14T11:00:37Z</time>
      </trkpt>
      <trkpt lat="42.362914960831404" lon="1.456149984151125">
        <ele>714.39999999999998</ele>
        <time>2025-05-14T11:00:38Z</time>
      </trkpt>
      <trkpt lat="42.363131968304515" lon="1.45594596862793">
        <ele>715.36000000000001</ele>
        <time>2025-05-14T11:00:39Z</time>
      </trkpt>
      <trkpt lat="42.363220984116197" lon="1.455907998606563">
        <ele>715.84000000000003</ele>
        <time>2025-05-14T11:00:40Z</time>
      </trkpt>
      <trkpt lat="42.363347969949245" lon="1.455852007493377">
        <ele>716.79999999999995</ele>
        <time>2025-05-14T11:00:41Z</time>
      </trkpt>
      <trkpt lat="42.364649008959532" lon="1.455413969233632">
        <ele>721.13</ele>
        <time>2025-05-14T11:00:49Z</time>
      </trkpt>
      <trkpt lat="42.366684973239899" lon="1.454964028671384">
        <ele>725.45000000000005</ele>
        <time>2025-05-14T11:00:59Z</time>
      </trkpt>
      <trkpt lat="42.366895023733377" lon="1.454974003136158">
        <ele>725.45000000000005</ele>
        <time>2025-05-14T11:01:00Z</time>
      </trkpt>
      <trkpt lat="42.367103984579444" lon="1.455038040876389">
        <ele>725.92999999999995</ele>
        <time>2025-05-14T11:01:01Z</time>
      </trkpt>
      <trkpt lat="42.367315962910652" lon="1.455103000625968">
        <ele>725.92999999999995</ele>
        <time>2025-05-14T11:01:02Z</time>
      </trkpt>
      <trkpt lat="42.367527019232512" lon="1.455167960375547">
        <ele>726.40999999999997</ele>
        <time>2025-05-14T11:01:03Z</time>
      </trkpt>
      <trkpt lat="42.369289984926581" lon="1.45568797364831">
        <ele>724.49000000000001</ele>
        <time>2025-05-14T11:01:11Z</time>
      </trkpt>
      <trkpt lat="42.370100012049079" lon="1.455717980861664">
        <ele>724.00999999999999</ele>
        <time>2025-05-14T11:01:15Z</time>
      </trkpt>
      <trkpt lat="42.370293969288468" lon="1.455699037760496">
        <ele>724.49000000000001</ele>
        <time>2025-05-14T11:01:16Z</time>
      </trkpt>
      <trkpt lat="42.370479963719845" lon="1.455629970878363">
        <ele>724.49000000000001</ele>
        <time>2025-05-14T11:01:17Z</time>
      </trkpt>
      <trkpt lat="42.370663024485111" lon="1.455539027228952">
        <ele>724.97000000000003</ele>
        <time>2025-05-14T11:01:18Z</time>
      </trkpt>
      <trkpt lat="42.370840972289443" lon="1.455449005588889">
        <ele>724.97000000000003</ele>
        <time>2025-05-14T11:01:19Z</time>
      </trkpt>
      <trkpt lat="42.372349966317415" lon="1.454558009281755">
        <ele>725.92999999999995</ele>
        <time>2025-05-14T11:01:28Z</time>
      </trkpt>
      <trkpt lat="42.373200980946422" lon="1.45431200042367">
        <ele>726.40999999999997</ele>
        <time>2025-05-14T11:01:33Z</time>
      </trkpt>
      <trkpt lat="42.373552015051246" lon="1.454286016523838">
        <ele>726.40999999999997</ele>
        <time>2025-05-14T11:01:35Z</time>
      </trkpt>
      <trkpt lat="42.377683036029339" lon="1.45710401237011">
        <ele>736.50999999999999</ele>
        <time>2025-05-14T11:01:59Z</time>
      </trkpt>
      <trkpt lat="42.379644988104701" lon="1.458735968917608">
        <ele>743.24000000000001</ele>
        <time>2025-05-14T11:02:11Z</time>
      </trkpt>
      <trkpt lat="42.381349029019475" lon="1.459463015198708">
        <ele>742.75999999999999</ele>
        <time>2025-05-14T11:02:20Z</time>
      </trkpt>
      <trkpt lat="42.383602000772953" lon="1.459839027374983">
        <ele>745.63999999999999</ele>
        <time>2025-05-14T11:02:31Z</time>
      </trkpt>
      <trkpt lat="42.38615496084094" lon="1.460038013756275">
        <ele>752.85000000000002</ele>
        <time>2025-05-14T11:02:43Z</time>
      </trkpt>
      <trkpt lat="42.388179022818804" lon="1.460871007293463">
        <ele>759.58000000000004</ele>
        <time>2025-05-14T11:02:53Z</time>
      </trkpt>
      <trkpt lat="42.390552023425698" lon="1.46213399246335">
        <ele>761.01999999999998</ele>
        <time>2025-05-14T11:03:05Z</time>
      </trkpt>
      <trkpt lat="42.390552023425698" lon="1.46213399246335">
        <ele>761.01999999999998</ele>
        <time>2025-05-14T11:03:06Z</time>
      </trkpt>
      <trkpt lat="42.390966005623341" lon="1.46219601854682">
        <ele>761.5</ele>
        <time>2025-05-14T11:03:07Z</time>
      </trkpt>
      <trkpt lat="42.391177983954549" lon="1.462205993011594">
        <ele>761.5</ele>
        <time>2025-05-14T11:03:08Z</time>
      </trkpt>
      <trkpt lat="42.391387028619647" lon="1.46219601854682">
        <ele>761.98000000000002</ele>
        <time>2025-05-14T11:03:09Z</time>
      </trkpt>
      <trkpt lat="42.391598001122475" lon="1.462163999676704">
        <ele>762.46000000000004</ele>
        <time>2025-05-14T11:03:10Z</time>
      </trkpt>
      <trkpt lat="42.391808973625302" lon="1.462131980806589">
        <ele>762.46000000000004</ele>
        <time>2025-05-14T11:03:11Z</time>
      </trkpt>
      <trkpt lat="42.393215037882328" lon="1.461513983085752">
        <ele>765.83000000000004</ele>
        <time>2025-05-14T11:03:18Z</time>
      </trkpt>
      <trkpt lat="42.394654965028167" lon="1.46112397313118">
        <ele>768.23000000000002</ele>
        <time>2025-05-14T11:03:25Z</time>
      </trkpt>
      <trkpt lat="42.395910993218422" lon="1.461417004466057">
        <ele>770.63</ele>
        <time>2025-05-14T11:03:31Z</time>
      </trkpt>
      <trkpt lat="42.397427028045058" lon="1.462450996041298">
        <ele>770.63</ele>
        <time>2025-05-14T11:03:39Z</time>
      </trkpt>
      <trkpt lat="42.398404022678733" lon="1.46299397572875">
        <ele>769.66999999999996</ele>
        <time>2025-05-14T11:03:44Z</time>
      </trkpt>
      <trkpt lat="42.398612983524799" lon="1.463027000427246">
        <ele>769.66999999999996</ele>
        <time>2025-05-14T11:03:45Z</time>
      </trkpt>
      <trkpt lat="42.398819010704756" lon="1.463054995983839">
        <ele>769.66999999999996</ele>
        <time>2025-05-14T11:03:46Z</time>
      </trkpt>
      <trkpt lat="42.399026965722442" lon="1.463065976276994">
        <ele>769.66999999999996</ele>
        <time>2025-05-14T11:03:47Z</time>
      </trkpt>
      <trkpt lat="42.39923601038754" lon="1.463053990155459">
        <ele>769.66999999999996</ele>
        <time>2025-05-14T11:03:48Z</time>
      </trkpt>
      <trkpt lat="42.400914989411831" lon="1.462656017392874">
        <ele>771.60000000000002</ele>
        <time>2025-05-14T11:03:56Z</time>
      </trkpt>
      <trkpt lat="42.401540027931333" lon="1.462511010468006">
        <ele>772.08000000000004</ele>
        <time>2025-05-14T11:03:59Z</time>
      </trkpt>
      <trkpt lat="42.401746977120638" lon="1.462501036003232">
        <ele>772.08000000000004</ele>
        <time>2025-05-14T11:04:00Z</time>
      </trkpt>
      <trkpt lat="42.401955015957355" lon="1.46254101768136">
        <ele>771.60000000000002</ele>
        <time>2025-05-14T11:04:01Z</time>
      </trkpt>
      <trkpt lat="42.402159031480551" lon="1.462585022673011">
        <ele>772.08000000000004</ele>
        <time>2025-05-14T11:04:02Z</time>
      </trkpt>
      <trkpt lat="42.402355000376701" lon="1.462683007121086">
        <ele>772.08000000000004</ele>
        <time>2025-05-14T11:04:03Z</time>
      </trkpt>
      <trkpt lat="42.402550969272852" lon="1.462780991569161">
        <ele>772.55999999999995</ele>
        <time>2025-05-14T11:04:04Z</time>
      </trkpt>
      <trkpt lat="42.402731012552977" lon="1.462910994887352">
        <ele>773.51999999999998</ele>
        <time>2025-05-14T11:04:05Z</time>
      </trkpt>
      <trkpt lat="42.40291097201407" lon="1.463046027347446">
        <ele>774.48000000000002</ele>
        <time>2025-05-14T11:04:06Z</time>
      </trkpt>
      <trkpt lat="42.403056984767318" lon="1.463235039263964">
        <ele>775.44000000000005</ele>
        <time>2025-05-14T11:04:07Z</time>
      </trkpt>
      <trkpt lat="42.403207020834088" lon="1.463430002331734">
        <ele>776.39999999999998</ele>
        <time>2025-05-14T11:04:08Z</time>
      </trkpt>
      <trkpt lat="42.403354961425066" lon="1.463623959571123">
        <ele>777.36000000000001</ele>
        <time>2025-05-14T11:04:09Z</time>
      </trkpt>
      <trkpt lat="42.403482031077147" lon="1.463847002014518">
        <ele>778.32000000000005</ele>
        <time>2025-05-14T11:04:10Z</time>
      </trkpt>
      <trkpt lat="42.403598036617041" lon="1.464090999215841">
        <ele>779.76999999999998</ele>
        <time>2025-05-14T11:04:11Z</time>
      </trkpt>
      <trkpt lat="42.405069982632995" lon="1.466931039467454">
        <ele>789.38</ele>
        <time>2025-05-14T11:04:23Z</time>
      </trkpt>
      <trkpt lat="42.406273959204555" lon="1.468516979366541">
        <ele>792.74000000000001</ele>
        <time>2025-05-14T11:04:31Z</time>
      </trkpt>
      <trkpt lat="42.407264029607177" lon="1.469020983204246">
        <ele>793.22000000000003</ele>
        <time>2025-05-14T11:04:36Z</time>
      </trkpt>
      <trkpt lat="42.407683962956071" lon="1.469099018722773">
        <ele>792.74000000000001</ele>
        <time>2025-05-14T11:04:38Z</time>
      </trkpt>
      <trkpt lat="42.409163033589721" lon="1.468930039554834">
        <ele>793.22000000000003</ele>
        <time>2025-05-14T11:04:45Z</time>
      </trkpt>
      <trkpt lat="42.410776969045401" lon="1.468360992148519">
        <ele>796.59000000000003</ele>
        <time>2025-05-14T11:04:53Z</time>
      </trkpt>
      <trkpt lat="42.411764021962881" lon="1.467301016673446">
        <ele>802.36000000000001</ele>
        <time>2025-05-14T11:04:59Z</time>
      </trkpt>
      <trkpt lat="42.412634985521436" lon="1.465661013498902">
        <ele>806.20000000000005</ele>
        <time>2025-05-14T11:05:06Z</time>
      </trkpt>
      <trkpt lat="42.412924999371171" lon="1.465238984674215">
        <ele>806.67999999999995</ele>
        <time>2025-05-14T11:05:08Z</time>
      </trkpt>
      <trkpt lat="42.413096996024251" lon="1.465068999677897">
        <ele>806.67999999999995</ele>
        <time>2025-05-14T11:05:09Z</time>
      </trkpt>
      <trkpt lat="42.413275027647614" lon="1.464912006631494">
        <ele>806.67999999999995</ele>
        <time>2025-05-14T11:05:10Z</time>
      </trkpt>
      <trkpt lat="42.413452975451946" lon="1.464755013585091">
        <ele>806.20000000000005</ele>
        <time>2025-05-14T11:05:11Z</time>
      </trkpt>
      <trkpt lat="42.413648022338748" lon="1.464642025530338">
        <ele>806.20000000000005</ele>
        <time>2025-05-14T11:05:12Z</time>
      </trkpt>
      <trkpt lat="42.41384600289166" lon="1.464555021375418">
        <ele>806.20000000000005</ele>
        <time>2025-05-14T11:05:13Z</time>
      </trkpt>
      <trkpt lat="42.414050018414855" lon="1.464499030262232">
        <ele>806.20000000000005</ele>
        <time>2025-05-14T11:05:14Z</time>
      </trkpt>
      <trkpt lat="42.41425403393805" lon="1.464443961158395">
        <ele>805.72000000000003</ele>
        <time>2025-05-14T11:05:15Z</time>
      </trkpt>
      <trkpt lat="42.414458971470594" lon="1.464400039985776">
        <ele>806.20000000000005</ele>
        <time>2025-05-14T11:05:16Z</time>
      </trkpt>
      <trkpt lat="42.414658963680267" lon="1.464400039985776">
        <ele>806.20000000000005</ele>
        <time>2025-05-14T11:05:17Z</time>
      </trkpt>
      <trkpt lat="42.414854010567069" lon="1.464440021663904">
        <ele>807.15999999999997</ele>
        <time>2025-05-14T11:05:18Z</time>
      </trkpt>
      <trkpt lat="42.415058026090264" lon="1.464511016383767">
        <ele>807.63999999999999</ele>
        <time>2025-05-14T11:05:19Z</time>
      </trkpt>
      <trkpt lat="42.416903972625732" lon="1.465001022443175">
        <ele>816.29999999999995</ele>
        <time>2025-05-14T11:05:28Z</time>
      </trkpt>
      <trkpt lat="42.417766973376274" lon="1.464860960841179">
        <ele>819.17999999999995</ele>
        <time>2025-05-14T11:05:32Z</time>
      </trkpt>
      <trkpt lat="42.417968977242708" lon="1.464763982221484">
        <ele>819.65999999999997</ele>
        <time>2025-05-14T11:05:33Z</time>
      </trkpt>
      <trkpt lat="42.418168969452381" lon="1.46466800943017">
        <ele>820.13999999999999</ele>
        <time>2025-05-14T11:05:34Z</time>
      </trkpt>
      <trkpt lat="42.420220021158457" lon="1.463120961561799">
        <ele>824.47000000000003</ele>
        <time>2025-05-14T11:05:45Z</time>
      </trkpt>
      <trkpt lat="42.421556012704968" lon="1.462330967187882">
        <ele>821.58000000000004</ele>
        <time>2025-05-14T11:05:52Z</time>
      </trkpt>
      <trkpt lat="42.423231974244118" lon="1.462104991078377">
        <ele>819.65999999999997</ele>
        <time>2025-05-14T11:06:00Z</time>
      </trkpt>
      <trkpt lat="42.424325980246067" lon="1.461817994713783">
        <ele>821.10000000000002</ele>
        <time>2025-05-14T11:06:07Z</time>
      </trkpt>
      <trkpt lat="42.425561975687742" lon="1.461826041340828">
        <ele>825.42999999999995</ele>
        <time>2025-05-14T11:06:14Z</time>
      </trkpt>
      <trkpt lat="42.425850983709097" lon="1.46191799081862">
        <ele>827.35000000000002</ele>
        <time>2025-05-14T11:06:16Z</time>
      </trkpt>
      <trkpt lat="42.425972018390894" lon="1.462021004408598">
        <ele>828.78999999999996</ele>
        <time>2025-05-14T11:06:17Z</time>
      </trkpt>
      <trkpt lat="42.426063967868686" lon="1.462128041312099">
        <ele>829.75999999999999</ele>
        <time>2025-05-14T11:06:18Z</time>
      </trkpt>
      <trkpt lat="42.426211992278695" lon="1.462299032136798">
        <ele>832.15999999999997</ele>
        <time>2025-05-14T11:06:20Z</time>
      </trkpt>
      <trkpt lat="42.426273012533784" lon="1.462370026856661">
        <ele>832.63999999999999</ele>
        <time>2025-05-14T11:06:21Z</time>
      </trkpt>
      <trkpt lat="42.426321040838957" lon="1.462444961071014">
        <ele>833.12</ele>
        <time>2025-05-14T11:06:22Z</time>
      </trkpt>
      <trkpt lat="42.426364040002227" lon="1.462539006024599">
        <ele>833.12</ele>
        <time>2025-05-14T11:06:23Z</time>
      </trkpt>
      <trkpt lat="42.426436962559819" lon="1.462644031271339">
        <ele>833.60000000000002</ele>
        <time>2025-05-14T11:06:24Z</time>
      </trkpt>
      <trkpt lat="42.426522960886359" lon="1.462655011564493">
        <ele>833.60000000000002</ele>
        <time>2025-05-14T11:06:25Z</time>
      </trkpt>
      <trkpt lat="42.426614994183183" lon="1.462686024606228">
        <ele>833.60000000000002</ele>
        <time>2025-05-14T11:06:26Z</time>
      </trkpt>
      <trkpt lat="42.426708033308387" lon="1.462752996012569">
        <ele>834.08000000000004</ele>
        <time>2025-05-14T11:06:27Z</time>
      </trkpt>
      <trkpt lat="42.426810963079333" lon="1.462828014045954">
        <ele>834.08000000000004</ele>
        <time>2025-05-14T11:06:28Z</time>
      </trkpt>
      <trkpt lat="42.426921017467976" lon="1.46290697157383">
        <ele>834.08000000000004</ele>
        <time>2025-05-14T11:06:29Z</time>
      </trkpt>
      <trkpt lat="42.427020007744431" lon="1.463015014305711">
        <ele>834.55999999999995</ele>
        <time>2025-05-14T11:06:30Z</time>
      </trkpt>
      <trkpt lat="42.427114974707365" lon="1.463149040937424">
        <ele>834.55999999999995</ele>
        <time>2025-05-14T11:06:31Z</time>
      </trkpt>
      <trkpt lat="42.42721002548933" lon="1.463283989578486">
        <ele>834.55999999999995</ele>
        <time>2025-05-14T11:06:32Z</time>
      </trkpt>
      <trkpt lat="42.427829029038548" lon="1.464297026395798">
        <ele>835.03999999999996</ele>
        <time>2025-05-14T11:06:40Z</time>
      </trkpt>
      <trkpt lat="42.428034972399473" lon="1.464639008045197">
        <ele>835.51999999999998</ele>
        <time>2025-05-14T11:06:41Z</time>
      </trkpt>
      <trkpt lat="42.428185008466244" lon="1.464872024953365">
        <ele>835.51999999999998</ele>
        <time>2025-05-14T11:06:42Z</time>
      </trkpt>
      <trkpt lat="42.429258981719613" lon="1.466332990676165">
        <ele>837.92999999999995</ele>
        <time>2025-05-14T11:06:51Z</time>
      </trkpt>
      <trkpt lat="42.429375993087888" lon="1.466433992609382">
        <ele>838.88999999999999</ele>
        <time>2025-05-14T11:06:52Z</time>
      </trkpt>
      <trkpt lat="42.429502978920937" lon="1.466515967622399">
        <ele>839.37</ele>
        <time>2025-05-14T11:06:53Z</time>
      </trkpt>
      <trkpt lat="42.430036989971995" lon="1.466739010065794">
        <ele>842.25</ele>
        <time>2025-05-14T11:06:58Z</time>
      </trkpt>
      <trkpt lat="42.430128017440438" lon="1.46675200201571">
        <ele>842.25</ele>
        <time>2025-05-14T11:07:00Z</time>
      </trkpt>
      <trkpt lat="42.430320968851447" lon="1.466773962602019">
        <ele>842.25</ele>
        <time>2025-05-14T11:07:01Z</time>
      </trkpt>
      <trkpt lat="42.430465975776315" lon="1.466770023107529">
        <ele>842.25</ele>
        <time>2025-05-14T11:07:03Z</time>
      </trkpt>
      <trkpt lat="42.430465975776315" lon="1.466770023107529">
        <ele>842.25</ele>
        <time>2025-05-14T11:07:04Z</time>
      </trkpt>
      <trkpt lat="42.431070981547236" lon="1.466637002304196">
        <ele>846.10000000000002</ele>
        <time>2025-05-14T11:07:14Z</time>
      </trkpt>
      <trkpt lat="42.431343980133533" lon="1.466699028387666">
        <ele>848.01999999999998</ele>
        <time>2025-05-14T11:07:23Z</time>
      </trkpt>
      <trkpt lat="42.431368958204985" lon="1.466706991195679">
        <ele>848.98000000000002</ele>
        <time>2025-05-14T11:07:34Z</time>
      </trkpt>
      <trkpt lat="42.431368958204985" lon="1.466706991195679">
        <ele>848.5</ele>
        <time>2025-05-14T11:08:16Z</time>
      </trkpt>
      <trkpt lat="42.431368958204985" lon="1.466706991195679">
        <ele>848.98000000000002</ele>
        <time>2025-05-14T11:09:08Z</time>
      </trkpt>
      <trkpt lat="42.431368958204985" lon="1.466706991195679">
        <ele>849.46000000000004</ele>
        <time>2025-05-14T11:09:56Z</time>
      </trkpt>
      <trkpt lat="42.431368958204985" lon="1.466706991195679">
        <ele>848.98000000000002</ele>
        <time>2025-05-14T11:10:29Z</time>
      </trkpt>
      <trkpt lat="42.431368958204985" lon="1.466706991195679">
        <ele>848.98000000000002</ele>
        <time>2025-05-14T11:10:34Z</time>
      </trkpt>
      <trkpt lat="42.43142100982368" lon="1.466653011739254">
        <ele>848.98000000000002</ele>
        <time>2025-05-14T11:10:36Z</time>
      </trkpt>
      <trkpt lat="42.431430984288454" lon="1.466653011739254">
        <ele>848.5</ele>
        <time>2025-05-14T11:10:37Z</time>
      </trkpt>
      <trkpt lat="42.431430984288454" lon="1.466653011739254">
        <ele>848.5</ele>
        <time>2025-05-14T11:10:38Z</time>
      </trkpt>
      <trkpt lat="42.431473983451724" lon="1.466588973999023">
        <ele>848.01999999999998</ele>
        <time>2025-05-14T11:10:39Z</time>
      </trkpt>
      <trkpt lat="42.431535003706813" lon="1.46664303727448">
        <ele>847.05999999999995</ele>
        <time>2025-05-14T11:10:40Z</time>
      </trkpt>
      <trkpt lat="42.431571967899799" lon="1.466676983982325">
        <ele>846.58000000000004</ele>
        <time>2025-05-14T11:10:41Z</time>
      </trkpt>
      <trkpt lat="42.43161303922534" lon="1.466714031994343">
        <ele>846.10000000000002</ele>
        <time>2025-05-14T11:10:42Z</time>
      </trkpt>
      <trkpt lat="42.431688979268074" lon="1.466782009229064">
        <ele>846.10000000000002</ele>
        <time>2025-05-14T11:10:43Z</time>
      </trkpt>
      <trkpt lat="42.431697025895119" lon="1.46679500117898">
        <ele>845.62</ele>
        <time>2025-05-14T11:10:44Z</time>
      </trkpt>
      <trkpt lat="42.431801967322826" lon="1.466965992003679">
        <ele>844.17999999999995</ele>
        <time>2025-05-14T11:10:47Z</time>
      </trkpt>
      <trkpt lat="42.431884026154876" lon="1.467130025848746">
        <ele>842.25</ele>
        <time>2025-05-14T11:10:55Z</time>
      </trkpt>
      <trkpt lat="42.431901963427663" lon="1.467165984213352">
        <ele>841.76999999999998</ele>
        <time>2025-05-14T11:11:04Z</time>
      </trkpt>
      <trkpt lat="42.431932976469398" lon="1.467227004468441">
        <ele>841.28999999999996</ele>
        <time>2025-05-14T11:11:08Z</time>
      </trkpt>
      <trkpt lat="42.431943034753203" lon="1.467247037217021">
        <ele>841.28999999999996</ele>
        <time>2025-05-14T11:11:09Z</time>
      </trkpt>
      <trkpt lat="42.43196097202599" lon="1.467282995581627">
        <ele>841.28999999999996</ele>
        <time>2025-05-14T11:11:10Z</time>
      </trkpt>
      <trkpt lat="42.431948985904455" lon="1.467368993908167">
        <ele>841.28999999999996</ele>
        <time>2025-05-14T11:11:11Z</time>
      </trkpt>
      <trkpt lat="42.431978993117809" lon="1.46742096170783">
        <ele>840.80999999999995</ele>
        <time>2025-05-14T11:11:12Z</time>
      </trkpt>
      <trkpt lat="42.432057028636336" lon="1.467555994167924">
        <ele>840.33000000000004</ele>
        <time>2025-05-14T11:11:15Z</time>
      </trkpt>
      <trkpt lat="42.432082006707788" lon="1.467601004987955">
        <ele>840.33000000000004</ele>
        <time>2025-05-14T11:11:16Z</time>
      </trkpt>
      <trkpt lat="42.432107990607619" lon="1.467646015807986">
        <ele>839.85000000000002</ele>
        <time>2025-05-14T11:11:17Z</time>
      </trkpt>
      <trkpt lat="42.43212902918458" lon="1.467683985829353">
        <ele>839.85000000000002</ele>
        <time>2025-05-14T11:11:18Z</time>
      </trkpt>
      <trkpt lat="42.432145960628986" lon="1.467712987214327">
        <ele>839.37</ele>
        <time>2025-05-14T11:11:19Z</time>
      </trkpt>
      <trkpt lat="42.432160964235663" lon="1.467739976942539">
        <ele>839.37</ele>
        <time>2025-05-14T11:11:20Z</time>
      </trkpt>
      <trkpt lat="42.43217596784234" lon="1.467766966670752">
        <ele>839.37</ele>
        <time>2025-05-14T11:11:21Z</time>
      </trkpt>
      <trkpt lat="42.432190971449018" lon="1.467792028561235">
        <ele>839.37</ele>
        <time>2025-05-14T11:11:22Z</time>
      </trkpt>
      <trkpt lat="42.432284010574222" lon="1.467835027724505">
        <ele>839.37</ele>
        <time>2025-05-14T11:11:25Z</time>
      </trkpt>
      <trkpt lat="42.432353999465704" lon="1.467940974980593">
        <ele>839.37</ele>
        <time>2025-05-14T11:11:29Z</time>
      </trkpt>
      <trkpt lat="42.432491965591908" lon="1.468185978010297">
        <ele>838.40999999999997</ele>
        <time>2025-05-14T11:11:36Z</time>
      </trkpt>
      <trkpt lat="42.432427005842328" lon="1.468355040997267">
        <ele>838.40999999999997</ele>
        <time>2025-05-14T11:11:37Z</time>
      </trkpt>
      <trkpt lat="42.432529013603926" lon="1.468537012115121">
        <ele>836.96000000000004</ele>
        <time>2025-05-14T11:11:38Z</time>
      </trkpt>
      <trkpt lat="42.432737974449992" lon="1.46875100210309">
        <ele>837.45000000000005</ele>
        <time>2025-05-14T11:11:39Z</time>
      </trkpt>
      <trkpt lat="42.432801006361842" lon="1.468840017914772">
        <ele>837.92999999999995</ele>
        <time>2025-05-14T11:11:40Z</time>
      </trkpt>
      <trkpt lat="42.432850040495396" lon="1.468904977664352">
        <ele>838.88999999999999</ele>
        <time>2025-05-14T11:11:41Z</time>
      </trkpt>
      <trkpt lat="42.432976020500064" lon="1.469077980145812">
        <ele>842.73000000000002</ele>
        <time>2025-05-14T11:11:44Z</time>
      </trkpt>
      <trkpt lat="42.433359995484352" lon="1.469504032284021">
        <ele>845.62</ele>
        <time>2025-05-14T11:11:52Z</time>
      </trkpt>
      <trkpt lat="42.433437025174499" lon="1.469619031995535">
        <ele>846.58000000000004</ele>
        <time>2025-05-14T11:11:59Z</time>
      </trkpt>
      <trkpt lat="42.433437025174499" lon="1.469619031995535">
        <ele>847.53999999999996</ele>
        <time>2025-05-14T11:12:44Z</time>
      </trkpt>
      <trkpt lat="42.43361497297883" lon="1.469881972298026">
        <ele>851.38</ele>
        <time>2025-05-14T11:12:59Z</time>
      </trkpt>
      <trkpt lat="42.434125011786819" lon="1.470756037160754">
        <ele>851.38</ele>
        <time>2025-05-14T11:13:08Z</time>
      </trkpt>
      <trkpt lat="42.434660028666258" lon="1.471788017079234">
        <ele>853.30999999999995</ele>
        <time>2025-05-14T11:13:18Z</time>
      </trkpt>
      <trkpt lat="42.434986000880599" lon="1.472282968461514">
        <ele>853.78999999999996</ele>
        <time>2025-05-14T11:13:27Z</time>
      </trkpt>
      <trkpt lat="42.435071999207139" lon="1.472408026456833">
        <ele>853.78999999999996</ele>
        <time>2025-05-14T11:13:28Z</time>
      </trkpt>
      <trkpt lat="42.435229998081923" lon="1.47263802587986">
        <ele>851.38</ele>
        <time>2025-05-14T11:13:33Z</time>
      </trkpt>
      <trkpt lat="42.435335023328662" lon="1.472792001441121">
        <ele>850.41999999999996</ele>
        <time>2025-05-14T11:13:38Z</time>
      </trkpt>
      <trkpt lat="42.435357989743352" lon="1.472826031967998">
        <ele>850.41999999999996</ele>
        <time>2025-05-14T11:13:39Z</time>
      </trkpt>
      <trkpt lat="42.435383973643184" lon="1.472861990332604">
        <ele>850.41999999999996</ele>
        <time>2025-05-14T11:13:40Z</time>
      </trkpt>
      <trkpt lat="42.435424961149693" lon="1.472920998930931">
        <ele>850.89999999999998</ele>
        <time>2025-05-14T11:13:41Z</time>
      </trkpt>
      <trkpt lat="42.435478018596768" lon="1.472972966730595">
        <ele>850.89999999999998</ele>
        <time>2025-05-14T11:13:42Z</time>
      </trkpt>
      <trkpt lat="42.435536021366715" lon="1.473022000864148">
        <ele>850.89999999999998</ele>
        <time>2025-05-14T11:13:43Z</time>
      </trkpt>
      <trkpt lat="42.435596035793424" lon="1.473072962835431">
        <ele>851.38</ele>
        <time>2025-05-14T11:13:44Z</time>
      </trkpt>
      <trkpt lat="42.436100961640477" lon="1.473593981936574">
        <ele>852.83000000000004</ele>
        <time>2025-05-14T11:13:52Z</time>
      </trkpt>
      <trkpt lat="42.436154019087553" lon="1.473685009405017">
        <ele>852.83000000000004</ele>
        <time>2025-05-14T11:13:53Z</time>
      </trkpt>
      <trkpt lat="42.436210010200739" lon="1.473785005509853">
        <ele>852.83000000000004</ele>
        <time>2025-05-14T11:13:54Z</time>
      </trkpt>
      <trkpt lat="42.436262983828783" lon="1.473879972472787">
        <ele>852.83000000000004</ele>
        <time>2025-05-14T11:13:55Z</time>
      </trkpt>
      <trkpt lat="42.436309000477195" lon="1.473966976627708">
        <ele>852.35000000000002</ele>
        <time>2025-05-14T11:13:56Z</time>
      </trkpt>
      <trkpt lat="42.43634101934731" lon="1.474047023802996">
        <ele>852.35000000000002</ele>
        <time>2025-05-14T11:13:57Z</time>
      </trkpt>
      <trkpt lat="42.436369014903903" lon="1.474115001037717">
        <ele>852.35000000000002</ele>
        <time>2025-05-14T11:13:58Z</time>
      </trkpt>
      <trkpt lat="42.436324004083872" lon="1.474270988255739">
        <ele>852.35000000000002</ele>
        <time>2025-05-14T11:13:59Z</time>
      </trkpt>
      <trkpt lat="42.436335990205407" lon="1.474320022389293">
        <ele>852.83000000000004</ele>
        <time>2025-05-14T11:14:00Z</time>
      </trkpt>
      <trkpt lat="42.436357028782368" lon="1.47440199740231">
        <ele>852.83000000000004</ele>
        <time>2025-05-14T11:14:01Z</time>
      </trkpt>
      <trkpt lat="42.436443027108908" lon="1.474564019590616">
        <ele>852.83000000000004</ele>
        <time>2025-05-14T11:14:03Z</time>
      </trkpt>
      <trkpt lat="42.436459036543965" lon="1.474669966846705">
        <ele>852.83000000000004</ele>
        <time>2025-05-14T11:14:04Z</time>
      </trkpt>
      <trkpt lat="42.436478985473514" lon="1.474785972386599">
        <ele>852.83000000000004</ele>
        <time>2025-05-14T11:14:05Z</time>
      </trkpt>
      <trkpt lat="42.436628015711904" lon="1.475289976224303">
        <ele>853.30999999999995</ele>
        <time>2025-05-14T11:14:09Z</time>
      </trkpt>
      <trkpt lat="42.436677971854806" lon="1.475427020341158">
        <ele>853.30999999999995</ele>
        <time>2025-05-14T11:14:10Z</time>
      </trkpt>
      <trkpt lat="42.436739997938275" lon="1.475560963153839">
        <ele>853.30999999999995</ele>
        <time>2025-05-14T11:14:11Z</time>
      </trkpt>
      <trkpt lat="42.436739997938275" lon="1.475560963153839">
        <ele>853.30999999999995</ele>
        <time>2025-05-14T11:14:12Z</time>
      </trkpt>
      <trkpt lat="42.436902020126581" lon="1.475790040567517">
        <ele>854.26999999999998</ele>
        <time>2025-05-14T11:14:13Z</time>
      </trkpt>
      <trkpt lat="42.437003022059798" lon="1.475873021408916">
        <ele>854.26999999999998</ele>
        <time>2025-05-14T11:14:14Z</time>
      </trkpt>
      <trkpt lat="42.437116010114551" lon="1.475956002250314">
        <ele>854.75</ele>
        <time>2025-05-14T11:14:15Z</time>
      </trkpt>
      <trkpt lat="42.437227992340922" lon="1.476036971434951">
        <ele>854.75</ele>
        <time>2025-05-14T11:14:16Z</time>
      </trkpt>
      <trkpt lat="42.43816701695323" lon="1.476410971954465">
        <ele>856.19000000000005</ele>
        <time>2025-05-14T11:14:25Z</time>
      </trkpt>
      <trkpt lat="42.438347982242703" lon="1.47661498747766">
        <ele>856.66999999999996</ele>
        <time>2025-05-14T11:14:27Z</time>
      </trkpt>
      <trkpt lat="42.438361980021" lon="1.476609958335757">
        <ele>856.66999999999996</ele>
        <time>2025-05-14T11:14:28Z</time>
      </trkpt>
      <trkpt lat="42.43851101025939" lon="1.476466963067651">
        <ele>856.66999999999996</ele>
        <time>2025-05-14T11:14:29Z</time>
      </trkpt>
      <trkpt lat="42.438612012192607" lon="1.476480038836598">
        <ele>857.14999999999998</ele>
        <time>2025-05-14T11:14:30Z</time>
      </trkpt>
      <trkpt lat="42.438719971105456" lon="1.476509962230921">
        <ele>857.14999999999998</ele>
        <time>2025-05-14T11:14:31Z</time>
      </trkpt>
      <trkpt lat="42.439787993207574" lon="1.476941965520382">
        <ele>862.91999999999996</ele>
        <time>2025-05-14T11:14:40Z</time>
      </trkpt>
      <trkpt lat="42.441365970298648" lon="1.477922983467579">
        <ele>874.46000000000004</ele>
        <time>2025-05-14T11:14:52Z</time>
      </trkpt>
      <trkpt lat="42.441487004980445" lon="1.478060027584434">
        <ele>874.46000000000004</ele>
        <time>2025-05-14T11:14:53Z</time>
      </trkpt>
      <trkpt lat="42.441608961671591" lon="1.478196987882257">
        <ele>874.46000000000004</ele>
        <time>2025-05-14T11:14:54Z</time>
      </trkpt>
      <trkpt lat="42.442257972434163" lon="1.47921203635633">
        <ele>872.04999999999995</ele>
        <time>2025-05-14T11:15:00Z</time>
      </trkpt>
      <trkpt lat="42.442397028207779" lon="1.479342961683869">
        <ele>871.57000000000005</ele>
        <time>2025-05-14T11:15:01Z</time>
      </trkpt>
      <trkpt lat="42.442540023475885" lon="1.47947003133595">
        <ele>871.09000000000003</ele>
        <time>2025-05-14T11:15:02Z</time>
      </trkpt>
      <trkpt lat="42.443479970097542" lon="1.480392962694168">
        <ele>869.64999999999998</ele>
        <time>2025-05-14T11:15:09Z</time>
      </trkpt>
      <trkpt lat="42.444259990006685" lon="1.481279013678432">
        <ele>870.61000000000001</ele>
        <time>2025-05-14T11:15:17Z</time>
      </trkpt>
      <trkpt lat="42.445165989920497" lon="1.481853006407619">
        <ele>870.61000000000001</ele>
        <time>2025-05-14T11:15:26Z</time>
      </trkpt>
      <trkpt lat="42.445362964645028" lon="1.481915032491088">
        <ele>871.09000000000003</ele>
        <time>2025-05-14T11:15:28Z</time>
      </trkpt>
      <trkpt lat="42.446319004520774" lon="1.482129022479057">
        <ele>875.41999999999996</ele>
        <time>2025-05-14T11:15:37Z</time>
      </trkpt>
      <trkpt lat="42.446416988968849" lon="1.482142014428973">
        <ele>875.89999999999998</ele>
        <time>2025-05-14T11:15:38Z</time>
      </trkpt>
      <trkpt lat="42.447481993585825" lon="1.482123993337154">
        <ele>877.82000000000005</ele>
        <time>2025-05-14T11:15:46Z</time>
      </trkpt>
      <trkpt lat="42.447789022698998" lon="1.482201023027301">
        <ele>878.29999999999995</ele>
        <time>2025-05-14T11:15:48Z</time>
      </trkpt>
      <trkpt lat="42.447936041280627" lon="1.482237987220287">
        <ele>878.77999999999997</ele>
        <time>2025-05-14T11:15:49Z</time>
      </trkpt>
      <trkpt lat="42.44809202849865" lon="1.482279980555177">
        <ele>879.25999999999999</ele>
        <time>2025-05-14T11:15:50Z</time>
      </trkpt>
      <trkpt lat="42.44863098487258" lon="1.482721036300063">
        <ele>880.22000000000003</ele>
        <time>2025-05-14T11:15:54Z</time>
      </trkpt>
      <trkpt lat="42.448751013725996" lon="1.482860008254647">
        <ele>880.22000000000003</ele>
        <time>2025-05-14T11:15:55Z</time>
      </trkpt>
      <trkpt lat="42.448852015659213" lon="1.483024964109063">
        <ele>880.71000000000004</ele>
        <time>2025-05-14T11:15:56Z</time>
      </trkpt>
      <trkpt lat="42.449895981699228" lon="1.484793964773417">
        <ele>888.88</ele>
        <time>2025-05-14T11:16:06Z</time>
      </trkpt>
      <trkpt lat="42.450617998838425" lon="1.485713962465525">
        <ele>896.09000000000003</ele>
        <time>2025-05-14T11:16:13Z</time>
      </trkpt>
      <trkpt lat="42.451198026537895" lon="1.486311005428433">
        <ele>898.97000000000003</ele>
        <time>2025-05-14T11:16:18Z</time>
      </trkpt>
      <trkpt lat="42.452102014794946" lon="1.486708978191018">
        <ele>901.85000000000002</ele>
        <time>2025-05-14T11:16:27Z</time>
      </trkpt>
      <trkpt lat="42.452410971745849" lon="1.486834958195686">
        <ele>901.37</ele>
        <time>2025-05-14T11:16:31Z</time>
      </trkpt>
      <trkpt lat="42.452480960637331" lon="1.486974013969302">
        <ele>901.37</ele>
        <time>2025-05-14T11:16:32Z</time>
      </trkpt>
      <trkpt lat="42.452480960637331" lon="1.486974013969302">
        <ele>900.88999999999999</ele>
        <time>2025-05-14T11:16:33Z</time>
      </trkpt>
      <trkpt lat="42.452522031962872" lon="1.487024975940585">
        <ele>900.88999999999999</ele>
        <time>2025-05-14T11:16:34Z</time>
      </trkpt>
      <trkpt lat="42.452566958963871" lon="1.487080967053771">
        <ele>900.88999999999999</ele>
        <time>2025-05-14T11:16:35Z</time>
      </trkpt>
      <trkpt lat="42.452619010582566" lon="1.487080967053771">
        <ele>900.88999999999999</ele>
        <time>2025-05-14T11:16:36Z</time>
      </trkpt>
      <trkpt lat="42.452673995867372" lon="1.487080967053771">
        <ele>900.40999999999997</ele>
        <time>2025-05-14T11:16:37Z</time>
      </trkpt>
      <trkpt lat="42.452673995867372" lon="1.487080967053771">
        <ele>900.40999999999997</ele>
        <time>2025-05-14T11:16:38Z</time>
      </trkpt>
      <trkpt lat="42.452815985307097" lon="1.487005027011037">
        <ele>900.40999999999997</ele>
        <time>2025-05-14T11:16:39Z</time>
      </trkpt>
      <trkpt lat="42.452880023047328" lon="1.487024975940585">
        <ele>900.40999999999997</ele>
        <time>2025-05-14T11:16:40Z</time>
      </trkpt>
      <trkpt lat="42.453309008851647" lon="1.487136036157608">
        <ele>904.25999999999999</ele>
        <time>2025-05-14T11:16:46Z</time>
      </trkpt>
      <trkpt lat="42.45434601791203" lon="1.486929003149271">
        <ele>902.82000000000005</ele>
        <time>2025-05-14T11:16:56Z</time>
      </trkpt>
      <trkpt lat="42.45445498265326" lon="1.486895978450775">
        <ele>902.82000000000005</ele>
        <time>2025-05-14T11:16:57Z</time>
      </trkpt>
      <trkpt lat="42.454565959051251" lon="1.48686203174293">
        <ele>902.33000000000004</ele>
        <time>2025-05-14T11:16:58Z</time>
      </trkpt>
      <trkpt lat="42.455488974228501" lon="1.486498005688191">
        <ele>903.77999999999997</ele>
        <time>2025-05-14T11:17:06Z</time>
      </trkpt>
      <trkpt lat="42.455619983375072" lon="1.486490964889526">
        <ele>904.25999999999999</ele>
        <time>2025-05-14T11:17:07Z</time>
      </trkpt>
      <trkpt lat="42.455757027491927" lon="1.486484007909894">
        <ele>904.74000000000001</ele>
        <time>2025-05-14T11:17:08Z</time>
      </trkpt>
      <trkpt lat="42.455890970304608" lon="1.486492976546288">
        <ele>905.22000000000003</ele>
        <time>2025-05-14T11:17:09Z</time>
      </trkpt>
      <trkpt lat="42.456030026078224" lon="1.4865199662745">
        <ele>905.70000000000005</ele>
        <time>2025-05-14T11:17:10Z</time>
      </trkpt>
      <trkpt lat="42.456170003861189" lon="1.486550979316235">
        <ele>906.17999999999995</ele>
        <time>2025-05-14T11:17:11Z</time>
      </trkpt>
      <trkpt lat="42.457026969641447" lon="1.486849039793015">
        <ele>908.58000000000004</ele>
        <time>2025-05-14T11:17:17Z</time>
      </trkpt>
      <trkpt lat="42.45799801312387" lon="1.487597962841392">
        <ele>910.99000000000001</ele>
        <time>2025-05-14T11:17:25Z</time>
      </trkpt>
      <trkpt lat="42.458318034186959" lon="1.487917983904481">
        <ele>910.50999999999999</ele>
        <time>2025-05-14T11:17:29Z</time>
      </trkpt>
      <trkpt lat="42.458361033350229" lon="1.488111019134522">
        <ele>910.50999999999999</ele>
        <time>2025-05-14T11:17:30Z</time>
      </trkpt>
      <trkpt lat="42.45851400308311" lon="1.488091992214322">
        <ele>910.50999999999999</ele>
        <time>2025-05-14T11:17:31Z</time>
      </trkpt>
      <trkpt lat="42.458610981702805" lon="1.488168016076088">
        <ele>910.50999999999999</ele>
        <time>2025-05-14T11:17:32Z</time>
      </trkpt>
      <trkpt lat="42.458718018606305" lon="1.488250996917486">
        <ele>910.50999999999999</ele>
        <time>2025-05-14T11:17:33Z</time>
      </trkpt>
      <trkpt lat="42.458830000832677" lon="1.488338001072407">
        <ele>910.50999999999999</ele>
        <time>2025-05-14T11:17:34Z</time>
      </trkpt>
      <trkpt lat="42.45894500054419" lon="1.48843196220696">
        <ele>910.02999999999997</ele>
        <time>2025-05-14T11:17:35Z</time>
      </trkpt>
      <trkpt lat="42.459797021001577" lon="1.489104023203254">
        <ele>906.17999999999995</ele>
        <time>2025-05-14T11:17:43Z</time>
      </trkpt>
      <trkpt lat="42.460976019501686" lon="1.489811958745122">
        <ele>902.33000000000004</ele>
        <time>2025-05-14T11:17:54Z</time>
      </trkpt>
      <trkpt lat="42.461236026138067" lon="1.490041958168149">
        <ele>902.33000000000004</ele>
        <time>2025-05-14T11:17:56Z</time>
      </trkpt>
      <trkpt lat="42.461365023627877" lon="1.490171039476991">
        <ele>903.77999999999997</ele>
        <time>2025-05-14T11:17:59Z</time>
      </trkpt>
      <trkpt lat="42.461579013615847" lon="1.490331972017884">
        <ele>904.25999999999999</ele>
        <time>2025-05-14T11:18:00Z</time>
      </trkpt>
      <trkpt lat="42.461580019444227" lon="1.490331972017884">
        <ele>904.74000000000001</ele>
        <time>2025-05-14T11:18:01Z</time>
      </trkpt>
      <trkpt lat="42.46169401332736" lon="1.490381006151438">
        <ele>905.22000000000003</ele>
        <time>2025-05-14T11:18:02Z</time>
      </trkpt>
      <trkpt lat="42.46192803606391" lon="1.490421993657947">
        <ele>905.70000000000005</ele>
        <time>2025-05-14T11:18:03Z</time>
      </trkpt>
      <trkpt lat="42.462044963613153" lon="1.490392992272973">
        <ele>905.70000000000005</ele>
        <time>2025-05-14T11:18:04Z</time>
      </trkpt>
      <trkpt lat="42.462162980809808" lon="1.490362985059619">
        <ele>906.17999999999995</ele>
        <time>2025-05-14T11:18:05Z</time>
      </trkpt>
      <trkpt lat="42.462853984907269" lon="1.490182019770145">
        <ele>908.58000000000004</ele>
        <time>2025-05-14T11:18:12Z</time>
      </trkpt>
      <trkpt lat="42.462917016819119" lon="1.490166010335088">
        <ele>909.05999999999995</ele>
        <time>2025-05-14T11:18:13Z</time>
      </trkpt>
      <trkpt lat="42.462962027639151" lon="1.490154024213553">
        <ele>910.50999999999999</ele>
        <time>2025-05-14T11:18:14Z</time>
      </trkpt>
      <trkpt lat="42.462994968518615" lon="1.490144971758127">
        <ele>911.47000000000003</ele>
        <time>2025-05-14T11:18:15Z</time>
      </trkpt>
      <trkpt lat="42.463013995438814" lon="1.490140026435256">
        <ele>912.90999999999997</ele>
        <time>2025-05-14T11:18:16Z</time>
      </trkpt>
      <trkpt lat="42.463013995438814" lon="1.490140026435256">
        <ele>913.87</ele>
        <time>2025-05-14T11:18:27Z</time>
      </trkpt>
      <trkpt lat="42.463013995438814" lon="1.490140026435256">
        <ele>914.83000000000004</ele>
        <time>2025-05-14T11:19:08Z</time>
      </trkpt>
      <trkpt lat="42.463208958506584" lon="1.490094009786844">
        <ele>915.78999999999996</ele>
        <time>2025-05-14T11:19:33Z</time>
      </trkpt>
      <trkpt lat="42.463286994025111" lon="1.490074982866645">
        <ele>915.78999999999996</ele>
        <time>2025-05-14T11:19:34Z</time>
      </trkpt>
      <trkpt lat="42.464145971462131" lon="1.489881025627255">
        <ele>914.83000000000004</ele>
        <time>2025-05-14T11:19:42Z</time>
      </trkpt>
      <trkpt lat="42.464797999709845" lon="1.48982796818018">
        <ele>912.90999999999997</ele>
        <time>2025-05-14T11:19:48Z</time>
      </trkpt>
      <trkpt lat="42.464971002191305" lon="1.489897035062313">
        <ele>912.42999999999995</ele>
        <time>2025-05-14T11:19:50Z</time>
      </trkpt>
      <trkpt lat="42.465061023831367" lon="1.48995696566999">
        <ele>912.90999999999997</ele>
        <time>2025-05-14T11:19:51Z</time>
      </trkpt>
      <trkpt lat="42.465139981359243" lon="1.490027960389853">
        <ele>912.90999999999997</ele>
        <time>2025-05-14T11:19:52Z</time>
      </trkpt>
      <trkpt lat="42.465226985514164" lon="1.49010700173676">
        <ele>913.38999999999999</ele>
        <time>2025-05-14T11:19:53Z</time>
      </trkpt>
      <trkpt lat="42.465284988284111" lon="1.49019199423492">
        <ele>913.87</ele>
        <time>2025-05-14T11:19:54Z</time>
      </trkpt>
      <trkpt lat="42.465353971347213" lon="1.490291990339756">
        <ele>913.87</ele>
        <time>2025-05-14T11:19:55Z</time>
      </trkpt>
      <trkpt lat="42.465420020744205" lon="1.49038796313107">
        <ele>914.35000000000002</ele>
        <time>2025-05-14T11:19:56Z</time>
      </trkpt>
      <trkpt lat="42.465485986322165" lon="1.490485025569797">
        <ele>913.87</ele>
        <time>2025-05-14T11:19:57Z</time>
      </trkpt>
      <trkpt lat="42.465784968808293" lon="1.490904958918691">
        <ele>913.87</ele>
        <time>2025-05-14T11:20:01Z</time>
      </trkpt>
      <trkpt lat="42.466131979599595" lon="1.491391025483608">
        <ele>915.30999999999995</ele>
        <time>2025-05-14T11:20:08Z</time>
      </trkpt>
      <trkpt lat="42.466256031766534" lon="1.491564027965069">
        <ele>915.78999999999996</ele>
        <time>2025-05-14T11:20:12Z</time>
      </trkpt>
      <trkpt lat="42.466376982629299" lon="1.491725966334343">
        <ele>916.75</ele>
        <time>2025-05-14T11:20:15Z</time>
      </trkpt>
      <trkpt lat="42.466565994545817" lon="1.491864016279578">
        <ele>917.72000000000003</ele>
        <time>2025-05-14T11:20:18Z</time>
      </trkpt>
      <trkpt lat="42.466627014800906" lon="1.491905003786087">
        <ele>918.67999999999995</ele>
        <time>2025-05-14T11:20:19Z</time>
      </trkpt>
      <trkpt lat="42.466683005914092" lon="1.491940962150693">
        <ele>919.63999999999999</ele>
        <time>2025-05-14T11:20:20Z</time>
      </trkpt>
      <trkpt lat="42.466740002855659" lon="1.491973986849189">
        <ele>920.60000000000002</ele>
        <time>2025-05-14T11:20:21Z</time>
      </trkpt>
      <trkpt lat="42.466787025332451" lon="1.491999970749021">
        <ele>921.08000000000004</ele>
        <time>2025-05-14T11:20:22Z</time>
      </trkpt>
      <trkpt lat="42.466878974810243" lon="1.492101978510618">
        <ele>922.51999999999998</ele>
        <time>2025-05-14T11:20:24Z</time>
      </trkpt>
      <trkpt lat="42.466878974810243" lon="1.492101978510618">
        <ele>923.48000000000002</ele>
        <time>2025-05-14T11:20:25Z</time>
      </trkpt>
      <trkpt lat="42.466878974810243" lon="1.492101978510618">
        <ele>924.45000000000005</ele>
        <time>2025-05-14T11:20:26Z</time>
      </trkpt>
      <trkpt lat="42.46693798340857" lon="1.492101978510618">
        <ele>925.40999999999997</ele>
        <time>2025-05-14T11:20:28Z</time>
      </trkpt>
      <trkpt lat="42.466995986178517" lon="1.492101978510618">
        <ele>925.88999999999999</ele>
        <time>2025-05-14T11:20:29Z</time>
      </trkpt>
      <trkpt lat="42.467061029747128" lon="1.491994019597769">
        <ele>925.88999999999999</ele>
        <time>2025-05-14T11:20:30Z</time>
      </trkpt>
      <trkpt lat="42.467073015868664" lon="1.491952026262879">
        <ele>926.37</ele>
        <time>2025-05-14T11:20:31Z</time>
      </trkpt>
      <trkpt lat="42.467071004211903" lon="1.491733007133007">
        <ele>926.85000000000002</ele>
        <time>2025-05-14T11:20:32Z</time>
      </trkpt>
      <trkpt lat="42.467120038345456" lon="1.491677016019821">
        <ele>927.33000000000004</ele>
        <time>2025-05-14T11:20:33Z</time>
      </trkpt>
      <trkpt lat="42.467165971174836" lon="1.491623958572745">
        <ele>927.80999999999995</ele>
        <time>2025-05-14T11:20:34Z</time>
      </trkpt>
      <trkpt lat="42.467179968953133" lon="1.4916090387851">
        <ele>927.80999999999995</ele>
        <time>2025-05-14T11:20:35Z</time>
      </trkpt>
      <trkpt lat="42.467288011685014" lon="1.491584982722998">
        <ele>928.28999999999996</ele>
        <time>2025-05-14T11:20:36Z</time>
      </trkpt>
      <trkpt lat="42.467371998354793" lon="1.49156603962183">
        <ele>928.28999999999996</ele>
        <time>2025-05-14T11:20:37Z</time>
      </trkpt>
      <trkpt lat="42.467465959489346" lon="1.49156603962183">
        <ele>928.28999999999996</ele>
        <time>2025-05-14T11:20:38Z</time>
      </trkpt>
      <trkpt lat="42.468341030180454" lon="1.491701994091272">
        <ele>929.25</ele>
        <time>2025-05-14T11:20:45Z</time>
      </trkpt>
      <trkpt lat="42.469327999278903" lon="1.492003994062543">
        <ele>931.16999999999996</ele>
        <time>2025-05-14T11:20:52Z</time>
      </trkpt>
      <trkpt lat="42.469483986496925" lon="1.492016986012459">
        <ele>931.64999999999998</ele>
        <time>2025-05-14T11:20:53Z</time>
      </trkpt>
      <trkpt lat="42.469867961481214" lon="1.492013968527317">
        <ele>933.10000000000002</ele>
        <time>2025-05-14T11:20:55Z</time>
      </trkpt>
      <trkpt lat="42.474231999367476" lon="1.490553002804518">
        <ele>934.05999999999995</ele>
        <time>2025-05-14T11:21:24Z</time>
      </trkpt>
      <trkpt lat="42.474738014861941" lon="1.490800017490983">
        <ele>932.62</ele>
        <time>2025-05-14T11:21:28Z</time>
      </trkpt>
      <trkpt lat="42.474872963503003" lon="1.490818038582802">
        <ele>932.62</ele>
        <time>2025-05-14T11:21:29Z</time>
      </trkpt>
      <trkpt lat="42.475001038983464" lon="1.490835975855589">
        <ele>933.10000000000002</ele>
        <time>2025-05-14T11:21:30Z</time>
      </trkpt>
      <trkpt lat="42.475161971524358" lon="1.49085802026093">
        <ele>934.53999999999996</ele>
        <time>2025-05-14T11:21:31Z</time>
      </trkpt>
      <trkpt lat="42.475269008427858" lon="1.49085802026093">
        <ele>935.01999999999998</ele>
        <time>2025-05-14T11:21:32Z</time>
      </trkpt>
      <trkpt lat="42.475346960127354" lon="1.490851985290647">
        <ele>935.5</ele>
        <time>2025-05-14T11:21:33Z</time>
      </trkpt>
      <trkpt lat="42.476212978363037" lon="1.490701027214527">
        <ele>935.5</ele>
        <time>2025-05-14T11:21:42Z</time>
      </trkpt>
      <trkpt lat="42.476272992789745" lon="1.490680994465947">
        <ele>935.98000000000002</ele>
        <time>2025-05-14T11:21:43Z</time>
      </trkpt>
      <trkpt lat="42.476319009438157" lon="1.490666996687651">
        <ele>936.46000000000004</ele>
        <time>2025-05-14T11:21:44Z</time>
      </trkpt>
      <trkpt lat="42.476371983066201" lon="1.490650987252593">
        <ele>937.41999999999996</ele>
        <time>2025-05-14T11:21:45Z</time>
      </trkpt>
      <trkpt lat="42.476470973342657" lon="1.49062198586762">
        <ele>937.89999999999998</ele>
        <time>2025-05-14T11:21:46Z</time>
      </trkpt>
      <trkpt lat="42.476525958627462" lon="1.49062198586762">
        <ele>938.86000000000001</ele>
        <time>2025-05-14T11:21:47Z</time>
      </trkpt>
      <trkpt lat="42.476598965004086" lon="1.49062198586762">
        <ele>939.83000000000004</ele>
        <time>2025-05-14T11:21:48Z</time>
      </trkpt>
      <trkpt lat="42.476680018007755" lon="1.49062198586762">
        <ele>940.78999999999996</ele>
        <time>2025-05-14T11:21:49Z</time>
      </trkpt>
      <trkpt lat="42.477429024875164" lon="1.490501035004854">
        <ele>943.19000000000005</ele>
        <time>2025-05-14T11:21:56Z</time>
      </trkpt>
      <trkpt lat="42.478486988693476" lon="1.48991103284061">
        <ele>941.26999999999998</ele>
        <time>2025-05-14T11:22:06Z</time>
      </trkpt>
      <trkpt lat="42.479644026607275" lon="1.489382972940803">
        <ele>940.30999999999995</ele>
        <time>2025-05-14T11:22:16Z</time>
      </trkpt>
      <trkpt lat="42.479777969419956" lon="1.489368975162506">
        <ele>940.78999999999996</ele>
        <time>2025-05-14T11:22:17Z</time>
      </trkpt>
      <trkpt lat="42.479906966909766" lon="1.489359000697732">
        <ele>941.26999999999998</ele>
        <time>2025-05-14T11:22:18Z</time>
      </trkpt>
      <trkpt lat="42.480036970227957" lon="1.489366963505745">
        <ele>941.75</ele>
        <time>2025-05-14T11:22:19Z</time>
      </trkpt>
      <trkpt lat="42.480174014344811" lon="1.489384984597564">
        <ele>941.75</ele>
        <time>2025-05-14T11:22:20Z</time>
      </trkpt>
      <trkpt lat="42.481218986213207" lon="1.489538960158825">
        <ele>943.66999999999996</ele>
        <time>2025-05-14T11:22:28Z</time>
      </trkpt>
      <trkpt lat="42.482358003035188" lon="1.48995797149837">
        <ele>946.07000000000005</ele>
        <time>2025-05-14T11:22:37Z</time>
      </trkpt>
      <trkpt lat="42.483663987368345" lon="1.490709995850921">
        <ele>951.36000000000001</ele>
        <time>2025-05-14T11:22:48Z</time>
      </trkpt>
      <trkpt lat="42.483923994004726" lon="1.490888027474284">
        <ele>952.79999999999995</ele>
        <time>2025-05-14T11:22:52Z</time>
      </trkpt>
      <trkpt lat="42.484131027013063" lon="1.49102901108563">
        <ele>953.27999999999997</ele>
        <time>2025-05-14T11:22:53Z</time>
      </trkpt>
      <trkpt lat="42.484144018962979" lon="1.491088019683957">
        <ele>952.79999999999995</ele>
        <time>2025-05-14T11:22:54Z</time>
      </trkpt>
      <trkpt lat="42.484195986762643" lon="1.491330005228519">
        <ele>953.27999999999997</ele>
        <time>2025-05-14T11:22:56Z</time>
      </trkpt>
      <trkpt lat="42.484234040603042" lon="1.49137401022017">
        <ele>953.27999999999997</ele>
        <time>2025-05-14T11:22:57Z</time>
      </trkpt>
      <trkpt lat="42.48442598618567" lon="1.491593029350042">
        <ele>954.73000000000002</ele>
        <time>2025-05-14T11:23:00Z</time>
      </trkpt>
      <trkpt lat="42.484495975077152" lon="1.491672992706299">
        <ele>955.21000000000004</ele>
        <time>2025-05-14T11:23:01Z</time>
      </trkpt>
      <trkpt lat="42.484527993947268" lon="1.491767959669232">
        <ele>955.21000000000004</ele>
        <time>2025-05-14T11:23:02Z</time>
      </trkpt>
      <trkpt lat="42.484561018645763" lon="1.491866027936339">
        <ele>955.69000000000005</ele>
        <time>2025-05-14T11:23:03Z</time>
      </trkpt>
      <trkpt lat="42.484573004767299" lon="1.491950014606118">
        <ele>956.16999999999996</ele>
        <time>2025-05-14T11:23:04Z</time>
      </trkpt>
      <trkpt lat="42.484589014202356" lon="1.492051016539335">
        <ele>956.16999999999996</ele>
        <time>2025-05-14T11:23:05Z</time>
      </trkpt>
      <trkpt lat="42.484621033072472" lon="1.492156963795424">
        <ele>956.64999999999998</ele>
        <time>2025-05-14T11:23:06Z</time>
      </trkpt>
      <trkpt lat="42.48474801890552" lon="1.492279004305601">
        <ele>957.61000000000001</ele>
        <time>2025-05-14T11:23:08Z</time>
      </trkpt>
      <trkpt lat="42.484780037775636" lon="1.492372965440154">
        <ele>957.61000000000001</ele>
        <time>2025-05-14T11:23:09Z</time>
      </trkpt>
      <trkpt lat="42.48481398448348" lon="1.492474973201752">
        <ele>957.61000000000001</ele>
        <time>2025-05-14T11:23:10Z</time>
      </trkpt>
      <trkpt lat="42.484858995303512" lon="1.492576980963349">
        <ele>958.09000000000003</ele>
        <time>2025-05-14T11:23:11Z</time>
      </trkpt>
      <trkpt lat="42.484912974759936" lon="1.492688963189721">
        <ele>958.09000000000003</ele>
        <time>2025-05-14T11:23:12Z</time>
      </trkpt>
      <trkpt lat="42.484968965873122" lon="1.492808992043138">
        <ele>958.09000000000003</ele>
        <time>2025-05-14T11:23:13Z</time>
      </trkpt>
      <trkpt lat="42.48575602658093" lon="1.493992013856769">
        <ele>960.49000000000001</ele>
        <time>2025-05-14T11:23:22Z</time>
      </trkpt>
      <trkpt lat="42.486350974068046" lon="1.49455402046442">
        <ele>961.46000000000004</ele>
        <time>2025-05-14T11:23:27Z</time>
      </trkpt>
      <trkpt lat="42.486476032063365" lon="1.494638007134199">
        <ele>961.46000000000004</ele>
        <time>2025-05-14T11:23:28Z</time>
      </trkpt>
      <trkpt lat="42.486609974876046" lon="1.494696009904146">
        <ele>961.46000000000004</ele>
        <time>2025-05-14T11:23:29Z</time>
      </trkpt>
      <trkpt lat="42.486865036189556" lon="1.494759963825345">
        <ele>961.94000000000005</ele>
        <time>2025-05-14T11:23:31Z</time>
      </trkpt>
      <trkpt lat="42.48698397539556" lon="1.494783014059067">
        <ele>962.41999999999996</ele>
        <time>2025-05-14T11:23:32Z</time>
      </trkpt>
      <trkpt lat="42.487096041440964" lon="1.494773961603642">
        <ele>962.89999999999998</ele>
        <time>2025-05-14T11:23:33Z</time>
      </trkpt>
      <trkpt lat="42.487778998911381" lon="1.494719982147217">
        <ele>966.25999999999999</ele>
        <time>2025-05-14T11:23:39Z</time>
      </trkpt>
      <trkpt lat="42.487900033593178" lon="1.494793994352222">
        <ele>967.22000000000003</ele>
        <time>2025-05-14T11:23:40Z</time>
      </trkpt>
      <trkpt lat="42.488002963364124" lon="1.494857026264072">
        <ele>967.70000000000005</ele>
        <time>2025-05-14T11:23:41Z</time>
      </trkpt>
      <trkpt lat="42.488101031631231" lon="1.494913017377257">
        <ele>968.17999999999995</ele>
        <time>2025-05-14T11:23:42Z</time>
      </trkpt>
      <trkpt lat="42.488187029957771" lon="1.494999015703797">
        <ele>969.14999999999998</ele>
        <time>2025-05-14T11:23:43Z</time>
      </trkpt>
      <trkpt lat="42.488281996920705" lon="1.495084008201957">
        <ele>970.11000000000001</ele>
        <time>2025-05-14T11:23:44Z</time>
      </trkpt>
      <trkpt lat="42.488366989418864" lon="1.495189033448696">
        <ele>971.07000000000005</ele>
        <time>2025-05-14T11:23:45Z</time>
      </trkpt>
      <trkpt lat="42.488451981917024" lon="1.495294980704784">
        <ele>972.02999999999997</ele>
        <time>2025-05-14T11:23:46Z</time>
      </trkpt>
      <trkpt lat="42.488622972741723" lon="1.495493967086077">
        <ele>973.95000000000005</ele>
        <time>2025-05-14T11:23:48Z</time>
      </trkpt>
      <trkpt lat="42.488721963018179" lon="1.495576025918126">
        <ele>974.90999999999997</ele>
        <time>2025-05-14T11:23:49Z</time>
      </trkpt>
      <trkpt lat="42.488927990198135" lon="1.495745005086064">
        <ele>976.36000000000001</ele>
        <time>2025-05-14T11:23:51Z</time>
      </trkpt>
      <trkpt lat="42.489028992131352" lon="1.495827985927463">
        <ele>977.32000000000005</ele>
        <time>2025-05-14T11:23:52Z</time>
      </trkpt>
      <trkpt lat="42.489544982090592" lon="1.496252026408911">
        <ele>979.72000000000003</ele>
        <time>2025-05-14T11:23:57Z</time>
      </trkpt>
      <trkpt lat="42.489649001508951" lon="1.4962940197438">
        <ele>980.20000000000005</ele>
        <time>2025-05-14T11:23:58Z</time>
      </trkpt>
      <trkpt lat="42.489758972078562" lon="1.496330983936787">
        <ele>980.20000000000005</ele>
        <time>2025-05-14T11:23:59Z</time>
      </trkpt>
      <trkpt lat="42.48986198566854" lon="1.496351016685367">
        <ele>981.15999999999997</ele>
        <time>2025-05-14T11:24:00Z</time>
      </trkpt>
      <trkpt lat="42.489972962066531" lon="1.496351016685367">
        <ele>981.63999999999999</ele>
        <time>2025-05-14T11:24:01Z</time>
      </trkpt>
      <trkpt lat="42.490950040519238" lon="1.496392004191876">
        <ele>989.80999999999995</ele>
        <time>2025-05-14T11:24:09Z</time>
      </trkpt>
      <trkpt lat="42.491040984168649" lon="1.496414970606566">
        <ele>990.29999999999995</ele>
        <time>2025-05-14T11:24:10Z</time>
      </trkpt>
      <trkpt lat="42.491170987486839" lon="1.496496023610234">
        <ele>990.77999999999997</ele>
        <time>2025-05-14T11:24:11Z</time>
      </trkpt>
      <trkpt lat="42.491260003298521" lon="1.496586967259646">
        <ele>990.77999999999997</ele>
        <time>2025-05-14T11:24:12Z</time>
      </trkpt>
      <trkpt lat="42.491341978311539" lon="1.496699033305049">
        <ele>991.25999999999999</ele>
        <time>2025-05-14T11:24:13Z</time>
      </trkpt>
      <trkpt lat="42.491424037143588" lon="1.496811015531421">
        <ele>991.74000000000001</ele>
        <time>2025-05-14T11:24:14Z</time>
      </trkpt>
      <trkpt lat="42.491501988843083" lon="1.496930038556457">
        <ele>992.22000000000003</ele>
        <time>2025-05-14T11:24:15Z</time>
      </trkpt>
      <trkpt lat="42.492362977936864" lon="1.498415982350707">
        <ele>997.01999999999998</ele>
        <time>2025-05-14T11:24:26Z</time>
      </trkpt>
      <trkpt lat="42.49314802698791" lon="1.499792039394379">
        <ele>998.47000000000003</ele>
        <time>2025-05-14T11:24:35Z</time>
      </trkpt>
      <trkpt lat="42.49383500777185" lon="1.500703990459442">
        <ele>995.10000000000002</ele>
        <time>2025-05-14T11:24:42Z</time>
      </trkpt>
      <trkpt lat="42.493895022198558" lon="1.500834999606013">
        <ele>994.62</ele>
        <time>2025-05-14T11:24:43Z</time>
      </trkpt>
      <trkpt lat="42.494258964434266" lon="1.501649972051382">
        <ele>991.74000000000001</ele>
        <time>2025-05-14T11:24:48Z</time>
      </trkpt>
      <trkpt lat="42.494972012937069" lon="1.503287963569164">
        <ele>986.92999999999995</ele>
        <time>2025-05-14T11:24:58Z</time>
      </trkpt>
      <trkpt lat="42.49505901709199" lon="1.503594992682338">
        <ele>987.40999999999997</ele>
        <time>2025-05-14T11:25:00Z</time>
      </trkpt>
      <trkpt lat="42.495089024305344" lon="1.50370798073709">
        <ele>987.88999999999999</ele>
        <time>2025-05-14T11:25:01Z</time>
      </trkpt>
      <trkpt lat="42.495032027363777" lon="1.503881989046931">
        <ele>988.37</ele>
        <time>2025-05-14T11:25:02Z</time>
      </trkpt>
      <trkpt lat="42.4950170237571" lon="1.50396597571671">
        <ele>988.85000000000002</ele>
        <time>2025-05-14T11:25:03Z</time>
      </trkpt>
      <trkpt lat="42.495032027363777" lon="1.504010986536741">
        <ele>989.33000000000004</ele>
        <time>2025-05-14T11:25:04Z</time>
      </trkpt>
      <trkpt lat="42.495075026527047" lon="1.504611968994141">
        <ele>990.29999999999995</ele>
        <time>2025-05-14T11:25:09Z</time>
      </trkpt>
      <trkpt lat="42.495083995163441" lon="1.504799975082278">
        <ele>990.77999999999997</ele>
        <time>2025-05-14T11:25:10Z</time>
      </trkpt>
      <trkpt lat="42.495091035962105" lon="1.504961997270584">
        <ele>990.77999999999997</ele>
        <time>2025-05-14T11:25:11Z</time>
      </trkpt>
      <trkpt lat="42.495196983218193" lon="1.505304984748364">
        <ele>990.77999999999997</ele>
        <time>2025-05-14T11:25:12Z</time>
      </trkpt>
      <trkpt lat="42.495280969887972" lon="1.505460971966386">
        <ele>991.25999999999999</ele>
        <time>2025-05-14T11:25:13Z</time>
      </trkpt>
      <trkpt lat="42.495365040376782" lon="1.505610002204776">
        <ele>991.25999999999999</ele>
        <time>2025-05-14T11:25:14Z</time>
      </trkpt>
      <trkpt lat="42.496316973119974" lon="1.507155960425735">
        <ele>991.25999999999999</ele>
        <time>2025-05-14T11:25:25Z</time>
      </trkpt>
      <trkpt lat="42.496398026123643" lon="1.50729401037097">
        <ele>991.25999999999999</ele>
        <time>2025-05-14T11:25:26Z</time>
      </trkpt>
      <trkpt lat="42.496472960337996" lon="1.507432982325554">
        <ele>990.77999999999997</ele>
        <time>2025-05-14T11:25:27Z</time>
      </trkpt>
      <trkpt lat="42.496546972543001" lon="1.507569020614028">
        <ele>991.25999999999999</ele>
        <time>2025-05-14T11:25:28Z</time>
      </trkpt>
      <trkpt lat="42.496698014438152" lon="1.507845036685467">
        <ele>991.25999999999999</ele>
        <time>2025-05-14T11:25:30Z</time>
      </trkpt>
      <trkpt lat="42.496771020814776" lon="1.507979985326529">
        <ele>991.74000000000001</ele>
        <time>2025-05-14T11:25:31Z</time>
      </trkpt>
      <trkpt lat="42.496845033019781" lon="1.508115017786622">
        <ele>991.74000000000001</ele>
        <time>2025-05-14T11:25:32Z</time>
      </trkpt>
      <trkpt lat="42.496917033568025" lon="1.508247032761574">
        <ele>991.74000000000001</ele>
        <time>2025-05-14T11:25:33Z</time>
      </trkpt>
      <trkpt lat="42.496989034116268" lon="1.508378041908145">
        <ele>992.22000000000003</ele>
        <time>2025-05-14T11:25:34Z</time>
      </trkpt>
      <trkpt lat="42.497722031548619" lon="1.509879995137453">
        <ele>993.17999999999995</ele>
        <time>2025-05-14T11:25:45Z</time>
      </trkpt>
      <trkpt lat="42.498030988499522" lon="1.510477960109711">
        <ele>992.70000000000005</ele>
        <time>2025-05-14T11:25:50Z</time>
      </trkpt>
      <trkpt lat="42.498084967955947" lon="1.510575022548437">
        <ele>992.22000000000003</ele>
        <time>2025-05-14T11:25:51Z</time>
      </trkpt>
      <trkpt lat="42.498079016804695" lon="1.510769985616207">
        <ele>992.22000000000003</ele>
        <time>2025-05-14T11:25:52Z</time>
      </trkpt>
      <trkpt lat="42.498088991269469" lon="1.510822037234902">
        <ele>992.70000000000005</ele>
        <time>2025-05-14T11:25:53Z</time>
      </trkpt>
      <trkpt lat="42.498158980160952" lon="1.510911975055933">
        <ele>993.17999999999995</ele>
        <time>2025-05-14T11:25:54Z</time>
      </trkpt>
      <trkpt lat="42.498157974332571" lon="1.510911975055933">
        <ele>994.13999999999999</ele>
        <time>2025-05-14T11:25:55Z</time>
      </trkpt>
      <trkpt lat="42.498208014294505" lon="1.510941982269287">
        <ele>994.62</ele>
        <time>2025-05-14T11:25:56Z</time>
      </trkpt>
      <trkpt lat="42.498354027047753" lon="1.510845003649592">
        <ele>994.62</ele>
        <time>2025-05-14T11:25:57Z</time>
      </trkpt>
      <trkpt lat="42.49845402315259" lon="1.510899988934398">
        <ele>995.10000000000002</ele>
        <time>2025-05-14T11:25:59Z</time>
      </trkpt>
      <trkpt lat="42.498529041185975" lon="1.510941982269287">
        <ele>995.58000000000004</ele>
        <time>2025-05-14T11:26:00Z</time>
      </trkpt>
      <trkpt lat="42.498597018420696" lon="1.510995961725712">
        <ele>996.05999999999995</ele>
        <time>2025-05-14T11:26:01Z</time>
      </trkpt>
      <trkpt lat="42.499450966715813" lon="1.511661987751722">
        <ele>995.58000000000004</ele>
        <time>2025-05-14T11:26:10Z</time>
      </trkpt>
      <trkpt lat="42.500942023470998" lon="1.512798992916942">
        <ele>996.05999999999995</ele>
        <time>2025-05-14T11:26:22Z</time>
      </trkpt>
      <trkpt lat="42.502152035012841" lon="1.51382502168417">
        <ele>1000.87</ele>
        <time>2025-05-14T11:26:32Z</time>
      </trkpt>
      <trkpt lat="42.502248007804155" lon="1.513953013345599">
        <ele>1000.39</ele>
        <time>2025-05-14T11:26:33Z</time>
      </trkpt>
      <trkpt lat="42.502330988645554" lon="1.514100031927228">
        <ele>999.90999999999997</ele>
        <time>2025-05-14T11:26:34Z</time>
      </trkpt>
      <trkpt lat="42.502412963658571" lon="1.514245960861445">
        <ele>999.90999999999997</ele>
        <time>2025-05-14T11:26:35Z</time>
      </trkpt>
      <trkpt lat="42.502474989742041" lon="1.514400020241737">
        <ele>999.90999999999997</ele>
        <time>2025-05-14T11:26:36Z</time>
      </trkpt>
      <trkpt lat="42.503134980797768" lon="1.515613971278071">
        <ele>1000.39</ele>
        <time>2025-05-14T11:26:44Z</time>
      </trkpt>
      <trkpt lat="42.503513004630804" lon="1.516215037554503">
        <ele>999.90999999999997</ele>
        <time>2025-05-14T11:26:48Z</time>
      </trkpt>
      <trkpt lat="42.50358902849257" lon="1.516375970095396">
        <ele>999.90999999999997</ele>
        <time>2025-05-14T11:26:49Z</time>
      </trkpt>
      <trkpt lat="42.503662034869194" lon="1.516547966748476">
        <ele>1000.39</ele>
        <time>2025-05-14T11:26:50Z</time>
      </trkpt>
      <trkpt lat="42.503689024597406" lon="1.51672700420022">
        <ele>1000.39</ele>
        <time>2025-05-14T11:26:51Z</time>
      </trkpt>
      <trkpt lat="42.503715008497238" lon="1.516900006681681">
        <ele>1000.39</ele>
        <time>2025-05-14T11:26:52Z</time>
      </trkpt>
      <trkpt lat="42.503739986568689" lon="1.517066974192858">
        <ele>1000.39</ele>
        <time>2025-05-14T11:26:53Z</time>
      </trkpt>
      <trkpt lat="42.503659017384052" lon="1.518773026764393">
        <ele>998.95000000000005</ele>
        <time>2025-05-14T11:27:03Z</time>
      </trkpt>
      <trkpt lat="42.503644013777375" lon="1.519039990380406">
        <ele>998.95000000000005</ele>
        <time>2025-05-14T11:27:05Z</time>
      </trkpt>
      <trkpt lat="42.503614006564021" lon="1.519216010347009">
        <ele>998.95000000000005</ele>
        <time>2025-05-14T11:27:06Z</time>
      </trkpt>
      <trkpt lat="42.503543011844158" lon="1.519366968423128">
        <ele>999.42999999999995</ele>
        <time>2025-05-14T11:27:08Z</time>
      </trkpt>
      <trkpt lat="42.503529014065862" lon="1.519461013376713">
        <ele>999.42999999999995</ele>
        <time>2025-05-14T11:27:09Z</time>
      </trkpt>
      <trkpt lat="42.503552986308932" lon="1.519509041681886">
        <ele>999.90999999999997</ele>
        <time>2025-05-14T11:27:10Z</time>
      </trkpt>
      <trkpt lat="42.503572013229132" lon="1.519547011703253">
        <ele>1000.39</ele>
        <time>2025-05-14T11:27:11Z</time>
      </trkpt>
      <trkpt lat="42.503596991300583" lon="1.519554974511266">
        <ele>1000.87</ele>
        <time>2025-05-14T11:27:12Z</time>
      </trkpt>
      <trkpt lat="42.503620041534305" lon="1.51956201530993">
        <ele>1001.35</ele>
        <time>2025-05-14T11:27:13Z</time>
      </trkpt>
      <trkpt lat="42.503620041534305" lon="1.51956201530993">
        <ele>1001.83</ele>
        <time>2025-05-14T11:27:23Z</time>
      </trkpt>
      <trkpt lat="42.50372095964849" lon="1.519665028899908">
        <ele>1001.83</ele>
        <time>2025-05-14T11:27:32Z</time>
      </trkpt>
      <trkpt lat="42.503736969083548" lon="1.519723031669855">
        <ele>1001.83</ele>
        <time>2025-05-14T11:27:33Z</time>
      </trkpt>
      <trkpt lat="42.503764964640141" lon="1.519825039431453">
        <ele>1001.83</ele>
        <time>2025-05-14T11:27:34Z</time>
      </trkpt>
      <trkpt lat="42.503849035128951" lon="1.520023019984365">
        <ele>1001.83</ele>
        <time>2025-05-14T11:27:37Z</time>
      </trkpt>
      <trkpt lat="42.503997981548309" lon="1.520375981926918">
        <ele>1001.35</ele>
        <time>2025-05-14T11:27:41Z</time>
      </trkpt>
      <trkpt lat="42.504037041217089" lon="1.520470026880503">
        <ele>1001.83</ele>
        <time>2025-05-14T11:27:42Z</time>
      </trkpt>
      <trkpt lat="42.504078028723598" lon="1.520567005500197">
        <ele>1001.83</ele>
        <time>2025-05-14T11:27:43Z</time>
      </trkpt>
      <trkpt lat="42.504117004573345" lon="1.52065803296864">
        <ele>1001.83</ele>
        <time>2025-05-14T11:27:44Z</time>
      </trkpt>
      <trkpt lat="42.504154974594712" lon="1.520748976618052">
        <ele>1001.83</ele>
        <time>2025-05-14T11:27:45Z</time>
      </trkpt>
      <trkpt lat="42.504226975142956" lon="1.520928014069796">
        <ele>1001.83</ele>
        <time>2025-05-14T11:27:47Z</time>
      </trkpt>
      <trkpt lat="42.504261005669832" lon="1.521015018224716">
        <ele>1001.83</ele>
        <time>2025-05-14T11:27:48Z</time>
      </trkpt>
      <trkpt lat="42.504335017874837" lon="1.521205035969615">
        <ele>1001.83</ele>
        <time>2025-05-14T11:27:50Z</time>
      </trkpt>
      <trkpt lat="42.504369970411062" lon="1.521292962133884">
        <ele>1001.83</ele>
        <time>2025-05-14T11:27:51Z</time>
      </trkpt>
      <trkpt lat="42.504489999264479" lon="1.521636033430696">
        <ele>1002.3099999999999</ele>
        <time>2025-05-14T11:27:59Z</time>
      </trkpt>
      <trkpt lat="42.504537021741271" lon="1.521777017042041">
        <ele>1001.83</ele>
        <time>2025-05-14T11:28:09Z</time>
      </trkpt>
      <trkpt lat="42.504575997591019" lon="1.521893022581935">
        <ele>1001.35</ele>
        <time>2025-05-14T11:28:11Z</time>
      </trkpt>
      <trkpt lat="42.50455898232758" lon="1.522079017013311">
        <ele>1001.35</ele>
        <time>2025-05-14T11:28:12Z</time>
      </trkpt>
      <trkpt lat="42.50455898232758" lon="1.522079017013311">
        <ele>1001.35</ele>
        <time>2025-05-14T11:28:13Z</time>
      </trkpt>
      <trkpt lat="42.504570968449116" lon="1.52213903144002">
        <ele>1000.87</ele>
        <time>2025-05-14T11:28:14Z</time>
      </trkpt>
      <trkpt lat="42.504581026732922" lon="1.52218597009778">
        <ele>1000.87</ele>
        <time>2025-05-14T11:28:15Z</time>
      </trkpt>
      <trkpt lat="42.504668030887842" lon="1.522336006164551">
        <ele>1000.87</ele>
        <time>2025-05-14T11:28:16Z</time>
      </trkpt>
      <trkpt lat="42.50464397482574" lon="1.522414041683078">
        <ele>1000.39</ele>
        <time>2025-05-14T11:28:17Z</time>
      </trkpt>
      <trkpt lat="42.50460198149085" lon="1.522551001980901">
        <ele>999.90999999999997</ele>
        <time>2025-05-14T11:28:18Z</time>
      </trkpt>
      <trkpt lat="42.504603993147612" lon="1.522572040557861">
        <ele>999.90999999999997</ele>
        <time>2025-05-14T11:28:19Z</time>
      </trkpt>
      <trkpt lat="42.504613967612386" lon="1.522671030834317">
        <ele>999.42999999999995</ele>
        <time>2025-05-14T11:28:20Z</time>
      </trkpt>
      <trkpt lat="42.504814965650439" lon="1.523759001865983">
        <ele>999.90999999999997</ele>
        <time>2025-05-14T11:28:30Z</time>
      </trkpt>
      <trkpt lat="42.504972964525223" lon="1.524689979851246">
        <ele>1002.3099999999999</ele>
        <time>2025-05-14T11:28:38Z</time>
      </trkpt>
      <trkpt lat="42.50498897396028" lon="1.524819983169437">
        <ele>1002.3099999999999</ele>
        <time>2025-05-14T11:28:39Z</time>
      </trkpt>
      <trkpt lat="42.505003977566957" lon="1.524941017851234">
        <ele>1002.3099999999999</ele>
        <time>2025-05-14T11:28:40Z</time>
      </trkpt>
      <trkpt lat="42.50520003028214" lon="1.526498040184379">
        <ele>1004.23</ele>
        <time>2025-05-14T11:28:52Z</time>
      </trkpt>
      <trkpt lat="42.505212016403675" lon="1.526636006310582">
        <ele>1004.23</ele>
        <time>2025-05-14T11:28:53Z</time>
      </trkpt>
      <trkpt lat="42.50520296394825" lon="1.527228020131588">
        <ele>1002.79</ele>
        <time>2025-05-14T11:28:58Z</time>
      </trkpt>
      <trkpt lat="42.505230037495494" lon="1.527327010408044">
        <ele>1002.3099999999999</ele>
        <time>2025-05-14T11:28:59Z</time>
      </trkpt>
      <trkpt lat="42.505245041102171" lon="1.527419965714216">
        <ele>1001.83</ele>
        <time>2025-05-14T11:29:00Z</time>
      </trkpt>
      <trkpt lat="42.505260966718197" lon="1.527514010667801">
        <ele>1001.35</ele>
        <time>2025-05-14T11:29:01Z</time>
      </trkpt>
      <trkpt lat="42.505284016951919" lon="1.527630016207695">
        <ele>1000.87</ele>
        <time>2025-05-14T11:29:02Z</time>
      </trkpt>
      <trkpt lat="42.505276976153255" lon="1.527711991220713">
        <ele>1000.39</ele>
        <time>2025-05-14T11:29:03Z</time>
      </trkpt>
      <trkpt lat="42.505276976153255" lon="1.527712997049093">
        <ele>999.90999999999997</ele>
        <time>2025-05-14T11:29:04Z</time>
      </trkpt>
      <trkpt lat="42.505269013345242" lon="1.527869990095496">
        <ele>999.42999999999995</ele>
        <time>2025-05-14T11:29:05Z</time>
      </trkpt>
      <trkpt lat="42.505273958668113" lon="1.527968980371952">
        <ele>998.95000000000005</ele>
        <time>2025-05-14T11:29:06Z</time>
      </trkpt>
      <trkpt lat="42.505280999466777" lon="1.528106024488807">
        <ele>998.95000000000005</ele>
        <time>2025-05-14T11:29:07Z</time>
      </trkpt>
      <trkpt lat="42.505288040265441" lon="1.528237033635378">
        <ele>998.95000000000005</ele>
        <time>2025-05-14T11:29:08Z</time>
      </trkpt>
      <trkpt lat="42.505331039428711" lon="1.528474995866418">
        <ele>998.95000000000005</ele>
        <time>2025-05-14T11:29:10Z</time>
      </trkpt>
      <trkpt lat="42.505354005843401" lon="1.528593013063073">
        <ele>998.95000000000005</ele>
        <time>2025-05-14T11:29:11Z</time>
      </trkpt>
      <trkpt lat="42.50558702275157" lon="1.529695987701416">
        <ele>999.90999999999997</ele>
        <time>2025-05-14T11:29:21Z</time>
      </trkpt>
      <trkpt lat="42.505639996379614" lon="1.529927998781204">
        <ele>999.42999999999995</ele>
        <time>2025-05-14T11:29:23Z</time>
      </trkpt>
      <trkpt lat="42.505752984434366" lon="1.530415993183851">
        <ele>1000.87</ele>
        <time>2025-05-14T11:29:28Z</time>
      </trkpt>
      <trkpt lat="42.505783997476101" lon="1.53054197318852">
        <ele>1001.35</ele>
        <time>2025-05-14T11:29:29Z</time>
      </trkpt>
      <trkpt lat="42.506003016605973" lon="1.531568001955748">
        <ele>1006.64</ele>
        <time>2025-05-14T11:29:38Z</time>
      </trkpt>
      <trkpt lat="42.50601802021265" lon="1.531648971140385">
        <ele>1008.08</ele>
        <time>2025-05-14T11:29:40Z</time>
      </trkpt>
      <trkpt lat="42.5059549883008" lon="1.531788026914001">
        <ele>1008.5599999999999</ele>
        <time>2025-05-14T11:29:41Z</time>
      </trkpt>
      <trkpt lat="42.505990024656057" lon="1.531868996098638">
        <ele>1009.04</ele>
        <time>2025-05-14T11:29:42Z</time>
      </trkpt>
      <trkpt lat="42.506045009940863" lon="1.5321109816432">
        <ele>1011.9299999999999</ele>
        <time>2025-05-14T11:29:48Z</time>
      </trkpt>
      <trkpt lat="42.506045009940863" lon="1.5321109816432">
        <ele>1011.9299999999999</ele>
        <time>2025-05-14T11:30:01Z</time>
      </trkpt>
      <trkpt lat="42.506171995773911" lon="1.532685980200768">
        <ele>1013.85</ele>
        <time>2025-05-14T11:30:08Z</time>
      </trkpt>
      <trkpt lat="42.50619001686573" lon="1.532773990184069">
        <ele>1014.33</ele>
        <time>2025-05-14T11:30:09Z</time>
      </trkpt>
      <trkpt lat="42.506243996322155" lon="1.533032990992069">
        <ele>1014.8099999999999</ele>
        <time>2025-05-14T11:30:12Z</time>
      </trkpt>
      <trkpt lat="42.506278026849031" lon="1.533201970160008">
        <ele>1015.29</ele>
        <time>2025-05-14T11:30:14Z</time>
      </trkpt>
      <trkpt lat="42.506442982703447" lon="1.534008979797363">
        <ele>1018.65</ele>
        <time>2025-05-14T11:30:26Z</time>
      </trkpt>
      <trkpt lat="42.506504002958536" lon="1.534362025558949">
        <ele>1021.0599999999999</ele>
        <time>2025-05-14T11:30:34Z</time>
      </trkpt>
      <trkpt lat="42.506544990465045" lon="1.534363031387329">
        <ele>1021.54</ele>
        <time>2025-05-14T11:30:35Z</time>
      </trkpt>
      <trkpt lat="42.50657600350678" lon="1.534351967275143">
        <ele>1022.02</ele>
        <time>2025-05-14T11:30:36Z</time>
      </trkpt>
      <trkpt lat="42.506597964093089" lon="1.534308968111873">
        <ele>1022.02</ele>
        <time>2025-05-14T11:30:37Z</time>
      </trkpt>
      <trkpt lat="42.506611039862037" lon="1.534243002533913">
        <ele>1022.02</ele>
        <time>2025-05-14T11:30:38Z</time>
      </trkpt>
      <trkpt lat="42.506702989339828" lon="1.534188017249107">
        <ele>1022.02</ele>
        <time>2025-05-14T11:30:39Z</time>
      </trkpt>
      <trkpt lat="42.50674800015986" lon="1.534180976450443">
        <ele>1022.02</ele>
        <time>2025-05-14T11:30:40Z</time>
      </trkpt>
      <trkpt lat="42.506798962131143" lon="1.534180976450443">
        <ele>1022.02</ele>
        <time>2025-05-14T11:30:41Z</time>
      </trkpt>
      <trkpt lat="42.506985040381551" lon="1.534180976450443">
        <ele>1021.54</ele>
        <time>2025-05-14T11:30:44Z</time>
      </trkpt>
      <trkpt lat="42.507054023444653" lon="1.534180976450443">
        <ele>1021.54</ele>
        <time>2025-05-14T11:30:45Z</time>
      </trkpt>
      <trkpt lat="42.507129041478038" lon="1.534186005592346">
        <ele>1021.0599999999999</ele>
        <time>2025-05-14T11:30:46Z</time>
      </trkpt>
      <trkpt lat="42.50719802454114" lon="1.53419598005712">
        <ele>1020.1</ele>
        <time>2025-05-14T11:30:47Z</time>
      </trkpt>
      <trkpt lat="42.507254015654325" lon="1.534201009199023">
        <ele>1019.62</ele>
        <time>2025-05-14T11:30:48Z</time>
      </trkpt>
      <trkpt lat="42.507455013692379" lon="1.534184999763966">
        <ele>1018.17</ele>
        <time>2025-05-14T11:30:51Z</time>
      </trkpt>
      <trkpt lat="42.5075229909271" lon="1.534179970622063">
        <ele>1018.17</ele>
        <time>2025-05-14T11:30:52Z</time>
      </trkpt>
      <trkpt lat="42.507576970383525" lon="1.534176031127572">
        <ele>1017.6900000000001</ele>
        <time>2025-05-14T11:30:53Z</time>
      </trkpt>
      <trkpt lat="42.507616030052304" lon="1.53417301364243">
        <ele>1017.21</ele>
        <time>2025-05-14T11:30:54Z</time>
      </trkpt>
      <trkpt lat="42.507638996466994" lon="1.534171001985669">
        <ele>1016.73</ele>
        <time>2025-05-14T11:30:55Z</time>
      </trkpt>
      <trkpt lat="42.507704962044954" lon="1.534165972843766">
        <ele>1016.25</ele>
        <time>2025-05-14T11:31:07Z</time>
      </trkpt>
      <trkpt lat="42.507755002006888" lon="1.534162033349276">
        <ele>1016.25</ele>
        <time>2025-05-14T11:31:08Z</time>
      </trkpt>
      <trkpt lat="42.507821973413229" lon="1.534155998378992">
        <ele>1015.77</ele>
        <time>2025-05-14T11:31:09Z</time>
      </trkpt>
      <trkpt lat="42.508057001978159" lon="1.534137977287173">
        <ele>1014.8099999999999</ele>
        <time>2025-05-14T11:31:15Z</time>
      </trkpt>
      <trkpt lat="42.508057001978159" lon="1.534137977287173">
        <ele>1013.85</ele>
        <time>2025-05-14T11:31:29Z</time>
      </trkpt>
      <trkpt lat="42.508354978635907" lon="1.534105958417058">
        <ele>1016.73</ele>
        <time>2025-05-14T11:31:39Z</time>
      </trkpt>
      <trkpt lat="42.508405018597841" lon="1.534101013094187">
        <ele>1016.73</ele>
        <time>2025-05-14T11:31:40Z</time>
      </trkpt>
      <trkpt lat="42.508464027196169" lon="1.534094978123903">
        <ele>1017.21</ele>
        <time>2025-05-14T11:31:41Z</time>
      </trkpt>
      <trkpt lat="42.508624959737062" lon="1.534076035022736">
        <ele>1016.73</ele>
        <time>2025-05-14T11:31:44Z</time>
      </trkpt>
      <trkpt lat="42.50868396833539" lon="1.534068994224072">
        <ele>1016.73</ele>
        <time>2025-05-14T11:31:45Z</time>
      </trkpt>
      <trkpt lat="42.508742976933718" lon="1.534062037244439">
        <ele>1016.73</ele>
        <time>2025-05-14T11:31:46Z</time>
      </trkpt>
      <trkpt lat="42.508944980800152" lon="1.534036975353956">
        <ele>1016.25</ele>
        <time>2025-05-14T11:31:50Z</time>
      </trkpt>
      <trkpt lat="42.509012036025524" lon="1.534028006717563">
        <ele>1016.25</ele>
        <time>2025-05-14T11:31:51Z</time>
      </trkpt>
      <trkpt lat="42.509291991591454" lon="1.533989030867815">
        <ele>1017.6900000000001</ele>
        <time>2025-05-14T11:31:54Z</time>
      </trkpt>
      <trkpt lat="42.509502964094281" lon="1.533942008391023">
        <ele>1017.6900000000001</ele>
        <time>2025-05-14T11:32:01Z</time>
      </trkpt>
      <trkpt lat="42.509647971019149" lon="1.533874031156302">
        <ele>1018.17</ele>
        <time>2025-05-14T11:32:11Z</time>
      </trkpt>
      <trkpt lat="42.509847041219473" lon="1.533841006457806">
        <ele>1018.17</ele>
        <time>2025-05-14T11:32:14Z</time>
      </trkpt>
      <trkpt lat="42.509872019290924" lon="1.533877970650792">
        <ele>1017.6900000000001</ele>
        <time>2025-05-14T11:32:15Z</time>
      </trkpt>
      <trkpt lat="42.509900014847517" lon="1.533919963985682">
        <ele>1017.21</ele>
        <time>2025-05-14T11:32:16Z</time>
      </trkpt>
      <trkpt lat="42.509872019290924" lon="1.534103024750948">
        <ele>1017.21</ele>
        <time>2025-05-14T11:32:17Z</time>
      </trkpt>
      <trkpt lat="42.509861961007118" lon="1.534161027520895">
        <ele>1016.73</ele>
        <time>2025-05-14T11:32:18Z</time>
      </trkpt>
      <trkpt lat="42.509862966835499" lon="1.534364959225059">
        <ele>1014.8099999999999</ele>
        <time>2025-05-14T11:32:23Z</time>
      </trkpt>
      <trkpt lat="42.509875036776066" lon="1.534920008853078">
        <ele>1010</ele>
        <time>2025-05-14T11:32:30Z</time>
      </trkpt>
      <trkpt lat="42.509878976270556" lon="1.535122012719512">
        <ele>1008.5599999999999</ele>
        <time>2025-05-14T11:32:34Z</time>
      </trkpt>
      <trkpt lat="42.509879982098937" lon="1.535170041024685">
        <ele>1008.08</ele>
        <time>2025-05-14T11:32:35Z</time>
      </trkpt>
      <trkpt lat="42.509880987927318" lon="1.535188984125853">
        <ele>1007.12</ele>
        <time>2025-05-14T11:32:36Z</time>
      </trkpt>
      <trkpt lat="42.509880987927318" lon="1.535188984125853">
        <ele>1006.16</ele>
        <time>2025-05-14T11:32:37Z</time>
      </trkpt>
      <trkpt lat="42.509880987927318" lon="1.535317981615663">
        <ele>1005.6799999999999</ele>
        <time>2025-05-14T11:32:38Z</time>
      </trkpt>
      <trkpt lat="42.509881993755698" lon="1.535334996879101">
        <ele>1004.23</ele>
        <time>2025-05-14T11:32:46Z</time>
      </trkpt>
      <trkpt lat="42.509884005412459" lon="1.535356035456061">
        <ele>1004.72</ele>
        <time>2025-05-14T11:32:47Z</time>
      </trkpt>
      <trkpt lat="42.509887022897601" lon="1.535380007699132">
        <ele>1005.2</ele>
        <time>2025-05-14T11:32:48Z</time>
      </trkpt>
      <trkpt lat="42.509887022897601" lon="1.535380007699132">
        <ele>1006.16</ele>
        <time>2025-05-14T11:33:02Z</time>
      </trkpt>
      <trkpt lat="42.509887022897601" lon="1.535380007699132">
        <ele>1005.2</ele>
        <time>2025-05-14T11:33:40Z</time>
      </trkpt>
      <trkpt lat="42.509887022897601" lon="1.535380007699132">
        <ele>1004.72</ele>
        <time>2025-05-14T11:34:18Z</time>
      </trkpt>
      <trkpt lat="42.509887022897601" lon="1.535380007699132">
        <ele>1005.6799999999999</ele>
        <time>2025-05-14T11:34:55Z</time>
      </trkpt>
      <trkpt lat="42.509887022897601" lon="1.535380007699132">
        <ele>1006.16</ele>
        <time>2025-05-14T11:35:38Z</time>
      </trkpt>
      <trkpt lat="42.509887022897601" lon="1.535380007699132">
        <ele>1010</ele>
        <time>2025-05-14T11:36:26Z</time>
      </trkpt>
      <trkpt lat="42.509887022897601" lon="1.535380007699132">
        <ele>1010.48</ele>
        <time>2025-05-14T11:37:10Z</time>
      </trkpt>
      <trkpt lat="42.509887022897601" lon="1.535380007699132">
        <ele>1010.96</ele>
        <time>2025-05-14T11:37:51Z</time>
      </trkpt>
      <trkpt lat="42.509887022897601" lon="1.535380007699132">
        <ele>1010.96</ele>
        <time>2025-05-14T11:38:37Z</time>
      </trkpt>
      <trkpt lat="42.509887022897601" lon="1.535380007699132">
        <ele>1011.4400000000001</ele>
        <time>2025-05-14T11:39:18Z</time>
      </trkpt>
      <trkpt lat="42.509887022897601" lon="1.535380007699132">
        <ele>1011.4400000000001</ele>
        <time>2025-05-14T11:39:57Z</time>
      </trkpt>
      <trkpt lat="42.509887022897601" lon="1.535380007699132">
        <ele>1013.37</ele>
        <time>2025-05-14T11:40:33Z</time>
      </trkpt>
      <trkpt lat="42.509887022897601" lon="1.535380007699132">
        <ele>1013.85</ele>
        <time>2025-05-14T11:41:14Z</time>
      </trkpt>
      <trkpt lat="42.509887022897601" lon="1.535380007699132">
        <ele>1015.29</ele>
        <time>2025-05-14T11:41:55Z</time>
      </trkpt>
      <trkpt lat="42.510387003421783" lon="1.535330973565579">
        <ele>1038.8399999999999</ele>
        <time>2025-05-14T11:48:15Z</time>
      </trkpt>
      <trkpt lat="42.509894985705614" lon="1.535472040995956">
        <ele>1059.03</ele>
        <time>2025-05-14T11:48:17Z</time>
      </trkpt>
      <trkpt lat="42.509899009019136" lon="1.535507999360561">
        <ele>1053.26</ele>
        <time>2025-05-14T11:48:18Z</time>
      </trkpt>
      <trkpt lat="42.509904960170388" lon="1.535572037100792">
        <ele>1034.52</ele>
        <time>2025-05-14T11:48:30Z</time>
      </trkpt>
      <trkpt lat="42.509904960170388" lon="1.535572037100792">
        <ele>1051.3399999999999</ele>
        <time>2025-05-14T11:49:06Z</time>
      </trkpt>
      <trkpt lat="42.509904960170388" lon="1.535572037100792">
        <ele>1063.3599999999999</ele>
        <time>2025-05-14T11:49:39Z</time>
      </trkpt>
      <trkpt lat="42.509904960170388" lon="1.535572037100792">
        <ele>1056.6300000000001</ele>
        <time>2025-05-14T11:50:17Z</time>
      </trkpt>
      <trkpt lat="42.509904960170388" lon="1.535572037100792">
        <ele>1056.6300000000001</ele>
        <time>2025-05-14T11:50:56Z</time>
      </trkpt>
      <trkpt lat="42.509904960170388" lon="1.535572037100792">
        <ele>1056.1500000000001</ele>
        <time>2025-05-14T11:51:35Z</time>
      </trkpt>
      <trkpt lat="42.509904960170388" lon="1.535572037100792">
        <ele>1056.1500000000001</ele>
        <time>2025-05-14T11:52:13Z</time>
      </trkpt>
      <trkpt lat="42.509904960170388" lon="1.535572037100792">
        <ele>1055.6700000000001</ele>
        <time>2025-05-14T11:52:50Z</time>
      </trkpt>
      <trkpt lat="42.509904960170388" lon="1.535572037100792">
        <ele>1055.6700000000001</ele>
        <time>2025-05-14T11:53:31Z</time>
      </trkpt>
      <trkpt lat="42.509904960170388" lon="1.535572037100792">
        <ele>1055.1800000000001</ele>
        <time>2025-05-14T11:54:10Z</time>
      </trkpt>
      <trkpt lat="42.509904960170388" lon="1.535572037100792">
        <ele>1053.26</ele>
        <time>2025-05-14T11:54:35Z</time>
      </trkpt>
      <trkpt lat="42.509905965998769" lon="1.535585029050708">
        <ele>1050.8599999999999</ele>
        <time>2025-05-14T11:54:42Z</time>
      </trkpt>
      <trkpt lat="42.509908983483911" lon="1.535609001293778">
        <ele>1050.3800000000001</ele>
        <time>2025-05-14T11:54:43Z</time>
      </trkpt>
      <trkpt lat="42.509912000969052" lon="1.535646971315146">
        <ele>1049.9000000000001</ele>
        <time>2025-05-14T11:54:44Z</time>
      </trkpt>
      <trkpt lat="42.509962040930986" lon="1.536157010123134">
        <ele>1042.6900000000001</ele>
        <time>2025-05-14T11:54:50Z</time>
      </trkpt>
      <trkpt lat="42.509972015395761" lon="1.536262035369873">
        <ele>1041.73</ele>
        <time>2025-05-14T11:54:51Z</time>
      </trkpt>
      <trkpt lat="42.510016020387411" lon="1.536736031994224">
        <ele>1037.8800000000001</ele>
        <time>2025-05-14T11:54:56Z</time>
      </trkpt>
      <trkpt lat="42.510031023994088" lon="1.537124030292034">
        <ele>1036.9200000000001</ele>
        <time>2025-05-14T11:55:00Z</time>
      </trkpt>
      <trkpt lat="42.510034963488579" lon="1.537388982251287">
        <ele>1036.9200000000001</ele>
        <time>2025-05-14T11:55:03Z</time>
      </trkpt>
      <trkpt lat="42.510101012885571" lon="1.538205966353416">
        <ele>1039.3199999999999</ele>
        <time>2025-05-14T11:55:11Z</time>
      </trkpt>
      <trkpt lat="42.510111993178725" lon="1.538301017135382">
        <ele>1039.8</ele>
        <time>2025-05-14T11:55:12Z</time>
      </trkpt>
      <trkpt lat="42.510102018713951" lon="1.538786999881268">
        <ele>1043.6500000000001</ele>
        <time>2025-05-14T11:55:18Z</time>
      </trkpt>
      <trkpt lat="42.510160021483898" lon="1.538880039006472">
        <ele>1044.6099999999999</ele>
        <time>2025-05-14T11:55:26Z</time>
      </trkpt>
      <trkpt lat="42.510157003998756" lon="1.538971988484263">
        <ele>1044.6099999999999</ele>
        <time>2025-05-14T11:55:27Z</time>
      </trkpt>
      <trkpt lat="42.510138982906938" lon="1.539504993706942">
        <ele>1044.6099999999999</ele>
        <time>2025-05-14T11:55:32Z</time>
      </trkpt>
      <trkpt lat="42.510112999007106" lon="1.539602978155017">
        <ele>1044.6099999999999</ele>
        <time>2025-05-14T11:55:33Z</time>
      </trkpt>
      <trkpt lat="42.510074023157358" lon="1.539692999795079">
        <ele>1044.1300000000001</ele>
        <time>2025-05-14T11:55:34Z</time>
      </trkpt>
      <trkpt lat="42.50992801040411" lon="1.540028024464846">
        <ele>1043.6500000000001</ele>
        <time>2025-05-14T11:55:38Z</time>
      </trkpt>
      <trkpt lat="42.509896997362375" lon="1.54005903750658">
        <ele>1043.6500000000001</ele>
        <time>2025-05-14T11:55:39Z</time>
      </trkpt>
      <trkpt lat="42.509863972663879" lon="1.540085021406412">
        <ele>1043.1700000000001</ele>
        <time>2025-05-14T11:55:40Z</time>
      </trkpt>
      <trkpt lat="42.509819967672229" lon="1.540118968114257">
        <ele>1042.21</ele>
        <time>2025-05-14T11:55:47Z</time>
      </trkpt>
      <trkpt lat="42.50973598100245" lon="1.540184011682868">
        <ele>1043.1700000000001</ele>
        <time>2025-05-14T11:55:49Z</time>
      </trkpt>
      <trkpt lat="42.509730029851198" lon="1.540189040824771">
        <ele>1043.6500000000001</ele>
        <time>2025-05-14T11:55:50Z</time>
      </trkpt>
      <trkpt lat="42.509602038189769" lon="1.540318038314581">
        <ele>1043.6500000000001</ele>
        <time>2025-05-14T11:55:51Z</time>
      </trkpt>
      <trkpt lat="42.509544035419822" lon="1.540409987792373">
        <ele>1041.73</ele>
        <time>2025-05-14T11:55:56Z</time>
      </trkpt>
      <trkpt lat="42.509527020156384" lon="1.540438989177346">
        <ele>1041.25</ele>
        <time>2025-05-14T11:55:57Z</time>
      </trkpt>
      <trkpt lat="42.509516039863229" lon="1.540456004440785">
        <ele>1042.21</ele>
        <time>2025-05-14T11:56:07Z</time>
      </trkpt>
      <trkpt lat="42.509323004633188" lon="1.540767978876829">
        <ele>1039.8</ele>
        <time>2025-05-14T11:56:15Z</time>
      </trkpt>
      <trkpt lat="42.508938023820519" lon="1.54083201661706">
        <ele>1036.4400000000001</ele>
        <time>2025-05-14T11:56:27Z</time>
      </trkpt>
      <trkpt lat="42.508858982473612" lon="1.540845008566976">
        <ele>1037.8800000000001</ele>
        <time>2025-05-14T11:56:59Z</time>
      </trkpt>
      <trkpt lat="42.508679023012519" lon="1.54087501578033">
        <ele>1045.5699999999999</ele>
        <time>2025-05-14T11:57:07Z</time>
      </trkpt>
      <trkpt lat="42.508679023012519" lon="1.54087501578033">
        <ele>1046.53</ele>
        <time>2025-05-14T11:57:11Z</time>
      </trkpt>
      <trkpt lat="42.508270991966128" lon="1.540896976366639">
        <ele>1051.3399999999999</ele>
        <time>2025-05-14T11:57:13Z</time>
      </trkpt>
      <trkpt lat="42.508270991966128" lon="1.540896976366639">
        <ele>1052.3</ele>
        <time>2025-05-14T11:57:14Z</time>
      </trkpt>
      <trkpt lat="42.508285995572805" lon="1.540752975270152">
        <ele>1053.26</ele>
        <time>2025-05-14T11:57:15Z</time>
      </trkpt>
      <trkpt lat="42.508293036371469" lon="1.540693966671825">
        <ele>1054.22</ele>
        <time>2025-05-14T11:57:16Z</time>
      </trkpt>
      <trkpt lat="42.508298987522721" lon="1.540632024407387">
        <ele>1054.7</ele>
        <time>2025-05-14T11:57:17Z</time>
      </trkpt>
      <trkpt lat="42.508306028321385" lon="1.540563963353634">
        <ele>1055.1800000000001</ele>
        <time>2025-05-14T11:57:18Z</time>
      </trkpt>
      <trkpt lat="42.508311979472637" lon="1.540505038574338">
        <ele>1056.1500000000001</ele>
        <time>2025-05-14T11:57:19Z</time>
      </trkpt>
      <trkpt lat="42.508318014442921" lon="1.54044896364212">
        <ele>1056.6300000000001</ele>
        <time>2025-05-14T11:57:20Z</time>
      </trkpt>
      <trkpt lat="42.508323965594172" lon="1.540395990014076">
        <ele>1057.5899999999999</ele>
        <time>2025-05-14T11:57:21Z</time>
      </trkpt>
      <trkpt lat="42.508330000564456" lon="1.540336981415749">
        <ele>1057.5899999999999</ele>
        <time>2025-05-14T11:57:22Z</time>
      </trkpt>
      <trkpt lat="42.508337963372469" lon="1.540264980867505">
        <ele>1058.0699999999999</ele>
        <time>2025-05-14T11:57:23Z</time>
      </trkpt>
      <trkpt lat="42.508346009999514" lon="1.54018803499639">
        <ele>1058.0699999999999</ele>
        <time>2025-05-14T11:57:24Z</time>
      </trkpt>
      <trkpt lat="42.508352966979146" lon="1.540120979771018">
        <ele>1058.0699999999999</ele>
        <time>2025-05-14T11:57:25Z</time>
      </trkpt>
      <trkpt lat="42.508348021656275" lon="1.540025006979704">
        <ele>1058.55</ele>
        <time>2025-05-14T11:57:26Z</time>
      </trkpt>
      <trkpt lat="42.508336035534739" lon="1.539954012259841">
        <ele>1058.55</ele>
        <time>2025-05-14T11:57:27Z</time>
      </trkpt>
      <trkpt lat="42.508325977250934" lon="1.53988603502512">
        <ele>1058.55</ele>
        <time>2025-05-14T11:57:28Z</time>
      </trkpt>
      <trkpt lat="42.50831700861454" lon="1.539818979799748">
        <ele>1058.55</ele>
        <time>2025-05-14T11:57:29Z</time>
      </trkpt>
      <trkpt lat="42.508298987522721" lon="1.539686964824796">
        <ele>1058.55</ele>
        <time>2025-05-14T11:57:31Z</time>
      </trkpt>
      <trkpt lat="42.508291024714708" lon="1.539625022560358">
        <ele>1059.03</ele>
        <time>2025-05-14T11:57:32Z</time>
      </trkpt>
      <trkpt lat="42.508283983916044" lon="1.539570959284902">
        <ele>1059.03</ele>
        <time>2025-05-14T11:57:33Z</time>
      </trkpt>
      <trkpt lat="42.50816697254777" lon="1.539500970393419">
        <ele>1058.55</ele>
        <time>2025-05-14T11:57:34Z</time>
      </trkpt>
      <trkpt lat="42.508132020011544" lon="1.539511028677225">
        <ele>1058.0699999999999</ele>
        <time>2025-05-14T11:57:35Z</time>
      </trkpt>
      <trkpt lat="42.508087009191513" lon="1.53952301479876">
        <ele>1057.5899999999999</ele>
        <time>2025-05-14T11:57:36Z</time>
      </trkpt>
      <trkpt lat="42.508036969229579" lon="1.539536006748676">
        <ele>1057.1099999999999</ele>
        <time>2025-05-14T11:57:37Z</time>
      </trkpt>
      <trkpt lat="42.507987013086677" lon="1.539548998698592">
        <ele>1056.6300000000001</ele>
        <time>2025-05-14T11:57:38Z</time>
      </trkpt>
      <trkpt lat="42.507936973124743" lon="1.539562996476889">
        <ele>1056.6300000000001</ele>
        <time>2025-05-14T11:57:39Z</time>
      </trkpt>
      <trkpt lat="42.507895985618234" lon="1.539572970941663">
        <ele>1056.1500000000001</ele>
        <time>2025-05-14T11:57:40Z</time>
      </trkpt>
      <trkpt lat="42.507837982848287" lon="1.539435004815459">
        <ele>1055.6700000000001</ele>
        <time>2025-05-14T11:57:41Z</time>
      </trkpt>
      <trkpt lat="42.507836977019906" lon="1.539366021752358">
        <ele>1055.6700000000001</ele>
        <time>2025-05-14T11:57:42Z</time>
      </trkpt>
      <trkpt lat="42.507834965363145" lon="1.539285974577069">
        <ele>1055.1800000000001</ele>
        <time>2025-05-14T11:57:43Z</time>
      </trkpt>
      <trkpt lat="42.507830020040274" lon="1.539081959053874">
        <ele>1054.22</ele>
        <time>2025-05-14T11:57:46Z</time>
      </trkpt>
      <trkpt lat="42.507817028090358" lon="1.538592958822846">
        <ele>1051.8199999999999</ele>
        <time>2025-05-14T11:57:52Z</time>
      </trkpt>
      <trkpt lat="42.507815016433597" lon="1.538520036265254">
        <ele>1051.3399999999999</ele>
        <time>2025-05-14T11:57:53Z</time>
      </trkpt>
      <trkpt lat="42.507814010605216" lon="1.538452981039882">
        <ele>1050.8599999999999</ele>
        <time>2025-05-14T11:57:54Z</time>
      </trkpt>
      <trkpt lat="42.507811998948455" lon="1.538385003805161">
        <ele>1050.8599999999999</ele>
        <time>2025-05-14T11:57:55Z</time>
      </trkpt>
      <trkpt lat="42.507809987291694" lon="1.538313003256917">
        <ele>1050.3800000000001</ele>
        <time>2025-05-14T11:57:56Z</time>
      </trkpt>
      <trkpt lat="42.507806969806552" lon="1.538172019645572">
        <ele>1050.3800000000001</ele>
        <time>2025-05-14T11:57:58Z</time>
      </trkpt>
      <trkpt lat="42.507804958149791" lon="1.538114016875625">
        <ele>1049.9000000000001</ele>
        <time>2025-05-14T11:57:59Z</time>
      </trkpt>
      <trkpt lat="42.507802024483681" lon="1.537990970537067">
        <ele>1048.9400000000001</ele>
        <time>2025-05-14T11:58:03Z</time>
      </trkpt>
      <trkpt lat="42.507802024483681" lon="1.537968004122376">
        <ele>1048.45</ele>
        <time>2025-05-14T11:58:06Z</time>
      </trkpt>
      <trkpt lat="42.507799006998539" lon="1.537871025502682">
        <ele>1048.9400000000001</ele>
        <time>2025-05-14T11:58:15Z</time>
      </trkpt>
      <trkpt lat="42.507799006998539" lon="1.537871025502682">
        <ele>1048.45</ele>
        <time>2025-05-14T11:58:16Z</time>
      </trkpt>
      <trkpt lat="42.507799006998539" lon="1.537871025502682">
        <ele>1047.97</ele>
        <time>2025-05-14T11:58:17Z</time>
      </trkpt>
      <trkpt lat="42.507925992831588" lon="1.537880999967456">
        <ele>1045.5699999999999</ele>
        <time>2025-05-14T11:58:25Z</time>
      </trkpt>
      <trkpt lat="42.508302005007863" lon="1.537871025502682">
        <ele>1040.28</ele>
        <time>2025-05-14T11:58:35Z</time>
      </trkpt>
      <trkpt lat="42.508302005007863" lon="1.537871025502682">
        <ele>1037.4000000000001</ele>
        <time>2025-05-14T11:59:06Z</time>
      </trkpt>
      <trkpt lat="42.508803997188807" lon="1.537878988310695">
        <ele>1034.04</ele>
        <time>2025-05-14T11:59:33Z</time>
      </trkpt>
      <trkpt lat="42.508842973038554" lon="1.537883011624217">
        <ele>1033.55</ele>
        <time>2025-05-14T11:59:34Z</time>
      </trkpt>
      <trkpt lat="42.508892007172108" lon="1.537887034937739">
        <ele>1033.0699999999999</ele>
        <time>2025-05-14T11:59:35Z</time>
      </trkpt>
      <trkpt lat="42.509407997131348" lon="1.537935985252261">
        <ele>1032.1099999999999</ele>
        <time>2025-05-14T11:59:43Z</time>
      </trkpt>
      <trkpt lat="42.509814016520977" lon="1.537922993302345">
        <ele>1029.71</ele>
        <time>2025-05-14T11:59:49Z</time>
      </trkpt>
      <trkpt lat="42.51016597263515" lon="1.537919975817204">
        <ele>1027.79</ele>
        <time>2025-05-14T11:59:56Z</time>
      </trkpt>
      <trkpt lat="42.510848008096218" lon="1.538058025762439">
        <ele>1022.5</ele>
        <time>2025-05-14T12:00:06Z</time>
      </trkpt>
      <trkpt lat="42.510911040008068" lon="1.538101024925709">
        <ele>1022.02</ele>
        <time>2025-05-14T12:00:07Z</time>
      </trkpt>
      <trkpt lat="42.511035008355975" lon="1.538178976625204">
        <ele>1021.0599999999999</ele>
        <time>2025-05-14T12:00:09Z</time>
      </trkpt>
      <trkpt lat="42.511459970846772" lon="1.538445018231869">
        <ele>1017.6900000000001</ele>
        <time>2025-05-14T12:00:17Z</time>
      </trkpt>
      <trkpt lat="42.511468017473817" lon="1.538450969383121">
        <ele>1017.21</ele>
        <time>2025-05-14T12:00:18Z</time>
      </trkpt>
      <trkpt lat="42.51145301386714" lon="1.538494974374771">
        <ele>1016.73</ele>
        <time>2025-05-14T12:00:19Z</time>
      </trkpt>
      <trkpt lat="42.51143398694694" lon="1.538547025993466">
        <ele>1016.25</ele>
        <time>2025-05-14T12:00:20Z</time>
      </trkpt>
      <trkpt lat="42.51134698279202" lon="1.538828993216157">
        <ele>1014.8099999999999</ele>
        <time>2025-05-14T12:00:24Z</time>
      </trkpt>
      <trkpt lat="42.511334996670485" lon="1.538894958794117">
        <ele>1014.33</ele>
        <time>2025-05-14T12:00:25Z</time>
      </trkpt>
      <trkpt lat="42.511323010548949" lon="1.53896301984787">
        <ele>1014.33</ele>
        <time>2025-05-14T12:00:26Z</time>
      </trkpt>
      <trkpt lat="42.511310018599033" lon="1.539024040102959">
        <ele>1013.85</ele>
        <time>2025-05-14T12:00:27Z</time>
      </trkpt>
      <trkpt lat="42.511296020820737" lon="1.539087994024158">
        <ele>1013.85</ele>
        <time>2025-05-14T12:00:28Z</time>
      </trkpt>
      <trkpt lat="42.511403979733586" lon="1.539266025647521">
        <ele>1013.37</ele>
        <time>2025-05-14T12:00:29Z</time>
      </trkpt>
      <trkpt lat="42.511157970875502" lon="1.53960800729692">
        <ele>1011.9299999999999</ele>
        <time>2025-05-14T12:00:38Z</time>
      </trkpt>
      <trkpt lat="42.511146990582347" lon="1.53965201228857">
        <ele>1011.4400000000001</ele>
        <time>2025-05-14T12:00:39Z</time>
      </trkpt>
      <trkpt lat="42.511141039431095" lon="1.539648994803429">
        <ele>1010.96</ele>
        <time>2025-05-14T12:00:40Z</time>
      </trkpt>
      <trkpt lat="42.511099968105555" lon="1.539626028388739">
        <ele>1010.96</ele>
        <time>2025-05-14T12:00:41Z</time>
      </trkpt>
      <trkpt lat="42.511052023619413" lon="1.539599960669875">
        <ele>1010.96</ele>
        <time>2025-05-14T12:00:42Z</time>
      </trkpt>
      <trkpt lat="42.510998966172338" lon="1.539570959284902">
        <ele>1010.96</ele>
        <time>2025-05-14T12:00:43Z</time>
      </trkpt>
      <trkpt lat="42.510790005326271" lon="1.539413966238499">
        <ele>1010.48</ele>
        <time>2025-05-14T12:00:48Z</time>
      </trkpt>
      <trkpt lat="42.510370993986726" lon="1.539009036496282">
        <ele>1014.33</ele>
        <time>2025-05-14T12:00:57Z</time>
      </trkpt>
      <trkpt lat="42.510210983455181" lon="1.538846008479595">
        <ele>1017.21</ele>
        <time>2025-05-14T12:01:01Z</time>
      </trkpt>
      <trkpt lat="42.510192962363362" lon="1.538747018203139">
        <ele>1017.6900000000001</ele>
        <time>2025-05-14T12:01:02Z</time>
      </trkpt>
      <trkpt lat="42.510110987350345" lon="1.538778031244874">
        <ele>1018.17</ele>
        <time>2025-05-14T12:01:03Z</time>
      </trkpt>
      <trkpt lat="42.510160021483898" lon="1.538880039006472">
        <ele>1018.65</ele>
        <time>2025-05-14T12:01:04Z</time>
      </trkpt>
      <trkpt lat="42.510158009827137" lon="1.5389200206846">
        <ele>1018.17</ele>
        <time>2025-05-14T12:01:05Z</time>
      </trkpt>
      <trkpt lat="42.510155998170376" lon="1.538974000141025">
        <ele>1017.6900000000001</ele>
        <time>2025-05-14T12:01:06Z</time>
      </trkpt>
      <trkpt lat="42.510153986513615" lon="1.539036026224494">
        <ele>1017.21</ele>
        <time>2025-05-14T12:01:07Z</time>
      </trkpt>
      <trkpt lat="42.510151974856853" lon="1.539102997630835">
        <ele>1016.25</ele>
        <time>2025-05-14T12:01:08Z</time>
      </trkpt>
      <trkpt lat="42.510149963200092" lon="1.539177009835839">
        <ele>1015.77</ele>
        <time>2025-05-14T12:01:09Z</time>
      </trkpt>
      <trkpt lat="42.510147029533982" lon="1.539259990677238">
        <ele>1015.29</ele>
        <time>2025-05-14T12:01:10Z</time>
      </trkpt>
      <trkpt lat="42.510142000392079" lon="1.539431987330318">
        <ele>1014.33</ele>
        <time>2025-05-14T12:01:12Z</time>
      </trkpt>
      <trkpt lat="42.510103024542332" lon="1.539627034217119">
        <ele>1012.89</ele>
        <time>2025-05-14T12:01:14Z</time>
      </trkpt>
      <trkpt lat="42.509997999295592" lon="1.539868013933301">
        <ele>1011.4400000000001</ele>
        <time>2025-05-14T12:01:17Z</time>
      </trkpt>
      <trkpt lat="42.509824996814132" lon="1.540115028619766">
        <ele>1009.04</ele>
        <time>2025-05-14T12:01:22Z</time>
      </trkpt>
      <trkpt lat="42.509784009307623" lon="1.54014696367085">
        <ele>1008.5599999999999</ele>
        <time>2025-05-14T12:01:23Z</time>
      </trkpt>
      <trkpt lat="42.509748972952366" lon="1.540174037218094">
        <ele>1008.08</ele>
        <time>2025-05-14T12:01:24Z</time>
      </trkpt>
      <trkpt lat="42.509687030687928" lon="1.540189040824771">
        <ele>1007.6</ele>
        <time>2025-05-14T12:01:29Z</time>
      </trkpt>
      <trkpt lat="42.509602038189769" lon="1.540318038314581">
        <ele>1008.5599999999999</ele>
        <time>2025-05-14T12:01:30Z</time>
      </trkpt>
      <trkpt lat="42.509602038189769" lon="1.540318038314581">
        <ele>1008.08</ele>
        <time>2025-05-14T12:01:31Z</time>
      </trkpt>
      <trkpt lat="42.509602038189769" lon="1.540318038314581">
        <ele>1009.04</ele>
        <time>2025-05-14T12:01:32Z</time>
      </trkpt>
      <trkpt lat="42.509553004056215" lon="1.540395990014076">
        <ele>1009.52</ele>
        <time>2025-05-14T12:01:33Z</time>
      </trkpt>
      <trkpt lat="42.509522996842861" lon="1.540444018319249">
        <ele>1009.52</ele>
        <time>2025-05-14T12:01:34Z</time>
      </trkpt>
      <trkpt lat="42.509491983801126" lon="1.540494980290532">
        <ele>1009.52</ele>
        <time>2025-05-14T12:01:35Z</time>
      </trkpt>
      <trkpt lat="42.509456025436521" lon="1.540551977232099">
        <ele>1010</ele>
        <time>2025-05-14T12:01:36Z</time>
      </trkpt>
      <trkpt lat="42.509418977424502" lon="1.540611991658807">
        <ele>1010.96</ele>
        <time>2025-05-14T12:01:37Z</time>
      </trkpt>
      <trkpt lat="42.509387964382768" lon="1.540662031620741">
        <ele>1010.96</ele>
        <time>2025-05-14T12:01:38Z</time>
      </trkpt>
      <trkpt lat="42.509357035160065" lon="1.540711987763643">
        <ele>1010.96</ele>
        <time>2025-05-14T12:01:39Z</time>
      </trkpt>
      <trkpt lat="42.509325016289949" lon="1.540764039382339">
        <ele>1010.96</ele>
        <time>2025-05-14T12:01:40Z</time>
      </trkpt>
      <trkpt lat="42.509323004633188" lon="1.540767978876829">
        <ele>1010.96</ele>
        <time>2025-05-14T12:01:41Z</time>
      </trkpt>
      <trkpt lat="42.509323004633188" lon="1.540767978876829">
        <ele>1010.96</ele>
        <time>2025-05-14T12:01:42Z</time>
      </trkpt>
      <trkpt lat="42.509323004633188" lon="1.540767978876829">
        <ele>1010.96</ele>
        <time>2025-05-14T12:01:43Z</time>
      </trkpt>
      <trkpt lat="42.509323004633188" lon="1.540767978876829">
        <ele>1010.48</ele>
        <time>2025-05-14T12:01:46Z</time>
      </trkpt>
      <trkpt lat="42.508805003017187" lon="1.541615976020694">
        <ele>1010</ele>
        <time>2025-05-14T12:01:49Z</time>
      </trkpt>
      <trkpt lat="42.508819000795484" lon="1.541699040681124">
        <ele>1010</ele>
        <time>2025-05-14T12:01:50Z</time>
      </trkpt>
      <trkpt lat="42.508844984695315" lon="1.541848992928863">
        <ele>1009.52</ele>
        <time>2025-05-14T12:01:52Z</time>
      </trkpt>
      <trkpt lat="42.508852025493979" lon="1.541897021234036">
        <ele>1009.52</ele>
        <time>2025-05-14T12:01:53Z</time>
      </trkpt>
      <trkpt lat="42.508858982473612" lon="1.541964998468757">
        <ele>1010</ele>
        <time>2025-05-14T12:01:54Z</time>
      </trkpt>
      <trkpt lat="42.508865017443895" lon="1.542027024552226">
        <ele>1010</ele>
        <time>2025-05-14T12:01:55Z</time>
      </trkpt>
      <trkpt lat="42.508869962766767" lon="1.542083015665412">
        <ele>1010</ele>
        <time>2025-05-14T12:01:56Z</time>
      </trkpt>
      <trkpt lat="42.508873986080289" lon="1.54212299734354">
        <ele>1010</ele>
        <time>2025-05-14T12:01:57Z</time>
      </trkpt>
      <trkpt lat="42.508877003565431" lon="1.542160967364907">
        <ele>1010.48</ele>
        <time>2025-05-14T12:01:58Z</time>
      </trkpt>
      <trkpt lat="42.508880021050572" lon="1.542198015376926">
        <ele>1011.4400000000001</ele>
        <time>2025-05-14T12:01:59Z</time>
      </trkpt>
      <trkpt lat="42.508883038535714" lon="1.542233973741531">
        <ele>1011.9299999999999</ele>
        <time>2025-05-14T12:02:00Z</time>
      </trkpt>
      <trkpt lat="42.508886978030205" lon="1.542283007875085">
        <ele>1012.41</ele>
        <time>2025-05-14T12:02:01Z</time>
      </trkpt>
      <trkpt lat="42.508891001343727" lon="1.542342016473413">
        <ele>1012.41</ele>
        <time>2025-05-14T12:02:02Z</time>
      </trkpt>
      <trkpt lat="42.50889603048563" lon="1.54240001924336">
        <ele>1012.89</ele>
        <time>2025-05-14T12:02:03Z</time>
      </trkpt>
      <trkpt lat="42.508900975808501" lon="1.54246598482132">
        <ele>1012.89</ele>
        <time>2025-05-14T12:02:04Z</time>
      </trkpt>
      <trkpt lat="42.508908016607165" lon="1.542543014511466">
        <ele>1012.89</ele>
        <time>2025-05-14T12:02:05Z</time>
      </trkpt>
      <trkpt lat="42.508913967758417" lon="1.542627001181245">
        <ele>1012.89</ele>
        <time>2025-05-14T12:02:06Z</time>
      </trkpt>
      <trkpt lat="42.508924026042223" lon="1.542704030871391">
        <ele>1012.89</ele>
        <time>2025-05-14T12:02:07Z</time>
      </trkpt>
      <trkpt lat="42.509098034352064" lon="1.54366803355515">
        <ele>1014.8099999999999</ele>
        <time>2025-05-14T12:02:17Z</time>
      </trkpt>
      <trkpt lat="42.509131981059909" lon="1.543884035199881">
        <ele>1015.29</ele>
        <time>2025-05-14T12:02:19Z</time>
      </trkpt>
      <trkpt lat="42.509144973009825" lon="1.543974978849292">
        <ele>1015.29</ele>
        <time>2025-05-14T12:02:20Z</time>
      </trkpt>
      <trkpt lat="42.50915695913136" lon="1.544068017974496">
        <ele>1015.29</ele>
        <time>2025-05-14T12:02:21Z</time>
      </trkpt>
      <trkpt lat="42.509209010750055" lon="1.54444201849401">
        <ele>1015.77</ele>
        <time>2025-05-14T12:02:29Z</time>
      </trkpt>
      <trkpt lat="42.509215967729688" lon="1.544491974636912">
        <ele>1015.77</ele>
        <time>2025-05-14T12:02:30Z</time>
      </trkpt>
      <trkpt lat="42.509233988821507" lon="1.544626001268625">
        <ele>1016.25</ele>
        <time>2025-05-14T12:02:32Z</time>
      </trkpt>
      <trkpt lat="42.509432975202799" lon="1.545366039499641">
        <ele>1017.21</ele>
        <time>2025-05-14T12:02:41Z</time>
      </trkpt>
      <trkpt lat="42.509683007374406" lon="1.546040028333664">
        <ele>1020.58</ele>
        <time>2025-05-14T12:02:47Z</time>
      </trkpt>
      <trkpt lat="42.509730029851198" lon="1.546154022216797">
        <ele>1021.0599999999999</ele>
        <time>2025-05-14T12:02:48Z</time>
      </trkpt>
      <trkpt lat="42.509789038449526" lon="1.546235997229815">
        <ele>1021.54</ele>
        <time>2025-05-14T12:02:49Z</time>
      </trkpt>
      <trkpt lat="42.509859027341008" lon="1.546317972242832">
        <ele>1022.02</ele>
        <time>2025-05-14T12:02:50Z</time>
      </trkpt>
      <trkpt lat="42.509944019839168" lon="1.546374969184399">
        <ele>1022.5</ele>
        <time>2025-05-14T12:02:51Z</time>
      </trkpt>
      <trkpt lat="42.510049967095256" lon="1.546375975012779">
        <ele>1023.46</ele>
        <time>2025-05-14T12:02:52Z</time>
      </trkpt>
      <trkpt lat="42.510135965421796" lon="1.546361977234483">
        <ele>1024.4200000000001</ele>
        <time>2025-05-14T12:02:53Z</time>
      </trkpt>
      <trkpt lat="42.510222969576716" lon="1.546346973627806">
        <ele>1025.3800000000001</ele>
        <time>2025-05-14T12:02:54Z</time>
      </trkpt>
      <trkpt lat="42.510312991216779" lon="1.546329036355019">
        <ele>1026.3399999999999</ele>
        <time>2025-05-14T12:02:55Z</time>
      </trkpt>
      <trkpt lat="42.510524969547987" lon="1.546373963356018">
        <ele>1027.3099999999999</ele>
        <time>2025-05-14T12:02:57Z</time>
      </trkpt>
      <trkpt lat="42.510635023936629" lon="1.546401036903262">
        <ele>1027.79</ele>
        <time>2025-05-14T12:02:58Z</time>
      </trkpt>
      <trkpt lat="42.510738959535956" lon="1.546456022188067">
        <ele>1028.75</ele>
        <time>2025-05-14T12:02:59Z</time>
      </trkpt>
      <trkpt lat="42.510835016146302" lon="1.546521987766028">
        <ele>1030.6700000000001</ele>
        <time>2025-05-14T12:03:00Z</time>
      </trkpt>
      <trkpt lat="42.510953033342957" lon="1.546604968607426">
        <ele>1031.1500000000001</ele>
        <time>2025-05-14T12:03:01Z</time>
      </trkpt>
      <trkpt lat="42.511013969779015" lon="1.546689039096236">
        <ele>1032.1099999999999</ele>
        <time>2025-05-14T12:03:02Z</time>
      </trkpt>
      <trkpt lat="42.511083036661148" lon="1.546831028535962">
        <ele>1032.5899999999999</ele>
        <time>2025-05-14T12:03:03Z</time>
      </trkpt>
      <trkpt lat="42.511127963662148" lon="1.546980980783701">
        <ele>1033.0699999999999</ele>
        <time>2025-05-14T12:03:04Z</time>
      </trkpt>
      <trkpt lat="42.51117599196732" lon="1.547139985486865">
        <ele>1033.55</ele>
        <time>2025-05-14T12:03:05Z</time>
      </trkpt>
      <trkpt lat="42.511544041335583" lon="1.548550995066762">
        <ele>1041.25</ele>
        <time>2025-05-14T12:03:13Z</time>
      </trkpt>
      <trkpt lat="42.511728024110198" lon="1.549350963905454">
        <ele>1048.45</ele>
        <time>2025-05-14T12:03:18Z</time>
      </trkpt>
      <trkpt lat="42.511764988303185" lon="1.549485996365547">
        <ele>1050.3800000000001</ele>
        <time>2025-05-14T12:03:19Z</time>
      </trkpt>
      <trkpt lat="42.512096995487809" lon="1.550232991576195">
        <ele>1060.95</ele>
        <time>2025-05-14T12:03:27Z</time>
      </trkpt>
      <trkpt lat="42.512205960229039" lon="1.550547983497381">
        <ele>1068.6400000000001</ele>
        <time>2025-05-14T12:03:33Z</time>
      </trkpt>
      <trkpt lat="42.512258011847734" lon="1.550617972388864">
        <ele>1070.5699999999999</ele>
        <time>2025-05-14T12:03:34Z</time>
      </trkpt>
      <trkpt lat="42.512324983254075" lon="1.550692990422249">
        <ele>1072.97</ele>
        <time>2025-05-14T12:03:35Z</time>
      </trkpt>
      <trkpt lat="42.51282999292016" lon="1.551227001473308">
        <ele>1084.02</ele>
        <time>2025-05-14T12:03:41Z</time>
      </trkpt>
      <trkpt lat="42.51302202232182" lon="1.551486002281308">
        <ele>1087.3900000000001</ele>
        <time>2025-05-14T12:03:43Z</time>
      </trkpt>
      <trkpt lat="42.513102991506457" lon="1.551653975620866">
        <ele>1088.3499999999999</ele>
        <time>2025-05-14T12:03:44Z</time>
      </trkpt>
      <trkpt lat="42.513171974569559" lon="1.551823038607836">
        <ele>1089.79</ele>
        <time>2025-05-14T12:03:45Z</time>
      </trkpt>
      <trkpt lat="42.513376995921135" lon="1.552353026345372">
        <ele>1093.1600000000001</ele>
        <time>2025-05-14T12:03:48Z</time>
      </trkpt>
      <trkpt lat="42.513442961499095" lon="1.552527034655213">
        <ele>1094.5999999999999</ele>
        <time>2025-05-14T12:03:49Z</time>
      </trkpt>
      <trkpt lat="42.513539018109441" lon="1.552656032145023">
        <ele>1096.04</ele>
        <time>2025-05-14T12:03:50Z</time>
      </trkpt>
      <trkpt lat="42.513635996729136" lon="1.552784023806453">
        <ele>1097.48</ele>
        <time>2025-05-14T12:03:51Z</time>
      </trkpt>
      <trkpt lat="42.513743033632636" lon="1.552873039618135">
        <ele>1098.9200000000001</ele>
        <time>2025-05-14T12:03:52Z</time>
      </trkpt>
      <trkpt lat="42.513855015859008" lon="1.552964989095926">
        <ele>1100.3699999999999</ele>
        <time>2025-05-14T12:03:53Z</time>
      </trkpt>
      <trkpt lat="42.514575021341443" lon="1.553503023460507">
        <ele>1107.0999999999999</ele>
        <time>2025-05-14T12:03:59Z</time>
      </trkpt>
      <trkpt lat="42.514703013002872" lon="1.553588015958667">
        <ele>1108.0599999999999</ele>
        <time>2025-05-14T12:04:00Z</time>
      </trkpt>
      <trkpt lat="42.515211040154099" lon="1.553883980959654">
        <ele>1112.8599999999999</ele>
        <time>2025-05-14T12:04:04Z</time>
      </trkpt>
      <trkpt lat="42.515355041250587" lon="1.553966961801052">
        <ele>1114.79</ele>
        <time>2025-05-14T12:04:05Z</time>
      </trkpt>
      <trkpt lat="42.515776986256242" lon="1.554182041436434">
        <ele>1121.03</ele>
        <time>2025-05-14T12:04:08Z</time>
      </trkpt>
      <trkpt lat="42.515909001231194" lon="1.554200984537602">
        <ele>1122.48</ele>
        <time>2025-05-14T12:04:09Z</time>
      </trkpt>
      <trkpt lat="42.516031041741371" lon="1.554200984537602">
        <ele>1123.9200000000001</ele>
        <time>2025-05-14T12:04:10Z</time>
      </trkpt>
      <trkpt lat="42.51615802757442" lon="1.554172988981009">
        <ele>1125.3599999999999</ele>
        <time>2025-05-14T12:04:11Z</time>
      </trkpt>
      <trkpt lat="42.516280990093946" lon="1.554126972332597">
        <ele>1127.28</ele>
        <time>2025-05-14T12:04:12Z</time>
      </trkpt>
      <trkpt lat="42.516406970098615" lon="1.554080033674836">
        <ele>1128.73</ele>
        <time>2025-05-14T12:04:13Z</time>
      </trkpt>
      <trkpt lat="42.516661025583744" lon="1.553985988721252">
        <ele>1132.5699999999999</ele>
        <time>2025-05-14T12:04:15Z</time>
      </trkpt>
      <trkpt lat="42.516795974224806" lon="1.553904013708234">
        <ele>1134.49</ele>
        <time>2025-05-14T12:04:16Z</time>
      </trkpt>
      <trkpt lat="42.516916003078222" lon="1.553909964859486">
        <ele>1136.9000000000001</ele>
        <time>2025-05-14T12:04:17Z</time>
      </trkpt>
      <trkpt lat="42.517036031931639" lon="1.553965033963323">
        <ele>1138.8199999999999</ele>
        <time>2025-05-14T12:04:18Z</time>
      </trkpt>
      <trkpt lat="42.517139967530966" lon="1.554054971784353">
        <ele>1140.74</ele>
        <time>2025-05-14T12:04:19Z</time>
      </trkpt>
      <trkpt lat="42.517247004434466" lon="1.55415496788919">
        <ele>1142.1800000000001</ele>
        <time>2025-05-14T12:04:20Z</time>
      </trkpt>
      <trkpt lat="42.517653023824096" lon="1.554676992818713">
        <ele>1148.9100000000001</ele>
        <time>2025-05-14T12:04:24Z</time>
      </trkpt>
      <trkpt lat="42.517737010493875" lon="1.554804984480143">
        <ele>1150.3499999999999</ele>
        <time>2025-05-14T12:04:25Z</time>
      </trkpt>
      <trkpt lat="42.517819991335273" lon="1.55492995865643">
        <ele>1151.8</ele>
        <time>2025-05-14T12:04:26Z</time>
      </trkpt>
      <trkpt lat="42.517848992720246" lon="1.555016962811351">
        <ele>1152.76</ele>
        <time>2025-05-14T12:04:27Z</time>
      </trkpt>
      <trkpt lat="42.51779199577868" lon="1.555143026635051">
        <ele>1154.6800000000001</ele>
        <time>2025-05-14T12:04:28Z</time>
      </trkpt>
      <trkpt lat="42.517776992172003" lon="1.555231036618352">
        <ele>1156.1199999999999</ele>
        <time>2025-05-14T12:04:29Z</time>
      </trkpt>
      <trkpt lat="42.51772603020072" lon="1.55542298220098">
        <ele>1156.5999999999999</ele>
        <time>2025-05-14T12:04:30Z</time>
      </trkpt>
      <trkpt lat="42.517758971080184" lon="1.555531024932861">
        <ele>1157.0799999999999</ele>
        <time>2025-05-14T12:04:31Z</time>
      </trkpt>
      <trkpt lat="42.517905989661813" lon="1.555509986355901">
        <ele>1157.5599999999999</ele>
        <time>2025-05-14T12:04:32Z</time>
      </trkpt>
      <trkpt lat="42.517908001318574" lon="1.555714001879096">
        <ele>1158.05</ele>
        <time>2025-05-14T12:04:33Z</time>
      </trkpt>
      <trkpt lat="42.517990982159972" lon="1.555750966072083">
        <ele>1158.53</ele>
        <time>2025-05-14T12:04:34Z</time>
      </trkpt>
      <trkpt lat="42.518075974658132" lon="1.555772004649043">
        <ele>1159.01</ele>
        <time>2025-05-14T12:04:35Z</time>
      </trkpt>
      <trkpt lat="42.5181570276618" lon="1.555807963013649">
        <ele>1159.01</ele>
        <time>2025-05-14T12:04:36Z</time>
      </trkpt>
      <trkpt lat="42.518230034038424" lon="1.555897984653711">
        <ele>1159.49</ele>
        <time>2025-05-14T12:04:37Z</time>
      </trkpt>
      <trkpt lat="42.518304968252778" lon="1.555993035435677">
        <ele>1159.49</ele>
        <time>2025-05-14T12:04:38Z</time>
      </trkpt>
      <trkpt lat="42.518642004579306" lon="1.556374998763204">
        <ele>1156.1199999999999</ele>
        <time>2025-05-14T12:04:42Z</time>
      </trkpt>
      <trkpt lat="42.518745018169284" lon="1.556449010968208">
        <ele>1155.1600000000001</ele>
        <time>2025-05-14T12:04:43Z</time>
      </trkpt>
      <trkpt lat="42.518843002617359" lon="1.556518999859691">
        <ele>1154.2</ele>
        <time>2025-05-14T12:04:44Z</time>
      </trkpt>
      <trkpt lat="42.519635008648038" lon="1.557026021182537">
        <ele>1152.76</ele>
        <time>2025-05-14T12:04:53Z</time>
      </trkpt>
      <trkpt lat="42.520472025498748" lon="1.557778967544437">
        <ele>1158.53</ele>
        <time>2025-05-14T12:05:01Z</time>
      </trkpt>
      <trkpt lat="42.521625040099025" lon="1.559104984626174">
        <ele>1163.8099999999999</ele>
        <time>2025-05-14T12:05:13Z</time>
      </trkpt>
      <trkpt lat="42.522056037560105" lon="1.559748966246843">
        <ele>1166.22</ele>
        <time>2025-05-14T12:05:18Z</time>
      </trkpt>
      <trkpt lat="42.522655008360744" lon="1.560830986127257">
        <ele>1168.6199999999999</ele>
        <time>2025-05-14T12:05:25Z</time>
      </trkpt>
      <trkpt lat="42.523750020191073" lon="1.562052983790636">
        <ele>1170.0599999999999</ele>
        <time>2025-05-14T12:05:34Z</time>
      </trkpt>
      <trkpt lat="42.524320995435119" lon="1.562551958486438">
        <ele>1170.54</ele>
        <time>2025-05-14T12:05:38Z</time>
      </trkpt>
      <trkpt lat="42.524444963783026" lon="1.562744993716478">
        <ele>1170.54</ele>
        <time>2025-05-14T12:05:39Z</time>
      </trkpt>
      <trkpt lat="42.524542026221752" lon="1.562934005632997">
        <ele>1170.54</ele>
        <time>2025-05-14T12:05:40Z</time>
      </trkpt>
      <trkpt lat="42.524641016498208" lon="1.563123017549515">
        <ele>1170.54</ele>
        <time>2025-05-14T12:05:41Z</time>
      </trkpt>
      <trkpt lat="42.524728020653129" lon="1.563337007537484">
        <ele>1171.02</ele>
        <time>2025-05-14T12:05:42Z</time>
      </trkpt>
      <trkpt lat="42.525187013670802" lon="1.564575014635921">
        <ele>1173.9100000000001</ele>
        <time>2025-05-14T12:05:49Z</time>
      </trkpt>
      <trkpt lat="42.525820014998317" lon="1.566205965355039">
        <ele>1181.5999999999999</ele>
        <time>2025-05-14T12:05:58Z</time>
      </trkpt>
      <trkpt lat="42.526803966611624" lon="1.567508010193706">
        <ele>1193.6099999999999</ele>
        <time>2025-05-14T12:06:07Z</time>
      </trkpt>
      <trkpt lat="42.526984009891748" lon="1.567844962701201">
        <ele>1196.98</ele>
        <time>2025-05-14T12:06:09Z</time>
      </trkpt>
      <trkpt lat="42.527681970968843" lon="1.569155976176262">
        <ele>1210.4400000000001</ele>
        <time>2025-05-14T12:06:17Z</time>
      </trkpt>
      <trkpt lat="42.527866959571838" lon="1.569469040259719">
        <ele>1213.3199999999999</ele>
        <time>2025-05-14T12:06:19Z</time>
      </trkpt>
      <trkpt lat="42.527971984818578" lon="1.569629972800612">
        <ele>1214.76</ele>
        <time>2025-05-14T12:06:20Z</time>
      </trkpt>
      <trkpt lat="42.528077010065317" lon="1.569790989160538">
        <ele>1216.21</ele>
        <time>2025-05-14T12:06:21Z</time>
      </trkpt>
      <trkpt lat="42.528186980634928" lon="1.569959968328476">
        <ele>1217.6500000000001</ele>
        <time>2025-05-14T12:06:22Z</time>
      </trkpt>
      <trkpt lat="42.529199011623859" lon="1.571447001770139">
        <ele>1217.6500000000001</ele>
        <time>2025-05-14T12:06:31Z</time>
      </trkpt>
      <trkpt lat="42.529006982222199" lon="1.57119101844728">
        <ele>1217.6500000000001</ele>
        <time>2025-05-14T12:06:33Z</time>
      </trkpt>
      <trkpt lat="42.52907101996243" lon="1.571276010945439">
        <ele>1217.1700000000001</ele>
        <time>2025-05-14T12:06:34Z</time>
      </trkpt>
      <trkpt lat="42.529137991368771" lon="1.571365026757121">
        <ele>1217.6500000000001</ele>
        <time>2025-05-14T12:06:35Z</time>
      </trkpt>
      <trkpt lat="42.529236981645226" lon="1.571498969569802">
        <ele>1217.6500000000001</ele>
        <time>2025-05-14T12:06:36Z</time>
      </trkpt>
      <trkpt lat="42.529300013557076" lon="1.571796024218202">
        <ele>1217.6500000000001</ele>
        <time>2025-05-14T12:06:37Z</time>
      </trkpt>
      <trkpt lat="42.529305964708328" lon="1.571905994787812">
        <ele>1217.6500000000001</ele>
        <time>2025-05-14T12:06:38Z</time>
      </trkpt>
      <trkpt lat="42.529315017163754" lon="1.57205200754106">
        <ele>1217.6500000000001</ele>
        <time>2025-05-14T12:06:39Z</time>
      </trkpt>
      <trkpt lat="42.529363967478275" lon="1.572354007512331">
        <ele>1217.1700000000001</ele>
        <time>2025-05-14T12:06:41Z</time>
      </trkpt>
      <trkpt lat="42.529411995783448" lon="1.572489039972425">
        <ele>1217.1700000000001</ele>
        <time>2025-05-14T12:06:42Z</time>
      </trkpt>
      <trkpt lat="42.529471004381776" lon="1.57265399582684">
        <ele>1217.1700000000001</ele>
        <time>2025-05-14T12:06:43Z</time>
      </trkpt>
      <trkpt lat="42.529623974114656" lon="1.572907967492938">
        <ele>1218.6099999999999</ele>
        <time>2025-05-14T12:06:45Z</time>
      </trkpt>
      <trkpt lat="42.529698992148042" lon="1.573002012446523">
        <ele>1219.5699999999999</ele>
        <time>2025-05-14T12:06:46Z</time>
      </trkpt>
      <trkpt lat="42.529822960495949" lon="1.573094967752695">
        <ele>1221.01</ele>
        <time>2025-05-14T12:06:47Z</time>
      </trkpt>
      <trkpt lat="42.529952963814139" lon="1.573192030191422">
        <ele>1222.9300000000001</ele>
        <time>2025-05-14T12:06:48Z</time>
      </trkpt>
      <trkpt lat="42.530090007930994" lon="1.573294959962368">
        <ele>1224.8599999999999</ele>
        <time>2025-05-14T12:06:49Z</time>
      </trkpt>
      <trkpt lat="42.53036200068891" lon="1.573516996577382">
        <ele>1227.74</ele>
        <time>2025-05-14T12:06:51Z</time>
      </trkpt>
      <trkpt lat="42.530625024810433" lon="1.573765017092228">
        <ele>1231.5899999999999</ele>
        <time>2025-05-14T12:06:53Z</time>
      </trkpt>
      <trkpt lat="42.530767014250159" lon="1.57392100431025">
        <ele>1233.51</ele>
        <time>2025-05-14T12:06:54Z</time>
      </trkpt>
      <trkpt lat="42.53087799064815" lon="1.574090989306569">
        <ele>1235.4300000000001</ele>
        <time>2025-05-14T12:06:55Z</time>
      </trkpt>
      <trkpt lat="42.53098301589489" lon="1.574261980131269">
        <ele>1237.3499999999999</ele>
        <time>2025-05-14T12:06:56Z</time>
      </trkpt>
      <trkpt lat="42.531102038919926" lon="1.57445702701807">
        <ele>1239.28</ele>
        <time>2025-05-14T12:06:57Z</time>
      </trkpt>
      <trkpt lat="42.531180996447802" lon="1.574655007570982">
        <ele>1241.6800000000001</ele>
        <time>2025-05-14T12:06:58Z</time>
      </trkpt>
      <trkpt lat="42.531259031966329" lon="1.574847958981991">
        <ele>1243.5999999999999</ele>
        <time>2025-05-14T12:06:59Z</time>
      </trkpt>
      <trkpt lat="42.531321980059147" lon="1.575066978111863">
        <ele>1245.53</ele>
        <time>2025-05-14T12:07:00Z</time>
      </trkpt>
      <trkpt lat="42.531689023599029" lon="1.577235041186214">
        <ele>1264.75</ele>
        <time>2025-05-14T12:07:11Z</time>
      </trkpt>
      <trkpt lat="42.531787008047104" lon="1.579037988558412">
        <ele>1272.9200000000001</ele>
        <time>2025-05-14T12:07:20Z</time>
      </trkpt>
      <trkpt lat="42.531754989176989" lon="1.579499999061227">
        <ele>1275.3299999999999</ele>
        <time>2025-05-14T12:07:23Z</time>
      </trkpt>
      <trkpt lat="42.531712995842099" lon="1.579650035127997">
        <ele>1275.8099999999999</ele>
        <time>2025-05-14T12:07:24Z</time>
      </trkpt>
      <trkpt lat="42.531617023050785" lon="1.579713989049196">
        <ele>1276.77</ele>
        <time>2025-05-14T12:07:25Z</time>
      </trkpt>
      <trkpt lat="42.531617023050785" lon="1.579810967668891">
        <ele>1277.73</ele>
        <time>2025-05-14T12:07:26Z</time>
      </trkpt>
      <trkpt lat="42.531617023050785" lon="1.579922027885914">
        <ele>1278.6900000000001</ele>
        <time>2025-05-14T12:07:27Z</time>
      </trkpt>
      <trkpt lat="42.531746020540595" lon="1.580033004283905">
        <ele>1280.1300000000001</ele>
        <time>2025-05-14T12:07:28Z</time>
      </trkpt>
      <trkpt lat="42.531746020540595" lon="1.58015001565218">
        <ele>1281.5699999999999</ele>
        <time>2025-05-14T12:07:29Z</time>
      </trkpt>
      <trkpt lat="42.531746020540595" lon="1.580284964293242">
        <ele>1282.54</ele>
        <time>2025-05-14T12:07:30Z</time>
      </trkpt>
      <trkpt lat="42.531745014712214" lon="1.580429971218109">
        <ele>1283.5</ele>
        <time>2025-05-14T12:07:31Z</time>
      </trkpt>
      <trkpt lat="42.53173696808517" lon="1.580579001456499">
        <ele>1284.9400000000001</ele>
        <time>2025-05-14T12:07:32Z</time>
      </trkpt>
      <trkpt lat="42.531681982800364" lon="1.58201901242137">
        <ele>1293.5899999999999</ele>
        <time>2025-05-14T12:07:40Z</time>
      </trkpt>
      <trkpt lat="42.531738979741931" lon="1.582627035677433">
        <ele>1296.48</ele>
        <time>2025-05-14T12:07:43Z</time>
      </trkpt>
      <trkpt lat="42.531984988600016" lon="1.583345029503107">
        <ele>1299.8399999999999</ele>
        <time>2025-05-14T12:07:47Z</time>
      </trkpt>
      <trkpt lat="42.532064029946923" lon="1.583504034206271">
        <ele>1301.28</ele>
        <time>2025-05-14T12:07:48Z</time>
      </trkpt>
      <trkpt lat="42.532139969989657" lon="1.583655998110771">
        <ele>1302.24</ele>
        <time>2025-05-14T12:07:49Z</time>
      </trkpt>
      <trkpt lat="42.532228985801339" lon="1.583790024742484">
        <ele>1303.2</ele>
        <time>2025-05-14T12:07:50Z</time>
      </trkpt>
      <trkpt lat="42.532326970249414" lon="1.583907958120108">
        <ele>1304.1700000000001</ele>
        <time>2025-05-14T12:07:51Z</time>
      </trkpt>
      <trkpt lat="42.532991990447044" lon="1.584671968594194">
        <ele>1313.78</ele>
        <time>2025-05-14T12:07:59Z</time>
      </trkpt>
      <trkpt lat="42.533106990158558" lon="1.584818987175822">
        <ele>1316.1800000000001</ele>
        <time>2025-05-14T12:08:01Z</time>
      </trkpt>
      <trkpt lat="42.533204974606633" lon="1.585021996870637">
        <ele>1317.1400000000001</ele>
        <time>2025-05-14T12:08:03Z</time>
      </trkpt>
      <trkpt lat="42.53325903788209" lon="1.585130961611867">
        <ele>1318.0999999999999</ele>
        <time>2025-05-14T12:08:04Z</time>
      </trkpt>
      <trkpt lat="42.533312011510134" lon="1.58524202182889">
        <ele>1318.5899999999999</ele>
        <time>2025-05-14T12:08:05Z</time>
      </trkpt>
      <trkpt lat="42.533462969586253" lon="1.585549972951412">
        <ele>1320.03</ele>
        <time>2025-05-14T12:08:08Z</time>
      </trkpt>
      <trkpt lat="42.533590961247683" lon="1.585658015683293">
        <ele>1320.51</ele>
        <time>2025-05-14T12:08:09Z</time>
      </trkpt>
      <trkpt lat="42.533661033958197" lon="1.585726998746395">
        <ele>1320.99</ele>
        <time>2025-05-14T12:08:10Z</time>
      </trkpt>
      <trkpt lat="42.534084990620613" lon="1.586140980944037">
        <ele>1323.3900000000001</ele>
        <time>2025-05-14T12:08:15Z</time>
      </trkpt>
      <trkpt lat="42.534198984503746" lon="1.586352959275246">
        <ele>1323.8699999999999</ele>
        <time>2025-05-14T12:08:17Z</time>
      </trkpt>
      <trkpt lat="42.534556975588202" lon="1.587052009999752">
        <ele>1328.6800000000001</ele>
        <time>2025-05-14T12:08:23Z</time>
      </trkpt>
      <trkpt lat="42.534625036641955" lon="1.587158963084221">
        <ele>1329.6400000000001</ele>
        <time>2025-05-14T12:08:24Z</time>
      </trkpt>
      <trkpt lat="42.534694019705057" lon="1.587269017472863">
        <ele>1330.5999999999999</ele>
        <time>2025-05-14T12:08:25Z</time>
      </trkpt>
      <trkpt lat="42.534764008596539" lon="1.587378988042474">
        <ele>1331.5599999999999</ele>
        <time>2025-05-14T12:08:26Z</time>
      </trkpt>
      <trkpt lat="42.5348299741745" lon="1.587483007460833">
        <ele>1333.01</ele>
        <time>2025-05-14T12:08:27Z</time>
      </trkpt>
      <trkpt lat="42.534893006086349" lon="1.587583003565669">
        <ele>1333.97</ele>
        <time>2025-05-14T12:08:28Z</time>
      </trkpt>
      <trkpt lat="42.53495897166431" lon="1.587687022984028">
        <ele>1334.45</ele>
        <time>2025-05-14T12:08:29Z</time>
      </trkpt>
      <trkpt lat="42.535133985802531" lon="1.587964966893196">
        <ele>1336.8499999999999</ele>
        <time>2025-05-14T12:08:32Z</time>
      </trkpt>
      <trkpt lat="42.535178996622562" lon="1.588067980483174">
        <ele>1337.3299999999999</ele>
        <time>2025-05-14T12:08:33Z</time>
      </trkpt>
      <trkpt lat="42.535307994112372" lon="1.588210975751281">
        <ele>1337.8099999999999</ele>
        <time>2025-05-14T12:08:34Z</time>
      </trkpt>
      <trkpt lat="42.535307994112372" lon="1.588210975751281">
        <ele>1338.77</ele>
        <time>2025-05-14T12:08:35Z</time>
      </trkpt>
      <trkpt lat="42.535341018810868" lon="1.58825003542006">
        <ele>1339.73</ele>
        <time>2025-05-14T12:08:36Z</time>
      </trkpt>
      <trkpt lat="42.535407990217209" lon="1.588331004604697">
        <ele>1340.22</ele>
        <time>2025-05-14T12:08:37Z</time>
      </trkpt>
      <trkpt lat="42.536326982080936" lon="1.588855041190982">
        <ele>1345.02</ele>
        <time>2025-05-14T12:08:46Z</time>
      </trkpt>
      <trkpt lat="42.536655971780419" lon="1.589059978723526">
        <ele>1345.5</ele>
        <time>2025-05-14T12:08:49Z</time>
      </trkpt>
      <trkpt lat="42.536770971491933" lon="1.589136002585292">
        <ele>1345.98</ele>
        <time>2025-05-14T12:08:50Z</time>
      </trkpt>
      <trkpt lat="42.536883037537336" lon="1.589247984811664">
        <ele>1345.98</ele>
        <time>2025-05-14T12:08:51Z</time>
      </trkpt>
      <trkpt lat="42.536983033642173" lon="1.589388968423009">
        <ele>1346.46</ele>
        <time>2025-05-14T12:08:52Z</time>
      </trkpt>
      <trkpt lat="42.537079006433487" lon="1.589544033631682">
        <ele>1346.9400000000001</ele>
        <time>2025-05-14T12:08:53Z</time>
      </trkpt>
      <trkpt lat="42.537174979224801" lon="1.58973497338593">
        <ele>1346.9400000000001</ele>
        <time>2025-05-14T12:08:54Z</time>
      </trkpt>
      <trkpt lat="42.537251003086567" lon="1.589886015281081">
        <ele>1347.4300000000001</ele>
        <time>2025-05-14T12:08:55Z</time>
      </trkpt>
      <trkpt lat="42.53779599443078" lon="1.591006005182862">
        <ele>1352.23</ele>
        <time>2025-05-14T12:09:01Z</time>
      </trkpt>
      <trkpt lat="42.537893978878856" lon="1.591198034584522">
        <ele>1353.1900000000001</ele>
        <time>2025-05-14T12:09:02Z</time>
      </trkpt>
      <trkpt lat="42.538001015782356" lon="1.591362990438938">
        <ele>1354.6300000000001</ele>
        <time>2025-05-14T12:09:03Z</time>
      </trkpt>
      <trkpt lat="42.538133030757308" lon="1.59149500541389">
        <ele>1356.0799999999999</ele>
        <time>2025-05-14T12:09:04Z</time>
      </trkpt>
      <trkpt lat="42.538282983005047" lon="1.591587960720062">
        <ele>1357.04</ele>
        <time>2025-05-14T12:09:05Z</time>
      </trkpt>
      <trkpt lat="42.538432013243437" lon="1.591682005673647">
        <ele>1358.48</ele>
        <time>2025-05-14T12:09:06Z</time>
      </trkpt>
      <trkpt lat="42.538591017946601" lon="1.591706983745098">
        <ele>1359.4400000000001</ele>
        <time>2025-05-14T12:09:07Z</time>
      </trkpt>
      <trkpt lat="42.538759997114539" lon="1.591729028150439">
        <ele>1360.8800000000001</ele>
        <time>2025-05-14T12:09:08Z</time>
      </trkpt>
      <trkpt lat="42.538935011252761" lon="1.591751994565129">
        <ele>1361.8399999999999</ele>
        <time>2025-05-14T12:09:09Z</time>
      </trkpt>
      <trkpt lat="42.54011400975287" lon="1.591879986226559">
        <ele>1370.5</ele>
        <time>2025-05-14T12:09:16Z</time>
      </trkpt>
      <trkpt lat="42.54026697948575" lon="1.59199096262455">
        <ele>1371.9400000000001</ele>
        <time>2025-05-14T12:09:17Z</time>
      </trkpt>
      <trkpt lat="42.540464038029313" lon="1.592121971771121">
        <ele>1372.9000000000001</ele>
        <time>2025-05-14T12:09:18Z</time>
      </trkpt>
      <trkpt lat="42.540655983611941" lon="1.592240994796157">
        <ele>1373.8599999999999</ele>
        <time>2025-05-14T12:09:19Z</time>
      </trkpt>
      <trkpt lat="42.540796967223287" lon="1.592329004779458">
        <ele>1375.3</ele>
        <time>2025-05-14T12:09:20Z</time>
      </trkpt>
      <trkpt lat="42.540956977754831" lon="1.592320036143065">
        <ele>1376.26</ele>
        <time>2025-05-14T12:09:21Z</time>
      </trkpt>
      <trkpt lat="42.541091004386544" lon="1.592309977859259">
        <ele>1377.71</ele>
        <time>2025-05-14T12:09:22Z</time>
      </trkpt>
      <trkpt lat="42.541189994663" lon="1.592230014503002">
        <ele>1379.1500000000001</ele>
        <time>2025-05-14T12:09:23Z</time>
      </trkpt>
      <trkpt lat="42.541300971060991" lon="1.592130018398166">
        <ele>1380.5899999999999</ele>
        <time>2025-05-14T12:09:24Z</time>
      </trkpt>
      <trkpt lat="42.541405996307731" lon="1.5920349676162">
        <ele>1381.55</ele>
        <time>2025-05-14T12:09:25Z</time>
      </trkpt>
      <trkpt lat="42.541529964655638" lon="1.591923991218209">
        <ele>1382.51</ele>
        <time>2025-05-14T12:09:26Z</time>
      </trkpt>
      <trkpt lat="42.541828025132418" lon="1.591722993180156">
        <ele>1383.96</ele>
        <time>2025-05-14T12:09:28Z</time>
      </trkpt>
      <trkpt lat="42.541980994865298" lon="1.591665996238589">
        <ele>1384.4400000000001</ele>
        <time>2025-05-14T12:09:29Z</time>
      </trkpt>
      <trkpt lat="42.542160032317042" lon="1.591639006510377">
        <ele>1385.4000000000001</ele>
        <time>2025-05-14T12:09:30Z</time>
      </trkpt>
      <trkpt lat="42.542323982343078" lon="1.591608999297023">
        <ele>1386.3599999999999</ele>
        <time>2025-05-14T12:09:31Z</time>
      </trkpt>
      <trkpt lat="42.542484998703003" lon="1.591578992083669">
        <ele>1387.8</ele>
        <time>2025-05-14T12:09:32Z</time>
      </trkpt>
      <trkpt lat="42.543104002252221" lon="1.591544961556792">
        <ele>1391.1700000000001</ele>
        <time>2025-05-14T12:09:36Z</time>
      </trkpt>
      <trkpt lat="42.543268958106637" lon="1.591590978205204">
        <ele>1392.1300000000001</ele>
        <time>2025-05-14T12:09:37Z</time>
      </trkpt>
      <trkpt lat="42.543439026921988" lon="1.591639006510377">
        <ele>1392.6099999999999</ele>
        <time>2025-05-14T12:09:38Z</time>
      </trkpt>
      <trkpt lat="42.543612029403448" lon="1.59168703481555">
        <ele>1393.0899999999999</ele>
        <time>2025-05-14T12:09:39Z</time>
      </trkpt>
      <trkpt lat="42.543796012178063" lon="1.59173296764493">
        <ele>1394.05</ele>
        <time>2025-05-14T12:09:40Z</time>
      </trkpt>
      <trkpt lat="42.543975971639156" lon="1.591777978464961">
        <ele>1394.53</ele>
        <time>2025-05-14T12:09:41Z</time>
      </trkpt>
      <trkpt lat="42.544149979948997" lon="1.591820977628231">
        <ele>1395.01</ele>
        <time>2025-05-14T12:09:42Z</time>
      </trkpt>
      <trkpt lat="42.544313007965684" lon="1.591826006770134">
        <ele>1395.49</ele>
        <time>2025-05-14T12:09:43Z</time>
      </trkpt>
      <trkpt lat="42.544477041810751" lon="1.591791976243258">
        <ele>1395.97</ele>
        <time>2025-05-14T12:09:44Z</time>
      </trkpt>
      <trkpt lat="42.544644009321928" lon="1.591734979301691">
        <ele>1396.9300000000001</ele>
        <time>2025-05-14T12:09:45Z</time>
      </trkpt>
      <trkpt lat="42.544813994318247" lon="1.591676976531744">
        <ele>1397.4100000000001</ele>
        <time>2025-05-14T12:09:46Z</time>
      </trkpt>
      <trkpt lat="42.545868018642068" lon="1.591440020129085">
        <ele>1401.74</ele>
        <time>2025-05-14T12:09:52Z</time>
      </trkpt>
      <trkpt lat="42.546038003638387" lon="1.591444965451956">
        <ele>1402.22</ele>
        <time>2025-05-14T12:09:53Z</time>
      </trkpt>
      <trkpt lat="42.546207988634706" lon="1.591451000422239">
        <ele>1403.1800000000001</ele>
        <time>2025-05-14T12:09:54Z</time>
      </trkpt>
      <trkpt lat="42.546383002772927" lon="1.59151797182858">
        <ele>1403.6600000000001</ele>
        <time>2025-05-14T12:09:55Z</time>
      </trkpt>
      <trkpt lat="42.54655902273953" lon="1.591590978205204">
        <ele>1404.1400000000001</ele>
        <time>2025-05-14T12:09:56Z</time>
      </trkpt>
      <trkpt lat="42.547496035695076" lon="1.59181603230536">
        <ele>1406.0699999999999</ele>
        <time>2025-05-14T12:10:01Z</time>
      </trkpt>
      <trkpt lat="42.547669960185885" lon="1.59181603230536">
        <ele>1406.0699999999999</ele>
        <time>2025-05-14T12:10:02Z</time>
      </trkpt>
      <trkpt lat="42.549267970025539" lon="1.591548984870315">
        <ele>1407.51</ele>
        <time>2025-05-14T12:10:11Z</time>
      </trkpt>
      <trkpt lat="42.550480999052525" lon="1.591095020994544">
        <ele>1409.4300000000001</ele>
        <time>2025-05-14T12:10:19Z</time>
      </trkpt>
      <trkpt lat="42.551015010103583" lon="1.590828979387879">
        <ele>1410.3900000000001</ele>
        <time>2025-05-14T12:10:25Z</time>
      </trkpt>
      <trkpt lat="42.551076030358672" lon="1.590794026851654">
        <ele>1410.3900000000001</ele>
        <time>2025-05-14T12:10:26Z</time>
      </trkpt>
      <trkpt lat="42.551164962351322" lon="1.590742981061339">
        <ele>1410.3900000000001</ele>
        <time>2025-05-14T12:10:27Z</time>
      </trkpt>
      <trkpt lat="42.551256995648146" lon="1.590684978291392">
        <ele>1410.3900000000001</ele>
        <time>2025-05-14T12:10:28Z</time>
      </trkpt>
      <trkpt lat="42.551365038380027" lon="1.590615995228291">
        <ele>1410.3900000000001</ele>
        <time>2025-05-14T12:10:29Z</time>
      </trkpt>
      <trkpt lat="42.552191996946931" lon="1.589700020849705">
        <ele>1409.9100000000001</ele>
        <time>2025-05-14T12:10:36Z</time>
      </trkpt>
      <trkpt lat="42.552890963852406" lon="1.588914971798658">
        <ele>1410.8699999999999</ele>
        <time>2025-05-14T12:10:41Z</time>
      </trkpt>
      <trkpt lat="42.553056003525853" lon="1.58883199095726">
        <ele>1410.8699999999999</ele>
        <time>2025-05-14T12:10:42Z</time>
      </trkpt>
      <trkpt lat="42.553224982693791" lon="1.588748004287481">
        <ele>1411.3499999999999</ele>
        <time>2025-05-14T12:10:43Z</time>
      </trkpt>
      <trkpt lat="42.553388010710478" lon="1.58870299346745">
        <ele>1411.3499999999999</ele>
        <time>2025-05-14T12:10:44Z</time>
      </trkpt>
      <trkpt lat="42.553552966564894" lon="1.588655970990658">
        <ele>1411.8299999999999</ele>
        <time>2025-05-14T12:10:45Z</time>
      </trkpt>
      <trkpt lat="42.553892014548182" lon="1.588614983484149">
        <ele>1412.3099999999999</ele>
        <time>2025-05-14T12:10:47Z</time>
      </trkpt>
      <trkpt lat="42.554427031427622" lon="1.58855396322906">
        <ele>1414.24</ele>
        <time>2025-05-14T12:10:50Z</time>
      </trkpt>
      <trkpt lat="42.555411988869309" lon="1.588511969894171">
        <ele>1422.8900000000001</ele>
        <time>2025-05-14T12:10:56Z</time>
      </trkpt>
      <trkpt lat="42.555567976087332" lon="1.58855396322906">
        <ele>1424.3299999999999</ele>
        <time>2025-05-14T12:10:57Z</time>
      </trkpt>
      <trkpt lat="42.555720023810863" lon="1.588596040382981">
        <ele>1425.77</ele>
        <time>2025-05-14T12:10:58Z</time>
      </trkpt>
      <trkpt lat="42.556140040978789" lon="1.588712967932224">
        <ele>1431.0599999999999</ele>
        <time>2025-05-14T12:11:01Z</time>
      </trkpt>
      <trkpt lat="42.556285969913006" lon="1.588712967932224">
        <ele>1432.98</ele>
        <time>2025-05-14T12:11:02Z</time>
      </trkpt>
      <trkpt lat="42.556854011490941" lon="1.588662005960941">
        <ele>1437.79</ele>
        <time>2025-05-14T12:11:06Z</time>
      </trkpt>
      <trkpt lat="42.558300979435444" lon="1.588988984003663">
        <ele>1453.6500000000001</ele>
        <time>2025-05-14T12:11:16Z</time>
      </trkpt>
      <trkpt lat="42.558693001046777" lon="1.589148994535208">
        <ele>1457.98</ele>
        <time>2025-05-14T12:11:19Z</time>
      </trkpt>
      <trkpt lat="42.558816969394684" lon="1.589184030890465">
        <ele>1459.4200000000001</ele>
        <time>2025-05-14T12:11:20Z</time>
      </trkpt>
      <trkpt lat="42.559490958228707" lon="1.589284026995301">
        <ele>1462.3</ele>
        <time>2025-05-14T12:11:25Z</time>
      </trkpt>
      <trkpt lat="42.559632025659084" lon="1.589386034756899">
        <ele>1463.26</ele>
        <time>2025-05-14T12:11:26Z</time>
      </trkpt>
      <trkpt lat="42.560845976695418" lon="1.590161025524139">
        <ele>1475.28</ele>
        <time>2025-05-14T12:11:34Z</time>
      </trkpt>
      <trkpt lat="42.561011016368866" lon="1.590219028294087">
        <ele>1477.6800000000001</ele>
        <time>2025-05-14T12:11:35Z</time>
      </trkpt>
      <trkpt lat="42.561183013021946" lon="1.590237971395254">
        <ele>1479.6099999999999</ele>
        <time>2025-05-14T12:11:36Z</time>
      </trkpt>
      <trkpt lat="42.561998991295695" lon="1.590344002470374">
        <ele>1489.22</ele>
        <time>2025-05-14T12:11:41Z</time>
      </trkpt>
      <trkpt lat="42.562780017033219" lon="1.590495966374874">
        <ele>1498.8299999999999</ele>
        <time>2025-05-14T12:11:46Z</time>
      </trkpt>
      <trkpt lat="42.563763968646526" lon="1.590978009626269">
        <ele>1511.8099999999999</ele>
        <time>2025-05-14T12:11:53Z</time>
      </trkpt>
      <trkpt lat="42.563877962529659" lon="1.591083034873009">
        <ele>1512.77</ele>
        <time>2025-05-14T12:11:54Z</time>
      </trkpt>
      <trkpt lat="42.563976030796766" lon="1.591262994334102">
        <ele>1514.21</ele>
        <time>2025-05-14T12:11:55Z</time>
      </trkpt>
      <trkpt lat="42.564025986939669" lon="1.591664990410209">
        <ele>1516.6199999999999</ele>
        <time>2025-05-14T12:11:57Z</time>
      </trkpt>
      <trkpt lat="42.564080972224474" lon="1.592173017561436">
        <ele>1520.46</ele>
        <time>2025-05-14T12:12:00Z</time>
      </trkpt>
      <trkpt lat="42.564132018014789" lon="1.592316012829542">
        <ele>1521.4200000000001</ele>
        <time>2025-05-14T12:12:01Z</time>
      </trkpt>
      <trkpt lat="42.564190020784736" lon="1.592480968683958">
        <ele>1522.3900000000001</ele>
        <time>2025-05-14T12:12:02Z</time>
      </trkpt>
      <trkpt lat="42.564232014119625" lon="1.592573001980782">
        <ele>1523.3499999999999</ele>
        <time>2025-05-14T12:12:03Z</time>
      </trkpt>
      <trkpt lat="42.564296973869205" lon="1.592717003077269">
        <ele>1523.8299999999999</ele>
        <time>2025-05-14T12:12:04Z</time>
      </trkpt>
      <trkpt lat="42.564381966367364" lon="1.592904003337026">
        <ele>1525.27</ele>
        <time>2025-05-14T12:12:06Z</time>
      </trkpt>
      <trkpt lat="42.564362017437816" lon="1.593145988881588">
        <ele>1525.75</ele>
        <time>2025-05-14T12:12:07Z</time>
      </trkpt>
      <trkpt lat="42.564370986074209" lon="1.593170966953039">
        <ele>1526.23</ele>
        <time>2025-05-14T12:12:08Z</time>
      </trkpt>
      <trkpt lat="42.564405016601086" lon="1.593254031613469">
        <ele>1527.1900000000001</ele>
        <time>2025-05-14T12:12:09Z</time>
      </trkpt>
      <trkpt lat="42.564451033249497" lon="1.593273980543017">
        <ele>1527.1900000000001</ele>
        <time>2025-05-14T12:12:10Z</time>
      </trkpt>
      <trkpt lat="42.564503001049161" lon="1.593296024948359">
        <ele>1527.6700000000001</ele>
        <time>2025-05-14T12:12:11Z</time>
      </trkpt>
      <trkpt lat="42.564554968848825" lon="1.593317985534668">
        <ele>1527.6700000000001</ele>
        <time>2025-05-14T12:12:12Z</time>
      </trkpt>
      <trkpt lat="42.564653037115932" lon="1.593190999701619">
        <ele>1527.6700000000001</ele>
        <time>2025-05-14T12:12:13Z</time>
      </trkpt>
      <trkpt lat="42.564743980765343" lon="1.593202985823154">
        <ele>1528.1500000000001</ele>
        <time>2025-05-14T12:12:14Z</time>
      </trkpt>
      <trkpt lat="42.565305987372994" lon="1.593274986371398">
        <ele>1527.1900000000001</ele>
        <time>2025-05-14T12:12:19Z</time>
      </trkpt>
      <trkpt lat="42.565438002347946" lon="1.593377999961376">
        <ele>1527.1900000000001</ele>
        <time>2025-05-14T12:12:20Z</time>
      </trkpt>
      <trkpt lat="42.565540010109544" lon="1.593483025208116">
        <ele>1527.1900000000001</ele>
        <time>2025-05-14T12:12:21Z</time>
      </trkpt>
      <trkpt lat="42.565627014264464" lon="1.593604981899262">
        <ele>1527.6700000000001</ele>
        <time>2025-05-14T12:12:22Z</time>
      </trkpt>
      <trkpt lat="42.565714018419385" lon="1.59372802823782">
        <ele>1527.6700000000001</ele>
        <time>2025-05-14T12:12:23Z</time>
      </trkpt>
      <trkpt lat="42.566123977303505" lon="1.594329010695219">
        <ele>1529.1099999999999</ele>
        <time>2025-05-14T12:12:28Z</time>
      </trkpt>
      <trkpt lat="42.566191032528877" lon="1.594449039548636">
        <ele>1529.5899999999999</ele>
        <time>2025-05-14T12:12:29Z</time>
      </trkpt>
      <trkpt lat="42.566248029470444" lon="1.594576025381684">
        <ele>1529.5899999999999</ele>
        <time>2025-05-14T12:12:30Z</time>
      </trkpt>
      <trkpt lat="42.566279964521527" lon="1.594722960144281">
        <ele>1530.0799999999999</ele>
        <time>2025-05-14T12:12:31Z</time>
      </trkpt>
      <trkpt lat="42.566293040290475" lon="1.594863021746278">
        <ele>1530.5599999999999</ele>
        <time>2025-05-14T12:12:32Z</time>
      </trkpt>
      <trkpt lat="42.566275019198656" lon="1.59499897621572">
        <ele>1531.04</ele>
        <time>2025-05-14T12:12:33Z</time>
      </trkpt>
      <trkpt lat="42.566255992278457" lon="1.595141971483827">
        <ele>1532</ele>
        <time>2025-05-14T12:12:34Z</time>
      </trkpt>
      <trkpt lat="42.566109979525208" lon="1.595967002213001">
        <ele>1533.9200000000001</ele>
        <time>2025-05-14T12:12:40Z</time>
      </trkpt>
      <trkpt lat="42.566077038645744" lon="1.596095999702811">
        <ele>1534.4000000000001</ele>
        <time>2025-05-14T12:12:41Z</time>
      </trkpt>
      <trkpt lat="42.565949968993664" lon="1.596470000222325">
        <ele>1533.9200000000001</ele>
        <time>2025-05-14T12:12:44Z</time>
      </trkpt>
      <trkpt lat="42.565885009244084" lon="1.596621964126825">
        <ele>1533.9200000000001</ele>
        <time>2025-05-14T12:12:45Z</time>
      </trkpt>
      <trkpt lat="42.565801022574306" lon="1.596946008503437">
        <ele>1533.4400000000001</ele>
        <time>2025-05-14T12:12:48Z</time>
      </trkpt>
      <trkpt lat="42.565777972340584" lon="1.597066037356854">
        <ele>1532.96</ele>
        <time>2025-05-14T12:12:49Z</time>
      </trkpt>
      <trkpt lat="42.565757017582655" lon="1.597175002098084">
        <ele>1532.96</ele>
        <time>2025-05-14T12:12:50Z</time>
      </trkpt>
      <trkpt lat="42.565738996490836" lon="1.597266029566526">
        <ele>1532.48</ele>
        <time>2025-05-14T12:12:51Z</time>
      </trkpt>
      <trkpt lat="42.565740002319217" lon="1.59733803011477">
        <ele>1532.48</ele>
        <time>2025-05-14T12:12:52Z</time>
      </trkpt>
      <trkpt lat="42.565746959298849" lon="1.597394021227956">
        <ele>1532</ele>
        <time>2025-05-14T12:12:53Z</time>
      </trkpt>
      <trkpt lat="42.565750982612371" lon="1.597435008734465">
        <ele>1532</ele>
        <time>2025-05-14T12:12:54Z</time>
      </trkpt>
      <trkpt lat="42.565755005925894" lon="1.597468033432961">
        <ele>1531.52</ele>
        <time>2025-05-14T12:13:03Z</time>
      </trkpt>
      <trkpt lat="42.565761040896177" lon="1.597579009830952">
        <ele>1529.5899999999999</ele>
        <time>2025-05-14T12:13:16Z</time>
      </trkpt>
      <trkpt lat="42.565786018967628" lon="1.597642963752151">
        <ele>1529.5899999999999</ele>
        <time>2025-05-14T12:13:17Z</time>
      </trkpt>
      <trkpt lat="42.566140992566943" lon="1.598534965887666">
        <ele>1531.04</ele>
        <time>2025-05-14T12:13:28Z</time>
      </trkpt>
      <trkpt lat="42.566217016428709" lon="1.598708974197507">
        <ele>1532</ele>
        <time>2025-05-14T12:13:30Z</time>
      </trkpt>
      <trkpt lat="42.566253980621696" lon="1.598793966695666">
        <ele>1532.96</ele>
        <time>2025-05-14T12:13:31Z</time>
      </trkpt>
      <trkpt lat="42.566358000040054" lon="1.59903896972537">
        <ele>1534.4000000000001</ele>
        <time>2025-05-14T12:13:34Z</time>
      </trkpt>
      <trkpt lat="42.566442992538214" lon="1.599282966926694">
        <ele>1535.3599999999999</ele>
        <time>2025-05-14T12:13:37Z</time>
      </trkpt>
      <trkpt lat="42.566543994471431" lon="1.599501986056566">
        <ele>1535.3599999999999</ele>
        <time>2025-05-14T12:13:39Z</time>
      </trkpt>
      <trkpt lat="42.566591016948223" lon="1.599620003253222">
        <ele>1535.3599999999999</ele>
        <time>2025-05-14T12:13:40Z</time>
      </trkpt>
      <trkpt lat="42.56662798114121" lon="1.599730979651213">
        <ele>1535.3599999999999</ele>
        <time>2025-05-14T12:13:41Z</time>
      </trkpt>
      <trkpt lat="42.566689001396298" lon="1.599942035973072">
        <ele>1534.8800000000001</ele>
        <time>2025-05-14T12:13:43Z</time>
      </trkpt>
      <trkpt lat="42.566682966426015" lon="1.6001530084759">
        <ele>1534.8800000000001</ele>
        <time>2025-05-14T12:13:45Z</time>
      </trkpt>
      <trkpt lat="42.5667770113796" lon="1.600187039002776">
        <ele>1534.4000000000001</ele>
        <time>2025-05-14T12:13:46Z</time>
      </trkpt>
      <trkpt lat="42.566900979727507" lon="1.60043396987021">
        <ele>1532.96</ele>
        <time>2025-05-14T12:13:49Z</time>
      </trkpt>
      <trkpt lat="42.567224018275738" lon="1.601093038916588">
        <ele>1532</ele>
        <time>2025-05-14T12:13:57Z</time>
      </trkpt>
      <trkpt lat="42.567253019660711" lon="1.601156992837787">
        <ele>1532</ele>
        <time>2025-05-14T12:13:58Z</time>
      </trkpt>
      <trkpt lat="42.567215971648693" lon="1.60137802362442">
        <ele>1531.52</ele>
        <time>2025-05-14T12:14:00Z</time>
      </trkpt>
      <trkpt lat="42.567237010225654" lon="1.601428985595703">
        <ele>1531.52</ele>
        <time>2025-05-14T12:14:01Z</time>
      </trkpt>
      <trkpt lat="42.567361984401941" lon="1.601416999474168">
        <ele>1531.52</ele>
        <time>2025-05-14T12:14:02Z</time>
      </trkpt>
      <trkpt lat="42.567390985786915" lon="1.601467039436102">
        <ele>1531.04</ele>
        <time>2025-05-14T12:14:03Z</time>
      </trkpt>
      <trkpt lat="42.567428033798933" lon="1.60152998752892">
        <ele>1531.04</ele>
        <time>2025-05-14T12:14:04Z</time>
      </trkpt>
      <trkpt lat="42.567473966628313" lon="1.601609028875828">
        <ele>1530.5599999999999</ele>
        <time>2025-05-14T12:14:05Z</time>
      </trkpt>
      <trkpt lat="42.567519983276725" lon="1.601686980575323">
        <ele>1530.5599999999999</ele>
        <time>2025-05-14T12:14:06Z</time>
      </trkpt>
      <trkpt lat="42.567563988268375" lon="1.601763004437089">
        <ele>1530.0799999999999</ele>
        <time>2025-05-14T12:14:07Z</time>
      </trkpt>
      <trkpt lat="42.567673036828637" lon="1.601952016353607">
        <ele>1529.5899999999999</ele>
        <time>2025-05-14T12:14:10Z</time>
      </trkpt>
      <trkpt lat="42.567704971879721" lon="1.602005995810032">
        <ele>1530.0799999999999</ele>
        <time>2025-05-14T12:14:11Z</time>
      </trkpt>
      <trkpt lat="42.568114008754492" lon="1.6027329582721">
        <ele>1529.5899999999999</ele>
        <time>2025-05-14T12:14:21Z</time>
      </trkpt>
      <trkpt lat="42.568154996261001" lon="1.602853992953897">
        <ele>1529.5899999999999</ele>
        <time>2025-05-14T12:14:22Z</time>
      </trkpt>
      <trkpt lat="42.568614995107055" lon="1.604214040562511">
        <ele>1533.4400000000001</ele>
        <time>2025-05-14T12:14:32Z</time>
      </trkpt>
      <trkpt lat="42.568681966513395" lon="1.60432199947536">
        <ele>1533.4400000000001</ele>
        <time>2025-05-14T12:14:33Z</time>
      </trkpt>
      <trkpt lat="42.568766959011555" lon="1.604424007236958">
        <ele>1533.9200000000001</ele>
        <time>2025-05-14T12:14:34Z</time>
      </trkpt>
      <trkpt lat="42.568848012015224" lon="1.604519980028272">
        <ele>1533.9200000000001</ele>
        <time>2025-05-14T12:14:35Z</time>
      </trkpt>
      <trkpt lat="42.568952031433582" lon="1.604588963091373">
        <ele>1534.4000000000001</ele>
        <time>2025-05-14T12:14:36Z</time>
      </trkpt>
      <trkpt lat="42.569064013659954" lon="1.604627016931772">
        <ele>1534.4000000000001</ele>
        <time>2025-05-14T12:14:37Z</time>
      </trkpt>
      <trkpt lat="42.569184964522719" lon="1.604657024145126">
        <ele>1534.4000000000001</ele>
        <time>2025-05-14T12:14:38Z</time>
      </trkpt>
      <trkpt lat="42.569310022518039" lon="1.604688037186861">
        <ele>1534.4000000000001</ele>
        <time>2025-05-14T12:14:39Z</time>
      </trkpt>
      <trkpt lat="42.57023798301816" lon="1.605033958330751">
        <ele>1535.3599999999999</ele>
        <time>2025-05-14T12:14:46Z</time>
      </trkpt>
      <trkpt lat="42.570352982729673" lon="1.605126997455955">
        <ele>1536.3199999999999</ele>
        <time>2025-05-14T12:14:47Z</time>
      </trkpt>
      <trkpt lat="42.570439986884594" lon="1.605275021865964">
        <ele>1536.8</ele>
        <time>2025-05-14T12:14:48Z</time>
      </trkpt>
      <trkpt lat="42.570515004917979" lon="1.605419022962451">
        <ele>1537.29</ele>
        <time>2025-05-14T12:14:49Z</time>
      </trkpt>
      <trkpt lat="42.570588011294603" lon="1.605559000745416">
        <ele>1538.25</ele>
        <time>2025-05-14T12:14:50Z</time>
      </trkpt>
      <trkpt lat="42.570634027943015" lon="1.605733009055257">
        <ele>1538.73</ele>
        <time>2025-05-14T12:14:51Z</time>
      </trkpt>
      <trkpt lat="42.57066898047924" lon="1.605906011536717">
        <ele>1539.6900000000001</ele>
        <time>2025-05-14T12:14:52Z</time>
      </trkpt>
      <trkpt lat="42.571014985442162" lon="1.607680041342974">
        <ele>1546.9000000000001</ele>
        <time>2025-05-14T12:15:03Z</time>
      </trkpt>
      <trkpt lat="42.571237022057176" lon="1.608325028792024">
        <ele>1549.3</ele>
        <time>2025-05-14T12:15:07Z</time>
      </trkpt>
      <trkpt lat="42.571544973179698" lon="1.609076969325542">
        <ele>1550.26</ele>
        <time>2025-05-14T12:15:11Z</time>
      </trkpt>
      <trkpt lat="42.571593001484871" lon="1.60930504091084">
        <ele>1550.74</ele>
        <time>2025-05-14T12:15:12Z</time>
      </trkpt>
      <trkpt lat="42.571583027020097" lon="1.609506960958242">
        <ele>1551.22</ele>
        <time>2025-05-14T12:15:13Z</time>
      </trkpt>
      <trkpt lat="42.57148596458137" lon="1.610576994717121">
        <ele>1552.1900000000001</ele>
        <time>2025-05-14T12:15:18Z</time>
      </trkpt>
      <trkpt lat="42.571507003158331" lon="1.610772963613272">
        <ele>1552.6700000000001</ele>
        <time>2025-05-14T12:15:19Z</time>
      </trkpt>
      <trkpt lat="42.57152603007853" lon="1.61095904186368">
        <ele>1553.1500000000001</ele>
        <time>2025-05-14T12:15:20Z</time>
      </trkpt>
      <trkpt lat="42.57159199565649" lon="1.611122991889715">
        <ele>1553.6300000000001</ele>
        <time>2025-05-14T12:15:21Z</time>
      </trkpt>
      <trkpt lat="42.571666007861495" lon="1.611293982714415">
        <ele>1553.6300000000001</ele>
        <time>2025-05-14T12:15:22Z</time>
      </trkpt>
      <trkpt lat="42.571744965389371" lon="1.611474025994539">
        <ele>1554.1099999999999</ele>
        <time>2025-05-14T12:15:23Z</time>
      </trkpt>
      <trkpt lat="42.571841021999717" lon="1.611647028476">
        <ele>1554.5899999999999</ele>
        <time>2025-05-14T12:15:24Z</time>
      </trkpt>
      <trkpt lat="42.571940012276173" lon="1.611824976280332">
        <ele>1554.5899999999999</ele>
        <time>2025-05-14T12:15:25Z</time>
      </trkpt>
      <trkpt lat="42.572000026702881" lon="1.612046007066965">
        <ele>1555.0699999999999</ele>
        <time>2025-05-14T12:15:26Z</time>
      </trkpt>
      <trkpt lat="42.572045037522912" lon="1.612267959862948">
        <ele>1555.0699999999999</ele>
        <time>2025-05-14T12:15:27Z</time>
      </trkpt>
      <trkpt lat="42.572059035301208" lon="1.612498965114355">
        <ele>1555.55</ele>
        <time>2025-05-14T12:15:28Z</time>
      </trkpt>
      <trkpt lat="42.572073033079505" lon="1.612733993679285">
        <ele>1555.55</ele>
        <time>2025-05-14T12:15:29Z</time>
      </trkpt>
      <trkpt lat="42.572087030857801" lon="1.612972039729357">
        <ele>1556.03</ele>
        <time>2025-05-14T12:15:30Z</time>
      </trkpt>
      <trkpt lat="42.572175040841103" lon="1.613662037998438">
        <ele>1556.51</ele>
        <time>2025-05-14T12:15:33Z</time>
      </trkpt>
      <trkpt lat="42.572222985327244" lon="1.613886002451181">
        <ele>1556.99</ele>
        <time>2025-05-14T12:15:34Z</time>
      </trkpt>
      <trkpt lat="42.573080034926534" lon="1.616880018264055">
        <ele>1560.3599999999999</ele>
        <time>2025-05-14T12:15:48Z</time>
      </trkpt>
      <trkpt lat="42.57354598492384" lon="1.618141997605562">
        <ele>1559.4000000000001</ele>
        <time>2025-05-14T12:15:55Z</time>
      </trkpt>
      <trkpt lat="42.574071027338505" lon="1.61895202472806">
        <ele>1561.3199999999999</ele>
        <time>2025-05-14T12:16:01Z</time>
      </trkpt>
      <trkpt lat="42.574129030108452" lon="1.619092002511025">
        <ele>1561.3199999999999</ele>
        <time>2025-05-14T12:16:02Z</time>
      </trkpt>
      <trkpt lat="42.574155014008284" lon="1.619248995557427">
        <ele>1560.8399999999999</ele>
        <time>2025-05-14T12:16:03Z</time>
      </trkpt>
      <trkpt lat="42.574402028694749" lon="1.620533019304276">
        <ele>1562.76</ele>
        <time>2025-05-14T12:16:12Z</time>
      </trkpt>
      <trkpt lat="42.574763037264347" lon="1.621460979804397">
        <ele>1566.1199999999999</ele>
        <time>2025-05-14T12:16:18Z</time>
      </trkpt>
      <trkpt lat="42.574847023934126" lon="1.621591988950968">
        <ele>1566.6099999999999</ele>
        <time>2025-05-14T12:16:19Z</time>
      </trkpt>
      <trkpt lat="42.574952971190214" lon="1.621697014197707">
        <ele>1567.0899999999999</ele>
        <time>2025-05-14T12:16:20Z</time>
      </trkpt>
      <trkpt lat="42.575060008093715" lon="1.621804973110557">
        <ele>1567.0899999999999</ele>
        <time>2025-05-14T12:16:21Z</time>
      </trkpt>
      <trkpt lat="42.575167967006564" lon="1.621913015842438">
        <ele>1567.0899999999999</ele>
        <time>2025-05-14T12:16:22Z</time>
      </trkpt>
      <trkpt lat="42.575583038851619" lon="1.622360022738576">
        <ele>1567.5699999999999</ele>
        <time>2025-05-14T12:16:26Z</time>
      </trkpt>
      <trkpt lat="42.575670965015888" lon="1.622480973601341">
        <ele>1567.5699999999999</ele>
        <time>2025-05-14T12:16:27Z</time>
      </trkpt>
      <trkpt lat="42.575741037726402" lon="1.622636960819364">
        <ele>1567.5699999999999</ele>
        <time>2025-05-14T12:16:28Z</time>
      </trkpt>
      <trkpt lat="42.575817983597517" lon="1.622808035463095">
        <ele>1567.5699999999999</ele>
        <time>2025-05-14T12:16:29Z</time>
      </trkpt>
      <trkpt lat="42.575889984145761" lon="1.623022025451064">
        <ele>1567.5699999999999</ele>
        <time>2025-05-14T12:16:30Z</time>
      </trkpt>
      <trkpt lat="42.575947986915708" lon="1.623273985460401">
        <ele>1568.05</ele>
        <time>2025-05-14T12:16:31Z</time>
      </trkpt>
      <trkpt lat="42.576222997158766" lon="1.624365979805589">
        <ele>1568.53</ele>
        <time>2025-05-14T12:16:35Z</time>
      </trkpt>
      <trkpt lat="42.576313018798828" lon="1.624592039734125">
        <ele>1569.01</ele>
        <time>2025-05-14T12:16:36Z</time>
      </trkpt>
      <trkpt lat="42.576398011296988" lon="1.624804018065333">
        <ele>1569.01</ele>
        <time>2025-05-14T12:16:37Z</time>
      </trkpt>
      <trkpt lat="42.576475040987134" lon="1.624986995011568">
        <ele>1569.97</ele>
        <time>2025-05-14T12:16:38Z</time>
      </trkpt>
      <trkpt lat="42.576586017385125" lon="1.62516301497817">
        <ele>1570.45</ele>
        <time>2025-05-14T12:16:39Z</time>
      </trkpt>
      <trkpt lat="42.576697999611497" lon="1.625330988317728">
        <ele>1570.9300000000001</ele>
        <time>2025-05-14T12:16:40Z</time>
      </trkpt>
      <trkpt lat="42.576843006536365" lon="1.625475995242596">
        <ele>1571.8900000000001</ele>
        <time>2025-05-14T12:16:41Z</time>
      </trkpt>
      <trkpt lat="42.576993964612484" lon="1.625601975247264">
        <ele>1572.3699999999999</ele>
        <time>2025-05-14T12:16:42Z</time>
      </trkpt>
      <trkpt lat="42.577442983165383" lon="1.625939011573792">
        <ele>1574.3</ele>
        <time>2025-05-14T12:16:45Z</time>
      </trkpt>
      <trkpt lat="42.577594025060534" lon="1.626071026548743">
        <ele>1574.78</ele>
        <time>2025-05-14T12:16:46Z</time>
      </trkpt>
      <trkpt lat="42.577681029215455" lon="1.626251991838217">
        <ele>1575.74</ele>
        <time>2025-05-14T12:16:47Z</time>
      </trkpt>
      <trkpt lat="42.577763004228473" lon="1.626424994319677">
        <ele>1576.7</ele>
        <time>2025-05-14T12:16:48Z</time>
      </trkpt>
      <trkpt lat="42.577815977856517" lon="1.626640995964408">
        <ele>1578.1400000000001</ele>
        <time>2025-05-14T12:16:49Z</time>
      </trkpt>
      <trkpt lat="42.577815977856517" lon="1.626822967082262">
        <ele>1579.0999999999999</ele>
        <time>2025-05-14T12:16:50Z</time>
      </trkpt>
      <trkpt lat="42.577815977856517" lon="1.626990018412471">
        <ele>1580.0599999999999</ele>
        <time>2025-05-14T12:16:51Z</time>
      </trkpt>
      <trkpt lat="42.57780198007822" lon="1.627166038379073">
        <ele>1581.03</ele>
        <time>2025-05-14T12:16:52Z</time>
      </trkpt>
      <trkpt lat="42.577695026993752" lon="1.628132974728942">
        <ele>1587.75</ele>
        <time>2025-05-14T12:16:58Z</time>
      </trkpt>
      <trkpt lat="42.577686980366707" lon="1.628336990252137">
        <ele>1588.72</ele>
        <time>2025-05-14T12:16:59Z</time>
      </trkpt>
      <trkpt lat="42.577711036428809" lon="1.628457019105554">
        <ele>1589.6800000000001</ele>
        <time>2025-05-14T12:17:00Z</time>
      </trkpt>
      <trkpt lat="42.577741965651512" lon="1.628613006323576">
        <ele>1590.1600000000001</ele>
        <time>2025-05-14T12:17:01Z</time>
      </trkpt>
      <trkpt lat="42.577793011441827" lon="1.628756001591682">
        <ele>1591.1199999999999</ele>
        <time>2025-05-14T12:17:02Z</time>
      </trkpt>
      <trkpt lat="42.577853025868535" lon="1.628896985203028">
        <ele>1592.0799999999999</ele>
        <time>2025-05-14T12:17:03Z</time>
      </trkpt>
      <trkpt lat="42.578440010547638" lon="1.630187965929508">
        <ele>1602.1700000000001</ele>
        <time>2025-05-14T12:17:12Z</time>
      </trkpt>
      <trkpt lat="42.578500024974346" lon="1.630368009209633">
        <ele>1603.1400000000001</ele>
        <time>2025-05-14T12:17:13Z</time>
      </trkpt>
      <trkpt lat="42.578519973903894" lon="1.630574036389589">
        <ele>1604.0999999999999</ele>
        <time>2025-05-14T12:17:14Z</time>
      </trkpt>
      <trkpt lat="42.578539000824094" lon="1.630780985578895">
        <ele>1605.0599999999999</ele>
        <time>2025-05-14T12:17:15Z</time>
      </trkpt>
      <trkpt lat="42.578525003045797" lon="1.630988018587232">
        <ele>1606.02</ele>
        <time>2025-05-14T12:17:16Z</time>
      </trkpt>
      <trkpt lat="42.578496001660824" lon="1.631185999140143">
        <ele>1607.9400000000001</ele>
        <time>2025-05-14T12:17:17Z</time>
      </trkpt>
      <trkpt lat="42.57846599444747" lon="1.631385991349816">
        <ele>1609.3800000000001</ele>
        <time>2025-05-14T12:17:18Z</time>
      </trkpt>
      <trkpt lat="42.578435987234116" lon="1.631594030186534">
        <ele>1611.3099999999999</ele>
        <time>2025-05-14T12:17:19Z</time>
      </trkpt>
      <trkpt lat="42.578219985589385" lon="1.633226992562413">
        <ele>1619</ele>
        <time>2025-05-14T12:17:27Z</time>
      </trkpt>
      <trkpt lat="42.578171035274863" lon="1.633871980011463">
        <ele>1621.4000000000001</ele>
        <time>2025-05-14T12:17:31Z</time>
      </trkpt>
      <trkpt lat="42.578043965622783" lon="1.634075995534658">
        <ele>1622.8399999999999</ele>
        <time>2025-05-14T12:17:33Z</time>
      </trkpt>
      <trkpt lat="42.578083025291562" lon="1.634270958602428">
        <ele>1622.8399999999999</ele>
        <time>2025-05-14T12:17:34Z</time>
      </trkpt>
      <trkpt lat="42.578201964497566" lon="1.634327033534646">
        <ele>1623.3199999999999</ele>
        <time>2025-05-14T12:17:35Z</time>
      </trkpt>
      <trkpt lat="42.578223003074527" lon="1.634456031024456">
        <ele>1623.3199999999999</ele>
        <time>2025-05-14T12:17:36Z</time>
      </trkpt>
      <trkpt lat="42.578245969489217" lon="1.634603971615434">
        <ele>1622.8399999999999</ele>
        <time>2025-05-14T12:17:37Z</time>
      </trkpt>
      <trkpt lat="42.57827203720808" lon="1.634771022945643">
        <ele>1622.3599999999999</ele>
        <time>2025-05-14T12:17:38Z</time>
      </trkpt>
      <trkpt lat="42.578300032764673" lon="1.634950982406735">
        <ele>1621.4000000000001</ele>
        <time>2025-05-14T12:17:39Z</time>
      </trkpt>
      <trkpt lat="42.578456019982696" lon="1.63571197539568">
        <ele>1618.52</ele>
        <time>2025-05-14T12:17:43Z</time>
      </trkpt>
      <trkpt lat="42.578780986368656" lon="1.636769017204642">
        <ele>1618.52</ele>
        <time>2025-05-14T12:17:49Z</time>
      </trkpt>
      <trkpt lat="42.578806970268488" lon="1.636950988322496">
        <ele>1619</ele>
        <time>2025-05-14T12:17:50Z</time>
      </trkpt>
      <trkpt lat="42.578832032158971" lon="1.63712901994586">
        <ele>1619.48</ele>
        <time>2025-05-14T12:17:51Z</time>
      </trkpt>
      <trkpt lat="42.578843012452126" lon="1.637303028255701">
        <ele>1619.48</ele>
        <time>2025-05-14T12:17:52Z</time>
      </trkpt>
      <trkpt lat="42.578835971653461" lon="1.637486005201936">
        <ele>1619.96</ele>
        <time>2025-05-14T12:17:53Z</time>
      </trkpt>
      <trkpt lat="42.57876799441874" lon="1.638710014522076">
        <ele>1626.21</ele>
        <time>2025-05-14T12:18:00Z</time>
      </trkpt>
      <trkpt lat="42.578808981925249" lon="1.638862984254956">
        <ele>1627.1700000000001</ele>
        <time>2025-05-14T12:18:01Z</time>
      </trkpt>
      <trkpt lat="42.5788529869169" lon="1.63902098312974">
        <ele>1628.6099999999999</ele>
        <time>2025-05-14T12:18:02Z</time>
      </trkpt>
      <trkpt lat="42.579360008239746" lon="1.640294026583433">
        <ele>1636.78</ele>
        <time>2025-05-14T12:18:10Z</time>
      </trkpt>
      <trkpt lat="42.579403007403016" lon="1.640439033508301">
        <ele>1637.26</ele>
        <time>2025-05-14T12:18:11Z</time>
      </trkpt>
      <trkpt lat="42.579424967989326" lon="1.640558978542686">
        <ele>1638.22</ele>
        <time>2025-05-14T12:18:12Z</time>
      </trkpt>
      <trkpt lat="42.57947500795126" lon="1.640830971300602">
        <ele>1639.1900000000001</ele>
        <time>2025-05-14T12:18:14Z</time>
      </trkpt>
      <trkpt lat="42.579532004892826" lon="1.642469968646765">
        <ele>1643.03</ele>
        <time>2025-05-14T12:18:24Z</time>
      </trkpt>
      <trkpt lat="42.579639963805676" lon="1.644295966252685">
        <ele>1650.72</ele>
        <time>2025-05-14T12:18:35Z</time>
      </trkpt>
      <trkpt lat="42.579801985993981" lon="1.645499020814896">
        <ele>1656.97</ele>
        <time>2025-05-14T12:18:42Z</time>
      </trkpt>
      <trkpt lat="42.579747000709176" lon="1.645695995539427">
        <ele>1657.45</ele>
        <time>2025-05-14T12:18:43Z</time>
      </trkpt>
      <trkpt lat="42.579768039286137" lon="1.645803032442927">
        <ele>1657.9300000000001</ele>
        <time>2025-05-14T12:18:44Z</time>
      </trkpt>
      <trkpt lat="42.579909022897482" lon="1.64587402716279">
        <ele>1658.4100000000001</ele>
        <time>2025-05-14T12:18:45Z</time>
      </trkpt>
      <trkpt lat="42.579960990697145" lon="1.645991960540414">
        <ele>1658.8900000000001</ele>
        <time>2025-05-14T12:18:46Z</time>
      </trkpt>
      <trkpt lat="42.580019999295473" lon="1.646122969686985">
        <ele>1658.8900000000001</ele>
        <time>2025-05-14T12:18:47Z</time>
      </trkpt>
      <trkpt lat="42.580079007893801" lon="1.646277029067278">
        <ele>1659.8499999999999</ele>
        <time>2025-05-14T12:18:48Z</time>
      </trkpt>
      <trkpt lat="42.580243963748217" lon="1.647112034261227">
        <ele>1660.8099999999999</ele>
        <time>2025-05-14T12:18:53Z</time>
      </trkpt>
      <trkpt lat="42.580259973183274" lon="1.64727003313601">
        <ele>1661.3</ele>
        <time>2025-05-14T12:18:54Z</time>
      </trkpt>
      <trkpt lat="42.58024899289012" lon="1.647434988990426">
        <ele>1662.26</ele>
        <time>2025-05-14T12:18:55Z</time>
      </trkpt>
      <trkpt lat="42.58022996596992" lon="1.647598017007113">
        <ele>1662.74</ele>
        <time>2025-05-14T12:18:56Z</time>
      </trkpt>
      <trkpt lat="42.580185038968921" lon="1.647749980911613">
        <ele>1663.22</ele>
        <time>2025-05-14T12:18:57Z</time>
      </trkpt>
      <trkpt lat="42.58014002814889" lon="1.647904962301254">
        <ele>1664.1800000000001</ele>
        <time>2025-05-14T12:18:58Z</time>
      </trkpt>
      <trkpt lat="42.580091999843717" lon="1.648050975054503">
        <ele>1664.6600000000001</ele>
        <time>2025-05-14T12:18:59Z</time>
      </trkpt>
      <trkpt lat="42.579707019031048" lon="1.649121008813381">
        <ele>1669.47</ele>
        <time>2025-05-14T12:19:07Z</time>
      </trkpt>
      <trkpt lat="42.579661002382636" lon="1.649237014353275">
        <ele>1669.95</ele>
        <time>2025-05-14T12:19:08Z</time>
      </trkpt>
      <trkpt lat="42.579622026532888" lon="1.649303985759616">
        <ele>1670.4300000000001</ele>
        <time>2025-05-14T12:19:09Z</time>
      </trkpt>
      <trkpt lat="42.579575004056096" lon="1.649386966601014">
        <ele>1670.9100000000001</ele>
        <time>2025-05-14T12:19:10Z</time>
      </trkpt>
      <trkpt lat="42.579517001286149" lon="1.649452010169625">
        <ele>1670.9100000000001</ele>
        <time>2025-05-14T12:19:11Z</time>
      </trkpt>
      <trkpt lat="42.57945497520268" lon="1.649521999061108">
        <ele>1670.9100000000001</ele>
        <time>2025-05-14T12:19:12Z</time>
      </trkpt>
      <trkpt lat="42.579361014068127" lon="1.649609003216028">
        <ele>1671.3900000000001</ele>
        <time>2025-05-14T12:19:13Z</time>
      </trkpt>
      <trkpt lat="42.579265041276813" lon="1.649675974622369">
        <ele>1671.8699999999999</ele>
        <time>2025-05-14T12:19:14Z</time>
      </trkpt>
      <trkpt lat="42.578804036602378" lon="1.650081994011998">
        <ele>1675.23</ele>
        <time>2025-05-14T12:19:19Z</time>
      </trkpt>
      <trkpt lat="42.578755002468824" lon="1.650218032300472">
        <ele>1675.72</ele>
        <time>2025-05-14T12:19:20Z</time>
      </trkpt>
      <trkpt lat="42.578714014962316" lon="1.650366978719831">
        <ele>1676.6800000000001</ele>
        <time>2025-05-14T12:19:21Z</time>
      </trkpt>
      <trkpt lat="42.578287962824106" lon="1.652119969949126">
        <ele>1690.1400000000001</ele>
        <time>2025-05-14T12:19:31Z</time>
      </trkpt>
      <trkpt lat="42.577697960659862" lon="1.654083011671901">
        <ele>1701.6700000000001</ele>
        <time>2025-05-14T12:19:42Z</time>
      </trkpt>
      <trkpt lat="42.57760601118207" lon="1.654707966372371">
        <ele>1704.0699999999999</ele>
        <time>2025-05-14T12:19:45Z</time>
      </trkpt>
      <trkpt lat="42.577600982040167" lon="1.654912987723947">
        <ele>1705.04</ele>
        <time>2025-05-14T12:19:46Z</time>
      </trkpt>
      <trkpt lat="42.577614979818463" lon="1.655119014903903">
        <ele>1706</ele>
        <time>2025-05-14T12:19:47Z</time>
      </trkpt>
      <trkpt lat="42.577636018395424" lon="1.655329987406731">
        <ele>1706.96</ele>
        <time>2025-05-14T12:19:48Z</time>
      </trkpt>
      <trkpt lat="42.577657978981733" lon="1.655534002929926">
        <ele>1707.9200000000001</ele>
        <time>2025-05-14T12:19:49Z</time>
      </trkpt>
      <trkpt lat="42.577697960659862" lon="1.655718991532922">
        <ele>1708.8800000000001</ele>
        <time>2025-05-14T12:19:50Z</time>
      </trkpt>
      <trkpt lat="42.57775504142046" lon="1.655905991792679">
        <ele>1709.8399999999999</ele>
        <time>2025-05-14T12:19:51Z</time>
      </trkpt>
      <trkpt lat="42.577811032533646" lon="1.656091986224055">
        <ele>1710.8</ele>
        <time>2025-05-14T12:19:52Z</time>
      </trkpt>
      <trkpt lat="42.577869035303593" lon="1.656284015625715">
        <ele>1711.28</ele>
        <time>2025-05-14T12:19:53Z</time>
      </trkpt>
      <trkpt lat="42.578206993639469" lon="1.657026987522841">
        <ele>1714.1700000000001</ele>
        <time>2025-05-14T12:19:57Z</time>
      </trkpt>
      <trkpt lat="42.578309001401067" lon="1.657219016924501">
        <ele>1714.1700000000001</ele>
        <time>2025-05-14T12:19:58Z</time>
      </trkpt>
      <trkpt lat="42.578674033284187" lon="1.657706005498767">
        <ele>1715.6099999999999</ele>
        <time>2025-05-14T12:20:01Z</time>
      </trkpt>
      <trkpt lat="42.579655973240733" lon="1.659185998141766">
        <ele>1722.3399999999999</ele>
        <time>2025-05-14T12:20:10Z</time>
      </trkpt>
      <trkpt lat="42.579765021800995" lon="1.659353971481323">
        <ele>1723.3</ele>
        <time>2025-05-14T12:20:11Z</time>
      </trkpt>
      <trkpt lat="42.581076035276055" lon="1.661059018224478">
        <ele>1738.2</ele>
        <time>2025-05-14T12:20:22Z</time>
      </trkpt>
      <trkpt lat="42.582633979618549" lon="1.662484025582671">
        <ele>1748.78</ele>
        <time>2025-05-14T12:20:33Z</time>
      </trkpt>
      <trkpt lat="42.583571998402476" lon="1.663211993873119">
        <ele>1751.1800000000001</ele>
        <time>2025-05-14T12:20:40Z</time>
      </trkpt>
      <trkpt lat="42.583681968972087" lon="1.663327999413014">
        <ele>1751.6600000000001</ele>
        <time>2025-05-14T12:20:41Z</time>
      </trkpt>
      <trkpt lat="42.583766039460897" lon="1.66347099468112">
        <ele>1752.1400000000001</ele>
        <time>2025-05-14T12:20:42Z</time>
      </trkpt>
      <trkpt lat="42.583823958411813" lon="1.663622036576271">
        <ele>1753.0999999999999</ele>
        <time>2025-05-14T12:20:43Z</time>
      </trkpt>
      <trkpt lat="42.583867041394114" lon="1.663787998259068">
        <ele>1754.0599999999999</ele>
        <time>2025-05-14T12:20:44Z</time>
      </trkpt>
      <trkpt lat="42.583875004202127" lon="1.663979021832347">
        <ele>1755.02</ele>
        <time>2025-05-14T12:20:45Z</time>
      </trkpt>
      <trkpt lat="42.583848014473915" lon="1.664152024313808">
        <ele>1755.99</ele>
        <time>2025-05-14T12:20:46Z</time>
      </trkpt>
      <trkpt lat="42.583783976733685" lon="1.664313962683082">
        <ele>1756.47</ele>
        <time>2025-05-14T12:20:47Z</time>
      </trkpt>
      <trkpt lat="42.58368699811399" lon="1.664439020678401">
        <ele>1757.4300000000001</ele>
        <time>2025-05-14T12:20:48Z</time>
      </trkpt>
      <trkpt lat="42.58357803337276" lon="1.664547985419631">
        <ele>1757.9100000000001</ele>
        <time>2025-05-14T12:20:49Z</time>
      </trkpt>
      <trkpt lat="42.583453981205821" lon="1.664596013724804">
        <ele>1758.3900000000001</ele>
        <time>2025-05-14T12:20:50Z</time>
      </trkpt>
      <trkpt lat="42.583304028958082" lon="1.664640018716455">
        <ele>1758.8699999999999</ele>
        <time>2025-05-14T12:20:51Z</time>
      </trkpt>
      <trkpt lat="42.583160027861595" lon="1.664618980139494">
        <ele>1759.8299999999999</ele>
        <time>2025-05-14T12:20:52Z</time>
      </trkpt>
      <trkpt lat="42.583007980138063" lon="1.664597019553185">
        <ele>1760.3099999999999</ele>
        <time>2025-05-14T12:20:53Z</time>
      </trkpt>
      <trkpt lat="42.582370033487678" lon="1.664471039548516">
        <ele>1764.1600000000001</ele>
        <time>2025-05-14T12:20:57Z</time>
      </trkpt>
      <trkpt lat="42.582208011299372" lon="1.664466010406613">
        <ele>1765.1199999999999</ele>
        <time>2025-05-14T12:20:58Z</time>
      </trkpt>
      <trkpt lat="42.581369988620281" lon="1.664411025121808">
        <ele>1772.8099999999999</ele>
        <time>2025-05-14T12:21:03Z</time>
      </trkpt>
      <trkpt lat="42.581040998920798" lon="1.66430901736021">
        <ele>1776.6500000000001</ele>
        <time>2025-05-14T12:21:05Z</time>
      </trkpt>
      <trkpt lat="42.580208005383611" lon="1.663966029882431">
        <ele>1786.27</ele>
        <time>2025-05-14T12:21:12Z</time>
      </trkpt>
      <trkpt lat="42.579635018482804" lon="1.663756985217333">
        <ele>1793.48</ele>
        <time>2025-05-14T12:21:18Z</time>
      </trkpt>
      <trkpt lat="42.579208966344595" lon="1.663698982447386">
        <ele>1796.3599999999999</ele>
        <time>2025-05-14T12:21:22Z</time>
      </trkpt>
      <trkpt lat="42.578952983021736" lon="1.663612984120846">
        <ele>1798.76</ele>
        <time>2025-05-14T12:21:24Z</time>
      </trkpt>
      <trkpt lat="42.578862961381674" lon="1.663530003279448">
        <ele>1799.24</ele>
        <time>2025-05-14T12:21:25Z</time>
      </trkpt>
      <trkpt lat="42.578755002468824" lon="1.663430007174611">
        <ele>1800.21</ele>
        <time>2025-05-14T12:21:26Z</time>
      </trkpt>
      <trkpt lat="42.578651988878846" lon="1.663334034383297">
        <ele>1801.1700000000001</ele>
        <time>2025-05-14T12:21:27Z</time>
      </trkpt>
      <trkpt lat="42.578546963632107" lon="1.663252981379628">
        <ele>1802.1300000000001</ele>
        <time>2025-05-14T12:21:28Z</time>
      </trkpt>
      <trkpt lat="42.578433975577354" lon="1.663176035508514">
        <ele>1802.6099999999999</ele>
        <time>2025-05-14T12:21:29Z</time>
      </trkpt>
      <trkpt lat="42.57831403054297" lon="1.663138987496495">
        <ele>1804.05</ele>
        <time>2025-05-14T12:21:30Z</time>
      </trkpt>
      <trkpt lat="42.578081013634801" lon="1.663064975291491">
        <ele>1806.45</ele>
        <time>2025-05-14T12:21:32Z</time>
      </trkpt>
      <trkpt lat="42.577966013923287" lon="1.663055000826716">
        <ele>1807.4200000000001</ele>
        <time>2025-05-14T12:21:33Z</time>
      </trkpt>
      <trkpt lat="42.577855959534645" lon="1.663068998605013">
        <ele>1808.3800000000001</ele>
        <time>2025-05-14T12:21:34Z</time>
      </trkpt>
      <trkpt lat="42.577750012278557" lon="1.66312700137496">
        <ele>1809.8199999999999</ele>
        <time>2025-05-14T12:21:35Z</time>
      </trkpt>
      <trkpt lat="42.577662002295256" lon="1.663200007751584">
        <ele>1811.26</ele>
        <time>2025-05-14T12:21:36Z</time>
      </trkpt>
      <trkpt lat="42.577600982040167" lon="1.663291035220027">
        <ele>1812.7</ele>
        <time>2025-05-14T12:21:37Z</time>
      </trkpt>
      <trkpt lat="42.577566029503942" lon="1.663441993296146">
        <ele>1813.6600000000001</ele>
        <time>2025-05-14T12:21:38Z</time>
      </trkpt>
      <trkpt lat="42.577529987320304" lon="1.663594041019678">
        <ele>1814.6300000000001</ele>
        <time>2025-05-14T12:21:39Z</time>
      </trkpt>
      <trkpt lat="42.577508026733994" lon="1.663737036287785">
        <ele>1815.5899999999999</ele>
        <time>2025-05-14T12:21:40Z</time>
      </trkpt>
      <trkpt lat="42.577493023127317" lon="1.66390098631382">
        <ele>1816.0699999999999</ele>
        <time>2025-05-14T12:21:41Z</time>
      </trkpt>
      <trkpt lat="42.577223964035511" lon="1.665315013378859">
        <ele>1820.8699999999999</ele>
        <time>2025-05-14T12:21:50Z</time>
      </trkpt>
      <trkpt lat="42.576820962131023" lon="1.667026011273265">
        <ele>1827.5999999999999</ele>
        <time>2025-05-14T12:22:01Z</time>
      </trkpt>
      <trkpt lat="42.576677966862917" lon="1.668140972033143">
        <ele>1830.49</ele>
        <time>2025-05-14T12:22:08Z</time>
      </trkpt>
      <trkpt lat="42.576635973528028" lon="1.668268041685224">
        <ele>1830.97</ele>
        <time>2025-05-14T12:22:09Z</time>
      </trkpt>
      <trkpt lat="42.576588029041886" lon="1.668411958962679">
        <ele>1831.45</ele>
        <time>2025-05-14T12:22:10Z</time>
      </trkpt>
      <trkpt lat="42.576035996899009" lon="1.669679973274469">
        <ele>1837.7</ele>
        <time>2025-05-14T12:22:19Z</time>
      </trkpt>
      <trkpt lat="42.575460998341441" lon="1.671493984758854">
        <ele>1845.8699999999999</ele>
        <time>2025-05-14T12:22:31Z</time>
      </trkpt>
      <trkpt lat="42.574904020875692" lon="1.672615986317396">
        <ele>1851.1600000000001</ele>
        <time>2025-05-14T12:22:39Z</time>
      </trkpt>
      <trkpt lat="42.574041020125151" lon="1.673619970679283">
        <ele>1857.4000000000001</ele>
        <time>2025-05-14T12:22:48Z</time>
      </trkpt>
      <trkpt lat="42.57399600930512" lon="1.67374100536108">
        <ele>1857.8900000000001</ele>
        <time>2025-05-14T12:22:49Z</time>
      </trkpt>
      <trkpt lat="42.573972959071398" lon="1.673962958157063">
        <ele>1858.3699999999999</ele>
        <time>2025-05-14T12:22:50Z</time>
      </trkpt>
      <trkpt lat="42.573886038735509" lon="1.674086004495621">
        <ele>1858.8499999999999</ele>
        <time>2025-05-14T12:22:51Z</time>
      </trkpt>
      <trkpt lat="42.573798028752208" lon="1.67421399615705">
        <ele>1859.3299999999999</ele>
        <time>2025-05-14T12:22:52Z</time>
      </trkpt>
      <trkpt lat="42.573699038475752" lon="1.674338970333338">
        <ele>1859.8099999999999</ele>
        <time>2025-05-14T12:22:53Z</time>
      </trkpt>
      <trkpt lat="42.572689019143581" lon="1.675334991887212">
        <ele>1867.5</ele>
        <time>2025-05-14T12:23:01Z</time>
      </trkpt>
      <trkpt lat="42.571491999551654" lon="1.676840968430042">
        <ele>1879.03</ele>
        <time>2025-05-14T12:23:10Z</time>
      </trkpt>
      <trkpt lat="42.569854008033872" lon="1.678103031590581">
        <ele>1891.53</ele>
        <time>2025-05-14T12:23:20Z</time>
      </trkpt>
      <trkpt lat="42.569674970582128" lon="1.678185006603599">
        <ele>1892.97</ele>
        <time>2025-05-14T12:23:21Z</time>
      </trkpt>
      <trkpt lat="42.569488976150751" lon="1.678250972181559">
        <ele>1894.4200000000001</ele>
        <time>2025-05-14T12:23:22Z</time>
      </trkpt>
      <trkpt lat="42.567915022373199" lon="1.678591025993228">
        <ele>1906.4300000000001</ele>
        <time>2025-05-14T12:23:30Z</time>
      </trkpt>
      <trkpt lat="42.567349998280406" lon="1.67859697714448">
        <ele>1910.76</ele>
        <time>2025-05-14T12:23:33Z</time>
      </trkpt>
      <trkpt lat="42.567182024940848" lon="1.678667971864343">
        <ele>1912.2</ele>
        <time>2025-05-14T12:23:34Z</time>
      </trkpt>
      <trkpt lat="42.56701203994453" lon="1.678739972412586">
        <ele>1913.6400000000001</ele>
        <time>2025-05-14T12:23:35Z</time>
      </trkpt>
      <trkpt lat="42.565604969859123" lon="1.679499037563801">
        <ele>1926.6199999999999</ele>
        <time>2025-05-14T12:23:43Z</time>
      </trkpt>
      <trkpt lat="42.565440014004707" lon="1.679567014798522">
        <ele>1928.0599999999999</ele>
        <time>2025-05-14T12:23:44Z</time>
      </trkpt>
      <trkpt lat="42.565268017351627" lon="1.679598027840257">
        <ele>1929.5</ele>
        <time>2025-05-14T12:23:45Z</time>
      </trkpt>
      <trkpt lat="42.565091997385025" lon="1.679612025618553">
        <ele>1930.46</ele>
        <time>2025-05-14T12:23:46Z</time>
      </trkpt>
      <trkpt lat="42.564921006560326" lon="1.679625017568469">
        <ele>1931.9100000000001</ele>
        <time>2025-05-14T12:23:47Z</time>
      </trkpt>
      <trkpt lat="42.5647599902004" lon="1.679638009518385">
        <ele>1933.3499999999999</ele>
        <time>2025-05-14T12:23:48Z</time>
      </trkpt>
      <trkpt lat="42.564612971618772" lon="1.679677991196513">
        <ele>1934.79</ele>
        <time>2025-05-14T12:23:49Z</time>
      </trkpt>
      <trkpt lat="42.564467964693904" lon="1.67975602671504">
        <ele>1936.23</ele>
        <time>2025-05-14T12:23:50Z</time>
      </trkpt>
      <trkpt lat="42.564323963597417" lon="1.679848982021213">
        <ele>1937.6700000000001</ele>
        <time>2025-05-14T12:23:51Z</time>
      </trkpt>
      <trkpt lat="42.564190020784736" lon="1.679976973682642">
        <ele>1939.5999999999999</ele>
        <time>2025-05-14T12:23:52Z</time>
      </trkpt>
      <trkpt lat="42.563773021101952" lon="1.680393973365426">
        <ele>1945.3599999999999</ele>
        <time>2025-05-14T12:23:55Z</time>
      </trkpt>
      <trkpt lat="42.561996979638934" lon="1.682233968749642">
        <ele>1966.03</ele>
        <time>2025-05-14T12:24:07Z</time>
      </trkpt>
      <trkpt lat="42.561190975829959" lon="1.683282963931561">
        <ele>1977.0899999999999</ele>
        <time>2025-05-14T12:24:15Z</time>
      </trkpt>
      <trkpt lat="42.560748998075724" lon="1.684102965518832">
        <ele>1985.26</ele>
        <time>2025-05-14T12:24:22Z</time>
      </trkpt>
      <trkpt lat="42.559951040893793" lon="1.685247011482716">
        <ele>1995.3499999999999</ele>
        <time>2025-05-14T12:24:31Z</time>
      </trkpt>
      <trkpt lat="42.559679970145226" lon="1.685616988688707">
        <ele>1998.72</ele>
        <time>2025-05-14T12:24:34Z</time>
      </trkpt>
      <trkpt lat="42.558749997988343" lon="1.686912998557091">
        <ele>2009.77</ele>
        <time>2025-05-14T12:24:44Z</time>
      </trkpt>
      <trkpt lat="42.557401014491916" lon="1.688834968954325">
        <ele>2022.27</ele>
        <time>2025-05-14T12:24:57Z</time>
      </trkpt>
      <trkpt lat="42.55612101405859" lon="1.68993903324008">
        <ele>2025.6400000000001</ele>
        <time>2025-05-14T12:25:06Z</time>
      </trkpt>
      <trkpt lat="42.554324017837644" lon="1.691569983959198">
        <ele>2029.96</ele>
        <time>2025-05-14T12:25:19Z</time>
      </trkpt>
      <trkpt lat="42.553018033504486" lon="1.693181991577148">
        <ele>2032.3599999999999</ele>
        <time>2025-05-14T12:25:29Z</time>
      </trkpt>
      <trkpt lat="42.551786983385682" lon="1.695017963647842">
        <ele>2037.6500000000001</ele>
        <time>2025-05-14T12:25:41Z</time>
      </trkpt>
      <trkpt lat="42.551766028627753" lon="1.695048976689577">
        <ele>2038.6099999999999</ele>
        <time>2025-05-14T12:25:42Z</time>
      </trkpt>
      <trkpt lat="42.551702996715903" lon="1.695218039676547">
        <ele>2039.0899999999999</ele>
        <time>2025-05-14T12:25:43Z</time>
      </trkpt>
      <trkpt lat="42.551529994234443" lon="1.695219967514277">
        <ele>2040.05</ele>
        <time>2025-05-14T12:25:44Z</time>
      </trkpt>
      <trkpt lat="42.551486995071173" lon="1.695285011082888">
        <ele>2040.54</ele>
        <time>2025-05-14T12:25:45Z</time>
      </trkpt>
      <trkpt lat="42.551433015614748" lon="1.695365980267525">
        <ele>2040.54</ele>
        <time>2025-05-14T12:25:46Z</time>
      </trkpt>
      <trkpt lat="42.551423963159323" lon="1.695530014112592">
        <ele>2041.02</ele>
        <time>2025-05-14T12:25:47Z</time>
      </trkpt>
      <trkpt lat="42.551443995907903" lon="1.695627998560667">
        <ele>2041.5</ele>
        <time>2025-05-14T12:25:48Z</time>
      </trkpt>
      <trkpt lat="42.55143703892827" lon="1.695808041840792">
        <ele>2041.5</ele>
        <time>2025-05-14T12:25:49Z</time>
      </trkpt>
      <trkpt lat="42.551368977874517" lon="1.695918012410402">
        <ele>2041.98</ele>
        <time>2025-05-14T12:25:50Z</time>
      </trkpt>
      <trkpt lat="42.551289014518261" lon="1.696023959666491">
        <ele>2042.46</ele>
        <time>2025-05-14T12:25:51Z</time>
      </trkpt>
      <trkpt lat="42.551198992878199" lon="1.696124961599708">
        <ele>2043.4200000000001</ele>
        <time>2025-05-14T12:25:52Z</time>
      </trkpt>
      <trkpt lat="42.551103020086884" lon="1.696231998503208">
        <ele>2044.3800000000001</ele>
        <time>2025-05-14T12:25:53Z</time>
      </trkpt>
      <trkpt lat="42.550297016277909" lon="1.69737403281033">
        <ele>2053.0300000000002</ele>
        <time>2025-05-14T12:26:01Z</time>
      </trkpt>
      <trkpt lat="42.549269981682301" lon="1.699052006006241">
        <ele>2066.9699999999998</ele>
        <time>2025-05-14T12:26:11Z</time>
      </trkpt>
      <trkpt lat="42.54843195900321" lon="1.699835965409875">
        <ele>2076.0999999999999</ele>
        <time>2025-05-14T12:26:17Z</time>
      </trkpt>
      <trkpt lat="42.548267003148794" lon="1.699915006756783">
        <ele>2077.5500000000002</ele>
        <time>2025-05-14T12:26:18Z</time>
      </trkpt>
      <trkpt lat="42.547642970457673" lon="1.700218012556434">
        <ele>2082.8299999999999</ele>
        <time>2025-05-14T12:26:22Z</time>
      </trkpt>
      <trkpt lat="42.547497041523457" lon="1.700312979519367">
        <ele>2084.2800000000002</ele>
        <time>2025-05-14T12:26:23Z</time>
      </trkpt>
      <trkpt lat="42.547358991578221" lon="1.700421022251248">
        <ele>2085.2399999999998</ele>
        <time>2025-05-14T12:26:24Z</time>
      </trkpt>
      <trkpt lat="42.545732986181974" lon="1.701664980500937">
        <ele>2102.54</ele>
        <time>2025-05-14T12:26:35Z</time>
      </trkpt>
      <trkpt lat="42.544250981882215" lon="1.703112032264471">
        <ele>2117.4400000000001</ele>
        <time>2025-05-14T12:26:45Z</time>
      </trkpt>
      <trkpt lat="42.54348998889327" lon="1.703516039997339">
        <ele>2124.1700000000001</ele>
        <time>2025-05-14T12:26:50Z</time>
      </trkpt>
      <trkpt lat="42.543355962261558" lon="1.703501036390662">
        <ele>2125.1300000000001</ele>
        <time>2025-05-14T12:26:51Z</time>
      </trkpt>
      <trkpt lat="42.54323098808527" lon="1.703487038612366">
        <ele>2126.0900000000001</ele>
        <time>2025-05-14T12:26:52Z</time>
      </trkpt>
      <trkpt lat="42.543022027239203" lon="1.703463988378644">
        <ele>2127.5300000000002</ele>
        <time>2025-05-14T12:26:54Z</time>
      </trkpt>
      <trkpt lat="42.542951032519341" lon="1.703486032783985">
        <ele>2128.5</ele>
        <time>2025-05-14T12:26:55Z</time>
      </trkpt>
      <trkpt lat="42.542882971465588" lon="1.703530959784985">
        <ele>2129.46</ele>
        <time>2025-05-14T12:26:56Z</time>
      </trkpt>
      <trkpt lat="42.542867967858911" lon="1.703604971989989">
        <ele>2129.9400000000001</ele>
        <time>2025-05-14T12:26:57Z</time>
      </trkpt>
      <trkpt lat="42.542880959808826" lon="1.703705973923206">
        <ele>2130.9000000000001</ele>
        <time>2025-05-14T12:26:58Z</time>
      </trkpt>
      <trkpt lat="42.542908033356071" lon="1.703740004450083">
        <ele>2131.3800000000001</ele>
        <time>2025-05-14T12:26:59Z</time>
      </trkpt>
      <trkpt lat="42.542977016419172" lon="1.703800018876791">
        <ele>2131.8600000000001</ele>
        <time>2025-05-14T12:27:00Z</time>
      </trkpt>
      <trkpt lat="42.543053962290287" lon="1.703867996111512">
        <ele>2132.8200000000002</ele>
        <time>2025-05-14T12:27:01Z</time>
      </trkpt>
      <trkpt lat="42.543125040829182" lon="1.703875036910176">
        <ele>2133.3000000000002</ele>
        <time>2025-05-14T12:27:02Z</time>
      </trkpt>
      <trkpt lat="42.543235011398792" lon="1.703887023031712">
        <ele>2133.7800000000002</ele>
        <time>2025-05-14T12:27:03Z</time>
      </trkpt>
      <trkpt lat="42.543753013014793" lon="1.703857015818358">
        <ele>2136.6700000000001</ele>
        <time>2025-05-14T12:27:07Z</time>
      </trkpt>
      <trkpt lat="42.543883016332984" lon="1.7038219794631">
        <ele>2137.6300000000001</ele>
        <time>2025-05-14T12:27:08Z</time>
      </trkpt>
      <trkpt lat="42.544200019910932" lon="1.703737992793322">
        <ele>2140.5100000000002</ele>
        <time>2025-05-14T12:27:11Z</time>
      </trkpt>
      <trkpt lat="42.544271014630795" lon="1.703718965873122">
        <ele>2141.4699999999998</ele>
        <time>2025-05-14T12:27:12Z</time>
      </trkpt>
      <trkpt lat="42.544319964945316" lon="1.703791972249746">
        <ele>2141.9499999999998</ele>
        <time>2025-05-14T12:27:13Z</time>
      </trkpt>
      <trkpt lat="42.544362964108586" lon="1.703867996111512">
        <ele>2142.9200000000001</ele>
        <time>2025-05-14T12:27:14Z</time>
      </trkpt>
      <trkpt lat="42.544343015179038" lon="1.703939996659756">
        <ele>2143.4000000000001</ele>
        <time>2025-05-14T12:27:15Z</time>
      </trkpt>
      <trkpt lat="42.544298004359007" lon="1.704021971672773">
        <ele>2144.3600000000001</ele>
        <time>2025-05-14T12:27:16Z</time>
      </trkpt>
      <trkpt lat="42.544230027124286" lon="1.704034963622689">
        <ele>2145.3200000000002</ele>
        <time>2025-05-14T12:27:17Z</time>
      </trkpt>
      <trkpt lat="42.544145034626126" lon="1.704050973057747">
        <ele>2145.8000000000002</ele>
        <time>2025-05-14T12:27:18Z</time>
      </trkpt>
      <trkpt lat="42.54404503852129" lon="1.704069999977946">
        <ele>2146.2800000000002</ele>
        <time>2025-05-14T12:27:19Z</time>
      </trkpt>
      <trkpt lat="42.543930960819125" lon="1.704105958342552">
        <ele>2146.7600000000002</ele>
        <time>2025-05-14T12:27:20Z</time>
      </trkpt>
      <trkpt lat="42.543804980814457" lon="1.704167984426022">
        <ele>2147.7199999999998</ele>
        <time>2025-05-14T12:27:21Z</time>
      </trkpt>
      <trkpt lat="42.542748022824526" lon="1.704632006585598">
        <ele>2154.9299999999998</ele>
        <time>2025-05-14T12:27:28Z</time>
      </trkpt>
      <trkpt lat="42.542596980929375" lon="1.704671988263726">
        <ele>2156.3699999999999</ele>
        <time>2025-05-14T12:27:29Z</time>
      </trkpt>
      <trkpt lat="42.542230021208525" lon="1.704769972711802">
        <ele>2159.7399999999998</ele>
        <time>2025-05-14T12:27:32Z</time>
      </trkpt>
      <trkpt lat="42.542152991518378" lon="1.704791011288762">
        <ele>2160.6999999999998</ele>
        <time>2025-05-14T12:27:33Z</time>
      </trkpt>
      <trkpt lat="42.542134970426559" lon="1.704863011837006">
        <ele>2161.1799999999998</ele>
        <time>2025-05-14T12:27:34Z</time>
      </trkpt>
      <trkpt lat="42.542131030932069" lon="1.704876003786922">
        <ele>2162.1399999999999</ele>
        <time>2025-05-14T12:27:35Z</time>
      </trkpt>
      <trkpt lat="42.542161038145423" lon="1.704996032640338">
        <ele>2163.0999999999999</ele>
        <time>2025-05-14T12:27:36Z</time>
      </trkpt>
      <trkpt lat="42.542174030095339" lon="1.705048000440002">
        <ele>2163.5799999999999</ele>
        <time>2025-05-14T12:27:37Z</time>
      </trkpt>
      <trkpt lat="42.542227003723383" lon="1.705036014318466">
        <ele>2164.5500000000002</ele>
        <time>2025-05-14T12:27:38Z</time>
      </trkpt>
      <trkpt lat="42.542309984564781" lon="1.705015981569886">
        <ele>2165.0300000000002</ele>
        <time>2025-05-14T12:27:39Z</time>
      </trkpt>
      <trkpt lat="42.542399000376463" lon="1.704995026811957">
        <ele>2165.5100000000002</ele>
        <time>2025-05-14T12:27:40Z</time>
      </trkpt>
      <trkpt lat="42.542494973167777" lon="1.704971976578236">
        <ele>2165.9899999999998</ele>
        <time>2025-05-14T12:27:41Z</time>
      </trkpt>
      <trkpt lat="42.542598992586136" lon="1.704946998506784">
        <ele>2166.4699999999998</ele>
        <time>2025-05-14T12:27:42Z</time>
      </trkpt>
      <trkpt lat="42.542725978419185" lon="1.704953033477068">
        <ele>2167.4299999999998</ele>
        <time>2025-05-14T12:27:43Z</time>
      </trkpt>
      <trkpt lat="42.543903971090913" lon="1.70498002320528">
        <ele>2176.5599999999999</ele>
        <time>2025-05-14T12:27:51Z</time>
      </trkpt>
      <trkpt lat="42.545579010620713" lon="1.704533016309142">
        <ele>2187.1399999999999</ele>
        <time>2025-05-14T12:28:00Z</time>
      </trkpt>
      <trkpt lat="42.54729000851512" lon="1.704087015241385">
        <ele>2201.5599999999999</ele>
        <time>2025-05-14T12:28:09Z</time>
      </trkpt>
      <trkpt lat="42.547454964369535" lon="1.7041000071913">
        <ele>2203</ele>
        <time>2025-05-14T12:28:10Z</time>
      </trkpt>
      <trkpt lat="42.547621009871364" lon="1.704112999141216">
        <ele>2204.4400000000001</ele>
        <time>2025-05-14T12:28:11Z</time>
      </trkpt>
      <trkpt lat="42.548520974814892" lon="1.704391026869416">
        <ele>2213.0900000000001</ele>
        <time>2025-05-14T12:28:17Z</time>
      </trkpt>
      <trkpt lat="42.548663970082998" lon="1.704402007162571">
        <ele>2214.0500000000002</ele>
        <time>2025-05-14T12:28:18Z</time>
      </trkpt>
      <trkpt lat="42.548800008371472" lon="1.704381974413991">
        <ele>2215.5</ele>
        <time>2025-05-14T12:28:19Z</time>
      </trkpt>
      <trkpt lat="42.548935040831566" lon="1.704338975250721">
        <ele>2216.46</ele>
        <time>2025-05-14T12:28:20Z</time>
      </trkpt>
      <trkpt lat="42.549063032492995" lon="1.704260017722845">
        <ele>2217.9000000000001</ele>
        <time>2025-05-14T12:28:21Z</time>
      </trkpt>
      <trkpt lat="42.54918297752738" lon="1.704158009961247">
        <ele>2218.8600000000001</ele>
        <time>2025-05-14T12:28:22Z</time>
      </trkpt>
      <trkpt lat="42.549297977238894" lon="1.704061031341553">
        <ele>2219.8200000000002</ele>
        <time>2025-05-14T12:28:23Z</time>
      </trkpt>
      <trkpt lat="42.549409037455916" lon="1.70394997112453">
        <ele>2220.7800000000002</ele>
        <time>2025-05-14T12:28:24Z</time>
      </trkpt>
      <trkpt lat="42.549659991636872" lon="1.703699016943574">
        <ele>2224.1500000000001</ele>
        <time>2025-05-14T12:28:27Z</time>
      </trkpt>
      <trkpt lat="42.549743978306651" lon="1.703636990860105">
        <ele>2225.1100000000001</ele>
        <time>2025-05-14T12:28:28Z</time>
      </trkpt>
      <trkpt lat="42.549812961369753" lon="1.703660041093826">
        <ele>2225.5900000000001</ele>
        <time>2025-05-14T12:28:29Z</time>
      </trkpt>
      <trkpt lat="42.549884039908648" lon="1.703716032207012">
        <ele>2226.5500000000002</ele>
        <time>2025-05-14T12:28:30Z</time>
      </trkpt>
      <trkpt lat="42.549878004938364" lon="1.703844023868442">
        <ele>2227.0300000000002</ele>
        <time>2025-05-14T12:28:31Z</time>
      </trkpt>
      <trkpt lat="42.549859983846545" lon="1.703933039680123">
        <ele>2227.5100000000002</ele>
        <time>2025-05-14T12:28:32Z</time>
      </trkpt>
      <trkpt lat="42.549799969419837" lon="1.70401400886476">
        <ele>2228.4699999999998</ele>
        <time>2025-05-14T12:28:33Z</time>
      </trkpt>
      <trkpt lat="42.549724029377103" lon="1.704094978049398">
        <ele>2228.9499999999998</ele>
        <time>2025-05-14T12:28:34Z</time>
      </trkpt>
      <trkpt lat="42.549637025222182" lon="1.704188017174602">
        <ele>2228.9499999999998</ele>
        <time>2025-05-14T12:28:35Z</time>
      </trkpt>
      <trkpt lat="42.548880977556109" lon="1.705124024301767">
        <ele>2232.8000000000002</ele>
        <time>2025-05-14T12:28:42Z</time>
      </trkpt>
      <trkpt lat="42.548754997551441" lon="1.705264002084732">
        <ele>2233.2800000000002</ele>
        <time>2025-05-14T12:28:43Z</time>
      </trkpt>
      <trkpt lat="42.548616025596857" lon="1.705374978482723">
        <ele>2234.2399999999998</ele>
        <time>2025-05-14T12:28:44Z</time>
      </trkpt>
      <trkpt lat="42.548461966216564" lon="1.705443039536476">
        <ele>2235.1999999999998</ele>
        <time>2025-05-14T12:28:45Z</time>
      </trkpt>
      <trkpt lat="42.548315031453967" lon="1.705485032871366">
        <ele>2235.6799999999998</ele>
        <time>2025-05-14T12:28:46Z</time>
      </trkpt>
      <trkpt lat="42.548149991780519" lon="1.705499030649662">
        <ele>2236.6399999999999</ele>
        <time>2025-05-14T12:28:47Z</time>
      </trkpt>
      <trkpt lat="42.547984030097723" lon="1.705484027042985">
        <ele>2237.6100000000001</ele>
        <time>2025-05-14T12:28:48Z</time>
      </trkpt>
      <trkpt lat="42.547663003206253" lon="1.705477992072702">
        <ele>2239.5300000000002</ele>
        <time>2025-05-14T12:28:50Z</time>
      </trkpt>
      <trkpt lat="42.547500981017947" lon="1.705510010942817">
        <ele>2240.4899999999998</ele>
        <time>2025-05-14T12:28:51Z</time>
      </trkpt>
      <trkpt lat="42.547345999628305" lon="1.705585028976202">
        <ele>2241.9299999999998</ele>
        <time>2025-05-14T12:28:52Z</time>
      </trkpt>
      <trkpt lat="42.546286024153233" lon="1.706513995304704">
        <ele>2252.5100000000002</ele>
        <time>2025-05-14T12:28:59Z</time>
      </trkpt>
      <trkpt lat="42.545022033154964" lon="1.707643959671259">
        <ele>2264.52</ele>
        <time>2025-05-14T12:29:07Z</time>
      </trkpt>
      <trkpt lat="42.543712025508285" lon="1.708204038441181">
        <ele>2276.0599999999999</ele>
        <time>2025-05-14T12:29:14Z</time>
      </trkpt>
      <trkpt lat="42.543537011370063" lon="1.70831099152565">
        <ele>2277.5</ele>
        <time>2025-05-14T12:29:15Z</time>
      </trkpt>
      <trkpt lat="42.543371971696615" lon="1.708445018157363">
        <ele>2278.9400000000001</ele>
        <time>2025-05-14T12:29:16Z</time>
      </trkpt>
      <trkpt lat="42.543211039155722" lon="1.708582984283567">
        <ele>2280.8699999999999</ele>
        <time>2025-05-14T12:29:17Z</time>
      </trkpt>
      <trkpt lat="42.543069971725345" lon="1.708757998421788">
        <ele>2282.79</ele>
        <time>2025-05-14T12:29:18Z</time>
      </trkpt>
      <trkpt lat="42.542930999770761" lon="1.70893301256001">
        <ele>2284.23</ele>
        <time>2025-05-14T12:29:19Z</time>
      </trkpt>
      <trkpt lat="42.542792027816176" lon="1.709109032526612">
        <ele>2286.1500000000001</ele>
        <time>2025-05-14T12:29:20Z</time>
      </trkpt>
      <trkpt lat="42.542218035086989" lon="1.710056019946933">
        <ele>2293.8400000000001</ele>
        <time>2025-05-14T12:29:25Z</time>
      </trkpt>
      <trkpt lat="42.542124995961785" lon="1.710216030478478">
        <ele>2295.2800000000002</ele>
        <time>2025-05-14T12:29:26Z</time>
      </trkpt>
      <trkpt lat="42.542076967656612" lon="1.710423985496163">
        <ele>2297.21</ele>
        <time>2025-05-14T12:29:27Z</time>
      </trkpt>
      <trkpt lat="42.542043020948768" lon="1.710616014897823">
        <ele>2298.1700000000001</ele>
        <time>2025-05-14T12:29:28Z</time>
      </trkpt>
      <trkpt lat="42.542011002078652" lon="1.710793040692806">
        <ele>2299.6100000000001</ele>
        <time>2025-05-14T12:29:29Z</time>
      </trkpt>
      <trkpt lat="42.541960040107369" lon="1.711078025400639">
        <ele>2302.0100000000002</ele>
        <time>2025-05-14T12:29:31Z</time>
      </trkpt>
      <trkpt lat="42.541862977668643" lon="1.711247004568577">
        <ele>2302.98</ele>
        <time>2025-05-14T12:29:32Z</time>
      </trkpt>
      <trkpt lat="42.541789971292019" lon="1.711374996230006">
        <ele>2304.4200000000001</ele>
        <time>2025-05-14T12:29:33Z</time>
      </trkpt>
      <trkpt lat="42.541701961308718" lon="1.711527965962887">
        <ele>2305.3800000000001</ele>
        <time>2025-05-14T12:29:34Z</time>
      </trkpt>
      <trkpt lat="42.541623003780842" lon="1.711608013138175">
        <ele>2306.8200000000002</ele>
        <time>2025-05-14T12:29:35Z</time>
      </trkpt>
      <trkpt lat="42.541509009897709" lon="1.711679007858038">
        <ele>2307.7800000000002</ele>
        <time>2025-05-14T12:29:36Z</time>
      </trkpt>
      <trkpt lat="42.541393004357815" lon="1.71172896400094">
        <ele>2308.7399999999998</ele>
        <time>2025-05-14T12:29:37Z</time>
      </trkpt>
      <trkpt lat="42.541266018524766" lon="1.711727036163211">
        <ele>2309.2199999999998</ele>
        <time>2025-05-14T12:29:38Z</time>
      </trkpt>
      <trkpt lat="42.541150012984872" lon="1.711708009243012">
        <ele>2310.1900000000001</ele>
        <time>2025-05-14T12:29:39Z</time>
      </trkpt>
      <trkpt lat="42.541031995788217" lon="1.711670961230993">
        <ele>2311.1500000000001</ele>
        <time>2025-05-14T12:29:40Z</time>
      </trkpt>
      <trkpt lat="42.540927976369858" lon="1.711627040058374">
        <ele>2311.6300000000001</ele>
        <time>2025-05-14T12:29:41Z</time>
      </trkpt>
      <trkpt lat="42.540837032720447" lon="1.711588986217976">
        <ele>2312.1100000000001</ele>
        <time>2025-05-14T12:29:42Z</time>
      </trkpt>
      <trkpt lat="42.5407600030303" lon="1.71155596151948">
        <ele>2312.1100000000001</ele>
        <time>2025-05-14T12:29:43Z</time>
      </trkpt>
      <trkpt lat="42.54069596529007" lon="1.711528971791267">
        <ele>2312.5900000000001</ele>
        <time>2025-05-14T12:29:44Z</time>
      </trkpt>
      <trkpt lat="42.540670987218618" lon="1.711551016196609">
        <ele>2313.0700000000002</ele>
        <time>2025-05-14T12:29:45Z</time>
      </trkpt>
      <trkpt lat="42.540628993883729" lon="1.711593009531498">
        <ele>2313.0700000000002</ele>
        <time>2025-05-14T12:29:46Z</time>
      </trkpt>
      <trkpt lat="42.540628993883729" lon="1.711669033393264">
        <ele>2314.0300000000002</ele>
        <time>2025-05-14T12:29:47Z</time>
      </trkpt>
      <trkpt lat="42.540628993883729" lon="1.711764000356197">
        <ele>2314.0300000000002</ele>
        <time>2025-05-14T12:29:48Z</time>
      </trkpt>
      <trkpt lat="42.540678028017282" lon="1.711798030883074">
        <ele>2314.5100000000002</ele>
        <time>2025-05-14T12:29:49Z</time>
      </trkpt>
      <trkpt lat="42.54075899720192" lon="1.71185502782464">
        <ele>2314.9899999999998</ele>
        <time>2025-05-14T12:29:50Z</time>
      </trkpt>
      <trkpt lat="42.54084499552846" lon="1.711914958432317">
        <ele>2314.9899999999998</ele>
        <time>2025-05-14T12:29:51Z</time>
      </trkpt>
      <trkpt lat="42.54095396026969" lon="1.71196298673749">
        <ele>2314.9899999999998</ele>
        <time>2025-05-14T12:29:52Z</time>
      </trkpt>
      <trkpt lat="42.541878987103701" lon="1.712493980303407">
        <ele>2319.8000000000002</ele>
        <time>2025-05-14T12:29:59Z</time>
      </trkpt>
      <trkpt lat="42.542001027613878" lon="1.712562963366509">
        <ele>2320.7600000000002</ele>
        <time>2025-05-14T12:30:00Z</time>
      </trkpt>
      <trkpt lat="42.542104041203856" lon="1.712597999721766">
        <ele>2321.7199999999998</ele>
        <time>2025-05-14T12:30:01Z</time>
      </trkpt>
      <trkpt lat="42.542214011773467" lon="1.712587019428611">
        <ele>2322.6799999999998</ele>
        <time>2025-05-14T12:30:02Z</time>
      </trkpt>
      <trkpt lat="42.542314007878304" lon="1.712538991123438">
        <ele>2323.1599999999999</ele>
        <time>2025-05-14T12:30:03Z</time>
      </trkpt>
      <trkpt lat="42.542396988719702" lon="1.712431032210589">
        <ele>2324.1199999999999</ele>
        <time>2025-05-14T12:30:04Z</time>
      </trkpt>
      <trkpt lat="42.542454991489649" lon="1.71230698004365">
        <ele>2324.6100000000001</ele>
        <time>2025-05-14T12:30:05Z</time>
      </trkpt>
      <trkpt lat="42.542480975389481" lon="1.712168008089066">
        <ele>2325.5700000000002</ele>
        <time>2025-05-14T12:30:06Z</time>
      </trkpt>
      <trkpt lat="42.542495978996158" lon="1.712000034749508">
        <ele>2326.0500000000002</ele>
        <time>2025-05-14T12:30:07Z</time>
      </trkpt>
      <trkpt lat="42.542483992874622" lon="1.711885035037994">
        <ele>2326.5300000000002</ele>
        <time>2025-05-14T12:30:08Z</time>
      </trkpt>
      <trkpt lat="42.542469995096326" lon="1.71174899674952">
        <ele>2327.0100000000002</ele>
        <time>2025-05-14T12:30:09Z</time>
      </trkpt>
      <trkpt lat="42.542458008974791" lon="1.711632991209626">
        <ele>2327.4899999999998</ele>
        <time>2025-05-14T12:30:10Z</time>
      </trkpt>
      <trkpt lat="42.542484998703003" lon="1.711528971791267">
        <ele>2327.4899999999998</ele>
        <time>2025-05-14T12:30:11Z</time>
      </trkpt>
      <trkpt lat="42.54254300147295" lon="1.711497958749533">
        <ele>2327.4899999999998</ele>
        <time>2025-05-14T12:30:12Z</time>
      </trkpt>
      <trkpt lat="42.542604021728039" lon="1.711484966799617">
        <ele>2327.4899999999998</ele>
        <time>2025-05-14T12:30:13Z</time>
      </trkpt>
      <trkpt lat="42.542630005627871" lon="1.711531989276409">
        <ele>2327.9699999999998</ele>
        <time>2025-05-14T12:30:14Z</time>
      </trkpt>
      <trkpt lat="42.542668981477618" lon="1.711602983996272">
        <ele>2328.4499999999998</ele>
        <time>2025-05-14T12:30:15Z</time>
      </trkpt>
      <trkpt lat="42.542709968984127" lon="1.711687976494432">
        <ele>2328.4499999999998</ele>
        <time>2025-05-14T12:30:16Z</time>
      </trkpt>
      <trkpt lat="42.542695971205831" lon="1.711814040318131">
        <ele>2328.9299999999998</ele>
        <time>2025-05-14T12:30:17Z</time>
      </trkpt>
      <trkpt lat="42.542679961770773" lon="1.711958041414619">
        <ele>2329.8899999999999</ele>
        <time>2025-05-14T12:30:18Z</time>
      </trkpt>
      <trkpt lat="42.542670993134379" lon="1.712121991440654">
        <ele>2330.3699999999999</ele>
        <time>2025-05-14T12:30:19Z</time>
      </trkpt>
      <trkpt lat="42.542681973427534" lon="1.712476965039969">
        <ele>2331.8099999999999</ele>
        <time>2025-05-14T12:30:21Z</time>
      </trkpt>
      <trkpt lat="42.542653977870941" lon="1.712662959471345">
        <ele>2332.7800000000002</ele>
        <time>2025-05-14T12:30:22Z</time>
      </trkpt>
      <trkpt lat="42.542622964829206" lon="1.71286404132843">
        <ele>2333.7399999999998</ele>
        <time>2025-05-14T12:30:23Z</time>
      </trkpt>
      <trkpt lat="42.542546018958092" lon="1.713027991354466">
        <ele>2334.6999999999998</ele>
        <time>2025-05-14T12:30:24Z</time>
      </trkpt>
      <trkpt lat="42.542461026459932" lon="1.713199988007546">
        <ele>2336.1399999999999</ele>
        <time>2025-05-14T12:30:25Z</time>
      </trkpt>
      <trkpt lat="42.542353989556432" lon="1.713353963568807">
        <ele>2337.5799999999999</ele>
        <time>2025-05-14T12:30:26Z</time>
      </trkpt>
      <trkpt lat="42.542246030643582" lon="1.713510034605861">
        <ele>2339.02</ele>
        <time>2025-05-14T12:30:27Z</time>
      </trkpt>
      <trkpt lat="42.542138993740082" lon="1.713663004338741">
        <ele>2340.4699999999998</ele>
        <time>2025-05-14T12:30:28Z</time>
      </trkpt>
      <trkpt lat="42.542009996250272" lon="1.713770041242242">
        <ele>2341.9099999999999</ele>
        <time>2025-05-14T12:30:29Z</time>
      </trkpt>
      <trkpt lat="42.541880998760462" lon="1.713870959356427">
        <ele>2342.8699999999999</ele>
        <time>2025-05-14T12:30:30Z</time>
      </trkpt>
      <trkpt lat="42.541740015149117" lon="1.713942037895322">
        <ele>2344.3099999999999</ele>
        <time>2025-05-14T12:30:31Z</time>
      </trkpt>
      <trkpt lat="42.541594002395868" lon="1.713995011523366">
        <ele>2345.27</ele>
        <time>2025-05-14T12:30:32Z</time>
      </trkpt>
      <trkpt lat="42.541430974379182" lon="1.71400398015976">
        <ele>2346.7199999999998</ele>
        <time>2025-05-14T12:30:33Z</time>
      </trkpt>
      <trkpt lat="42.541278004646301" lon="1.713984031230211">
        <ele>2347.6799999999998</ele>
        <time>2025-05-14T12:30:34Z</time>
      </trkpt>
      <trkpt lat="42.54112302325666" lon="1.713945977389813">
        <ele>2348.6399999999999</ele>
        <time>2025-05-14T12:30:35Z</time>
      </trkpt>
      <trkpt lat="42.540970975533128" lon="1.71389501541853">
        <ele>2350.0799999999999</ele>
        <time>2025-05-14T12:30:36Z</time>
      </trkpt>
      <trkpt lat="42.540547018870711" lon="1.713694017380476">
        <ele>2353.4400000000001</ele>
        <time>2025-05-14T12:30:39Z</time>
      </trkpt>
      <trkpt lat="42.540439981967211" lon="1.713612964376807">
        <ele>2354.4099999999999</ele>
        <time>2025-05-14T12:30:40Z</time>
      </trkpt>
      <trkpt lat="42.540341997519135" lon="1.713539035990834">
        <ele>2355.3699999999999</ele>
        <time>2025-05-14T12:30:41Z</time>
      </trkpt>
      <trkpt lat="42.540264967828989" lon="1.713481033220887">
        <ele>2356.3299999999999</ele>
        <time>2025-05-14T12:30:42Z</time>
      </trkpt>
      <trkpt lat="42.540213000029325" lon="1.713481033220887">
        <ele>2356.8099999999999</ele>
        <time>2025-05-14T12:30:43Z</time>
      </trkpt>
      <trkpt lat="42.54017704166472" lon="1.713515985757113">
        <ele>2357.29</ele>
        <time>2025-05-14T12:30:44Z</time>
      </trkpt>
      <trkpt lat="42.54015700891614" lon="1.713544987142086">
        <ele>2358.25</ele>
        <time>2025-05-14T12:30:45Z</time>
      </trkpt>
      <trkpt lat="42.540172012522817" lon="1.71366099268198">
        <ele>2358.73</ele>
        <time>2025-05-14T12:30:46Z</time>
      </trkpt>
      <trkpt lat="42.540189027786255" lon="1.713729975745082">
        <ele>2359.21</ele>
        <time>2025-05-14T12:30:47Z</time>
      </trkpt>
      <trkpt lat="42.540248958393931" lon="1.71381002292037">
        <ele>2359.6900000000001</ele>
        <time>2025-05-14T12:30:48Z</time>
      </trkpt>
      <trkpt lat="42.540320036932826" lon="1.713905995711684">
        <ele>2359.6900000000001</ele>
        <time>2025-05-14T12:30:49Z</time>
      </trkpt>
      <trkpt lat="42.540398994460702" lon="1.714010015130043">
        <ele>2360.1700000000001</ele>
        <time>2025-05-14T12:30:50Z</time>
      </trkpt>
      <trkpt lat="42.540475018322468" lon="1.714144963771105">
        <ele>2360.6500000000001</ele>
        <time>2025-05-14T12:30:51Z</time>
      </trkpt>
      <trkpt lat="42.540540983900428" lon="1.714289970695972">
        <ele>2361.1399999999999</ele>
        <time>2025-05-14T12:30:52Z</time>
      </trkpt>
      <trkpt lat="42.541226958855987" lon="1.715856967493892">
        <ele>2369.3099999999999</ele>
        <time>2025-05-14T12:31:01Z</time>
      </trkpt>
      <trkpt lat="42.541324021294713" lon="1.71598001383245">
        <ele>2370.75</ele>
        <time>2025-05-14T12:31:02Z</time>
      </trkpt>
      <trkpt lat="42.541413037106395" lon="1.716084033250809">
        <ele>2371.71</ele>
        <time>2025-05-14T12:31:03Z</time>
      </trkpt>
      <trkpt lat="42.541524013504386" lon="1.716151004657149">
        <ele>2372.6700000000001</ele>
        <time>2025-05-14T12:31:04Z</time>
      </trkpt>
      <trkpt lat="42.541635995730758" lon="1.716212024912238">
        <ele>2373.6300000000001</ele>
        <time>2025-05-14T12:31:05Z</time>
      </trkpt>
      <trkpt lat="42.541757030412555" lon="1.716245971620083">
        <ele>2374.5900000000001</ele>
        <time>2025-05-14T12:31:06Z</time>
      </trkpt>
      <trkpt lat="42.541872030124068" lon="1.716228034347296">
        <ele>2376.04</ele>
        <time>2025-05-14T12:31:07Z</time>
      </trkpt>
      <trkpt lat="42.541980994865298" lon="1.716205989941955">
        <ele>2377</ele>
        <time>2025-05-14T12:31:08Z</time>
      </trkpt>
      <trkpt lat="42.542080990970135" lon="1.716156033799052">
        <ele>2378.4400000000001</ele>
        <time>2025-05-14T12:31:09Z</time>
      </trkpt>
      <trkpt lat="42.542184004560113" lon="1.716125020757318">
        <ele>2378.9200000000001</ele>
        <time>2025-05-14T12:31:10Z</time>
      </trkpt>
      <trkpt lat="42.542267991229892" lon="1.716137006878853">
        <ele>2379.4000000000001</ele>
        <time>2025-05-14T12:31:11Z</time>
      </trkpt>
      <trkpt lat="42.542336974292994" lon="1.716192997992039">
        <ele>2380.3600000000001</ele>
        <time>2025-05-14T12:31:12Z</time>
      </trkpt>
      <trkpt lat="42.542380979284644" lon="1.71625804156065">
        <ele>2380.8400000000001</ele>
        <time>2025-05-14T12:31:13Z</time>
      </trkpt>
      <trkpt lat="42.542369998991489" lon="1.716349991038442">
        <ele>2381.8000000000002</ele>
        <time>2025-05-14T12:31:14Z</time>
      </trkpt>
      <trkpt lat="42.542346026748419" lon="1.716456022113562">
        <ele>2383.25</ele>
        <time>2025-05-14T12:31:15Z</time>
      </trkpt>
      <trkpt lat="42.542316019535065" lon="1.716566998511553">
        <ele>2383.73</ele>
        <time>2025-05-14T12:31:16Z</time>
      </trkpt>
      <trkpt lat="42.542256005108356" lon="1.716686021536589">
        <ele>2384.6900000000001</ele>
        <time>2025-05-14T12:31:17Z</time>
      </trkpt>
      <trkpt lat="42.542190039530396" lon="1.71681803651154">
        <ele>2385.6500000000001</ele>
        <time>2025-05-14T12:31:18Z</time>
      </trkpt>
      <trkpt lat="42.541494006291032" lon="1.718231979757547">
        <ele>2395.2600000000002</ele>
        <time>2025-05-14T12:31:27Z</time>
      </trkpt>
      <trkpt lat="42.541391998529434" lon="1.718357959762216">
        <ele>2396.6999999999998</ele>
        <time>2025-05-14T12:31:28Z</time>
      </trkpt>
      <trkpt lat="42.541292002424598" lon="1.7184520047158">
        <ele>2397.6700000000001</ele>
        <time>2025-05-14T12:31:29Z</time>
      </trkpt>
      <trkpt lat="42.541197035461664" lon="1.718542026355863">
        <ele>2398.6300000000001</ele>
        <time>2025-05-14T12:31:30Z</time>
      </trkpt>
      <trkpt lat="42.541105002164841" lon="1.718628024682403">
        <ele>2399.1100000000001</ele>
        <time>2025-05-14T12:31:31Z</time>
      </trkpt>
      <trkpt lat="42.540258010849357" lon="1.719309976324439">
        <ele>2410.1599999999999</ele>
        <time>2025-05-14T12:31:42Z</time>
      </trkpt>
      <trkpt lat="42.540205959230661" lon="1.719370996579528">
        <ele>2410.6399999999999</ele>
        <time>2025-05-14T12:31:43Z</time>
      </trkpt>
      <trkpt lat="42.540162038058043" lon="1.719437967985869">
        <ele>2411.5999999999999</ele>
        <time>2025-05-14T12:31:44Z</time>
      </trkpt>
      <trkpt lat="42.540121972560883" lon="1.719517009332776">
        <ele>2412.0900000000001</ele>
        <time>2025-05-14T12:31:45Z</time>
      </trkpt>
      <trkpt lat="42.54007201641798" lon="1.719618011265993">
        <ele>2412.5700000000002</ele>
        <time>2025-05-14T12:31:46Z</time>
      </trkpt>
      <trkpt lat="42.540057012811303" lon="1.719674002379179">
        <ele>2413.0500000000002</ele>
        <time>2025-05-14T12:31:47Z</time>
      </trkpt>
      <trkpt lat="42.540037985891104" lon="1.719752959907055">
        <ele>2413.5300000000002</ele>
        <time>2025-05-14T12:31:48Z</time>
      </trkpt>
      <trkpt lat="42.540020970627666" lon="1.719819009304047">
        <ele>2413.5300000000002</ele>
        <time>2025-05-14T12:31:49Z</time>
      </trkpt>
      <trkpt lat="42.540006972849369" lon="1.719873994588852">
        <ele>2414.0100000000002</ele>
        <time>2025-05-14T12:31:50Z</time>
      </trkpt>
      <trkpt lat="42.539994986727834" lon="1.719922022894025">
        <ele>2414.4899999999998</ele>
        <time>2025-05-14T12:31:51Z</time>
      </trkpt>
      <trkpt lat="42.539984006434679" lon="1.719968039542437">
        <ele>2414.9699999999998</ele>
        <time>2025-05-14T12:31:52Z</time>
      </trkpt>
      <trkpt lat="42.539973026141524" lon="1.720012966543436">
        <ele>2414.9699999999998</ele>
        <time>2025-05-14T12:31:53Z</time>
      </trkpt>
      <trkpt lat="42.539961040019989" lon="1.720268027856946">
        <ele>2415.4499999999998</ele>
        <time>2025-05-14T12:32:00Z</time>
      </trkpt>
      <trkpt lat="42.539963973686099" lon="1.720293005928397">
        <ele>2415.9299999999998</ele>
        <time>2025-05-14T12:32:01Z</time>
      </trkpt>
      <trkpt lat="42.53994301892817" lon="1.720132995396853">
        <ele>2415.4499999999998</ele>
        <time>2025-05-14T12:32:02Z</time>
      </trkpt>
      <trkpt lat="42.53994301892817" lon="1.720132995396853">
        <ele>2415.4499999999998</ele>
        <time>2025-05-14T12:32:03Z</time>
      </trkpt>
      <trkpt lat="42.53994301892817" lon="1.720132995396853">
        <ele>2415.4499999999998</ele>
        <time>2025-05-14T12:32:04Z</time>
      </trkpt>
      <trkpt lat="42.539532976225019" lon="1.720498027279973">
        <ele>2414.9699999999998</ele>
        <time>2025-05-14T12:32:07Z</time>
      </trkpt>
      <trkpt lat="42.539532976225019" lon="1.720498027279973">
        <ele>2414.0100000000002</ele>
        <time>2025-05-14T12:32:16Z</time>
      </trkpt>
      <trkpt lat="42.539718970656395" lon="1.720227962359786">
        <ele>2418.8099999999999</ele>
        <time>2025-05-14T12:37:12Z</time>
      </trkpt>
      <trkpt lat="42.539734980091453" lon="1.720209019258618">
        <ele>2410.1599999999999</ele>
        <time>2025-05-14T12:37:37Z</time>
      </trkpt>
      <trkpt lat="42.539952993392944" lon="1.720212958753109">
        <ele>2408.7199999999998</ele>
        <time>2025-05-14T12:37:42Z</time>
      </trkpt>
      <trkpt lat="42.539959028363228" lon="1.720252018421888">
        <ele>2408.2399999999998</ele>
        <time>2025-05-14T12:37:43Z</time>
      </trkpt>
      <trkpt lat="42.53996497951448" lon="1.720301974564791">
        <ele>2408.7199999999998</ele>
        <time>2025-05-14T12:37:44Z</time>
      </trkpt>
      <trkpt lat="42.539973026141524" lon="1.720360983163118">
        <ele>2408.2399999999998</ele>
        <time>2025-05-14T12:37:45Z</time>
      </trkpt>
      <trkpt lat="42.539981994777918" lon="1.720428038388491">
        <ele>2408.2399999999998</ele>
        <time>2025-05-14T12:37:46Z</time>
      </trkpt>
      <trkpt lat="42.54011400975287" lon="1.721098003908992">
        <ele>2405.3600000000001</ele>
        <time>2025-05-14T12:37:56Z</time>
      </trkpt>
      <trkpt lat="42.540085008367896" lon="1.721176039427519">
        <ele>2404.8800000000001</ele>
        <time>2025-05-14T12:37:57Z</time>
      </trkpt>
      <trkpt lat="42.540065981447697" lon="1.721227001398802">
        <ele>2404.3899999999999</ele>
        <time>2025-05-14T12:37:58Z</time>
      </trkpt>
      <trkpt lat="42.540031028911471" lon="1.721270000562072">
        <ele>2403.4299999999998</ele>
        <time>2025-05-14T12:37:59Z</time>
      </trkpt>
      <trkpt lat="42.539989035576582" lon="1.721270000562072">
        <ele>2402.9499999999998</ele>
        <time>2025-05-14T12:38:00Z</time>
      </trkpt>
      <trkpt lat="42.539901025593281" lon="1.721221972256899">
        <ele>2401.9899999999998</ele>
        <time>2025-05-14T12:38:01Z</time>
      </trkpt>
      <trkpt lat="42.539874035865068" lon="1.721160029992461">
        <ele>2401.0300000000002</ele>
        <time>2025-05-14T12:38:02Z</time>
      </trkpt>
      <trkpt lat="42.539843022823334" lon="1.721087023615837">
        <ele>2400.5500000000002</ele>
        <time>2025-05-14T12:38:03Z</time>
      </trkpt>
      <trkpt lat="42.539805974811316" lon="1.721000019460917">
        <ele>2399.5900000000001</ele>
        <time>2025-05-14T12:38:04Z</time>
      </trkpt>
      <trkpt lat="42.539768004789948" lon="1.720925001427531">
        <ele>2399.1100000000001</ele>
        <time>2025-05-14T12:38:05Z</time>
      </trkpt>
      <trkpt lat="42.539612017571926" lon="1.72064202837646">
        <ele>2397.6700000000001</ele>
        <time>2025-05-14T12:38:08Z</time>
      </trkpt>
      <trkpt lat="42.538815988227725" lon="1.719498988240957">
        <ele>2388.0500000000002</ele>
        <time>2025-05-14T12:38:18Z</time>
      </trkpt>
      <trkpt lat="42.538637034595013" lon="1.719321040436626">
        <ele>2386.1300000000001</ele>
        <time>2025-05-14T12:38:20Z</time>
      </trkpt>
      <trkpt lat="42.53854701295495" lon="1.719254991039634">
        <ele>2384.6900000000001</ele>
        <time>2025-05-14T12:38:21Z</time>
      </trkpt>
      <trkpt lat="42.53844098187983" lon="1.719205034896731">
        <ele>2383.73</ele>
        <time>2025-05-14T12:38:22Z</time>
      </trkpt>
      <trkpt lat="42.538336040452123" lon="1.719157006591559">
        <ele>2382.2800000000002</ele>
        <time>2025-05-14T12:38:23Z</time>
      </trkpt>
      <trkpt lat="42.538240989670157" lon="1.719156000763178">
        <ele>2381.3200000000002</ele>
        <time>2025-05-14T12:38:24Z</time>
      </trkpt>
      <trkpt lat="42.538137976080179" lon="1.719171004369855">
        <ele>2380.8400000000001</ele>
        <time>2025-05-14T12:38:25Z</time>
      </trkpt>
      <trkpt lat="42.538033034652472" lon="1.719185002148151">
        <ele>2379.8800000000001</ele>
        <time>2025-05-14T12:38:26Z</time>
      </trkpt>
      <trkpt lat="42.537947036325932" lon="1.719234958291054">
        <ele>2379.4000000000001</ele>
        <time>2025-05-14T12:38:27Z</time>
      </trkpt>
      <trkpt lat="42.537855003029108" lon="1.719302013516426">
        <ele>2378.9200000000001</ele>
        <time>2025-05-14T12:38:28Z</time>
      </trkpt>
      <trkpt lat="42.537770010530949" lon="1.719387006014586">
        <ele>2377.96</ele>
        <time>2025-05-14T12:38:29Z</time>
      </trkpt>
      <trkpt lat="42.537706978619099" lon="1.7194829788059">
        <ele>2377.48</ele>
        <time>2025-05-14T12:38:30Z</time>
      </trkpt>
      <trkpt lat="42.537650987505913" lon="1.719608958810568">
        <ele>2376.52</ele>
        <time>2025-05-14T12:38:31Z</time>
      </trkpt>
      <trkpt lat="42.537596002221107" lon="1.719733010977507">
        <ele>2376.04</ele>
        <time>2025-05-14T12:38:32Z</time>
      </trkpt>
      <trkpt lat="42.53755996003747" lon="1.719838036224246">
        <ele>2375.0700000000002</ele>
        <time>2025-05-14T12:38:33Z</time>
      </trkpt>
      <trkpt lat="42.537551997229457" lon="1.719981031492353">
        <ele>2374.5900000000001</ele>
        <time>2025-05-14T12:38:34Z</time>
      </trkpt>
      <trkpt lat="42.537545040249825" lon="1.720130983740091">
        <ele>2374.1100000000001</ele>
        <time>2025-05-14T12:38:35Z</time>
      </trkpt>
      <trkpt lat="42.537542022764683" lon="1.720264004543424">
        <ele>2373.1500000000001</ele>
        <time>2025-05-14T12:38:36Z</time>
      </trkpt>
      <trkpt lat="42.537559038028121" lon="1.720414040610194">
        <ele>2372.6700000000001</ele>
        <time>2025-05-14T12:38:37Z</time>
      </trkpt>
      <trkpt lat="42.537574963644147" lon="1.720557035878301">
        <ele>2372.1900000000001</ele>
        <time>2025-05-14T12:38:38Z</time>
      </trkpt>
      <trkpt lat="42.537604970857501" lon="1.720673041418195">
        <ele>2371.71</ele>
        <time>2025-05-14T12:38:39Z</time>
      </trkpt>
      <trkpt lat="42.537664985284209" lon="1.720802038908005">
        <ele>2371.23</ele>
        <time>2025-05-14T12:38:40Z</time>
      </trkpt>
      <trkpt lat="42.537726005539298" lon="1.720929024741054">
        <ele>2370.27</ele>
        <time>2025-05-14T12:38:41Z</time>
      </trkpt>
      <trkpt lat="42.537783002480865" lon="1.721045030280948">
        <ele>2369.3099999999999</ele>
        <time>2025-05-14T12:38:42Z</time>
      </trkpt>
      <trkpt lat="42.53786196000874" lon="1.721160029992461">
        <ele>2368.8299999999999</ele>
        <time>2025-05-14T12:38:43Z</time>
      </trkpt>
      <trkpt lat="42.537943013012409" lon="1.721278969198465">
        <ele>2367.8600000000001</ele>
        <time>2025-05-14T12:38:44Z</time>
      </trkpt>
      <trkpt lat="42.538028005510569" lon="1.721403021365404">
        <ele>2366.9000000000001</ele>
        <time>2025-05-14T12:38:45Z</time>
      </trkpt>
      <trkpt lat="42.538757985457778" lon="1.722307009622455">
        <ele>2359.21</ele>
        <time>2025-05-14T12:38:54Z</time>
      </trkpt>
      <trkpt lat="42.538971975445747" lon="1.722567016258836">
        <ele>2353.9299999999998</ele>
        <time>2025-05-14T12:39:02Z</time>
      </trkpt>
      <trkpt lat="42.539165010675788" lon="1.722800033167005">
        <ele>2351.52</ele>
        <time>2025-05-14T12:39:12Z</time>
      </trkpt>
      <trkpt lat="42.539165010675788" lon="1.722800033167005">
        <ele>2351.04</ele>
        <time>2025-05-14T12:39:55Z</time>
      </trkpt>
      <trkpt lat="42.539165010675788" lon="1.722800033167005">
        <ele>2351.04</ele>
        <time>2025-05-14T12:40:46Z</time>
      </trkpt>
      <trkpt lat="42.539165010675788" lon="1.722800033167005">
        <ele>2351.04</ele>
        <time>2025-05-14T12:41:09Z</time>
      </trkpt>
      <trkpt lat="42.539165010675788" lon="1.722800033167005">
        <ele>2351.52</ele>
        <time>2025-05-14T12:41:41Z</time>
      </trkpt>
      <trkpt lat="42.539165010675788" lon="1.722800033167005">
        <ele>2351.52</ele>
        <time>2025-05-14T12:42:44Z</time>
      </trkpt>
      <trkpt lat="42.539096027612686" lon="1.722902962937951">
        <ele>2368.8299999999999</ele>
        <time>2025-05-14T12:44:29Z</time>
      </trkpt>
      <trkpt lat="42.539201974868774" lon="1.722844038158655">
        <ele>2365.46</ele>
        <time>2025-05-14T12:44:45Z</time>
      </trkpt>
      <trkpt lat="42.539280010387301" lon="1.722937999293208">
        <ele>2363.54</ele>
        <time>2025-05-14T12:44:47Z</time>
      </trkpt>
      <trkpt lat="42.539328960701823" lon="1.722997007891536">
        <ele>2362.5799999999999</ele>
        <time>2025-05-14T12:44:48Z</time>
      </trkpt>
      <trkpt lat="42.540001021698117" lon="1.723820026963949">
        <ele>2354.8899999999999</ele>
        <time>2025-05-14T12:44:57Z</time>
      </trkpt>
      <trkpt lat="42.540705017745495" lon="1.724641034379602">
        <ele>2347.1999999999998</ele>
        <time>2025-05-14T12:45:03Z</time>
      </trkpt>
      <trkpt lat="42.54082303494215" lon="1.724716974422336">
        <ele>2345.75</ele>
        <time>2025-05-14T12:45:04Z</time>
      </trkpt>
      <trkpt lat="42.540942979976535" lon="1.724754022434354">
        <ele>2344.3099999999999</ele>
        <time>2025-05-14T12:45:05Z</time>
      </trkpt>
      <trkpt lat="42.541053034365177" lon="1.724788974970579">
        <ele>2343.3499999999999</ele>
        <time>2025-05-14T12:45:06Z</time>
      </trkpt>
      <trkpt lat="42.541144983842969" lon="1.724802972748876">
        <ele>2341.4299999999998</ele>
        <time>2025-05-14T12:45:07Z</time>
      </trkpt>
      <trkpt lat="42.541251014918089" lon="1.724766008555889">
        <ele>2340.4699999999998</ele>
        <time>2025-05-14T12:45:08Z</time>
      </trkpt>
      <trkpt lat="42.541352016851306" lon="1.724730972200632">
        <ele>2339.02</ele>
        <time>2025-05-14T12:45:09Z</time>
      </trkpt>
      <trkpt lat="42.54144698381424" lon="1.724697025492787">
        <ele>2338.0599999999999</ele>
        <time>2025-05-14T12:45:10Z</time>
      </trkpt>
      <trkpt lat="42.541614035144448" lon="1.724659977480769">
        <ele>2335.6599999999999</ele>
        <time>2025-05-14T12:45:12Z</time>
      </trkpt>
      <trkpt lat="42.541684024035931" lon="1.724697025492787">
        <ele>2334.6999999999998</ele>
        <time>2025-05-14T12:45:13Z</time>
      </trkpt>
      <trkpt lat="42.541715037077665" lon="1.724743964150548">
        <ele>2334.2199999999998</ele>
        <time>2025-05-14T12:45:14Z</time>
      </trkpt>
      <trkpt lat="42.541738003492355" lon="1.724827028810978">
        <ele>2333.2600000000002</ele>
        <time>2025-05-14T12:45:15Z</time>
      </trkpt>
      <trkpt lat="42.541712019592524" lon="1.724911015480757">
        <ele>2332.7800000000002</ele>
        <time>2025-05-14T12:45:16Z</time>
      </trkpt>
      <trkpt lat="42.541667008772492" lon="1.724963989108801">
        <ele>2331.8099999999999</ele>
        <time>2025-05-14T12:45:17Z</time>
      </trkpt>
      <trkpt lat="42.541595008224249" lon="1.725030960515142">
        <ele>2331.3299999999999</ele>
        <time>2025-05-14T12:45:18Z</time>
      </trkpt>
      <trkpt lat="42.541520996019244" lon="1.725050993263722">
        <ele>2330.3699999999999</ele>
        <time>2025-05-14T12:45:19Z</time>
      </trkpt>
      <trkpt lat="42.541437009349465" lon="1.725073959678412">
        <ele>2329.8899999999999</ele>
        <time>2025-05-14T12:45:20Z</time>
      </trkpt>
      <trkpt lat="42.541342964395881" lon="1.725100027397275">
        <ele>2329.4099999999999</ele>
        <time>2025-05-14T12:45:21Z</time>
      </trkpt>
      <trkpt lat="42.541241962462664" lon="1.725127017125487">
        <ele>2328.4499999999998</ele>
        <time>2025-05-14T12:45:22Z</time>
      </trkpt>
      <trkpt lat="42.541142972186208" lon="1.72515501268208">
        <ele>2327.9699999999998</ele>
        <time>2025-05-14T12:45:23Z</time>
      </trkpt>
      <trkpt lat="42.540692025795579" lon="1.725396998226643">
        <ele>2325.0900000000001</ele>
        <time>2025-05-14T12:45:27Z</time>
      </trkpt>
      <trkpt lat="42.540570991113782" lon="1.725409990176559">
        <ele>2324.1199999999999</ele>
        <time>2025-05-14T12:45:28Z</time>
      </trkpt>
      <trkpt lat="42.540450962260365" lon="1.725421976298094">
        <ele>2322.6799999999998</ele>
        <time>2025-05-14T12:45:29Z</time>
      </trkpt>
      <trkpt lat="42.540318025276065" lon="1.725417030975223">
        <ele>2321.7199999999998</ele>
        <time>2025-05-14T12:45:30Z</time>
      </trkpt>
      <trkpt lat="42.540203025564551" lon="1.725359028205276">
        <ele>2320.7600000000002</ele>
        <time>2025-05-14T12:45:31Z</time>
      </trkpt>
      <trkpt lat="42.54009397700429" lon="1.725269006565213">
        <ele>2319.3200000000002</ele>
        <time>2025-05-14T12:45:32Z</time>
      </trkpt>
      <trkpt lat="42.539993980899453" lon="1.72517797909677">
        <ele>2318.3600000000001</ele>
        <time>2025-05-14T12:45:33Z</time>
      </trkpt>
      <trkpt lat="42.539897002279758" lon="1.725076977163553">
        <ele>2317.4000000000001</ele>
        <time>2025-05-14T12:45:34Z</time>
      </trkpt>
      <trkpt lat="42.539820978417993" lon="1.724971029907465">
        <ele>2315.9499999999998</ele>
        <time>2025-05-14T12:45:35Z</time>
      </trkpt>
      <trkpt lat="42.539747972041368" lon="1.724869022145867">
        <ele>2314.5100000000002</ele>
        <time>2025-05-14T12:45:36Z</time>
      </trkpt>
      <trkpt lat="42.539678988978267" lon="1.724763996899128">
        <ele>2313.5500000000002</ele>
        <time>2025-05-14T12:45:37Z</time>
      </trkpt>
      <trkpt lat="42.53962098620832" lon="1.724664000794292">
        <ele>2312.5900000000001</ele>
        <time>2025-05-14T12:45:38Z</time>
      </trkpt>
      <trkpt lat="42.539511015638709" lon="1.724479012191296">
        <ele>2311.1500000000001</ele>
        <time>2025-05-14T12:45:40Z</time>
      </trkpt>
      <trkpt lat="42.53947296179831" lon="1.724436013028026">
        <ele>2310.6700000000001</ele>
        <time>2025-05-14T12:45:41Z</time>
      </trkpt>
      <trkpt lat="42.53940599039197" lon="1.72440298832953">
        <ele>2310.1900000000001</ele>
        <time>2025-05-14T12:45:42Z</time>
      </trkpt>
      <trkpt lat="42.539369026198983" lon="1.724432995542884">
        <ele>2309.6999999999998</ele>
        <time>2025-05-14T12:45:43Z</time>
      </trkpt>
      <trkpt lat="42.539312029257417" lon="1.724478006362915">
        <ele>2309.2199999999998</ele>
        <time>2025-05-14T12:45:44Z</time>
      </trkpt>
      <trkpt lat="42.539307000115514" lon="1.724554030224681">
        <ele>2308.7399999999998</ele>
        <time>2025-05-14T12:45:45Z</time>
      </trkpt>
      <trkpt lat="42.53931999206543" lon="1.724654026329517">
        <ele>2308.2600000000002</ele>
        <time>2025-05-14T12:45:46Z</time>
      </trkpt>
      <trkpt lat="42.539360979571939" lon="1.724738012999296">
        <ele>2307.7800000000002</ele>
        <time>2025-05-14T12:45:47Z</time>
      </trkpt>
      <trkpt lat="42.539417976513505" lon="1.724845971912146">
        <ele>2307.3000000000002</ele>
        <time>2025-05-14T12:45:48Z</time>
      </trkpt>
      <trkpt lat="42.539484025910497" lon="1.724971029907465">
        <ele>2306.3400000000001</ele>
        <time>2025-05-14T12:45:49Z</time>
      </trkpt>
      <trkpt lat="42.54002801142633" lon="1.725825984030962">
        <ele>2302.4899999999998</ele>
        <time>2025-05-14T12:45:55Z</time>
      </trkpt>
      <trkpt lat="42.540131025016308" lon="1.725919023156166">
        <ele>2301.5300000000002</ele>
        <time>2025-05-14T12:45:56Z</time>
      </trkpt>
      <trkpt lat="42.540258010849357" lon="1.7259949631989">
        <ele>2300.5700000000002</ele>
        <time>2025-05-14T12:45:57Z</time>
      </trkpt>
      <trkpt lat="42.540392959490418" lon="1.72607702203095">
        <ele>2299.6100000000001</ele>
        <time>2025-05-14T12:45:58Z</time>
      </trkpt>
      <trkpt lat="42.540518017485738" lon="1.726109040901065">
        <ele>2298.6500000000001</ele>
        <time>2025-05-14T12:45:59Z</time>
      </trkpt>
      <trkpt lat="42.540661012753844" lon="1.726147010922432">
        <ele>2297.21</ele>
        <time>2025-05-14T12:46:00Z</time>
      </trkpt>
      <trkpt lat="42.541117994114757" lon="1.726333005353808">
        <ele>2293.3600000000001</ele>
        <time>2025-05-14T12:46:03Z</time>
      </trkpt>
      <trkpt lat="42.541263001039624" lon="1.726455967873335">
        <ele>2291.9200000000001</ele>
        <time>2025-05-14T12:46:04Z</time>
      </trkpt>
      <trkpt lat="42.541389986872673" lon="1.726587982848287">
        <ele>2290.48</ele>
        <time>2025-05-14T12:46:05Z</time>
      </trkpt>
      <trkpt lat="42.541516972705722" lon="1.726718991994858">
        <ele>2289.04</ele>
        <time>2025-05-14T12:46:06Z</time>
      </trkpt>
      <trkpt lat="42.54164001904428" lon="1.726846983656287">
        <ele>2288.0799999999999</ele>
        <time>2025-05-14T12:46:07Z</time>
      </trkpt>
      <trkpt lat="42.541761975735426" lon="1.726972963660955">
        <ele>2287.1100000000001</ele>
        <time>2025-05-14T12:46:08Z</time>
      </trkpt>
      <trkpt lat="42.541900025680661" lon="1.727053010836244">
        <ele>2286.1500000000001</ele>
        <time>2025-05-14T12:46:09Z</time>
      </trkpt>
      <trkpt lat="42.542046038433909" lon="1.727135991677642">
        <ele>2284.71</ele>
        <time>2025-05-14T12:46:10Z</time>
      </trkpt>
      <trkpt lat="42.542911972850561" lon="1.727615017443895">
        <ele>2277.02</ele>
        <time>2025-05-14T12:46:16Z</time>
      </trkpt>
      <trkpt lat="42.543044993653893" lon="1.727658016607165">
        <ele>2275.5799999999999</ele>
        <time>2025-05-14T12:46:17Z</time>
      </trkpt>
      <trkpt lat="42.543163010850549" lon="1.727633960545063">
        <ele>2274.6199999999999</ele>
        <time>2025-05-14T12:46:18Z</time>
      </trkpt>
      <trkpt lat="42.543440032750368" lon="1.727578975260258">
        <ele>2271.73</ele>
        <time>2025-05-14T12:46:21Z</time>
      </trkpt>
      <trkpt lat="42.543499963358045" lon="1.727662039920688">
        <ele>2270.77</ele>
        <time>2025-05-14T12:46:22Z</time>
      </trkpt>
      <trkpt lat="42.543544974178076" lon="1.72773496247828">
        <ele>2270.29</ele>
        <time>2025-05-14T12:46:23Z</time>
      </trkpt>
      <trkpt lat="42.543519996106625" lon="1.72779698856175">
        <ele>2269.3299999999999</ele>
        <time>2025-05-14T12:46:24Z</time>
      </trkpt>
      <trkpt lat="42.543480014428496" lon="1.72786102630198">
        <ele>2268.3699999999999</ele>
        <time>2025-05-14T12:46:25Z</time>
      </trkpt>
      <trkpt lat="42.543410025537014" lon="1.727901007980108">
        <ele>2267.8899999999999</ele>
        <time>2025-05-14T12:46:26Z</time>
      </trkpt>
      <trkpt lat="42.543326960876584" lon="1.727901007980108">
        <ele>2266.9299999999998</ele>
        <time>2025-05-14T12:46:27Z</time>
      </trkpt>
      <trkpt lat="42.543226964771748" lon="1.727901007980108">
        <ele>2265.96</ele>
        <time>2025-05-14T12:46:28Z</time>
      </trkpt>
      <trkpt lat="42.542204037308693" lon="1.727836970239878">
        <ele>2259.7199999999998</ele>
        <time>2025-05-14T12:46:35Z</time>
      </trkpt>
      <trkpt lat="42.541001988574862" lon="1.727427011355758">
        <ele>2250.5799999999999</ele>
        <time>2025-05-14T12:46:42Z</time>
      </trkpt>
      <trkpt lat="42.540837032720447" lon="1.727421982213855">
        <ele>2249.1399999999999</ele>
        <time>2025-05-14T12:46:43Z</time>
      </trkpt>
      <trkpt lat="42.540676016360521" lon="1.727416031062603">
        <ele>2247.6999999999998</ele>
        <time>2025-05-14T12:46:44Z</time>
      </trkpt>
      <trkpt lat="42.54052497446537" lon="1.7274110019207">
        <ele>2246.2600000000002</ele>
        <time>2025-05-14T12:46:45Z</time>
      </trkpt>
      <trkpt lat="42.540391031652689" lon="1.727407984435558">
        <ele>2245.3000000000002</ele>
        <time>2025-05-14T12:46:46Z</time>
      </trkpt>
      <trkpt lat="42.54026697948575" lon="1.727470010519028">
        <ele>2243.8499999999999</ele>
        <time>2025-05-14T12:46:47Z</time>
      </trkpt>
      <trkpt lat="42.540145022794604" lon="1.727547962218523">
        <ele>2242.8899999999999</ele>
        <time>2025-05-14T12:46:48Z</time>
      </trkpt>
      <trkpt lat="42.540015019476414" lon="1.727627003565431">
        <ele>2241.4499999999998</ele>
        <time>2025-05-14T12:46:49Z</time>
      </trkpt>
      <trkpt lat="42.539877975359559" lon="1.72769196331501">
        <ele>2240.4899999999998</ele>
        <time>2025-05-14T12:46:50Z</time>
      </trkpt>
      <trkpt lat="42.539741015061736" lon="1.727757006883621">
        <ele>2239.0500000000002</ele>
        <time>2025-05-14T12:46:51Z</time>
      </trkpt>
      <trkpt lat="42.539592990651727" lon="1.727788019925356">
        <ele>2237.6100000000001</ele>
        <time>2025-05-14T12:46:52Z</time>
      </trkpt>
      <trkpt lat="42.53944898955524" lon="1.72777796164155">
        <ele>2236.1599999999999</ele>
        <time>2025-05-14T12:46:53Z</time>
      </trkpt>
      <trkpt lat="42.53929803147912" lon="1.727737979963422">
        <ele>2234.7199999999998</ele>
        <time>2025-05-14T12:46:54Z</time>
      </trkpt>
      <trkpt lat="42.539157969877124" lon="1.727664973586798">
        <ele>2233.2800000000002</ele>
        <time>2025-05-14T12:46:55Z</time>
      </trkpt>
      <trkpt lat="42.539016986265779" lon="1.727590961381793">
        <ele>2232.3200000000002</ele>
        <time>2025-05-14T12:46:56Z</time>
      </trkpt>
      <trkpt lat="42.538072010502219" lon="1.727077988907695">
        <ele>2224.1500000000001</ele>
        <time>2025-05-14T12:47:03Z</time>
      </trkpt>
      <trkpt lat="42.537957010790706" lon="1.726982016116381">
        <ele>2222.71</ele>
        <time>2025-05-14T12:47:04Z</time>
      </trkpt>
      <trkpt lat="42.53768602386117" lon="1.726739024743438">
        <ele>2219.8200000000002</ele>
        <time>2025-05-14T12:47:07Z</time>
      </trkpt>
      <trkpt lat="42.53760396502912" lon="1.726676998659968">
        <ele>2219.3400000000001</ele>
        <time>2025-05-14T12:47:08Z</time>
      </trkpt>
      <trkpt lat="42.537542022764683" lon="1.726656965911388">
        <ele>2218.8600000000001</ele>
        <time>2025-05-14T12:47:09Z</time>
      </trkpt>
      <trkpt lat="42.537484019994736" lon="1.726712035015225">
        <ele>2218.3800000000001</ele>
        <time>2025-05-14T12:47:10Z</time>
      </trkpt>
      <trkpt lat="42.53743196837604" lon="1.726762996986508">
        <ele>2217.9000000000001</ele>
        <time>2025-05-14T12:47:11Z</time>
      </trkpt>
      <trkpt lat="42.537440015003085" lon="1.72685201279819">
        <ele>2217.4200000000001</ele>
        <time>2025-05-14T12:47:12Z</time>
      </trkpt>
      <trkpt lat="42.537448983639479" lon="1.726949997246265">
        <ele>2216.9400000000001</ele>
        <time>2025-05-14T12:47:13Z</time>
      </trkpt>
      <trkpt lat="42.5374720338732" lon="1.727021997794509">
        <ele>2216.46</ele>
        <time>2025-05-14T12:47:14Z</time>
      </trkpt>
      <trkpt lat="42.537533976137638" lon="1.727098021656275">
        <ele>2215.98</ele>
        <time>2025-05-14T12:47:15Z</time>
      </trkpt>
      <trkpt lat="42.53760396502912" lon="1.727184019982815">
        <ele>2215.5</ele>
        <time>2025-05-14T12:47:16Z</time>
      </trkpt>
      <trkpt lat="42.537682000547647" lon="1.727279992774129">
        <ele>2215.0100000000002</ele>
        <time>2025-05-14T12:47:17Z</time>
      </trkpt>
      <trkpt lat="42.537754001095891" lon="1.727412007749081">
        <ele>2214.0500000000002</ele>
        <time>2025-05-14T12:47:18Z</time>
      </trkpt>
      <trkpt lat="42.537800017744303" lon="1.727561037987471">
        <ele>2213.0900000000001</ele>
        <time>2025-05-14T12:47:19Z</time>
      </trkpt>
      <trkpt lat="42.538004033267498" lon="1.728013996034861">
        <ele>2210.21</ele>
        <time>2025-05-14T12:47:22Z</time>
      </trkpt>
      <trkpt lat="42.538086008280516" lon="1.728150034323335">
        <ele>2209.25</ele>
        <time>2025-05-14T12:47:23Z</time>
      </trkpt>
      <trkpt lat="42.53818298690021" lon="1.728308033198118">
        <ele>2208.29</ele>
        <time>2025-05-14T12:47:24Z</time>
      </trkpt>
      <trkpt lat="42.539050010964274" lon="1.729162987321615">
        <ele>2200.5900000000001</ele>
        <time>2025-05-14T12:47:32Z</time>
      </trkpt>
      <trkpt lat="42.539154030382633" lon="1.72921696677804">
        <ele>2199.6300000000001</ele>
        <time>2025-05-14T12:47:33Z</time>
      </trkpt>
      <trkpt lat="42.539282022044063" lon="1.729239011183381">
        <ele>2198.6700000000001</ele>
        <time>2025-05-14T12:47:34Z</time>
      </trkpt>
      <trkpt lat="42.539414037019014" lon="1.729260971769691">
        <ele>2197.23</ele>
        <time>2025-05-14T12:47:35Z</time>
      </trkpt>
      <trkpt lat="42.539550997316837" lon="1.729283016175032">
        <ele>2196.27</ele>
        <time>2025-05-14T12:47:36Z</time>
      </trkpt>
      <trkpt lat="42.540886988863349" lon="1.729670008644462">
        <ele>2185.6900000000001</ele>
        <time>2025-05-14T12:47:45Z</time>
      </trkpt>
      <trkpt lat="42.542385002598166" lon="1.730033028870821">
        <ele>2173.1999999999998</ele>
        <time>2025-05-14T12:47:55Z</time>
      </trkpt>
      <trkpt lat="42.544513000175357" lon="1.730539966374636">
        <ele>2156.3699999999999</ele>
        <time>2025-05-14T12:48:10Z</time>
      </trkpt>
      <trkpt lat="42.545155975967646" lon="1.730598974972963">
        <ele>2152.0500000000002</ele>
        <time>2025-05-14T12:48:15Z</time>
      </trkpt>
      <trkpt lat="42.545727035030723" lon="1.730697965249419">
        <ele>2150.1300000000001</ele>
        <time>2025-05-14T12:48:22Z</time>
      </trkpt>
      <trkpt lat="42.546115033328533" lon="1.730801984667778">
        <ele>2147.7199999999998</ele>
        <time>2025-05-14T12:48:28Z</time>
      </trkpt>
      <trkpt lat="42.546157026663423" lon="1.730817994102836">
        <ele>2147.2399999999998</ele>
        <time>2025-05-14T12:48:29Z</time>
      </trkpt>
      <trkpt lat="42.54619600251317" lon="1.730832997709513">
        <ele>2146.7600000000002</ele>
        <time>2025-05-14T12:48:30Z</time>
      </trkpt>
      <trkpt lat="42.546225003898144" lon="1.730842972174287">
        <ele>2146.7600000000002</ele>
        <time>2025-05-14T12:48:31Z</time>
      </trkpt>
      <trkpt lat="42.546277977526188" lon="1.730883037671447">
        <ele>2146.2800000000002</ele>
        <time>2025-05-14T12:48:32Z</time>
      </trkpt>
      <trkpt lat="42.546287029981613" lon="1.730916984379292">
        <ele>2146.2800000000002</ele>
        <time>2025-05-14T12:48:33Z</time>
      </trkpt>
      <trkpt lat="42.546297004446387" lon="1.73095696605742">
        <ele>2145.8000000000002</ele>
        <time>2025-05-14T12:48:34Z</time>
      </trkpt>
      <trkpt lat="42.546300021931529" lon="1.731065008789301">
        <ele>2145.3200000000002</ele>
        <time>2025-05-14T12:48:35Z</time>
      </trkpt>
      <trkpt lat="42.54628099501133" lon="1.731101972982287">
        <ele>2144.8400000000001</ele>
        <time>2025-05-14T12:48:36Z</time>
      </trkpt>
      <trkpt lat="42.546178987249732" lon="1.731204986572266">
        <ele>2144.3600000000001</ele>
        <time>2025-05-14T12:48:37Z</time>
      </trkpt>
      <trkpt lat="42.546134982258081" lon="1.731204986572266">
        <ele>2143.8800000000001</ele>
        <time>2025-05-14T12:48:38Z</time>
      </trkpt>
      <trkpt lat="42.54608997143805" lon="1.731204986572266">
        <ele>2143.8800000000001</ele>
        <time>2025-05-14T12:48:39Z</time>
      </trkpt>
      <trkpt lat="42.545473985373974" lon="1.731075989082456">
        <ele>2140.5100000000002</ele>
        <time>2025-05-14T12:48:50Z</time>
      </trkpt>
      <trkpt lat="42.545345993712544" lon="1.731090992689133">
        <ele>2139.5500000000002</ele>
        <time>2025-05-14T12:48:52Z</time>
      </trkpt>
      <trkpt lat="42.545281033962965" lon="1.731103984639049">
        <ele>2138.5900000000001</ele>
        <time>2025-05-14T12:48:53Z</time>
      </trkpt>
      <trkpt lat="42.545015998184681" lon="1.731159975752235">
        <ele>2138.1100000000001</ele>
        <time>2025-05-14T12:48:57Z</time>
      </trkpt>
      <trkpt lat="42.54494802094996" lon="1.731174979358912">
        <ele>2138.5900000000001</ele>
        <time>2025-05-14T12:48:58Z</time>
      </trkpt>
      <trkpt lat="42.544883983209729" lon="1.731187971308827">
        <ele>2139.0700000000002</ele>
        <time>2025-05-14T12:48:59Z</time>
      </trkpt>
      <trkpt lat="42.54482002928853" lon="1.731201969087124">
        <ele>2139.0700000000002</ele>
        <time>2025-05-14T12:49:00Z</time>
      </trkpt>
      <trkpt lat="42.544748028740287" lon="1.731216972693801">
        <ele>2139.5500000000002</ele>
        <time>2025-05-14T12:49:01Z</time>
      </trkpt>
      <trkpt lat="42.544674016535282" lon="1.731232982128859">
        <ele>2139.5500000000002</ele>
        <time>2025-05-14T12:49:02Z</time>
      </trkpt>
      <trkpt lat="42.544530015438795" lon="1.731262989342213">
        <ele>2140.5100000000002</ele>
        <time>2025-05-14T12:49:04Z</time>
      </trkpt>
      <trkpt lat="42.544457009062171" lon="1.73127899877727">
        <ele>2140.5100000000002</ele>
        <time>2025-05-14T12:49:05Z</time>
      </trkpt>
      <trkpt lat="42.54439196549356" lon="1.731291990727186">
        <ele>2140.5100000000002</ele>
        <time>2025-05-14T12:49:06Z</time>
      </trkpt>
      <trkpt lat="42.544332034885883" lon="1.731304982677102">
        <ele>2140.5100000000002</ele>
        <time>2025-05-14T12:49:07Z</time>
      </trkpt>
      <trkpt lat="42.544273026287556" lon="1.731316968798637">
        <ele>2140.0300000000002</ele>
        <time>2025-05-14T12:49:08Z</time>
      </trkpt>
      <trkpt lat="42.544208988547325" lon="1.731329038739204">
        <ele>2140.0300000000002</ele>
        <time>2025-05-14T12:49:09Z</time>
      </trkpt>
      <trkpt lat="42.544146040454507" lon="1.73134102486074">
        <ele>2140.0300000000002</ele>
        <time>2025-05-14T12:49:10Z</time>
      </trkpt>
      <trkpt lat="42.544097006320953" lon="1.731350999325514">
        <ele>2140.0300000000002</ele>
        <time>2025-05-14T12:49:11Z</time>
      </trkpt>
      <trkpt lat="42.544059036299586" lon="1.731358040124178">
        <ele>2140.0300000000002</ele>
        <time>2025-05-14T12:49:12Z</time>
      </trkpt>
      <trkpt lat="42.544016037136316" lon="1.731366002932191">
        <ele>2140.0300000000002</ele>
        <time>2025-05-14T12:49:13Z</time>
      </trkpt>
      <trkpt lat="42.54389701411128" lon="1.7313879635185">
        <ele>2140.0300000000002</ele>
        <time>2025-05-14T12:49:16Z</time>
      </trkpt>
      <trkpt lat="42.543714037165046" lon="1.731422999873757">
        <ele>2139.5500000000002</ele>
        <time>2025-05-14T12:49:19Z</time>
      </trkpt>
      <trkpt lat="42.543653016909957" lon="1.731433980166912">
        <ele>2139.5500000000002</ele>
        <time>2025-05-14T12:49:20Z</time>
      </trkpt>
      <trkpt lat="42.543586967512965" lon="1.731446972116828">
        <ele>2139.5500000000002</ele>
        <time>2025-05-14T12:49:21Z</time>
      </trkpt>
      <trkpt lat="42.543504992499948" lon="1.731461975723505">
        <ele>2138.5900000000001</ele>
        <time>2025-05-14T12:49:23Z</time>
      </trkpt>
      <trkpt lat="42.543373983353376" lon="1.731592984870076">
        <ele>2138.5900000000001</ele>
        <time>2025-05-14T12:49:25Z</time>
      </trkpt>
      <trkpt lat="42.543325033038855" lon="1.73164201900363">
        <ele>2138.1100000000001</ele>
        <time>2025-05-14T12:49:26Z</time>
      </trkpt>
      <trkpt lat="42.543007023632526" lon="1.731890039518476">
        <ele>2136.6700000000001</ele>
        <time>2025-05-14T12:49:32Z</time>
      </trkpt>
      <trkpt lat="42.542954972013831" lon="1.731920968741179">
        <ele>2136.1900000000001</ele>
        <time>2025-05-14T12:49:33Z</time>
      </trkpt>
      <trkpt lat="42.542633023113012" lon="1.732114003971219">
        <ele>2133.3000000000002</ele>
        <time>2025-05-14T12:49:39Z</time>
      </trkpt>
      <trkpt lat="42.542247036471963" lon="1.732362024486065">
        <ele>2128.02</ele>
        <time>2025-05-14T12:49:48Z</time>
      </trkpt>
      <trkpt lat="42.542213005945086" lon="1.732381973415613">
        <ele>2127.5300000000002</ele>
        <time>2025-05-14T12:49:49Z</time>
      </trkpt>
      <trkpt lat="42.542133964598179" lon="1.732427990064025">
        <ele>2125.6100000000001</ele>
        <time>2025-05-14T12:49:52Z</time>
      </trkpt>
      <trkpt lat="42.542107980698347" lon="1.732442993670702">
        <ele>2125.1300000000001</ele>
        <time>2025-05-14T12:49:53Z</time>
      </trkpt>
      <trkpt lat="42.542080990970135" lon="1.73245900310576">
        <ele>2124.6500000000001</ele>
        <time>2025-05-14T12:49:54Z</time>
      </trkpt>
      <trkpt lat="42.541951993480325" lon="1.732579031959176">
        <ele>2122.73</ele>
        <time>2025-05-14T12:49:58Z</time>
      </trkpt>
      <trkpt lat="42.541919974610209" lon="1.732618007808924">
        <ele>2122.25</ele>
        <time>2025-05-14T12:49:59Z</time>
      </trkpt>
      <trkpt lat="42.541887033730745" lon="1.732656983658671">
        <ele>2121.77</ele>
        <time>2025-05-14T12:50:00Z</time>
      </trkpt>
      <trkpt lat="42.541778990998864" lon="1.732839960604906">
        <ele>2118.8800000000001</ele>
        <time>2025-05-14T12:50:05Z</time>
      </trkpt>
      <trkpt lat="42.541767004877329" lon="1.732879020273686">
        <ele>2118.4000000000001</ele>
        <time>2025-05-14T12:50:06Z</time>
      </trkpt>
      <trkpt lat="42.541767004877329" lon="1.732940962538123">
        <ele>2117.4400000000001</ele>
        <time>2025-05-14T12:50:07Z</time>
      </trkpt>
      <trkpt lat="42.541767004877329" lon="1.733024027198553">
        <ele>2116.96</ele>
        <time>2025-05-14T12:50:08Z</time>
      </trkpt>
      <trkpt lat="42.541767004877329" lon="1.733111031353474">
        <ele>2116</ele>
        <time>2025-05-14T12:50:09Z</time>
      </trkpt>
      <trkpt lat="42.541767004877329" lon="1.733196023851633">
        <ele>2115.04</ele>
        <time>2025-05-14T12:50:10Z</time>
      </trkpt>
      <trkpt lat="42.541767004877329" lon="1.733261989429593">
        <ele>2114.5599999999999</ele>
        <time>2025-05-14T12:50:11Z</time>
      </trkpt>
      <trkpt lat="42.541767004877329" lon="1.733323009684682">
        <ele>2113.5999999999999</ele>
        <time>2025-05-14T12:50:12Z</time>
      </trkpt>
      <trkpt lat="42.541767004877329" lon="1.733386041596532">
        <ele>2112.6300000000001</ele>
        <time>2025-05-14T12:50:13Z</time>
      </trkpt>
      <trkpt lat="42.541767004877329" lon="1.733446978032589">
        <ele>2111.6700000000001</ele>
        <time>2025-05-14T12:50:14Z</time>
      </trkpt>
      <trkpt lat="42.541767004877329" lon="1.733501963317394">
        <ele>2110.71</ele>
        <time>2025-05-14T12:50:15Z</time>
      </trkpt>
      <trkpt lat="42.541767004877329" lon="1.733544962480664">
        <ele>2110.23</ele>
        <time>2025-05-14T12:50:16Z</time>
      </trkpt>
      <trkpt lat="42.541767004877329" lon="1.733582010492683">
        <ele>2109.27</ele>
        <time>2025-05-14T12:50:17Z</time>
      </trkpt>
      <trkpt lat="42.541767004877329" lon="1.733616041019559">
        <ele>2108.3099999999999</ele>
        <time>2025-05-14T12:50:18Z</time>
      </trkpt>
      <trkpt lat="42.541767004877329" lon="1.733639007434249">
        <ele>2106.8699999999999</ele>
        <time>2025-05-14T12:50:19Z</time>
      </trkpt>
      <trkpt lat="42.541767004877329" lon="1.733693992719054">
        <ele>2107.8299999999999</ele>
        <time>2025-05-14T12:50:20Z</time>
      </trkpt>
      <trkpt lat="42.541767004877329" lon="1.733693992719054">
        <ele>2107.8299999999999</ele>
        <time>2025-05-14T12:50:21Z</time>
      </trkpt>
      <trkpt lat="42.541767004877329" lon="1.733799017965794">
        <ele>2105.4200000000001</ele>
        <time>2025-05-14T12:50:24Z</time>
      </trkpt>
      <trkpt lat="42.541678994894028" lon="1.733779991045594">
        <ele>2104.9400000000001</ele>
        <time>2025-05-14T12:50:25Z</time>
      </trkpt>
      <trkpt lat="42.541652005165815" lon="1.733773034065962">
        <ele>2104.9400000000001</ele>
        <time>2025-05-14T12:50:26Z</time>
      </trkpt>
      <trkpt lat="42.541620992124081" lon="1.733764987438917">
        <ele>2104.46</ele>
        <time>2025-05-14T12:50:27Z</time>
      </trkpt>
      <trkpt lat="42.541585033759475" lon="1.733756018802524">
        <ele>2104.46</ele>
        <time>2025-05-14T12:50:28Z</time>
      </trkpt>
      <trkpt lat="42.541538011282682" lon="1.733744032680988">
        <ele>2104.46</ele>
        <time>2025-05-14T12:50:29Z</time>
      </trkpt>
      <trkpt lat="42.541481014341116" lon="1.733730034902692">
        <ele>2103.98</ele>
        <time>2025-05-14T12:50:30Z</time>
      </trkpt>
      <trkpt lat="42.54142502322793" lon="1.733716037124395">
        <ele>2103.98</ele>
        <time>2025-05-14T12:50:31Z</time>
      </trkpt>
      <trkpt lat="42.541362997144461" lon="1.733708996325731">
        <ele>2103.5</ele>
        <time>2025-05-14T12:50:32Z</time>
      </trkpt>
      <trkpt lat="42.54056503996253" lon="1.733607994392514">
        <ele>2104.9400000000001</ele>
        <time>2025-05-14T12:50:43Z</time>
      </trkpt>
      <trkpt lat="42.539801029488444" lon="1.733428034931421">
        <ele>2113.1199999999999</ele>
        <time>2025-05-14T12:50:53Z</time>
      </trkpt>
      <trkpt lat="42.539322003722191" lon="1.733314963057637">
        <ele>2121.29</ele>
        <time>2025-05-14T12:51:02Z</time>
      </trkpt>
      <trkpt lat="42.539187977090478" lon="1.733283028006554">
        <ele>2124.1700000000001</ele>
        <time>2025-05-14T12:51:07Z</time>
      </trkpt>
    </trkseg>
  </trk>

</gpx>